<?xml version="1.0" encoding="UTF-8" standalone="no" ?>
<gpx xmlns="http://www.topografix.com/GPX/1/1" xmlns:xsi="http://www.w3.org/2001/XMLSchema-instance" xsi:schemaLocation="http://www.topografix.com/GPX/1/1 http://www.topografix.com/GPX/1/1/gpx.xsd" version="1.1" creator="VisuGPX - https://www.visugpx.com">
  <metadata>
    <name>Saint Paul-36km</name>
    <desc><![CDATA[Ballade sur Saint Paul les Durances]]></desc>
  </metadata>
  <trk>
    <name><![CDATA[1 Place du Docteur Richaud]]></name>
    <desc><![CDATA[]]></desc>
    <trkseg>
      <trkpt lat="43.67107" lon="5.84839">
        <ele>474</ele>
        <time>2016-03-19T07:29:46.864Z</time>
      </trkpt>
      <trkpt lat="43.67106" lon="5.84829">
        <ele>470</ele>
        <time>2016-03-19T07:30:57.136Z</time>
      </trkpt>
      <trkpt lat="43.67105" lon="5.84827">
        <ele>471</ele>
        <time>2016-03-19T07:30:58.092Z</time>
      </trkpt>
      <trkpt lat="43.67102" lon="5.84816">
        <ele>465</ele>
        <time>2016-03-19T07:31:02.285Z</time>
      </trkpt>
      <trkpt lat="43.67101" lon="5.84814">
        <ele>463</ele>
        <time>2016-03-19T07:31:03.090Z</time>
      </trkpt>
      <trkpt lat="43.67095" lon="5.84822">
        <ele>462</ele>
        <time>2016-03-19T07:31:10.125Z</time>
      </trkpt>
      <trkpt lat="43.67095" lon="5.84824">
        <ele>462</ele>
        <time>2016-03-19T07:31:11.091Z</time>
      </trkpt>
      <trkpt lat="43.67087" lon="5.84825">
        <ele>462</ele>
        <time>2016-03-19T07:31:13.132Z</time>
      </trkpt>
      <trkpt lat="43.67083" lon="5.84826">
        <ele>463</ele>
        <time>2016-03-19T07:31:14.102Z</time>
      </trkpt>
      <trkpt lat="43.67083" lon="5.84826">
        <ele>463</ele>
        <time>2016-03-19T07:31:14.133Z</time>
      </trkpt>
      <trkpt lat="43.67052" lon="5.8483">
        <ele>452</ele>
        <time>2016-03-19T07:31:15.102Z</time>
      </trkpt>
      <trkpt lat="43.67052" lon="5.8483">
        <ele>452</ele>
        <time>2016-03-19T07:31:15.170Z</time>
      </trkpt>
      <trkpt lat="43.6704" lon="5.84835">
        <ele>449</ele>
        <time>2016-03-19T07:31:16.103Z</time>
      </trkpt>
      <trkpt lat="43.67034" lon="5.84838">
        <ele>450</ele>
        <time>2016-03-19T07:31:17.129Z</time>
      </trkpt>
      <trkpt lat="43.67029" lon="5.8484">
        <ele>451</ele>
        <time>2016-03-19T07:31:18.106Z</time>
      </trkpt>
      <trkpt lat="43.67022" lon="5.84846">
        <ele>454</ele>
        <time>2016-03-19T07:31:19.127Z</time>
      </trkpt>
      <trkpt lat="43.67016" lon="5.8485">
        <ele>456</ele>
        <time>2016-03-19T07:31:20.101Z</time>
      </trkpt>
      <trkpt lat="43.67011" lon="5.84853">
        <ele>457</ele>
        <time>2016-03-19T07:31:21.118Z</time>
      </trkpt>
      <trkpt lat="43.67006" lon="5.84858">
        <ele>457</ele>
        <time>2016-03-19T07:31:22.099Z</time>
      </trkpt>
      <trkpt lat="43.67" lon="5.84862">
        <ele>457</ele>
        <time>2016-03-19T07:31:23.135Z</time>
      </trkpt>
      <trkpt lat="43.66993" lon="5.84865">
        <ele>458</ele>
        <time>2016-03-19T07:31:24.103Z</time>
      </trkpt>
      <trkpt lat="43.66987" lon="5.84869">
        <ele>460</ele>
        <time>2016-03-19T07:31:25.128Z</time>
      </trkpt>
      <trkpt lat="43.66982" lon="5.84871">
        <ele>460</ele>
        <time>2016-03-19T07:31:26.103Z</time>
      </trkpt>
      <trkpt lat="43.66975" lon="5.84877">
        <ele>461</ele>
        <time>2016-03-19T07:31:28.127Z</time>
      </trkpt>
      <trkpt lat="43.66968" lon="5.84883">
        <ele>463</ele>
        <time>2016-03-19T07:31:29.101Z</time>
      </trkpt>
      <trkpt lat="43.66963" lon="5.8489">
        <ele>464</ele>
        <time>2016-03-19T07:31:31.157Z</time>
      </trkpt>
      <trkpt lat="43.66959" lon="5.84893">
        <ele>465</ele>
        <time>2016-03-19T07:31:32.102Z</time>
      </trkpt>
      <trkpt lat="43.66954" lon="5.84897">
        <ele>468</ele>
        <time>2016-03-19T07:31:35.128Z</time>
      </trkpt>
      <trkpt lat="43.6695" lon="5.849">
        <ele>468</ele>
        <time>2016-03-19T07:31:36.103Z</time>
      </trkpt>
      <trkpt lat="43.66948" lon="5.84902">
        <ele>469</ele>
        <time>2016-03-19T07:31:37.127Z</time>
      </trkpt>
      <trkpt lat="43.66941" lon="5.84905">
        <ele>465</ele>
        <time>2016-03-19T07:31:38.104Z</time>
      </trkpt>
      <trkpt lat="43.66934" lon="5.84909">
        <ele>463</ele>
        <time>2016-03-19T07:31:41.128Z</time>
      </trkpt>
      <trkpt lat="43.66931" lon="5.84911">
        <ele>463</ele>
        <time>2016-03-19T07:31:42.104Z</time>
      </trkpt>
      <trkpt lat="43.66923" lon="5.84913">
        <ele>462</ele>
        <time>2016-03-19T07:31:45.129Z</time>
      </trkpt>
      <trkpt lat="43.6692" lon="5.84914">
        <ele>462</ele>
        <time>2016-03-19T07:31:46.104Z</time>
      </trkpt>
      <trkpt lat="43.66914" lon="5.84915">
        <ele>462</ele>
        <time>2016-03-19T07:31:48.123Z</time>
      </trkpt>
      <trkpt lat="43.66911" lon="5.84916">
        <ele>463</ele>
        <time>2016-03-19T07:31:49.099Z</time>
      </trkpt>
      <trkpt lat="43.66903" lon="5.84919">
        <ele>464</ele>
        <time>2016-03-19T07:31:51.128Z</time>
      </trkpt>
      <trkpt lat="43.66899" lon="5.84921">
        <ele>462</ele>
        <time>2016-03-19T07:31:52.103Z</time>
      </trkpt>
      <trkpt lat="43.66891" lon="5.84923">
        <ele>462</ele>
        <time>2016-03-19T07:31:54.120Z</time>
      </trkpt>
      <trkpt lat="43.66886" lon="5.84924">
        <ele>463</ele>
        <time>2016-03-19T07:31:55.101Z</time>
      </trkpt>
      <trkpt lat="43.6688" lon="5.84927">
        <ele>463</ele>
        <time>2016-03-19T07:31:56.128Z</time>
      </trkpt>
      <trkpt lat="43.66876" lon="5.84928">
        <ele>463</ele>
        <time>2016-03-19T07:31:57.102Z</time>
      </trkpt>
      <trkpt lat="43.66868" lon="5.8493">
        <ele>463</ele>
        <time>2016-03-19T07:31:59.129Z</time>
      </trkpt>
      <trkpt lat="43.66863" lon="5.84931">
        <ele>463</ele>
        <time>2016-03-19T07:32:00.112Z</time>
      </trkpt>
      <trkpt lat="43.66855" lon="5.84933">
        <ele>464</ele>
        <time>2016-03-19T07:32:02.130Z</time>
      </trkpt>
      <trkpt lat="43.66851" lon="5.84934">
        <ele>464</ele>
        <time>2016-03-19T07:32:03.130Z</time>
      </trkpt>
      <trkpt lat="43.66842" lon="5.84935">
        <ele>464</ele>
        <time>2016-03-19T07:32:05.129Z</time>
      </trkpt>
      <trkpt lat="43.66838" lon="5.84936">
        <ele>464</ele>
        <time>2016-03-19T07:32:06.103Z</time>
      </trkpt>
      <trkpt lat="43.6683" lon="5.84939">
        <ele>465</ele>
        <time>2016-03-19T07:32:08.129Z</time>
      </trkpt>
      <trkpt lat="43.66826" lon="5.8494">
        <ele>465</ele>
        <time>2016-03-19T07:32:09.103Z</time>
      </trkpt>
      <trkpt lat="43.66817" lon="5.84942">
        <ele>464</ele>
        <time>2016-03-19T07:32:11.129Z</time>
      </trkpt>
      <trkpt lat="43.66813" lon="5.84943">
        <ele>464</ele>
        <time>2016-03-19T07:32:12.102Z</time>
      </trkpt>
      <trkpt lat="43.66805" lon="5.84943">
        <ele>465</ele>
        <time>2016-03-19T07:32:14.161Z</time>
      </trkpt>
      <trkpt lat="43.66801" lon="5.84944">
        <ele>465</ele>
        <time>2016-03-19T07:32:15.102Z</time>
      </trkpt>
      <trkpt lat="43.66794" lon="5.84947">
        <ele>467</ele>
        <time>2016-03-19T07:32:17.128Z</time>
      </trkpt>
      <trkpt lat="43.6679" lon="5.84948">
        <ele>468</ele>
        <time>2016-03-19T07:32:18.102Z</time>
      </trkpt>
      <trkpt lat="43.66782" lon="5.84951">
        <ele>468</ele>
        <time>2016-03-19T07:32:20.128Z</time>
      </trkpt>
      <trkpt lat="43.66778" lon="5.84954">
        <ele>468</ele>
        <time>2016-03-19T07:32:21.103Z</time>
      </trkpt>
      <trkpt lat="43.66771" lon="5.84958">
        <ele>469</ele>
        <time>2016-03-19T07:32:23.204Z</time>
      </trkpt>
      <trkpt lat="43.66767" lon="5.8496">
        <ele>468</ele>
        <time>2016-03-19T07:32:24.099Z</time>
      </trkpt>
      <trkpt lat="43.66761" lon="5.84962">
        <ele>468</ele>
        <time>2016-03-19T07:32:26.127Z</time>
      </trkpt>
      <trkpt lat="43.66757" lon="5.84964">
        <ele>468</ele>
        <time>2016-03-19T07:32:27.103Z</time>
      </trkpt>
      <trkpt lat="43.66749" lon="5.84968">
        <ele>469</ele>
        <time>2016-03-19T07:32:29.128Z</time>
      </trkpt>
      <trkpt lat="43.66745" lon="5.8497">
        <ele>469</ele>
        <time>2016-03-19T07:32:30.103Z</time>
      </trkpt>
      <trkpt lat="43.66737" lon="5.84973">
        <ele>471</ele>
        <time>2016-03-19T07:32:32.130Z</time>
      </trkpt>
      <trkpt lat="43.66733" lon="5.84974">
        <ele>471</ele>
        <time>2016-03-19T07:32:33.104Z</time>
      </trkpt>
      <trkpt lat="43.66725" lon="5.84974">
        <ele>469</ele>
        <time>2016-03-19T07:32:35.127Z</time>
      </trkpt>
      <trkpt lat="43.66721" lon="5.84972">
        <ele>469</ele>
        <time>2016-03-19T07:32:36.103Z</time>
      </trkpt>
      <trkpt lat="43.66715" lon="5.84964">
        <ele>469</ele>
        <time>2016-03-19T07:32:38.156Z</time>
      </trkpt>
      <trkpt lat="43.66713" lon="5.84959">
        <ele>469</ele>
        <time>2016-03-19T07:32:39.102Z</time>
      </trkpt>
      <trkpt lat="43.66711" lon="5.84947">
        <ele>468</ele>
        <time>2016-03-19T07:32:41.160Z</time>
      </trkpt>
      <trkpt lat="43.66715" lon="5.8494">
        <ele>468</ele>
        <time>2016-03-19T07:32:42.102Z</time>
      </trkpt>
      <trkpt lat="43.66718" lon="5.84931">
        <ele>467</ele>
        <time>2016-03-19T07:32:44.129Z</time>
      </trkpt>
      <trkpt lat="43.6672" lon="5.84925">
        <ele>467</ele>
        <time>2016-03-19T07:32:45.112Z</time>
      </trkpt>
      <trkpt lat="43.66723" lon="5.84916">
        <ele>467</ele>
        <time>2016-03-19T07:32:47.128Z</time>
      </trkpt>
      <trkpt lat="43.66726" lon="5.8491">
        <ele>467</ele>
        <time>2016-03-19T07:32:48.103Z</time>
      </trkpt>
      <trkpt lat="43.66729" lon="5.849">
        <ele>467</ele>
        <time>2016-03-19T07:32:50.128Z</time>
      </trkpt>
      <trkpt lat="43.66731" lon="5.84895">
        <ele>467</ele>
        <time>2016-03-19T07:32:51.103Z</time>
      </trkpt>
      <trkpt lat="43.66735" lon="5.84885">
        <ele>468</ele>
        <time>2016-03-19T07:32:53.139Z</time>
      </trkpt>
      <trkpt lat="43.66736" lon="5.84881">
        <ele>467</ele>
        <time>2016-03-19T07:32:54.103Z</time>
      </trkpt>
      <trkpt lat="43.6674" lon="5.8487">
        <ele>468</ele>
        <time>2016-03-19T07:32:56.138Z</time>
      </trkpt>
      <trkpt lat="43.66741" lon="5.84866">
        <ele>468</ele>
        <time>2016-03-19T07:32:57.131Z</time>
      </trkpt>
      <trkpt lat="43.66744" lon="5.84856">
        <ele>468</ele>
        <time>2016-03-19T07:32:59.130Z</time>
      </trkpt>
      <trkpt lat="43.66746" lon="5.84851">
        <ele>468</ele>
        <time>2016-03-19T07:33:00.112Z</time>
      </trkpt>
      <trkpt lat="43.66749" lon="5.84842">
        <ele>469</ele>
        <time>2016-03-19T07:33:02.129Z</time>
      </trkpt>
      <trkpt lat="43.66751" lon="5.84837">
        <ele>468</ele>
        <time>2016-03-19T07:33:03.102Z</time>
      </trkpt>
      <trkpt lat="43.66754" lon="5.84827">
        <ele>468</ele>
        <time>2016-03-19T07:33:05.130Z</time>
      </trkpt>
      <trkpt lat="43.66755" lon="5.84823">
        <ele>469</ele>
        <time>2016-03-19T07:33:06.102Z</time>
      </trkpt>
      <trkpt lat="43.66758" lon="5.84813">
        <ele>470</ele>
        <time>2016-03-19T07:33:08.159Z</time>
      </trkpt>
      <trkpt lat="43.6676" lon="5.84809">
        <ele>470</ele>
        <time>2016-03-19T07:33:09.103Z</time>
      </trkpt>
      <trkpt lat="43.66763" lon="5.848">
        <ele>470</ele>
        <time>2016-03-19T07:33:11.129Z</time>
      </trkpt>
      <trkpt lat="43.66764" lon="5.84795">
        <ele>471</ele>
        <time>2016-03-19T07:33:12.104Z</time>
      </trkpt>
      <trkpt lat="43.66767" lon="5.84787">
        <ele>471</ele>
        <time>2016-03-19T07:33:14.121Z</time>
      </trkpt>
      <trkpt lat="43.66768" lon="5.84782">
        <ele>471</ele>
        <time>2016-03-19T07:33:15.101Z</time>
      </trkpt>
      <trkpt lat="43.66771" lon="5.84774">
        <ele>471</ele>
        <time>2016-03-19T07:33:17.341Z</time>
      </trkpt>
      <trkpt lat="43.66772" lon="5.8477">
        <ele>471</ele>
        <time>2016-03-19T07:33:18.103Z</time>
      </trkpt>
      <trkpt lat="43.66774" lon="5.84762">
        <ele>472</ele>
        <time>2016-03-19T07:33:20.129Z</time>
      </trkpt>
      <trkpt lat="43.66775" lon="5.84758">
        <ele>472</ele>
        <time>2016-03-19T07:33:21.104Z</time>
      </trkpt>
      <trkpt lat="43.66778" lon="5.8475">
        <ele>472</ele>
        <time>2016-03-19T07:33:23.128Z</time>
      </trkpt>
      <trkpt lat="43.66779" lon="5.84746">
        <ele>473</ele>
        <time>2016-03-19T07:33:24.112Z</time>
      </trkpt>
      <trkpt lat="43.66782" lon="5.84735">
        <ele>473</ele>
        <time>2016-03-19T07:33:27.128Z</time>
      </trkpt>
      <trkpt lat="43.66784" lon="5.84731">
        <ele>473</ele>
        <time>2016-03-19T07:33:28.103Z</time>
      </trkpt>
      <trkpt lat="43.66787" lon="5.84719">
        <ele>474</ele>
        <time>2016-03-19T07:33:31.128Z</time>
      </trkpt>
      <trkpt lat="43.66787" lon="5.84716">
        <ele>474</ele>
        <time>2016-03-19T07:33:32.103Z</time>
      </trkpt>
      <trkpt lat="43.66789" lon="5.84707">
        <ele>474</ele>
        <time>2016-03-19T07:33:34.138Z</time>
      </trkpt>
      <trkpt lat="43.6679" lon="5.84703">
        <ele>474</ele>
        <time>2016-03-19T07:33:35.103Z</time>
      </trkpt>
      <trkpt lat="43.66791" lon="5.84694">
        <ele>475</ele>
        <time>2016-03-19T07:33:37.129Z</time>
      </trkpt>
      <trkpt lat="43.66792" lon="5.8469">
        <ele>474</ele>
        <time>2016-03-19T07:33:38.144Z</time>
      </trkpt>
      <trkpt lat="43.66794" lon="5.84681">
        <ele>475</ele>
        <time>2016-03-19T07:33:40.130Z</time>
      </trkpt>
      <trkpt lat="43.66795" lon="5.84677">
        <ele>475</ele>
        <time>2016-03-19T07:33:41.104Z</time>
      </trkpt>
      <trkpt lat="43.66797" lon="5.84667">
        <ele>474</ele>
        <time>2016-03-19T07:33:43.139Z</time>
      </trkpt>
      <trkpt lat="43.66799" lon="5.84662">
        <ele>474</ele>
        <time>2016-03-19T07:33:44.103Z</time>
      </trkpt>
      <trkpt lat="43.66801" lon="5.84652">
        <ele>474</ele>
        <time>2016-03-19T07:33:46.128Z</time>
      </trkpt>
      <trkpt lat="43.66802" lon="5.84646">
        <ele>474</ele>
        <time>2016-03-19T07:33:47.103Z</time>
      </trkpt>
      <trkpt lat="43.66805" lon="5.84636">
        <ele>473</ele>
        <time>2016-03-19T07:33:49.129Z</time>
      </trkpt>
      <trkpt lat="43.66806" lon="5.84631">
        <ele>472</ele>
        <time>2016-03-19T07:33:50.103Z</time>
      </trkpt>
      <trkpt lat="43.66807" lon="5.8462">
        <ele>471</ele>
        <time>2016-03-19T07:33:52.141Z</time>
      </trkpt>
      <trkpt lat="43.66808" lon="5.84615">
        <ele>471</ele>
        <time>2016-03-19T07:33:53.102Z</time>
      </trkpt>
      <trkpt lat="43.6681" lon="5.84606">
        <ele>471</ele>
        <time>2016-03-19T07:33:55.127Z</time>
      </trkpt>
      <trkpt lat="43.66811" lon="5.84602">
        <ele>472</ele>
        <time>2016-03-19T07:33:56.104Z</time>
      </trkpt>
      <trkpt lat="43.66813" lon="5.84592">
        <ele>473</ele>
        <time>2016-03-19T07:33:58.150Z</time>
      </trkpt>
      <trkpt lat="43.66814" lon="5.84587">
        <ele>472</ele>
        <time>2016-03-19T07:33:59.101Z</time>
      </trkpt>
      <trkpt lat="43.66817" lon="5.84576">
        <ele>471</ele>
        <time>2016-03-19T07:34:01.130Z</time>
      </trkpt>
      <trkpt lat="43.66818" lon="5.84571">
        <ele>471</ele>
        <time>2016-03-19T07:34:02.100Z</time>
      </trkpt>
      <trkpt lat="43.6682" lon="5.8456">
        <ele>470</ele>
        <time>2016-03-19T07:34:04.109Z</time>
      </trkpt>
      <trkpt lat="43.66822" lon="5.84554">
        <ele>471</ele>
        <time>2016-03-19T07:34:05.094Z</time>
      </trkpt>
      <trkpt lat="43.66823" lon="5.84545">
        <ele>472</ele>
        <time>2016-03-19T07:34:07.122Z</time>
      </trkpt>
      <trkpt lat="43.66824" lon="5.84539">
        <ele>472</ele>
        <time>2016-03-19T07:34:08.101Z</time>
      </trkpt>
      <trkpt lat="43.66827" lon="5.84529">
        <ele>471</ele>
        <time>2016-03-19T07:34:10.123Z</time>
      </trkpt>
      <trkpt lat="43.66828" lon="5.84523">
        <ele>471</ele>
        <time>2016-03-19T07:34:11.102Z</time>
      </trkpt>
      <trkpt lat="43.6683" lon="5.84512">
        <ele>471</ele>
        <time>2016-03-19T07:34:13.143Z</time>
      </trkpt>
      <trkpt lat="43.66831" lon="5.84507">
        <ele>471</ele>
        <time>2016-03-19T07:34:14.102Z</time>
      </trkpt>
      <trkpt lat="43.66834" lon="5.84496">
        <ele>470</ele>
        <time>2016-03-19T07:34:16.125Z</time>
      </trkpt>
      <trkpt lat="43.66835" lon="5.84491">
        <ele>470</ele>
        <time>2016-03-19T07:34:17.135Z</time>
      </trkpt>
      <trkpt lat="43.66837" lon="5.8448">
        <ele>470</ele>
        <time>2016-03-19T07:34:19.124Z</time>
      </trkpt>
      <trkpt lat="43.66838" lon="5.84475">
        <ele>469</ele>
        <time>2016-03-19T07:34:20.102Z</time>
      </trkpt>
      <trkpt lat="43.6684" lon="5.84465">
        <ele>469</ele>
        <time>2016-03-19T07:34:22.133Z</time>
      </trkpt>
      <trkpt lat="43.66841" lon="5.84459">
        <ele>469</ele>
        <time>2016-03-19T07:34:23.101Z</time>
      </trkpt>
      <trkpt lat="43.66843" lon="5.84449">
        <ele>469</ele>
        <time>2016-03-19T07:34:25.132Z</time>
      </trkpt>
      <trkpt lat="43.66843" lon="5.84444">
        <ele>469</ele>
        <time>2016-03-19T07:34:26.100Z</time>
      </trkpt>
      <trkpt lat="43.66838" lon="5.84438">
        <ele>468</ele>
        <time>2016-03-19T07:34:28.160Z</time>
      </trkpt>
      <trkpt lat="43.66835" lon="5.84435">
        <ele>468</ele>
        <time>2016-03-19T07:34:29.103Z</time>
      </trkpt>
      <trkpt lat="43.66831" lon="5.84432">
        <ele>468</ele>
        <time>2016-03-19T07:34:30.128Z</time>
      </trkpt>
      <trkpt lat="43.66822" lon="5.84427">
        <ele>467</ele>
        <time>2016-03-19T07:34:31.103Z</time>
      </trkpt>
      <trkpt lat="43.66817" lon="5.8442">
        <ele>467</ele>
        <time>2016-03-19T07:34:32.226Z</time>
      </trkpt>
      <trkpt lat="43.66812" lon="5.84412">
        <ele>467</ele>
        <time>2016-03-19T07:34:33.107Z</time>
      </trkpt>
      <trkpt lat="43.66805" lon="5.84404">
        <ele>468</ele>
        <time>2016-03-19T07:34:34.128Z</time>
      </trkpt>
      <trkpt lat="43.66798" lon="5.84395">
        <ele>466</ele>
        <time>2016-03-19T07:34:35.114Z</time>
      </trkpt>
      <trkpt lat="43.66792" lon="5.84388">
        <ele>467</ele>
        <time>2016-03-19T07:34:36.129Z</time>
      </trkpt>
      <trkpt lat="43.66784" lon="5.8438">
        <ele>466</ele>
        <time>2016-03-19T07:34:37.103Z</time>
      </trkpt>
      <trkpt lat="43.66777" lon="5.84373">
        <ele>467</ele>
        <time>2016-03-19T07:34:38.116Z</time>
      </trkpt>
      <trkpt lat="43.66771" lon="5.84365">
        <ele>468</ele>
        <time>2016-03-19T07:34:39.130Z</time>
      </trkpt>
      <trkpt lat="43.66771" lon="5.84365">
        <ele>468</ele>
        <time>2016-03-19T07:34:39.162Z</time>
      </trkpt>
      <trkpt lat="43.66764" lon="5.84356">
        <ele>466</ele>
        <time>2016-03-19T07:34:40.103Z</time>
      </trkpt>
      <trkpt lat="43.66757" lon="5.84348">
        <ele>466</ele>
        <time>2016-03-19T07:34:41.128Z</time>
      </trkpt>
      <trkpt lat="43.66751" lon="5.84339">
        <ele>466</ele>
        <time>2016-03-19T07:34:42.102Z</time>
      </trkpt>
      <trkpt lat="43.66751" lon="5.84339">
        <ele>466</ele>
        <time>2016-03-19T07:34:42.157Z</time>
      </trkpt>
      <trkpt lat="43.66743" lon="5.84329">
        <ele>464</ele>
        <time>2016-03-19T07:34:43.102Z</time>
      </trkpt>
      <trkpt lat="43.66738" lon="5.84322">
        <ele>463</ele>
        <time>2016-03-19T07:34:44.128Z</time>
      </trkpt>
      <trkpt lat="43.66731" lon="5.84313">
        <ele>463</ele>
        <time>2016-03-19T07:34:45.127Z</time>
      </trkpt>
      <trkpt lat="43.66726" lon="5.84305">
        <ele>463</ele>
        <time>2016-03-19T07:34:46.128Z</time>
      </trkpt>
      <trkpt lat="43.66719" lon="5.84297">
        <ele>462</ele>
        <time>2016-03-19T07:34:47.124Z</time>
      </trkpt>
      <trkpt lat="43.66713" lon="5.84288">
        <ele>461</ele>
        <time>2016-03-19T07:34:48.131Z</time>
      </trkpt>
      <trkpt lat="43.66708" lon="5.8428">
        <ele>461</ele>
        <time>2016-03-19T07:34:49.102Z</time>
      </trkpt>
      <trkpt lat="43.66703" lon="5.84271">
        <ele>461</ele>
        <time>2016-03-19T07:34:50.131Z</time>
      </trkpt>
      <trkpt lat="43.66698" lon="5.84261">
        <ele>461</ele>
        <time>2016-03-19T07:34:51.103Z</time>
      </trkpt>
      <trkpt lat="43.66695" lon="5.84254">
        <ele>460</ele>
        <time>2016-03-19T07:34:52.128Z</time>
      </trkpt>
      <trkpt lat="43.66692" lon="5.84245">
        <ele>461</ele>
        <time>2016-03-19T07:34:53.115Z</time>
      </trkpt>
      <trkpt lat="43.6669" lon="5.8424">
        <ele>460</ele>
        <time>2016-03-19T07:34:54.127Z</time>
      </trkpt>
      <trkpt lat="43.66686" lon="5.84234">
        <ele>460</ele>
        <time>2016-03-19T07:34:55.129Z</time>
      </trkpt>
      <trkpt lat="43.66681" lon="5.84226">
        <ele>460</ele>
        <time>2016-03-19T07:34:57.201Z</time>
      </trkpt>
      <trkpt lat="43.66679" lon="5.84221">
        <ele>461</ele>
        <time>2016-03-19T07:34:58.103Z</time>
      </trkpt>
      <trkpt lat="43.66674" lon="5.84213">
        <ele>462</ele>
        <time>2016-03-19T07:35:00.141Z</time>
      </trkpt>
      <trkpt lat="43.6667" lon="5.84208">
        <ele>462</ele>
        <time>2016-03-19T07:35:01.101Z</time>
      </trkpt>
      <trkpt lat="43.66664" lon="5.84201">
        <ele>463</ele>
        <time>2016-03-19T07:35:03.129Z</time>
      </trkpt>
      <trkpt lat="43.6666" lon="5.84197">
        <ele>463</ele>
        <time>2016-03-19T07:35:04.106Z</time>
      </trkpt>
      <trkpt lat="43.66654" lon="5.84191">
        <ele>462</ele>
        <time>2016-03-19T07:35:06.159Z</time>
      </trkpt>
      <trkpt lat="43.6665" lon="5.84187">
        <ele>462</ele>
        <time>2016-03-19T07:35:07.104Z</time>
      </trkpt>
      <trkpt lat="43.66644" lon="5.84182">
        <ele>463</ele>
        <time>2016-03-19T07:35:09.129Z</time>
      </trkpt>
      <trkpt lat="43.66642" lon="5.84178">
        <ele>463</ele>
        <time>2016-03-19T07:35:10.105Z</time>
      </trkpt>
      <trkpt lat="43.66636" lon="5.84172">
        <ele>462</ele>
        <time>2016-03-19T07:35:12.131Z</time>
      </trkpt>
      <trkpt lat="43.66633" lon="5.8417">
        <ele>462</ele>
        <time>2016-03-19T07:35:13.103Z</time>
      </trkpt>
      <trkpt lat="43.66626" lon="5.84168">
        <ele>462</ele>
        <time>2016-03-19T07:35:15.128Z</time>
      </trkpt>
      <trkpt lat="43.66622" lon="5.84168">
        <ele>462</ele>
        <time>2016-03-19T07:35:16.102Z</time>
      </trkpt>
      <trkpt lat="43.66617" lon="5.84168">
        <ele>459</ele>
        <time>2016-03-19T07:35:17.132Z</time>
      </trkpt>
      <trkpt lat="43.6661" lon="5.84172">
        <ele>459</ele>
        <time>2016-03-19T07:35:18.099Z</time>
      </trkpt>
      <trkpt lat="43.66604" lon="5.84171">
        <ele>459</ele>
        <time>2016-03-19T07:35:19.129Z</time>
      </trkpt>
      <trkpt lat="43.66598" lon="5.84169">
        <ele>459</ele>
        <time>2016-03-19T07:35:20.103Z</time>
      </trkpt>
      <trkpt lat="43.66594" lon="5.84164">
        <ele>458</ele>
        <time>2016-03-19T07:35:21.127Z</time>
      </trkpt>
      <trkpt lat="43.66591" lon="5.84158">
        <ele>458</ele>
        <time>2016-03-19T07:35:22.133Z</time>
      </trkpt>
      <trkpt lat="43.66588" lon="5.84152">
        <ele>458</ele>
        <time>2016-03-19T07:35:23.128Z</time>
      </trkpt>
      <trkpt lat="43.66585" lon="5.84147">
        <ele>457</ele>
        <time>2016-03-19T07:35:24.103Z</time>
      </trkpt>
      <trkpt lat="43.66582" lon="5.84141">
        <ele>457</ele>
        <time>2016-03-19T07:35:25.121Z</time>
      </trkpt>
      <trkpt lat="43.66579" lon="5.84137">
        <ele>458</ele>
        <time>2016-03-19T07:35:26.106Z</time>
      </trkpt>
      <trkpt lat="43.66575" lon="5.84132">
        <ele>457</ele>
        <time>2016-03-19T07:35:27.127Z</time>
      </trkpt>
      <trkpt lat="43.6657" lon="5.84129">
        <ele>457</ele>
        <time>2016-03-19T07:35:28.116Z</time>
      </trkpt>
      <trkpt lat="43.66566" lon="5.84126">
        <ele>457</ele>
        <time>2016-03-19T07:35:29.130Z</time>
      </trkpt>
      <trkpt lat="43.66562" lon="5.84122">
        <ele>456</ele>
        <time>2016-03-19T07:35:30.112Z</time>
      </trkpt>
      <trkpt lat="43.66554" lon="5.84115">
        <ele>457</ele>
        <time>2016-03-19T07:35:32.129Z</time>
      </trkpt>
      <trkpt lat="43.6655" lon="5.84112">
        <ele>456</ele>
        <time>2016-03-19T07:35:33.103Z</time>
      </trkpt>
      <trkpt lat="43.66545" lon="5.84109">
        <ele>456</ele>
        <time>2016-03-19T07:35:34.141Z</time>
      </trkpt>
      <trkpt lat="43.66541" lon="5.84106">
        <ele>456</ele>
        <time>2016-03-19T07:35:35.103Z</time>
      </trkpt>
      <trkpt lat="43.66536" lon="5.84102">
        <ele>456</ele>
        <time>2016-03-19T07:35:36.130Z</time>
      </trkpt>
      <trkpt lat="43.66531" lon="5.84101">
        <ele>456</ele>
        <time>2016-03-19T07:35:37.104Z</time>
      </trkpt>
      <trkpt lat="43.66523" lon="5.84103">
        <ele>457</ele>
        <time>2016-03-19T07:35:39.128Z</time>
      </trkpt>
      <trkpt lat="43.66518" lon="5.84104">
        <ele>457</ele>
        <time>2016-03-19T07:35:40.103Z</time>
      </trkpt>
      <trkpt lat="43.66514" lon="5.84104">
        <ele>457</ele>
        <time>2016-03-19T07:35:41.368Z</time>
      </trkpt>
      <trkpt lat="43.66509" lon="5.84102">
        <ele>457</ele>
        <time>2016-03-19T07:35:42.112Z</time>
      </trkpt>
      <trkpt lat="43.66504" lon="5.84099">
        <ele>456</ele>
        <time>2016-03-19T07:35:43.128Z</time>
      </trkpt>
      <trkpt lat="43.66499" lon="5.84094">
        <ele>456</ele>
        <time>2016-03-19T07:35:44.103Z</time>
      </trkpt>
      <trkpt lat="43.66495" lon="5.8409">
        <ele>456</ele>
        <time>2016-03-19T07:35:45.130Z</time>
      </trkpt>
      <trkpt lat="43.6649" lon="5.84086">
        <ele>454</ele>
        <time>2016-03-19T07:35:46.102Z</time>
      </trkpt>
      <trkpt lat="43.66485" lon="5.84082">
        <ele>454</ele>
        <time>2016-03-19T07:35:47.130Z</time>
      </trkpt>
      <trkpt lat="43.66481" lon="5.84077">
        <ele>453</ele>
        <time>2016-03-19T07:35:48.115Z</time>
      </trkpt>
      <trkpt lat="43.66477" lon="5.84072">
        <ele>453</ele>
        <time>2016-03-19T07:35:49.128Z</time>
      </trkpt>
      <trkpt lat="43.66474" lon="5.84069">
        <ele>453</ele>
        <time>2016-03-19T07:35:50.104Z</time>
      </trkpt>
      <trkpt lat="43.66468" lon="5.84069">
        <ele>453</ele>
        <time>2016-03-19T07:35:51.119Z</time>
      </trkpt>
      <trkpt lat="43.66463" lon="5.8407">
        <ele>452</ele>
        <time>2016-03-19T07:35:52.101Z</time>
      </trkpt>
      <trkpt lat="43.66459" lon="5.84068">
        <ele>451</ele>
        <time>2016-03-19T07:35:53.128Z</time>
      </trkpt>
      <trkpt lat="43.66454" lon="5.84065">
        <ele>451</ele>
        <time>2016-03-19T07:35:54.132Z</time>
      </trkpt>
      <trkpt lat="43.6645" lon="5.84062">
        <ele>452</ele>
        <time>2016-03-19T07:35:55.128Z</time>
      </trkpt>
      <trkpt lat="43.66445" lon="5.84059">
        <ele>451</ele>
        <time>2016-03-19T07:35:56.114Z</time>
      </trkpt>
      <trkpt lat="43.6644" lon="5.84057">
        <ele>452</ele>
        <time>2016-03-19T07:35:57.127Z</time>
      </trkpt>
      <trkpt lat="43.66435" lon="5.84055">
        <ele>452</ele>
        <time>2016-03-19T07:35:58.104Z</time>
      </trkpt>
      <trkpt lat="43.6643" lon="5.84052">
        <ele>451</ele>
        <time>2016-03-19T07:35:59.128Z</time>
      </trkpt>
      <trkpt lat="43.66426" lon="5.84047">
        <ele>450</ele>
        <time>2016-03-19T07:36:00.114Z</time>
      </trkpt>
      <trkpt lat="43.66423" lon="5.84042">
        <ele>450</ele>
        <time>2016-03-19T07:36:01.128Z</time>
      </trkpt>
      <trkpt lat="43.6642" lon="5.84037">
        <ele>451</ele>
        <time>2016-03-19T07:36:02.102Z</time>
      </trkpt>
      <trkpt lat="43.66416" lon="5.84032">
        <ele>450</ele>
        <time>2016-03-19T07:36:03.118Z</time>
      </trkpt>
      <trkpt lat="43.66413" lon="5.84026">
        <ele>450</ele>
        <time>2016-03-19T07:36:04.115Z</time>
      </trkpt>
      <trkpt lat="43.66409" lon="5.84021">
        <ele>451</ele>
        <time>2016-03-19T07:36:05.129Z</time>
      </trkpt>
      <trkpt lat="43.66405" lon="5.84018">
        <ele>451</ele>
        <time>2016-03-19T07:36:06.104Z</time>
      </trkpt>
      <trkpt lat="43.66402" lon="5.84014">
        <ele>451</ele>
        <time>2016-03-19T07:36:07.182Z</time>
      </trkpt>
      <trkpt lat="43.66397" lon="5.84011">
        <ele>450</ele>
        <time>2016-03-19T07:36:08.102Z</time>
      </trkpt>
      <trkpt lat="43.66391" lon="5.84004">
        <ele>451</ele>
        <time>2016-03-19T07:36:10.158Z</time>
      </trkpt>
      <trkpt lat="43.66387" lon="5.84">
        <ele>450</ele>
        <time>2016-03-19T07:36:11.103Z</time>
      </trkpt>
      <trkpt lat="43.66381" lon="5.83991">
        <ele>450</ele>
        <time>2016-03-19T07:36:13.128Z</time>
      </trkpt>
      <trkpt lat="43.66378" lon="5.83987">
        <ele>450</ele>
        <time>2016-03-19T07:36:14.337Z</time>
      </trkpt>
      <trkpt lat="43.66373" lon="5.83977">
        <ele>450</ele>
        <time>2016-03-19T07:36:16.129Z</time>
      </trkpt>
      <trkpt lat="43.6637" lon="5.83972">
        <ele>450</ele>
        <time>2016-03-19T07:36:17.117Z</time>
      </trkpt>
      <trkpt lat="43.66364" lon="5.83964">
        <ele>450</ele>
        <time>2016-03-19T07:36:19.129Z</time>
      </trkpt>
      <trkpt lat="43.66361" lon="5.8396">
        <ele>450</ele>
        <time>2016-03-19T07:36:20.103Z</time>
      </trkpt>
      <trkpt lat="43.66356" lon="5.83953">
        <ele>450</ele>
        <time>2016-03-19T07:36:22.130Z</time>
      </trkpt>
      <trkpt lat="43.66353" lon="5.83949">
        <ele>450</ele>
        <time>2016-03-19T07:36:23.103Z</time>
      </trkpt>
      <trkpt lat="43.66349" lon="5.83942">
        <ele>450</ele>
        <time>2016-03-19T07:36:25.128Z</time>
      </trkpt>
      <trkpt lat="43.66347" lon="5.83938">
        <ele>449</ele>
        <time>2016-03-19T07:36:26.132Z</time>
      </trkpt>
      <trkpt lat="43.66343" lon="5.83929">
        <ele>450</ele>
        <time>2016-03-19T07:36:28.128Z</time>
      </trkpt>
      <trkpt lat="43.66341" lon="5.83925">
        <ele>450</ele>
        <time>2016-03-19T07:36:29.103Z</time>
      </trkpt>
      <trkpt lat="43.66336" lon="5.83916">
        <ele>450</ele>
        <time>2016-03-19T07:36:31.129Z</time>
      </trkpt>
      <trkpt lat="43.66332" lon="5.83911">
        <ele>449</ele>
        <time>2016-03-19T07:36:32.103Z</time>
      </trkpt>
      <trkpt lat="43.66327" lon="5.83906">
        <ele>449</ele>
        <time>2016-03-19T07:36:33.127Z</time>
      </trkpt>
      <trkpt lat="43.66323" lon="5.83904">
        <ele>449</ele>
        <time>2016-03-19T07:36:34.103Z</time>
      </trkpt>
      <trkpt lat="43.66318" lon="5.83897">
        <ele>450</ele>
        <time>2016-03-19T07:36:36.128Z</time>
      </trkpt>
      <trkpt lat="43.66314" lon="5.83893">
        <ele>450</ele>
        <time>2016-03-19T07:36:37.106Z</time>
      </trkpt>
      <trkpt lat="43.66309" lon="5.83886">
        <ele>450</ele>
        <time>2016-03-19T07:36:39.127Z</time>
      </trkpt>
      <trkpt lat="43.66307" lon="5.83882">
        <ele>450</ele>
        <time>2016-03-19T07:36:40.124Z</time>
      </trkpt>
      <trkpt lat="43.66301" lon="5.83874">
        <ele>451</ele>
        <time>2016-03-19T07:36:42.157Z</time>
      </trkpt>
      <trkpt lat="43.66298" lon="5.8387">
        <ele>451</ele>
        <time>2016-03-19T07:36:43.106Z</time>
      </trkpt>
      <trkpt lat="43.66292" lon="5.83862">
        <ele>450</ele>
        <time>2016-03-19T07:36:45.128Z</time>
      </trkpt>
      <trkpt lat="43.66289" lon="5.83859">
        <ele>451</ele>
        <time>2016-03-19T07:36:46.102Z</time>
      </trkpt>
      <trkpt lat="43.66281" lon="5.83855">
        <ele>451</ele>
        <time>2016-03-19T07:36:48.129Z</time>
      </trkpt>
      <trkpt lat="43.66278" lon="5.83853">
        <ele>451</ele>
        <time>2016-03-19T07:36:49.106Z</time>
      </trkpt>
      <trkpt lat="43.6627" lon="5.83849">
        <ele>450</ele>
        <time>2016-03-19T07:36:51.139Z</time>
      </trkpt>
      <trkpt lat="43.66265" lon="5.83847">
        <ele>450</ele>
        <time>2016-03-19T07:36:52.104Z</time>
      </trkpt>
      <trkpt lat="43.6626" lon="5.83844">
        <ele>450</ele>
        <time>2016-03-19T07:36:53.129Z</time>
      </trkpt>
      <trkpt lat="43.66255" lon="5.83844">
        <ele>449</ele>
        <time>2016-03-19T07:36:54.095Z</time>
      </trkpt>
      <trkpt lat="43.66251" lon="5.8384">
        <ele>449</ele>
        <time>2016-03-19T07:36:55.119Z</time>
      </trkpt>
      <trkpt lat="43.66247" lon="5.83835">
        <ele>449</ele>
        <time>2016-03-19T07:36:56.096Z</time>
      </trkpt>
      <trkpt lat="43.66243" lon="5.83831">
        <ele>450</ele>
        <time>2016-03-19T07:36:57.110Z</time>
      </trkpt>
      <trkpt lat="43.66239" lon="5.83828">
        <ele>450</ele>
        <time>2016-03-19T07:36:58.094Z</time>
      </trkpt>
      <trkpt lat="43.66231" lon="5.83824">
        <ele>451</ele>
        <time>2016-03-19T07:37:00.123Z</time>
      </trkpt>
      <trkpt lat="43.66226" lon="5.83822">
        <ele>451</ele>
        <time>2016-03-19T07:37:01.095Z</time>
      </trkpt>
      <trkpt lat="43.6622" lon="5.83819">
        <ele>451</ele>
        <time>2016-03-19T07:37:02.108Z</time>
      </trkpt>
      <trkpt lat="43.66216" lon="5.83816">
        <ele>451</ele>
        <time>2016-03-19T07:37:03.099Z</time>
      </trkpt>
      <trkpt lat="43.6621" lon="5.83814">
        <ele>450</ele>
        <time>2016-03-19T07:37:04.114Z</time>
      </trkpt>
      <trkpt lat="43.66206" lon="5.83811">
        <ele>450</ele>
        <time>2016-03-19T07:37:05.100Z</time>
      </trkpt>
      <trkpt lat="43.66201" lon="5.83807">
        <ele>448</ele>
        <time>2016-03-19T07:37:06.122Z</time>
      </trkpt>
      <trkpt lat="43.66198" lon="5.83804">
        <ele>449</ele>
        <time>2016-03-19T07:37:07.101Z</time>
      </trkpt>
      <trkpt lat="43.66195" lon="5.838">
        <ele>449</ele>
        <time>2016-03-19T07:37:08.144Z</time>
      </trkpt>
      <trkpt lat="43.66191" lon="5.83794">
        <ele>449</ele>
        <time>2016-03-19T07:37:09.100Z</time>
      </trkpt>
      <trkpt lat="43.66186" lon="5.8379">
        <ele>449</ele>
        <time>2016-03-19T07:37:10.136Z</time>
      </trkpt>
      <trkpt lat="43.66181" lon="5.83786">
        <ele>449</ele>
        <time>2016-03-19T07:37:11.102Z</time>
      </trkpt>
      <trkpt lat="43.66176" lon="5.83777">
        <ele>450</ele>
        <time>2016-03-19T07:37:13.124Z</time>
      </trkpt>
      <trkpt lat="43.66176" lon="5.83772">
        <ele>450</ele>
        <time>2016-03-19T07:37:14.125Z</time>
      </trkpt>
      <trkpt lat="43.66173" lon="5.83763">
        <ele>450</ele>
        <time>2016-03-19T07:37:16.123Z</time>
      </trkpt>
      <trkpt lat="43.66172" lon="5.83758">
        <ele>451</ele>
        <time>2016-03-19T07:37:17.101Z</time>
      </trkpt>
      <trkpt lat="43.66172" lon="5.83746">
        <ele>451</ele>
        <time>2016-03-19T07:37:20.124Z</time>
      </trkpt>
      <trkpt lat="43.66171" lon="5.83742">
        <ele>451</ele>
        <time>2016-03-19T07:37:21.101Z</time>
      </trkpt>
      <trkpt lat="43.66169" lon="5.83733">
        <ele>452</ele>
        <time>2016-03-19T07:37:23.125Z</time>
      </trkpt>
      <trkpt lat="43.66168" lon="5.83728">
        <ele>452</ele>
        <time>2016-03-19T07:37:24.104Z</time>
      </trkpt>
      <trkpt lat="43.66165" lon="5.8372">
        <ele>451</ele>
        <time>2016-03-19T07:37:26.124Z</time>
      </trkpt>
      <trkpt lat="43.66164" lon="5.83716">
        <ele>452</ele>
        <time>2016-03-19T07:37:27.101Z</time>
      </trkpt>
      <trkpt lat="43.66162" lon="5.83708">
        <ele>452</ele>
        <time>2016-03-19T07:37:29.124Z</time>
      </trkpt>
      <trkpt lat="43.66161" lon="5.83704">
        <ele>453</ele>
        <time>2016-03-19T07:37:30.136Z</time>
      </trkpt>
      <trkpt lat="43.6616" lon="5.83695">
        <ele>454</ele>
        <time>2016-03-19T07:37:32.123Z</time>
      </trkpt>
      <trkpt lat="43.66159" lon="5.83691">
        <ele>453</ele>
        <time>2016-03-19T07:37:33.104Z</time>
      </trkpt>
      <trkpt lat="43.66155" lon="5.83684">
        <ele>454</ele>
        <time>2016-03-19T07:37:35.131Z</time>
      </trkpt>
      <trkpt lat="43.66153" lon="5.8368">
        <ele>455</ele>
        <time>2016-03-19T07:37:36.102Z</time>
      </trkpt>
      <trkpt lat="43.66148" lon="5.83675">
        <ele>454</ele>
        <time>2016-03-19T07:37:38.121Z</time>
      </trkpt>
      <trkpt lat="43.66145" lon="5.83672">
        <ele>454</ele>
        <time>2016-03-19T07:37:39.102Z</time>
      </trkpt>
      <trkpt lat="43.66141" lon="5.83664">
        <ele>454</ele>
        <time>2016-03-19T07:37:41.149Z</time>
      </trkpt>
      <trkpt lat="43.6614" lon="5.83661">
        <ele>453</ele>
        <time>2016-03-19T07:37:42.102Z</time>
      </trkpt>
      <trkpt lat="43.66136" lon="5.83653">
        <ele>453</ele>
        <time>2016-03-19T07:37:44.124Z</time>
      </trkpt>
      <trkpt lat="43.66134" lon="5.8365">
        <ele>453</ele>
        <time>2016-03-19T07:37:45.101Z</time>
      </trkpt>
      <trkpt lat="43.66129" lon="5.83643">
        <ele>453</ele>
        <time>2016-03-19T07:37:47.131Z</time>
      </trkpt>
      <trkpt lat="43.66127" lon="5.83639">
        <ele>453</ele>
        <time>2016-03-19T07:37:48.104Z</time>
      </trkpt>
      <trkpt lat="43.66123" lon="5.83632">
        <ele>453</ele>
        <time>2016-03-19T07:37:50.135Z</time>
      </trkpt>
      <trkpt lat="43.66121" lon="5.83629">
        <ele>453</ele>
        <time>2016-03-19T07:37:51.104Z</time>
      </trkpt>
      <trkpt lat="43.66115" lon="5.83624">
        <ele>452</ele>
        <time>2016-03-19T07:37:53.130Z</time>
      </trkpt>
      <trkpt lat="43.66113" lon="5.83621">
        <ele>452</ele>
        <time>2016-03-19T07:37:54.103Z</time>
      </trkpt>
      <trkpt lat="43.66108" lon="5.83615">
        <ele>452</ele>
        <time>2016-03-19T07:37:56.128Z</time>
      </trkpt>
      <trkpt lat="43.66105" lon="5.83612">
        <ele>453</ele>
        <time>2016-03-19T07:37:57.130Z</time>
      </trkpt>
      <trkpt lat="43.66102" lon="5.83604">
        <ele>452</ele>
        <time>2016-03-19T07:37:59.128Z</time>
      </trkpt>
      <trkpt lat="43.661" lon="5.83601">
        <ele>452</ele>
        <time>2016-03-19T07:38:00.097Z</time>
      </trkpt>
      <trkpt lat="43.66097" lon="5.83593">
        <ele>453</ele>
        <time>2016-03-19T07:38:02.130Z</time>
      </trkpt>
      <trkpt lat="43.66097" lon="5.83588">
        <ele>453</ele>
        <time>2016-03-19T07:38:03.103Z</time>
      </trkpt>
      <trkpt lat="43.66099" lon="5.8358">
        <ele>453</ele>
        <time>2016-03-19T07:38:05.137Z</time>
      </trkpt>
      <trkpt lat="43.66101" lon="5.83576">
        <ele>453</ele>
        <time>2016-03-19T07:38:06.153Z</time>
      </trkpt>
      <trkpt lat="43.66105" lon="5.83568">
        <ele>454</ele>
        <time>2016-03-19T07:38:08.157Z</time>
      </trkpt>
      <trkpt lat="43.66106" lon="5.83564">
        <ele>454</ele>
        <time>2016-03-19T07:38:09.097Z</time>
      </trkpt>
      <trkpt lat="43.66109" lon="5.83553">
        <ele>455</ele>
        <time>2016-03-19T07:38:12.113Z</time>
      </trkpt>
      <trkpt lat="43.6611" lon="5.83549">
        <ele>455</ele>
        <time>2016-03-19T07:38:13.094Z</time>
      </trkpt>
      <trkpt lat="43.6611" lon="5.83537">
        <ele>456</ele>
        <time>2016-03-19T07:38:16.119Z</time>
      </trkpt>
      <trkpt lat="43.66109" lon="5.83533">
        <ele>455</ele>
        <time>2016-03-19T07:38:17.096Z</time>
      </trkpt>
      <trkpt lat="43.66106" lon="5.83525">
        <ele>455</ele>
        <time>2016-03-19T07:38:19.106Z</time>
      </trkpt>
      <trkpt lat="43.66105" lon="5.83521">
        <ele>457</ele>
        <time>2016-03-19T07:38:20.094Z</time>
      </trkpt>
      <trkpt lat="43.66103" lon="5.83513">
        <ele>457</ele>
        <time>2016-03-19T07:38:22.124Z</time>
      </trkpt>
      <trkpt lat="43.66102" lon="5.83508">
        <ele>456</ele>
        <time>2016-03-19T07:38:23.102Z</time>
      </trkpt>
      <trkpt lat="43.66099" lon="5.835">
        <ele>457</ele>
        <time>2016-03-19T07:38:25.121Z</time>
      </trkpt>
      <trkpt lat="43.66098" lon="5.83495">
        <ele>458</ele>
        <time>2016-03-19T07:38:26.134Z</time>
      </trkpt>
      <trkpt lat="43.66095" lon="5.83486">
        <ele>456</ele>
        <time>2016-03-19T07:38:28.123Z</time>
      </trkpt>
      <trkpt lat="43.66094" lon="5.83482">
        <ele>456</ele>
        <time>2016-03-19T07:38:29.126Z</time>
      </trkpt>
      <trkpt lat="43.66092" lon="5.83474">
        <ele>456</ele>
        <time>2016-03-19T07:38:31.122Z</time>
      </trkpt>
      <trkpt lat="43.66091" lon="5.83469">
        <ele>456</ele>
        <time>2016-03-19T07:38:32.102Z</time>
      </trkpt>
      <trkpt lat="43.66091" lon="5.83461">
        <ele>456</ele>
        <time>2016-03-19T07:38:34.130Z</time>
      </trkpt>
      <trkpt lat="43.66091" lon="5.83457">
        <ele>456</ele>
        <time>2016-03-19T07:38:35.102Z</time>
      </trkpt>
      <trkpt lat="43.66092" lon="5.83448">
        <ele>456</ele>
        <time>2016-03-19T07:38:37.131Z</time>
      </trkpt>
      <trkpt lat="43.66093" lon="5.83444">
        <ele>456</ele>
        <time>2016-03-19T07:38:38.101Z</time>
      </trkpt>
      <trkpt lat="43.66095" lon="5.83435">
        <ele>456</ele>
        <time>2016-03-19T07:38:40.160Z</time>
      </trkpt>
      <trkpt lat="43.66095" lon="5.83431">
        <ele>456</ele>
        <time>2016-03-19T07:38:41.102Z</time>
      </trkpt>
      <trkpt lat="43.66093" lon="5.83423">
        <ele>456</ele>
        <time>2016-03-19T07:38:43.133Z</time>
      </trkpt>
      <trkpt lat="43.66092" lon="5.83419">
        <ele>456</ele>
        <time>2016-03-19T07:38:44.101Z</time>
      </trkpt>
      <trkpt lat="43.66089" lon="5.83411">
        <ele>456</ele>
        <time>2016-03-19T07:38:46.145Z</time>
      </trkpt>
      <trkpt lat="43.66087" lon="5.83406">
        <ele>456</ele>
        <time>2016-03-19T07:38:47.102Z</time>
      </trkpt>
      <trkpt lat="43.66083" lon="5.83398">
        <ele>457</ele>
        <time>2016-03-19T07:38:49.125Z</time>
      </trkpt>
      <trkpt lat="43.66081" lon="5.83394">
        <ele>457</ele>
        <time>2016-03-19T07:38:50.102Z</time>
      </trkpt>
      <trkpt lat="43.66076" lon="5.83387">
        <ele>457</ele>
        <time>2016-03-19T07:38:52.127Z</time>
      </trkpt>
      <trkpt lat="43.66074" lon="5.83383">
        <ele>457</ele>
        <time>2016-03-19T07:38:53.109Z</time>
      </trkpt>
      <trkpt lat="43.6607" lon="5.83375">
        <ele>456</ele>
        <time>2016-03-19T07:38:55.224Z</time>
      </trkpt>
      <trkpt lat="43.66068" lon="5.83371">
        <ele>456</ele>
        <time>2016-03-19T07:38:56.103Z</time>
      </trkpt>
      <trkpt lat="43.66063" lon="5.83366">
        <ele>457</ele>
        <time>2016-03-19T07:38:58.150Z</time>
      </trkpt>
      <trkpt lat="43.6606" lon="5.83364">
        <ele>456</ele>
        <time>2016-03-19T07:38:59.115Z</time>
      </trkpt>
      <trkpt lat="43.66053" lon="5.8336">
        <ele>456</ele>
        <time>2016-03-19T07:39:01.129Z</time>
      </trkpt>
      <trkpt lat="43.66051" lon="5.83357">
        <ele>456</ele>
        <time>2016-03-19T07:39:02.143Z</time>
      </trkpt>
      <trkpt lat="43.66045" lon="5.83351">
        <ele>456</ele>
        <time>2016-03-19T07:39:04.129Z</time>
      </trkpt>
      <trkpt lat="43.66042" lon="5.83348">
        <ele>456</ele>
        <time>2016-03-19T07:39:05.103Z</time>
      </trkpt>
      <trkpt lat="43.66036" lon="5.83343">
        <ele>456</ele>
        <time>2016-03-19T07:39:07.337Z</time>
      </trkpt>
      <trkpt lat="43.66033" lon="5.8334">
        <ele>457</ele>
        <time>2016-03-19T07:39:08.103Z</time>
      </trkpt>
      <trkpt lat="43.66027" lon="5.83335">
        <ele>455</ele>
        <time>2016-03-19T07:39:10.129Z</time>
      </trkpt>
      <trkpt lat="43.66024" lon="5.83332">
        <ele>456</ele>
        <time>2016-03-19T07:39:11.104Z</time>
      </trkpt>
      <trkpt lat="43.66018" lon="5.83327">
        <ele>456</ele>
        <time>2016-03-19T07:39:13.129Z</time>
      </trkpt>
      <trkpt lat="43.66015" lon="5.83324">
        <ele>456</ele>
        <time>2016-03-19T07:39:14.104Z</time>
      </trkpt>
      <trkpt lat="43.6601" lon="5.83318">
        <ele>456</ele>
        <time>2016-03-19T07:39:16.129Z</time>
      </trkpt>
      <trkpt lat="43.66008" lon="5.83314">
        <ele>456</ele>
        <time>2016-03-19T07:39:17.103Z</time>
      </trkpt>
      <trkpt lat="43.66004" lon="5.83307">
        <ele>455</ele>
        <time>2016-03-19T07:39:19.135Z</time>
      </trkpt>
      <trkpt lat="43.66001" lon="5.83303">
        <ele>455</ele>
        <time>2016-03-19T07:39:20.104Z</time>
      </trkpt>
      <trkpt lat="43.65996" lon="5.83295">
        <ele>456</ele>
        <time>2016-03-19T07:39:23.129Z</time>
      </trkpt>
      <trkpt lat="43.65994" lon="5.83292">
        <ele>456</ele>
        <time>2016-03-19T07:39:24.108Z</time>
      </trkpt>
      <trkpt lat="43.6599" lon="5.83286">
        <ele>456</ele>
        <time>2016-03-19T07:39:26.141Z</time>
      </trkpt>
      <trkpt lat="43.65988" lon="5.83283">
        <ele>456</ele>
        <time>2016-03-19T07:39:27.104Z</time>
      </trkpt>
      <trkpt lat="43.65984" lon="5.83276">
        <ele>457</ele>
        <time>2016-03-19T07:39:29.131Z</time>
      </trkpt>
      <trkpt lat="43.65981" lon="5.83273">
        <ele>456</ele>
        <time>2016-03-19T07:39:30.111Z</time>
      </trkpt>
      <trkpt lat="43.65976" lon="5.83268">
        <ele>457</ele>
        <time>2016-03-19T07:39:32.125Z</time>
      </trkpt>
      <trkpt lat="43.65973" lon="5.83265">
        <ele>457</ele>
        <time>2016-03-19T07:39:33.112Z</time>
      </trkpt>
      <trkpt lat="43.65969" lon="5.83259">
        <ele>458</ele>
        <time>2016-03-19T07:39:35.129Z</time>
      </trkpt>
      <trkpt lat="43.65966" lon="5.83256">
        <ele>458</ele>
        <time>2016-03-19T07:39:36.104Z</time>
      </trkpt>
      <trkpt lat="43.65962" lon="5.83245">
        <ele>459</ele>
        <time>2016-03-19T07:39:39.130Z</time>
      </trkpt>
      <trkpt lat="43.65962" lon="5.83241">
        <ele>459</ele>
        <time>2016-03-19T07:39:40.104Z</time>
      </trkpt>
      <trkpt lat="43.65962" lon="5.83229">
        <ele>460</ele>
        <time>2016-03-19T07:39:43.154Z</time>
      </trkpt>
      <trkpt lat="43.65962" lon="5.83224">
        <ele>460</ele>
        <time>2016-03-19T07:39:44.114Z</time>
      </trkpt>
      <trkpt lat="43.65962" lon="5.83216">
        <ele>460</ele>
        <time>2016-03-19T07:39:46.167Z</time>
      </trkpt>
      <trkpt lat="43.65961" lon="5.83212">
        <ele>458</ele>
        <time>2016-03-19T07:39:47.104Z</time>
      </trkpt>
      <trkpt lat="43.65958" lon="5.83204">
        <ele>460</ele>
        <time>2016-03-19T07:39:49.117Z</time>
      </trkpt>
      <trkpt lat="43.65958" lon="5.832">
        <ele>459</ele>
        <time>2016-03-19T07:39:50.104Z</time>
      </trkpt>
      <trkpt lat="43.65956" lon="5.83191">
        <ele>459</ele>
        <time>2016-03-19T07:39:52.139Z</time>
      </trkpt>
      <trkpt lat="43.65955" lon="5.83187">
        <ele>460</ele>
        <time>2016-03-19T07:39:53.103Z</time>
      </trkpt>
      <trkpt lat="43.65953" lon="5.83178">
        <ele>460</ele>
        <time>2016-03-19T07:39:55.140Z</time>
      </trkpt>
      <trkpt lat="43.65952" lon="5.83174">
        <ele>460</ele>
        <time>2016-03-19T07:39:56.144Z</time>
      </trkpt>
      <trkpt lat="43.65948" lon="5.83167">
        <ele>461</ele>
        <time>2016-03-19T07:39:58.151Z</time>
      </trkpt>
      <trkpt lat="43.65946" lon="5.83165">
        <ele>462</ele>
        <time>2016-03-19T07:39:59.104Z</time>
      </trkpt>
      <trkpt lat="43.65943" lon="5.83153">
        <ele>463</ele>
        <time>2016-03-19T07:40:03.129Z</time>
      </trkpt>
      <trkpt lat="43.65945" lon="5.8315">
        <ele>463</ele>
        <time>2016-03-19T07:40:04.104Z</time>
      </trkpt>
      <trkpt lat="43.65948" lon="5.83139">
        <ele>463</ele>
        <time>2016-03-19T07:40:07.154Z</time>
      </trkpt>
      <trkpt lat="43.65949" lon="5.83135">
        <ele>463</ele>
        <time>2016-03-19T07:40:08.116Z</time>
      </trkpt>
      <trkpt lat="43.65952" lon="5.83123">
        <ele>463</ele>
        <time>2016-03-19T07:40:11.130Z</time>
      </trkpt>
      <trkpt lat="43.65953" lon="5.8312">
        <ele>464</ele>
        <time>2016-03-19T07:40:12.103Z</time>
      </trkpt>
      <trkpt lat="43.65957" lon="5.83109">
        <ele>464</ele>
        <time>2016-03-19T07:40:15.129Z</time>
      </trkpt>
      <trkpt lat="43.65957" lon="5.83105">
        <ele>465</ele>
        <time>2016-03-19T07:40:16.107Z</time>
      </trkpt>
      <trkpt lat="43.65953" lon="5.83094">
        <ele>466</ele>
        <time>2016-03-19T07:40:19.129Z</time>
      </trkpt>
      <trkpt lat="43.65951" lon="5.83091">
        <ele>466</ele>
        <time>2016-03-19T07:40:20.103Z</time>
      </trkpt>
      <trkpt lat="43.65947" lon="5.83084">
        <ele>465</ele>
        <time>2016-03-19T07:40:22.140Z</time>
      </trkpt>
      <trkpt lat="43.65947" lon="5.83079">
        <ele>465</ele>
        <time>2016-03-19T07:40:23.131Z</time>
      </trkpt>
      <trkpt lat="43.65947" lon="5.83071">
        <ele>464</ele>
        <time>2016-03-19T07:40:25.138Z</time>
      </trkpt>
      <trkpt lat="43.65949" lon="5.83067">
        <ele>464</ele>
        <time>2016-03-19T07:40:26.104Z</time>
      </trkpt>
      <trkpt lat="43.65952" lon="5.8306">
        <ele>464</ele>
        <time>2016-03-19T07:40:28.233Z</time>
      </trkpt>
      <trkpt lat="43.65953" lon="5.83056">
        <ele>465</ele>
        <time>2016-03-19T07:40:29.105Z</time>
      </trkpt>
      <trkpt lat="43.65954" lon="5.83045">
        <ele>467</ele>
        <time>2016-03-19T07:40:32.153Z</time>
      </trkpt>
      <trkpt lat="43.65953" lon="5.83041">
        <ele>467</ele>
        <time>2016-03-19T07:40:33.103Z</time>
      </trkpt>
      <trkpt lat="43.65953" lon="5.8303">
        <ele>468</ele>
        <time>2016-03-19T07:40:36.184Z</time>
      </trkpt>
      <trkpt lat="43.65952" lon="5.83026">
        <ele>468</ele>
        <time>2016-03-19T07:40:37.100Z</time>
      </trkpt>
      <trkpt lat="43.65952" lon="5.83015">
        <ele>469</ele>
        <time>2016-03-19T07:40:40.128Z</time>
      </trkpt>
      <trkpt lat="43.65951" lon="5.83012">
        <ele>470</ele>
        <time>2016-03-19T07:40:41.100Z</time>
      </trkpt>
      <trkpt lat="43.65948" lon="5.83">
        <ele>469</ele>
        <time>2016-03-19T07:40:44.123Z</time>
      </trkpt>
      <trkpt lat="43.65948" lon="5.82996">
        <ele>471</ele>
        <time>2016-03-19T07:40:45.101Z</time>
      </trkpt>
      <trkpt lat="43.65948" lon="5.82987">
        <ele>471</ele>
        <time>2016-03-19T07:40:47.128Z</time>
      </trkpt>
      <trkpt lat="43.65949" lon="5.82983">
        <ele>471</ele>
        <time>2016-03-19T07:40:48.098Z</time>
      </trkpt>
      <trkpt lat="43.65951" lon="5.82971">
        <ele>472</ele>
        <time>2016-03-19T07:40:51.124Z</time>
      </trkpt>
      <trkpt lat="43.65951" lon="5.82967">
        <ele>472</ele>
        <time>2016-03-19T07:40:52.106Z</time>
      </trkpt>
      <trkpt lat="43.65948" lon="5.82957">
        <ele>472</ele>
        <time>2016-03-19T07:40:56.132Z</time>
      </trkpt>
      <trkpt lat="43.65947" lon="5.82956">
        <ele>472</ele>
        <time>2016-03-19T07:40:57.103Z</time>
      </trkpt>
      <trkpt lat="43.65941" lon="5.82948">
        <ele>472</ele>
        <time>2016-03-19T07:41:01.131Z</time>
      </trkpt>
      <trkpt lat="43.6594" lon="5.82946">
        <ele>472</ele>
        <time>2016-03-19T07:41:02.102Z</time>
      </trkpt>
      <trkpt lat="43.65936" lon="5.82935">
        <ele>471</ele>
        <time>2016-03-19T07:41:05.127Z</time>
      </trkpt>
      <trkpt lat="43.65936" lon="5.82931">
        <ele>472</ele>
        <time>2016-03-19T07:41:06.107Z</time>
      </trkpt>
      <trkpt lat="43.65934" lon="5.8292">
        <ele>472</ele>
        <time>2016-03-19T07:41:09.125Z</time>
      </trkpt>
      <trkpt lat="43.65934" lon="5.82916">
        <ele>472</ele>
        <time>2016-03-19T07:41:10.103Z</time>
      </trkpt>
      <trkpt lat="43.65933" lon="5.82905">
        <ele>473</ele>
        <time>2016-03-19T07:41:13.127Z</time>
      </trkpt>
      <trkpt lat="43.65933" lon="5.82901">
        <ele>473</ele>
        <time>2016-03-19T07:41:14.104Z</time>
      </trkpt>
      <trkpt lat="43.6593" lon="5.82891">
        <ele>473</ele>
        <time>2016-03-19T07:41:17.126Z</time>
      </trkpt>
      <trkpt lat="43.65929" lon="5.82888">
        <ele>473</ele>
        <time>2016-03-19T07:41:18.103Z</time>
      </trkpt>
      <trkpt lat="43.65923" lon="5.8288">
        <ele>473</ele>
        <time>2016-03-19T07:41:21.312Z</time>
      </trkpt>
      <trkpt lat="43.65921" lon="5.82878">
        <ele>473</ele>
        <time>2016-03-19T07:41:22.127Z</time>
      </trkpt>
      <trkpt lat="43.65916" lon="5.8287">
        <ele>473</ele>
        <time>2016-03-19T07:41:25.125Z</time>
      </trkpt>
      <trkpt lat="43.65915" lon="5.82867">
        <ele>473</ele>
        <time>2016-03-19T07:41:26.111Z</time>
      </trkpt>
      <trkpt lat="43.65917" lon="5.82856">
        <ele>474</ele>
        <time>2016-03-19T07:41:30.125Z</time>
      </trkpt>
      <trkpt lat="43.65918" lon="5.82852">
        <ele>473</ele>
        <time>2016-03-19T07:41:31.103Z</time>
      </trkpt>
      <trkpt lat="43.65918" lon="5.8284">
        <ele>475</ele>
        <time>2016-03-19T07:41:35.134Z</time>
      </trkpt>
      <trkpt lat="43.65918" lon="5.82837">
        <ele>475</ele>
        <time>2016-03-19T07:41:36.103Z</time>
      </trkpt>
      <trkpt lat="43.65919" lon="5.82827">
        <ele>475</ele>
        <time>2016-03-19T07:41:39.125Z</time>
      </trkpt>
      <trkpt lat="43.6592" lon="5.82824">
        <ele>475</ele>
        <time>2016-03-19T07:41:40.102Z</time>
      </trkpt>
      <trkpt lat="43.6592" lon="5.82814">
        <ele>475</ele>
        <time>2016-03-19T07:41:43.125Z</time>
      </trkpt>
      <trkpt lat="43.6592" lon="5.8281">
        <ele>476</ele>
        <time>2016-03-19T07:41:44.127Z</time>
      </trkpt>
      <trkpt lat="43.65924" lon="5.82801">
        <ele>475</ele>
        <time>2016-03-19T07:41:47.132Z</time>
      </trkpt>
      <trkpt lat="43.65925" lon="5.82797">
        <ele>475</ele>
        <time>2016-03-19T07:41:48.102Z</time>
      </trkpt>
      <trkpt lat="43.65926" lon="5.82787">
        <ele>476</ele>
        <time>2016-03-19T07:41:51.131Z</time>
      </trkpt>
      <trkpt lat="43.65926" lon="5.82784">
        <ele>477</ele>
        <time>2016-03-19T07:41:52.102Z</time>
      </trkpt>
      <trkpt lat="43.65925" lon="5.82773">
        <ele>476</ele>
        <time>2016-03-19T07:41:55.125Z</time>
      </trkpt>
      <trkpt lat="43.65924" lon="5.82769">
        <ele>476</ele>
        <time>2016-03-19T07:41:56.103Z</time>
      </trkpt>
      <trkpt lat="43.65923" lon="5.82757">
        <ele>477</ele>
        <time>2016-03-19T07:41:59.125Z</time>
      </trkpt>
      <trkpt lat="43.65923" lon="5.82753">
        <ele>477</ele>
        <time>2016-03-19T07:42:00.127Z</time>
      </trkpt>
      <trkpt lat="43.65922" lon="5.82742">
        <ele>476</ele>
        <time>2016-03-19T07:42:03.126Z</time>
      </trkpt>
      <trkpt lat="43.65922" lon="5.82739">
        <ele>476</ele>
        <time>2016-03-19T07:42:04.103Z</time>
      </trkpt>
      <trkpt lat="43.6592" lon="5.82728">
        <ele>476</ele>
        <time>2016-03-19T07:42:09.129Z</time>
      </trkpt>
      <trkpt lat="43.6592" lon="5.82725">
        <ele>476</ele>
        <time>2016-03-19T07:42:10.105Z</time>
      </trkpt>
      <trkpt lat="43.65918" lon="5.82716">
        <ele>477</ele>
        <time>2016-03-19T07:42:14.136Z</time>
      </trkpt>
      <trkpt lat="43.65918" lon="5.82713">
        <ele>477</ele>
        <time>2016-03-19T07:42:15.105Z</time>
      </trkpt>
      <trkpt lat="43.65915" lon="5.82702">
        <ele>478</ele>
        <time>2016-03-19T07:42:19.128Z</time>
      </trkpt>
      <trkpt lat="43.65912" lon="5.82701">
        <ele>478</ele>
        <time>2016-03-19T07:42:20.104Z</time>
      </trkpt>
      <trkpt lat="43.65904" lon="5.82697">
        <ele>478</ele>
        <time>2016-03-19T07:42:23.129Z</time>
      </trkpt>
      <trkpt lat="43.65902" lon="5.82695">
        <ele>479</ele>
        <time>2016-03-19T07:42:24.105Z</time>
      </trkpt>
      <trkpt lat="43.65901" lon="5.82683">
        <ele>480</ele>
        <time>2016-03-19T07:42:28.129Z</time>
      </trkpt>
      <trkpt lat="43.65902" lon="5.8268">
        <ele>479</ele>
        <time>2016-03-19T07:42:29.116Z</time>
      </trkpt>
      <trkpt lat="43.65903" lon="5.82669">
        <ele>479</ele>
        <time>2016-03-19T07:42:33.127Z</time>
      </trkpt>
      <trkpt lat="43.65903" lon="5.82667">
        <ele>479</ele>
        <time>2016-03-19T07:42:34.104Z</time>
      </trkpt>
      <trkpt lat="43.65896" lon="5.8266">
        <ele>477</ele>
        <time>2016-03-19T07:42:41.128Z</time>
      </trkpt>
      <trkpt lat="43.65895" lon="5.82658">
        <ele>478</ele>
        <time>2016-03-19T07:42:42.104Z</time>
      </trkpt>
      <trkpt lat="43.6589" lon="5.82648">
        <ele>477</ele>
        <time>2016-03-19T07:42:46.129Z</time>
      </trkpt>
      <trkpt lat="43.65888" lon="5.82645">
        <ele>476</ele>
        <time>2016-03-19T07:42:47.094Z</time>
      </trkpt>
      <trkpt lat="43.65884" lon="5.82636">
        <ele>477</ele>
        <time>2016-03-19T07:42:50.129Z</time>
      </trkpt>
      <trkpt lat="43.65884" lon="5.82633">
        <ele>477</ele>
        <time>2016-03-19T07:42:51.105Z</time>
      </trkpt>
      <trkpt lat="43.65879" lon="5.82623">
        <ele>477</ele>
        <time>2016-03-19T07:42:55.129Z</time>
      </trkpt>
      <trkpt lat="43.65878" lon="5.8262">
        <ele>477</ele>
        <time>2016-03-19T07:42:56.116Z</time>
      </trkpt>
      <trkpt lat="43.65874" lon="5.82609">
        <ele>477</ele>
        <time>2016-03-19T07:43:00.153Z</time>
      </trkpt>
      <trkpt lat="43.65873" lon="5.82606">
        <ele>477</ele>
        <time>2016-03-19T07:43:01.115Z</time>
      </trkpt>
      <trkpt lat="43.65871" lon="5.82594">
        <ele>478</ele>
        <time>2016-03-19T07:43:05.131Z</time>
      </trkpt>
      <trkpt lat="43.6587" lon="5.82592">
        <ele>478</ele>
        <time>2016-03-19T07:43:06.103Z</time>
      </trkpt>
      <trkpt lat="43.65866" lon="5.82583">
        <ele>478</ele>
        <time>2016-03-19T07:43:09.131Z</time>
      </trkpt>
      <trkpt lat="43.65865" lon="5.8258">
        <ele>478</ele>
        <time>2016-03-19T07:43:10.132Z</time>
      </trkpt>
      <trkpt lat="43.65863" lon="5.82571">
        <ele>478</ele>
        <time>2016-03-19T07:43:14.205Z</time>
      </trkpt>
      <trkpt lat="43.65862" lon="5.82568">
        <ele>478</ele>
        <time>2016-03-19T07:43:15.105Z</time>
      </trkpt>
      <trkpt lat="43.65859" lon="5.82557">
        <ele>479</ele>
        <time>2016-03-19T07:43:18.130Z</time>
      </trkpt>
      <trkpt lat="43.65858" lon="5.82554">
        <ele>479</ele>
        <time>2016-03-19T07:43:19.105Z</time>
      </trkpt>
      <trkpt lat="43.65855" lon="5.82544">
        <ele>480</ele>
        <time>2016-03-19T07:43:22.130Z</time>
      </trkpt>
      <trkpt lat="43.65854" lon="5.82541">
        <ele>480</ele>
        <time>2016-03-19T07:43:23.105Z</time>
      </trkpt>
      <trkpt lat="43.65849" lon="5.8253">
        <ele>482</ele>
        <time>2016-03-19T07:43:27.129Z</time>
      </trkpt>
      <trkpt lat="43.65847" lon="5.82528">
        <ele>481</ele>
        <time>2016-03-19T07:43:28.105Z</time>
      </trkpt>
      <trkpt lat="43.65843" lon="5.82521">
        <ele>481</ele>
        <time>2016-03-19T07:43:32.161Z</time>
      </trkpt>
      <trkpt lat="43.65841" lon="5.82518">
        <ele>482</ele>
        <time>2016-03-19T07:43:33.120Z</time>
      </trkpt>
      <trkpt lat="43.65837" lon="5.82508">
        <ele>484</ele>
        <time>2016-03-19T07:43:37.131Z</time>
      </trkpt>
      <trkpt lat="43.65835" lon="5.82505">
        <ele>484</ele>
        <time>2016-03-19T07:43:38.105Z</time>
      </trkpt>
      <trkpt lat="43.6583" lon="5.82498">
        <ele>484</ele>
        <time>2016-03-19T07:43:41.129Z</time>
      </trkpt>
      <trkpt lat="43.65828" lon="5.82495">
        <ele>484</ele>
        <time>2016-03-19T07:43:42.105Z</time>
      </trkpt>
      <trkpt lat="43.65823" lon="5.82488">
        <ele>484</ele>
        <time>2016-03-19T07:43:45.130Z</time>
      </trkpt>
      <trkpt lat="43.65822" lon="5.82486">
        <ele>484</ele>
        <time>2016-03-19T07:43:46.104Z</time>
      </trkpt>
      <trkpt lat="43.65816" lon="5.82476">
        <ele>486</ele>
        <time>2016-03-19T07:43:50.129Z</time>
      </trkpt>
      <trkpt lat="43.65815" lon="5.82474">
        <ele>485</ele>
        <time>2016-03-19T07:43:51.117Z</time>
      </trkpt>
      <trkpt lat="43.6581" lon="5.82468">
        <ele>484</ele>
        <time>2016-03-19T07:43:54.129Z</time>
      </trkpt>
      <trkpt lat="43.65808" lon="5.82465">
        <ele>484</ele>
        <time>2016-03-19T07:43:55.105Z</time>
      </trkpt>
      <trkpt lat="43.65803" lon="5.82456">
        <ele>485</ele>
        <time>2016-03-19T07:43:59.159Z</time>
      </trkpt>
      <trkpt lat="43.65801" lon="5.82453">
        <ele>485</ele>
        <time>2016-03-19T07:44:00.113Z</time>
      </trkpt>
      <trkpt lat="43.65797" lon="5.82444">
        <ele>487</ele>
        <time>2016-03-19T07:44:05.129Z</time>
      </trkpt>
      <trkpt lat="43.65796" lon="5.82443">
        <ele>486</ele>
        <time>2016-03-19T07:44:06.116Z</time>
      </trkpt>
      <trkpt lat="43.65791" lon="5.82435">
        <ele>486</ele>
        <time>2016-03-19T07:44:11.153Z</time>
      </trkpt>
      <trkpt lat="43.6579" lon="5.82433">
        <ele>486</ele>
        <time>2016-03-19T07:44:12.106Z</time>
      </trkpt>
      <trkpt lat="43.65784" lon="5.82424">
        <ele>486</ele>
        <time>2016-03-19T07:44:16.213Z</time>
      </trkpt>
      <trkpt lat="43.65783" lon="5.82422">
        <ele>487</ele>
        <time>2016-03-19T07:44:17.103Z</time>
      </trkpt>
      <trkpt lat="43.65778" lon="5.82411">
        <ele>488</ele>
        <time>2016-03-19T07:44:21.131Z</time>
      </trkpt>
      <trkpt lat="43.65777" lon="5.82409">
        <ele>487</ele>
        <time>2016-03-19T07:44:22.106Z</time>
      </trkpt>
      <trkpt lat="43.65774" lon="5.82399">
        <ele>488</ele>
        <time>2016-03-19T07:44:26.130Z</time>
      </trkpt>
      <trkpt lat="43.65773" lon="5.82397">
        <ele>489</ele>
        <time>2016-03-19T07:44:27.328Z</time>
      </trkpt>
      <trkpt lat="43.6577" lon="5.82387">
        <ele>490</ele>
        <time>2016-03-19T07:44:32.124Z</time>
      </trkpt>
      <trkpt lat="43.65769" lon="5.82384">
        <ele>490</ele>
        <time>2016-03-19T07:44:33.107Z</time>
      </trkpt>
      <trkpt lat="43.65768" lon="5.82374">
        <ele>492</ele>
        <time>2016-03-19T07:44:37.132Z</time>
      </trkpt>
      <trkpt lat="43.65768" lon="5.82372">
        <ele>492</ele>
        <time>2016-03-19T07:44:38.106Z</time>
      </trkpt>
      <trkpt lat="43.65769" lon="5.82363">
        <ele>492</ele>
        <time>2016-03-19T07:44:41.130Z</time>
      </trkpt>
      <trkpt lat="43.6577" lon="5.82359">
        <ele>492</ele>
        <time>2016-03-19T07:44:42.106Z</time>
      </trkpt>
      <trkpt lat="43.65773" lon="5.82348">
        <ele>494</ele>
        <time>2016-03-19T07:44:46.153Z</time>
      </trkpt>
      <trkpt lat="43.65773" lon="5.82345">
        <ele>494</ele>
        <time>2016-03-19T07:44:47.104Z</time>
      </trkpt>
      <trkpt lat="43.65773" lon="5.82335">
        <ele>493</ele>
        <time>2016-03-19T07:44:50.131Z</time>
      </trkpt>
      <trkpt lat="43.65772" lon="5.82331">
        <ele>492</ele>
        <time>2016-03-19T07:44:51.107Z</time>
      </trkpt>
      <trkpt lat="43.65767" lon="5.82326">
        <ele>490</ele>
        <time>2016-03-19T07:44:53.138Z</time>
      </trkpt>
      <trkpt lat="43.65764" lon="5.82324">
        <ele>490</ele>
        <time>2016-03-19T07:44:54.113Z</time>
      </trkpt>
      <trkpt lat="43.65759" lon="5.82317">
        <ele>489</ele>
        <time>2016-03-19T07:44:56.132Z</time>
      </trkpt>
      <trkpt lat="43.65756" lon="5.82312">
        <ele>488</ele>
        <time>2016-03-19T07:44:57.131Z</time>
      </trkpt>
      <trkpt lat="43.65751" lon="5.82302">
        <ele>488</ele>
        <time>2016-03-19T07:44:59.130Z</time>
      </trkpt>
      <trkpt lat="43.65749" lon="5.82298">
        <ele>488</ele>
        <time>2016-03-19T07:45:00.130Z</time>
      </trkpt>
      <trkpt lat="43.65746" lon="5.82287">
        <ele>488</ele>
        <time>2016-03-19T07:45:02.378Z</time>
      </trkpt>
      <trkpt lat="43.65746" lon="5.8228">
        <ele>487</ele>
        <time>2016-03-19T07:45:03.105Z</time>
      </trkpt>
      <trkpt lat="43.65747" lon="5.8227">
        <ele>486</ele>
        <time>2016-03-19T07:45:04.129Z</time>
      </trkpt>
      <trkpt lat="43.65748" lon="5.82263">
        <ele>486</ele>
        <time>2016-03-19T07:45:05.105Z</time>
      </trkpt>
      <trkpt lat="43.65748" lon="5.82256">
        <ele>486</ele>
        <time>2016-03-19T07:45:06.130Z</time>
      </trkpt>
      <trkpt lat="43.65748" lon="5.82248">
        <ele>485</ele>
        <time>2016-03-19T07:45:07.105Z</time>
      </trkpt>
      <trkpt lat="43.65748" lon="5.82239">
        <ele>485</ele>
        <time>2016-03-19T07:45:08.131Z</time>
      </trkpt>
      <trkpt lat="43.65748" lon="5.8223">
        <ele>485</ele>
        <time>2016-03-19T07:45:09.115Z</time>
      </trkpt>
      <trkpt lat="43.65748" lon="5.82223">
        <ele>485</ele>
        <time>2016-03-19T07:45:10.131Z</time>
      </trkpt>
      <trkpt lat="43.65749" lon="5.82217">
        <ele>485</ele>
        <time>2016-03-19T07:45:11.117Z</time>
      </trkpt>
      <trkpt lat="43.65752" lon="5.82206">
        <ele>485</ele>
        <time>2016-03-19T07:45:13.160Z</time>
      </trkpt>
      <trkpt lat="43.65753" lon="5.82201">
        <ele>485</ele>
        <time>2016-03-19T07:45:14.105Z</time>
      </trkpt>
      <trkpt lat="43.65756" lon="5.82191">
        <ele>486</ele>
        <time>2016-03-19T07:45:16.131Z</time>
      </trkpt>
      <trkpt lat="43.65758" lon="5.82186">
        <ele>486</ele>
        <time>2016-03-19T07:45:17.116Z</time>
      </trkpt>
      <trkpt lat="43.65759" lon="5.82178">
        <ele>486</ele>
        <time>2016-03-19T07:45:19.129Z</time>
      </trkpt>
      <trkpt lat="43.6576" lon="5.82174">
        <ele>486</ele>
        <time>2016-03-19T07:45:20.106Z</time>
      </trkpt>
      <trkpt lat="43.65761" lon="5.82165">
        <ele>486</ele>
        <time>2016-03-19T07:45:22.131Z</time>
      </trkpt>
      <trkpt lat="43.65762" lon="5.82161">
        <ele>486</ele>
        <time>2016-03-19T07:45:23.105Z</time>
      </trkpt>
      <trkpt lat="43.65764" lon="5.82152">
        <ele>487</ele>
        <time>2016-03-19T07:45:25.131Z</time>
      </trkpt>
      <trkpt lat="43.65764" lon="5.82149">
        <ele>487</ele>
        <time>2016-03-19T07:45:26.104Z</time>
      </trkpt>
      <trkpt lat="43.65766" lon="5.82137">
        <ele>487</ele>
        <time>2016-03-19T07:45:29.138Z</time>
      </trkpt>
      <trkpt lat="43.65766" lon="5.82133">
        <ele>487</ele>
        <time>2016-03-19T07:45:30.106Z</time>
      </trkpt>
      <trkpt lat="43.65767" lon="5.82121">
        <ele>489</ele>
        <time>2016-03-19T07:45:33.128Z</time>
      </trkpt>
      <trkpt lat="43.65767" lon="5.82118">
        <ele>489</ele>
        <time>2016-03-19T07:45:34.105Z</time>
      </trkpt>
      <trkpt lat="43.65769" lon="5.82108">
        <ele>488</ele>
        <time>2016-03-19T07:45:37.128Z</time>
      </trkpt>
      <trkpt lat="43.6577" lon="5.82104">
        <ele>488</ele>
        <time>2016-03-19T07:45:38.104Z</time>
      </trkpt>
      <trkpt lat="43.65771" lon="5.82093">
        <ele>489</ele>
        <time>2016-03-19T07:45:41.130Z</time>
      </trkpt>
      <trkpt lat="43.65772" lon="5.8209">
        <ele>489</ele>
        <time>2016-03-19T07:45:42.106Z</time>
      </trkpt>
      <trkpt lat="43.65772" lon="5.82079">
        <ele>491</ele>
        <time>2016-03-19T07:45:45.130Z</time>
      </trkpt>
      <trkpt lat="43.65773" lon="5.82075">
        <ele>490</ele>
        <time>2016-03-19T07:45:46.108Z</time>
      </trkpt>
      <trkpt lat="43.65774" lon="5.82063">
        <ele>491</ele>
        <time>2016-03-19T07:45:49.184Z</time>
      </trkpt>
      <trkpt lat="43.65774" lon="5.8206">
        <ele>491</ele>
        <time>2016-03-19T07:45:50.106Z</time>
      </trkpt>
      <trkpt lat="43.65773" lon="5.82049">
        <ele>493</ele>
        <time>2016-03-19T07:45:53.130Z</time>
      </trkpt>
      <trkpt lat="43.65773" lon="5.82045">
        <ele>493</ele>
        <time>2016-03-19T07:45:54.106Z</time>
      </trkpt>
      <trkpt lat="43.65773" lon="5.82034">
        <ele>494</ele>
        <time>2016-03-19T07:45:57.143Z</time>
      </trkpt>
      <trkpt lat="43.65773" lon="5.8203">
        <ele>493</ele>
        <time>2016-03-19T07:45:58.106Z</time>
      </trkpt>
      <trkpt lat="43.65774" lon="5.82018">
        <ele>490</ele>
        <time>2016-03-19T07:46:01.157Z</time>
      </trkpt>
      <trkpt lat="43.65774" lon="5.82014">
        <ele>490</ele>
        <time>2016-03-19T07:46:02.116Z</time>
      </trkpt>
      <trkpt lat="43.65775" lon="5.82002">
        <ele>490</ele>
        <time>2016-03-19T07:46:05.183Z</time>
      </trkpt>
      <trkpt lat="43.65776" lon="5.81999">
        <ele>491</ele>
        <time>2016-03-19T07:46:06.106Z</time>
      </trkpt>
      <trkpt lat="43.65778" lon="5.81987">
        <ele>492</ele>
        <time>2016-03-19T07:46:09.141Z</time>
      </trkpt>
      <trkpt lat="43.65779" lon="5.81984">
        <ele>490</ele>
        <time>2016-03-19T07:46:10.106Z</time>
      </trkpt>
      <trkpt lat="43.65782" lon="5.81973">
        <ele>490</ele>
        <time>2016-03-19T07:46:13.130Z</time>
      </trkpt>
      <trkpt lat="43.65783" lon="5.81969">
        <ele>490</ele>
        <time>2016-03-19T07:46:14.105Z</time>
      </trkpt>
      <trkpt lat="43.65785" lon="5.81959">
        <ele>490</ele>
        <time>2016-03-19T07:46:17.130Z</time>
      </trkpt>
      <trkpt lat="43.65785" lon="5.81955">
        <ele>490</ele>
        <time>2016-03-19T07:46:18.108Z</time>
      </trkpt>
      <trkpt lat="43.65784" lon="5.81944">
        <ele>491</ele>
        <time>2016-03-19T07:46:21.143Z</time>
      </trkpt>
      <trkpt lat="43.65784" lon="5.81941">
        <ele>491</ele>
        <time>2016-03-19T07:46:22.105Z</time>
      </trkpt>
      <trkpt lat="43.65782" lon="5.8193">
        <ele>492</ele>
        <time>2016-03-19T07:46:25.131Z</time>
      </trkpt>
      <trkpt lat="43.65781" lon="5.81926">
        <ele>492</ele>
        <time>2016-03-19T07:46:26.106Z</time>
      </trkpt>
      <trkpt lat="43.65779" lon="5.81915">
        <ele>494</ele>
        <time>2016-03-19T07:46:29.129Z</time>
      </trkpt>
      <trkpt lat="43.65778" lon="5.81912">
        <ele>494</ele>
        <time>2016-03-19T07:46:30.107Z</time>
      </trkpt>
      <trkpt lat="43.65775" lon="5.81902">
        <ele>493</ele>
        <time>2016-03-19T07:46:33.175Z</time>
      </trkpt>
      <trkpt lat="43.65775" lon="5.81898">
        <ele>497</ele>
        <time>2016-03-19T07:46:34.105Z</time>
      </trkpt>
      <trkpt lat="43.65774" lon="5.81887">
        <ele>498</ele>
        <time>2016-03-19T07:46:37.132Z</time>
      </trkpt>
      <trkpt lat="43.65774" lon="5.81884">
        <ele>498</ele>
        <time>2016-03-19T07:46:38.107Z</time>
      </trkpt>
      <trkpt lat="43.65774" lon="5.81874">
        <ele>499</ele>
        <time>2016-03-19T07:46:41.129Z</time>
      </trkpt>
      <trkpt lat="43.65773" lon="5.8187">
        <ele>499</ele>
        <time>2016-03-19T07:46:42.106Z</time>
      </trkpt>
      <trkpt lat="43.65774" lon="5.8186">
        <ele>499</ele>
        <time>2016-03-19T07:46:45.130Z</time>
      </trkpt>
      <trkpt lat="43.65774" lon="5.81857">
        <ele>499</ele>
        <time>2016-03-19T07:46:46.106Z</time>
      </trkpt>
      <trkpt lat="43.65775" lon="5.81847">
        <ele>499</ele>
        <time>2016-03-19T07:46:49.160Z</time>
      </trkpt>
      <trkpt lat="43.65776" lon="5.81844">
        <ele>499</ele>
        <time>2016-03-19T07:46:50.105Z</time>
      </trkpt>
      <trkpt lat="43.65775" lon="5.81834">
        <ele>500</ele>
        <time>2016-03-19T07:46:54.130Z</time>
      </trkpt>
      <trkpt lat="43.65776" lon="5.81831">
        <ele>500</ele>
        <time>2016-03-19T07:46:55.106Z</time>
      </trkpt>
      <trkpt lat="43.65777" lon="5.81819">
        <ele>501</ele>
        <time>2016-03-19T07:47:01.140Z</time>
      </trkpt>
      <trkpt lat="43.65776" lon="5.81817">
        <ele>501</ele>
        <time>2016-03-19T07:47:02.105Z</time>
      </trkpt>
      <trkpt lat="43.6577" lon="5.81811">
        <ele>501</ele>
        <time>2016-03-19T07:47:05.130Z</time>
      </trkpt>
      <trkpt lat="43.65767" lon="5.81809">
        <ele>500</ele>
        <time>2016-03-19T07:47:06.115Z</time>
      </trkpt>
      <trkpt lat="43.65759" lon="5.81807">
        <ele>502</ele>
        <time>2016-03-19T07:47:10.158Z</time>
      </trkpt>
      <trkpt lat="43.65756" lon="5.81806">
        <ele>502</ele>
        <time>2016-03-19T07:47:11.117Z</time>
      </trkpt>
      <trkpt lat="43.65748" lon="5.81804">
        <ele>502</ele>
        <time>2016-03-19T07:47:15.131Z</time>
      </trkpt>
      <trkpt lat="43.65746" lon="5.81803">
        <ele>503</ele>
        <time>2016-03-19T07:47:16.106Z</time>
      </trkpt>
      <trkpt lat="43.65738" lon="5.81797">
        <ele>505</ele>
        <time>2016-03-19T07:47:21.131Z</time>
      </trkpt>
      <trkpt lat="43.65738" lon="5.81796">
        <ele>506</ele>
        <time>2016-03-19T07:47:22.105Z</time>
      </trkpt>
      <trkpt lat="43.65731" lon="5.8179">
        <ele>508</ele>
        <time>2016-03-19T07:47:28.128Z</time>
      </trkpt>
      <trkpt lat="43.65729" lon="5.8179">
        <ele>508</ele>
        <time>2016-03-19T07:47:29.106Z</time>
      </trkpt>
      <trkpt lat="43.65721" lon="5.81787">
        <ele>507</ele>
        <time>2016-03-19T07:47:35.137Z</time>
      </trkpt>
      <trkpt lat="43.65719" lon="5.81787">
        <ele>507</ele>
        <time>2016-03-19T07:47:36.106Z</time>
      </trkpt>
      <trkpt lat="43.65711" lon="5.81792">
        <ele>509</ele>
        <time>2016-03-19T07:47:52.128Z</time>
      </trkpt>
      <trkpt lat="43.65711" lon="5.81793">
        <ele>509</ele>
        <time>2016-03-19T07:47:53.129Z</time>
      </trkpt>
      <trkpt lat="43.65706" lon="5.81803">
        <ele>512</ele>
        <time>2016-03-19T07:48:01.127Z</time>
      </trkpt>
      <trkpt lat="43.65705" lon="5.81805">
        <ele>512</ele>
        <time>2016-03-19T07:48:02.104Z</time>
      </trkpt>
      <trkpt lat="43.65701" lon="5.81816">
        <ele>511</ele>
        <time>2016-03-19T07:48:08.126Z</time>
      </trkpt>
      <trkpt lat="43.657" lon="5.81818">
        <ele>511</ele>
        <time>2016-03-19T07:48:09.103Z</time>
      </trkpt>
      <trkpt lat="43.65695" lon="5.81826">
        <ele>512</ele>
        <time>2016-03-19T07:48:15.131Z</time>
      </trkpt>
      <trkpt lat="43.65694" lon="5.81827">
        <ele>511</ele>
        <time>2016-03-19T07:48:16.104Z</time>
      </trkpt>
      <trkpt lat="43.65687" lon="5.81832">
        <ele>514</ele>
        <time>2016-03-19T07:48:23.361Z</time>
      </trkpt>
      <trkpt lat="43.65686" lon="5.81833">
        <ele>514</ele>
        <time>2016-03-19T07:48:24.105Z</time>
      </trkpt>
      <trkpt lat="43.65678" lon="5.81839">
        <ele>511</ele>
        <time>2016-03-19T07:48:29.140Z</time>
      </trkpt>
      <trkpt lat="43.65677" lon="5.81839">
        <ele>512</ele>
        <time>2016-03-19T07:48:30.107Z</time>
      </trkpt>
      <trkpt lat="43.65668" lon="5.8184">
        <ele>511</ele>
        <time>2016-03-19T07:48:37.131Z</time>
      </trkpt>
      <trkpt lat="43.65667" lon="5.8184">
        <ele>511</ele>
        <time>2016-03-19T07:48:38.104Z</time>
      </trkpt>
      <trkpt lat="43.65659" lon="5.81838">
        <ele>511</ele>
        <time>2016-03-19T07:48:44.132Z</time>
      </trkpt>
      <trkpt lat="43.65657" lon="5.81837">
        <ele>511</ele>
        <time>2016-03-19T07:48:45.107Z</time>
      </trkpt>
      <trkpt lat="43.65653" lon="5.81828">
        <ele>512</ele>
        <time>2016-03-19T07:48:51.132Z</time>
      </trkpt>
      <trkpt lat="43.65652" lon="5.81826">
        <ele>512</ele>
        <time>2016-03-19T07:48:52.107Z</time>
      </trkpt>
      <trkpt lat="43.65648" lon="5.81816">
        <ele>513</ele>
        <time>2016-03-19T07:48:58.131Z</time>
      </trkpt>
      <trkpt lat="43.65647" lon="5.81814">
        <ele>513</ele>
        <time>2016-03-19T07:48:59.107Z</time>
      </trkpt>
      <trkpt lat="43.65644" lon="5.81803">
        <ele>513</ele>
        <time>2016-03-19T07:49:05.131Z</time>
      </trkpt>
      <trkpt lat="43.65644" lon="5.81801">
        <ele>513</ele>
        <time>2016-03-19T07:49:06.107Z</time>
      </trkpt>
      <trkpt lat="43.65642" lon="5.81789">
        <ele>515</ele>
        <time>2016-03-19T07:49:12.129Z</time>
      </trkpt>
      <trkpt lat="43.65642" lon="5.81787">
        <ele>515</ele>
        <time>2016-03-19T07:49:13.104Z</time>
      </trkpt>
      <trkpt lat="43.65636" lon="5.81779">
        <ele>515</ele>
        <time>2016-03-19T07:49:17.125Z</time>
      </trkpt>
      <trkpt lat="43.65635" lon="5.81777">
        <ele>515</ele>
        <time>2016-03-19T07:49:18.104Z</time>
      </trkpt>
      <trkpt lat="43.65631" lon="5.81767">
        <ele>516</ele>
        <time>2016-03-19T07:49:22.134Z</time>
      </trkpt>
      <trkpt lat="43.65631" lon="5.81764">
        <ele>517</ele>
        <time>2016-03-19T07:49:23.106Z</time>
      </trkpt>
      <trkpt lat="43.65637" lon="5.81755">
        <ele>516</ele>
        <time>2016-03-19T07:49:28.142Z</time>
      </trkpt>
      <trkpt lat="43.65638" lon="5.81754">
        <ele>517</ele>
        <time>2016-03-19T07:49:29.107Z</time>
      </trkpt>
      <trkpt lat="43.65644" lon="5.81747">
        <ele>517</ele>
        <time>2016-03-19T07:49:33.144Z</time>
      </trkpt>
      <trkpt lat="43.65645" lon="5.81745">
        <ele>517</ele>
        <time>2016-03-19T07:49:34.106Z</time>
      </trkpt>
      <trkpt lat="43.65648" lon="5.81735">
        <ele>517</ele>
        <time>2016-03-19T07:49:38.132Z</time>
      </trkpt>
      <trkpt lat="43.65649" lon="5.81732">
        <ele>517</ele>
        <time>2016-03-19T07:49:39.169Z</time>
      </trkpt>
      <trkpt lat="43.65649" lon="5.81721">
        <ele>520</ele>
        <time>2016-03-19T07:49:43.131Z</time>
      </trkpt>
      <trkpt lat="43.6565" lon="5.81718">
        <ele>520</ele>
        <time>2016-03-19T07:49:44.107Z</time>
      </trkpt>
      <trkpt lat="43.65652" lon="5.81708">
        <ele>520</ele>
        <time>2016-03-19T07:49:48.132Z</time>
      </trkpt>
      <trkpt lat="43.65652" lon="5.81705">
        <ele>520</ele>
        <time>2016-03-19T07:49:49.118Z</time>
      </trkpt>
      <trkpt lat="43.65652" lon="5.81694">
        <ele>519</ele>
        <time>2016-03-19T07:49:53.131Z</time>
      </trkpt>
      <trkpt lat="43.65652" lon="5.81691">
        <ele>520</ele>
        <time>2016-03-19T07:49:54.106Z</time>
      </trkpt>
      <trkpt lat="43.65652" lon="5.8168">
        <ele>520</ele>
        <time>2016-03-19T07:49:58.132Z</time>
      </trkpt>
      <trkpt lat="43.65652" lon="5.81677">
        <ele>520</ele>
        <time>2016-03-19T07:49:59.107Z</time>
      </trkpt>
      <trkpt lat="43.65653" lon="5.81667">
        <ele>520</ele>
        <time>2016-03-19T07:50:03.132Z</time>
      </trkpt>
      <trkpt lat="43.65654" lon="5.81664">
        <ele>521</ele>
        <time>2016-03-19T07:50:04.106Z</time>
      </trkpt>
      <trkpt lat="43.65656" lon="5.81654">
        <ele>521</ele>
        <time>2016-03-19T07:50:08.195Z</time>
      </trkpt>
      <trkpt lat="43.65656" lon="5.81651">
        <ele>521</ele>
        <time>2016-03-19T07:50:09.104Z</time>
      </trkpt>
      <trkpt lat="43.65656" lon="5.8164">
        <ele>521</ele>
        <time>2016-03-19T07:50:13.170Z</time>
      </trkpt>
      <trkpt lat="43.65655" lon="5.81637">
        <ele>522</ele>
        <time>2016-03-19T07:50:14.106Z</time>
      </trkpt>
      <trkpt lat="43.65651" lon="5.81629">
        <ele>521</ele>
        <time>2016-03-19T07:50:17.133Z</time>
      </trkpt>
      <trkpt lat="43.6565" lon="5.81626">
        <ele>522</ele>
        <time>2016-03-19T07:50:18.118Z</time>
      </trkpt>
      <trkpt lat="43.65648" lon="5.81615">
        <ele>522</ele>
        <time>2016-03-19T07:50:22.131Z</time>
      </trkpt>
      <trkpt lat="43.65648" lon="5.81612">
        <ele>522</ele>
        <time>2016-03-19T07:50:23.117Z</time>
      </trkpt>
      <trkpt lat="43.65653" lon="5.81604">
        <ele>521</ele>
        <time>2016-03-19T07:50:27.133Z</time>
      </trkpt>
      <trkpt lat="43.65654" lon="5.81601">
        <ele>521</ele>
        <time>2016-03-19T07:50:28.103Z</time>
      </trkpt>
      <trkpt lat="43.65654" lon="5.8159">
        <ele>520</ele>
        <time>2016-03-19T07:50:32.135Z</time>
      </trkpt>
      <trkpt lat="43.65654" lon="5.81587">
        <ele>522</ele>
        <time>2016-03-19T07:50:33.118Z</time>
      </trkpt>
      <trkpt lat="43.65653" lon="5.81577">
        <ele>524</ele>
        <time>2016-03-19T07:50:37.112Z</time>
      </trkpt>
      <trkpt lat="43.65653" lon="5.81575">
        <ele>525</ele>
        <time>2016-03-19T07:50:38.103Z</time>
      </trkpt>
      <trkpt lat="43.65651" lon="5.81564">
        <ele>525</ele>
        <time>2016-03-19T07:50:42.156Z</time>
      </trkpt>
      <trkpt lat="43.6565" lon="5.81562">
        <ele>526</ele>
        <time>2016-03-19T07:50:43.103Z</time>
      </trkpt>
      <trkpt lat="43.65652" lon="5.81552">
        <ele>529</ele>
        <time>2016-03-19T07:50:47.129Z</time>
      </trkpt>
      <trkpt lat="43.65653" lon="5.8155">
        <ele>529</ele>
        <time>2016-03-19T07:50:48.105Z</time>
      </trkpt>
      <trkpt lat="43.65656" lon="5.8154">
        <ele>529</ele>
        <time>2016-03-19T07:50:52.128Z</time>
      </trkpt>
      <trkpt lat="43.65657" lon="5.81537">
        <ele>528</ele>
        <time>2016-03-19T07:50:53.105Z</time>
      </trkpt>
      <trkpt lat="43.65657" lon="5.81527">
        <ele>528</ele>
        <time>2016-03-19T07:50:56.124Z</time>
      </trkpt>
      <trkpt lat="43.65657" lon="5.81524">
        <ele>528</ele>
        <time>2016-03-19T07:50:57.107Z</time>
      </trkpt>
      <trkpt lat="43.65657" lon="5.81512">
        <ele>528</ele>
        <time>2016-03-19T07:51:01.136Z</time>
      </trkpt>
      <trkpt lat="43.65656" lon="5.81509">
        <ele>528</ele>
        <time>2016-03-19T07:51:02.104Z</time>
      </trkpt>
      <trkpt lat="43.65657" lon="5.81498">
        <ele>528</ele>
        <time>2016-03-19T07:51:06.127Z</time>
      </trkpt>
      <trkpt lat="43.65656" lon="5.81495">
        <ele>530</ele>
        <time>2016-03-19T07:51:07.130Z</time>
      </trkpt>
      <trkpt lat="43.65655" lon="5.81484">
        <ele>530</ele>
        <time>2016-03-19T07:51:11.127Z</time>
      </trkpt>
      <trkpt lat="43.65655" lon="5.81481">
        <ele>532</ele>
        <time>2016-03-19T07:51:12.102Z</time>
      </trkpt>
      <trkpt lat="43.65655" lon="5.81471">
        <ele>533</ele>
        <time>2016-03-19T07:51:16.127Z</time>
      </trkpt>
      <trkpt lat="43.65654" lon="5.81468">
        <ele>534</ele>
        <time>2016-03-19T07:51:17.104Z</time>
      </trkpt>
      <trkpt lat="43.6565" lon="5.81458">
        <ele>533</ele>
        <time>2016-03-19T07:51:21.126Z</time>
      </trkpt>
      <trkpt lat="43.65649" lon="5.81456">
        <ele>533</ele>
        <time>2016-03-19T07:51:22.104Z</time>
      </trkpt>
      <trkpt lat="43.65646" lon="5.81446">
        <ele>533</ele>
        <time>2016-03-19T07:51:26.130Z</time>
      </trkpt>
      <trkpt lat="43.65647" lon="5.81443">
        <ele>532</ele>
        <time>2016-03-19T07:51:27.108Z</time>
      </trkpt>
      <trkpt lat="43.65649" lon="5.81432">
        <ele>532</ele>
        <time>2016-03-19T07:51:31.134Z</time>
      </trkpt>
      <trkpt lat="43.65649" lon="5.81429">
        <ele>533</ele>
        <time>2016-03-19T07:51:32.106Z</time>
      </trkpt>
      <trkpt lat="43.6565" lon="5.81419">
        <ele>535</ele>
        <time>2016-03-19T07:51:36.128Z</time>
      </trkpt>
      <trkpt lat="43.6565" lon="5.81416">
        <ele>533</ele>
        <time>2016-03-19T07:51:37.106Z</time>
      </trkpt>
      <trkpt lat="43.6565" lon="5.81406">
        <ele>532</ele>
        <time>2016-03-19T07:51:41.134Z</time>
      </trkpt>
      <trkpt lat="43.6565" lon="5.81404">
        <ele>532</ele>
        <time>2016-03-19T07:51:42.108Z</time>
      </trkpt>
      <trkpt lat="43.65652" lon="5.81392">
        <ele>533</ele>
        <time>2016-03-19T07:51:46.130Z</time>
      </trkpt>
      <trkpt lat="43.65652" lon="5.81389">
        <ele>532</ele>
        <time>2016-03-19T07:51:47.107Z</time>
      </trkpt>
      <trkpt lat="43.65654" lon="5.81377">
        <ele>532</ele>
        <time>2016-03-19T07:51:51.127Z</time>
      </trkpt>
      <trkpt lat="43.65655" lon="5.81374">
        <ele>532</ele>
        <time>2016-03-19T07:51:52.105Z</time>
      </trkpt>
      <trkpt lat="43.65656" lon="5.81363">
        <ele>537</ele>
        <time>2016-03-19T07:51:56.163Z</time>
      </trkpt>
      <trkpt lat="43.65657" lon="5.8136">
        <ele>536</ele>
        <time>2016-03-19T07:51:57.106Z</time>
      </trkpt>
      <trkpt lat="43.65659" lon="5.81348">
        <ele>537</ele>
        <time>2016-03-19T07:52:01.338Z</time>
      </trkpt>
      <trkpt lat="43.6566" lon="5.81346">
        <ele>537</ele>
        <time>2016-03-19T07:52:02.106Z</time>
      </trkpt>
      <trkpt lat="43.65663" lon="5.81334">
        <ele>537</ele>
        <time>2016-03-19T07:52:06.129Z</time>
      </trkpt>
      <trkpt lat="43.65664" lon="5.81332">
        <ele>538</ele>
        <time>2016-03-19T07:52:07.106Z</time>
      </trkpt>
      <trkpt lat="43.65669" lon="5.81322">
        <ele>538</ele>
        <time>2016-03-19T07:52:11.190Z</time>
      </trkpt>
      <trkpt lat="43.65669" lon="5.81319">
        <ele>538</ele>
        <time>2016-03-19T07:52:12.127Z</time>
      </trkpt>
      <trkpt lat="43.65665" lon="5.81311">
        <ele>536</ele>
        <time>2016-03-19T07:52:15.129Z</time>
      </trkpt>
      <trkpt lat="43.65663" lon="5.81308">
        <ele>536</ele>
        <time>2016-03-19T07:52:16.112Z</time>
      </trkpt>
      <trkpt lat="43.6566" lon="5.813">
        <ele>536</ele>
        <time>2016-03-19T07:52:18.128Z</time>
      </trkpt>
      <trkpt lat="43.6566" lon="5.81296">
        <ele>536</ele>
        <time>2016-03-19T07:52:19.106Z</time>
      </trkpt>
      <trkpt lat="43.65659" lon="5.81285">
        <ele>537</ele>
        <time>2016-03-19T07:52:22.128Z</time>
      </trkpt>
      <trkpt lat="43.6566" lon="5.81281">
        <ele>537</ele>
        <time>2016-03-19T07:52:23.127Z</time>
      </trkpt>
      <trkpt lat="43.6566" lon="5.81269">
        <ele>537</ele>
        <time>2016-03-19T07:52:26.127Z</time>
      </trkpt>
      <trkpt lat="43.65659" lon="5.81266">
        <ele>536</ele>
        <time>2016-03-19T07:52:27.296Z</time>
      </trkpt>
      <trkpt lat="43.65657" lon="5.81258">
        <ele>536</ele>
        <time>2016-03-19T07:52:29.126Z</time>
      </trkpt>
      <trkpt lat="43.65656" lon="5.81254">
        <ele>536</ele>
        <time>2016-03-19T07:52:30.107Z</time>
      </trkpt>
      <trkpt lat="43.65653" lon="5.81245">
        <ele>534</ele>
        <time>2016-03-19T07:52:32.127Z</time>
      </trkpt>
      <trkpt lat="43.65652" lon="5.81241">
        <ele>533</ele>
        <time>2016-03-19T07:52:33.106Z</time>
      </trkpt>
      <trkpt lat="43.65648" lon="5.81234">
        <ele>533</ele>
        <time>2016-03-19T07:52:35.131Z</time>
      </trkpt>
      <trkpt lat="43.65647" lon="5.8123">
        <ele>534</ele>
        <time>2016-03-19T07:52:36.107Z</time>
      </trkpt>
      <trkpt lat="43.65645" lon="5.81222">
        <ele>534</ele>
        <time>2016-03-19T07:52:38.134Z</time>
      </trkpt>
      <trkpt lat="43.65644" lon="5.81217">
        <ele>534</ele>
        <time>2016-03-19T07:52:39.108Z</time>
      </trkpt>
      <trkpt lat="43.65641" lon="5.81208">
        <ele>534</ele>
        <time>2016-03-19T07:52:41.144Z</time>
      </trkpt>
      <trkpt lat="43.65639" lon="5.81204">
        <ele>533</ele>
        <time>2016-03-19T07:52:42.107Z</time>
      </trkpt>
      <trkpt lat="43.65635" lon="5.81196">
        <ele>534</ele>
        <time>2016-03-19T07:52:44.133Z</time>
      </trkpt>
      <trkpt lat="43.65634" lon="5.81192">
        <ele>534</ele>
        <time>2016-03-19T07:52:45.106Z</time>
      </trkpt>
      <trkpt lat="43.65632" lon="5.81183">
        <ele>533</ele>
        <time>2016-03-19T07:52:47.130Z</time>
      </trkpt>
      <trkpt lat="43.65631" lon="5.81179">
        <ele>534</ele>
        <time>2016-03-19T07:52:48.107Z</time>
      </trkpt>
      <trkpt lat="43.65632" lon="5.8117">
        <ele>535</ele>
        <time>2016-03-19T07:52:50.161Z</time>
      </trkpt>
      <trkpt lat="43.65633" lon="5.81165">
        <ele>534</ele>
        <time>2016-03-19T07:52:51.105Z</time>
      </trkpt>
      <trkpt lat="43.65633" lon="5.81156">
        <ele>533</ele>
        <time>2016-03-19T07:52:53.131Z</time>
      </trkpt>
      <trkpt lat="43.65632" lon="5.81151">
        <ele>533</ele>
        <time>2016-03-19T07:52:54.107Z</time>
      </trkpt>
      <trkpt lat="43.65632" lon="5.81141">
        <ele>533</ele>
        <time>2016-03-19T07:52:56.133Z</time>
      </trkpt>
      <trkpt lat="43.65632" lon="5.81137">
        <ele>533</ele>
        <time>2016-03-19T07:52:57.105Z</time>
      </trkpt>
      <trkpt lat="43.65633" lon="5.81127">
        <ele>533</ele>
        <time>2016-03-19T07:52:59.154Z</time>
      </trkpt>
      <trkpt lat="43.65632" lon="5.81123">
        <ele>533</ele>
        <time>2016-03-19T07:53:00.144Z</time>
      </trkpt>
      <trkpt lat="43.65629" lon="5.81115">
        <ele>532</ele>
        <time>2016-03-19T07:53:02.366Z</time>
      </trkpt>
      <trkpt lat="43.65627" lon="5.81111">
        <ele>532</ele>
        <time>2016-03-19T07:53:03.119Z</time>
      </trkpt>
      <trkpt lat="43.65625" lon="5.81103">
        <ele>532</ele>
        <time>2016-03-19T07:53:05.133Z</time>
      </trkpt>
      <trkpt lat="43.65624" lon="5.81098">
        <ele>532</ele>
        <time>2016-03-19T07:53:06.108Z</time>
      </trkpt>
      <trkpt lat="43.65625" lon="5.81089">
        <ele>531</ele>
        <time>2016-03-19T07:53:08.133Z</time>
      </trkpt>
      <trkpt lat="43.65625" lon="5.81083">
        <ele>531</ele>
        <time>2016-03-19T07:53:09.105Z</time>
      </trkpt>
      <trkpt lat="43.65626" lon="5.81072">
        <ele>530</ele>
        <time>2016-03-19T07:53:11.133Z</time>
      </trkpt>
      <trkpt lat="43.65627" lon="5.81066">
        <ele>530</ele>
        <time>2016-03-19T07:53:12.135Z</time>
      </trkpt>
      <trkpt lat="43.65628" lon="5.8106">
        <ele>529</ele>
        <time>2016-03-19T07:53:13.143Z</time>
      </trkpt>
      <trkpt lat="43.65631" lon="5.81051">
        <ele>529</ele>
        <time>2016-03-19T07:53:14.108Z</time>
      </trkpt>
      <trkpt lat="43.65633" lon="5.81043">
        <ele>529</ele>
        <time>2016-03-19T07:53:15.134Z</time>
      </trkpt>
      <trkpt lat="43.65635" lon="5.81036">
        <ele>528</ele>
        <time>2016-03-19T07:53:16.109Z</time>
      </trkpt>
      <trkpt lat="43.65638" lon="5.8103">
        <ele>527</ele>
        <time>2016-03-19T07:53:17.133Z</time>
      </trkpt>
      <trkpt lat="43.65641" lon="5.81024">
        <ele>527</ele>
        <time>2016-03-19T07:53:18.118Z</time>
      </trkpt>
      <trkpt lat="43.65642" lon="5.81015">
        <ele>527</ele>
        <time>2016-03-19T07:53:19.130Z</time>
      </trkpt>
      <trkpt lat="43.65642" lon="5.81006">
        <ele>527</ele>
        <time>2016-03-19T07:53:20.108Z</time>
      </trkpt>
      <trkpt lat="43.65638" lon="5.80998">
        <ele>526</ele>
        <time>2016-03-19T07:53:21.133Z</time>
      </trkpt>
      <trkpt lat="43.65636" lon="5.80988">
        <ele>525</ele>
        <time>2016-03-19T07:53:22.105Z</time>
      </trkpt>
      <trkpt lat="43.65635" lon="5.80979">
        <ele>524</ele>
        <time>2016-03-19T07:53:23.132Z</time>
      </trkpt>
      <trkpt lat="43.65636" lon="5.80971">
        <ele>524</ele>
        <time>2016-03-19T07:53:24.107Z</time>
      </trkpt>
      <trkpt lat="43.65637" lon="5.80962">
        <ele>523</ele>
        <time>2016-03-19T07:53:25.361Z</time>
      </trkpt>
      <trkpt lat="43.65637" lon="5.80954">
        <ele>523</ele>
        <time>2016-03-19T07:53:26.116Z</time>
      </trkpt>
      <trkpt lat="43.65636" lon="5.80947">
        <ele>523</ele>
        <time>2016-03-19T07:53:27.132Z</time>
      </trkpt>
      <trkpt lat="43.65634" lon="5.80942">
        <ele>523</ele>
        <time>2016-03-19T07:53:28.134Z</time>
      </trkpt>
      <trkpt lat="43.65633" lon="5.80934">
        <ele>522</ele>
        <time>2016-03-19T07:53:30.174Z</time>
      </trkpt>
      <trkpt lat="43.65634" lon="5.80926">
        <ele>521</ele>
        <time>2016-03-19T07:53:31.106Z</time>
      </trkpt>
      <trkpt lat="43.65635" lon="5.80919">
        <ele>520</ele>
        <time>2016-03-19T07:53:32.141Z</time>
      </trkpt>
      <trkpt lat="43.65636" lon="5.80911">
        <ele>520</ele>
        <time>2016-03-19T07:53:33.104Z</time>
      </trkpt>
      <trkpt lat="43.65636" lon="5.80903">
        <ele>518</ele>
        <time>2016-03-19T07:53:34.130Z</time>
      </trkpt>
      <trkpt lat="43.65635" lon="5.80895">
        <ele>516</ele>
        <time>2016-03-19T07:53:35.119Z</time>
      </trkpt>
      <trkpt lat="43.65635" lon="5.80886">
        <ele>516</ele>
        <time>2016-03-19T07:53:36.134Z</time>
      </trkpt>
      <trkpt lat="43.65634" lon="5.80877">
        <ele>516</ele>
        <time>2016-03-19T07:53:37.108Z</time>
      </trkpt>
      <trkpt lat="43.65633" lon="5.80866">
        <ele>515</ele>
        <time>2016-03-19T07:53:38.146Z</time>
      </trkpt>
      <trkpt lat="43.65631" lon="5.80856">
        <ele>515</ele>
        <time>2016-03-19T07:53:39.108Z</time>
      </trkpt>
      <trkpt lat="43.65631" lon="5.80845">
        <ele>515</ele>
        <time>2016-03-19T07:53:40.135Z</time>
      </trkpt>
      <trkpt lat="43.65628" lon="5.80834">
        <ele>514</ele>
        <time>2016-03-19T07:53:41.106Z</time>
      </trkpt>
      <trkpt lat="43.65628" lon="5.80826">
        <ele>514</ele>
        <time>2016-03-19T07:53:42.131Z</time>
      </trkpt>
      <trkpt lat="43.65627" lon="5.80819">
        <ele>514</ele>
        <time>2016-03-19T07:53:43.117Z</time>
      </trkpt>
      <trkpt lat="43.65627" lon="5.8081">
        <ele>512</ele>
        <time>2016-03-19T07:53:44.133Z</time>
      </trkpt>
      <trkpt lat="43.65626" lon="5.80801">
        <ele>512</ele>
        <time>2016-03-19T07:53:45.108Z</time>
      </trkpt>
      <trkpt lat="43.65626" lon="5.80791">
        <ele>511</ele>
        <time>2016-03-19T07:53:46.133Z</time>
      </trkpt>
      <trkpt lat="43.65626" lon="5.80781">
        <ele>510</ele>
        <time>2016-03-19T07:53:47.107Z</time>
      </trkpt>
      <trkpt lat="43.65626" lon="5.80771">
        <ele>509</ele>
        <time>2016-03-19T07:53:48.129Z</time>
      </trkpt>
      <trkpt lat="43.65624" lon="5.80761">
        <ele>508</ele>
        <time>2016-03-19T07:53:49.133Z</time>
      </trkpt>
      <trkpt lat="43.65622" lon="5.80752">
        <ele>509</ele>
        <time>2016-03-19T07:53:50.132Z</time>
      </trkpt>
      <trkpt lat="43.65621" lon="5.80742">
        <ele>508</ele>
        <time>2016-03-19T07:53:51.117Z</time>
      </trkpt>
      <trkpt lat="43.65619" lon="5.80732">
        <ele>507</ele>
        <time>2016-03-19T07:53:52.133Z</time>
      </trkpt>
      <trkpt lat="43.65618" lon="5.80723">
        <ele>506</ele>
        <time>2016-03-19T07:53:53.109Z</time>
      </trkpt>
      <trkpt lat="43.65616" lon="5.80713">
        <ele>506</ele>
        <time>2016-03-19T07:53:54.136Z</time>
      </trkpt>
      <trkpt lat="43.65615" lon="5.80705">
        <ele>506</ele>
        <time>2016-03-19T07:53:55.108Z</time>
      </trkpt>
      <trkpt lat="43.65615" lon="5.80697">
        <ele>505</ele>
        <time>2016-03-19T07:53:56.133Z</time>
      </trkpt>
      <trkpt lat="43.65614" lon="5.8069">
        <ele>502</ele>
        <time>2016-03-19T07:53:57.109Z</time>
      </trkpt>
      <trkpt lat="43.65611" lon="5.8068">
        <ele>501</ele>
        <time>2016-03-19T07:53:59.184Z</time>
      </trkpt>
      <trkpt lat="43.65611" lon="5.80676">
        <ele>500</ele>
        <time>2016-03-19T07:54:00.114Z</time>
      </trkpt>
      <trkpt lat="43.6561" lon="5.8067">
        <ele>498</ele>
        <time>2016-03-19T07:54:01.133Z</time>
      </trkpt>
      <trkpt lat="43.65608" lon="5.80663">
        <ele>497</ele>
        <time>2016-03-19T07:54:02.109Z</time>
      </trkpt>
      <trkpt lat="43.65607" lon="5.80654">
        <ele>497</ele>
        <time>2016-03-19T07:54:03.203Z</time>
      </trkpt>
      <trkpt lat="43.65605" lon="5.80646">
        <ele>496</ele>
        <time>2016-03-19T07:54:04.106Z</time>
      </trkpt>
      <trkpt lat="43.65603" lon="5.80637">
        <ele>495</ele>
        <time>2016-03-19T07:54:05.125Z</time>
      </trkpt>
      <trkpt lat="43.65601" lon="5.80628">
        <ele>494</ele>
        <time>2016-03-19T07:54:06.108Z</time>
      </trkpt>
      <trkpt lat="43.65599" lon="5.80617">
        <ele>495</ele>
        <time>2016-03-19T07:54:07.132Z</time>
      </trkpt>
      <trkpt lat="43.65598" lon="5.80606">
        <ele>495</ele>
        <time>2016-03-19T07:54:08.105Z</time>
      </trkpt>
      <trkpt lat="43.65595" lon="5.80597">
        <ele>494</ele>
        <time>2016-03-19T07:54:09.253Z</time>
      </trkpt>
      <trkpt lat="43.65593" lon="5.80587">
        <ele>492</ele>
        <time>2016-03-19T07:54:10.135Z</time>
      </trkpt>
      <trkpt lat="43.65591" lon="5.80577">
        <ele>492</ele>
        <time>2016-03-19T07:54:11.131Z</time>
      </trkpt>
      <trkpt lat="43.65589" lon="5.80569">
        <ele>491</ele>
        <time>2016-03-19T07:54:12.108Z</time>
      </trkpt>
      <trkpt lat="43.65587" lon="5.80563">
        <ele>490</ele>
        <time>2016-03-19T07:54:13.133Z</time>
      </trkpt>
      <trkpt lat="43.65587" lon="5.80556">
        <ele>490</ele>
        <time>2016-03-19T07:54:14.108Z</time>
      </trkpt>
      <trkpt lat="43.65586" lon="5.80549">
        <ele>489</ele>
        <time>2016-03-19T07:54:15.133Z</time>
      </trkpt>
      <trkpt lat="43.65585" lon="5.80541">
        <ele>488</ele>
        <time>2016-03-19T07:54:16.107Z</time>
      </trkpt>
      <trkpt lat="43.65585" lon="5.80534">
        <ele>488</ele>
        <time>2016-03-19T07:54:17.133Z</time>
      </trkpt>
      <trkpt lat="43.65584" lon="5.80527">
        <ele>488</ele>
        <time>2016-03-19T07:54:18.107Z</time>
      </trkpt>
      <trkpt lat="43.65584" lon="5.80517">
        <ele>485</ele>
        <time>2016-03-19T07:54:20.138Z</time>
      </trkpt>
      <trkpt lat="43.65585" lon="5.80513">
        <ele>485</ele>
        <time>2016-03-19T07:54:21.144Z</time>
      </trkpt>
      <trkpt lat="43.65585" lon="5.80501">
        <ele>486</ele>
        <time>2016-03-19T07:54:24.133Z</time>
      </trkpt>
      <trkpt lat="43.65586" lon="5.80496">
        <ele>486</ele>
        <time>2016-03-19T07:54:25.109Z</time>
      </trkpt>
      <trkpt lat="43.65589" lon="5.80487">
        <ele>485</ele>
        <time>2016-03-19T07:54:26.133Z</time>
      </trkpt>
      <trkpt lat="43.65589" lon="5.8048">
        <ele>485</ele>
        <time>2016-03-19T07:54:27.110Z</time>
      </trkpt>
      <trkpt lat="43.65591" lon="5.80473">
        <ele>486</ele>
        <time>2016-03-19T07:54:28.144Z</time>
      </trkpt>
      <trkpt lat="43.65593" lon="5.80464">
        <ele>486</ele>
        <time>2016-03-19T07:54:29.108Z</time>
      </trkpt>
      <trkpt lat="43.65594" lon="5.80458">
        <ele>485</ele>
        <time>2016-03-19T07:54:30.131Z</time>
      </trkpt>
      <trkpt lat="43.65596" lon="5.80451">
        <ele>485</ele>
        <time>2016-03-19T07:54:31.116Z</time>
      </trkpt>
      <trkpt lat="43.65598" lon="5.8044">
        <ele>483</ele>
        <time>2016-03-19T07:54:33.131Z</time>
      </trkpt>
      <trkpt lat="43.656" lon="5.80435">
        <ele>483</ele>
        <time>2016-03-19T07:54:34.108Z</time>
      </trkpt>
      <trkpt lat="43.65603" lon="5.80425">
        <ele>482</ele>
        <time>2016-03-19T07:54:36.135Z</time>
      </trkpt>
      <trkpt lat="43.65606" lon="5.80419">
        <ele>481</ele>
        <time>2016-03-19T07:54:37.110Z</time>
      </trkpt>
      <trkpt lat="43.65614" lon="5.80414">
        <ele>482</ele>
        <time>2016-03-19T07:54:39.134Z</time>
      </trkpt>
      <trkpt lat="43.65618" lon="5.8041">
        <ele>482</ele>
        <time>2016-03-19T07:54:40.106Z</time>
      </trkpt>
      <trkpt lat="43.6562" lon="5.80405">
        <ele>482</ele>
        <time>2016-03-19T07:54:41.133Z</time>
      </trkpt>
      <trkpt lat="43.65623" lon="5.80399">
        <ele>481</ele>
        <time>2016-03-19T07:54:42.108Z</time>
      </trkpt>
      <trkpt lat="43.65625" lon="5.80392">
        <ele>482</ele>
        <time>2016-03-19T07:54:43.162Z</time>
      </trkpt>
      <trkpt lat="43.65626" lon="5.80385">
        <ele>482</ele>
        <time>2016-03-19T07:54:44.106Z</time>
      </trkpt>
      <trkpt lat="43.65628" lon="5.80378">
        <ele>483</ele>
        <time>2016-03-19T07:54:45.211Z</time>
      </trkpt>
      <trkpt lat="43.65628" lon="5.80372">
        <ele>482</ele>
        <time>2016-03-19T07:54:46.108Z</time>
      </trkpt>
      <trkpt lat="43.65629" lon="5.80362">
        <ele>482</ele>
        <time>2016-03-19T07:54:48.133Z</time>
      </trkpt>
      <trkpt lat="43.6563" lon="5.80357">
        <ele>482</ele>
        <time>2016-03-19T07:54:49.105Z</time>
      </trkpt>
      <trkpt lat="43.65633" lon="5.80349">
        <ele>484</ele>
        <time>2016-03-19T07:54:51.133Z</time>
      </trkpt>
      <trkpt lat="43.65635" lon="5.80345">
        <ele>483</ele>
        <time>2016-03-19T07:54:52.108Z</time>
      </trkpt>
      <trkpt lat="43.65637" lon="5.80338">
        <ele>482</ele>
        <time>2016-03-19T07:54:53.135Z</time>
      </trkpt>
      <trkpt lat="43.65639" lon="5.80332">
        <ele>482</ele>
        <time>2016-03-19T07:54:54.108Z</time>
      </trkpt>
      <trkpt lat="43.65641" lon="5.80327">
        <ele>482</ele>
        <time>2016-03-19T07:54:55.133Z</time>
      </trkpt>
      <trkpt lat="43.65645" lon="5.80321">
        <ele>482</ele>
        <time>2016-03-19T07:54:56.106Z</time>
      </trkpt>
      <trkpt lat="43.6565" lon="5.80316">
        <ele>481</ele>
        <time>2016-03-19T07:54:57.132Z</time>
      </trkpt>
      <trkpt lat="43.65654" lon="5.80312">
        <ele>481</ele>
        <time>2016-03-19T07:54:58.107Z</time>
      </trkpt>
      <trkpt lat="43.6566" lon="5.80302">
        <ele>482</ele>
        <time>2016-03-19T07:55:00.161Z</time>
      </trkpt>
      <trkpt lat="43.65663" lon="5.80297">
        <ele>481</ele>
        <time>2016-03-19T07:55:01.116Z</time>
      </trkpt>
      <trkpt lat="43.65664" lon="5.80293">
        <ele>481</ele>
        <time>2016-03-19T07:55:02.164Z</time>
      </trkpt>
      <trkpt lat="43.65667" lon="5.80285">
        <ele>480</ele>
        <time>2016-03-19T07:55:03.108Z</time>
      </trkpt>
      <trkpt lat="43.6567" lon="5.80276">
        <ele>480</ele>
        <time>2016-03-19T07:55:05.133Z</time>
      </trkpt>
      <trkpt lat="43.65674" lon="5.8027">
        <ele>478</ele>
        <time>2016-03-19T07:55:06.107Z</time>
      </trkpt>
      <trkpt lat="43.65679" lon="5.80259">
        <ele>478</ele>
        <time>2016-03-19T07:55:08.133Z</time>
      </trkpt>
      <trkpt lat="43.65682" lon="5.80254">
        <ele>478</ele>
        <time>2016-03-19T07:55:09.105Z</time>
      </trkpt>
      <trkpt lat="43.65685" lon="5.8025">
        <ele>477</ele>
        <time>2016-03-19T07:55:10.127Z</time>
      </trkpt>
      <trkpt lat="43.65689" lon="5.80245">
        <ele>477</ele>
        <time>2016-03-19T07:55:11.108Z</time>
      </trkpt>
      <trkpt lat="43.65693" lon="5.8024">
        <ele>476</ele>
        <time>2016-03-19T07:55:12.132Z</time>
      </trkpt>
      <trkpt lat="43.65697" lon="5.80233">
        <ele>476</ele>
        <time>2016-03-19T07:55:13.109Z</time>
      </trkpt>
      <trkpt lat="43.65701" lon="5.80228">
        <ele>475</ele>
        <time>2016-03-19T07:55:14.134Z</time>
      </trkpt>
      <trkpt lat="43.65707" lon="5.80226">
        <ele>475</ele>
        <time>2016-03-19T07:55:15.134Z</time>
      </trkpt>
      <trkpt lat="43.65714" lon="5.80224">
        <ele>474</ele>
        <time>2016-03-19T07:55:16.133Z</time>
      </trkpt>
      <trkpt lat="43.6572" lon="5.80223">
        <ele>474</ele>
        <time>2016-03-19T07:55:17.107Z</time>
      </trkpt>
      <trkpt lat="43.65726" lon="5.80222">
        <ele>474</ele>
        <time>2016-03-19T07:55:18.133Z</time>
      </trkpt>
      <trkpt lat="43.65731" lon="5.80221">
        <ele>474</ele>
        <time>2016-03-19T07:55:19.108Z</time>
      </trkpt>
      <trkpt lat="43.65737" lon="5.80219">
        <ele>473</ele>
        <time>2016-03-19T07:55:20.147Z</time>
      </trkpt>
      <trkpt lat="43.65742" lon="5.80219">
        <ele>473</ele>
        <time>2016-03-19T07:55:21.108Z</time>
      </trkpt>
      <trkpt lat="43.65749" lon="5.80218">
        <ele>472</ele>
        <time>2016-03-19T07:55:22.133Z</time>
      </trkpt>
      <trkpt lat="43.65752" lon="5.80219">
        <ele>472</ele>
        <time>2016-03-19T07:55:23.109Z</time>
      </trkpt>
      <trkpt lat="43.65759" lon="5.80221">
        <ele>471</ele>
        <time>2016-03-19T07:55:25.134Z</time>
      </trkpt>
      <trkpt lat="43.65762" lon="5.80221">
        <ele>470</ele>
        <time>2016-03-19T07:55:26.136Z</time>
      </trkpt>
      <trkpt lat="43.6577" lon="5.80222">
        <ele>470</ele>
        <time>2016-03-19T07:55:28.134Z</time>
      </trkpt>
      <trkpt lat="43.65774" lon="5.80222">
        <ele>470</ele>
        <time>2016-03-19T07:55:29.108Z</time>
      </trkpt>
      <trkpt lat="43.65781" lon="5.80223">
        <ele>470</ele>
        <time>2016-03-19T07:55:32.134Z</time>
      </trkpt>
      <trkpt lat="43.65784" lon="5.80223">
        <ele>469</ele>
        <time>2016-03-19T07:55:33.110Z</time>
      </trkpt>
      <trkpt lat="43.6579" lon="5.80225">
        <ele>469</ele>
        <time>2016-03-19T07:55:36.136Z</time>
      </trkpt>
      <trkpt lat="43.65793" lon="5.80225">
        <ele>469</ele>
        <time>2016-03-19T07:55:37.108Z</time>
      </trkpt>
      <trkpt lat="43.65799" lon="5.80228">
        <ele>469</ele>
        <time>2016-03-19T07:55:40.139Z</time>
      </trkpt>
      <trkpt lat="43.65801" lon="5.8023">
        <ele>470</ele>
        <time>2016-03-19T07:55:41.109Z</time>
      </trkpt>
      <trkpt lat="43.65808" lon="5.80227">
        <ele>469</ele>
        <time>2016-03-19T07:55:46.146Z</time>
      </trkpt>
      <trkpt lat="43.6581" lon="5.80225">
        <ele>468</ele>
        <time>2016-03-19T07:55:47.109Z</time>
      </trkpt>
      <trkpt lat="43.65814" lon="5.80217">
        <ele>468</ele>
        <time>2016-03-19T07:55:49.135Z</time>
      </trkpt>
      <trkpt lat="43.65816" lon="5.80213">
        <ele>468</ele>
        <time>2016-03-19T07:55:50.110Z</time>
      </trkpt>
      <trkpt lat="43.65823" lon="5.80208">
        <ele>467</ele>
        <time>2016-03-19T07:55:52.135Z</time>
      </trkpt>
      <trkpt lat="43.65826" lon="5.80207">
        <ele>467</ele>
        <time>2016-03-19T07:55:53.136Z</time>
      </trkpt>
      <trkpt lat="43.65834" lon="5.80206">
        <ele>468</ele>
        <time>2016-03-19T07:55:56.144Z</time>
      </trkpt>
      <trkpt lat="43.65836" lon="5.80208">
        <ele>468</ele>
        <time>2016-03-19T07:55:57.121Z</time>
      </trkpt>
      <trkpt lat="43.65841" lon="5.80217">
        <ele>467</ele>
        <time>2016-03-19T07:56:02.146Z</time>
      </trkpt>
      <trkpt lat="43.65842" lon="5.80219">
        <ele>467</ele>
        <time>2016-03-19T07:56:03.109Z</time>
      </trkpt>
      <trkpt lat="43.65846" lon="5.80229">
        <ele>468</ele>
        <time>2016-03-19T07:56:07.134Z</time>
      </trkpt>
      <trkpt lat="43.65848" lon="5.80232">
        <ele>468</ele>
        <time>2016-03-19T07:56:08.109Z</time>
      </trkpt>
      <trkpt lat="43.65851" lon="5.8024">
        <ele>469</ele>
        <time>2016-03-19T07:56:11.135Z</time>
      </trkpt>
      <trkpt lat="43.65852" lon="5.80243">
        <ele>469</ele>
        <time>2016-03-19T07:56:12.109Z</time>
      </trkpt>
      <trkpt lat="43.65857" lon="5.80251">
        <ele>469</ele>
        <time>2016-03-19T07:56:15.133Z</time>
      </trkpt>
      <trkpt lat="43.65858" lon="5.80254">
        <ele>470</ele>
        <time>2016-03-19T07:56:16.110Z</time>
      </trkpt>
      <trkpt lat="43.65862" lon="5.80261">
        <ele>470</ele>
        <time>2016-03-19T07:56:19.133Z</time>
      </trkpt>
      <trkpt lat="43.65864" lon="5.80264">
        <ele>470</ele>
        <time>2016-03-19T07:56:20.109Z</time>
      </trkpt>
      <trkpt lat="43.65869" lon="5.80274">
        <ele>470</ele>
        <time>2016-03-19T07:56:24.131Z</time>
      </trkpt>
      <trkpt lat="43.6587" lon="5.80274">
        <ele>471</ele>
        <time>2016-03-19T07:56:25.148Z</time>
      </trkpt>
      <trkpt lat="43.65877" lon="5.8028">
        <ele>471</ele>
        <time>2016-03-19T07:56:30.135Z</time>
      </trkpt>
      <trkpt lat="43.65879" lon="5.80281">
        <ele>471</ele>
        <time>2016-03-19T07:56:31.110Z</time>
      </trkpt>
      <trkpt lat="43.65886" lon="5.80283">
        <ele>471</ele>
        <time>2016-03-19T07:56:35.148Z</time>
      </trkpt>
      <trkpt lat="43.65888" lon="5.80284">
        <ele>471</ele>
        <time>2016-03-19T07:56:36.137Z</time>
      </trkpt>
      <trkpt lat="43.65896" lon="5.80288">
        <ele>472</ele>
        <time>2016-03-19T07:56:40.136Z</time>
      </trkpt>
      <trkpt lat="43.65898" lon="5.80289">
        <ele>473</ele>
        <time>2016-03-19T07:56:41.111Z</time>
      </trkpt>
      <trkpt lat="43.65904" lon="5.80295">
        <ele>474</ele>
        <time>2016-03-19T07:56:44.131Z</time>
      </trkpt>
      <trkpt lat="43.65906" lon="5.80296">
        <ele>474</ele>
        <time>2016-03-19T07:56:45.109Z</time>
      </trkpt>
      <trkpt lat="43.65912" lon="5.80287">
        <ele>474</ele>
        <time>2016-03-19T07:56:49.136Z</time>
      </trkpt>
      <trkpt lat="43.65913" lon="5.80283">
        <ele>474</ele>
        <time>2016-03-19T07:56:50.110Z</time>
      </trkpt>
      <trkpt lat="43.65916" lon="5.80274">
        <ele>474</ele>
        <time>2016-03-19T07:56:52.133Z</time>
      </trkpt>
      <trkpt lat="43.65919" lon="5.8027">
        <ele>474</ele>
        <time>2016-03-19T07:56:53.109Z</time>
      </trkpt>
      <trkpt lat="43.65924" lon="5.80264">
        <ele>474</ele>
        <time>2016-03-19T07:56:55.133Z</time>
      </trkpt>
      <trkpt lat="43.65926" lon="5.80261">
        <ele>473</ele>
        <time>2016-03-19T07:56:56.107Z</time>
      </trkpt>
      <trkpt lat="43.65928" lon="5.80252">
        <ele>471</ele>
        <time>2016-03-19T07:56:58.167Z</time>
      </trkpt>
      <trkpt lat="43.65928" lon="5.80247">
        <ele>470</ele>
        <time>2016-03-19T07:56:59.112Z</time>
      </trkpt>
      <trkpt lat="43.65926" lon="5.80236">
        <ele>470</ele>
        <time>2016-03-19T07:57:01.141Z</time>
      </trkpt>
      <trkpt lat="43.65924" lon="5.80231">
        <ele>468</ele>
        <time>2016-03-19T07:57:02.109Z</time>
      </trkpt>
      <trkpt lat="43.65922" lon="5.80225">
        <ele>467</ele>
        <time>2016-03-19T07:57:03.133Z</time>
      </trkpt>
      <trkpt lat="43.6592" lon="5.8022">
        <ele>466</ele>
        <time>2016-03-19T07:57:04.109Z</time>
      </trkpt>
      <trkpt lat="43.65917" lon="5.80208">
        <ele>466</ele>
        <time>2016-03-19T07:57:25.136Z</time>
      </trkpt>
      <trkpt lat="43.65918" lon="5.80206">
        <ele>466</ele>
        <time>2016-03-19T07:57:26.110Z</time>
      </trkpt>
      <trkpt lat="43.65927" lon="5.80203">
        <ele>469</ele>
        <time>2016-03-19T07:57:39.137Z</time>
      </trkpt>
      <trkpt lat="43.65928" lon="5.80203">
        <ele>469</ele>
        <time>2016-03-19T07:57:40.110Z</time>
      </trkpt>
      <trkpt lat="43.65934" lon="5.80196">
        <ele>470</ele>
        <time>2016-03-19T07:57:59.126Z</time>
      </trkpt>
      <trkpt lat="43.65934" lon="5.80192">
        <ele>471</ele>
        <time>2016-03-19T07:58:00.109Z</time>
      </trkpt>
      <trkpt lat="43.65934" lon="5.80183">
        <ele>471</ele>
        <time>2016-03-19T07:58:02.134Z</time>
      </trkpt>
      <trkpt lat="43.65935" lon="5.80178">
        <ele>471</ele>
        <time>2016-03-19T07:58:03.109Z</time>
      </trkpt>
      <trkpt lat="43.65936" lon="5.80169">
        <ele>469</ele>
        <time>2016-03-19T07:58:05.136Z</time>
      </trkpt>
      <trkpt lat="43.65937" lon="5.80165">
        <ele>469</ele>
        <time>2016-03-19T07:58:06.120Z</time>
      </trkpt>
      <trkpt lat="43.65939" lon="5.80155">
        <ele>469</ele>
        <time>2016-03-19T07:58:08.133Z</time>
      </trkpt>
      <trkpt lat="43.6594" lon="5.80151">
        <ele>468</ele>
        <time>2016-03-19T07:58:09.137Z</time>
      </trkpt>
      <trkpt lat="43.65942" lon="5.80143">
        <ele>469</ele>
        <time>2016-03-19T07:58:11.133Z</time>
      </trkpt>
      <trkpt lat="43.65943" lon="5.80139">
        <ele>469</ele>
        <time>2016-03-19T07:58:12.108Z</time>
      </trkpt>
      <trkpt lat="43.65946" lon="5.8013">
        <ele>469</ele>
        <time>2016-03-19T07:58:15.134Z</time>
      </trkpt>
      <trkpt lat="43.65947" lon="5.80126">
        <ele>468</ele>
        <time>2016-03-19T07:58:16.108Z</time>
      </trkpt>
      <trkpt lat="43.65948" lon="5.80117">
        <ele>467</ele>
        <time>2016-03-19T07:58:18.140Z</time>
      </trkpt>
      <trkpt lat="43.65949" lon="5.80111">
        <ele>466</ele>
        <time>2016-03-19T07:58:19.120Z</time>
      </trkpt>
      <trkpt lat="43.6595" lon="5.80102">
        <ele>466</ele>
        <time>2016-03-19T07:58:21.134Z</time>
      </trkpt>
      <trkpt lat="43.65951" lon="5.80097">
        <ele>465</ele>
        <time>2016-03-19T07:58:22.108Z</time>
      </trkpt>
      <trkpt lat="43.65953" lon="5.80088">
        <ele>466</ele>
        <time>2016-03-19T07:58:24.144Z</time>
      </trkpt>
      <trkpt lat="43.65954" lon="5.80084">
        <ele>465</ele>
        <time>2016-03-19T07:58:25.109Z</time>
      </trkpt>
      <trkpt lat="43.65957" lon="5.80076">
        <ele>465</ele>
        <time>2016-03-19T07:58:27.146Z</time>
      </trkpt>
      <trkpt lat="43.65959" lon="5.80072">
        <ele>466</ele>
        <time>2016-03-19T07:58:28.118Z</time>
      </trkpt>
      <trkpt lat="43.65961" lon="5.80064">
        <ele>466</ele>
        <time>2016-03-19T07:58:30.134Z</time>
      </trkpt>
      <trkpt lat="43.65963" lon="5.80061">
        <ele>468</ele>
        <time>2016-03-19T07:58:31.145Z</time>
      </trkpt>
      <trkpt lat="43.65967" lon="5.8005">
        <ele>470</ele>
        <time>2016-03-19T07:58:34.145Z</time>
      </trkpt>
      <trkpt lat="43.65968" lon="5.80046">
        <ele>471</ele>
        <time>2016-03-19T07:58:35.109Z</time>
      </trkpt>
      <trkpt lat="43.65968" lon="5.80037">
        <ele>470</ele>
        <time>2016-03-19T07:58:37.375Z</time>
      </trkpt>
      <trkpt lat="43.65969" lon="5.80033">
        <ele>470</ele>
        <time>2016-03-19T07:58:38.110Z</time>
      </trkpt>
      <trkpt lat="43.6597" lon="5.80023">
        <ele>469</ele>
        <time>2016-03-19T07:58:40.153Z</time>
      </trkpt>
      <trkpt lat="43.6597" lon="5.80019">
        <ele>470</ele>
        <time>2016-03-19T07:58:41.109Z</time>
      </trkpt>
      <trkpt lat="43.65971" lon="5.8001">
        <ele>470</ele>
        <time>2016-03-19T07:58:43.134Z</time>
      </trkpt>
      <trkpt lat="43.65972" lon="5.80006">
        <ele>469</ele>
        <time>2016-03-19T07:58:44.109Z</time>
      </trkpt>
      <trkpt lat="43.65974" lon="5.79997">
        <ele>469</ele>
        <time>2016-03-19T07:58:46.146Z</time>
      </trkpt>
      <trkpt lat="43.65975" lon="5.79993">
        <ele>470</ele>
        <time>2016-03-19T07:58:47.109Z</time>
      </trkpt>
      <trkpt lat="43.65978" lon="5.79986">
        <ele>470</ele>
        <time>2016-03-19T07:58:49.132Z</time>
      </trkpt>
      <trkpt lat="43.65979" lon="5.79982">
        <ele>470</ele>
        <time>2016-03-19T07:58:50.109Z</time>
      </trkpt>
      <trkpt lat="43.6598" lon="5.79973">
        <ele>468</ele>
        <time>2016-03-19T07:58:52.135Z</time>
      </trkpt>
      <trkpt lat="43.65981" lon="5.79968">
        <ele>469</ele>
        <time>2016-03-19T07:58:53.107Z</time>
      </trkpt>
      <trkpt lat="43.65984" lon="5.7996">
        <ele>468</ele>
        <time>2016-03-19T07:58:55.128Z</time>
      </trkpt>
      <trkpt lat="43.65986" lon="5.79956">
        <ele>468</ele>
        <time>2016-03-19T07:58:56.107Z</time>
      </trkpt>
      <trkpt lat="43.65991" lon="5.7995">
        <ele>467</ele>
        <time>2016-03-19T07:58:58.137Z</time>
      </trkpt>
      <trkpt lat="43.65993" lon="5.79947">
        <ele>467</ele>
        <time>2016-03-19T07:58:59.106Z</time>
      </trkpt>
      <trkpt lat="43.66001" lon="5.79942">
        <ele>467</ele>
        <time>2016-03-19T07:59:03.145Z</time>
      </trkpt>
      <trkpt lat="43.66004" lon="5.79943">
        <ele>468</ele>
        <time>2016-03-19T07:59:04.131Z</time>
      </trkpt>
      <trkpt lat="43.66011" lon="5.79944">
        <ele>467</ele>
        <time>2016-03-19T07:59:07.134Z</time>
      </trkpt>
      <trkpt lat="43.66014" lon="5.79944">
        <ele>467</ele>
        <time>2016-03-19T07:59:08.110Z</time>
      </trkpt>
      <trkpt lat="43.66021" lon="5.79944">
        <ele>467</ele>
        <time>2016-03-19T07:59:10.133Z</time>
      </trkpt>
      <trkpt lat="43.66025" lon="5.79943">
        <ele>466</ele>
        <time>2016-03-19T07:59:11.121Z</time>
      </trkpt>
      <trkpt lat="43.66031" lon="5.7994">
        <ele>466</ele>
        <time>2016-03-19T07:59:13.130Z</time>
      </trkpt>
      <trkpt lat="43.66035" lon="5.79939">
        <ele>465</ele>
        <time>2016-03-19T07:59:14.109Z</time>
      </trkpt>
      <trkpt lat="43.66041" lon="5.79936">
        <ele>464</ele>
        <time>2016-03-19T07:59:16.135Z</time>
      </trkpt>
      <trkpt lat="43.66044" lon="5.79934">
        <ele>465</ele>
        <time>2016-03-19T07:59:17.120Z</time>
      </trkpt>
      <trkpt lat="43.6605" lon="5.79932">
        <ele>466</ele>
        <time>2016-03-19T07:59:19.132Z</time>
      </trkpt>
      <trkpt lat="43.66053" lon="5.79931">
        <ele>466</ele>
        <time>2016-03-19T07:59:20.134Z</time>
      </trkpt>
      <trkpt lat="43.6606" lon="5.79927">
        <ele>465</ele>
        <time>2016-03-19T07:59:22.146Z</time>
      </trkpt>
      <trkpt lat="43.66063" lon="5.79925">
        <ele>466</ele>
        <time>2016-03-19T07:59:23.110Z</time>
      </trkpt>
      <trkpt lat="43.6607" lon="5.79922">
        <ele>466</ele>
        <time>2016-03-19T07:59:25.135Z</time>
      </trkpt>
      <trkpt lat="43.66073" lon="5.79921">
        <ele>466</ele>
        <time>2016-03-19T07:59:26.110Z</time>
      </trkpt>
      <trkpt lat="43.6608" lon="5.79918">
        <ele>466</ele>
        <time>2016-03-19T07:59:28.134Z</time>
      </trkpt>
      <trkpt lat="43.66083" lon="5.79917">
        <ele>465</ele>
        <time>2016-03-19T07:59:29.109Z</time>
      </trkpt>
      <trkpt lat="43.6609" lon="5.79913">
        <ele>464</ele>
        <time>2016-03-19T07:59:31.162Z</time>
      </trkpt>
      <trkpt lat="43.66094" lon="5.79911">
        <ele>464</ele>
        <time>2016-03-19T07:59:32.120Z</time>
      </trkpt>
      <trkpt lat="43.66101" lon="5.79908">
        <ele>464</ele>
        <time>2016-03-19T07:59:34.134Z</time>
      </trkpt>
      <trkpt lat="43.66105" lon="5.79906">
        <ele>464</ele>
        <time>2016-03-19T07:59:35.109Z</time>
      </trkpt>
      <trkpt lat="43.66112" lon="5.79902">
        <ele>463</ele>
        <time>2016-03-19T07:59:37.132Z</time>
      </trkpt>
      <trkpt lat="43.66115" lon="5.799">
        <ele>464</ele>
        <time>2016-03-19T07:59:38.109Z</time>
      </trkpt>
      <trkpt lat="43.66122" lon="5.79895">
        <ele>464</ele>
        <time>2016-03-19T07:59:40.134Z</time>
      </trkpt>
      <trkpt lat="43.66125" lon="5.79893">
        <ele>463</ele>
        <time>2016-03-19T07:59:41.110Z</time>
      </trkpt>
      <trkpt lat="43.66131" lon="5.79888">
        <ele>462</ele>
        <time>2016-03-19T07:59:43.134Z</time>
      </trkpt>
      <trkpt lat="43.66134" lon="5.79886">
        <ele>462</ele>
        <time>2016-03-19T07:59:44.110Z</time>
      </trkpt>
      <trkpt lat="43.66142" lon="5.79884">
        <ele>462</ele>
        <time>2016-03-19T07:59:48.134Z</time>
      </trkpt>
      <trkpt lat="43.66145" lon="5.79883">
        <ele>462</ele>
        <time>2016-03-19T07:59:49.107Z</time>
      </trkpt>
      <trkpt lat="43.66151" lon="5.79876">
        <ele>463</ele>
        <time>2016-03-19T07:59:52.145Z</time>
      </trkpt>
      <trkpt lat="43.66152" lon="5.79872">
        <ele>464</ele>
        <time>2016-03-19T07:59:53.112Z</time>
      </trkpt>
      <trkpt lat="43.66152" lon="5.7986">
        <ele>462</ele>
        <time>2016-03-19T07:59:56.138Z</time>
      </trkpt>
      <trkpt lat="43.66151" lon="5.79856">
        <ele>462</ele>
        <time>2016-03-19T07:59:57.121Z</time>
      </trkpt>
      <trkpt lat="43.66145" lon="5.79848">
        <ele>461</ele>
        <time>2016-03-19T08:00:00.130Z</time>
      </trkpt>
      <trkpt lat="43.66143" lon="5.79847">
        <ele>461</ele>
        <time>2016-03-19T08:00:01.100Z</time>
      </trkpt>
      <trkpt lat="43.66136" lon="5.79841">
        <ele>460</ele>
        <time>2016-03-19T08:00:05.133Z</time>
      </trkpt>
      <trkpt lat="43.66134" lon="5.79839">
        <ele>459</ele>
        <time>2016-03-19T08:00:06.109Z</time>
      </trkpt>
      <trkpt lat="43.66128" lon="5.79837">
        <ele>460</ele>
        <time>2016-03-19T08:00:08.133Z</time>
      </trkpt>
      <trkpt lat="43.66125" lon="5.79836">
        <ele>460</ele>
        <time>2016-03-19T08:00:09.138Z</time>
      </trkpt>
      <trkpt lat="43.66119" lon="5.79833">
        <ele>460</ele>
        <time>2016-03-19T08:00:11.131Z</time>
      </trkpt>
      <trkpt lat="43.66116" lon="5.79832">
        <ele>458</ele>
        <time>2016-03-19T08:00:12.109Z</time>
      </trkpt>
      <trkpt lat="43.6611" lon="5.79822">
        <ele>460</ele>
        <time>2016-03-19T08:00:15.135Z</time>
      </trkpt>
      <trkpt lat="43.66109" lon="5.79819">
        <ele>460</ele>
        <time>2016-03-19T08:00:16.107Z</time>
      </trkpt>
      <trkpt lat="43.66104" lon="5.79808">
        <ele>459</ele>
        <time>2016-03-19T08:00:19.135Z</time>
      </trkpt>
      <trkpt lat="43.66102" lon="5.79804">
        <ele>458</ele>
        <time>2016-03-19T08:00:20.104Z</time>
      </trkpt>
      <trkpt lat="43.66099" lon="5.79797">
        <ele>458</ele>
        <time>2016-03-19T08:00:22.147Z</time>
      </trkpt>
      <trkpt lat="43.66098" lon="5.79793">
        <ele>458</ele>
        <time>2016-03-19T08:00:23.120Z</time>
      </trkpt>
      <trkpt lat="43.66094" lon="5.79782">
        <ele>458</ele>
        <time>2016-03-19T08:00:26.146Z</time>
      </trkpt>
      <trkpt lat="43.66093" lon="5.79778">
        <ele>458</ele>
        <time>2016-03-19T08:00:27.110Z</time>
      </trkpt>
      <trkpt lat="43.6609" lon="5.79766">
        <ele>458</ele>
        <time>2016-03-19T08:00:30.161Z</time>
      </trkpt>
      <trkpt lat="43.6609" lon="5.79762">
        <ele>458</ele>
        <time>2016-03-19T08:00:31.121Z</time>
      </trkpt>
      <trkpt lat="43.6609" lon="5.7975">
        <ele>457</ele>
        <time>2016-03-19T08:00:34.134Z</time>
      </trkpt>
      <trkpt lat="43.66089" lon="5.79746">
        <ele>457</ele>
        <time>2016-03-19T08:00:35.110Z</time>
      </trkpt>
      <trkpt lat="43.66088" lon="5.79738">
        <ele>457</ele>
        <time>2016-03-19T08:00:37.119Z</time>
      </trkpt>
      <trkpt lat="43.66087" lon="5.79734">
        <ele>457</ele>
        <time>2016-03-19T08:00:38.114Z</time>
      </trkpt>
      <trkpt lat="43.66086" lon="5.79723">
        <ele>457</ele>
        <time>2016-03-19T08:00:40.141Z</time>
      </trkpt>
      <trkpt lat="43.66084" lon="5.79719">
        <ele>457</ele>
        <time>2016-03-19T08:00:41.109Z</time>
      </trkpt>
      <trkpt lat="43.6608" lon="5.79708">
        <ele>457</ele>
        <time>2016-03-19T08:00:43.136Z</time>
      </trkpt>
      <trkpt lat="43.66078" lon="5.79702">
        <ele>457</ele>
        <time>2016-03-19T08:00:44.108Z</time>
      </trkpt>
      <trkpt lat="43.66074" lon="5.79691">
        <ele>456</ele>
        <time>2016-03-19T08:00:46.152Z</time>
      </trkpt>
      <trkpt lat="43.66073" lon="5.79686">
        <ele>456</ele>
        <time>2016-03-19T08:00:47.101Z</time>
      </trkpt>
      <trkpt lat="43.66067" lon="5.79677">
        <ele>456</ele>
        <time>2016-03-19T08:00:51.130Z</time>
      </trkpt>
      <trkpt lat="43.66066" lon="5.79674">
        <ele>455</ele>
        <time>2016-03-19T08:00:52.112Z</time>
      </trkpt>
      <trkpt lat="43.66066" lon="5.79664">
        <ele>458</ele>
        <time>2016-03-19T08:00:55.131Z</time>
      </trkpt>
      <trkpt lat="43.66068" lon="5.7966">
        <ele>458</ele>
        <time>2016-03-19T08:00:56.108Z</time>
      </trkpt>
      <trkpt lat="43.66072" lon="5.79655">
        <ele>459</ele>
        <time>2016-03-19T08:00:58.135Z</time>
      </trkpt>
      <trkpt lat="43.66075" lon="5.79652">
        <ele>458</ele>
        <time>2016-03-19T08:00:59.121Z</time>
      </trkpt>
      <trkpt lat="43.6608" lon="5.79647">
        <ele>458</ele>
        <time>2016-03-19T08:01:01.132Z</time>
      </trkpt>
      <trkpt lat="43.66083" lon="5.79644">
        <ele>459</ele>
        <time>2016-03-19T08:01:02.111Z</time>
      </trkpt>
      <trkpt lat="43.66086" lon="5.79636">
        <ele>459</ele>
        <time>2016-03-19T08:01:04.137Z</time>
      </trkpt>
      <trkpt lat="43.66087" lon="5.79633">
        <ele>459</ele>
        <time>2016-03-19T08:01:05.110Z</time>
      </trkpt>
      <trkpt lat="43.66087" lon="5.7962">
        <ele>460</ele>
        <time>2016-03-19T08:01:08.146Z</time>
      </trkpt>
      <trkpt lat="43.66087" lon="5.79616">
        <ele>461</ele>
        <time>2016-03-19T08:01:09.109Z</time>
      </trkpt>
      <trkpt lat="43.66086" lon="5.79604">
        <ele>460</ele>
        <time>2016-03-19T08:01:12.133Z</time>
      </trkpt>
      <trkpt lat="43.66086" lon="5.79599">
        <ele>461</ele>
        <time>2016-03-19T08:01:13.107Z</time>
      </trkpt>
      <trkpt lat="43.66083" lon="5.79591">
        <ele>461</ele>
        <time>2016-03-19T08:01:15.132Z</time>
      </trkpt>
      <trkpt lat="43.66082" lon="5.79587">
        <ele>462</ele>
        <time>2016-03-19T08:01:16.110Z</time>
      </trkpt>
      <trkpt lat="43.66081" lon="5.79577">
        <ele>462</ele>
        <time>2016-03-19T08:01:19.134Z</time>
      </trkpt>
      <trkpt lat="43.66082" lon="5.79573">
        <ele>462</ele>
        <time>2016-03-19T08:01:20.110Z</time>
      </trkpt>
      <trkpt lat="43.66085" lon="5.79566">
        <ele>463</ele>
        <time>2016-03-19T08:01:22.145Z</time>
      </trkpt>
      <trkpt lat="43.66086" lon="5.79562">
        <ele>463</ele>
        <time>2016-03-19T08:01:23.153Z</time>
      </trkpt>
      <trkpt lat="43.66087" lon="5.79552">
        <ele>463</ele>
        <time>2016-03-19T08:01:25.136Z</time>
      </trkpt>
      <trkpt lat="43.66087" lon="5.79548">
        <ele>463</ele>
        <time>2016-03-19T08:01:26.109Z</time>
      </trkpt>
      <trkpt lat="43.6609" lon="5.79537">
        <ele>463</ele>
        <time>2016-03-19T08:01:29.135Z</time>
      </trkpt>
      <trkpt lat="43.6609" lon="5.79533">
        <ele>463</ele>
        <time>2016-03-19T08:01:30.110Z</time>
      </trkpt>
      <trkpt lat="43.66094" lon="5.79522">
        <ele>462</ele>
        <time>2016-03-19T08:01:34.136Z</time>
      </trkpt>
      <trkpt lat="43.66097" lon="5.79519">
        <ele>461</ele>
        <time>2016-03-19T08:01:35.109Z</time>
      </trkpt>
      <trkpt lat="43.66101" lon="5.79511">
        <ele>459</ele>
        <time>2016-03-19T08:01:37.134Z</time>
      </trkpt>
      <trkpt lat="43.66103" lon="5.79506">
        <ele>459</ele>
        <time>2016-03-19T08:01:38.110Z</time>
      </trkpt>
      <trkpt lat="43.66108" lon="5.79499">
        <ele>459</ele>
        <time>2016-03-19T08:01:40.134Z</time>
      </trkpt>
      <trkpt lat="43.6611" lon="5.79495">
        <ele>458</ele>
        <time>2016-03-19T08:01:41.110Z</time>
      </trkpt>
      <trkpt lat="43.66115" lon="5.79488">
        <ele>458</ele>
        <time>2016-03-19T08:01:43.147Z</time>
      </trkpt>
      <trkpt lat="43.66117" lon="5.79484">
        <ele>458</ele>
        <time>2016-03-19T08:01:44.108Z</time>
      </trkpt>
      <trkpt lat="43.66121" lon="5.79476">
        <ele>459</ele>
        <time>2016-03-19T08:01:46.135Z</time>
      </trkpt>
      <trkpt lat="43.66123" lon="5.79471">
        <ele>459</ele>
        <time>2016-03-19T08:01:47.109Z</time>
      </trkpt>
      <trkpt lat="43.66127" lon="5.79463">
        <ele>459</ele>
        <time>2016-03-19T08:01:49.134Z</time>
      </trkpt>
      <trkpt lat="43.66129" lon="5.79459">
        <ele>459</ele>
        <time>2016-03-19T08:01:50.110Z</time>
      </trkpt>
      <trkpt lat="43.66132" lon="5.79448">
        <ele>461</ele>
        <time>2016-03-19T08:01:53.135Z</time>
      </trkpt>
      <trkpt lat="43.66133" lon="5.79444">
        <ele>459</ele>
        <time>2016-03-19T08:01:54.111Z</time>
      </trkpt>
      <trkpt lat="43.66137" lon="5.79434">
        <ele>460</ele>
        <time>2016-03-19T08:01:57.132Z</time>
      </trkpt>
      <trkpt lat="43.66139" lon="5.79433">
        <ele>460</ele>
        <time>2016-03-19T08:01:58.110Z</time>
      </trkpt>
      <trkpt lat="43.66147" lon="5.79428">
        <ele>461</ele>
        <time>2016-03-19T08:02:04.134Z</time>
      </trkpt>
      <trkpt lat="43.66149" lon="5.79426">
        <ele>460</ele>
        <time>2016-03-19T08:02:05.109Z</time>
      </trkpt>
      <trkpt lat="43.66156" lon="5.79419">
        <ele>461</ele>
        <time>2016-03-19T08:02:09.132Z</time>
      </trkpt>
      <trkpt lat="43.66159" lon="5.79416">
        <ele>461</ele>
        <time>2016-03-19T08:02:10.110Z</time>
      </trkpt>
      <trkpt lat="43.66164" lon="5.79411">
        <ele>461</ele>
        <time>2016-03-19T08:02:12.133Z</time>
      </trkpt>
      <trkpt lat="43.66167" lon="5.79409">
        <ele>461</ele>
        <time>2016-03-19T08:02:13.328Z</time>
      </trkpt>
      <trkpt lat="43.66173" lon="5.79405">
        <ele>461</ele>
        <time>2016-03-19T08:02:15.134Z</time>
      </trkpt>
      <trkpt lat="43.66176" lon="5.79402">
        <ele>460</ele>
        <time>2016-03-19T08:02:16.110Z</time>
      </trkpt>
      <trkpt lat="43.66182" lon="5.79398">
        <ele>460</ele>
        <time>2016-03-19T08:02:18.135Z</time>
      </trkpt>
      <trkpt lat="43.66186" lon="5.79396">
        <ele>460</ele>
        <time>2016-03-19T08:02:19.111Z</time>
      </trkpt>
      <trkpt lat="43.66193" lon="5.79394">
        <ele>460</ele>
        <time>2016-03-19T08:02:21.132Z</time>
      </trkpt>
      <trkpt lat="43.66195" lon="5.79393">
        <ele>461</ele>
        <time>2016-03-19T08:02:22.111Z</time>
      </trkpt>
      <trkpt lat="43.66201" lon="5.79389">
        <ele>461</ele>
        <time>2016-03-19T08:02:24.145Z</time>
      </trkpt>
      <trkpt lat="43.66204" lon="5.79387">
        <ele>460</ele>
        <time>2016-03-19T08:02:25.121Z</time>
      </trkpt>
      <trkpt lat="43.66212" lon="5.79383">
        <ele>460</ele>
        <time>2016-03-19T08:02:28.146Z</time>
      </trkpt>
      <trkpt lat="43.66215" lon="5.79383">
        <ele>460</ele>
        <time>2016-03-19T08:02:29.110Z</time>
      </trkpt>
      <trkpt lat="43.66223" lon="5.79379">
        <ele>459</ele>
        <time>2016-03-19T08:02:33.172Z</time>
      </trkpt>
      <trkpt lat="43.66225" lon="5.79377">
        <ele>459</ele>
        <time>2016-03-19T08:02:34.107Z</time>
      </trkpt>
      <trkpt lat="43.6623" lon="5.7937">
        <ele>459</ele>
        <time>2016-03-19T08:02:37.135Z</time>
      </trkpt>
      <trkpt lat="43.66232" lon="5.79366">
        <ele>459</ele>
        <time>2016-03-19T08:02:38.121Z</time>
      </trkpt>
      <trkpt lat="43.66237" lon="5.79359">
        <ele>460</ele>
        <time>2016-03-19T08:02:40.135Z</time>
      </trkpt>
      <trkpt lat="43.66239" lon="5.79356">
        <ele>460</ele>
        <time>2016-03-19T08:02:41.111Z</time>
      </trkpt>
      <trkpt lat="43.66243" lon="5.7935">
        <ele>460</ele>
        <time>2016-03-19T08:02:43.145Z</time>
      </trkpt>
      <trkpt lat="43.66246" lon="5.79346">
        <ele>459</ele>
        <time>2016-03-19T08:02:44.136Z</time>
      </trkpt>
      <trkpt lat="43.6625" lon="5.7934">
        <ele>460</ele>
        <time>2016-03-19T08:02:46.124Z</time>
      </trkpt>
      <trkpt lat="43.66252" lon="5.79337">
        <ele>460</ele>
        <time>2016-03-19T08:02:47.110Z</time>
      </trkpt>
      <trkpt lat="43.66258" lon="5.79329">
        <ele>459</ele>
        <time>2016-03-19T08:02:50.135Z</time>
      </trkpt>
      <trkpt lat="43.6626" lon="5.79326">
        <ele>459</ele>
        <time>2016-03-19T08:02:51.111Z</time>
      </trkpt>
      <trkpt lat="43.66265" lon="5.79318">
        <ele>459</ele>
        <time>2016-03-19T08:02:54.134Z</time>
      </trkpt>
      <trkpt lat="43.66267" lon="5.79315">
        <ele>459</ele>
        <time>2016-03-19T08:02:55.111Z</time>
      </trkpt>
      <trkpt lat="43.66273" lon="5.79307">
        <ele>459</ele>
        <time>2016-03-19T08:02:58.146Z</time>
      </trkpt>
      <trkpt lat="43.66275" lon="5.79305">
        <ele>458</ele>
        <time>2016-03-19T08:02:59.110Z</time>
      </trkpt>
      <trkpt lat="43.6628" lon="5.79297">
        <ele>458</ele>
        <time>2016-03-19T08:03:02.132Z</time>
      </trkpt>
      <trkpt lat="43.66282" lon="5.79294">
        <ele>458</ele>
        <time>2016-03-19T08:03:03.109Z</time>
      </trkpt>
      <trkpt lat="43.66286" lon="5.79286">
        <ele>458</ele>
        <time>2016-03-19T08:03:05.137Z</time>
      </trkpt>
      <trkpt lat="43.66288" lon="5.79282">
        <ele>458</ele>
        <time>2016-03-19T08:03:06.109Z</time>
      </trkpt>
      <trkpt lat="43.66292" lon="5.79275">
        <ele>459</ele>
        <time>2016-03-19T08:03:08.147Z</time>
      </trkpt>
      <trkpt lat="43.66293" lon="5.7927">
        <ele>459</ele>
        <time>2016-03-19T08:03:09.120Z</time>
      </trkpt>
      <trkpt lat="43.66296" lon="5.79261">
        <ele>457</ele>
        <time>2016-03-19T08:03:11.137Z</time>
      </trkpt>
      <trkpt lat="43.66298" lon="5.79256">
        <ele>457</ele>
        <time>2016-03-19T08:03:12.111Z</time>
      </trkpt>
      <trkpt lat="43.663" lon="5.79246">
        <ele>457</ele>
        <time>2016-03-19T08:03:14.134Z</time>
      </trkpt>
      <trkpt lat="43.66301" lon="5.79242">
        <ele>457</ele>
        <time>2016-03-19T08:03:15.111Z</time>
      </trkpt>
      <trkpt lat="43.66302" lon="5.7923">
        <ele>457</ele>
        <time>2016-03-19T08:03:18.146Z</time>
      </trkpt>
      <trkpt lat="43.66302" lon="5.79227">
        <ele>457</ele>
        <time>2016-03-19T08:03:19.122Z</time>
      </trkpt>
      <trkpt lat="43.66303" lon="5.79217">
        <ele>458</ele>
        <time>2016-03-19T08:03:22.146Z</time>
      </trkpt>
      <trkpt lat="43.66303" lon="5.79213">
        <ele>459</ele>
        <time>2016-03-19T08:03:23.107Z</time>
      </trkpt>
      <trkpt lat="43.66303" lon="5.79202">
        <ele>458</ele>
        <time>2016-03-19T08:03:26.184Z</time>
      </trkpt>
      <trkpt lat="43.66303" lon="5.79197">
        <ele>459</ele>
        <time>2016-03-19T08:03:27.111Z</time>
      </trkpt>
      <trkpt lat="43.66303" lon="5.79189">
        <ele>459</ele>
        <time>2016-03-19T08:03:29.135Z</time>
      </trkpt>
      <trkpt lat="43.66303" lon="5.79184">
        <ele>459</ele>
        <time>2016-03-19T08:03:30.120Z</time>
      </trkpt>
      <trkpt lat="43.66302" lon="5.79176">
        <ele>459</ele>
        <time>2016-03-19T08:03:32.132Z</time>
      </trkpt>
      <trkpt lat="43.66303" lon="5.79171">
        <ele>458</ele>
        <time>2016-03-19T08:03:33.111Z</time>
      </trkpt>
      <trkpt lat="43.66303" lon="5.79161">
        <ele>458</ele>
        <time>2016-03-19T08:03:35.143Z</time>
      </trkpt>
      <trkpt lat="43.66303" lon="5.79156">
        <ele>457</ele>
        <time>2016-03-19T08:03:36.111Z</time>
      </trkpt>
      <trkpt lat="43.66302" lon="5.79146">
        <ele>458</ele>
        <time>2016-03-19T08:03:38.147Z</time>
      </trkpt>
      <trkpt lat="43.66302" lon="5.7914">
        <ele>459</ele>
        <time>2016-03-19T08:03:39.122Z</time>
      </trkpt>
      <trkpt lat="43.66302" lon="5.7913">
        <ele>459</ele>
        <time>2016-03-19T08:03:41.135Z</time>
      </trkpt>
      <trkpt lat="43.66301" lon="5.79125">
        <ele>457</ele>
        <time>2016-03-19T08:03:42.110Z</time>
      </trkpt>
      <trkpt lat="43.66301" lon="5.79115">
        <ele>457</ele>
        <time>2016-03-19T08:03:44.146Z</time>
      </trkpt>
      <trkpt lat="43.663" lon="5.7911">
        <ele>457</ele>
        <time>2016-03-19T08:03:45.122Z</time>
      </trkpt>
      <trkpt lat="43.663" lon="5.791">
        <ele>456</ele>
        <time>2016-03-19T08:03:47.136Z</time>
      </trkpt>
      <trkpt lat="43.66299" lon="5.79095">
        <ele>457</ele>
        <time>2016-03-19T08:03:48.111Z</time>
      </trkpt>
      <trkpt lat="43.66298" lon="5.79083">
        <ele>457</ele>
        <time>2016-03-19T08:03:50.137Z</time>
      </trkpt>
      <trkpt lat="43.66298" lon="5.79078">
        <ele>457</ele>
        <time>2016-03-19T08:03:51.111Z</time>
      </trkpt>
      <trkpt lat="43.663" lon="5.79066">
        <ele>457</ele>
        <time>2016-03-19T08:03:53.162Z</time>
      </trkpt>
      <trkpt lat="43.663" lon="5.7906">
        <ele>458</ele>
        <time>2016-03-19T08:03:54.121Z</time>
      </trkpt>
      <trkpt lat="43.66302" lon="5.79049">
        <ele>458</ele>
        <time>2016-03-19T08:03:56.136Z</time>
      </trkpt>
      <trkpt lat="43.66304" lon="5.79043">
        <ele>458</ele>
        <time>2016-03-19T08:03:57.111Z</time>
      </trkpt>
      <trkpt lat="43.66307" lon="5.79032">
        <ele>456</ele>
        <time>2016-03-19T08:03:59.142Z</time>
      </trkpt>
      <trkpt lat="43.66309" lon="5.79026">
        <ele>457</ele>
        <time>2016-03-19T08:04:00.118Z</time>
      </trkpt>
      <trkpt lat="43.66312" lon="5.7902">
        <ele>456</ele>
        <time>2016-03-19T08:04:01.137Z</time>
      </trkpt>
      <trkpt lat="43.66315" lon="5.79015">
        <ele>455</ele>
        <time>2016-03-19T08:04:02.112Z</time>
      </trkpt>
      <trkpt lat="43.66321" lon="5.79006">
        <ele>456</ele>
        <time>2016-03-19T08:04:04.129Z</time>
      </trkpt>
      <trkpt lat="43.66324" lon="5.79001">
        <ele>456</ele>
        <time>2016-03-19T08:04:05.116Z</time>
      </trkpt>
      <trkpt lat="43.6633" lon="5.78993">
        <ele>457</ele>
        <time>2016-03-19T08:04:07.131Z</time>
      </trkpt>
      <trkpt lat="43.66333" lon="5.78989">
        <ele>457</ele>
        <time>2016-03-19T08:04:08.109Z</time>
      </trkpt>
      <trkpt lat="43.66338" lon="5.78983">
        <ele>458</ele>
        <time>2016-03-19T08:04:10.136Z</time>
      </trkpt>
      <trkpt lat="43.66341" lon="5.78978">
        <ele>458</ele>
        <time>2016-03-19T08:04:11.107Z</time>
      </trkpt>
      <trkpt lat="43.66343" lon="5.7897">
        <ele>457</ele>
        <time>2016-03-19T08:04:12.127Z</time>
      </trkpt>
      <trkpt lat="43.66346" lon="5.78964">
        <ele>457</ele>
        <time>2016-03-19T08:04:13.116Z</time>
      </trkpt>
      <trkpt lat="43.66349" lon="5.78956">
        <ele>456</ele>
        <time>2016-03-19T08:04:14.130Z</time>
      </trkpt>
      <trkpt lat="43.66351" lon="5.78949">
        <ele>456</ele>
        <time>2016-03-19T08:04:15.106Z</time>
      </trkpt>
      <trkpt lat="43.66354" lon="5.7894">
        <ele>455</ele>
        <time>2016-03-19T08:04:16.138Z</time>
      </trkpt>
      <trkpt lat="43.66355" lon="5.78934">
        <ele>456</ele>
        <time>2016-03-19T08:04:17.110Z</time>
      </trkpt>
      <trkpt lat="43.66357" lon="5.78928">
        <ele>456</ele>
        <time>2016-03-19T08:04:18.131Z</time>
      </trkpt>
      <trkpt lat="43.66358" lon="5.78919">
        <ele>455</ele>
        <time>2016-03-19T08:04:19.110Z</time>
      </trkpt>
      <trkpt lat="43.66358" lon="5.78919">
        <ele>455</ele>
        <time>2016-03-19T08:04:19.234Z</time>
      </trkpt>
      <trkpt lat="43.6636" lon="5.78906">
        <ele>452</ele>
        <time>2016-03-19T08:04:20.124Z</time>
      </trkpt>
      <trkpt lat="43.6636" lon="5.78896">
        <ele>450</ele>
        <time>2016-03-19T08:04:21.128Z</time>
      </trkpt>
      <trkpt lat="43.6636" lon="5.78888">
        <ele>450</ele>
        <time>2016-03-19T08:04:22.109Z</time>
      </trkpt>
      <trkpt lat="43.66359" lon="5.78879">
        <ele>449</ele>
        <time>2016-03-19T08:04:23.129Z</time>
      </trkpt>
      <trkpt lat="43.66358" lon="5.7887">
        <ele>449</ele>
        <time>2016-03-19T08:04:24.116Z</time>
      </trkpt>
      <trkpt lat="43.66356" lon="5.78861">
        <ele>449</ele>
        <time>2016-03-19T08:04:25.134Z</time>
      </trkpt>
      <trkpt lat="43.66356" lon="5.78853">
        <ele>449</ele>
        <time>2016-03-19T08:04:26.107Z</time>
      </trkpt>
      <trkpt lat="43.66353" lon="5.78846">
        <ele>448</ele>
        <time>2016-03-19T08:04:27.132Z</time>
      </trkpt>
      <trkpt lat="43.66353" lon="5.78838">
        <ele>449</ele>
        <time>2016-03-19T08:04:28.116Z</time>
      </trkpt>
      <trkpt lat="43.66351" lon="5.7883">
        <ele>449</ele>
        <time>2016-03-19T08:04:29.144Z</time>
      </trkpt>
      <trkpt lat="43.66349" lon="5.78824">
        <ele>449</ele>
        <time>2016-03-19T08:04:30.109Z</time>
      </trkpt>
      <trkpt lat="43.66345" lon="5.78816">
        <ele>450</ele>
        <time>2016-03-19T08:04:31.138Z</time>
      </trkpt>
      <trkpt lat="43.66339" lon="5.78807">
        <ele>447</ele>
        <time>2016-03-19T08:04:32.115Z</time>
      </trkpt>
      <trkpt lat="43.66336" lon="5.78801">
        <ele>447</ele>
        <time>2016-03-19T08:04:33.130Z</time>
      </trkpt>
      <trkpt lat="43.66335" lon="5.78794">
        <ele>448</ele>
        <time>2016-03-19T08:04:34.109Z</time>
      </trkpt>
      <trkpt lat="43.66331" lon="5.78786">
        <ele>447</ele>
        <time>2016-03-19T08:04:35.128Z</time>
      </trkpt>
      <trkpt lat="43.6633" lon="5.78778">
        <ele>446</ele>
        <time>2016-03-19T08:04:36.140Z</time>
      </trkpt>
      <trkpt lat="43.6633" lon="5.78768">
        <ele>446</ele>
        <time>2016-03-19T08:04:37.130Z</time>
      </trkpt>
      <trkpt lat="43.66327" lon="5.7876">
        <ele>446</ele>
        <time>2016-03-19T08:04:38.109Z</time>
      </trkpt>
      <trkpt lat="43.66328" lon="5.78752">
        <ele>446</ele>
        <time>2016-03-19T08:04:39.131Z</time>
      </trkpt>
      <trkpt lat="43.66328" lon="5.78742">
        <ele>446</ele>
        <time>2016-03-19T08:04:40.108Z</time>
      </trkpt>
      <trkpt lat="43.66327" lon="5.78737">
        <ele>447</ele>
        <time>2016-03-19T08:04:41.130Z</time>
      </trkpt>
      <trkpt lat="43.66329" lon="5.78727">
        <ele>447</ele>
        <time>2016-03-19T08:04:42.109Z</time>
      </trkpt>
      <trkpt lat="43.6633" lon="5.78716">
        <ele>447</ele>
        <time>2016-03-19T08:04:43.130Z</time>
      </trkpt>
      <trkpt lat="43.66331" lon="5.78707">
        <ele>447</ele>
        <time>2016-03-19T08:04:44.116Z</time>
      </trkpt>
      <trkpt lat="43.66331" lon="5.78698">
        <ele>448</ele>
        <time>2016-03-19T08:04:45.130Z</time>
      </trkpt>
      <trkpt lat="43.66337" lon="5.78681">
        <ele>443</ele>
        <time>2016-03-19T08:04:46.107Z</time>
      </trkpt>
      <trkpt lat="43.66342" lon="5.78673">
        <ele>444</ele>
        <time>2016-03-19T08:04:47.154Z</time>
      </trkpt>
      <trkpt lat="43.66343" lon="5.78666">
        <ele>443</ele>
        <time>2016-03-19T08:04:48.110Z</time>
      </trkpt>
      <trkpt lat="43.66346" lon="5.7866">
        <ele>443</ele>
        <time>2016-03-19T08:04:49.138Z</time>
      </trkpt>
      <trkpt lat="43.6635" lon="5.78656">
        <ele>444</ele>
        <time>2016-03-19T08:04:50.101Z</time>
      </trkpt>
      <trkpt lat="43.66354" lon="5.78655">
        <ele>444</ele>
        <time>2016-03-19T08:04:51.181Z</time>
      </trkpt>
      <trkpt lat="43.66359" lon="5.78653">
        <ele>444</ele>
        <time>2016-03-19T08:04:52.108Z</time>
      </trkpt>
      <trkpt lat="43.66366" lon="5.78649">
        <ele>445</ele>
        <time>2016-03-19T08:04:54.121Z</time>
      </trkpt>
      <trkpt lat="43.66369" lon="5.78645">
        <ele>445</ele>
        <time>2016-03-19T08:04:55.108Z</time>
      </trkpt>
      <trkpt lat="43.66376" lon="5.7864">
        <ele>444</ele>
        <time>2016-03-19T08:04:58.132Z</time>
      </trkpt>
      <trkpt lat="43.66377" lon="5.78638">
        <ele>444</ele>
        <time>2016-03-19T08:04:59.108Z</time>
      </trkpt>
      <trkpt lat="43.66383" lon="5.7863">
        <ele>448</ele>
        <time>2016-03-19T08:05:03.157Z</time>
      </trkpt>
      <trkpt lat="43.66384" lon="5.78629">
        <ele>447</ele>
        <time>2016-03-19T08:05:04.110Z</time>
      </trkpt>
      <trkpt lat="43.66391" lon="5.78623">
        <ele>450</ele>
        <time>2016-03-19T08:05:09.129Z</time>
      </trkpt>
      <trkpt lat="43.66392" lon="5.78622">
        <ele>450</ele>
        <time>2016-03-19T08:05:10.105Z</time>
      </trkpt>
      <trkpt lat="43.664" lon="5.78617">
        <ele>450</ele>
        <time>2016-03-19T08:05:15.129Z</time>
      </trkpt>
      <trkpt lat="43.66401" lon="5.78616">
        <ele>449</ele>
        <time>2016-03-19T08:05:16.108Z</time>
      </trkpt>
      <trkpt lat="43.66407" lon="5.7861">
        <ele>448</ele>
        <time>2016-03-19T08:05:20.312Z</time>
      </trkpt>
      <trkpt lat="43.66408" lon="5.78608">
        <ele>448</ele>
        <time>2016-03-19T08:05:21.106Z</time>
      </trkpt>
      <trkpt lat="43.66414" lon="5.78604">
        <ele>448</ele>
        <time>2016-03-19T08:05:24.134Z</time>
      </trkpt>
      <trkpt lat="43.66417" lon="5.78602">
        <ele>448</ele>
        <time>2016-03-19T08:05:25.140Z</time>
      </trkpt>
      <trkpt lat="43.66424" lon="5.78597">
        <ele>446</ele>
        <time>2016-03-19T08:05:43.131Z</time>
      </trkpt>
      <trkpt lat="43.66426" lon="5.78596">
        <ele>446</ele>
        <time>2016-03-19T08:05:44.109Z</time>
      </trkpt>
      <trkpt lat="43.66432" lon="5.78592">
        <ele>446</ele>
        <time>2016-03-19T08:05:47.131Z</time>
      </trkpt>
      <trkpt lat="43.66436" lon="5.7859">
        <ele>445</ele>
        <time>2016-03-19T08:05:48.109Z</time>
      </trkpt>
      <trkpt lat="43.66435" lon="5.78578">
        <ele>444</ele>
        <time>2016-03-19T08:06:15.136Z</time>
      </trkpt>
      <trkpt lat="43.66434" lon="5.78577">
        <ele>444</ele>
        <time>2016-03-19T08:06:16.112Z</time>
      </trkpt>
      <trkpt lat="43.66431" lon="5.78566">
        <ele>445</ele>
        <time>2016-03-19T08:06:21.137Z</time>
      </trkpt>
      <trkpt lat="43.66431" lon="5.78563">
        <ele>445</ele>
        <time>2016-03-19T08:06:22.112Z</time>
      </trkpt>
      <trkpt lat="43.66431" lon="5.78554">
        <ele>446</ele>
        <time>2016-03-19T08:06:25.143Z</time>
      </trkpt>
      <trkpt lat="43.66432" lon="5.78551">
        <ele>446</ele>
        <time>2016-03-19T08:06:26.339Z</time>
      </trkpt>
      <trkpt lat="43.66435" lon="5.7854">
        <ele>447</ele>
        <time>2016-03-19T08:06:29.171Z</time>
      </trkpt>
      <trkpt lat="43.66436" lon="5.78538">
        <ele>447</ele>
        <time>2016-03-19T08:06:30.112Z</time>
      </trkpt>
      <trkpt lat="43.66439" lon="5.78527">
        <ele>448</ele>
        <time>2016-03-19T08:06:34.138Z</time>
      </trkpt>
      <trkpt lat="43.6644" lon="5.78526">
        <ele>448</ele>
        <time>2016-03-19T08:06:35.112Z</time>
      </trkpt>
      <trkpt lat="43.66443" lon="5.78514">
        <ele>451</ele>
        <time>2016-03-19T08:06:41.155Z</time>
      </trkpt>
      <trkpt lat="43.66444" lon="5.78512">
        <ele>451</ele>
        <time>2016-03-19T08:06:42.113Z</time>
      </trkpt>
      <trkpt lat="43.66448" lon="5.78501">
        <ele>451</ele>
        <time>2016-03-19T08:06:45.147Z</time>
      </trkpt>
      <trkpt lat="43.66449" lon="5.78498">
        <ele>451</ele>
        <time>2016-03-19T08:06:46.118Z</time>
      </trkpt>
      <trkpt lat="43.66454" lon="5.7849">
        <ele>451</ele>
        <time>2016-03-19T08:06:49.145Z</time>
      </trkpt>
      <trkpt lat="43.66455" lon="5.78487">
        <ele>451</ele>
        <time>2016-03-19T08:06:50.111Z</time>
      </trkpt>
      <trkpt lat="43.66459" lon="5.78479">
        <ele>451</ele>
        <time>2016-03-19T08:06:53.136Z</time>
      </trkpt>
      <trkpt lat="43.6646" lon="5.78476">
        <ele>452</ele>
        <time>2016-03-19T08:06:54.113Z</time>
      </trkpt>
      <trkpt lat="43.66465" lon="5.78467">
        <ele>450</ele>
        <time>2016-03-19T08:06:57.133Z</time>
      </trkpt>
      <trkpt lat="43.66466" lon="5.78464">
        <ele>450</ele>
        <time>2016-03-19T08:06:58.110Z</time>
      </trkpt>
      <trkpt lat="43.66469" lon="5.78454">
        <ele>451</ele>
        <time>2016-03-19T08:07:01.135Z</time>
      </trkpt>
      <trkpt lat="43.6647" lon="5.7845">
        <ele>451</ele>
        <time>2016-03-19T08:07:02.120Z</time>
      </trkpt>
      <trkpt lat="43.66472" lon="5.7844">
        <ele>452</ele>
        <time>2016-03-19T08:07:05.139Z</time>
      </trkpt>
      <trkpt lat="43.66473" lon="5.78437">
        <ele>453</ele>
        <time>2016-03-19T08:07:06.112Z</time>
      </trkpt>
      <trkpt lat="43.66474" lon="5.78427">
        <ele>451</ele>
        <time>2016-03-19T08:07:09.137Z</time>
      </trkpt>
      <trkpt lat="43.66475" lon="5.78424">
        <ele>452</ele>
        <time>2016-03-19T08:07:10.112Z</time>
      </trkpt>
      <trkpt lat="43.66475" lon="5.78412">
        <ele>451</ele>
        <time>2016-03-19T08:07:14.137Z</time>
      </trkpt>
      <trkpt lat="43.66476" lon="5.78409">
        <ele>451</ele>
        <time>2016-03-19T08:07:15.111Z</time>
      </trkpt>
      <trkpt lat="43.66479" lon="5.78399">
        <ele>452</ele>
        <time>2016-03-19T08:07:19.136Z</time>
      </trkpt>
      <trkpt lat="43.66481" lon="5.78395">
        <ele>450</ele>
        <time>2016-03-19T08:07:20.112Z</time>
      </trkpt>
      <trkpt lat="43.66486" lon="5.78385">
        <ele>451</ele>
        <time>2016-03-19T08:07:23.134Z</time>
      </trkpt>
      <trkpt lat="43.66488" lon="5.78382">
        <ele>450</ele>
        <time>2016-03-19T08:07:24.123Z</time>
      </trkpt>
      <trkpt lat="43.66492" lon="5.78372">
        <ele>452</ele>
        <time>2016-03-19T08:07:28.135Z</time>
      </trkpt>
      <trkpt lat="43.66493" lon="5.78369">
        <ele>452</ele>
        <time>2016-03-19T08:07:29.112Z</time>
      </trkpt>
      <trkpt lat="43.66495" lon="5.7836">
        <ele>452</ele>
        <time>2016-03-19T08:07:32.138Z</time>
      </trkpt>
      <trkpt lat="43.66496" lon="5.78357">
        <ele>451</ele>
        <time>2016-03-19T08:07:33.113Z</time>
      </trkpt>
      <trkpt lat="43.66496" lon="5.78346">
        <ele>453</ele>
        <time>2016-03-19T08:07:37.136Z</time>
      </trkpt>
      <trkpt lat="43.66497" lon="5.78343">
        <ele>454</ele>
        <time>2016-03-19T08:07:38.111Z</time>
      </trkpt>
      <trkpt lat="43.665" lon="5.78333">
        <ele>453</ele>
        <time>2016-03-19T08:07:42.139Z</time>
      </trkpt>
      <trkpt lat="43.66501" lon="5.78331">
        <ele>454</ele>
        <time>2016-03-19T08:07:43.112Z</time>
      </trkpt>
      <trkpt lat="43.66506" lon="5.78322">
        <ele>456</ele>
        <time>2016-03-19T08:07:47.136Z</time>
      </trkpt>
      <trkpt lat="43.66507" lon="5.7832">
        <ele>457</ele>
        <time>2016-03-19T08:07:48.112Z</time>
      </trkpt>
      <trkpt lat="43.6651" lon="5.78312">
        <ele>456</ele>
        <time>2016-03-19T08:07:51.137Z</time>
      </trkpt>
      <trkpt lat="43.66511" lon="5.78309">
        <ele>456</ele>
        <time>2016-03-19T08:07:52.113Z</time>
      </trkpt>
      <trkpt lat="43.66514" lon="5.783">
        <ele>456</ele>
        <time>2016-03-19T08:07:55.136Z</time>
      </trkpt>
      <trkpt lat="43.66514" lon="5.78297">
        <ele>457</ele>
        <time>2016-03-19T08:07:56.123Z</time>
      </trkpt>
      <trkpt lat="43.66517" lon="5.78288">
        <ele>456</ele>
        <time>2016-03-19T08:07:59.137Z</time>
      </trkpt>
      <trkpt lat="43.66518" lon="5.78285">
        <ele>456</ele>
        <time>2016-03-19T08:08:00.114Z</time>
      </trkpt>
      <trkpt lat="43.6652" lon="5.78276">
        <ele>456</ele>
        <time>2016-03-19T08:08:03.137Z</time>
      </trkpt>
      <trkpt lat="43.6652" lon="5.78273">
        <ele>455</ele>
        <time>2016-03-19T08:08:04.112Z</time>
      </trkpt>
      <trkpt lat="43.6652" lon="5.78263">
        <ele>457</ele>
        <time>2016-03-19T08:08:07.136Z</time>
      </trkpt>
      <trkpt lat="43.6652" lon="5.78258">
        <ele>459</ele>
        <time>2016-03-19T08:08:08.102Z</time>
      </trkpt>
      <trkpt lat="43.66518" lon="5.78248">
        <ele>459</ele>
        <time>2016-03-19T08:08:11.218Z</time>
      </trkpt>
      <trkpt lat="43.66518" lon="5.78245">
        <ele>460</ele>
        <time>2016-03-19T08:08:12.140Z</time>
      </trkpt>
      <trkpt lat="43.66517" lon="5.78235">
        <ele>459</ele>
        <time>2016-03-19T08:08:15.138Z</time>
      </trkpt>
      <trkpt lat="43.66517" lon="5.78231">
        <ele>458</ele>
        <time>2016-03-19T08:08:16.122Z</time>
      </trkpt>
      <trkpt lat="43.66516" lon="5.78221">
        <ele>457</ele>
        <time>2016-03-19T08:08:19.136Z</time>
      </trkpt>
      <trkpt lat="43.66516" lon="5.78217">
        <ele>457</ele>
        <time>2016-03-19T08:08:20.111Z</time>
      </trkpt>
      <trkpt lat="43.66516" lon="5.78208">
        <ele>456</ele>
        <time>2016-03-19T08:08:22.137Z</time>
      </trkpt>
      <trkpt lat="43.66516" lon="5.78203">
        <ele>454</ele>
        <time>2016-03-19T08:08:23.112Z</time>
      </trkpt>
      <trkpt lat="43.66514" lon="5.78192">
        <ele>453</ele>
        <time>2016-03-19T08:08:25.363Z</time>
      </trkpt>
      <trkpt lat="43.66511" lon="5.78181">
        <ele>454</ele>
        <time>2016-03-19T08:08:26.113Z</time>
      </trkpt>
      <trkpt lat="43.66511" lon="5.78173">
        <ele>453</ele>
        <time>2016-03-19T08:08:27.136Z</time>
      </trkpt>
      <trkpt lat="43.66513" lon="5.78165">
        <ele>452</ele>
        <time>2016-03-19T08:08:28.139Z</time>
      </trkpt>
      <trkpt lat="43.66515" lon="5.78153">
        <ele>454</ele>
        <time>2016-03-19T08:08:30.144Z</time>
      </trkpt>
      <trkpt lat="43.66517" lon="5.7815">
        <ele>455</ele>
        <time>2016-03-19T08:08:31.112Z</time>
      </trkpt>
      <trkpt lat="43.66519" lon="5.78141">
        <ele>455</ele>
        <time>2016-03-19T08:08:34.138Z</time>
      </trkpt>
      <trkpt lat="43.6652" lon="5.78138">
        <ele>456</ele>
        <time>2016-03-19T08:08:35.110Z</time>
      </trkpt>
      <trkpt lat="43.66524" lon="5.78127">
        <ele>459</ele>
        <time>2016-03-19T08:08:39.137Z</time>
      </trkpt>
      <trkpt lat="43.66525" lon="5.78124">
        <ele>459</ele>
        <time>2016-03-19T08:08:40.113Z</time>
      </trkpt>
      <trkpt lat="43.66528" lon="5.78113">
        <ele>460</ele>
        <time>2016-03-19T08:08:44.163Z</time>
      </trkpt>
      <trkpt lat="43.66529" lon="5.78111">
        <ele>460</ele>
        <time>2016-03-19T08:08:45.111Z</time>
      </trkpt>
      <trkpt lat="43.66532" lon="5.78102">
        <ele>459</ele>
        <time>2016-03-19T08:08:48.138Z</time>
      </trkpt>
      <trkpt lat="43.66533" lon="5.78099">
        <ele>459</ele>
        <time>2016-03-19T08:08:49.112Z</time>
      </trkpt>
      <trkpt lat="43.66537" lon="5.7809">
        <ele>458</ele>
        <time>2016-03-19T08:08:52.136Z</time>
      </trkpt>
      <trkpt lat="43.66538" lon="5.78087">
        <ele>458</ele>
        <time>2016-03-19T08:08:53.112Z</time>
      </trkpt>
      <trkpt lat="43.6654" lon="5.78076">
        <ele>458</ele>
        <time>2016-03-19T08:08:56.139Z</time>
      </trkpt>
      <trkpt lat="43.6654" lon="5.78073">
        <ele>458</ele>
        <time>2016-03-19T08:08:57.113Z</time>
      </trkpt>
      <trkpt lat="43.66541" lon="5.78062">
        <ele>459</ele>
        <time>2016-03-19T08:09:00.134Z</time>
      </trkpt>
      <trkpt lat="43.6654" lon="5.78059">
        <ele>459</ele>
        <time>2016-03-19T08:09:01.112Z</time>
      </trkpt>
      <trkpt lat="43.66539" lon="5.78049">
        <ele>459</ele>
        <time>2016-03-19T08:09:04.137Z</time>
      </trkpt>
      <trkpt lat="43.66539" lon="5.78045">
        <ele>459</ele>
        <time>2016-03-19T08:09:05.119Z</time>
      </trkpt>
      <trkpt lat="43.66539" lon="5.78035">
        <ele>460</ele>
        <time>2016-03-19T08:09:08.138Z</time>
      </trkpt>
      <trkpt lat="43.6654" lon="5.78032">
        <ele>461</ele>
        <time>2016-03-19T08:09:09.112Z</time>
      </trkpt>
      <trkpt lat="43.66542" lon="5.78021">
        <ele>460</ele>
        <time>2016-03-19T08:09:12.139Z</time>
      </trkpt>
      <trkpt lat="43.66543" lon="5.78017">
        <ele>459</ele>
        <time>2016-03-19T08:09:13.112Z</time>
      </trkpt>
      <trkpt lat="43.66545" lon="5.78008">
        <ele>458</ele>
        <time>2016-03-19T08:09:15.137Z</time>
      </trkpt>
      <trkpt lat="43.66546" lon="5.78004">
        <ele>457</ele>
        <time>2016-03-19T08:09:16.138Z</time>
      </trkpt>
      <trkpt lat="43.6655" lon="5.77997">
        <ele>457</ele>
        <time>2016-03-19T08:09:18.139Z</time>
      </trkpt>
      <trkpt lat="43.66553" lon="5.77995">
        <ele>457</ele>
        <time>2016-03-19T08:09:19.109Z</time>
      </trkpt>
      <trkpt lat="43.66559" lon="5.77989">
        <ele>458</ele>
        <time>2016-03-19T08:09:21.138Z</time>
      </trkpt>
      <trkpt lat="43.66562" lon="5.77986">
        <ele>457</ele>
        <time>2016-03-19T08:09:22.110Z</time>
      </trkpt>
      <trkpt lat="43.66566" lon="5.7798">
        <ele>457</ele>
        <time>2016-03-19T08:09:24.138Z</time>
      </trkpt>
      <trkpt lat="43.66567" lon="5.77976">
        <ele>457</ele>
        <time>2016-03-19T08:09:25.111Z</time>
      </trkpt>
      <trkpt lat="43.66569" lon="5.77965">
        <ele>456</ele>
        <time>2016-03-19T08:09:28.138Z</time>
      </trkpt>
      <trkpt lat="43.66572" lon="5.77963">
        <ele>455</ele>
        <time>2016-03-19T08:09:29.124Z</time>
      </trkpt>
      <trkpt lat="43.66577" lon="5.77958">
        <ele>455</ele>
        <time>2016-03-19T08:09:31.137Z</time>
      </trkpt>
      <trkpt lat="43.66579" lon="5.77956">
        <ele>455</ele>
        <time>2016-03-19T08:09:32.123Z</time>
      </trkpt>
      <trkpt lat="43.66586" lon="5.77949">
        <ele>455</ele>
        <time>2016-03-19T08:09:35.197Z</time>
      </trkpt>
      <trkpt lat="43.66587" lon="5.77947">
        <ele>456</ele>
        <time>2016-03-19T08:09:36.112Z</time>
      </trkpt>
      <trkpt lat="43.6659" lon="5.77937">
        <ele>458</ele>
        <time>2016-03-19T08:09:40.150Z</time>
      </trkpt>
      <trkpt lat="43.6659" lon="5.77935">
        <ele>458</ele>
        <time>2016-03-19T08:09:41.113Z</time>
      </trkpt>
      <trkpt lat="43.66591" lon="5.77924">
        <ele>458</ele>
        <time>2016-03-19T08:09:46.136Z</time>
      </trkpt>
      <trkpt lat="43.66591" lon="5.77922">
        <ele>457</ele>
        <time>2016-03-19T08:09:47.112Z</time>
      </trkpt>
      <trkpt lat="43.66595" lon="5.77912">
        <ele>457</ele>
        <time>2016-03-19T08:09:52.127Z</time>
      </trkpt>
      <trkpt lat="43.66596" lon="5.7791">
        <ele>457</ele>
        <time>2016-03-19T08:09:53.137Z</time>
      </trkpt>
      <trkpt lat="43.66601" lon="5.779">
        <ele>458</ele>
        <time>2016-03-19T08:09:58.138Z</time>
      </trkpt>
      <trkpt lat="43.66602" lon="5.77899">
        <ele>459</ele>
        <time>2016-03-19T08:09:59.113Z</time>
      </trkpt>
      <trkpt lat="43.66609" lon="5.77892">
        <ele>459</ele>
        <time>2016-03-19T08:10:04.136Z</time>
      </trkpt>
      <trkpt lat="43.6661" lon="5.7789">
        <ele>459</ele>
        <time>2016-03-19T08:10:05.114Z</time>
      </trkpt>
      <trkpt lat="43.66614" lon="5.77882">
        <ele>459</ele>
        <time>2016-03-19T08:10:08.138Z</time>
      </trkpt>
      <trkpt lat="43.66615" lon="5.77879">
        <ele>460</ele>
        <time>2016-03-19T08:10:09.113Z</time>
      </trkpt>
      <trkpt lat="43.6662" lon="5.77871">
        <ele>460</ele>
        <time>2016-03-19T08:10:12.149Z</time>
      </trkpt>
      <trkpt lat="43.66622" lon="5.77869">
        <ele>460</ele>
        <time>2016-03-19T08:10:13.109Z</time>
      </trkpt>
      <trkpt lat="43.66628" lon="5.77863">
        <ele>460</ele>
        <time>2016-03-19T08:10:16.136Z</time>
      </trkpt>
      <trkpt lat="43.6663" lon="5.77862">
        <ele>461</ele>
        <time>2016-03-19T08:10:17.125Z</time>
      </trkpt>
      <trkpt lat="43.66638" lon="5.77861">
        <ele>463</ele>
        <time>2016-03-19T08:10:21.137Z</time>
      </trkpt>
      <trkpt lat="43.6664" lon="5.77861">
        <ele>462</ele>
        <time>2016-03-19T08:10:22.112Z</time>
      </trkpt>
      <trkpt lat="43.66648" lon="5.77863">
        <ele>462</ele>
        <time>2016-03-19T08:10:25.138Z</time>
      </trkpt>
      <trkpt lat="43.66651" lon="5.77863">
        <ele>460</ele>
        <time>2016-03-19T08:10:26.113Z</time>
      </trkpt>
      <trkpt lat="43.66657" lon="5.77863">
        <ele>459</ele>
        <time>2016-03-19T08:10:28.372Z</time>
      </trkpt>
      <trkpt lat="43.66661" lon="5.77864">
        <ele>459</ele>
        <time>2016-03-19T08:10:29.112Z</time>
      </trkpt>
      <trkpt lat="43.66668" lon="5.77864">
        <ele>457</ele>
        <time>2016-03-19T08:10:31.137Z</time>
      </trkpt>
      <trkpt lat="43.66673" lon="5.77865">
        <ele>458</ele>
        <time>2016-03-19T08:10:32.112Z</time>
      </trkpt>
      <trkpt lat="43.66681" lon="5.77863">
        <ele>457</ele>
        <time>2016-03-19T08:10:34.138Z</time>
      </trkpt>
      <trkpt lat="43.66685" lon="5.77863">
        <ele>456</ele>
        <time>2016-03-19T08:10:35.113Z</time>
      </trkpt>
      <trkpt lat="43.66693" lon="5.77863">
        <ele>453</ele>
        <time>2016-03-19T08:10:37.141Z</time>
      </trkpt>
      <trkpt lat="43.66697" lon="5.77864">
        <ele>453</ele>
        <time>2016-03-19T08:10:38.111Z</time>
      </trkpt>
      <trkpt lat="43.66701" lon="5.77866">
        <ele>451</ele>
        <time>2016-03-19T08:10:39.146Z</time>
      </trkpt>
      <trkpt lat="43.66709" lon="5.77868">
        <ele>451</ele>
        <time>2016-03-19T08:10:40.105Z</time>
      </trkpt>
      <trkpt lat="43.66712" lon="5.77874">
        <ele>451</ele>
        <time>2016-03-19T08:10:41.143Z</time>
      </trkpt>
      <trkpt lat="43.66716" lon="5.77879">
        <ele>450</ele>
        <time>2016-03-19T08:10:42.110Z</time>
      </trkpt>
      <trkpt lat="43.66725" lon="5.77882">
        <ele>448</ele>
        <time>2016-03-19T08:10:45.135Z</time>
      </trkpt>
      <trkpt lat="43.66726" lon="5.77881">
        <ele>448</ele>
        <time>2016-03-19T08:10:46.135Z</time>
      </trkpt>
      <trkpt lat="43.66733" lon="5.77882">
        <ele>449</ele>
        <time>2016-03-19T08:10:49.150Z</time>
      </trkpt>
      <trkpt lat="43.66736" lon="5.77884">
        <ele>449</ele>
        <time>2016-03-19T08:10:50.110Z</time>
      </trkpt>
      <trkpt lat="43.66741" lon="5.77887">
        <ele>448</ele>
        <time>2016-03-19T08:10:52.139Z</time>
      </trkpt>
      <trkpt lat="43.66744" lon="5.77889">
        <ele>448</ele>
        <time>2016-03-19T08:10:53.113Z</time>
      </trkpt>
      <trkpt lat="43.6675" lon="5.7789">
        <ele>448</ele>
        <time>2016-03-19T08:10:55.135Z</time>
      </trkpt>
      <trkpt lat="43.66753" lon="5.7789">
        <ele>447</ele>
        <time>2016-03-19T08:10:56.114Z</time>
      </trkpt>
      <trkpt lat="43.66759" lon="5.77886">
        <ele>447</ele>
        <time>2016-03-19T08:10:58.140Z</time>
      </trkpt>
      <trkpt lat="43.66761" lon="5.77884">
        <ele>447</ele>
        <time>2016-03-19T08:10:59.113Z</time>
      </trkpt>
      <trkpt lat="43.66768" lon="5.77879">
        <ele>445</ele>
        <time>2016-03-19T08:11:01.138Z</time>
      </trkpt>
      <trkpt lat="43.66774" lon="5.77872">
        <ele>444</ele>
        <time>2016-03-19T08:11:02.114Z</time>
      </trkpt>
      <trkpt lat="43.6678" lon="5.77863">
        <ele>443</ele>
        <time>2016-03-19T08:11:04.182Z</time>
      </trkpt>
      <trkpt lat="43.66781" lon="5.77859">
        <ele>444</ele>
        <time>2016-03-19T08:11:05.112Z</time>
      </trkpt>
      <trkpt lat="43.66779" lon="5.7785">
        <ele>444</ele>
        <time>2016-03-19T08:11:07.164Z</time>
      </trkpt>
      <trkpt lat="43.66777" lon="5.77847">
        <ele>444</ele>
        <time>2016-03-19T08:11:08.114Z</time>
      </trkpt>
      <trkpt lat="43.66773" lon="5.7784">
        <ele>444</ele>
        <time>2016-03-19T08:11:11.128Z</time>
      </trkpt>
      <trkpt lat="43.66773" lon="5.77835">
        <ele>442</ele>
        <time>2016-03-19T08:11:12.114Z</time>
      </trkpt>
      <trkpt lat="43.66772" lon="5.77827">
        <ele>439</ele>
        <time>2016-03-19T08:11:14.140Z</time>
      </trkpt>
      <trkpt lat="43.66772" lon="5.77822">
        <ele>441</ele>
        <time>2016-03-19T08:11:15.112Z</time>
      </trkpt>
      <trkpt lat="43.66773" lon="5.77817">
        <ele>441</ele>
        <time>2016-03-19T08:11:16.141Z</time>
      </trkpt>
      <trkpt lat="43.66777" lon="5.7781">
        <ele>440</ele>
        <time>2016-03-19T08:11:17.115Z</time>
      </trkpt>
      <trkpt lat="43.66785" lon="5.77804">
        <ele>440</ele>
        <time>2016-03-19T08:11:19.139Z</time>
      </trkpt>
      <trkpt lat="43.6679" lon="5.77802">
        <ele>440</ele>
        <time>2016-03-19T08:11:20.113Z</time>
      </trkpt>
      <trkpt lat="43.66795" lon="5.77801">
        <ele>439</ele>
        <time>2016-03-19T08:11:21.138Z</time>
      </trkpt>
      <trkpt lat="43.668" lon="5.778">
        <ele>439</ele>
        <time>2016-03-19T08:11:22.113Z</time>
      </trkpt>
      <trkpt lat="43.66804" lon="5.77798">
        <ele>439</ele>
        <time>2016-03-19T08:11:23.139Z</time>
      </trkpt>
      <trkpt lat="43.66808" lon="5.77794">
        <ele>439</ele>
        <time>2016-03-19T08:11:24.125Z</time>
      </trkpt>
      <trkpt lat="43.66813" lon="5.77786">
        <ele>439</ele>
        <time>2016-03-19T08:11:26.139Z</time>
      </trkpt>
      <trkpt lat="43.66815" lon="5.77785">
        <ele>439</ele>
        <time>2016-03-19T08:11:27.115Z</time>
      </trkpt>
      <trkpt lat="43.66809" lon="5.7779">
        <ele>438</ele>
        <time>2016-03-19T08:11:56.138Z</time>
      </trkpt>
      <trkpt lat="43.66807" lon="5.77793">
        <ele>437</ele>
        <time>2016-03-19T08:11:57.115Z</time>
      </trkpt>
      <trkpt lat="43.668" lon="5.77797">
        <ele>437</ele>
        <time>2016-03-19T08:12:00.149Z</time>
      </trkpt>
      <trkpt lat="43.66798" lon="5.77798">
        <ele>437</ele>
        <time>2016-03-19T08:12:01.137Z</time>
      </trkpt>
      <trkpt lat="43.6679" lon="5.77799">
        <ele>437</ele>
        <time>2016-03-19T08:12:04.150Z</time>
      </trkpt>
      <trkpt lat="43.66787" lon="5.77799">
        <ele>437</ele>
        <time>2016-03-19T08:12:05.132Z</time>
      </trkpt>
      <trkpt lat="43.66779" lon="5.77801">
        <ele>437</ele>
        <time>2016-03-19T08:12:09.357Z</time>
      </trkpt>
      <trkpt lat="43.66778" lon="5.77802">
        <ele>437</ele>
        <time>2016-03-19T08:12:10.110Z</time>
      </trkpt>
      <trkpt lat="43.6677" lon="5.77805">
        <ele>437</ele>
        <time>2016-03-19T08:12:14.139Z</time>
      </trkpt>
      <trkpt lat="43.66768" lon="5.77804">
        <ele>437</ele>
        <time>2016-03-19T08:12:15.113Z</time>
      </trkpt>
      <trkpt lat="43.66761" lon="5.77797">
        <ele>437</ele>
        <time>2016-03-19T08:12:19.138Z</time>
      </trkpt>
      <trkpt lat="43.6676" lon="5.77794">
        <ele>437</ele>
        <time>2016-03-19T08:12:20.112Z</time>
      </trkpt>
      <trkpt lat="43.66756" lon="5.77786">
        <ele>438</ele>
        <time>2016-03-19T08:12:23.139Z</time>
      </trkpt>
      <trkpt lat="43.66755" lon="5.77782">
        <ele>438</ele>
        <time>2016-03-19T08:12:24.113Z</time>
      </trkpt>
      <trkpt lat="43.66751" lon="5.77771">
        <ele>438</ele>
        <time>2016-03-19T08:12:27.151Z</time>
      </trkpt>
      <trkpt lat="43.6675" lon="5.77768">
        <ele>438</ele>
        <time>2016-03-19T08:12:28.111Z</time>
      </trkpt>
      <trkpt lat="43.66749" lon="5.77759">
        <ele>437</ele>
        <time>2016-03-19T08:12:30.134Z</time>
      </trkpt>
      <trkpt lat="43.66748" lon="5.77755">
        <ele>437</ele>
        <time>2016-03-19T08:12:31.110Z</time>
      </trkpt>
      <trkpt lat="43.66746" lon="5.77746">
        <ele>437</ele>
        <time>2016-03-19T08:12:33.386Z</time>
      </trkpt>
      <trkpt lat="43.66745" lon="5.77742">
        <ele>436</ele>
        <time>2016-03-19T08:12:34.113Z</time>
      </trkpt>
      <trkpt lat="43.66744" lon="5.77731">
        <ele>435</ele>
        <time>2016-03-19T08:12:37.137Z</time>
      </trkpt>
      <trkpt lat="43.66745" lon="5.77728">
        <ele>436</ele>
        <time>2016-03-19T08:12:38.114Z</time>
      </trkpt>
      <trkpt lat="43.66747" lon="5.77719">
        <ele>436</ele>
        <time>2016-03-19T08:12:41.138Z</time>
      </trkpt>
      <trkpt lat="43.66748" lon="5.77716">
        <ele>436</ele>
        <time>2016-03-19T08:12:42.113Z</time>
      </trkpt>
      <trkpt lat="43.66752" lon="5.77709">
        <ele>436</ele>
        <time>2016-03-19T08:12:44.149Z</time>
      </trkpt>
      <trkpt lat="43.66754" lon="5.77704">
        <ele>435</ele>
        <time>2016-03-19T08:12:45.114Z</time>
      </trkpt>
      <trkpt lat="43.66758" lon="5.77694">
        <ele>435</ele>
        <time>2016-03-19T08:12:47.129Z</time>
      </trkpt>
      <trkpt lat="43.6676" lon="5.77686">
        <ele>436</ele>
        <time>2016-03-19T08:12:48.110Z</time>
      </trkpt>
      <trkpt lat="43.66761" lon="5.77675">
        <ele>435</ele>
        <time>2016-03-19T08:12:50.138Z</time>
      </trkpt>
      <trkpt lat="43.66761" lon="5.77674">
        <ele>435</ele>
        <time>2016-03-19T08:12:51.113Z</time>
      </trkpt>
      <trkpt lat="43.66761" lon="5.77662">
        <ele>436</ele>
        <time>2016-03-19T08:12:54.149Z</time>
      </trkpt>
      <trkpt lat="43.66762" lon="5.77657">
        <ele>436</ele>
        <time>2016-03-19T08:12:55.114Z</time>
      </trkpt>
      <trkpt lat="43.66762" lon="5.77648">
        <ele>436</ele>
        <time>2016-03-19T08:12:57.137Z</time>
      </trkpt>
      <trkpt lat="43.66761" lon="5.77644">
        <ele>436</ele>
        <time>2016-03-19T08:12:58.114Z</time>
      </trkpt>
      <trkpt lat="43.66761" lon="5.77635">
        <ele>436</ele>
        <time>2016-03-19T08:13:00.147Z</time>
      </trkpt>
      <trkpt lat="43.6676" lon="5.77631">
        <ele>436</ele>
        <time>2016-03-19T08:13:01.110Z</time>
      </trkpt>
      <trkpt lat="43.66763" lon="5.77621">
        <ele>435</ele>
        <time>2016-03-19T08:13:12.140Z</time>
      </trkpt>
      <trkpt lat="43.66764" lon="5.7762">
        <ele>434</ele>
        <time>2016-03-19T08:13:13.113Z</time>
      </trkpt>
      <trkpt lat="43.66768" lon="5.7761">
        <ele>434</ele>
        <time>2016-03-19T08:13:16.124Z</time>
      </trkpt>
      <trkpt lat="43.6677" lon="5.77606">
        <ele>434</ele>
        <time>2016-03-19T08:13:17.117Z</time>
      </trkpt>
      <trkpt lat="43.66775" lon="5.77598">
        <ele>433</ele>
        <time>2016-03-19T08:13:19.158Z</time>
      </trkpt>
      <trkpt lat="43.66778" lon="5.77593">
        <ele>433</ele>
        <time>2016-03-19T08:13:20.113Z</time>
      </trkpt>
      <trkpt lat="43.66783" lon="5.77584">
        <ele>432</ele>
        <time>2016-03-19T08:13:22.150Z</time>
      </trkpt>
      <trkpt lat="43.66786" lon="5.77579">
        <ele>431</ele>
        <time>2016-03-19T08:13:23.114Z</time>
      </trkpt>
      <trkpt lat="43.66789" lon="5.77574">
        <ele>431</ele>
        <time>2016-03-19T08:13:24.139Z</time>
      </trkpt>
      <trkpt lat="43.66793" lon="5.77569">
        <ele>430</ele>
        <time>2016-03-19T08:13:25.114Z</time>
      </trkpt>
      <trkpt lat="43.66799" lon="5.7756">
        <ele>430</ele>
        <time>2016-03-19T08:13:27.138Z</time>
      </trkpt>
      <trkpt lat="43.66803" lon="5.77554">
        <ele>429</ele>
        <time>2016-03-19T08:13:28.113Z</time>
      </trkpt>
      <trkpt lat="43.66807" lon="5.77549">
        <ele>428</ele>
        <time>2016-03-19T08:13:29.149Z</time>
      </trkpt>
      <trkpt lat="43.66811" lon="5.77544">
        <ele>428</ele>
        <time>2016-03-19T08:13:30.113Z</time>
      </trkpt>
      <trkpt lat="43.66816" lon="5.77538">
        <ele>427</ele>
        <time>2016-03-19T08:13:31.138Z</time>
      </trkpt>
      <trkpt lat="43.6682" lon="5.77534">
        <ele>427</ele>
        <time>2016-03-19T08:13:32.113Z</time>
      </trkpt>
      <trkpt lat="43.66825" lon="5.77526">
        <ele>425</ele>
        <time>2016-03-19T08:13:33.373Z</time>
      </trkpt>
      <trkpt lat="43.66829" lon="5.7752">
        <ele>425</ele>
        <time>2016-03-19T08:13:34.114Z</time>
      </trkpt>
      <trkpt lat="43.66833" lon="5.77514">
        <ele>425</ele>
        <time>2016-03-19T08:13:35.138Z</time>
      </trkpt>
      <trkpt lat="43.66839" lon="5.77507">
        <ele>425</ele>
        <time>2016-03-19T08:13:36.113Z</time>
      </trkpt>
      <trkpt lat="43.66843" lon="5.77499">
        <ele>424</ele>
        <time>2016-03-19T08:13:37.179Z</time>
      </trkpt>
      <trkpt lat="43.66848" lon="5.77493">
        <ele>422</ele>
        <time>2016-03-19T08:13:38.114Z</time>
      </trkpt>
      <trkpt lat="43.66853" lon="5.77486">
        <ele>422</ele>
        <time>2016-03-19T08:13:39.139Z</time>
      </trkpt>
      <trkpt lat="43.66858" lon="5.7748">
        <ele>421</ele>
        <time>2016-03-19T08:13:40.113Z</time>
      </trkpt>
      <trkpt lat="43.66862" lon="5.77474">
        <ele>420</ele>
        <time>2016-03-19T08:13:41.140Z</time>
      </trkpt>
      <trkpt lat="43.66865" lon="5.7747">
        <ele>419</ele>
        <time>2016-03-19T08:13:42.114Z</time>
      </trkpt>
      <trkpt lat="43.66871" lon="5.77461">
        <ele>418</ele>
        <time>2016-03-19T08:13:44.139Z</time>
      </trkpt>
      <trkpt lat="43.66872" lon="5.77456">
        <ele>417</ele>
        <time>2016-03-19T08:13:45.113Z</time>
      </trkpt>
      <trkpt lat="43.66876" lon="5.77446">
        <ele>416</ele>
        <time>2016-03-19T08:13:48.139Z</time>
      </trkpt>
      <trkpt lat="43.66877" lon="5.77442">
        <ele>415</ele>
        <time>2016-03-19T08:13:49.113Z</time>
      </trkpt>
      <trkpt lat="43.66876" lon="5.77432">
        <ele>415</ele>
        <time>2016-03-19T08:13:51.139Z</time>
      </trkpt>
      <trkpt lat="43.66876" lon="5.77427">
        <ele>414</ele>
        <time>2016-03-19T08:13:52.114Z</time>
      </trkpt>
      <trkpt lat="43.66876" lon="5.77418">
        <ele>413</ele>
        <time>2016-03-19T08:13:54.139Z</time>
      </trkpt>
      <trkpt lat="43.66875" lon="5.77412">
        <ele>413</ele>
        <time>2016-03-19T08:13:55.113Z</time>
      </trkpt>
      <trkpt lat="43.66874" lon="5.77407">
        <ele>412</ele>
        <time>2016-03-19T08:13:56.148Z</time>
      </trkpt>
      <trkpt lat="43.66872" lon="5.77401">
        <ele>411</ele>
        <time>2016-03-19T08:13:57.114Z</time>
      </trkpt>
      <trkpt lat="43.66866" lon="5.77391">
        <ele>410</ele>
        <time>2016-03-19T08:13:59.138Z</time>
      </trkpt>
      <trkpt lat="43.66862" lon="5.77388">
        <ele>409</ele>
        <time>2016-03-19T08:14:00.119Z</time>
      </trkpt>
      <trkpt lat="43.66855" lon="5.77389">
        <ele>409</ele>
        <time>2016-03-19T08:14:01.151Z</time>
      </trkpt>
      <trkpt lat="43.6685" lon="5.77387">
        <ele>408</ele>
        <time>2016-03-19T08:14:02.114Z</time>
      </trkpt>
      <trkpt lat="43.66845" lon="5.77383">
        <ele>408</ele>
        <time>2016-03-19T08:14:03.138Z</time>
      </trkpt>
      <trkpt lat="43.66841" lon="5.7738">
        <ele>407</ele>
        <time>2016-03-19T08:14:04.137Z</time>
      </trkpt>
      <trkpt lat="43.66836" lon="5.77376">
        <ele>407</ele>
        <time>2016-03-19T08:14:05.183Z</time>
      </trkpt>
      <trkpt lat="43.66833" lon="5.77374">
        <ele>407</ele>
        <time>2016-03-19T08:14:06.113Z</time>
      </trkpt>
      <trkpt lat="43.66828" lon="5.7737">
        <ele>407</ele>
        <time>2016-03-19T08:14:07.138Z</time>
      </trkpt>
      <trkpt lat="43.66824" lon="5.77368">
        <ele>406</ele>
        <time>2016-03-19T08:14:08.114Z</time>
      </trkpt>
      <trkpt lat="43.6682" lon="5.77366">
        <ele>406</ele>
        <time>2016-03-19T08:14:09.138Z</time>
      </trkpt>
      <trkpt lat="43.66815" lon="5.77363">
        <ele>406</ele>
        <time>2016-03-19T08:14:10.114Z</time>
      </trkpt>
      <trkpt lat="43.6681" lon="5.7736">
        <ele>406</ele>
        <time>2016-03-19T08:14:11.138Z</time>
      </trkpt>
      <trkpt lat="43.66804" lon="5.77357">
        <ele>405</ele>
        <time>2016-03-19T08:14:12.114Z</time>
      </trkpt>
      <trkpt lat="43.66799" lon="5.77354">
        <ele>405</ele>
        <time>2016-03-19T08:14:13.130Z</time>
      </trkpt>
      <trkpt lat="43.66794" lon="5.77352">
        <ele>405</ele>
        <time>2016-03-19T08:14:14.116Z</time>
      </trkpt>
      <trkpt lat="43.66787" lon="5.77352">
        <ele>405</ele>
        <time>2016-03-19T08:14:15.131Z</time>
      </trkpt>
      <trkpt lat="43.66781" lon="5.77352">
        <ele>404</ele>
        <time>2016-03-19T08:14:16.111Z</time>
      </trkpt>
      <trkpt lat="43.66776" lon="5.77352">
        <ele>404</ele>
        <time>2016-03-19T08:14:17.138Z</time>
      </trkpt>
      <trkpt lat="43.66771" lon="5.77352">
        <ele>404</ele>
        <time>2016-03-19T08:14:18.114Z</time>
      </trkpt>
      <trkpt lat="43.66765" lon="5.77353">
        <ele>404</ele>
        <time>2016-03-19T08:14:19.139Z</time>
      </trkpt>
      <trkpt lat="43.66761" lon="5.77353">
        <ele>403</ele>
        <time>2016-03-19T08:14:20.118Z</time>
      </trkpt>
      <trkpt lat="43.66754" lon="5.77347">
        <ele>402</ele>
        <time>2016-03-19T08:14:22.151Z</time>
      </trkpt>
      <trkpt lat="43.66754" lon="5.77343">
        <ele>403</ele>
        <time>2016-03-19T08:14:23.114Z</time>
      </trkpt>
      <trkpt lat="43.66758" lon="5.77333">
        <ele>405</ele>
        <time>2016-03-19T08:14:27.140Z</time>
      </trkpt>
      <trkpt lat="43.66759" lon="5.77331">
        <ele>405</ele>
        <time>2016-03-19T08:14:28.113Z</time>
      </trkpt>
      <trkpt lat="43.66763" lon="5.7732">
        <ele>406</ele>
        <time>2016-03-19T08:14:33.149Z</time>
      </trkpt>
      <trkpt lat="43.66764" lon="5.77317">
        <ele>406</ele>
        <time>2016-03-19T08:14:34.112Z</time>
      </trkpt>
      <trkpt lat="43.66768" lon="5.77306">
        <ele>407</ele>
        <time>2016-03-19T08:14:38.175Z</time>
      </trkpt>
      <trkpt lat="43.66769" lon="5.77303">
        <ele>407</ele>
        <time>2016-03-19T08:14:39.114Z</time>
      </trkpt>
      <trkpt lat="43.66772" lon="5.77295">
        <ele>409</ele>
        <time>2016-03-19T08:14:41.150Z</time>
      </trkpt>
      <trkpt lat="43.66773" lon="5.77291">
        <ele>407</ele>
        <time>2016-03-19T08:14:42.114Z</time>
      </trkpt>
      <trkpt lat="43.66775" lon="5.77281">
        <ele>407</ele>
        <time>2016-03-19T08:14:44.150Z</time>
      </trkpt>
      <trkpt lat="43.66774" lon="5.77275">
        <ele>406</ele>
        <time>2016-03-19T08:14:45.125Z</time>
      </trkpt>
      <trkpt lat="43.66773" lon="5.77265">
        <ele>405</ele>
        <time>2016-03-19T08:14:47.164Z</time>
      </trkpt>
      <trkpt lat="43.66772" lon="5.7726">
        <ele>405</ele>
        <time>2016-03-19T08:14:48.114Z</time>
      </trkpt>
      <trkpt lat="43.6677" lon="5.77251">
        <ele>405</ele>
        <time>2016-03-19T08:14:50.140Z</time>
      </trkpt>
      <trkpt lat="43.66768" lon="5.77246">
        <ele>405</ele>
        <time>2016-03-19T08:14:51.113Z</time>
      </trkpt>
      <trkpt lat="43.66765" lon="5.77238">
        <ele>405</ele>
        <time>2016-03-19T08:14:53.138Z</time>
      </trkpt>
      <trkpt lat="43.66764" lon="5.77235">
        <ele>405</ele>
        <time>2016-03-19T08:14:54.113Z</time>
      </trkpt>
      <trkpt lat="43.66761" lon="5.77223">
        <ele>405</ele>
        <time>2016-03-19T08:14:57.140Z</time>
      </trkpt>
      <trkpt lat="43.6676" lon="5.77219">
        <ele>405</ele>
        <time>2016-03-19T08:14:58.138Z</time>
      </trkpt>
      <trkpt lat="43.66757" lon="5.77211">
        <ele>406</ele>
        <time>2016-03-19T08:15:00.119Z</time>
      </trkpt>
      <trkpt lat="43.66756" lon="5.77207">
        <ele>406</ele>
        <time>2016-03-19T08:15:01.113Z</time>
      </trkpt>
      <trkpt lat="43.66753" lon="5.772">
        <ele>406</ele>
        <time>2016-03-19T08:15:03.138Z</time>
      </trkpt>
      <trkpt lat="43.66753" lon="5.77195">
        <ele>406</ele>
        <time>2016-03-19T08:15:04.114Z</time>
      </trkpt>
      <trkpt lat="43.66758" lon="5.77185">
        <ele>406</ele>
        <time>2016-03-19T08:15:07.366Z</time>
      </trkpt>
      <trkpt lat="43.6676" lon="5.77183">
        <ele>405</ele>
        <time>2016-03-19T08:15:08.136Z</time>
      </trkpt>
      <trkpt lat="43.66768" lon="5.77181">
        <ele>406</ele>
        <time>2016-03-19T08:15:11.137Z</time>
      </trkpt>
      <trkpt lat="43.66771" lon="5.77181">
        <ele>406</ele>
        <time>2016-03-19T08:15:12.113Z</time>
      </trkpt>
      <trkpt lat="43.66778" lon="5.77178">
        <ele>406</ele>
        <time>2016-03-19T08:15:15.140Z</time>
      </trkpt>
      <trkpt lat="43.6678" lon="5.77177">
        <ele>407</ele>
        <time>2016-03-19T08:15:16.114Z</time>
      </trkpt>
      <trkpt lat="43.66788" lon="5.77172">
        <ele>407</ele>
        <time>2016-03-19T08:15:19.139Z</time>
      </trkpt>
      <trkpt lat="43.6679" lon="5.7717">
        <ele>407</ele>
        <time>2016-03-19T08:15:20.114Z</time>
      </trkpt>
      <trkpt lat="43.66797" lon="5.77164">
        <ele>408</ele>
        <time>2016-03-19T08:15:23.151Z</time>
      </trkpt>
      <trkpt lat="43.66799" lon="5.77161">
        <ele>408</ele>
        <time>2016-03-19T08:15:24.110Z</time>
      </trkpt>
      <trkpt lat="43.66804" lon="5.77153">
        <ele>408</ele>
        <time>2016-03-19T08:15:27.139Z</time>
      </trkpt>
      <trkpt lat="43.66807" lon="5.7715">
        <ele>407</ele>
        <time>2016-03-19T08:15:28.114Z</time>
      </trkpt>
      <trkpt lat="43.66815" lon="5.77149">
        <ele>409</ele>
        <time>2016-03-19T08:15:31.139Z</time>
      </trkpt>
      <trkpt lat="43.66817" lon="5.77151">
        <ele>409</ele>
        <time>2016-03-19T08:15:32.114Z</time>
      </trkpt>
      <trkpt lat="43.66822" lon="5.77159">
        <ele>410</ele>
        <time>2016-03-19T08:15:35.139Z</time>
      </trkpt>
      <trkpt lat="43.66823" lon="5.77162">
        <ele>411</ele>
        <time>2016-03-19T08:15:36.113Z</time>
      </trkpt>
      <trkpt lat="43.66828" lon="5.77169">
        <ele>412</ele>
        <time>2016-03-19T08:15:39.139Z</time>
      </trkpt>
      <trkpt lat="43.6683" lon="5.77172">
        <ele>413</ele>
        <time>2016-03-19T08:15:40.114Z</time>
      </trkpt>
      <trkpt lat="43.66834" lon="5.7718">
        <ele>414</ele>
        <time>2016-03-19T08:15:43.369Z</time>
      </trkpt>
      <trkpt lat="43.66836" lon="5.77182">
        <ele>415</ele>
        <time>2016-03-19T08:15:44.111Z</time>
      </trkpt>
      <trkpt lat="43.66843" lon="5.77188">
        <ele>416</ele>
        <time>2016-03-19T08:15:48.139Z</time>
      </trkpt>
      <trkpt lat="43.66845" lon="5.77189">
        <ele>416</ele>
        <time>2016-03-19T08:15:49.114Z</time>
      </trkpt>
      <trkpt lat="43.66854" lon="5.77189">
        <ele>415</ele>
        <time>2016-03-19T08:15:53.140Z</time>
      </trkpt>
      <trkpt lat="43.66856" lon="5.77189">
        <ele>415</ele>
        <time>2016-03-19T08:15:54.114Z</time>
      </trkpt>
      <trkpt lat="43.66864" lon="5.77187">
        <ele>415</ele>
        <time>2016-03-19T08:15:58.151Z</time>
      </trkpt>
      <trkpt lat="43.66865" lon="5.77187">
        <ele>416</ele>
        <time>2016-03-19T08:15:59.112Z</time>
      </trkpt>
      <trkpt lat="43.66873" lon="5.77186">
        <ele>416</ele>
        <time>2016-03-19T08:16:03.139Z</time>
      </trkpt>
      <trkpt lat="43.66874" lon="5.77186">
        <ele>416</ele>
        <time>2016-03-19T08:16:04.114Z</time>
      </trkpt>
      <trkpt lat="43.66882" lon="5.77184">
        <ele>416</ele>
        <time>2016-03-19T08:16:08.166Z</time>
      </trkpt>
      <trkpt lat="43.66884" lon="5.77184">
        <ele>417</ele>
        <time>2016-03-19T08:16:09.115Z</time>
      </trkpt>
      <trkpt lat="43.66892" lon="5.77182">
        <ele>417</ele>
        <time>2016-03-19T08:16:13.145Z</time>
      </trkpt>
      <trkpt lat="43.66893" lon="5.77182">
        <ele>417</ele>
        <time>2016-03-19T08:16:14.112Z</time>
      </trkpt>
      <trkpt lat="43.66901" lon="5.77178">
        <ele>417</ele>
        <time>2016-03-19T08:16:18.141Z</time>
      </trkpt>
      <trkpt lat="43.66903" lon="5.77177">
        <ele>418</ele>
        <time>2016-03-19T08:16:19.116Z</time>
      </trkpt>
      <trkpt lat="43.66909" lon="5.77172">
        <ele>418</ele>
        <time>2016-03-19T08:16:23.142Z</time>
      </trkpt>
      <trkpt lat="43.6691" lon="5.7717">
        <ele>418</ele>
        <time>2016-03-19T08:16:24.141Z</time>
      </trkpt>
      <trkpt lat="43.66917" lon="5.77163">
        <ele>419</ele>
        <time>2016-03-19T08:16:29.212Z</time>
      </trkpt>
      <trkpt lat="43.66917" lon="5.77161">
        <ele>419</ele>
        <time>2016-03-19T08:16:30.115Z</time>
      </trkpt>
      <trkpt lat="43.6692" lon="5.7715">
        <ele>421</ele>
        <time>2016-03-19T08:16:35.140Z</time>
      </trkpt>
      <trkpt lat="43.6692" lon="5.77147">
        <ele>421</ele>
        <time>2016-03-19T08:16:36.116Z</time>
      </trkpt>
      <trkpt lat="43.66918" lon="5.77137">
        <ele>422</ele>
        <time>2016-03-19T08:16:40.167Z</time>
      </trkpt>
      <trkpt lat="43.66918" lon="5.77135">
        <ele>422</ele>
        <time>2016-03-19T08:16:41.113Z</time>
      </trkpt>
      <trkpt lat="43.66918" lon="5.77124">
        <ele>424</ele>
        <time>2016-03-19T08:16:46.274Z</time>
      </trkpt>
      <trkpt lat="43.66918" lon="5.77122">
        <ele>423</ele>
        <time>2016-03-19T08:16:47.103Z</time>
      </trkpt>
      <trkpt lat="43.66915" lon="5.77112">
        <ele>423</ele>
        <time>2016-03-19T08:16:53.137Z</time>
      </trkpt>
      <trkpt lat="43.66912" lon="5.7711">
        <ele>424</ele>
        <time>2016-03-19T08:16:54.108Z</time>
      </trkpt>
      <trkpt lat="43.66907" lon="5.77103">
        <ele>423</ele>
        <time>2016-03-19T08:16:57.181Z</time>
      </trkpt>
      <trkpt lat="43.66905" lon="5.77101">
        <ele>423</ele>
        <time>2016-03-19T08:16:58.109Z</time>
      </trkpt>
      <trkpt lat="43.66904" lon="5.7709">
        <ele>424</ele>
        <time>2016-03-19T08:17:03.131Z</time>
      </trkpt>
      <trkpt lat="43.66905" lon="5.77087">
        <ele>424</ele>
        <time>2016-03-19T08:17:04.104Z</time>
      </trkpt>
      <trkpt lat="43.66907" lon="5.77078">
        <ele>424</ele>
        <time>2016-03-19T08:17:08.137Z</time>
      </trkpt>
      <trkpt lat="43.66907" lon="5.77075">
        <ele>422</ele>
        <time>2016-03-19T08:17:09.108Z</time>
      </trkpt>
      <trkpt lat="43.66904" lon="5.77069">
        <ele>421</ele>
        <time>2016-03-19T08:17:11.127Z</time>
      </trkpt>
      <trkpt lat="43.669" lon="5.77065">
        <ele>421</ele>
        <time>2016-03-19T08:17:12.104Z</time>
      </trkpt>
      <trkpt lat="43.66894" lon="5.77059">
        <ele>423</ele>
        <time>2016-03-19T08:17:14.130Z</time>
      </trkpt>
      <trkpt lat="43.6689" lon="5.77056">
        <ele>423</ele>
        <time>2016-03-19T08:17:15.191Z</time>
      </trkpt>
      <trkpt lat="43.66885" lon="5.77047">
        <ele>425</ele>
        <time>2016-03-19T08:17:18.126Z</time>
      </trkpt>
      <trkpt lat="43.66886" lon="5.77044">
        <ele>425</ele>
        <time>2016-03-19T08:17:19.105Z</time>
      </trkpt>
      <trkpt lat="43.66891" lon="5.77035">
        <ele>423</ele>
        <time>2016-03-19T08:17:23.122Z</time>
      </trkpt>
      <trkpt lat="43.66891" lon="5.77033">
        <ele>422</ele>
        <time>2016-03-19T08:17:24.107Z</time>
      </trkpt>
      <trkpt lat="43.66895" lon="5.77023">
        <ele>422</ele>
        <time>2016-03-19T08:17:29.129Z</time>
      </trkpt>
      <trkpt lat="43.66896" lon="5.7702">
        <ele>423</ele>
        <time>2016-03-19T08:17:30.104Z</time>
      </trkpt>
      <trkpt lat="43.66892" lon="5.77011">
        <ele>425</ele>
        <time>2016-03-19T08:17:36.156Z</time>
      </trkpt>
      <trkpt lat="43.66893" lon="5.77008">
        <ele>422</ele>
        <time>2016-03-19T08:17:37.104Z</time>
      </trkpt>
      <trkpt lat="43.66894" lon="5.76997">
        <ele>422</ele>
        <time>2016-03-19T08:17:43.129Z</time>
      </trkpt>
      <trkpt lat="43.66895" lon="5.76994">
        <ele>423</ele>
        <time>2016-03-19T08:17:44.109Z</time>
      </trkpt>
      <trkpt lat="43.669" lon="5.76984">
        <ele>425</ele>
        <time>2016-03-19T08:17:48.133Z</time>
      </trkpt>
      <trkpt lat="43.66901" lon="5.76982">
        <ele>429</ele>
        <time>2016-03-19T08:17:49.104Z</time>
      </trkpt>
      <trkpt lat="43.66905" lon="5.76975">
        <ele>430</ele>
        <time>2016-03-19T08:17:53.134Z</time>
      </trkpt>
      <trkpt lat="43.66906" lon="5.76971">
        <ele>429</ele>
        <time>2016-03-19T08:17:54.112Z</time>
      </trkpt>
      <trkpt lat="43.66909" lon="5.76962">
        <ele>429</ele>
        <time>2016-03-19T08:17:57.134Z</time>
      </trkpt>
      <trkpt lat="43.6691" lon="5.76959">
        <ele>429</ele>
        <time>2016-03-19T08:17:58.112Z</time>
      </trkpt>
      <trkpt lat="43.66914" lon="5.7695">
        <ele>432</ele>
        <time>2016-03-19T08:18:02.135Z</time>
      </trkpt>
      <trkpt lat="43.66915" lon="5.76949">
        <ele>433</ele>
        <time>2016-03-19T08:18:03.113Z</time>
      </trkpt>
      <trkpt lat="43.66922" lon="5.76941">
        <ele>434</ele>
        <time>2016-03-19T08:18:08.135Z</time>
      </trkpt>
      <trkpt lat="43.66923" lon="5.76939">
        <ele>434</ele>
        <time>2016-03-19T08:18:09.115Z</time>
      </trkpt>
      <trkpt lat="43.66928" lon="5.76932">
        <ele>433</ele>
        <time>2016-03-19T08:18:12.141Z</time>
      </trkpt>
      <trkpt lat="43.6693" lon="5.7693">
        <ele>433</ele>
        <time>2016-03-19T08:18:13.125Z</time>
      </trkpt>
      <trkpt lat="43.66935" lon="5.76922">
        <ele>434</ele>
        <time>2016-03-19T08:18:17.140Z</time>
      </trkpt>
      <trkpt lat="43.66936" lon="5.7692">
        <ele>434</ele>
        <time>2016-03-19T08:18:18.115Z</time>
      </trkpt>
      <trkpt lat="43.66939" lon="5.76911">
        <ele>433</ele>
        <time>2016-03-19T08:18:22.398Z</time>
      </trkpt>
      <trkpt lat="43.66941" lon="5.76909">
        <ele>432</ele>
        <time>2016-03-19T08:18:23.112Z</time>
      </trkpt>
      <trkpt lat="43.66945" lon="5.76902">
        <ele>433</ele>
        <time>2016-03-19T08:18:26.141Z</time>
      </trkpt>
      <trkpt lat="43.66947" lon="5.769">
        <ele>432</ele>
        <time>2016-03-19T08:18:27.116Z</time>
      </trkpt>
      <trkpt lat="43.66952" lon="5.76893">
        <ele>433</ele>
        <time>2016-03-19T08:18:30.137Z</time>
      </trkpt>
      <trkpt lat="43.66954" lon="5.76891">
        <ele>434</ele>
        <time>2016-03-19T08:18:31.115Z</time>
      </trkpt>
      <trkpt lat="43.66959" lon="5.76884">
        <ele>435</ele>
        <time>2016-03-19T08:18:34.140Z</time>
      </trkpt>
      <trkpt lat="43.66961" lon="5.76882">
        <ele>435</ele>
        <time>2016-03-19T08:18:35.115Z</time>
      </trkpt>
      <trkpt lat="43.66965" lon="5.76875">
        <ele>435</ele>
        <time>2016-03-19T08:18:38.137Z</time>
      </trkpt>
      <trkpt lat="43.66967" lon="5.76872">
        <ele>435</ele>
        <time>2016-03-19T08:18:39.115Z</time>
      </trkpt>
      <trkpt lat="43.66971" lon="5.76862">
        <ele>434</ele>
        <time>2016-03-19T08:18:43.143Z</time>
      </trkpt>
      <trkpt lat="43.66973" lon="5.7686">
        <ele>434</ele>
        <time>2016-03-19T08:18:44.116Z</time>
      </trkpt>
      <trkpt lat="43.66979" lon="5.76852">
        <ele>433</ele>
        <time>2016-03-19T08:18:47.141Z</time>
      </trkpt>
      <trkpt lat="43.66982" lon="5.7685">
        <ele>433</ele>
        <time>2016-03-19T08:18:48.115Z</time>
      </trkpt>
      <trkpt lat="43.66987" lon="5.76843">
        <ele>433</ele>
        <time>2016-03-19T08:18:50.142Z</time>
      </trkpt>
      <trkpt lat="43.66991" lon="5.76839">
        <ele>431</ele>
        <time>2016-03-19T08:18:51.116Z</time>
      </trkpt>
      <trkpt lat="43.66996" lon="5.76829">
        <ele>431</ele>
        <time>2016-03-19T08:18:53.142Z</time>
      </trkpt>
      <trkpt lat="43.66999" lon="5.76825">
        <ele>430</ele>
        <time>2016-03-19T08:18:54.113Z</time>
      </trkpt>
      <trkpt lat="43.67002" lon="5.76821">
        <ele>430</ele>
        <time>2016-03-19T08:18:55.143Z</time>
      </trkpt>
      <trkpt lat="43.67006" lon="5.76816">
        <ele>430</ele>
        <time>2016-03-19T08:18:56.115Z</time>
      </trkpt>
      <trkpt lat="43.67013" lon="5.7681">
        <ele>430</ele>
        <time>2016-03-19T08:18:58.360Z</time>
      </trkpt>
      <trkpt lat="43.67017" lon="5.76809">
        <ele>430</ele>
        <time>2016-03-19T08:18:59.115Z</time>
      </trkpt>
      <trkpt lat="43.67025" lon="5.76805">
        <ele>430</ele>
        <time>2016-03-19T08:19:01.142Z</time>
      </trkpt>
      <trkpt lat="43.67028" lon="5.76804">
        <ele>430</ele>
        <time>2016-03-19T08:19:02.116Z</time>
      </trkpt>
      <trkpt lat="43.67036" lon="5.76801">
        <ele>432</ele>
        <time>2016-03-19T08:19:04.142Z</time>
      </trkpt>
      <trkpt lat="43.67038" lon="5.768">
        <ele>432</ele>
        <time>2016-03-19T08:19:05.115Z</time>
      </trkpt>
      <trkpt lat="43.67045" lon="5.76796">
        <ele>431</ele>
        <time>2016-03-19T08:19:07.140Z</time>
      </trkpt>
      <trkpt lat="43.67049" lon="5.76794">
        <ele>431</ele>
        <time>2016-03-19T08:19:08.114Z</time>
      </trkpt>
      <trkpt lat="43.67053" lon="5.76791">
        <ele>430</ele>
        <time>2016-03-19T08:19:09.141Z</time>
      </trkpt>
      <trkpt lat="43.67057" lon="5.76789">
        <ele>430</ele>
        <time>2016-03-19T08:19:10.366Z</time>
      </trkpt>
      <trkpt lat="43.67061" lon="5.76786">
        <ele>430</ele>
        <time>2016-03-19T08:19:11.141Z</time>
      </trkpt>
      <trkpt lat="43.67066" lon="5.76782">
        <ele>430</ele>
        <time>2016-03-19T08:19:12.115Z</time>
      </trkpt>
      <trkpt lat="43.67072" lon="5.76775">
        <ele>429</ele>
        <time>2016-03-19T08:19:14.141Z</time>
      </trkpt>
      <trkpt lat="43.67076" lon="5.76772">
        <ele>428</ele>
        <time>2016-03-19T08:19:15.115Z</time>
      </trkpt>
      <trkpt lat="43.67082" lon="5.76766">
        <ele>428</ele>
        <time>2016-03-19T08:19:17.140Z</time>
      </trkpt>
      <trkpt lat="43.67084" lon="5.76765">
        <ele>428</ele>
        <time>2016-03-19T08:19:18.115Z</time>
      </trkpt>
      <trkpt lat="43.67089" lon="5.76759">
        <ele>428</ele>
        <time>2016-03-19T08:19:20.140Z</time>
      </trkpt>
      <trkpt lat="43.67092" lon="5.76755">
        <ele>428</ele>
        <time>2016-03-19T08:19:21.140Z</time>
      </trkpt>
      <trkpt lat="43.67097" lon="5.76749">
        <ele>429</ele>
        <time>2016-03-19T08:19:23.142Z</time>
      </trkpt>
      <trkpt lat="43.67099" lon="5.76746">
        <ele>429</ele>
        <time>2016-03-19T08:19:24.116Z</time>
      </trkpt>
      <trkpt lat="43.67104" lon="5.76739">
        <ele>429</ele>
        <time>2016-03-19T08:19:26.143Z</time>
      </trkpt>
      <trkpt lat="43.67106" lon="5.76735">
        <ele>428</ele>
        <time>2016-03-19T08:19:27.115Z</time>
      </trkpt>
      <trkpt lat="43.67109" lon="5.76726">
        <ele>428</ele>
        <time>2016-03-19T08:19:29.140Z</time>
      </trkpt>
      <trkpt lat="43.67109" lon="5.7672">
        <ele>427</ele>
        <time>2016-03-19T08:19:30.116Z</time>
      </trkpt>
      <trkpt lat="43.67106" lon="5.7671">
        <ele>426</ele>
        <time>2016-03-19T08:19:32.141Z</time>
      </trkpt>
      <trkpt lat="43.67103" lon="5.76705">
        <ele>426</ele>
        <time>2016-03-19T08:19:33.114Z</time>
      </trkpt>
      <trkpt lat="43.67099" lon="5.76697">
        <ele>425</ele>
        <time>2016-03-19T08:19:35.139Z</time>
      </trkpt>
      <trkpt lat="43.67096" lon="5.76693">
        <ele>425</ele>
        <time>2016-03-19T08:19:36.115Z</time>
      </trkpt>
      <trkpt lat="43.67093" lon="5.76685">
        <ele>425</ele>
        <time>2016-03-19T08:19:38.140Z</time>
      </trkpt>
      <trkpt lat="43.6709" lon="5.76681">
        <ele>424</ele>
        <time>2016-03-19T08:19:39.116Z</time>
      </trkpt>
      <trkpt lat="43.67084" lon="5.76676">
        <ele>423</ele>
        <time>2016-03-19T08:19:41.146Z</time>
      </trkpt>
      <trkpt lat="43.67081" lon="5.76675">
        <ele>424</ele>
        <time>2016-03-19T08:19:42.116Z</time>
      </trkpt>
      <trkpt lat="43.67077" lon="5.76666">
        <ele>421</ele>
        <time>2016-03-19T08:20:16.153Z</time>
      </trkpt>
      <trkpt lat="43.67077" lon="5.76663">
        <ele>421</ele>
        <time>2016-03-19T08:20:17.115Z</time>
      </trkpt>
      <trkpt lat="43.67075" lon="5.76651">
        <ele>419</ele>
        <time>2016-03-19T08:20:22.139Z</time>
      </trkpt>
      <trkpt lat="43.67073" lon="5.76649">
        <ele>418</ele>
        <time>2016-03-19T08:20:23.113Z</time>
      </trkpt>
      <trkpt lat="43.67069" lon="5.76641">
        <ele>418</ele>
        <time>2016-03-19T08:20:26.142Z</time>
      </trkpt>
      <trkpt lat="43.67066" lon="5.76635">
        <ele>416</ele>
        <time>2016-03-19T08:20:27.116Z</time>
      </trkpt>
      <trkpt lat="43.67061" lon="5.76627">
        <ele>415</ele>
        <time>2016-03-19T08:20:29.153Z</time>
      </trkpt>
      <trkpt lat="43.67059" lon="5.76625">
        <ele>415</ele>
        <time>2016-03-19T08:20:30.117Z</time>
      </trkpt>
      <trkpt lat="43.67055" lon="5.76614">
        <ele>412</ele>
        <time>2016-03-19T08:20:40.141Z</time>
      </trkpt>
      <trkpt lat="43.67054" lon="5.7661">
        <ele>411</ele>
        <time>2016-03-19T08:20:41.143Z</time>
      </trkpt>
      <trkpt lat="43.6705" lon="5.76603">
        <ele>410</ele>
        <time>2016-03-19T08:20:43.142Z</time>
      </trkpt>
      <trkpt lat="43.67047" lon="5.76601">
        <ele>410</ele>
        <time>2016-03-19T08:20:44.126Z</time>
      </trkpt>
      <trkpt lat="43.6704" lon="5.76605">
        <ele>411</ele>
        <time>2016-03-19T08:20:54.141Z</time>
      </trkpt>
      <trkpt lat="43.67039" lon="5.76606">
        <ele>411</ele>
        <time>2016-03-19T08:20:55.116Z</time>
      </trkpt>
      <trkpt lat="43.67033" lon="5.76605">
        <ele>409</ele>
        <time>2016-03-19T08:21:04.377Z</time>
      </trkpt>
      <trkpt lat="43.6703" lon="5.76604">
        <ele>409</ele>
        <time>2016-03-19T08:21:05.115Z</time>
      </trkpt>
      <trkpt lat="43.67022" lon="5.766">
        <ele>409</ele>
        <time>2016-03-19T08:21:07.142Z</time>
      </trkpt>
      <trkpt lat="43.67018" lon="5.76599">
        <ele>409</ele>
        <time>2016-03-19T08:21:08.118Z</time>
      </trkpt>
      <trkpt lat="43.6701" lon="5.76599">
        <ele>408</ele>
        <time>2016-03-19T08:21:10.142Z</time>
      </trkpt>
      <trkpt lat="43.67007" lon="5.766">
        <ele>408</ele>
        <time>2016-03-19T08:21:11.114Z</time>
      </trkpt>
      <trkpt lat="43.67001" lon="5.76608">
        <ele>408</ele>
        <time>2016-03-19T08:21:15.140Z</time>
      </trkpt>
      <trkpt lat="43.66999" lon="5.76609">
        <ele>407</ele>
        <time>2016-03-19T08:21:16.115Z</time>
      </trkpt>
      <trkpt lat="43.66992" lon="5.766">
        <ele>407</ele>
        <time>2016-03-19T08:21:25.140Z</time>
      </trkpt>
      <trkpt lat="43.66991" lon="5.76598">
        <ele>408</ele>
        <time>2016-03-19T08:21:26.128Z</time>
      </trkpt>
      <trkpt lat="43.6699" lon="5.76589">
        <ele>410</ele>
        <time>2016-03-19T08:21:29.165Z</time>
      </trkpt>
      <trkpt lat="43.6699" lon="5.76586">
        <ele>409</ele>
        <time>2016-03-19T08:21:30.116Z</time>
      </trkpt>
      <trkpt lat="43.66988" lon="5.76575">
        <ele>410</ele>
        <time>2016-03-19T08:21:33.142Z</time>
      </trkpt>
      <trkpt lat="43.66988" lon="5.76572">
        <ele>409</ele>
        <time>2016-03-19T08:21:34.142Z</time>
      </trkpt>
      <trkpt lat="43.66988" lon="5.76562">
        <ele>410</ele>
        <time>2016-03-19T08:21:37.142Z</time>
      </trkpt>
      <trkpt lat="43.66987" lon="5.76559">
        <ele>409</ele>
        <time>2016-03-19T08:21:38.127Z</time>
      </trkpt>
      <trkpt lat="43.66988" lon="5.76548">
        <ele>409</ele>
        <time>2016-03-19T08:21:43.141Z</time>
      </trkpt>
      <trkpt lat="43.66989" lon="5.76546">
        <ele>410</ele>
        <time>2016-03-19T08:21:44.115Z</time>
      </trkpt>
      <trkpt lat="43.6699" lon="5.76534">
        <ele>410</ele>
        <time>2016-03-19T08:21:49.141Z</time>
      </trkpt>
      <trkpt lat="43.6699" lon="5.76532">
        <ele>409</ele>
        <time>2016-03-19T08:21:50.143Z</time>
      </trkpt>
      <trkpt lat="43.66988" lon="5.76521">
        <ele>409</ele>
        <time>2016-03-19T08:21:56.142Z</time>
      </trkpt>
      <trkpt lat="43.66986" lon="5.76521">
        <ele>410</ele>
        <time>2016-03-19T08:21:57.116Z</time>
      </trkpt>
      <trkpt lat="43.66977" lon="5.76525">
        <ele>410</ele>
        <time>2016-03-19T08:22:01.169Z</time>
      </trkpt>
      <trkpt lat="43.66974" lon="5.76526">
        <ele>410</ele>
        <time>2016-03-19T08:22:02.116Z</time>
      </trkpt>
      <trkpt lat="43.66967" lon="5.76527">
        <ele>409</ele>
        <time>2016-03-19T08:22:05.369Z</time>
      </trkpt>
      <trkpt lat="43.66965" lon="5.76527">
        <ele>410</ele>
        <time>2016-03-19T08:22:06.127Z</time>
      </trkpt>
      <trkpt lat="43.66956" lon="5.76527">
        <ele>410</ele>
        <time>2016-03-19T08:22:10.143Z</time>
      </trkpt>
      <trkpt lat="43.66954" lon="5.76527">
        <ele>410</ele>
        <time>2016-03-19T08:22:11.127Z</time>
      </trkpt>
      <trkpt lat="43.66947" lon="5.76523">
        <ele>409</ele>
        <time>2016-03-19T08:22:14.140Z</time>
      </trkpt>
      <trkpt lat="43.66945" lon="5.76522">
        <ele>409</ele>
        <time>2016-03-19T08:22:15.115Z</time>
      </trkpt>
      <trkpt lat="43.66938" lon="5.76515">
        <ele>408</ele>
        <time>2016-03-19T08:22:19.143Z</time>
      </trkpt>
      <trkpt lat="43.66937" lon="5.76514">
        <ele>409</ele>
        <time>2016-03-19T08:22:20.116Z</time>
      </trkpt>
      <trkpt lat="43.6693" lon="5.76507">
        <ele>411</ele>
        <time>2016-03-19T08:22:26.205Z</time>
      </trkpt>
      <trkpt lat="43.6693" lon="5.76505">
        <ele>410</ele>
        <time>2016-03-19T08:22:27.112Z</time>
      </trkpt>
      <trkpt lat="43.66931" lon="5.76493">
        <ele>414</ele>
        <time>2016-03-19T08:22:34.141Z</time>
      </trkpt>
      <trkpt lat="43.66931" lon="5.76492">
        <ele>413</ele>
        <time>2016-03-19T08:22:35.116Z</time>
      </trkpt>
      <trkpt lat="43.66936" lon="5.76482">
        <ele>411</ele>
        <time>2016-03-19T08:27:31.159Z</time>
      </trkpt>
      <trkpt lat="43.66937" lon="5.7648">
        <ele>412</ele>
        <time>2016-03-19T08:27:32.116Z</time>
      </trkpt>
      <trkpt lat="43.66942" lon="5.76471">
        <ele>415</ele>
        <time>2016-03-19T08:27:38.139Z</time>
      </trkpt>
      <trkpt lat="43.66942" lon="5.76469">
        <ele>416</ele>
        <time>2016-03-19T08:27:39.116Z</time>
      </trkpt>
      <trkpt lat="43.66946" lon="5.76459">
        <ele>418</ele>
        <time>2016-03-19T08:27:45.142Z</time>
      </trkpt>
      <trkpt lat="43.66947" lon="5.76457">
        <ele>418</ele>
        <time>2016-03-19T08:27:46.113Z</time>
      </trkpt>
      <trkpt lat="43.6695" lon="5.76447">
        <ele>420</ele>
        <time>2016-03-19T08:27:51.135Z</time>
      </trkpt>
      <trkpt lat="43.66951" lon="5.76445">
        <ele>421</ele>
        <time>2016-03-19T08:27:52.115Z</time>
      </trkpt>
      <trkpt lat="43.66955" lon="5.76435">
        <ele>421</ele>
        <time>2016-03-19T08:27:58.203Z</time>
      </trkpt>
      <trkpt lat="43.66955" lon="5.76434">
        <ele>421</ele>
        <time>2016-03-19T08:27:59.115Z</time>
      </trkpt>
      <trkpt lat="43.66958" lon="5.76422">
        <ele>422</ele>
        <time>2016-03-19T08:28:05.143Z</time>
      </trkpt>
      <trkpt lat="43.66958" lon="5.76421">
        <ele>422</ele>
        <time>2016-03-19T08:28:06.116Z</time>
      </trkpt>
      <trkpt lat="43.66962" lon="5.7641">
        <ele>425</ele>
        <time>2016-03-19T08:28:12.141Z</time>
      </trkpt>
      <trkpt lat="43.66962" lon="5.76408">
        <ele>425</ele>
        <time>2016-03-19T08:28:13.124Z</time>
      </trkpt>
      <trkpt lat="43.66965" lon="5.76396">
        <ele>427</ele>
        <time>2016-03-19T08:28:20.192Z</time>
      </trkpt>
      <trkpt lat="43.66965" lon="5.76395">
        <ele>427</ele>
        <time>2016-03-19T08:28:21.116Z</time>
      </trkpt>
      <trkpt lat="43.66968" lon="5.76383">
        <ele>430</ele>
        <time>2016-03-19T08:28:30.141Z</time>
      </trkpt>
      <trkpt lat="43.66968" lon="5.76382">
        <ele>430</ele>
        <time>2016-03-19T08:28:31.117Z</time>
      </trkpt>
      <trkpt lat="43.6697" lon="5.7637">
        <ele>432</ele>
        <time>2016-03-19T08:28:39.206Z</time>
      </trkpt>
      <trkpt lat="43.6697" lon="5.76369">
        <ele>432</ele>
        <time>2016-03-19T08:28:40.117Z</time>
      </trkpt>
      <trkpt lat="43.66974" lon="5.76358">
        <ele>435</ele>
        <time>2016-03-19T08:28:48.141Z</time>
      </trkpt>
      <trkpt lat="43.66974" lon="5.76357">
        <ele>435</ele>
        <time>2016-03-19T08:28:49.117Z</time>
      </trkpt>
      <trkpt lat="43.66977" lon="5.76347">
        <ele>436</ele>
        <time>2016-03-19T08:28:56.143Z</time>
      </trkpt>
      <trkpt lat="43.66977" lon="5.76345">
        <ele>436</ele>
        <time>2016-03-19T08:28:57.117Z</time>
      </trkpt>
      <trkpt lat="43.66979" lon="5.76335">
        <ele>438</ele>
        <time>2016-03-19T08:29:04.142Z</time>
      </trkpt>
      <trkpt lat="43.6698" lon="5.76333">
        <ele>438</ele>
        <time>2016-03-19T08:29:05.117Z</time>
      </trkpt>
      <trkpt lat="43.66982" lon="5.76322">
        <ele>438</ele>
        <time>2016-03-19T08:29:13.142Z</time>
      </trkpt>
      <trkpt lat="43.66982" lon="5.76321">
        <ele>438</ele>
        <time>2016-03-19T08:29:14.117Z</time>
      </trkpt>
      <trkpt lat="43.66983" lon="5.7631">
        <ele>441</ele>
        <time>2016-03-19T08:29:23.143Z</time>
      </trkpt>
      <trkpt lat="43.66983" lon="5.76308">
        <ele>441</ele>
        <time>2016-03-19T08:29:24.117Z</time>
      </trkpt>
      <trkpt lat="43.66978" lon="5.76299">
        <ele>442</ele>
        <time>2016-03-19T08:29:32.142Z</time>
      </trkpt>
      <trkpt lat="43.66977" lon="5.76298">
        <ele>442</ele>
        <time>2016-03-19T08:29:33.118Z</time>
      </trkpt>
      <trkpt lat="43.66969" lon="5.76295">
        <ele>441</ele>
        <time>2016-03-19T08:29:40.194Z</time>
      </trkpt>
      <trkpt lat="43.66967" lon="5.76294">
        <ele>441</ele>
        <time>2016-03-19T08:29:41.114Z</time>
      </trkpt>
      <trkpt lat="43.6696" lon="5.7629">
        <ele>442</ele>
        <time>2016-03-19T08:29:46.143Z</time>
      </trkpt>
      <trkpt lat="43.66959" lon="5.76289">
        <ele>442</ele>
        <time>2016-03-19T08:29:47.116Z</time>
      </trkpt>
      <trkpt lat="43.66951" lon="5.76284">
        <ele>442</ele>
        <time>2016-03-19T08:29:53.142Z</time>
      </trkpt>
      <trkpt lat="43.6695" lon="5.76284">
        <ele>443</ele>
        <time>2016-03-19T08:29:54.116Z</time>
      </trkpt>
      <trkpt lat="43.66942" lon="5.76277">
        <ele>442</ele>
        <time>2016-03-19T08:30:01.141Z</time>
      </trkpt>
      <trkpt lat="43.66941" lon="5.76276">
        <ele>443</ele>
        <time>2016-03-19T08:30:02.119Z</time>
      </trkpt>
      <trkpt lat="43.66934" lon="5.76271">
        <ele>443</ele>
        <time>2016-03-19T08:30:08.143Z</time>
      </trkpt>
      <trkpt lat="43.66933" lon="5.76269">
        <ele>443</ele>
        <time>2016-03-19T08:30:09.118Z</time>
      </trkpt>
      <trkpt lat="43.66927" lon="5.76263">
        <ele>445</ele>
        <time>2016-03-19T08:30:15.142Z</time>
      </trkpt>
      <trkpt lat="43.66926" lon="5.76262">
        <ele>446</ele>
        <time>2016-03-19T08:30:16.129Z</time>
      </trkpt>
      <trkpt lat="43.66919" lon="5.76255">
        <ele>447</ele>
        <time>2016-03-19T08:30:23.140Z</time>
      </trkpt>
      <trkpt lat="43.66918" lon="5.76254">
        <ele>447</ele>
        <time>2016-03-19T08:30:24.118Z</time>
      </trkpt>
      <trkpt lat="43.66909" lon="5.76255">
        <ele>448</ele>
        <time>2016-03-19T08:30:31.142Z</time>
      </trkpt>
      <trkpt lat="43.66907" lon="5.76255">
        <ele>448</ele>
        <time>2016-03-19T08:30:32.117Z</time>
      </trkpt>
      <trkpt lat="43.66899" lon="5.7626">
        <ele>448</ele>
        <time>2016-03-19T08:30:38.141Z</time>
      </trkpt>
      <trkpt lat="43.66898" lon="5.76261">
        <ele>448</ele>
        <time>2016-03-19T08:30:39.117Z</time>
      </trkpt>
      <trkpt lat="43.6689" lon="5.76265">
        <ele>449</ele>
        <time>2016-03-19T08:30:44.148Z</time>
      </trkpt>
      <trkpt lat="43.66888" lon="5.76265">
        <ele>448</ele>
        <time>2016-03-19T08:30:45.123Z</time>
      </trkpt>
      <trkpt lat="43.6688" lon="5.76265">
        <ele>448</ele>
        <time>2016-03-19T08:30:50.137Z</time>
      </trkpt>
      <trkpt lat="43.66879" lon="5.76265">
        <ele>448</ele>
        <time>2016-03-19T08:30:51.114Z</time>
      </trkpt>
      <trkpt lat="43.66871" lon="5.76261">
        <ele>449</ele>
        <time>2016-03-19T08:30:57.140Z</time>
      </trkpt>
      <trkpt lat="43.66869" lon="5.7626">
        <ele>449</ele>
        <time>2016-03-19T08:30:58.118Z</time>
      </trkpt>
      <trkpt lat="43.66863" lon="5.76253">
        <ele>450</ele>
        <time>2016-03-19T08:31:03.143Z</time>
      </trkpt>
      <trkpt lat="43.66862" lon="5.76252">
        <ele>450</ele>
        <time>2016-03-19T08:31:04.146Z</time>
      </trkpt>
      <trkpt lat="43.66855" lon="5.76244">
        <ele>451</ele>
        <time>2016-03-19T08:31:10.379Z</time>
      </trkpt>
      <trkpt lat="43.66854" lon="5.76242">
        <ele>452</ele>
        <time>2016-03-19T08:31:11.118Z</time>
      </trkpt>
      <trkpt lat="43.66848" lon="5.76234">
        <ele>453</ele>
        <time>2016-03-19T08:31:17.142Z</time>
      </trkpt>
      <trkpt lat="43.66848" lon="5.76233">
        <ele>453</ele>
        <time>2016-03-19T08:31:18.119Z</time>
      </trkpt>
      <trkpt lat="43.66842" lon="5.76227">
        <ele>451</ele>
        <time>2016-03-19T08:32:07.151Z</time>
      </trkpt>
      <trkpt lat="43.66841" lon="5.76225">
        <ele>451</ele>
        <time>2016-03-19T08:32:08.141Z</time>
      </trkpt>
      <trkpt lat="43.66834" lon="5.76219">
        <ele>451</ele>
        <time>2016-03-19T08:32:13.151Z</time>
      </trkpt>
      <trkpt lat="43.66833" lon="5.76217">
        <ele>452</ele>
        <time>2016-03-19T08:32:14.129Z</time>
      </trkpt>
      <trkpt lat="43.66827" lon="5.76211">
        <ele>452</ele>
        <time>2016-03-19T08:32:19.151Z</time>
      </trkpt>
      <trkpt lat="43.66825" lon="5.7621">
        <ele>452</ele>
        <time>2016-03-19T08:32:20.118Z</time>
      </trkpt>
      <trkpt lat="43.66819" lon="5.76205">
        <ele>452</ele>
        <time>2016-03-19T08:32:23.143Z</time>
      </trkpt>
      <trkpt lat="43.66817" lon="5.76203">
        <ele>452</ele>
        <time>2016-03-19T08:32:24.115Z</time>
      </trkpt>
      <trkpt lat="43.66813" lon="5.76197">
        <ele>452</ele>
        <time>2016-03-19T08:32:26.144Z</time>
      </trkpt>
      <trkpt lat="43.6681" lon="5.76194">
        <ele>451</ele>
        <time>2016-03-19T08:32:27.115Z</time>
      </trkpt>
      <trkpt lat="43.66805" lon="5.76184">
        <ele>450</ele>
        <time>2016-03-19T08:32:29.143Z</time>
      </trkpt>
      <trkpt lat="43.66803" lon="5.76179">
        <ele>450</ele>
        <time>2016-03-19T08:32:30.352Z</time>
      </trkpt>
      <trkpt lat="43.66802" lon="5.7617">
        <ele>450</ele>
        <time>2016-03-19T08:32:31.125Z</time>
      </trkpt>
      <trkpt lat="43.66801" lon="5.76162">
        <ele>449</ele>
        <time>2016-03-19T08:32:32.113Z</time>
      </trkpt>
      <trkpt lat="43.668" lon="5.76154">
        <ele>450</ele>
        <time>2016-03-19T08:32:33.143Z</time>
      </trkpt>
      <trkpt lat="43.66798" lon="5.76146">
        <ele>449</ele>
        <time>2016-03-19T08:32:34.118Z</time>
      </trkpt>
      <trkpt lat="43.66798" lon="5.76137">
        <ele>449</ele>
        <time>2016-03-19T08:32:35.162Z</time>
      </trkpt>
      <trkpt lat="43.66797" lon="5.76128">
        <ele>449</ele>
        <time>2016-03-19T08:32:36.115Z</time>
      </trkpt>
      <trkpt lat="43.66796" lon="5.76119">
        <ele>449</ele>
        <time>2016-03-19T08:32:37.134Z</time>
      </trkpt>
      <trkpt lat="43.66795" lon="5.76111">
        <ele>449</ele>
        <time>2016-03-19T08:32:38.114Z</time>
      </trkpt>
      <trkpt lat="43.66795" lon="5.76103">
        <ele>449</ele>
        <time>2016-03-19T08:32:39.139Z</time>
      </trkpt>
      <trkpt lat="43.66794" lon="5.76094">
        <ele>449</ele>
        <time>2016-03-19T08:32:40.114Z</time>
      </trkpt>
      <trkpt lat="43.66793" lon="5.76086">
        <ele>449</ele>
        <time>2016-03-19T08:32:41.331Z</time>
      </trkpt>
      <trkpt lat="43.66792" lon="5.76078">
        <ele>448</ele>
        <time>2016-03-19T08:32:42.116Z</time>
      </trkpt>
      <trkpt lat="43.66791" lon="5.76068">
        <ele>448</ele>
        <time>2016-03-19T08:32:43.138Z</time>
      </trkpt>
      <trkpt lat="43.66791" lon="5.7606">
        <ele>448</ele>
        <time>2016-03-19T08:32:44.116Z</time>
      </trkpt>
      <trkpt lat="43.6679" lon="5.76051">
        <ele>448</ele>
        <time>2016-03-19T08:32:45.138Z</time>
      </trkpt>
      <trkpt lat="43.66789" lon="5.76043">
        <ele>449</ele>
        <time>2016-03-19T08:32:46.141Z</time>
      </trkpt>
      <trkpt lat="43.66787" lon="5.76036">
        <ele>449</ele>
        <time>2016-03-19T08:32:47.139Z</time>
      </trkpt>
      <trkpt lat="43.66786" lon="5.7603">
        <ele>449</ele>
        <time>2016-03-19T08:32:48.117Z</time>
      </trkpt>
      <trkpt lat="43.66784" lon="5.76024">
        <ele>449</ele>
        <time>2016-03-19T08:32:49.139Z</time>
      </trkpt>
      <trkpt lat="43.66782" lon="5.76018">
        <ele>448</ele>
        <time>2016-03-19T08:32:50.115Z</time>
      </trkpt>
      <trkpt lat="43.66779" lon="5.76008">
        <ele>448</ele>
        <time>2016-03-19T08:32:52.329Z</time>
      </trkpt>
      <trkpt lat="43.66776" lon="5.76003">
        <ele>448</ele>
        <time>2016-03-19T08:32:53.113Z</time>
      </trkpt>
      <trkpt lat="43.66773" lon="5.75994">
        <ele>448</ele>
        <time>2016-03-19T08:32:55.144Z</time>
      </trkpt>
      <trkpt lat="43.66771" lon="5.75987">
        <ele>448</ele>
        <time>2016-03-19T08:32:56.113Z</time>
      </trkpt>
      <trkpt lat="43.6677" lon="5.75978">
        <ele>447</ele>
        <time>2016-03-19T08:32:58.139Z</time>
      </trkpt>
      <trkpt lat="43.66769" lon="5.75972">
        <ele>446</ele>
        <time>2016-03-19T08:32:59.117Z</time>
      </trkpt>
      <trkpt lat="43.66769" lon="5.75962">
        <ele>447</ele>
        <time>2016-03-19T08:33:01.138Z</time>
      </trkpt>
      <trkpt lat="43.66769" lon="5.75957">
        <ele>447</ele>
        <time>2016-03-19T08:33:02.149Z</time>
      </trkpt>
      <trkpt lat="43.66771" lon="5.75948">
        <ele>447</ele>
        <time>2016-03-19T08:33:04.138Z</time>
      </trkpt>
      <trkpt lat="43.66771" lon="5.75944">
        <ele>447</ele>
        <time>2016-03-19T08:33:05.123Z</time>
      </trkpt>
      <trkpt lat="43.66775" lon="5.75934">
        <ele>448</ele>
        <time>2016-03-19T08:33:09.140Z</time>
      </trkpt>
      <trkpt lat="43.66776" lon="5.75931">
        <ele>448</ele>
        <time>2016-03-19T08:33:10.115Z</time>
      </trkpt>
      <trkpt lat="43.66779" lon="5.75922">
        <ele>448</ele>
        <time>2016-03-19T08:33:13.174Z</time>
      </trkpt>
      <trkpt lat="43.6678" lon="5.75918">
        <ele>448</ele>
        <time>2016-03-19T08:33:14.119Z</time>
      </trkpt>
      <trkpt lat="43.66783" lon="5.75911">
        <ele>448</ele>
        <time>2016-03-19T08:33:16.374Z</time>
      </trkpt>
      <trkpt lat="43.66784" lon="5.75907">
        <ele>448</ele>
        <time>2016-03-19T08:33:17.116Z</time>
      </trkpt>
      <trkpt lat="43.66787" lon="5.75896">
        <ele>449</ele>
        <time>2016-03-19T08:33:20.143Z</time>
      </trkpt>
      <trkpt lat="43.66787" lon="5.75892">
        <ele>449</ele>
        <time>2016-03-19T08:33:21.117Z</time>
      </trkpt>
      <trkpt lat="43.6679" lon="5.7588">
        <ele>450</ele>
        <time>2016-03-19T08:33:24.169Z</time>
      </trkpt>
      <trkpt lat="43.66791" lon="5.75876">
        <ele>450</ele>
        <time>2016-03-19T08:33:25.109Z</time>
      </trkpt>
      <trkpt lat="43.66793" lon="5.75864">
        <ele>451</ele>
        <time>2016-03-19T08:33:28.143Z</time>
      </trkpt>
      <trkpt lat="43.66793" lon="5.7586">
        <ele>451</ele>
        <time>2016-03-19T08:33:29.118Z</time>
      </trkpt>
      <trkpt lat="43.66794" lon="5.7585">
        <ele>450</ele>
        <time>2016-03-19T08:33:41.365Z</time>
      </trkpt>
      <trkpt lat="43.66795" lon="5.75847">
        <ele>450</ele>
        <time>2016-03-19T08:33:42.118Z</time>
      </trkpt>
      <trkpt lat="43.66796" lon="5.75839">
        <ele>450</ele>
        <time>2016-03-19T08:33:45.141Z</time>
      </trkpt>
      <trkpt lat="43.66797" lon="5.75835">
        <ele>450</ele>
        <time>2016-03-19T08:33:46.119Z</time>
      </trkpt>
      <trkpt lat="43.668" lon="5.75824">
        <ele>449</ele>
        <time>2016-03-19T08:33:49.140Z</time>
      </trkpt>
      <trkpt lat="43.66801" lon="5.7582">
        <ele>449</ele>
        <time>2016-03-19T08:33:50.117Z</time>
      </trkpt>
      <trkpt lat="43.66804" lon="5.7581">
        <ele>449</ele>
        <time>2016-03-19T08:33:53.364Z</time>
      </trkpt>
      <trkpt lat="43.66805" lon="5.75807">
        <ele>449</ele>
        <time>2016-03-19T08:33:54.118Z</time>
      </trkpt>
      <trkpt lat="43.6681" lon="5.75796">
        <ele>449</ele>
        <time>2016-03-19T08:33:57.144Z</time>
      </trkpt>
      <trkpt lat="43.66811" lon="5.75793">
        <ele>449</ele>
        <time>2016-03-19T08:33:58.115Z</time>
      </trkpt>
      <trkpt lat="43.66816" lon="5.75784">
        <ele>448</ele>
        <time>2016-03-19T08:34:01.141Z</time>
      </trkpt>
      <trkpt lat="43.66818" lon="5.75781">
        <ele>448</ele>
        <time>2016-03-19T08:34:02.110Z</time>
      </trkpt>
      <trkpt lat="43.66821" lon="5.75773">
        <ele>448</ele>
        <time>2016-03-19T08:34:04.123Z</time>
      </trkpt>
      <trkpt lat="43.66823" lon="5.75768">
        <ele>448</ele>
        <time>2016-03-19T08:34:05.110Z</time>
      </trkpt>
      <trkpt lat="43.66825" lon="5.75758">
        <ele>448</ele>
        <time>2016-03-19T08:34:07.147Z</time>
      </trkpt>
      <trkpt lat="43.66826" lon="5.75753">
        <ele>448</ele>
        <time>2016-03-19T08:34:08.117Z</time>
      </trkpt>
      <trkpt lat="43.66829" lon="5.75744">
        <ele>448</ele>
        <time>2016-03-19T08:34:10.143Z</time>
      </trkpt>
      <trkpt lat="43.6683" lon="5.7574">
        <ele>448</ele>
        <time>2016-03-19T08:34:11.118Z</time>
      </trkpt>
      <trkpt lat="43.66833" lon="5.75732">
        <ele>449</ele>
        <time>2016-03-19T08:34:13.140Z</time>
      </trkpt>
      <trkpt lat="43.66834" lon="5.75728">
        <ele>449</ele>
        <time>2016-03-19T08:34:14.118Z</time>
      </trkpt>
      <trkpt lat="43.66836" lon="5.75716">
        <ele>449</ele>
        <time>2016-03-19T08:34:17.140Z</time>
      </trkpt>
      <trkpt lat="43.66837" lon="5.75712">
        <ele>449</ele>
        <time>2016-03-19T08:34:18.118Z</time>
      </trkpt>
      <trkpt lat="43.66838" lon="5.75704">
        <ele>449</ele>
        <time>2016-03-19T08:34:20.154Z</time>
      </trkpt>
      <trkpt lat="43.66839" lon="5.75699">
        <ele>449</ele>
        <time>2016-03-19T08:34:21.118Z</time>
      </trkpt>
      <trkpt lat="43.6684" lon="5.75691">
        <ele>448</ele>
        <time>2016-03-19T08:34:23.171Z</time>
      </trkpt>
      <trkpt lat="43.66841" lon="5.75686">
        <ele>449</ele>
        <time>2016-03-19T08:34:24.118Z</time>
      </trkpt>
      <trkpt lat="43.66844" lon="5.75678">
        <ele>449</ele>
        <time>2016-03-19T08:34:26.144Z</time>
      </trkpt>
      <trkpt lat="43.66846" lon="5.75674">
        <ele>448</ele>
        <time>2016-03-19T08:34:27.115Z</time>
      </trkpt>
      <trkpt lat="43.66849" lon="5.75665">
        <ele>448</ele>
        <time>2016-03-19T08:34:29.216Z</time>
      </trkpt>
      <trkpt lat="43.66851" lon="5.75661">
        <ele>448</ele>
        <time>2016-03-19T08:34:30.117Z</time>
      </trkpt>
      <trkpt lat="43.66855" lon="5.75652">
        <ele>448</ele>
        <time>2016-03-19T08:34:32.136Z</time>
      </trkpt>
      <trkpt lat="43.66856" lon="5.75647">
        <ele>448</ele>
        <time>2016-03-19T08:34:33.120Z</time>
      </trkpt>
      <trkpt lat="43.66858" lon="5.75641">
        <ele>448</ele>
        <time>2016-03-19T08:34:34.163Z</time>
      </trkpt>
      <trkpt lat="43.66859" lon="5.75635">
        <ele>448</ele>
        <time>2016-03-19T08:34:35.121Z</time>
      </trkpt>
      <trkpt lat="43.6686" lon="5.75623">
        <ele>447</ele>
        <time>2016-03-19T08:34:37.137Z</time>
      </trkpt>
      <trkpt lat="43.66861" lon="5.75618">
        <ele>447</ele>
        <time>2016-03-19T08:34:38.115Z</time>
      </trkpt>
      <trkpt lat="43.66864" lon="5.75606">
        <ele>448</ele>
        <time>2016-03-19T08:34:40.123Z</time>
      </trkpt>
      <trkpt lat="43.66865" lon="5.75601">
        <ele>448</ele>
        <time>2016-03-19T08:34:41.114Z</time>
      </trkpt>
      <trkpt lat="43.66868" lon="5.75591">
        <ele>446</ele>
        <time>2016-03-19T08:34:43.132Z</time>
      </trkpt>
      <trkpt lat="43.66869" lon="5.75586">
        <ele>446</ele>
        <time>2016-03-19T08:34:44.114Z</time>
      </trkpt>
      <trkpt lat="43.66872" lon="5.75577">
        <ele>446</ele>
        <time>2016-03-19T08:34:46.136Z</time>
      </trkpt>
      <trkpt lat="43.66873" lon="5.75572">
        <ele>446</ele>
        <time>2016-03-19T08:34:47.118Z</time>
      </trkpt>
      <trkpt lat="43.66874" lon="5.75564">
        <ele>446</ele>
        <time>2016-03-19T08:34:49.157Z</time>
      </trkpt>
      <trkpt lat="43.66875" lon="5.7556">
        <ele>447</ele>
        <time>2016-03-19T08:34:50.115Z</time>
      </trkpt>
      <trkpt lat="43.66875" lon="5.75551">
        <ele>447</ele>
        <time>2016-03-19T08:34:52.144Z</time>
      </trkpt>
      <trkpt lat="43.66875" lon="5.75546">
        <ele>448</ele>
        <time>2016-03-19T08:34:53.119Z</time>
      </trkpt>
      <trkpt lat="43.66874" lon="5.75538">
        <ele>447</ele>
        <time>2016-03-19T08:34:55.186Z</time>
      </trkpt>
      <trkpt lat="43.66873" lon="5.75533">
        <ele>447</ele>
        <time>2016-03-19T08:34:56.118Z</time>
      </trkpt>
      <trkpt lat="43.66871" lon="5.75524">
        <ele>446</ele>
        <time>2016-03-19T08:34:58.144Z</time>
      </trkpt>
      <trkpt lat="43.66869" lon="5.7552">
        <ele>446</ele>
        <time>2016-03-19T08:34:59.119Z</time>
      </trkpt>
      <trkpt lat="43.66866" lon="5.75509">
        <ele>446</ele>
        <time>2016-03-19T08:35:01.142Z</time>
      </trkpt>
      <trkpt lat="43.66865" lon="5.75504">
        <ele>445</ele>
        <time>2016-03-19T08:35:02.119Z</time>
      </trkpt>
      <trkpt lat="43.66863" lon="5.75498">
        <ele>445</ele>
        <time>2016-03-19T08:35:03.143Z</time>
      </trkpt>
      <trkpt lat="43.66861" lon="5.75489">
        <ele>445</ele>
        <time>2016-03-19T08:35:04.116Z</time>
      </trkpt>
      <trkpt lat="43.66861" lon="5.75483">
        <ele>445</ele>
        <time>2016-03-19T08:35:05.145Z</time>
      </trkpt>
      <trkpt lat="43.66861" lon="5.75476">
        <ele>444</ele>
        <time>2016-03-19T08:35:06.156Z</time>
      </trkpt>
      <trkpt lat="43.66862" lon="5.75469">
        <ele>444</ele>
        <time>2016-03-19T08:35:07.144Z</time>
      </trkpt>
      <trkpt lat="43.66863" lon="5.75463">
        <ele>444</ele>
        <time>2016-03-19T08:35:08.119Z</time>
      </trkpt>
      <trkpt lat="43.66864" lon="5.75457">
        <ele>444</ele>
        <time>2016-03-19T08:35:09.144Z</time>
      </trkpt>
      <trkpt lat="43.66865" lon="5.75451">
        <ele>444</ele>
        <time>2016-03-19T08:35:10.115Z</time>
      </trkpt>
      <trkpt lat="43.66865" lon="5.75445">
        <ele>443</ele>
        <time>2016-03-19T08:35:11.145Z</time>
      </trkpt>
      <trkpt lat="43.66866" lon="5.75438">
        <ele>442</ele>
        <time>2016-03-19T08:35:12.118Z</time>
      </trkpt>
      <trkpt lat="43.66867" lon="5.75431">
        <ele>442</ele>
        <time>2016-03-19T08:35:13.144Z</time>
      </trkpt>
      <trkpt lat="43.6687" lon="5.75425">
        <ele>442</ele>
        <time>2016-03-19T08:35:14.130Z</time>
      </trkpt>
      <trkpt lat="43.66873" lon="5.75419">
        <ele>442</ele>
        <time>2016-03-19T08:35:15.152Z</time>
      </trkpt>
      <trkpt lat="43.66876" lon="5.75414">
        <ele>442</ele>
        <time>2016-03-19T08:35:16.117Z</time>
      </trkpt>
      <trkpt lat="43.66879" lon="5.75409">
        <ele>443</ele>
        <time>2016-03-19T08:35:17.171Z</time>
      </trkpt>
      <trkpt lat="43.66883" lon="5.75405">
        <ele>443</ele>
        <time>2016-03-19T08:35:18.114Z</time>
      </trkpt>
      <trkpt lat="43.66886" lon="5.75401">
        <ele>443</ele>
        <time>2016-03-19T08:35:19.140Z</time>
      </trkpt>
      <trkpt lat="43.6689" lon="5.75397">
        <ele>442</ele>
        <time>2016-03-19T08:35:20.118Z</time>
      </trkpt>
      <trkpt lat="43.66897" lon="5.75389">
        <ele>442</ele>
        <time>2016-03-19T08:35:22.155Z</time>
      </trkpt>
      <trkpt lat="43.669" lon="5.75384">
        <ele>441</ele>
        <time>2016-03-19T08:35:23.123Z</time>
      </trkpt>
      <trkpt lat="43.66903" lon="5.75379">
        <ele>442</ele>
        <time>2016-03-19T08:35:24.143Z</time>
      </trkpt>
      <trkpt lat="43.66906" lon="5.75374">
        <ele>441</ele>
        <time>2016-03-19T08:35:25.129Z</time>
      </trkpt>
      <trkpt lat="43.66908" lon="5.75363">
        <ele>441</ele>
        <time>2016-03-19T08:35:27.142Z</time>
      </trkpt>
      <trkpt lat="43.66909" lon="5.75357">
        <ele>441</ele>
        <time>2016-03-19T08:35:28.162Z</time>
      </trkpt>
      <trkpt lat="43.6691" lon="5.75347">
        <ele>440</ele>
        <time>2016-03-19T08:35:30.146Z</time>
      </trkpt>
      <trkpt lat="43.6691" lon="5.75341">
        <ele>439</ele>
        <time>2016-03-19T08:35:31.131Z</time>
      </trkpt>
      <trkpt lat="43.66912" lon="5.7533">
        <ele>439</ele>
        <time>2016-03-19T08:35:33.153Z</time>
      </trkpt>
      <trkpt lat="43.66913" lon="5.75325">
        <ele>439</ele>
        <time>2016-03-19T08:35:34.128Z</time>
      </trkpt>
      <trkpt lat="43.66915" lon="5.75315">
        <ele>439</ele>
        <time>2016-03-19T08:35:36.144Z</time>
      </trkpt>
      <trkpt lat="43.66916" lon="5.75311">
        <ele>438</ele>
        <time>2016-03-19T08:35:37.136Z</time>
      </trkpt>
      <trkpt lat="43.6692" lon="5.75301">
        <ele>440</ele>
        <time>2016-03-19T08:35:40.140Z</time>
      </trkpt>
      <trkpt lat="43.66921" lon="5.75296">
        <ele>440</ele>
        <time>2016-03-19T08:35:41.119Z</time>
      </trkpt>
      <trkpt lat="43.66912" lon="5.75292">
        <ele>440</ele>
        <time>2016-03-19T08:35:44.169Z</time>
      </trkpt>
      <trkpt lat="43.66909" lon="5.75295">
        <ele>439</ele>
        <time>2016-03-19T08:35:45.119Z</time>
      </trkpt>
      <trkpt lat="43.66905" lon="5.75303">
        <ele>440</ele>
        <time>2016-03-19T08:35:47.141Z</time>
      </trkpt>
      <trkpt lat="43.66904" lon="5.75308">
        <ele>440</ele>
        <time>2016-03-19T08:35:48.118Z</time>
      </trkpt>
      <trkpt lat="43.66903" lon="5.75319">
        <ele>440</ele>
        <time>2016-03-19T08:35:51.139Z</time>
      </trkpt>
      <trkpt lat="43.66902" lon="5.75321">
        <ele>440</ele>
        <time>2016-03-19T08:35:52.117Z</time>
      </trkpt>
      <trkpt lat="43.66896" lon="5.75326">
        <ele>440</ele>
        <time>2016-03-19T08:36:02.136Z</time>
      </trkpt>
      <trkpt lat="43.66893" lon="5.75327">
        <ele>440</ele>
        <time>2016-03-19T08:36:03.117Z</time>
      </trkpt>
      <trkpt lat="43.66886" lon="5.75326">
        <ele>438</ele>
        <time>2016-03-19T08:36:05.142Z</time>
      </trkpt>
      <trkpt lat="43.66883" lon="5.75326">
        <ele>437</ele>
        <time>2016-03-19T08:36:06.115Z</time>
      </trkpt>
      <trkpt lat="43.66877" lon="5.75326">
        <ele>436</ele>
        <time>2016-03-19T08:36:08.144Z</time>
      </trkpt>
      <trkpt lat="43.66874" lon="5.75324">
        <ele>436</ele>
        <time>2016-03-19T08:36:09.115Z</time>
      </trkpt>
      <trkpt lat="43.66871" lon="5.75321">
        <ele>435</ele>
        <time>2016-03-19T08:36:10.144Z</time>
      </trkpt>
      <trkpt lat="43.66866" lon="5.75317">
        <ele>435</ele>
        <time>2016-03-19T08:36:11.119Z</time>
      </trkpt>
      <trkpt lat="43.66861" lon="5.75312">
        <ele>433</ele>
        <time>2016-03-19T08:36:12.152Z</time>
      </trkpt>
      <trkpt lat="43.66858" lon="5.75309">
        <ele>433</ele>
        <time>2016-03-19T08:36:13.116Z</time>
      </trkpt>
      <trkpt lat="43.66851" lon="5.75302">
        <ele>431</ele>
        <time>2016-03-19T08:36:15.138Z</time>
      </trkpt>
      <trkpt lat="43.66848" lon="5.75298">
        <ele>431</ele>
        <time>2016-03-19T08:36:16.146Z</time>
      </trkpt>
      <trkpt lat="43.66841" lon="5.7529">
        <ele>429</ele>
        <time>2016-03-19T08:36:19.156Z</time>
      </trkpt>
      <trkpt lat="43.66839" lon="5.75288">
        <ele>429</ele>
        <time>2016-03-19T08:36:20.118Z</time>
      </trkpt>
      <trkpt lat="43.66832" lon="5.75287">
        <ele>428</ele>
        <time>2016-03-19T08:36:23.144Z</time>
      </trkpt>
      <trkpt lat="43.6683" lon="5.75285">
        <ele>427</ele>
        <time>2016-03-19T08:36:24.126Z</time>
      </trkpt>
      <trkpt lat="43.66824" lon="5.75276">
        <ele>427</ele>
        <time>2016-03-19T08:36:27.170Z</time>
      </trkpt>
      <trkpt lat="43.66823" lon="5.75272">
        <ele>427</ele>
        <time>2016-03-19T08:36:28.116Z</time>
      </trkpt>
      <trkpt lat="43.66822" lon="5.75261">
        <ele>425</ele>
        <time>2016-03-19T08:36:30.123Z</time>
      </trkpt>
      <trkpt lat="43.66821" lon="5.75256">
        <ele>425</ele>
        <time>2016-03-19T08:36:31.118Z</time>
      </trkpt>
      <trkpt lat="43.66819" lon="5.75246">
        <ele>424</ele>
        <time>2016-03-19T08:36:33.135Z</time>
      </trkpt>
      <trkpt lat="43.66818" lon="5.75241">
        <ele>423</ele>
        <time>2016-03-19T08:36:34.117Z</time>
      </trkpt>
      <trkpt lat="43.66813" lon="5.75232">
        <ele>423</ele>
        <time>2016-03-19T08:36:37.143Z</time>
      </trkpt>
      <trkpt lat="43.66812" lon="5.75229">
        <ele>422</ele>
        <time>2016-03-19T08:36:38.117Z</time>
      </trkpt>
      <trkpt lat="43.66809" lon="5.7522">
        <ele>423</ele>
        <time>2016-03-19T08:36:40.139Z</time>
      </trkpt>
      <trkpt lat="43.66805" lon="5.75216">
        <ele>422</ele>
        <time>2016-03-19T08:36:41.118Z</time>
      </trkpt>
      <trkpt lat="43.66798" lon="5.75211">
        <ele>420</ele>
        <time>2016-03-19T08:36:43.138Z</time>
      </trkpt>
      <trkpt lat="43.66796" lon="5.7521">
        <ele>420</ele>
        <time>2016-03-19T08:36:44.113Z</time>
      </trkpt>
      <trkpt lat="43.66791" lon="5.75202">
        <ele>419</ele>
        <time>2016-03-19T08:36:47.146Z</time>
      </trkpt>
      <trkpt lat="43.6679" lon="5.75199">
        <ele>420</ele>
        <time>2016-03-19T08:36:48.154Z</time>
      </trkpt>
      <trkpt lat="43.66787" lon="5.75194">
        <ele>419</ele>
        <time>2016-03-19T08:36:49.331Z</time>
      </trkpt>
      <trkpt lat="43.66786" lon="5.75187">
        <ele>419</ele>
        <time>2016-03-19T08:36:50.123Z</time>
      </trkpt>
      <trkpt lat="43.66789" lon="5.75176">
        <ele>419</ele>
        <time>2016-03-19T08:36:51.141Z</time>
      </trkpt>
      <trkpt lat="43.66791" lon="5.7517">
        <ele>418</ele>
        <time>2016-03-19T08:36:52.123Z</time>
      </trkpt>
      <trkpt lat="43.66789" lon="5.75161">
        <ele>418</ele>
        <time>2016-03-19T08:36:54.188Z</time>
      </trkpt>
      <trkpt lat="43.66786" lon="5.75157">
        <ele>418</ele>
        <time>2016-03-19T08:36:55.108Z</time>
      </trkpt>
      <trkpt lat="43.6678" lon="5.75151">
        <ele>417</ele>
        <time>2016-03-19T08:36:57.139Z</time>
      </trkpt>
      <trkpt lat="43.66777" lon="5.75146">
        <ele>417</ele>
        <time>2016-03-19T08:36:58.119Z</time>
      </trkpt>
      <trkpt lat="43.66773" lon="5.75142">
        <ele>417</ele>
        <time>2016-03-19T08:36:59.126Z</time>
      </trkpt>
      <trkpt lat="43.66772" lon="5.75133">
        <ele>418</ele>
        <time>2016-03-19T08:37:00.107Z</time>
      </trkpt>
      <trkpt lat="43.66773" lon="5.75127">
        <ele>416</ele>
        <time>2016-03-19T08:37:01.214Z</time>
      </trkpt>
      <trkpt lat="43.66772" lon="5.7512">
        <ele>411</ele>
        <time>2016-03-19T08:37:02.118Z</time>
      </trkpt>
      <trkpt lat="43.66774" lon="5.7511">
        <ele>412</ele>
        <time>2016-03-19T08:37:03.131Z</time>
      </trkpt>
      <trkpt lat="43.66772" lon="5.75097">
        <ele>412</ele>
        <time>2016-03-19T08:37:04.118Z</time>
      </trkpt>
      <trkpt lat="43.66773" lon="5.75087">
        <ele>412</ele>
        <time>2016-03-19T08:37:05.141Z</time>
      </trkpt>
      <trkpt lat="43.66772" lon="5.75078">
        <ele>410</ele>
        <time>2016-03-19T08:37:06.118Z</time>
      </trkpt>
      <trkpt lat="43.6677" lon="5.75071">
        <ele>410</ele>
        <time>2016-03-19T08:37:07.140Z</time>
      </trkpt>
      <trkpt lat="43.66768" lon="5.75064">
        <ele>409</ele>
        <time>2016-03-19T08:37:08.118Z</time>
      </trkpt>
      <trkpt lat="43.66766" lon="5.75058">
        <ele>409</ele>
        <time>2016-03-19T08:37:09.166Z</time>
      </trkpt>
      <trkpt lat="43.66767" lon="5.75051">
        <ele>410</ele>
        <time>2016-03-19T08:37:10.117Z</time>
      </trkpt>
      <trkpt lat="43.66768" lon="5.75045">
        <ele>410</ele>
        <time>2016-03-19T08:37:11.140Z</time>
      </trkpt>
      <trkpt lat="43.66768" lon="5.75037">
        <ele>409</ele>
        <time>2016-03-19T08:37:12.116Z</time>
      </trkpt>
      <trkpt lat="43.66768" lon="5.75031">
        <ele>408</ele>
        <time>2016-03-19T08:37:13.139Z</time>
      </trkpt>
      <trkpt lat="43.66768" lon="5.75024">
        <ele>406</ele>
        <time>2016-03-19T08:37:14.117Z</time>
      </trkpt>
      <trkpt lat="43.66771" lon="5.75014">
        <ele>404</ele>
        <time>2016-03-19T08:37:16.144Z</time>
      </trkpt>
      <trkpt lat="43.66773" lon="5.75009">
        <ele>404</ele>
        <time>2016-03-19T08:37:17.119Z</time>
      </trkpt>
      <trkpt lat="43.66779" lon="5.74999">
        <ele>404</ele>
        <time>2016-03-19T08:37:19.144Z</time>
      </trkpt>
      <trkpt lat="43.66781" lon="5.74995">
        <ele>403</ele>
        <time>2016-03-19T08:37:20.116Z</time>
      </trkpt>
      <trkpt lat="43.66781" lon="5.74987">
        <ele>402</ele>
        <time>2016-03-19T08:37:23.140Z</time>
      </trkpt>
      <trkpt lat="43.66779" lon="5.74982">
        <ele>400</ele>
        <time>2016-03-19T08:37:24.119Z</time>
      </trkpt>
      <trkpt lat="43.66778" lon="5.74975">
        <ele>400</ele>
        <time>2016-03-19T08:37:25.172Z</time>
      </trkpt>
      <trkpt lat="43.66779" lon="5.74969">
        <ele>401</ele>
        <time>2016-03-19T08:37:26.130Z</time>
      </trkpt>
      <trkpt lat="43.66783" lon="5.7496">
        <ele>401</ele>
        <time>2016-03-19T08:37:28.145Z</time>
      </trkpt>
      <trkpt lat="43.66785" lon="5.74956">
        <ele>401</ele>
        <time>2016-03-19T08:37:29.120Z</time>
      </trkpt>
      <trkpt lat="43.6679" lon="5.74949">
        <ele>400</ele>
        <time>2016-03-19T08:37:31.144Z</time>
      </trkpt>
      <trkpt lat="43.66792" lon="5.74944">
        <ele>400</ele>
        <time>2016-03-19T08:37:32.127Z</time>
      </trkpt>
      <trkpt lat="43.66794" lon="5.74932">
        <ele>400</ele>
        <time>2016-03-19T08:37:34.140Z</time>
      </trkpt>
      <trkpt lat="43.66794" lon="5.74927">
        <ele>400</ele>
        <time>2016-03-19T08:37:35.119Z</time>
      </trkpt>
      <trkpt lat="43.66796" lon="5.74918">
        <ele>400</ele>
        <time>2016-03-19T08:37:37.362Z</time>
      </trkpt>
      <trkpt lat="43.66797" lon="5.74914">
        <ele>401</ele>
        <time>2016-03-19T08:37:38.120Z</time>
      </trkpt>
      <trkpt lat="43.66802" lon="5.74907">
        <ele>402</ele>
        <time>2016-03-19T08:37:41.144Z</time>
      </trkpt>
      <trkpt lat="43.66803" lon="5.74905">
        <ele>402</ele>
        <time>2016-03-19T08:37:42.119Z</time>
      </trkpt>
      <trkpt lat="43.66802" lon="5.74896">
        <ele>403</ele>
        <time>2016-03-19T08:37:45.141Z</time>
      </trkpt>
      <trkpt lat="43.66802" lon="5.74893">
        <ele>400</ele>
        <time>2016-03-19T08:37:46.130Z</time>
      </trkpt>
      <trkpt lat="43.66806" lon="5.74886">
        <ele>400</ele>
        <time>2016-03-19T08:37:48.144Z</time>
      </trkpt>
      <trkpt lat="43.66807" lon="5.74882">
        <ele>399</ele>
        <time>2016-03-19T08:37:49.120Z</time>
      </trkpt>
      <trkpt lat="43.66812" lon="5.74873">
        <ele>398</ele>
        <time>2016-03-19T08:37:52.143Z</time>
      </trkpt>
      <trkpt lat="43.66813" lon="5.74871">
        <ele>398</ele>
        <time>2016-03-19T08:37:53.119Z</time>
      </trkpt>
      <trkpt lat="43.66815" lon="5.74863">
        <ele>398</ele>
        <time>2016-03-19T08:37:55.144Z</time>
      </trkpt>
      <trkpt lat="43.66817" lon="5.74858">
        <ele>398</ele>
        <time>2016-03-19T08:37:56.119Z</time>
      </trkpt>
      <trkpt lat="43.66819" lon="5.74852">
        <ele>398</ele>
        <time>2016-03-19T08:37:57.167Z</time>
      </trkpt>
      <trkpt lat="43.66822" lon="5.74847">
        <ele>395</ele>
        <time>2016-03-19T08:37:58.120Z</time>
      </trkpt>
      <trkpt lat="43.66829" lon="5.74843">
        <ele>394</ele>
        <time>2016-03-19T08:37:59.144Z</time>
      </trkpt>
      <trkpt lat="43.66834" lon="5.74837">
        <ele>393</ele>
        <time>2016-03-19T08:38:00.132Z</time>
      </trkpt>
      <trkpt lat="43.66839" lon="5.74831">
        <ele>394</ele>
        <time>2016-03-19T08:38:02.142Z</time>
      </trkpt>
      <trkpt lat="43.66842" lon="5.74825">
        <ele>393</ele>
        <time>2016-03-19T08:38:03.130Z</time>
      </trkpt>
      <trkpt lat="43.66845" lon="5.74819">
        <ele>392</ele>
        <time>2016-03-19T08:38:04.216Z</time>
      </trkpt>
      <trkpt lat="43.66848" lon="5.74814">
        <ele>391</ele>
        <time>2016-03-19T08:38:05.119Z</time>
      </trkpt>
      <trkpt lat="43.66854" lon="5.74805">
        <ele>390</ele>
        <time>2016-03-19T08:38:08.151Z</time>
      </trkpt>
      <trkpt lat="43.66855" lon="5.74803">
        <ele>392</ele>
        <time>2016-03-19T08:38:09.131Z</time>
      </trkpt>
      <trkpt lat="43.66861" lon="5.74794">
        <ele>390</ele>
        <time>2016-03-19T08:38:12.204Z</time>
      </trkpt>
      <trkpt lat="43.66864" lon="5.74787">
        <ele>389</ele>
        <time>2016-03-19T08:38:13.119Z</time>
      </trkpt>
      <trkpt lat="43.6687" lon="5.74784">
        <ele>385</ele>
        <time>2016-03-19T08:38:15.144Z</time>
      </trkpt>
      <trkpt lat="43.66873" lon="5.74781">
        <ele>385</ele>
        <time>2016-03-19T08:38:16.127Z</time>
      </trkpt>
      <trkpt lat="43.66876" lon="5.74774">
        <ele>383</ele>
        <time>2016-03-19T08:38:18.142Z</time>
      </trkpt>
      <trkpt lat="43.66876" lon="5.74762">
        <ele>384</ele>
        <time>2016-03-19T08:38:19.117Z</time>
      </trkpt>
      <trkpt lat="43.66877" lon="5.74756">
        <ele>385</ele>
        <time>2016-03-19T08:38:20.143Z</time>
      </trkpt>
      <trkpt lat="43.66877" lon="5.74749">
        <ele>386</ele>
        <time>2016-03-19T08:38:21.123Z</time>
      </trkpt>
      <trkpt lat="43.66876" lon="5.74739">
        <ele>385</ele>
        <time>2016-03-19T08:38:23.138Z</time>
      </trkpt>
      <trkpt lat="43.66878" lon="5.74733">
        <ele>382</ele>
        <time>2016-03-19T08:38:24.146Z</time>
      </trkpt>
      <trkpt lat="43.6688" lon="5.74725">
        <ele>382</ele>
        <time>2016-03-19T08:38:25.143Z</time>
      </trkpt>
      <trkpt lat="43.66884" lon="5.74718">
        <ele>383</ele>
        <time>2016-03-19T08:38:26.120Z</time>
      </trkpt>
      <trkpt lat="43.66887" lon="5.74712">
        <ele>383</ele>
        <time>2016-03-19T08:38:27.152Z</time>
      </trkpt>
      <trkpt lat="43.66889" lon="5.74706">
        <ele>383</ele>
        <time>2016-03-19T08:38:28.119Z</time>
      </trkpt>
      <trkpt lat="43.6689" lon="5.74698">
        <ele>384</ele>
        <time>2016-03-19T08:38:30.163Z</time>
      </trkpt>
      <trkpt lat="43.6689" lon="5.74692">
        <ele>382</ele>
        <time>2016-03-19T08:38:31.118Z</time>
      </trkpt>
      <trkpt lat="43.6689" lon="5.74682">
        <ele>383</ele>
        <time>2016-03-19T08:38:32.143Z</time>
      </trkpt>
      <trkpt lat="43.6689" lon="5.74676">
        <ele>381</ele>
        <time>2016-03-19T08:38:33.118Z</time>
      </trkpt>
      <trkpt lat="43.66891" lon="5.74668">
        <ele>380</ele>
        <time>2016-03-19T08:38:34.141Z</time>
      </trkpt>
      <trkpt lat="43.66893" lon="5.74659">
        <ele>380</ele>
        <time>2016-03-19T08:38:35.119Z</time>
      </trkpt>
      <trkpt lat="43.66896" lon="5.74653">
        <ele>379</ele>
        <time>2016-03-19T08:38:36.360Z</time>
      </trkpt>
      <trkpt lat="43.669" lon="5.74645">
        <ele>378</ele>
        <time>2016-03-19T08:38:37.128Z</time>
      </trkpt>
      <trkpt lat="43.66903" lon="5.74639">
        <ele>377</ele>
        <time>2016-03-19T08:38:38.126Z</time>
      </trkpt>
      <trkpt lat="43.66907" lon="5.74633">
        <ele>379</ele>
        <time>2016-03-19T08:38:39.116Z</time>
      </trkpt>
      <trkpt lat="43.6691" lon="5.74624">
        <ele>378</ele>
        <time>2016-03-19T08:38:40.130Z</time>
      </trkpt>
      <trkpt lat="43.66917" lon="5.74621">
        <ele>376</ele>
        <time>2016-03-19T08:38:41.124Z</time>
      </trkpt>
      <trkpt lat="43.66922" lon="5.74615">
        <ele>376</ele>
        <time>2016-03-19T08:38:42.137Z</time>
      </trkpt>
      <trkpt lat="43.66925" lon="5.74607">
        <ele>376</ele>
        <time>2016-03-19T08:38:43.116Z</time>
      </trkpt>
      <trkpt lat="43.66926" lon="5.74599">
        <ele>375</ele>
        <time>2016-03-19T08:38:44.142Z</time>
      </trkpt>
      <trkpt lat="43.66926" lon="5.74589">
        <ele>373</ele>
        <time>2016-03-19T08:38:45.117Z</time>
      </trkpt>
      <trkpt lat="43.66925" lon="5.7458">
        <ele>372</ele>
        <time>2016-03-19T08:38:46.143Z</time>
      </trkpt>
      <trkpt lat="43.66926" lon="5.74574">
        <ele>373</ele>
        <time>2016-03-19T08:38:47.121Z</time>
      </trkpt>
      <trkpt lat="43.66933" lon="5.7457">
        <ele>373</ele>
        <time>2016-03-19T08:38:50.142Z</time>
      </trkpt>
      <trkpt lat="43.66936" lon="5.7457">
        <ele>373</ele>
        <time>2016-03-19T08:38:51.115Z</time>
      </trkpt>
      <trkpt lat="43.66943" lon="5.74567">
        <ele>374</ele>
        <time>2016-03-19T08:38:54.143Z</time>
      </trkpt>
      <trkpt lat="43.66945" lon="5.74566">
        <ele>374</ele>
        <time>2016-03-19T08:38:55.120Z</time>
      </trkpt>
      <trkpt lat="43.66951" lon="5.74558">
        <ele>374</ele>
        <time>2016-03-19T08:38:58.147Z</time>
      </trkpt>
      <trkpt lat="43.66952" lon="5.74554">
        <ele>373</ele>
        <time>2016-03-19T08:38:59.129Z</time>
      </trkpt>
      <trkpt lat="43.66955" lon="5.7455">
        <ele>371</ele>
        <time>2016-03-19T08:39:00.145Z</time>
      </trkpt>
      <trkpt lat="43.66959" lon="5.74541">
        <ele>370</ele>
        <time>2016-03-19T08:39:01.116Z</time>
      </trkpt>
      <trkpt lat="43.66961" lon="5.74536">
        <ele>372</ele>
        <time>2016-03-19T08:39:02.152Z</time>
      </trkpt>
      <trkpt lat="43.66964" lon="5.74531">
        <ele>372</ele>
        <time>2016-03-19T08:39:03.118Z</time>
      </trkpt>
      <trkpt lat="43.66967" lon="5.74526">
        <ele>372</ele>
        <time>2016-03-19T08:39:04.143Z</time>
      </trkpt>
      <trkpt lat="43.6697" lon="5.74521">
        <ele>372</ele>
        <time>2016-03-19T08:39:05.130Z</time>
      </trkpt>
      <trkpt lat="43.66974" lon="5.74512">
        <ele>371</ele>
        <time>2016-03-19T08:39:07.151Z</time>
      </trkpt>
      <trkpt lat="43.66975" lon="5.74508">
        <ele>371</ele>
        <time>2016-03-19T08:39:08.118Z</time>
      </trkpt>
      <trkpt lat="43.66979" lon="5.74497">
        <ele>370</ele>
        <time>2016-03-19T08:39:11.154Z</time>
      </trkpt>
      <trkpt lat="43.66981" lon="5.74492">
        <ele>370</ele>
        <time>2016-03-19T08:39:12.116Z</time>
      </trkpt>
      <trkpt lat="43.66985" lon="5.74484">
        <ele>369</ele>
        <time>2016-03-19T08:39:14.155Z</time>
      </trkpt>
      <trkpt lat="43.66987" lon="5.7448">
        <ele>368</ele>
        <time>2016-03-19T08:39:15.116Z</time>
      </trkpt>
      <trkpt lat="43.66992" lon="5.74471">
        <ele>369</ele>
        <time>2016-03-19T08:39:17.144Z</time>
      </trkpt>
      <trkpt lat="43.66994" lon="5.74467">
        <ele>369</ele>
        <time>2016-03-19T08:39:18.117Z</time>
      </trkpt>
      <trkpt lat="43.66996" lon="5.74457">
        <ele>368</ele>
        <time>2016-03-19T08:39:20.373Z</time>
      </trkpt>
      <trkpt lat="43.66995" lon="5.74453">
        <ele>367</ele>
        <time>2016-03-19T08:39:21.115Z</time>
      </trkpt>
      <trkpt lat="43.66997" lon="5.74443">
        <ele>368</ele>
        <time>2016-03-19T08:39:23.168Z</time>
      </trkpt>
      <trkpt lat="43.66998" lon="5.74437">
        <ele>369</ele>
        <time>2016-03-19T08:39:24.120Z</time>
      </trkpt>
      <trkpt lat="43.67" lon="5.74431">
        <ele>369</ele>
        <time>2016-03-19T08:39:25.214Z</time>
      </trkpt>
      <trkpt lat="43.67" lon="5.74424">
        <ele>369</ele>
        <time>2016-03-19T08:39:26.116Z</time>
      </trkpt>
      <trkpt lat="43.67" lon="5.74418">
        <ele>369</ele>
        <time>2016-03-19T08:39:27.144Z</time>
      </trkpt>
      <trkpt lat="43.67" lon="5.74411">
        <ele>368</ele>
        <time>2016-03-19T08:39:28.119Z</time>
      </trkpt>
      <trkpt lat="43.66999" lon="5.744">
        <ele>369</ele>
        <time>2016-03-19T08:39:30.151Z</time>
      </trkpt>
      <trkpt lat="43.66999" lon="5.74395">
        <ele>369</ele>
        <time>2016-03-19T08:39:31.119Z</time>
      </trkpt>
      <trkpt lat="43.66997" lon="5.74385">
        <ele>369</ele>
        <time>2016-03-19T08:39:33.152Z</time>
      </trkpt>
      <trkpt lat="43.66995" lon="5.74381">
        <ele>368</ele>
        <time>2016-03-19T08:39:34.149Z</time>
      </trkpt>
      <trkpt lat="43.6699" lon="5.74371">
        <ele>367</ele>
        <time>2016-03-19T08:39:37.142Z</time>
      </trkpt>
      <trkpt lat="43.66988" lon="5.74367">
        <ele>367</ele>
        <time>2016-03-19T08:39:38.119Z</time>
      </trkpt>
      <trkpt lat="43.66985" lon="5.7436">
        <ele>366</ele>
        <time>2016-03-19T08:39:40.142Z</time>
      </trkpt>
      <trkpt lat="43.66982" lon="5.74357">
        <ele>366</ele>
        <time>2016-03-19T08:39:41.120Z</time>
      </trkpt>
      <trkpt lat="43.66975" lon="5.74352">
        <ele>364</ele>
        <time>2016-03-19T08:39:43.145Z</time>
      </trkpt>
      <trkpt lat="43.66971" lon="5.7435">
        <ele>363</ele>
        <time>2016-03-19T08:39:44.120Z</time>
      </trkpt>
      <trkpt lat="43.66963" lon="5.74346">
        <ele>363</ele>
        <time>2016-03-19T08:39:46.148Z</time>
      </trkpt>
      <trkpt lat="43.66959" lon="5.74344">
        <ele>363</ele>
        <time>2016-03-19T08:39:47.121Z</time>
      </trkpt>
      <trkpt lat="43.66953" lon="5.74335">
        <ele>363</ele>
        <time>2016-03-19T08:39:49.147Z</time>
      </trkpt>
      <trkpt lat="43.66952" lon="5.7433">
        <ele>363</ele>
        <time>2016-03-19T08:39:50.120Z</time>
      </trkpt>
      <trkpt lat="43.66952" lon="5.7432">
        <ele>362</ele>
        <time>2016-03-19T08:39:52.124Z</time>
      </trkpt>
      <trkpt lat="43.66953" lon="5.74317">
        <ele>362</ele>
        <time>2016-03-19T08:39:53.116Z</time>
      </trkpt>
      <trkpt lat="43.66955" lon="5.74308">
        <ele>362</ele>
        <time>2016-03-19T08:39:55.138Z</time>
      </trkpt>
      <trkpt lat="43.66957" lon="5.74303">
        <ele>361</ele>
        <time>2016-03-19T08:39:56.119Z</time>
      </trkpt>
      <trkpt lat="43.66957" lon="5.74303">
        <ele>361</ele>
        <time>2016-03-19T08:39:56.143Z</time>
      </trkpt>
      <trkpt lat="43.66963" lon="5.74293">
        <ele>360</ele>
        <time>2016-03-19T08:39:57.119Z</time>
      </trkpt>
      <trkpt lat="43.66963" lon="5.74286">
        <ele>360</ele>
        <time>2016-03-19T08:39:58.141Z</time>
      </trkpt>
      <trkpt lat="43.66962" lon="5.74278">
        <ele>361</ele>
        <time>2016-03-19T08:39:59.118Z</time>
      </trkpt>
      <trkpt lat="43.66961" lon="5.7427">
        <ele>361</ele>
        <time>2016-03-19T08:40:00.142Z</time>
      </trkpt>
      <trkpt lat="43.6696" lon="5.74262">
        <ele>360</ele>
        <time>2016-03-19T08:40:01.139Z</time>
      </trkpt>
      <trkpt lat="43.66959" lon="5.74254">
        <ele>360</ele>
        <time>2016-03-19T08:40:02.139Z</time>
      </trkpt>
      <trkpt lat="43.66959" lon="5.74247">
        <ele>360</ele>
        <time>2016-03-19T08:40:03.118Z</time>
      </trkpt>
      <trkpt lat="43.66954" lon="5.74237">
        <ele>358</ele>
        <time>2016-03-19T08:40:05.136Z</time>
      </trkpt>
      <trkpt lat="43.66952" lon="5.74236">
        <ele>357</ele>
        <time>2016-03-19T08:40:06.123Z</time>
      </trkpt>
      <trkpt lat="43.66949" lon="5.74226">
        <ele>357</ele>
        <time>2016-03-19T08:40:12.142Z</time>
      </trkpt>
      <trkpt lat="43.66948" lon="5.74223">
        <ele>356</ele>
        <time>2016-03-19T08:40:13.118Z</time>
      </trkpt>
      <trkpt lat="43.6695" lon="5.74212">
        <ele>355</ele>
        <time>2016-03-19T08:40:16.145Z</time>
      </trkpt>
      <trkpt lat="43.66951" lon="5.74206">
        <ele>353</ele>
        <time>2016-03-19T08:40:17.117Z</time>
      </trkpt>
      <trkpt lat="43.66955" lon="5.74198">
        <ele>354</ele>
        <time>2016-03-19T08:40:18.139Z</time>
      </trkpt>
      <trkpt lat="43.66959" lon="5.74189">
        <ele>354</ele>
        <time>2016-03-19T08:40:19.127Z</time>
      </trkpt>
      <trkpt lat="43.66962" lon="5.74178">
        <ele>353</ele>
        <time>2016-03-19T08:40:21.152Z</time>
      </trkpt>
      <trkpt lat="43.66965" lon="5.74176">
        <ele>353</ele>
        <time>2016-03-19T08:40:22.151Z</time>
      </trkpt>
      <trkpt lat="43.6697" lon="5.74171">
        <ele>353</ele>
        <time>2016-03-19T08:40:24.156Z</time>
      </trkpt>
      <trkpt lat="43.66974" lon="5.74168">
        <ele>352</ele>
        <time>2016-03-19T08:40:25.117Z</time>
      </trkpt>
      <trkpt lat="43.6698" lon="5.74162">
        <ele>353</ele>
        <time>2016-03-19T08:40:27.150Z</time>
      </trkpt>
      <trkpt lat="43.66984" lon="5.74161">
        <ele>353</ele>
        <time>2016-03-19T08:40:28.119Z</time>
      </trkpt>
      <trkpt lat="43.66991" lon="5.74154">
        <ele>355</ele>
        <time>2016-03-19T08:40:31.153Z</time>
      </trkpt>
      <trkpt lat="43.66994" lon="5.74151">
        <ele>355</ele>
        <time>2016-03-19T08:40:32.119Z</time>
      </trkpt>
      <trkpt lat="43.67001" lon="5.74145">
        <ele>354</ele>
        <time>2016-03-19T08:40:35.146Z</time>
      </trkpt>
      <trkpt lat="43.67004" lon="5.74144">
        <ele>354</ele>
        <time>2016-03-19T08:40:36.133Z</time>
      </trkpt>
      <trkpt lat="43.67011" lon="5.74141">
        <ele>353</ele>
        <time>2016-03-19T08:40:39.144Z</time>
      </trkpt>
      <trkpt lat="43.67015" lon="5.74139">
        <ele>354</ele>
        <time>2016-03-19T08:40:40.117Z</time>
      </trkpt>
      <trkpt lat="43.67022" lon="5.74134">
        <ele>355</ele>
        <time>2016-03-19T08:40:42.142Z</time>
      </trkpt>
      <trkpt lat="43.67026" lon="5.7413">
        <ele>355</ele>
        <time>2016-03-19T08:40:43.117Z</time>
      </trkpt>
      <trkpt lat="43.67033" lon="5.74122">
        <ele>355</ele>
        <time>2016-03-19T08:40:45.157Z</time>
      </trkpt>
      <trkpt lat="43.67035" lon="5.74118">
        <ele>355</ele>
        <time>2016-03-19T08:40:46.121Z</time>
      </trkpt>
      <trkpt lat="43.67041" lon="5.74108">
        <ele>356</ele>
        <time>2016-03-19T08:40:48.146Z</time>
      </trkpt>
      <trkpt lat="43.67044" lon="5.74105">
        <ele>355</ele>
        <time>2016-03-19T08:40:49.148Z</time>
      </trkpt>
      <trkpt lat="43.6705" lon="5.74099">
        <ele>354</ele>
        <time>2016-03-19T08:40:51.157Z</time>
      </trkpt>
      <trkpt lat="43.67052" lon="5.74096">
        <ele>354</ele>
        <time>2016-03-19T08:40:52.119Z</time>
      </trkpt>
      <trkpt lat="43.67057" lon="5.74088">
        <ele>354</ele>
        <time>2016-03-19T08:40:54.146Z</time>
      </trkpt>
      <trkpt lat="43.67059" lon="5.74085">
        <ele>353</ele>
        <time>2016-03-19T08:40:55.121Z</time>
      </trkpt>
      <trkpt lat="43.67065" lon="5.7408">
        <ele>354</ele>
        <time>2016-03-19T08:40:57.145Z</time>
      </trkpt>
      <trkpt lat="43.67068" lon="5.74077">
        <ele>353</ele>
        <time>2016-03-19T08:40:58.116Z</time>
      </trkpt>
      <trkpt lat="43.67074" lon="5.74071">
        <ele>353</ele>
        <time>2016-03-19T08:41:00.143Z</time>
      </trkpt>
      <trkpt lat="43.67077" lon="5.74067">
        <ele>353</ele>
        <time>2016-03-19T08:41:01.122Z</time>
      </trkpt>
      <trkpt lat="43.67081" lon="5.74061">
        <ele>353</ele>
        <time>2016-03-19T08:41:03.145Z</time>
      </trkpt>
      <trkpt lat="43.67084" lon="5.74058">
        <ele>353</ele>
        <time>2016-03-19T08:41:04.120Z</time>
      </trkpt>
      <trkpt lat="43.6709" lon="5.74052">
        <ele>353</ele>
        <time>2016-03-19T08:41:06.156Z</time>
      </trkpt>
      <trkpt lat="43.67093" lon="5.7405">
        <ele>353</ele>
        <time>2016-03-19T08:41:07.112Z</time>
      </trkpt>
      <trkpt lat="43.67101" lon="5.74046">
        <ele>352</ele>
        <time>2016-03-19T08:41:09.140Z</time>
      </trkpt>
      <trkpt lat="43.67105" lon="5.74044">
        <ele>352</ele>
        <time>2016-03-19T08:41:10.144Z</time>
      </trkpt>
      <trkpt lat="43.67112" lon="5.7404">
        <ele>351</ele>
        <time>2016-03-19T08:41:12.136Z</time>
      </trkpt>
      <trkpt lat="43.67116" lon="5.74039">
        <ele>349</ele>
        <time>2016-03-19T08:41:13.121Z</time>
      </trkpt>
      <trkpt lat="43.67123" lon="5.74036">
        <ele>346</ele>
        <time>2016-03-19T08:41:15.139Z</time>
      </trkpt>
      <trkpt lat="43.67127" lon="5.74035">
        <ele>345</ele>
        <time>2016-03-19T08:41:16.114Z</time>
      </trkpt>
      <trkpt lat="43.67134" lon="5.74035">
        <ele>343</ele>
        <time>2016-03-19T08:41:18.142Z</time>
      </trkpt>
      <trkpt lat="43.67138" lon="5.74034">
        <ele>345</ele>
        <time>2016-03-19T08:41:19.120Z</time>
      </trkpt>
      <trkpt lat="43.67147" lon="5.74031">
        <ele>343</ele>
        <time>2016-03-19T08:41:21.147Z</time>
      </trkpt>
      <trkpt lat="43.67151" lon="5.7403">
        <ele>343</ele>
        <time>2016-03-19T08:41:22.118Z</time>
      </trkpt>
      <trkpt lat="43.67159" lon="5.74028">
        <ele>344</ele>
        <time>2016-03-19T08:41:24.138Z</time>
      </trkpt>
      <trkpt lat="43.67164" lon="5.74028">
        <ele>345</ele>
        <time>2016-03-19T08:41:25.120Z</time>
      </trkpt>
      <trkpt lat="43.67171" lon="5.74032">
        <ele>346</ele>
        <time>2016-03-19T08:41:27.137Z</time>
      </trkpt>
      <trkpt lat="43.67175" lon="5.74032">
        <ele>346</ele>
        <time>2016-03-19T08:41:28.121Z</time>
      </trkpt>
      <trkpt lat="43.67183" lon="5.74033">
        <ele>347</ele>
        <time>2016-03-19T08:41:30.149Z</time>
      </trkpt>
      <trkpt lat="43.67187" lon="5.74034">
        <ele>347</ele>
        <time>2016-03-19T08:41:31.115Z</time>
      </trkpt>
      <trkpt lat="43.67194" lon="5.74039">
        <ele>348</ele>
        <time>2016-03-19T08:41:33.147Z</time>
      </trkpt>
      <trkpt lat="43.67197" lon="5.74042">
        <ele>348</ele>
        <time>2016-03-19T08:41:34.119Z</time>
      </trkpt>
      <trkpt lat="43.67203" lon="5.74048">
        <ele>348</ele>
        <time>2016-03-19T08:41:36.144Z</time>
      </trkpt>
      <trkpt lat="43.67206" lon="5.74051">
        <ele>348</ele>
        <time>2016-03-19T08:41:37.142Z</time>
      </trkpt>
      <trkpt lat="43.67211" lon="5.7406">
        <ele>347</ele>
        <time>2016-03-19T08:41:39.140Z</time>
      </trkpt>
      <trkpt lat="43.67213" lon="5.74064">
        <ele>347</ele>
        <time>2016-03-19T08:41:40.115Z</time>
      </trkpt>
      <trkpt lat="43.67218" lon="5.74073">
        <ele>346</ele>
        <time>2016-03-19T08:41:42.136Z</time>
      </trkpt>
      <trkpt lat="43.6722" lon="5.74077">
        <ele>344</ele>
        <time>2016-03-19T08:41:43.117Z</time>
      </trkpt>
      <trkpt lat="43.67223" lon="5.74087">
        <ele>343</ele>
        <time>2016-03-19T08:41:45.147Z</time>
      </trkpt>
      <trkpt lat="43.67225" lon="5.74092">
        <ele>343</ele>
        <time>2016-03-19T08:41:46.121Z</time>
      </trkpt>
      <trkpt lat="43.67227" lon="5.74098">
        <ele>344</ele>
        <time>2016-03-19T08:41:47.137Z</time>
      </trkpt>
      <trkpt lat="43.67229" lon="5.74103">
        <ele>342</ele>
        <time>2016-03-19T08:41:48.146Z</time>
      </trkpt>
      <trkpt lat="43.67232" lon="5.74112">
        <ele>343</ele>
        <time>2016-03-19T08:41:49.130Z</time>
      </trkpt>
      <trkpt lat="43.67235" lon="5.74119">
        <ele>342</ele>
        <time>2016-03-19T08:41:50.115Z</time>
      </trkpt>
      <trkpt lat="43.6724" lon="5.74126">
        <ele>342</ele>
        <time>2016-03-19T08:41:51.141Z</time>
      </trkpt>
      <trkpt lat="43.67245" lon="5.74136">
        <ele>342</ele>
        <time>2016-03-19T08:41:52.126Z</time>
      </trkpt>
      <trkpt lat="43.6725" lon="5.74143">
        <ele>342</ele>
        <time>2016-03-19T08:41:53.142Z</time>
      </trkpt>
      <trkpt lat="43.67254" lon="5.74149">
        <ele>342</ele>
        <time>2016-03-19T08:41:54.120Z</time>
      </trkpt>
      <trkpt lat="43.67258" lon="5.7416">
        <ele>339</ele>
        <time>2016-03-19T08:43:10.163Z</time>
      </trkpt>
      <trkpt lat="43.67259" lon="5.74161">
        <ele>340</ele>
        <time>2016-03-19T08:43:11.121Z</time>
      </trkpt>
      <trkpt lat="43.67261" lon="5.74172">
        <ele>341</ele>
        <time>2016-03-19T08:43:16.149Z</time>
      </trkpt>
      <trkpt lat="43.67261" lon="5.74174">
        <ele>341</ele>
        <time>2016-03-19T08:43:17.120Z</time>
      </trkpt>
      <trkpt lat="43.67263" lon="5.74186">
        <ele>343</ele>
        <time>2016-03-19T08:43:22.146Z</time>
      </trkpt>
      <trkpt lat="43.67263" lon="5.74189">
        <ele>344</ele>
        <time>2016-03-19T08:43:23.120Z</time>
      </trkpt>
      <trkpt lat="43.67264" lon="5.742">
        <ele>347</ele>
        <time>2016-03-19T08:43:29.155Z</time>
      </trkpt>
      <trkpt lat="43.67264" lon="5.74201">
        <ele>347</ele>
        <time>2016-03-19T08:43:30.121Z</time>
      </trkpt>
      <trkpt lat="43.67265" lon="5.74213">
        <ele>350</ele>
        <time>2016-03-19T08:43:37.157Z</time>
      </trkpt>
      <trkpt lat="43.67265" lon="5.74215">
        <ele>350</ele>
        <time>2016-03-19T08:43:38.121Z</time>
      </trkpt>
      <trkpt lat="43.67266" lon="5.74226">
        <ele>352</ele>
        <time>2016-03-19T08:43:45.143Z</time>
      </trkpt>
      <trkpt lat="43.67266" lon="5.74228">
        <ele>353</ele>
        <time>2016-03-19T08:43:46.120Z</time>
      </trkpt>
      <trkpt lat="43.67266" lon="5.74239">
        <ele>358</ele>
        <time>2016-03-19T08:45:04.147Z</time>
      </trkpt>
      <trkpt lat="43.67266" lon="5.74241">
        <ele>358</ele>
        <time>2016-03-19T08:45:05.121Z</time>
      </trkpt>
      <trkpt lat="43.67266" lon="5.74252">
        <ele>360</ele>
        <time>2016-03-19T08:45:11.146Z</time>
      </trkpt>
      <trkpt lat="43.67266" lon="5.74254">
        <ele>360</ele>
        <time>2016-03-19T08:45:12.120Z</time>
      </trkpt>
      <trkpt lat="43.67265" lon="5.74266">
        <ele>360</ele>
        <time>2016-03-19T08:45:19.144Z</time>
      </trkpt>
      <trkpt lat="43.67265" lon="5.74268">
        <ele>360</ele>
        <time>2016-03-19T08:45:20.121Z</time>
      </trkpt>
      <trkpt lat="43.67264" lon="5.74279">
        <ele>361</ele>
        <time>2016-03-19T08:45:27.147Z</time>
      </trkpt>
      <trkpt lat="43.67263" lon="5.74281">
        <ele>361</ele>
        <time>2016-03-19T08:45:28.122Z</time>
      </trkpt>
      <trkpt lat="43.67263" lon="5.74292">
        <ele>365</ele>
        <time>2016-03-19T08:45:34.150Z</time>
      </trkpt>
      <trkpt lat="43.67263" lon="5.74294">
        <ele>364</ele>
        <time>2016-03-19T08:45:35.122Z</time>
      </trkpt>
      <trkpt lat="43.67261" lon="5.74306">
        <ele>363</ele>
        <time>2016-03-19T08:45:42.154Z</time>
      </trkpt>
      <trkpt lat="43.67261" lon="5.74308">
        <ele>363</ele>
        <time>2016-03-19T08:45:43.124Z</time>
      </trkpt>
      <trkpt lat="43.67259" lon="5.74318">
        <ele>363</ele>
        <time>2016-03-19T08:45:48.147Z</time>
      </trkpt>
      <trkpt lat="43.67259" lon="5.74321">
        <ele>363</ele>
        <time>2016-03-19T08:45:49.118Z</time>
      </trkpt>
      <trkpt lat="43.67259" lon="5.74333">
        <ele>364</ele>
        <time>2016-03-19T08:45:55.146Z</time>
      </trkpt>
      <trkpt lat="43.6726" lon="5.74335">
        <ele>364</ele>
        <time>2016-03-19T08:45:56.136Z</time>
      </trkpt>
      <trkpt lat="43.67261" lon="5.74345">
        <ele>364</ele>
        <time>2016-03-19T08:46:01.146Z</time>
      </trkpt>
      <trkpt lat="43.67261" lon="5.74347">
        <ele>364</ele>
        <time>2016-03-19T08:46:02.120Z</time>
      </trkpt>
      <trkpt lat="43.67263" lon="5.74358">
        <ele>365</ele>
        <time>2016-03-19T08:46:07.148Z</time>
      </trkpt>
      <trkpt lat="43.67263" lon="5.74361">
        <ele>365</ele>
        <time>2016-03-19T08:46:08.148Z</time>
      </trkpt>
      <trkpt lat="43.67264" lon="5.74372">
        <ele>364</ele>
        <time>2016-03-19T08:46:13.143Z</time>
      </trkpt>
      <trkpt lat="43.67264" lon="5.74374">
        <ele>364</ele>
        <time>2016-03-19T08:46:14.121Z</time>
      </trkpt>
      <trkpt lat="43.67266" lon="5.74385">
        <ele>364</ele>
        <time>2016-03-19T08:46:19.159Z</time>
      </trkpt>
      <trkpt lat="43.67267" lon="5.74387">
        <ele>365</ele>
        <time>2016-03-19T08:46:20.118Z</time>
      </trkpt>
      <trkpt lat="43.67269" lon="5.74397">
        <ele>367</ele>
        <time>2016-03-19T08:46:25.147Z</time>
      </trkpt>
      <trkpt lat="43.6727" lon="5.744">
        <ele>367</ele>
        <time>2016-03-19T08:46:26.136Z</time>
      </trkpt>
      <trkpt lat="43.67272" lon="5.74411">
        <ele>366</ele>
        <time>2016-03-19T08:46:31.149Z</time>
      </trkpt>
      <trkpt lat="43.67272" lon="5.74413">
        <ele>366</ele>
        <time>2016-03-19T08:46:32.122Z</time>
      </trkpt>
      <trkpt lat="43.67274" lon="5.74425">
        <ele>366</ele>
        <time>2016-03-19T08:46:37.147Z</time>
      </trkpt>
      <trkpt lat="43.67274" lon="5.74427">
        <ele>367</ele>
        <time>2016-03-19T08:46:38.120Z</time>
      </trkpt>
      <trkpt lat="43.67275" lon="5.74438">
        <ele>367</ele>
        <time>2016-03-19T08:46:42.146Z</time>
      </trkpt>
      <trkpt lat="43.67275" lon="5.7444">
        <ele>368</ele>
        <time>2016-03-19T08:46:43.121Z</time>
      </trkpt>
      <trkpt lat="43.67276" lon="5.74451">
        <ele>368</ele>
        <time>2016-03-19T08:46:47.132Z</time>
      </trkpt>
      <trkpt lat="43.67276" lon="5.74453">
        <ele>368</ele>
        <time>2016-03-19T08:46:48.130Z</time>
      </trkpt>
      <trkpt lat="43.67277" lon="5.74464">
        <ele>368</ele>
        <time>2016-03-19T08:46:52.146Z</time>
      </trkpt>
      <trkpt lat="43.67277" lon="5.74466">
        <ele>368</ele>
        <time>2016-03-19T08:46:53.121Z</time>
      </trkpt>
      <trkpt lat="43.67277" lon="5.74478">
        <ele>368</ele>
        <time>2016-03-19T08:46:58.139Z</time>
      </trkpt>
      <trkpt lat="43.67278" lon="5.7448">
        <ele>369</ele>
        <time>2016-03-19T08:46:59.118Z</time>
      </trkpt>
      <trkpt lat="43.67277" lon="5.74492">
        <ele>369</ele>
        <time>2016-03-19T08:47:04.141Z</time>
      </trkpt>
      <trkpt lat="43.67277" lon="5.74495">
        <ele>369</ele>
        <time>2016-03-19T08:47:05.118Z</time>
      </trkpt>
      <trkpt lat="43.67276" lon="5.74505">
        <ele>369</ele>
        <time>2016-03-19T08:47:09.141Z</time>
      </trkpt>
      <trkpt lat="43.67276" lon="5.74507">
        <ele>369</ele>
        <time>2016-03-19T08:47:10.119Z</time>
      </trkpt>
      <trkpt lat="43.67276" lon="5.74518">
        <ele>370</ele>
        <time>2016-03-19T08:47:15.141Z</time>
      </trkpt>
      <trkpt lat="43.67276" lon="5.7452">
        <ele>370</ele>
        <time>2016-03-19T08:47:16.118Z</time>
      </trkpt>
      <trkpt lat="43.67277" lon="5.74531">
        <ele>371</ele>
        <time>2016-03-19T08:47:22.139Z</time>
      </trkpt>
      <trkpt lat="43.67277" lon="5.74533">
        <ele>371</ele>
        <time>2016-03-19T08:47:23.117Z</time>
      </trkpt>
      <trkpt lat="43.67276" lon="5.74543">
        <ele>373</ele>
        <time>2016-03-19T08:47:29.167Z</time>
      </trkpt>
      <trkpt lat="43.67276" lon="5.74545">
        <ele>374</ele>
        <time>2016-03-19T08:47:30.116Z</time>
      </trkpt>
      <trkpt lat="43.67274" lon="5.74555">
        <ele>377</ele>
        <time>2016-03-19T08:47:35.140Z</time>
      </trkpt>
      <trkpt lat="43.67274" lon="5.74557">
        <ele>377</ele>
        <time>2016-03-19T08:47:36.119Z</time>
      </trkpt>
      <trkpt lat="43.6727" lon="5.74568">
        <ele>377</ele>
        <time>2016-03-19T08:47:42.144Z</time>
      </trkpt>
      <trkpt lat="43.67269" lon="5.74569">
        <ele>376</ele>
        <time>2016-03-19T08:47:43.119Z</time>
      </trkpt>
      <trkpt lat="43.67264" lon="5.74579">
        <ele>377</ele>
        <time>2016-03-19T08:47:49.144Z</time>
      </trkpt>
      <trkpt lat="43.67264" lon="5.7458">
        <ele>377</ele>
        <time>2016-03-19T08:47:50.119Z</time>
      </trkpt>
      <trkpt lat="43.67259" lon="5.74589">
        <ele>378</ele>
        <time>2016-03-19T08:47:56.143Z</time>
      </trkpt>
      <trkpt lat="43.67258" lon="5.7459">
        <ele>378</ele>
        <time>2016-03-19T08:47:57.121Z</time>
      </trkpt>
      <trkpt lat="43.67253" lon="5.74599">
        <ele>382</ele>
        <time>2016-03-19T08:48:04.146Z</time>
      </trkpt>
      <trkpt lat="43.67252" lon="5.74601">
        <ele>381</ele>
        <time>2016-03-19T08:48:05.117Z</time>
      </trkpt>
      <trkpt lat="43.67247" lon="5.74609">
        <ele>383</ele>
        <time>2016-03-19T08:48:12.157Z</time>
      </trkpt>
      <trkpt lat="43.67246" lon="5.7461">
        <ele>383</ele>
        <time>2016-03-19T08:48:13.121Z</time>
      </trkpt>
      <trkpt lat="43.67241" lon="5.74619">
        <ele>382</ele>
        <time>2016-03-19T08:48:19.147Z</time>
      </trkpt>
      <trkpt lat="43.6724" lon="5.74621">
        <ele>382</ele>
        <time>2016-03-19T08:48:20.123Z</time>
      </trkpt>
      <trkpt lat="43.67235" lon="5.7463">
        <ele>384</ele>
        <time>2016-03-19T08:48:26.148Z</time>
      </trkpt>
      <trkpt lat="43.67234" lon="5.74632">
        <ele>384</ele>
        <time>2016-03-19T08:48:27.122Z</time>
      </trkpt>
      <trkpt lat="43.67229" lon="5.74641">
        <ele>386</ele>
        <time>2016-03-19T08:48:33.167Z</time>
      </trkpt>
      <trkpt lat="43.67229" lon="5.74642">
        <ele>386</ele>
        <time>2016-03-19T08:48:34.122Z</time>
      </trkpt>
      <trkpt lat="43.67224" lon="5.74651">
        <ele>387</ele>
        <time>2016-03-19T08:48:40.147Z</time>
      </trkpt>
      <trkpt lat="43.67223" lon="5.74653">
        <ele>387</ele>
        <time>2016-03-19T08:48:41.121Z</time>
      </trkpt>
      <trkpt lat="43.67219" lon="5.74662">
        <ele>388</ele>
        <time>2016-03-19T08:48:48.148Z</time>
      </trkpt>
      <trkpt lat="43.67218" lon="5.74663">
        <ele>388</ele>
        <time>2016-03-19T08:48:49.133Z</time>
      </trkpt>
      <trkpt lat="43.67215" lon="5.74674">
        <ele>390</ele>
        <time>2016-03-19T08:48:56.147Z</time>
      </trkpt>
      <trkpt lat="43.67214" lon="5.74675">
        <ele>390</ele>
        <time>2016-03-19T08:48:57.122Z</time>
      </trkpt>
      <trkpt lat="43.67209" lon="5.74685">
        <ele>390</ele>
        <time>2016-03-19T08:49:04.143Z</time>
      </trkpt>
      <trkpt lat="43.67209" lon="5.74686">
        <ele>392</ele>
        <time>2016-03-19T08:49:05.121Z</time>
      </trkpt>
      <trkpt lat="43.67204" lon="5.74696">
        <ele>392</ele>
        <time>2016-03-19T08:49:12.145Z</time>
      </trkpt>
      <trkpt lat="43.67204" lon="5.74697">
        <ele>394</ele>
        <time>2016-03-19T08:49:13.121Z</time>
      </trkpt>
      <trkpt lat="43.672" lon="5.74708">
        <ele>393</ele>
        <time>2016-03-19T08:49:20.147Z</time>
      </trkpt>
      <trkpt lat="43.67199" lon="5.74709">
        <ele>393</ele>
        <time>2016-03-19T08:49:21.122Z</time>
      </trkpt>
      <trkpt lat="43.67194" lon="5.74719">
        <ele>393</ele>
        <time>2016-03-19T08:49:28.148Z</time>
      </trkpt>
      <trkpt lat="43.67193" lon="5.74721">
        <ele>393</ele>
        <time>2016-03-19T08:49:29.122Z</time>
      </trkpt>
      <trkpt lat="43.67191" lon="5.74732">
        <ele>395</ele>
        <time>2016-03-19T08:49:36.149Z</time>
      </trkpt>
      <trkpt lat="43.6719" lon="5.74733">
        <ele>395</ele>
        <time>2016-03-19T08:49:37.124Z</time>
      </trkpt>
      <trkpt lat="43.67188" lon="5.74745">
        <ele>396</ele>
        <time>2016-03-19T08:49:45.144Z</time>
      </trkpt>
      <trkpt lat="43.67188" lon="5.74746">
        <ele>395</ele>
        <time>2016-03-19T08:49:46.119Z</time>
      </trkpt>
      <trkpt lat="43.67184" lon="5.74756">
        <ele>396</ele>
        <time>2016-03-19T08:49:53.148Z</time>
      </trkpt>
      <trkpt lat="43.67183" lon="5.74758">
        <ele>396</ele>
        <time>2016-03-19T08:49:54.148Z</time>
      </trkpt>
      <trkpt lat="43.67179" lon="5.74766">
        <ele>396</ele>
        <time>2016-03-19T08:50:06.159Z</time>
      </trkpt>
      <trkpt lat="43.67178" lon="5.74769">
        <ele>397</ele>
        <time>2016-03-19T08:50:07.117Z</time>
      </trkpt>
      <trkpt lat="43.67175" lon="5.74778">
        <ele>397</ele>
        <time>2016-03-19T08:50:11.380Z</time>
      </trkpt>
      <trkpt lat="43.67174" lon="5.7478">
        <ele>397</ele>
        <time>2016-03-19T08:50:12.119Z</time>
      </trkpt>
      <trkpt lat="43.67173" lon="5.74793">
        <ele>398</ele>
        <time>2016-03-19T08:50:19.147Z</time>
      </trkpt>
      <trkpt lat="43.67173" lon="5.74794">
        <ele>398</ele>
        <time>2016-03-19T08:50:20.125Z</time>
      </trkpt>
      <trkpt lat="43.6717" lon="5.74805">
        <ele>400</ele>
        <time>2016-03-19T08:50:28.147Z</time>
      </trkpt>
      <trkpt lat="43.6717" lon="5.74806">
        <ele>400</ele>
        <time>2016-03-19T08:50:29.122Z</time>
      </trkpt>
      <trkpt lat="43.67166" lon="5.74816">
        <ele>401</ele>
        <time>2016-03-19T08:50:36.143Z</time>
      </trkpt>
      <trkpt lat="43.67166" lon="5.74818">
        <ele>401</ele>
        <time>2016-03-19T08:50:37.118Z</time>
      </trkpt>
      <trkpt lat="43.67162" lon="5.74829">
        <ele>400</ele>
        <time>2016-03-19T08:50:44.143Z</time>
      </trkpt>
      <trkpt lat="43.67161" lon="5.74831">
        <ele>399</ele>
        <time>2016-03-19T08:50:45.121Z</time>
      </trkpt>
      <trkpt lat="43.67159" lon="5.74841">
        <ele>403</ele>
        <time>2016-03-19T08:50:52.143Z</time>
      </trkpt>
      <trkpt lat="43.67158" lon="5.74842">
        <ele>404</ele>
        <time>2016-03-19T08:50:53.123Z</time>
      </trkpt>
      <trkpt lat="43.67155" lon="5.74853">
        <ele>407</ele>
        <time>2016-03-19T08:51:01.147Z</time>
      </trkpt>
      <trkpt lat="43.67154" lon="5.74854">
        <ele>407</ele>
        <time>2016-03-19T08:51:02.122Z</time>
      </trkpt>
      <trkpt lat="43.6715" lon="5.74865">
        <ele>408</ele>
        <time>2016-03-19T08:51:09.147Z</time>
      </trkpt>
      <trkpt lat="43.67149" lon="5.74866">
        <ele>408</ele>
        <time>2016-03-19T08:51:10.122Z</time>
      </trkpt>
      <trkpt lat="43.67144" lon="5.74874">
        <ele>409</ele>
        <time>2016-03-19T08:51:17.147Z</time>
      </trkpt>
      <trkpt lat="43.67143" lon="5.74875">
        <ele>409</ele>
        <time>2016-03-19T08:51:18.123Z</time>
      </trkpt>
      <trkpt lat="43.67137" lon="5.74883">
        <ele>410</ele>
        <time>2016-03-19T08:51:26.158Z</time>
      </trkpt>
      <trkpt lat="43.67136" lon="5.74884">
        <ele>410</ele>
        <time>2016-03-19T08:51:27.122Z</time>
      </trkpt>
      <trkpt lat="43.6713" lon="5.74892">
        <ele>412</ele>
        <time>2016-03-19T08:51:36.149Z</time>
      </trkpt>
      <trkpt lat="43.6713" lon="5.74893">
        <ele>412</ele>
        <time>2016-03-19T08:51:37.122Z</time>
      </trkpt>
      <trkpt lat="43.67123" lon="5.74901">
        <ele>411</ele>
        <time>2016-03-19T08:51:45.149Z</time>
      </trkpt>
      <trkpt lat="43.67122" lon="5.74902">
        <ele>412</ele>
        <time>2016-03-19T08:51:46.154Z</time>
      </trkpt>
      <trkpt lat="43.67115" lon="5.74908">
        <ele>415</ele>
        <time>2016-03-19T08:51:55.146Z</time>
      </trkpt>
      <trkpt lat="43.67114" lon="5.74909">
        <ele>415</ele>
        <time>2016-03-19T08:51:56.120Z</time>
      </trkpt>
      <trkpt lat="43.67107" lon="5.74916">
        <ele>417</ele>
        <time>2016-03-19T08:52:04.144Z</time>
      </trkpt>
      <trkpt lat="43.67106" lon="5.74917">
        <ele>417</ele>
        <time>2016-03-19T08:52:05.123Z</time>
      </trkpt>
      <trkpt lat="43.67098" lon="5.74923">
        <ele>416</ele>
        <time>2016-03-19T08:52:12.148Z</time>
      </trkpt>
      <trkpt lat="43.67097" lon="5.74924">
        <ele>416</ele>
        <time>2016-03-19T08:52:13.121Z</time>
      </trkpt>
      <trkpt lat="43.67091" lon="5.74932">
        <ele>420</ele>
        <time>2016-03-19T08:52:21.350Z</time>
      </trkpt>
      <trkpt lat="43.6709" lon="5.74933">
        <ele>420</ele>
        <time>2016-03-19T08:52:22.124Z</time>
      </trkpt>
      <trkpt lat="43.67084" lon="5.74941">
        <ele>420</ele>
        <time>2016-03-19T08:52:30.149Z</time>
      </trkpt>
      <trkpt lat="43.67083" lon="5.74942">
        <ele>420</ele>
        <time>2016-03-19T08:52:31.123Z</time>
      </trkpt>
      <trkpt lat="43.67076" lon="5.74949">
        <ele>422</ele>
        <time>2016-03-19T08:52:39.145Z</time>
      </trkpt>
      <trkpt lat="43.67074" lon="5.7495">
        <ele>423</ele>
        <time>2016-03-19T08:52:40.123Z</time>
      </trkpt>
      <trkpt lat="43.67068" lon="5.74957">
        <ele>425</ele>
        <time>2016-03-19T08:52:46.235Z</time>
      </trkpt>
      <trkpt lat="43.67067" lon="5.74958">
        <ele>426</ele>
        <time>2016-03-19T08:52:47.121Z</time>
      </trkpt>
      <trkpt lat="43.67059" lon="5.74963">
        <ele>425</ele>
        <time>2016-03-19T08:52:54.147Z</time>
      </trkpt>
      <trkpt lat="43.67058" lon="5.74964">
        <ele>424</ele>
        <time>2016-03-19T08:52:55.122Z</time>
      </trkpt>
      <trkpt lat="43.67051" lon="5.74972">
        <ele>424</ele>
        <time>2016-03-19T08:53:02.137Z</time>
      </trkpt>
      <trkpt lat="43.6705" lon="5.74973">
        <ele>425</ele>
        <time>2016-03-19T08:53:03.123Z</time>
      </trkpt>
      <trkpt lat="43.67043" lon="5.7498">
        <ele>426</ele>
        <time>2016-03-19T08:53:11.159Z</time>
      </trkpt>
      <trkpt lat="43.67042" lon="5.74981">
        <ele>427</ele>
        <time>2016-03-19T08:53:12.122Z</time>
      </trkpt>
      <trkpt lat="43.67036" lon="5.74989">
        <ele>430</ele>
        <time>2016-03-19T08:53:20.145Z</time>
      </trkpt>
      <trkpt lat="43.67035" lon="5.74989">
        <ele>430</ele>
        <time>2016-03-19T08:53:21.122Z</time>
      </trkpt>
      <trkpt lat="43.67029" lon="5.74998">
        <ele>433</ele>
        <time>2016-03-19T08:53:30.148Z</time>
      </trkpt>
      <trkpt lat="43.67029" lon="5.74999">
        <ele>433</ele>
        <time>2016-03-19T08:53:31.123Z</time>
      </trkpt>
      <trkpt lat="43.67023" lon="5.75007">
        <ele>433</ele>
        <time>2016-03-19T08:53:38.148Z</time>
      </trkpt>
      <trkpt lat="43.67022" lon="5.75008">
        <ele>432</ele>
        <time>2016-03-19T08:53:39.346Z</time>
      </trkpt>
      <trkpt lat="43.67017" lon="5.75018">
        <ele>433</ele>
        <time>2016-03-19T08:53:46.148Z</time>
      </trkpt>
      <trkpt lat="43.67016" lon="5.75019">
        <ele>433</ele>
        <time>2016-03-19T08:53:47.124Z</time>
      </trkpt>
      <trkpt lat="43.67012" lon="5.75029">
        <ele>434</ele>
        <time>2016-03-19T08:53:54.148Z</time>
      </trkpt>
      <trkpt lat="43.67012" lon="5.75031">
        <ele>435</ele>
        <time>2016-03-19T08:53:55.123Z</time>
      </trkpt>
      <trkpt lat="43.6701" lon="5.75041">
        <ele>435</ele>
        <time>2016-03-19T08:54:01.144Z</time>
      </trkpt>
      <trkpt lat="43.67009" lon="5.75043">
        <ele>434</ele>
        <time>2016-03-19T08:54:02.122Z</time>
      </trkpt>
      <trkpt lat="43.67007" lon="5.75054">
        <ele>435</ele>
        <time>2016-03-19T08:54:09.143Z</time>
      </trkpt>
      <trkpt lat="43.67007" lon="5.75055">
        <ele>435</ele>
        <time>2016-03-19T08:54:10.149Z</time>
      </trkpt>
      <trkpt lat="43.67004" lon="5.75067">
        <ele>433</ele>
        <time>2016-03-19T08:54:17.362Z</time>
      </trkpt>
      <trkpt lat="43.67003" lon="5.75068">
        <ele>433</ele>
        <time>2016-03-19T08:54:18.123Z</time>
      </trkpt>
      <trkpt lat="43.67" lon="5.75079">
        <ele>432</ele>
        <time>2016-03-19T08:54:24.148Z</time>
      </trkpt>
      <trkpt lat="43.67" lon="5.7508">
        <ele>433</ele>
        <time>2016-03-19T08:54:25.124Z</time>
      </trkpt>
      <trkpt lat="43.66998" lon="5.75091">
        <ele>434</ele>
        <time>2016-03-19T08:54:32.149Z</time>
      </trkpt>
      <trkpt lat="43.66998" lon="5.75093">
        <ele>435</ele>
        <time>2016-03-19T08:54:33.123Z</time>
      </trkpt>
      <trkpt lat="43.66996" lon="5.75105">
        <ele>435</ele>
        <time>2016-03-19T08:54:40.152Z</time>
      </trkpt>
      <trkpt lat="43.66996" lon="5.75107">
        <ele>435</ele>
        <time>2016-03-19T08:54:41.123Z</time>
      </trkpt>
      <trkpt lat="43.66993" lon="5.75117">
        <ele>436</ele>
        <time>2016-03-19T08:54:47.151Z</time>
      </trkpt>
      <trkpt lat="43.66992" lon="5.75119">
        <ele>435</ele>
        <time>2016-03-19T08:54:48.135Z</time>
      </trkpt>
      <trkpt lat="43.66987" lon="5.75129">
        <ele>437</ele>
        <time>2016-03-19T08:54:55.160Z</time>
      </trkpt>
      <trkpt lat="43.66986" lon="5.7513">
        <ele>437</ele>
        <time>2016-03-19T08:54:56.124Z</time>
      </trkpt>
      <trkpt lat="43.66981" lon="5.7514">
        <ele>440</ele>
        <time>2016-03-19T08:55:03.148Z</time>
      </trkpt>
      <trkpt lat="43.66981" lon="5.75141">
        <ele>440</ele>
        <time>2016-03-19T08:55:04.124Z</time>
      </trkpt>
      <trkpt lat="43.6698" lon="5.75152">
        <ele>439</ele>
        <time>2016-03-19T08:55:10.149Z</time>
      </trkpt>
      <trkpt lat="43.6698" lon="5.75154">
        <ele>439</ele>
        <time>2016-03-19T08:55:11.128Z</time>
      </trkpt>
      <trkpt lat="43.66979" lon="5.75165">
        <ele>439</ele>
        <time>2016-03-19T08:55:16.149Z</time>
      </trkpt>
      <trkpt lat="43.66978" lon="5.75167">
        <ele>439</ele>
        <time>2016-03-19T08:55:17.123Z</time>
      </trkpt>
      <trkpt lat="43.66978" lon="5.75178">
        <ele>439</ele>
        <time>2016-03-19T08:55:22.158Z</time>
      </trkpt>
      <trkpt lat="43.66978" lon="5.7518">
        <ele>440</ele>
        <time>2016-03-19T08:55:23.124Z</time>
      </trkpt>
      <trkpt lat="43.66976" lon="5.7519">
        <ele>441</ele>
        <time>2016-03-19T08:55:28.149Z</time>
      </trkpt>
      <trkpt lat="43.66975" lon="5.75192">
        <ele>441</ele>
        <time>2016-03-19T08:55:29.133Z</time>
      </trkpt>
      <trkpt lat="43.66973" lon="5.75203">
        <ele>441</ele>
        <time>2016-03-19T08:55:34.160Z</time>
      </trkpt>
      <trkpt lat="43.66972" lon="5.75205">
        <ele>441</ele>
        <time>2016-03-19T08:55:35.123Z</time>
      </trkpt>
      <trkpt lat="43.66969" lon="5.75216">
        <ele>441</ele>
        <time>2016-03-19T08:55:41.149Z</time>
      </trkpt>
      <trkpt lat="43.66968" lon="5.75218">
        <ele>441</ele>
        <time>2016-03-19T08:55:42.124Z</time>
      </trkpt>
      <trkpt lat="43.66965" lon="5.75229">
        <ele>442</ele>
        <time>2016-03-19T08:55:48.149Z</time>
      </trkpt>
      <trkpt lat="43.66965" lon="5.75231">
        <ele>442</ele>
        <time>2016-03-19T08:55:49.124Z</time>
      </trkpt>
      <trkpt lat="43.66966" lon="5.75241">
        <ele>442</ele>
        <time>2016-03-19T08:55:53.149Z</time>
      </trkpt>
      <trkpt lat="43.66967" lon="5.75243">
        <ele>442</ele>
        <time>2016-03-19T08:55:54.124Z</time>
      </trkpt>
      <trkpt lat="43.66973" lon="5.75251">
        <ele>442</ele>
        <time>2016-03-19T08:55:58.160Z</time>
      </trkpt>
      <trkpt lat="43.66974" lon="5.75252">
        <ele>442</ele>
        <time>2016-03-19T08:55:59.124Z</time>
      </trkpt>
      <trkpt lat="43.6698" lon="5.75262">
        <ele>442</ele>
        <time>2016-03-19T08:56:04.150Z</time>
      </trkpt>
      <trkpt lat="43.66981" lon="5.75263">
        <ele>441</ele>
        <time>2016-03-19T08:56:05.124Z</time>
      </trkpt>
      <trkpt lat="43.66987" lon="5.75272">
        <ele>443</ele>
        <time>2016-03-19T08:56:10.149Z</time>
      </trkpt>
      <trkpt lat="43.66988" lon="5.75274">
        <ele>442</ele>
        <time>2016-03-19T08:56:11.123Z</time>
      </trkpt>
      <trkpt lat="43.66995" lon="5.75281">
        <ele>444</ele>
        <time>2016-03-19T08:56:16.161Z</time>
      </trkpt>
      <trkpt lat="43.66997" lon="5.75283">
        <ele>442</ele>
        <time>2016-03-19T08:56:17.123Z</time>
      </trkpt>
      <trkpt lat="43.67004" lon="5.75289">
        <ele>443</ele>
        <time>2016-03-19T08:56:22.145Z</time>
      </trkpt>
      <trkpt lat="43.67006" lon="5.75289">
        <ele>443</ele>
        <time>2016-03-19T08:56:23.124Z</time>
      </trkpt>
      <trkpt lat="43.67013" lon="5.75293">
        <ele>443</ele>
        <time>2016-03-19T08:56:27.149Z</time>
      </trkpt>
      <trkpt lat="43.67015" lon="5.75293">
        <ele>443</ele>
        <time>2016-03-19T08:56:28.123Z</time>
      </trkpt>
      <trkpt lat="43.67022" lon="5.75297">
        <ele>444</ele>
        <time>2016-03-19T08:56:32.149Z</time>
      </trkpt>
      <trkpt lat="43.67024" lon="5.75298">
        <ele>444</ele>
        <time>2016-03-19T08:56:33.124Z</time>
      </trkpt>
      <trkpt lat="43.67031" lon="5.75303">
        <ele>444</ele>
        <time>2016-03-19T08:56:37.162Z</time>
      </trkpt>
      <trkpt lat="43.67033" lon="5.75304">
        <ele>444</ele>
        <time>2016-03-19T08:56:38.125Z</time>
      </trkpt>
      <trkpt lat="43.67039" lon="5.75311">
        <ele>445</ele>
        <time>2016-03-19T08:56:42.153Z</time>
      </trkpt>
      <trkpt lat="43.6704" lon="5.75313">
        <ele>445</ele>
        <time>2016-03-19T08:56:43.123Z</time>
      </trkpt>
      <trkpt lat="43.67044" lon="5.75323">
        <ele>445</ele>
        <time>2016-03-19T08:56:47.148Z</time>
      </trkpt>
      <trkpt lat="43.67045" lon="5.75325">
        <ele>445</ele>
        <time>2016-03-19T08:56:48.124Z</time>
      </trkpt>
      <trkpt lat="43.67048" lon="5.75336">
        <ele>445</ele>
        <time>2016-03-19T08:56:52.149Z</time>
      </trkpt>
      <trkpt lat="43.67048" lon="5.75339">
        <ele>445</ele>
        <time>2016-03-19T08:56:53.124Z</time>
      </trkpt>
      <trkpt lat="43.6705" lon="5.7535">
        <ele>445</ele>
        <time>2016-03-19T08:56:57.150Z</time>
      </trkpt>
      <trkpt lat="43.6705" lon="5.75352">
        <ele>445</ele>
        <time>2016-03-19T08:56:58.123Z</time>
      </trkpt>
      <trkpt lat="43.6705" lon="5.75365">
        <ele>446</ele>
        <time>2016-03-19T08:57:02.210Z</time>
      </trkpt>
      <trkpt lat="43.6705" lon="5.75368">
        <ele>447</ele>
        <time>2016-03-19T08:57:03.122Z</time>
      </trkpt>
      <trkpt lat="43.67049" lon="5.75378">
        <ele>447</ele>
        <time>2016-03-19T08:57:06.145Z</time>
      </trkpt>
      <trkpt lat="43.67049" lon="5.75382">
        <ele>447</ele>
        <time>2016-03-19T08:57:07.123Z</time>
      </trkpt>
      <trkpt lat="43.67047" lon="5.75393">
        <ele>448</ele>
        <time>2016-03-19T08:57:10.150Z</time>
      </trkpt>
      <trkpt lat="43.67047" lon="5.75396">
        <ele>448</ele>
        <time>2016-03-19T08:57:11.123Z</time>
      </trkpt>
      <trkpt lat="43.67047" lon="5.75408">
        <ele>447</ele>
        <time>2016-03-19T08:57:14.148Z</time>
      </trkpt>
      <trkpt lat="43.67048" lon="5.75412">
        <ele>447</ele>
        <time>2016-03-19T08:57:15.124Z</time>
      </trkpt>
      <trkpt lat="43.6705" lon="5.7542">
        <ele>447</ele>
        <time>2016-03-19T08:57:17.148Z</time>
      </trkpt>
      <trkpt lat="43.67051" lon="5.75424">
        <ele>447</ele>
        <time>2016-03-19T08:57:18.120Z</time>
      </trkpt>
      <trkpt lat="43.67055" lon="5.75432">
        <ele>448</ele>
        <time>2016-03-19T08:57:20.149Z</time>
      </trkpt>
      <trkpt lat="43.67057" lon="5.75435">
        <ele>448</ele>
        <time>2016-03-19T08:57:21.124Z</time>
      </trkpt>
      <trkpt lat="43.6706" lon="5.75442">
        <ele>447</ele>
        <time>2016-03-19T08:57:23.177Z</time>
      </trkpt>
      <trkpt lat="43.67062" lon="5.75445">
        <ele>447</ele>
        <time>2016-03-19T08:57:24.133Z</time>
      </trkpt>
      <trkpt lat="43.67066" lon="5.75452">
        <ele>447</ele>
        <time>2016-03-19T08:57:26.148Z</time>
      </trkpt>
      <trkpt lat="43.67068" lon="5.75455">
        <ele>447</ele>
        <time>2016-03-19T08:57:27.126Z</time>
      </trkpt>
      <trkpt lat="43.67072" lon="5.75462">
        <ele>447</ele>
        <time>2016-03-19T08:57:29.150Z</time>
      </trkpt>
      <trkpt lat="43.67073" lon="5.75466">
        <ele>447</ele>
        <time>2016-03-19T08:57:30.124Z</time>
      </trkpt>
      <trkpt lat="43.67077" lon="5.75473">
        <ele>447</ele>
        <time>2016-03-19T08:57:32.158Z</time>
      </trkpt>
      <trkpt lat="43.67079" lon="5.75476">
        <ele>447</ele>
        <time>2016-03-19T08:57:33.123Z</time>
      </trkpt>
      <trkpt lat="43.67084" lon="5.75486">
        <ele>447</ele>
        <time>2016-03-19T08:57:36.224Z</time>
      </trkpt>
      <trkpt lat="43.67086" lon="5.75489">
        <ele>447</ele>
        <time>2016-03-19T08:57:37.125Z</time>
      </trkpt>
      <trkpt lat="43.67093" lon="5.75497">
        <ele>446</ele>
        <time>2016-03-19T08:58:04.204Z</time>
      </trkpt>
      <trkpt lat="43.67094" lon="5.75498">
        <ele>446</ele>
        <time>2016-03-19T08:58:05.125Z</time>
      </trkpt>
      <trkpt lat="43.671" lon="5.75504">
        <ele>448</ele>
        <time>2016-03-19T08:58:09.151Z</time>
      </trkpt>
      <trkpt lat="43.67102" lon="5.75506">
        <ele>449</ele>
        <time>2016-03-19T08:58:10.124Z</time>
      </trkpt>
      <trkpt lat="43.67109" lon="5.75508">
        <ele>449</ele>
        <time>2016-03-19T08:58:14.149Z</time>
      </trkpt>
      <trkpt lat="43.67111" lon="5.75508">
        <ele>449</ele>
        <time>2016-03-19T08:58:15.124Z</time>
      </trkpt>
      <trkpt lat="43.67119" lon="5.75506">
        <ele>448</ele>
        <time>2016-03-19T08:58:19.150Z</time>
      </trkpt>
      <trkpt lat="43.6712" lon="5.75505">
        <ele>448</ele>
        <time>2016-03-19T08:58:20.124Z</time>
      </trkpt>
      <trkpt lat="43.67127" lon="5.75498">
        <ele>447</ele>
        <time>2016-03-19T08:58:25.149Z</time>
      </trkpt>
      <trkpt lat="43.67129" lon="5.75497">
        <ele>447</ele>
        <time>2016-03-19T08:58:26.124Z</time>
      </trkpt>
      <trkpt lat="43.67135" lon="5.75489">
        <ele>448</ele>
        <time>2016-03-19T08:58:31.150Z</time>
      </trkpt>
      <trkpt lat="43.67136" lon="5.75486">
        <ele>448</ele>
        <time>2016-03-19T08:58:32.125Z</time>
      </trkpt>
      <trkpt lat="43.6714" lon="5.75478">
        <ele>447</ele>
        <time>2016-03-19T08:58:35.150Z</time>
      </trkpt>
      <trkpt lat="43.67142" lon="5.75475">
        <ele>447</ele>
        <time>2016-03-19T08:58:36.123Z</time>
      </trkpt>
      <trkpt lat="43.67148" lon="5.7547">
        <ele>448</ele>
        <time>2016-03-19T08:58:39.151Z</time>
      </trkpt>
      <trkpt lat="43.67151" lon="5.75469">
        <ele>448</ele>
        <time>2016-03-19T08:58:40.126Z</time>
      </trkpt>
      <trkpt lat="43.67158" lon="5.75466">
        <ele>448</ele>
        <time>2016-03-19T08:58:43.178Z</time>
      </trkpt>
      <trkpt lat="43.6716" lon="5.75466">
        <ele>448</ele>
        <time>2016-03-19T08:58:44.124Z</time>
      </trkpt>
      <trkpt lat="43.67168" lon="5.75465">
        <ele>447</ele>
        <time>2016-03-19T08:58:49.150Z</time>
      </trkpt>
      <trkpt lat="43.67169" lon="5.75466">
        <ele>447</ele>
        <time>2016-03-19T08:58:50.124Z</time>
      </trkpt>
      <trkpt lat="43.67172" lon="5.75477">
        <ele>447</ele>
        <time>2016-03-19T08:59:41.144Z</time>
      </trkpt>
      <trkpt lat="43.67172" lon="5.75478">
        <ele>447</ele>
        <time>2016-03-19T08:59:42.123Z</time>
      </trkpt>
      <trkpt lat="43.67174" lon="5.75487">
        <ele>444</ele>
        <time>2016-03-19T09:03:04.162Z</time>
      </trkpt>
      <trkpt lat="43.67175" lon="5.75489">
        <ele>444</ele>
        <time>2016-03-19T09:03:05.128Z</time>
      </trkpt>
      <trkpt lat="43.67177" lon="5.75499">
        <ele>444</ele>
        <time>2016-03-19T09:03:08.160Z</time>
      </trkpt>
      <trkpt lat="43.67178" lon="5.75501">
        <ele>444</ele>
        <time>2016-03-19T09:03:09.125Z</time>
      </trkpt>
      <trkpt lat="43.67183" lon="5.7551">
        <ele>444</ele>
        <time>2016-03-19T09:03:13.178Z</time>
      </trkpt>
      <trkpt lat="43.67186" lon="5.75511">
        <ele>444</ele>
        <time>2016-03-19T09:03:14.128Z</time>
      </trkpt>
      <trkpt lat="43.67195" lon="5.75508">
        <ele>443</ele>
        <time>2016-03-19T09:03:16.151Z</time>
      </trkpt>
      <trkpt lat="43.672" lon="5.75502">
        <ele>442</ele>
        <time>2016-03-19T09:03:17.125Z</time>
      </trkpt>
      <trkpt lat="43.67204" lon="5.75499">
        <ele>442</ele>
        <time>2016-03-19T09:03:18.150Z</time>
      </trkpt>
      <trkpt lat="43.67209" lon="5.75495">
        <ele>442</ele>
        <time>2016-03-19T09:03:19.126Z</time>
      </trkpt>
      <trkpt lat="43.67214" lon="5.7549">
        <ele>441</ele>
        <time>2016-03-19T09:03:20.163Z</time>
      </trkpt>
      <trkpt lat="43.67217" lon="5.75484">
        <ele>441</ele>
        <time>2016-03-19T09:03:21.137Z</time>
      </trkpt>
      <trkpt lat="43.67221" lon="5.75479">
        <ele>441</ele>
        <time>2016-03-19T09:03:22.150Z</time>
      </trkpt>
      <trkpt lat="43.67225" lon="5.75474">
        <ele>441</ele>
        <time>2016-03-19T09:03:23.125Z</time>
      </trkpt>
      <trkpt lat="43.67229" lon="5.75469">
        <ele>441</ele>
        <time>2016-03-19T09:03:24.151Z</time>
      </trkpt>
      <trkpt lat="43.67232" lon="5.75463">
        <ele>441</ele>
        <time>2016-03-19T09:03:25.122Z</time>
      </trkpt>
      <trkpt lat="43.67235" lon="5.75458">
        <ele>441</ele>
        <time>2016-03-19T09:03:26.152Z</time>
      </trkpt>
      <trkpt lat="43.67238" lon="5.75453">
        <ele>440</ele>
        <time>2016-03-19T09:03:27.126Z</time>
      </trkpt>
      <trkpt lat="43.6724" lon="5.75448">
        <ele>440</ele>
        <time>2016-03-19T09:03:28.152Z</time>
      </trkpt>
      <trkpt lat="43.67243" lon="5.75443">
        <ele>441</ele>
        <time>2016-03-19T09:03:29.154Z</time>
      </trkpt>
      <trkpt lat="43.67247" lon="5.75438">
        <ele>440</ele>
        <time>2016-03-19T09:03:30.162Z</time>
      </trkpt>
      <trkpt lat="43.6725" lon="5.75433">
        <ele>440</ele>
        <time>2016-03-19T09:03:31.125Z</time>
      </trkpt>
      <trkpt lat="43.67252" lon="5.75428">
        <ele>440</ele>
        <time>2016-03-19T09:03:32.151Z</time>
      </trkpt>
      <trkpt lat="43.67255" lon="5.75423">
        <ele>440</ele>
        <time>2016-03-19T09:03:33.125Z</time>
      </trkpt>
      <trkpt lat="43.67258" lon="5.75417">
        <ele>441</ele>
        <time>2016-03-19T09:03:34.151Z</time>
      </trkpt>
      <trkpt lat="43.67261" lon="5.75412">
        <ele>441</ele>
        <time>2016-03-19T09:03:35.125Z</time>
      </trkpt>
      <trkpt lat="43.67264" lon="5.75406">
        <ele>441</ele>
        <time>2016-03-19T09:03:36.434Z</time>
      </trkpt>
      <trkpt lat="43.67267" lon="5.75402">
        <ele>441</ele>
        <time>2016-03-19T09:03:37.121Z</time>
      </trkpt>
      <trkpt lat="43.6727" lon="5.75396">
        <ele>441</ele>
        <time>2016-03-19T09:03:38.150Z</time>
      </trkpt>
      <trkpt lat="43.67273" lon="5.75391">
        <ele>441</ele>
        <time>2016-03-19T09:03:39.126Z</time>
      </trkpt>
      <trkpt lat="43.67275" lon="5.75385">
        <ele>441</ele>
        <time>2016-03-19T09:03:40.151Z</time>
      </trkpt>
      <trkpt lat="43.67279" lon="5.75379">
        <ele>440</ele>
        <time>2016-03-19T09:03:41.127Z</time>
      </trkpt>
      <trkpt lat="43.67281" lon="5.75374">
        <ele>441</ele>
        <time>2016-03-19T09:03:42.151Z</time>
      </trkpt>
      <trkpt lat="43.67285" lon="5.75369">
        <ele>441</ele>
        <time>2016-03-19T09:03:43.135Z</time>
      </trkpt>
      <trkpt lat="43.67288" lon="5.75363">
        <ele>441</ele>
        <time>2016-03-19T09:03:44.152Z</time>
      </trkpt>
      <trkpt lat="43.6729" lon="5.75359">
        <ele>441</ele>
        <time>2016-03-19T09:03:45.168Z</time>
      </trkpt>
      <trkpt lat="43.67296" lon="5.75349">
        <ele>440</ele>
        <time>2016-03-19T09:03:47.141Z</time>
      </trkpt>
      <trkpt lat="43.67298" lon="5.75345">
        <ele>440</ele>
        <time>2016-03-19T09:03:48.125Z</time>
      </trkpt>
      <trkpt lat="43.67303" lon="5.75337">
        <ele>441</ele>
        <time>2016-03-19T09:03:50.146Z</time>
      </trkpt>
      <trkpt lat="43.67305" lon="5.75332">
        <ele>440</ele>
        <time>2016-03-19T09:03:51.123Z</time>
      </trkpt>
      <trkpt lat="43.67311" lon="5.75323">
        <ele>441</ele>
        <time>2016-03-19T09:03:53.153Z</time>
      </trkpt>
      <trkpt lat="43.67313" lon="5.75319">
        <ele>440</ele>
        <time>2016-03-19T09:03:54.131Z</time>
      </trkpt>
      <trkpt lat="43.67319" lon="5.7531">
        <ele>440</ele>
        <time>2016-03-19T09:03:56.170Z</time>
      </trkpt>
      <trkpt lat="43.67323" lon="5.75304">
        <ele>440</ele>
        <time>2016-03-19T09:03:57.124Z</time>
      </trkpt>
      <trkpt lat="43.67325" lon="5.75298">
        <ele>439</ele>
        <time>2016-03-19T09:03:58.170Z</time>
      </trkpt>
      <trkpt lat="43.67328" lon="5.75292">
        <ele>439</ele>
        <time>2016-03-19T09:03:59.124Z</time>
      </trkpt>
      <trkpt lat="43.67332" lon="5.75286">
        <ele>438</ele>
        <time>2016-03-19T09:04:00.143Z</time>
      </trkpt>
      <trkpt lat="43.67336" lon="5.7528">
        <ele>438</ele>
        <time>2016-03-19T09:04:01.124Z</time>
      </trkpt>
      <trkpt lat="43.67339" lon="5.75273">
        <ele>438</ele>
        <time>2016-03-19T09:04:02.158Z</time>
      </trkpt>
      <trkpt lat="43.67343" lon="5.75268">
        <ele>437</ele>
        <time>2016-03-19T09:04:03.122Z</time>
      </trkpt>
      <trkpt lat="43.67347" lon="5.7526">
        <ele>437</ele>
        <time>2016-03-19T09:04:04.141Z</time>
      </trkpt>
      <trkpt lat="43.67351" lon="5.75253">
        <ele>437</ele>
        <time>2016-03-19T09:04:05.122Z</time>
      </trkpt>
      <trkpt lat="43.67356" lon="5.75248">
        <ele>437</ele>
        <time>2016-03-19T09:04:06.147Z</time>
      </trkpt>
      <trkpt lat="43.6736" lon="5.75243">
        <ele>437</ele>
        <time>2016-03-19T09:04:07.123Z</time>
      </trkpt>
      <trkpt lat="43.67366" lon="5.75239">
        <ele>437</ele>
        <time>2016-03-19T09:04:08.152Z</time>
      </trkpt>
      <trkpt lat="43.6737" lon="5.75236">
        <ele>437</ele>
        <time>2016-03-19T09:04:09.122Z</time>
      </trkpt>
      <trkpt lat="43.67375" lon="5.75234">
        <ele>438</ele>
        <time>2016-03-19T09:04:10.184Z</time>
      </trkpt>
      <trkpt lat="43.6738" lon="5.75232">
        <ele>438</ele>
        <time>2016-03-19T09:04:11.125Z</time>
      </trkpt>
      <trkpt lat="43.67388" lon="5.75229">
        <ele>437</ele>
        <time>2016-03-19T09:04:13.147Z</time>
      </trkpt>
      <trkpt lat="43.67393" lon="5.75229">
        <ele>437</ele>
        <time>2016-03-19T09:04:14.124Z</time>
      </trkpt>
      <trkpt lat="43.67401" lon="5.75227">
        <ele>436</ele>
        <time>2016-03-19T09:04:16.148Z</time>
      </trkpt>
      <trkpt lat="43.67405" lon="5.75226">
        <ele>436</ele>
        <time>2016-03-19T09:04:17.125Z</time>
      </trkpt>
      <trkpt lat="43.67414" lon="5.75223">
        <ele>433</ele>
        <time>2016-03-19T09:04:19.144Z</time>
      </trkpt>
      <trkpt lat="43.67419" lon="5.75222">
        <ele>432</ele>
        <time>2016-03-19T09:04:20.122Z</time>
      </trkpt>
      <trkpt lat="43.67425" lon="5.7522">
        <ele>433</ele>
        <time>2016-03-19T09:04:21.145Z</time>
      </trkpt>
      <trkpt lat="43.67429" lon="5.7522">
        <ele>433</ele>
        <time>2016-03-19T09:04:22.124Z</time>
      </trkpt>
      <trkpt lat="43.67433" lon="5.75221">
        <ele>433</ele>
        <time>2016-03-19T09:04:23.152Z</time>
      </trkpt>
      <trkpt lat="43.67438" lon="5.75222">
        <ele>433</ele>
        <time>2016-03-19T09:04:24.126Z</time>
      </trkpt>
      <trkpt lat="43.67442" lon="5.75224">
        <ele>433</ele>
        <time>2016-03-19T09:04:25.153Z</time>
      </trkpt>
      <trkpt lat="43.67447" lon="5.75226">
        <ele>434</ele>
        <time>2016-03-19T09:04:26.122Z</time>
      </trkpt>
      <trkpt lat="43.67454" lon="5.7523">
        <ele>435</ele>
        <time>2016-03-19T09:04:28.180Z</time>
      </trkpt>
      <trkpt lat="43.67458" lon="5.75232">
        <ele>435</ele>
        <time>2016-03-19T09:04:29.126Z</time>
      </trkpt>
      <trkpt lat="43.67466" lon="5.75236">
        <ele>436</ele>
        <time>2016-03-19T09:04:32.150Z</time>
      </trkpt>
      <trkpt lat="43.67468" lon="5.75237">
        <ele>436</ele>
        <time>2016-03-19T09:04:33.126Z</time>
      </trkpt>
      <trkpt lat="43.67476" lon="5.75238">
        <ele>437</ele>
        <time>2016-03-19T09:04:36.200Z</time>
      </trkpt>
      <trkpt lat="43.67479" lon="5.75238">
        <ele>438</ele>
        <time>2016-03-19T09:04:37.126Z</time>
      </trkpt>
      <trkpt lat="43.67485" lon="5.75237">
        <ele>438</ele>
        <time>2016-03-19T09:04:39.151Z</time>
      </trkpt>
      <trkpt lat="43.67488" lon="5.75236">
        <ele>438</ele>
        <time>2016-03-19T09:04:40.126Z</time>
      </trkpt>
      <trkpt lat="43.67495" lon="5.75232">
        <ele>439</ele>
        <time>2016-03-19T09:04:42.253Z</time>
      </trkpt>
      <trkpt lat="43.67498" lon="5.75229">
        <ele>439</ele>
        <time>2016-03-19T09:04:43.123Z</time>
      </trkpt>
      <trkpt lat="43.67502" lon="5.75222">
        <ele>439</ele>
        <time>2016-03-19T09:04:45.153Z</time>
      </trkpt>
      <trkpt lat="43.67505" lon="5.75218">
        <ele>439</ele>
        <time>2016-03-19T09:04:46.126Z</time>
      </trkpt>
      <trkpt lat="43.67509" lon="5.75211">
        <ele>439</ele>
        <time>2016-03-19T09:04:48.152Z</time>
      </trkpt>
      <trkpt lat="43.67511" lon="5.75208">
        <ele>438</ele>
        <time>2016-03-19T09:04:49.121Z</time>
      </trkpt>
      <trkpt lat="43.67516" lon="5.75201">
        <ele>439</ele>
        <time>2016-03-19T09:04:51.151Z</time>
      </trkpt>
      <trkpt lat="43.67518" lon="5.75197">
        <ele>438</ele>
        <time>2016-03-19T09:04:52.126Z</time>
      </trkpt>
      <trkpt lat="43.67523" lon="5.75189">
        <ele>438</ele>
        <time>2016-03-19T09:04:54.183Z</time>
      </trkpt>
      <trkpt lat="43.67526" lon="5.75184">
        <ele>439</ele>
        <time>2016-03-19T09:04:55.153Z</time>
      </trkpt>
      <trkpt lat="43.67531" lon="5.75175">
        <ele>439</ele>
        <time>2016-03-19T09:04:57.150Z</time>
      </trkpt>
      <trkpt lat="43.67534" lon="5.75171">
        <ele>439</ele>
        <time>2016-03-19T09:04:58.125Z</time>
      </trkpt>
      <trkpt lat="43.67539" lon="5.75164">
        <ele>439</ele>
        <time>2016-03-19T09:05:00.153Z</time>
      </trkpt>
      <trkpt lat="43.67542" lon="5.75161">
        <ele>439</ele>
        <time>2016-03-19T09:05:01.126Z</time>
      </trkpt>
      <trkpt lat="43.6755" lon="5.75159">
        <ele>439</ele>
        <time>2016-03-19T09:05:06.151Z</time>
      </trkpt>
      <trkpt lat="43.67552" lon="5.75159">
        <ele>440</ele>
        <time>2016-03-19T09:05:07.139Z</time>
      </trkpt>
      <trkpt lat="43.6756" lon="5.75157">
        <ele>438</ele>
        <time>2016-03-19T09:05:14.152Z</time>
      </trkpt>
      <trkpt lat="43.67561" lon="5.75156">
        <ele>438</ele>
        <time>2016-03-19T09:05:15.127Z</time>
      </trkpt>
      <trkpt lat="43.67569" lon="5.75154">
        <ele>437</ele>
        <time>2016-03-19T09:05:19.151Z</time>
      </trkpt>
      <trkpt lat="43.67571" lon="5.75152">
        <ele>438</ele>
        <time>2016-03-19T09:05:20.124Z</time>
      </trkpt>
      <trkpt lat="43.67578" lon="5.75148">
        <ele>437</ele>
        <time>2016-03-19T09:05:23.164Z</time>
      </trkpt>
      <trkpt lat="43.6758" lon="5.75146">
        <ele>438</ele>
        <time>2016-03-19T09:05:24.126Z</time>
      </trkpt>
      <trkpt lat="43.67586" lon="5.75141">
        <ele>438</ele>
        <time>2016-03-19T09:05:27.180Z</time>
      </trkpt>
      <trkpt lat="43.67589" lon="5.75139">
        <ele>438</ele>
        <time>2016-03-19T09:05:28.126Z</time>
      </trkpt>
      <trkpt lat="43.67595" lon="5.75134">
        <ele>438</ele>
        <time>2016-03-19T09:05:31.151Z</time>
      </trkpt>
      <trkpt lat="43.67598" lon="5.75132">
        <ele>438</ele>
        <time>2016-03-19T09:05:32.126Z</time>
      </trkpt>
      <trkpt lat="43.67605" lon="5.75126">
        <ele>437</ele>
        <time>2016-03-19T09:05:35.152Z</time>
      </trkpt>
      <trkpt lat="43.67607" lon="5.75124">
        <ele>437</ele>
        <time>2016-03-19T09:05:36.127Z</time>
      </trkpt>
      <trkpt lat="43.67613" lon="5.75118">
        <ele>437</ele>
        <time>2016-03-19T09:05:38.150Z</time>
      </trkpt>
      <trkpt lat="43.67616" lon="5.75115">
        <ele>437</ele>
        <time>2016-03-19T09:05:39.138Z</time>
      </trkpt>
      <trkpt lat="43.67622" lon="5.75108">
        <ele>436</ele>
        <time>2016-03-19T09:05:41.161Z</time>
      </trkpt>
      <trkpt lat="43.67624" lon="5.75105">
        <ele>436</ele>
        <time>2016-03-19T09:05:42.129Z</time>
      </trkpt>
      <trkpt lat="43.6763" lon="5.75098">
        <ele>437</ele>
        <time>2016-03-19T09:05:44.149Z</time>
      </trkpt>
      <trkpt lat="43.67633" lon="5.75095">
        <ele>436</ele>
        <time>2016-03-19T09:05:45.127Z</time>
      </trkpt>
      <trkpt lat="43.67636" lon="5.75091">
        <ele>436</ele>
        <time>2016-03-19T09:05:46.152Z</time>
      </trkpt>
      <trkpt lat="43.67639" lon="5.75086">
        <ele>436</ele>
        <time>2016-03-19T09:05:47.126Z</time>
      </trkpt>
      <trkpt lat="43.67642" lon="5.75082">
        <ele>435</ele>
        <time>2016-03-19T09:05:48.151Z</time>
      </trkpt>
      <trkpt lat="43.67647" lon="5.75076">
        <ele>435</ele>
        <time>2016-03-19T09:05:49.127Z</time>
      </trkpt>
      <trkpt lat="43.67652" lon="5.7507">
        <ele>435</ele>
        <time>2016-03-19T09:05:50.153Z</time>
      </trkpt>
      <trkpt lat="43.67656" lon="5.75066">
        <ele>434</ele>
        <time>2016-03-19T09:05:51.127Z</time>
      </trkpt>
      <trkpt lat="43.6766" lon="5.7506">
        <ele>434</ele>
        <time>2016-03-19T09:05:52.204Z</time>
      </trkpt>
      <trkpt lat="43.67664" lon="5.75055">
        <ele>435</ele>
        <time>2016-03-19T09:05:53.126Z</time>
      </trkpt>
      <trkpt lat="43.67667" lon="5.7505">
        <ele>435</ele>
        <time>2016-03-19T09:05:54.381Z</time>
      </trkpt>
      <trkpt lat="43.67671" lon="5.75045">
        <ele>434</ele>
        <time>2016-03-19T09:05:55.123Z</time>
      </trkpt>
      <trkpt lat="43.67675" lon="5.7504">
        <ele>434</ele>
        <time>2016-03-19T09:05:56.150Z</time>
      </trkpt>
      <trkpt lat="43.67678" lon="5.75035">
        <ele>434</ele>
        <time>2016-03-19T09:05:57.125Z</time>
      </trkpt>
      <trkpt lat="43.67685" lon="5.75026">
        <ele>434</ele>
        <time>2016-03-19T09:05:59.179Z</time>
      </trkpt>
      <trkpt lat="43.67688" lon="5.75021">
        <ele>434</ele>
        <time>2016-03-19T09:06:00.130Z</time>
      </trkpt>
      <trkpt lat="43.67694" lon="5.75012">
        <ele>434</ele>
        <time>2016-03-19T09:06:02.151Z</time>
      </trkpt>
      <trkpt lat="43.67697" lon="5.75008">
        <ele>434</ele>
        <time>2016-03-19T09:06:03.127Z</time>
      </trkpt>
      <trkpt lat="43.67702" lon="5.75002">
        <ele>434</ele>
        <time>2016-03-19T09:06:05.149Z</time>
      </trkpt>
      <trkpt lat="43.67704" lon="5.75">
        <ele>434</ele>
        <time>2016-03-19T09:06:06.131Z</time>
      </trkpt>
      <trkpt lat="43.67709" lon="5.74992">
        <ele>434</ele>
        <time>2016-03-19T09:06:08.152Z</time>
      </trkpt>
      <trkpt lat="43.67711" lon="5.74989">
        <ele>433</ele>
        <time>2016-03-19T09:06:09.126Z</time>
      </trkpt>
      <trkpt lat="43.67715" lon="5.74981">
        <ele>433</ele>
        <time>2016-03-19T09:06:11.228Z</time>
      </trkpt>
      <trkpt lat="43.67717" lon="5.74977">
        <ele>433</ele>
        <time>2016-03-19T09:06:12.126Z</time>
      </trkpt>
      <trkpt lat="43.67721" lon="5.74969">
        <ele>433</ele>
        <time>2016-03-19T09:06:14.154Z</time>
      </trkpt>
      <trkpt lat="43.67723" lon="5.74964">
        <ele>433</ele>
        <time>2016-03-19T09:06:15.126Z</time>
      </trkpt>
      <trkpt lat="43.67726" lon="5.74955">
        <ele>433</ele>
        <time>2016-03-19T09:06:17.151Z</time>
      </trkpt>
      <trkpt lat="43.67726" lon="5.74951">
        <ele>434</ele>
        <time>2016-03-19T09:06:18.126Z</time>
      </trkpt>
      <trkpt lat="43.67727" lon="5.74942">
        <ele>434</ele>
        <time>2016-03-19T09:06:20.151Z</time>
      </trkpt>
      <trkpt lat="43.67727" lon="5.74938">
        <ele>433</ele>
        <time>2016-03-19T09:06:21.137Z</time>
      </trkpt>
      <trkpt lat="43.67727" lon="5.7493">
        <ele>434</ele>
        <time>2016-03-19T09:06:23.152Z</time>
      </trkpt>
      <trkpt lat="43.67727" lon="5.74925">
        <ele>433</ele>
        <time>2016-03-19T09:06:24.126Z</time>
      </trkpt>
      <trkpt lat="43.67727" lon="5.74916">
        <ele>433</ele>
        <time>2016-03-19T09:06:26.179Z</time>
      </trkpt>
      <trkpt lat="43.67727" lon="5.74912">
        <ele>433</ele>
        <time>2016-03-19T09:06:27.126Z</time>
      </trkpt>
      <trkpt lat="43.67727" lon="5.749">
        <ele>433</ele>
        <time>2016-03-19T09:06:29.151Z</time>
      </trkpt>
      <trkpt lat="43.67727" lon="5.74894">
        <ele>433</ele>
        <time>2016-03-19T09:06:30.128Z</time>
      </trkpt>
      <trkpt lat="43.67727" lon="5.74882">
        <ele>433</ele>
        <time>2016-03-19T09:06:32.151Z</time>
      </trkpt>
      <trkpt lat="43.67728" lon="5.74876">
        <ele>433</ele>
        <time>2016-03-19T09:06:33.126Z</time>
      </trkpt>
      <trkpt lat="43.67729" lon="5.74864">
        <ele>434</ele>
        <time>2016-03-19T09:06:35.151Z</time>
      </trkpt>
      <trkpt lat="43.6773" lon="5.74859">
        <ele>433</ele>
        <time>2016-03-19T09:06:36.126Z</time>
      </trkpt>
      <trkpt lat="43.67732" lon="5.74849">
        <ele>434</ele>
        <time>2016-03-19T09:06:38.162Z</time>
      </trkpt>
      <trkpt lat="43.67734" lon="5.74845">
        <ele>434</ele>
        <time>2016-03-19T09:06:39.126Z</time>
      </trkpt>
      <trkpt lat="43.67738" lon="5.74837">
        <ele>433</ele>
        <time>2016-03-19T09:06:41.151Z</time>
      </trkpt>
      <trkpt lat="43.67741" lon="5.74833">
        <ele>433</ele>
        <time>2016-03-19T09:06:42.153Z</time>
      </trkpt>
      <trkpt lat="43.67745" lon="5.74825">
        <ele>433</ele>
        <time>2016-03-19T09:06:44.151Z</time>
      </trkpt>
      <trkpt lat="43.67747" lon="5.74821">
        <ele>433</ele>
        <time>2016-03-19T09:06:45.126Z</time>
      </trkpt>
      <trkpt lat="43.67751" lon="5.74811">
        <ele>433</ele>
        <time>2016-03-19T09:06:47.152Z</time>
      </trkpt>
      <trkpt lat="43.67753" lon="5.74804">
        <ele>434</ele>
        <time>2016-03-19T09:06:48.127Z</time>
      </trkpt>
      <trkpt lat="43.67755" lon="5.74793">
        <ele>434</ele>
        <time>2016-03-19T09:06:50.152Z</time>
      </trkpt>
      <trkpt lat="43.67756" lon="5.74787">
        <ele>434</ele>
        <time>2016-03-19T09:06:51.138Z</time>
      </trkpt>
      <trkpt lat="43.67756" lon="5.74777">
        <ele>434</ele>
        <time>2016-03-19T09:06:53.180Z</time>
      </trkpt>
      <trkpt lat="43.67755" lon="5.74772">
        <ele>435</ele>
        <time>2016-03-19T09:06:54.121Z</time>
      </trkpt>
      <trkpt lat="43.67754" lon="5.74763">
        <ele>435</ele>
        <time>2016-03-19T09:06:56.155Z</time>
      </trkpt>
      <trkpt lat="43.67753" lon="5.74759">
        <ele>435</ele>
        <time>2016-03-19T09:06:57.126Z</time>
      </trkpt>
      <trkpt lat="43.6775" lon="5.7475">
        <ele>435</ele>
        <time>2016-03-19T09:06:59.338Z</time>
      </trkpt>
      <trkpt lat="43.67749" lon="5.74745">
        <ele>435</ele>
        <time>2016-03-19T09:07:00.119Z</time>
      </trkpt>
      <trkpt lat="43.67746" lon="5.74737">
        <ele>436</ele>
        <time>2016-03-19T09:07:02.148Z</time>
      </trkpt>
      <trkpt lat="43.67745" lon="5.74733">
        <ele>435</ele>
        <time>2016-03-19T09:07:03.121Z</time>
      </trkpt>
      <trkpt lat="43.67742" lon="5.74724">
        <ele>435</ele>
        <time>2016-03-19T09:07:05.147Z</time>
      </trkpt>
      <trkpt lat="43.6774" lon="5.74719">
        <ele>435</ele>
        <time>2016-03-19T09:07:06.124Z</time>
      </trkpt>
      <trkpt lat="43.67736" lon="5.74709">
        <ele>434</ele>
        <time>2016-03-19T09:07:08.147Z</time>
      </trkpt>
      <trkpt lat="43.67733" lon="5.74704">
        <ele>434</ele>
        <time>2016-03-19T09:07:09.125Z</time>
      </trkpt>
      <trkpt lat="43.67731" lon="5.74699">
        <ele>434</ele>
        <time>2016-03-19T09:07:10.157Z</time>
      </trkpt>
      <trkpt lat="43.67727" lon="5.74693">
        <ele>434</ele>
        <time>2016-03-19T09:07:11.125Z</time>
      </trkpt>
      <trkpt lat="43.67722" lon="5.74683">
        <ele>433</ele>
        <time>2016-03-19T09:07:13.148Z</time>
      </trkpt>
      <trkpt lat="43.6772" lon="5.74679">
        <ele>433</ele>
        <time>2016-03-19T09:07:14.124Z</time>
      </trkpt>
      <trkpt lat="43.67715" lon="5.74669">
        <ele>434</ele>
        <time>2016-03-19T09:07:17.146Z</time>
      </trkpt>
      <trkpt lat="43.67714" lon="5.74667">
        <ele>435</ele>
        <time>2016-03-19T09:07:18.132Z</time>
      </trkpt>
      <trkpt lat="43.6771" lon="5.74657">
        <ele>435</ele>
        <time>2016-03-19T09:07:24.147Z</time>
      </trkpt>
      <trkpt lat="43.6771" lon="5.74655">
        <ele>435</ele>
        <time>2016-03-19T09:07:25.124Z</time>
      </trkpt>
      <trkpt lat="43.6771" lon="5.74643">
        <ele>434</ele>
        <time>2016-03-19T09:07:34.346Z</time>
      </trkpt>
      <trkpt lat="43.6771" lon="5.74642">
        <ele>434</ele>
        <time>2016-03-19T09:07:35.121Z</time>
      </trkpt>
      <trkpt lat="43.67713" lon="5.74632">
        <ele>434</ele>
        <time>2016-03-19T09:07:39.147Z</time>
      </trkpt>
      <trkpt lat="43.67714" lon="5.74629">
        <ele>434</ele>
        <time>2016-03-19T09:07:40.133Z</time>
      </trkpt>
      <trkpt lat="43.67719" lon="5.74618">
        <ele>433</ele>
        <time>2016-03-19T09:07:44.147Z</time>
      </trkpt>
      <trkpt lat="43.67719" lon="5.74616">
        <ele>433</ele>
        <time>2016-03-19T09:07:45.133Z</time>
      </trkpt>
      <trkpt lat="43.67724" lon="5.74607">
        <ele>435</ele>
        <time>2016-03-19T09:08:05.181Z</time>
      </trkpt>
      <trkpt lat="43.67725" lon="5.74604">
        <ele>435</ele>
        <time>2016-03-19T09:08:06.125Z</time>
      </trkpt>
      <trkpt lat="43.67728" lon="5.74595">
        <ele>434</ele>
        <time>2016-03-19T09:08:09.142Z</time>
      </trkpt>
      <trkpt lat="43.67729" lon="5.74592">
        <ele>435</ele>
        <time>2016-03-19T09:08:10.126Z</time>
      </trkpt>
      <trkpt lat="43.67732" lon="5.74583">
        <ele>435</ele>
        <time>2016-03-19T09:08:13.148Z</time>
      </trkpt>
      <trkpt lat="43.67733" lon="5.7458">
        <ele>435</ele>
        <time>2016-03-19T09:08:14.126Z</time>
      </trkpt>
      <trkpt lat="43.67737" lon="5.74571">
        <ele>435</ele>
        <time>2016-03-19T09:08:17.150Z</time>
      </trkpt>
      <trkpt lat="43.67738" lon="5.74568">
        <ele>435</ele>
        <time>2016-03-19T09:08:18.126Z</time>
      </trkpt>
      <trkpt lat="43.6774" lon="5.74556">
        <ele>436</ele>
        <time>2016-03-19T09:08:23.371Z</time>
      </trkpt>
      <trkpt lat="43.67739" lon="5.74554">
        <ele>436</ele>
        <time>2016-03-19T09:08:24.126Z</time>
      </trkpt>
      <trkpt lat="43.67738" lon="5.74544">
        <ele>436</ele>
        <time>2016-03-19T09:08:28.152Z</time>
      </trkpt>
      <trkpt lat="43.67739" lon="5.74541">
        <ele>436</ele>
        <time>2016-03-19T09:08:29.127Z</time>
      </trkpt>
      <trkpt lat="43.67742" lon="5.74531">
        <ele>436</ele>
        <time>2016-03-19T09:08:32.151Z</time>
      </trkpt>
      <trkpt lat="43.67741" lon="5.74528">
        <ele>435</ele>
        <time>2016-03-19T09:08:33.137Z</time>
      </trkpt>
      <trkpt lat="43.67738" lon="5.74519">
        <ele>435</ele>
        <time>2016-03-19T09:08:36.162Z</time>
      </trkpt>
      <trkpt lat="43.67736" lon="5.74517">
        <ele>435</ele>
        <time>2016-03-19T09:08:37.127Z</time>
      </trkpt>
      <trkpt lat="43.6773" lon="5.74512">
        <ele>436</ele>
        <time>2016-03-19T09:08:40.139Z</time>
      </trkpt>
      <trkpt lat="43.67728" lon="5.74511">
        <ele>436</ele>
        <time>2016-03-19T09:08:41.138Z</time>
      </trkpt>
      <trkpt lat="43.67722" lon="5.74503">
        <ele>436</ele>
        <time>2016-03-19T09:08:45.153Z</time>
      </trkpt>
      <trkpt lat="43.6772" lon="5.74501">
        <ele>436</ele>
        <time>2016-03-19T09:08:46.120Z</time>
      </trkpt>
      <trkpt lat="43.67715" lon="5.74492">
        <ele>437</ele>
        <time>2016-03-19T09:08:50.150Z</time>
      </trkpt>
      <trkpt lat="43.67714" lon="5.74488">
        <ele>437</ele>
        <time>2016-03-19T09:08:51.127Z</time>
      </trkpt>
      <trkpt lat="43.67713" lon="5.74478">
        <ele>438</ele>
        <time>2016-03-19T09:08:54.153Z</time>
      </trkpt>
      <trkpt lat="43.67713" lon="5.74475">
        <ele>438</ele>
        <time>2016-03-19T09:08:55.127Z</time>
      </trkpt>
      <trkpt lat="43.67713" lon="5.74466">
        <ele>438</ele>
        <time>2016-03-19T09:08:58.163Z</time>
      </trkpt>
      <trkpt lat="43.67713" lon="5.74463">
        <ele>439</ele>
        <time>2016-03-19T09:08:59.127Z</time>
      </trkpt>
      <trkpt lat="43.67713" lon="5.74453">
        <ele>438</ele>
        <time>2016-03-19T09:09:02.151Z</time>
      </trkpt>
      <trkpt lat="43.67713" lon="5.74449">
        <ele>438</ele>
        <time>2016-03-19T09:09:03.138Z</time>
      </trkpt>
      <trkpt lat="43.67714" lon="5.7444">
        <ele>438</ele>
        <time>2016-03-19T09:09:05.152Z</time>
      </trkpt>
      <trkpt lat="43.67714" lon="5.74436">
        <ele>439</ele>
        <time>2016-03-19T09:09:06.126Z</time>
      </trkpt>
      <trkpt lat="43.67713" lon="5.74425">
        <ele>439</ele>
        <time>2016-03-19T09:09:09.151Z</time>
      </trkpt>
      <trkpt lat="43.67711" lon="5.74421">
        <ele>439</ele>
        <time>2016-03-19T09:09:10.137Z</time>
      </trkpt>
      <trkpt lat="43.67707" lon="5.74412">
        <ele>439</ele>
        <time>2016-03-19T09:09:13.162Z</time>
      </trkpt>
      <trkpt lat="43.67705" lon="5.7441">
        <ele>439</ele>
        <time>2016-03-19T09:09:14.126Z</time>
      </trkpt>
      <trkpt lat="43.67702" lon="5.74401">
        <ele>440</ele>
        <time>2016-03-19T09:09:17.152Z</time>
      </trkpt>
      <trkpt lat="43.67702" lon="5.74398">
        <ele>440</ele>
        <time>2016-03-19T09:09:18.126Z</time>
      </trkpt>
      <trkpt lat="43.67701" lon="5.74387">
        <ele>438</ele>
        <time>2016-03-19T09:09:21.151Z</time>
      </trkpt>
      <trkpt lat="43.67701" lon="5.74383">
        <ele>438</ele>
        <time>2016-03-19T09:09:22.125Z</time>
      </trkpt>
      <trkpt lat="43.677" lon="5.74374">
        <ele>439</ele>
        <time>2016-03-19T09:09:24.154Z</time>
      </trkpt>
      <trkpt lat="43.677" lon="5.7437">
        <ele>439</ele>
        <time>2016-03-19T09:09:25.152Z</time>
      </trkpt>
      <trkpt lat="43.67699" lon="5.74361">
        <ele>437</ele>
        <time>2016-03-19T09:09:27.148Z</time>
      </trkpt>
      <trkpt lat="43.67699" lon="5.74356">
        <ele>436</ele>
        <time>2016-03-19T09:09:28.126Z</time>
      </trkpt>
      <trkpt lat="43.67699" lon="5.74345">
        <ele>436</ele>
        <time>2016-03-19T09:09:30.151Z</time>
      </trkpt>
      <trkpt lat="43.67698" lon="5.74338">
        <ele>436</ele>
        <time>2016-03-19T09:09:31.125Z</time>
      </trkpt>
      <trkpt lat="43.67697" lon="5.74326">
        <ele>435</ele>
        <time>2016-03-19T09:09:33.162Z</time>
      </trkpt>
      <trkpt lat="43.67697" lon="5.74321">
        <ele>436</ele>
        <time>2016-03-19T09:09:34.126Z</time>
      </trkpt>
      <trkpt lat="43.67696" lon="5.74309">
        <ele>435</ele>
        <time>2016-03-19T09:09:36.180Z</time>
      </trkpt>
      <trkpt lat="43.67696" lon="5.74303">
        <ele>435</ele>
        <time>2016-03-19T09:09:37.127Z</time>
      </trkpt>
      <trkpt lat="43.67701" lon="5.74294">
        <ele>435</ele>
        <time>2016-03-19T09:09:44.152Z</time>
      </trkpt>
      <trkpt lat="43.67702" lon="5.74294">
        <ele>435</ele>
        <time>2016-03-19T09:09:45.129Z</time>
      </trkpt>
      <trkpt lat="43.67708" lon="5.74288">
        <ele>434</ele>
        <time>2016-03-19T09:09:48.150Z</time>
      </trkpt>
      <trkpt lat="43.6771" lon="5.74285">
        <ele>434</ele>
        <time>2016-03-19T09:09:49.359Z</time>
      </trkpt>
      <trkpt lat="43.67713" lon="5.74276">
        <ele>435</ele>
        <time>2016-03-19T09:09:52.153Z</time>
      </trkpt>
      <trkpt lat="43.67714" lon="5.74274">
        <ele>435</ele>
        <time>2016-03-19T09:09:53.127Z</time>
      </trkpt>
      <trkpt lat="43.67719" lon="5.74267">
        <ele>434</ele>
        <time>2016-03-19T09:09:56.166Z</time>
      </trkpt>
      <trkpt lat="43.67721" lon="5.74265">
        <ele>434</ele>
        <time>2016-03-19T09:09:57.127Z</time>
      </trkpt>
      <trkpt lat="43.67727" lon="5.74262">
        <ele>433</ele>
        <time>2016-03-19T09:10:00.154Z</time>
      </trkpt>
      <trkpt lat="43.67729" lon="5.7426">
        <ele>433</ele>
        <time>2016-03-19T09:10:01.126Z</time>
      </trkpt>
      <trkpt lat="43.67735" lon="5.74256">
        <ele>432</ele>
        <time>2016-03-19T09:10:03.188Z</time>
      </trkpt>
      <trkpt lat="43.67738" lon="5.74253">
        <ele>432</ele>
        <time>2016-03-19T09:10:04.127Z</time>
      </trkpt>
      <trkpt lat="43.67743" lon="5.7425">
        <ele>432</ele>
        <time>2016-03-19T09:10:05.153Z</time>
      </trkpt>
      <trkpt lat="43.67747" lon="5.74248">
        <ele>432</ele>
        <time>2016-03-19T09:10:06.128Z</time>
      </trkpt>
      <trkpt lat="43.67755" lon="5.74246">
        <ele>431</ele>
        <time>2016-03-19T09:10:07.172Z</time>
      </trkpt>
      <trkpt lat="43.6776" lon="5.74244">
        <ele>429</ele>
        <time>2016-03-19T09:10:08.127Z</time>
      </trkpt>
      <trkpt lat="43.67766" lon="5.74243">
        <ele>428</ele>
        <time>2016-03-19T09:10:09.151Z</time>
      </trkpt>
      <trkpt lat="43.67771" lon="5.74242">
        <ele>427</ele>
        <time>2016-03-19T09:10:10.138Z</time>
      </trkpt>
      <trkpt lat="43.67776" lon="5.74242">
        <ele>427</ele>
        <time>2016-03-19T09:10:11.163Z</time>
      </trkpt>
      <trkpt lat="43.67782" lon="5.74244">
        <ele>427</ele>
        <time>2016-03-19T09:10:12.127Z</time>
      </trkpt>
      <trkpt lat="43.67788" lon="5.74247">
        <ele>426</ele>
        <time>2016-03-19T09:10:13.150Z</time>
      </trkpt>
      <trkpt lat="43.67792" lon="5.7425">
        <ele>426</ele>
        <time>2016-03-19T09:10:14.153Z</time>
      </trkpt>
      <trkpt lat="43.67798" lon="5.74254">
        <ele>425</ele>
        <time>2016-03-19T09:10:15.152Z</time>
      </trkpt>
      <trkpt lat="43.67803" lon="5.74255">
        <ele>425</ele>
        <time>2016-03-19T09:10:16.138Z</time>
      </trkpt>
      <trkpt lat="43.67808" lon="5.74256">
        <ele>425</ele>
        <time>2016-03-19T09:10:17.228Z</time>
      </trkpt>
      <trkpt lat="43.67813" lon="5.74256">
        <ele>425</ele>
        <time>2016-03-19T09:10:18.131Z</time>
      </trkpt>
      <trkpt lat="43.67818" lon="5.74256">
        <ele>425</ele>
        <time>2016-03-19T09:10:19.148Z</time>
      </trkpt>
      <trkpt lat="43.67822" lon="5.74254">
        <ele>425</ele>
        <time>2016-03-19T09:10:20.127Z</time>
      </trkpt>
      <trkpt lat="43.6783" lon="5.74251">
        <ele>425</ele>
        <time>2016-03-19T09:10:22.204Z</time>
      </trkpt>
      <trkpt lat="43.67834" lon="5.74249">
        <ele>426</ele>
        <time>2016-03-19T09:10:23.133Z</time>
      </trkpt>
      <trkpt lat="43.67841" lon="5.74241">
        <ele>424</ele>
        <time>2016-03-19T09:10:27.152Z</time>
      </trkpt>
      <trkpt lat="43.67841" lon="5.74241">
        <ele>424</ele>
        <time>2016-03-19T09:10:28.127Z</time>
      </trkpt>
      <trkpt lat="43.67846" lon="5.74233">
        <ele>424</ele>
        <time>2016-03-19T09:10:40.158Z</time>
      </trkpt>
      <trkpt lat="43.67848" lon="5.74231">
        <ele>423</ele>
        <time>2016-03-19T09:10:41.123Z</time>
      </trkpt>
      <trkpt lat="43.67857" lon="5.74229">
        <ele>422</ele>
        <time>2016-03-19T09:10:44.143Z</time>
      </trkpt>
      <trkpt lat="43.6786" lon="5.74229">
        <ele>422</ele>
        <time>2016-03-19T09:10:45.126Z</time>
      </trkpt>
      <trkpt lat="43.67866" lon="5.74228">
        <ele>424</ele>
        <time>2016-03-19T09:10:47.183Z</time>
      </trkpt>
      <trkpt lat="43.6787" lon="5.74227">
        <ele>424</ele>
        <time>2016-03-19T09:10:48.117Z</time>
      </trkpt>
      <trkpt lat="43.67878" lon="5.74223">
        <ele>423</ele>
        <time>2016-03-19T09:10:50.152Z</time>
      </trkpt>
      <trkpt lat="43.67882" lon="5.7422">
        <ele>423</ele>
        <time>2016-03-19T09:10:51.127Z</time>
      </trkpt>
      <trkpt lat="43.67887" lon="5.74215">
        <ele>422</ele>
        <time>2016-03-19T09:10:52.164Z</time>
      </trkpt>
      <trkpt lat="43.67891" lon="5.74212">
        <ele>421</ele>
        <time>2016-03-19T09:10:53.127Z</time>
      </trkpt>
      <trkpt lat="43.67897" lon="5.74204">
        <ele>420</ele>
        <time>2016-03-19T09:10:55.151Z</time>
      </trkpt>
      <trkpt lat="43.67902" lon="5.742">
        <ele>421</ele>
        <time>2016-03-19T09:10:56.127Z</time>
      </trkpt>
      <trkpt lat="43.67906" lon="5.74198">
        <ele>419</ele>
        <time>2016-03-19T09:10:57.179Z</time>
      </trkpt>
      <trkpt lat="43.6791" lon="5.74195">
        <ele>418</ele>
        <time>2016-03-19T09:10:58.126Z</time>
      </trkpt>
      <trkpt lat="43.67915" lon="5.7419">
        <ele>418</ele>
        <time>2016-03-19T09:10:59.151Z</time>
      </trkpt>
      <trkpt lat="43.6792" lon="5.74185">
        <ele>419</ele>
        <time>2016-03-19T09:11:00.131Z</time>
      </trkpt>
      <trkpt lat="43.67925" lon="5.7418">
        <ele>418</ele>
        <time>2016-03-19T09:11:01.151Z</time>
      </trkpt>
      <trkpt lat="43.67931" lon="5.74176">
        <ele>418</ele>
        <time>2016-03-19T09:11:02.139Z</time>
      </trkpt>
      <trkpt lat="43.67937" lon="5.74171">
        <ele>418</ele>
        <time>2016-03-19T09:11:03.146Z</time>
      </trkpt>
      <trkpt lat="43.67943" lon="5.74167">
        <ele>417</ele>
        <time>2016-03-19T09:11:04.124Z</time>
      </trkpt>
      <trkpt lat="43.67949" lon="5.74162">
        <ele>417</ele>
        <time>2016-03-19T09:11:05.152Z</time>
      </trkpt>
      <trkpt lat="43.67956" lon="5.74158">
        <ele>416</ele>
        <time>2016-03-19T09:11:06.126Z</time>
      </trkpt>
      <trkpt lat="43.67963" lon="5.74154">
        <ele>415</ele>
        <time>2016-03-19T09:11:07.151Z</time>
      </trkpt>
      <trkpt lat="43.67968" lon="5.7415">
        <ele>415</ele>
        <time>2016-03-19T09:11:08.133Z</time>
      </trkpt>
      <trkpt lat="43.67975" lon="5.74148">
        <ele>415</ele>
        <time>2016-03-19T09:11:09.151Z</time>
      </trkpt>
      <trkpt lat="43.67982" lon="5.74146">
        <ele>414</ele>
        <time>2016-03-19T09:11:10.139Z</time>
      </trkpt>
      <trkpt lat="43.67989" lon="5.74145">
        <ele>413</ele>
        <time>2016-03-19T09:11:11.163Z</time>
      </trkpt>
      <trkpt lat="43.67996" lon="5.74143">
        <ele>413</ele>
        <time>2016-03-19T09:11:12.127Z</time>
      </trkpt>
      <trkpt lat="43.68003" lon="5.74141">
        <ele>412</ele>
        <time>2016-03-19T09:11:13.155Z</time>
      </trkpt>
      <trkpt lat="43.6801" lon="5.7414">
        <ele>412</ele>
        <time>2016-03-19T09:11:14.138Z</time>
      </trkpt>
      <trkpt lat="43.68017" lon="5.74141">
        <ele>412</ele>
        <time>2016-03-19T09:11:15.138Z</time>
      </trkpt>
      <trkpt lat="43.68024" lon="5.74144">
        <ele>410</ele>
        <time>2016-03-19T09:11:16.122Z</time>
      </trkpt>
      <trkpt lat="43.6803" lon="5.74149">
        <ele>409</ele>
        <time>2016-03-19T09:11:17.152Z</time>
      </trkpt>
      <trkpt lat="43.68034" lon="5.74151">
        <ele>409</ele>
        <time>2016-03-19T09:11:18.127Z</time>
      </trkpt>
      <trkpt lat="43.68039" lon="5.74152">
        <ele>408</ele>
        <time>2016-03-19T09:11:19.180Z</time>
      </trkpt>
      <trkpt lat="43.68045" lon="5.74152">
        <ele>408</ele>
        <time>2016-03-19T09:11:20.130Z</time>
      </trkpt>
      <trkpt lat="43.68051" lon="5.74152">
        <ele>408</ele>
        <time>2016-03-19T09:11:21.163Z</time>
      </trkpt>
      <trkpt lat="43.68056" lon="5.74152">
        <ele>407</ele>
        <time>2016-03-19T09:11:22.127Z</time>
      </trkpt>
      <trkpt lat="43.68062" lon="5.7415">
        <ele>407</ele>
        <time>2016-03-19T09:11:23.153Z</time>
      </trkpt>
      <trkpt lat="43.68067" lon="5.74146">
        <ele>407</ele>
        <time>2016-03-19T09:11:24.138Z</time>
      </trkpt>
      <trkpt lat="43.68072" lon="5.74143">
        <ele>406</ele>
        <time>2016-03-19T09:11:25.152Z</time>
      </trkpt>
      <trkpt lat="43.68077" lon="5.74142">
        <ele>406</ele>
        <time>2016-03-19T09:11:26.127Z</time>
      </trkpt>
      <trkpt lat="43.68083" lon="5.74142">
        <ele>406</ele>
        <time>2016-03-19T09:11:27.230Z</time>
      </trkpt>
      <trkpt lat="43.68089" lon="5.74143">
        <ele>406</ele>
        <time>2016-03-19T09:11:28.127Z</time>
      </trkpt>
      <trkpt lat="43.68095" lon="5.74143">
        <ele>405</ele>
        <time>2016-03-19T09:11:29.152Z</time>
      </trkpt>
      <trkpt lat="43.681" lon="5.74144">
        <ele>404</ele>
        <time>2016-03-19T09:11:30.156Z</time>
      </trkpt>
      <trkpt lat="43.68107" lon="5.74145">
        <ele>404</ele>
        <time>2016-03-19T09:11:31.375Z</time>
      </trkpt>
      <trkpt lat="43.68113" lon="5.74145">
        <ele>403</ele>
        <time>2016-03-19T09:11:32.140Z</time>
      </trkpt>
      <trkpt lat="43.68119" lon="5.74146">
        <ele>403</ele>
        <time>2016-03-19T09:11:33.153Z</time>
      </trkpt>
      <trkpt lat="43.68125" lon="5.74147">
        <ele>403</ele>
        <time>2016-03-19T09:11:34.138Z</time>
      </trkpt>
      <trkpt lat="43.68131" lon="5.74146">
        <ele>403</ele>
        <time>2016-03-19T09:11:35.188Z</time>
      </trkpt>
      <trkpt lat="43.68136" lon="5.74145">
        <ele>402</ele>
        <time>2016-03-19T09:11:36.126Z</time>
      </trkpt>
      <trkpt lat="43.68144" lon="5.74144">
        <ele>402</ele>
        <time>2016-03-19T09:11:38.154Z</time>
      </trkpt>
      <trkpt lat="43.68147" lon="5.74143">
        <ele>403</ele>
        <time>2016-03-19T09:11:39.127Z</time>
      </trkpt>
      <trkpt lat="43.68153" lon="5.74142">
        <ele>402</ele>
        <time>2016-03-19T09:11:41.152Z</time>
      </trkpt>
      <trkpt lat="43.68157" lon="5.74143">
        <ele>402</ele>
        <time>2016-03-19T09:11:42.139Z</time>
      </trkpt>
      <trkpt lat="43.68164" lon="5.7415">
        <ele>400</ele>
        <time>2016-03-19T09:11:44.147Z</time>
      </trkpt>
      <trkpt lat="43.68168" lon="5.74152">
        <ele>400</ele>
        <time>2016-03-19T09:11:45.139Z</time>
      </trkpt>
      <trkpt lat="43.68174" lon="5.74154">
        <ele>400</ele>
        <time>2016-03-19T09:11:46.158Z</time>
      </trkpt>
      <trkpt lat="43.68181" lon="5.74155">
        <ele>399</ele>
        <time>2016-03-19T09:11:47.125Z</time>
      </trkpt>
      <trkpt lat="43.68188" lon="5.74154">
        <ele>398</ele>
        <time>2016-03-19T09:11:48.155Z</time>
      </trkpt>
      <trkpt lat="43.68196" lon="5.7415">
        <ele>398</ele>
        <time>2016-03-19T09:11:49.138Z</time>
      </trkpt>
      <trkpt lat="43.68202" lon="5.74146">
        <ele>398</ele>
        <time>2016-03-19T09:11:50.152Z</time>
      </trkpt>
      <trkpt lat="43.6821" lon="5.74141">
        <ele>399</ele>
        <time>2016-03-19T09:11:51.128Z</time>
      </trkpt>
      <trkpt lat="43.68217" lon="5.74138">
        <ele>399</ele>
        <time>2016-03-19T09:11:52.163Z</time>
      </trkpt>
      <trkpt lat="43.68223" lon="5.74136">
        <ele>396</ele>
        <time>2016-03-19T09:11:53.136Z</time>
      </trkpt>
      <trkpt lat="43.68229" lon="5.74132">
        <ele>396</ele>
        <time>2016-03-19T09:11:54.379Z</time>
      </trkpt>
      <trkpt lat="43.68235" lon="5.74127">
        <ele>395</ele>
        <time>2016-03-19T09:11:55.134Z</time>
      </trkpt>
      <trkpt lat="43.68241" lon="5.74121">
        <ele>395</ele>
        <time>2016-03-19T09:11:56.152Z</time>
      </trkpt>
      <trkpt lat="43.68249" lon="5.74115">
        <ele>395</ele>
        <time>2016-03-19T09:11:57.139Z</time>
      </trkpt>
      <trkpt lat="43.68255" lon="5.74108">
        <ele>395</ele>
        <time>2016-03-19T09:11:58.172Z</time>
      </trkpt>
      <trkpt lat="43.68261" lon="5.74099">
        <ele>394</ele>
        <time>2016-03-19T09:11:59.124Z</time>
      </trkpt>
      <trkpt lat="43.68266" lon="5.74091">
        <ele>394</ele>
        <time>2016-03-19T09:12:00.177Z</time>
      </trkpt>
      <trkpt lat="43.6827" lon="5.74086">
        <ele>394</ele>
        <time>2016-03-19T09:12:01.127Z</time>
      </trkpt>
      <trkpt lat="43.68276" lon="5.74085">
        <ele>391</ele>
        <time>2016-03-19T09:12:02.177Z</time>
      </trkpt>
      <trkpt lat="43.68282" lon="5.74082">
        <ele>389</ele>
        <time>2016-03-19T09:12:03.138Z</time>
      </trkpt>
      <trkpt lat="43.68288" lon="5.74083">
        <ele>390</ele>
        <time>2016-03-19T09:12:04.152Z</time>
      </trkpt>
      <trkpt lat="43.68295" lon="5.74086">
        <ele>389</ele>
        <time>2016-03-19T09:12:05.127Z</time>
      </trkpt>
      <trkpt lat="43.683" lon="5.74088">
        <ele>387</ele>
        <time>2016-03-19T09:12:06.148Z</time>
      </trkpt>
      <trkpt lat="43.68305" lon="5.74089">
        <ele>387</ele>
        <time>2016-03-19T09:12:07.127Z</time>
      </trkpt>
      <trkpt lat="43.68313" lon="5.74083">
        <ele>386</ele>
        <time>2016-03-19T09:12:09.164Z</time>
      </trkpt>
      <trkpt lat="43.68318" lon="5.74079">
        <ele>386</ele>
        <time>2016-03-19T09:12:10.128Z</time>
      </trkpt>
      <trkpt lat="43.68326" lon="5.7408">
        <ele>386</ele>
        <time>2016-03-19T09:12:11.154Z</time>
      </trkpt>
      <trkpt lat="43.68331" lon="5.74081">
        <ele>384</ele>
        <time>2016-03-19T09:12:12.129Z</time>
      </trkpt>
      <trkpt lat="43.68338" lon="5.74081">
        <ele>384</ele>
        <time>2016-03-19T09:12:13.151Z</time>
      </trkpt>
      <trkpt lat="43.68344" lon="5.7408">
        <ele>383</ele>
        <time>2016-03-19T09:12:14.139Z</time>
      </trkpt>
      <trkpt lat="43.68351" lon="5.74081">
        <ele>381</ele>
        <time>2016-03-19T09:12:15.151Z</time>
      </trkpt>
      <trkpt lat="43.68356" lon="5.74082">
        <ele>380</ele>
        <time>2016-03-19T09:12:16.128Z</time>
      </trkpt>
      <trkpt lat="43.6836" lon="5.74082">
        <ele>379</ele>
        <time>2016-03-19T09:12:17.151Z</time>
      </trkpt>
      <trkpt lat="43.68367" lon="5.74081">
        <ele>380</ele>
        <time>2016-03-19T09:12:18.155Z</time>
      </trkpt>
      <trkpt lat="43.68372" lon="5.74077">
        <ele>380</ele>
        <time>2016-03-19T09:12:19.163Z</time>
      </trkpt>
      <trkpt lat="43.68378" lon="5.74073">
        <ele>379</ele>
        <time>2016-03-19T09:12:20.129Z</time>
      </trkpt>
      <trkpt lat="43.68382" lon="5.74066">
        <ele>380</ele>
        <time>2016-03-19T09:12:21.154Z</time>
      </trkpt>
      <trkpt lat="43.68386" lon="5.74062">
        <ele>379</ele>
        <time>2016-03-19T09:12:22.127Z</time>
      </trkpt>
      <trkpt lat="43.68391" lon="5.74057">
        <ele>377</ele>
        <time>2016-03-19T09:12:24.152Z</time>
      </trkpt>
      <trkpt lat="43.68394" lon="5.74057">
        <ele>375</ele>
        <time>2016-03-19T09:12:25.127Z</time>
      </trkpt>
      <trkpt lat="43.68401" lon="5.74061">
        <ele>372</ele>
        <time>2016-03-19T09:12:27.151Z</time>
      </trkpt>
      <trkpt lat="43.68405" lon="5.74064">
        <ele>371</ele>
        <time>2016-03-19T09:12:28.124Z</time>
      </trkpt>
      <trkpt lat="43.68411" lon="5.74065">
        <ele>370</ele>
        <time>2016-03-19T09:12:29.189Z</time>
      </trkpt>
      <trkpt lat="43.68414" lon="5.74065">
        <ele>369</ele>
        <time>2016-03-19T09:12:30.124Z</time>
      </trkpt>
      <trkpt lat="43.68419" lon="5.74067">
        <ele>368</ele>
        <time>2016-03-19T09:12:31.153Z</time>
      </trkpt>
      <trkpt lat="43.68423" lon="5.74069">
        <ele>367</ele>
        <time>2016-03-19T09:12:32.127Z</time>
      </trkpt>
      <trkpt lat="43.68425" lon="5.74058">
        <ele>367</ele>
        <time>2016-03-19T09:12:43.166Z</time>
      </trkpt>
      <trkpt lat="43.68425" lon="5.74055">
        <ele>366</ele>
        <time>2016-03-19T09:12:44.127Z</time>
      </trkpt>
      <trkpt lat="43.68424" lon="5.74046">
        <ele>366</ele>
        <time>2016-03-19T09:12:46.153Z</time>
      </trkpt>
      <trkpt lat="43.68424" lon="5.74042">
        <ele>365</ele>
        <time>2016-03-19T09:12:47.126Z</time>
      </trkpt>
      <trkpt lat="43.68421" lon="5.74035">
        <ele>367</ele>
        <time>2016-03-19T09:12:49.152Z</time>
      </trkpt>
      <trkpt lat="43.68421" lon="5.7403">
        <ele>367</ele>
        <time>2016-03-19T09:12:50.136Z</time>
      </trkpt>
      <trkpt lat="43.68421" lon="5.74023">
        <ele>366</ele>
        <time>2016-03-19T09:12:51.173Z</time>
      </trkpt>
      <trkpt lat="43.68421" lon="5.74015">
        <ele>364</ele>
        <time>2016-03-19T09:12:52.127Z</time>
      </trkpt>
      <trkpt lat="43.68418" lon="5.74007">
        <ele>365</ele>
        <time>2016-03-19T09:12:53.152Z</time>
      </trkpt>
      <trkpt lat="43.68414" lon="5.74004">
        <ele>365</ele>
        <time>2016-03-19T09:12:54.127Z</time>
      </trkpt>
      <trkpt lat="43.6841" lon="5.73994">
        <ele>363</ele>
        <time>2016-03-19T09:12:57.152Z</time>
      </trkpt>
      <trkpt lat="43.68411" lon="5.73989">
        <ele>363</ele>
        <time>2016-03-19T09:12:58.127Z</time>
      </trkpt>
      <trkpt lat="43.68415" lon="5.73981">
        <ele>366</ele>
        <time>2016-03-19T09:13:00.370Z</time>
      </trkpt>
      <trkpt lat="43.68417" lon="5.73978">
        <ele>365</ele>
        <time>2016-03-19T09:13:01.128Z</time>
      </trkpt>
      <trkpt lat="43.68422" lon="5.73971">
        <ele>363</ele>
        <time>2016-03-19T09:13:04.152Z</time>
      </trkpt>
      <trkpt lat="43.68424" lon="5.73969">
        <ele>363</ele>
        <time>2016-03-19T09:13:05.127Z</time>
      </trkpt>
      <trkpt lat="43.68431" lon="5.73962">
        <ele>365</ele>
        <time>2016-03-19T09:13:08.152Z</time>
      </trkpt>
      <trkpt lat="43.68434" lon="5.7396">
        <ele>365</ele>
        <time>2016-03-19T09:13:09.128Z</time>
      </trkpt>
      <trkpt lat="43.6844" lon="5.73952">
        <ele>367</ele>
        <time>2016-03-19T09:13:13.151Z</time>
      </trkpt>
      <trkpt lat="43.68442" lon="5.73951">
        <ele>367</ele>
        <time>2016-03-19T09:13:14.128Z</time>
      </trkpt>
      <trkpt lat="43.68447" lon="5.73942">
        <ele>370</ele>
        <time>2016-03-19T09:13:19.152Z</time>
      </trkpt>
      <trkpt lat="43.68449" lon="5.7394">
        <ele>369</ele>
        <time>2016-03-19T09:13:20.127Z</time>
      </trkpt>
      <trkpt lat="43.68455" lon="5.73933">
        <ele>370</ele>
        <time>2016-03-19T09:13:25.150Z</time>
      </trkpt>
      <trkpt lat="43.68457" lon="5.73931">
        <ele>369</ele>
        <time>2016-03-19T09:13:26.127Z</time>
      </trkpt>
      <trkpt lat="43.68463" lon="5.73924">
        <ele>370</ele>
        <time>2016-03-19T09:13:29.165Z</time>
      </trkpt>
      <trkpt lat="43.68465" lon="5.73922">
        <ele>370</ele>
        <time>2016-03-19T09:13:30.123Z</time>
      </trkpt>
      <trkpt lat="43.68472" lon="5.73915">
        <ele>369</ele>
        <time>2016-03-19T09:13:34.165Z</time>
      </trkpt>
      <trkpt lat="43.68473" lon="5.73914">
        <ele>370</ele>
        <time>2016-03-19T09:13:35.124Z</time>
      </trkpt>
      <trkpt lat="43.68479" lon="5.73908">
        <ele>369</ele>
        <time>2016-03-19T09:13:38.165Z</time>
      </trkpt>
      <trkpt lat="43.68482" lon="5.73904">
        <ele>369</ele>
        <time>2016-03-19T09:13:39.155Z</time>
      </trkpt>
      <trkpt lat="43.68486" lon="5.73897">
        <ele>370</ele>
        <time>2016-03-19T09:13:41.152Z</time>
      </trkpt>
      <trkpt lat="43.68488" lon="5.73894">
        <ele>370</ele>
        <time>2016-03-19T09:13:42.127Z</time>
      </trkpt>
      <trkpt lat="43.6849" lon="5.73885">
        <ele>371</ele>
        <time>2016-03-19T09:13:46.149Z</time>
      </trkpt>
      <trkpt lat="43.68491" lon="5.73882">
        <ele>371</ele>
        <time>2016-03-19T09:13:47.127Z</time>
      </trkpt>
      <trkpt lat="43.68495" lon="5.73874">
        <ele>372</ele>
        <time>2016-03-19T09:13:50.194Z</time>
      </trkpt>
      <trkpt lat="43.68497" lon="5.73871">
        <ele>370</ele>
        <time>2016-03-19T09:13:51.125Z</time>
      </trkpt>
      <trkpt lat="43.685" lon="5.73864">
        <ele>370</ele>
        <time>2016-03-19T09:13:53.183Z</time>
      </trkpt>
      <trkpt lat="43.68503" lon="5.7386">
        <ele>371</ele>
        <time>2016-03-19T09:13:54.128Z</time>
      </trkpt>
      <trkpt lat="43.68507" lon="5.73852">
        <ele>370</ele>
        <time>2016-03-19T09:13:56.164Z</time>
      </trkpt>
      <trkpt lat="43.68509" lon="5.73847">
        <ele>369</ele>
        <time>2016-03-19T09:13:57.140Z</time>
      </trkpt>
      <trkpt lat="43.68511" lon="5.73842">
        <ele>368</ele>
        <time>2016-03-19T09:13:58.153Z</time>
      </trkpt>
      <trkpt lat="43.68514" lon="5.73833">
        <ele>368</ele>
        <time>2016-03-19T09:13:59.128Z</time>
      </trkpt>
      <trkpt lat="43.68516" lon="5.73826">
        <ele>368</ele>
        <time>2016-03-19T09:14:00.140Z</time>
      </trkpt>
      <trkpt lat="43.68514" lon="5.73818">
        <ele>367</ele>
        <time>2016-03-19T09:14:01.154Z</time>
      </trkpt>
      <trkpt lat="43.68511" lon="5.73812">
        <ele>367</ele>
        <time>2016-03-19T09:14:02.152Z</time>
      </trkpt>
      <trkpt lat="43.68509" lon="5.73805">
        <ele>367</ele>
        <time>2016-03-19T09:14:03.128Z</time>
      </trkpt>
      <trkpt lat="43.68508" lon="5.738">
        <ele>367</ele>
        <time>2016-03-19T09:14:04.152Z</time>
      </trkpt>
      <trkpt lat="43.68507" lon="5.73793">
        <ele>367</ele>
        <time>2016-03-19T09:14:05.138Z</time>
      </trkpt>
      <trkpt lat="43.68507" lon="5.73787">
        <ele>367</ele>
        <time>2016-03-19T09:14:06.153Z</time>
      </trkpt>
      <trkpt lat="43.68506" lon="5.7378">
        <ele>367</ele>
        <time>2016-03-19T09:14:07.129Z</time>
      </trkpt>
      <trkpt lat="43.68506" lon="5.73768">
        <ele>367</ele>
        <time>2016-03-19T09:14:09.153Z</time>
      </trkpt>
      <trkpt lat="43.68505" lon="5.73762">
        <ele>367</ele>
        <time>2016-03-19T09:14:10.139Z</time>
      </trkpt>
      <trkpt lat="43.68505" lon="5.7375">
        <ele>368</ele>
        <time>2016-03-19T09:14:12.152Z</time>
      </trkpt>
      <trkpt lat="43.68504" lon="5.73744">
        <ele>367</ele>
        <time>2016-03-19T09:14:13.128Z</time>
      </trkpt>
      <trkpt lat="43.68504" lon="5.73734">
        <ele>367</ele>
        <time>2016-03-19T09:14:15.152Z</time>
      </trkpt>
      <trkpt lat="43.68504" lon="5.73728">
        <ele>367</ele>
        <time>2016-03-19T09:14:16.129Z</time>
      </trkpt>
      <trkpt lat="43.68504" lon="5.73716">
        <ele>368</ele>
        <time>2016-03-19T09:14:19.162Z</time>
      </trkpt>
      <trkpt lat="43.68504" lon="5.73712">
        <ele>367</ele>
        <time>2016-03-19T09:14:20.128Z</time>
      </trkpt>
      <trkpt lat="43.68505" lon="5.73703">
        <ele>368</ele>
        <time>2016-03-19T09:14:22.185Z</time>
      </trkpt>
      <trkpt lat="43.68505" lon="5.73698">
        <ele>369</ele>
        <time>2016-03-19T09:14:23.128Z</time>
      </trkpt>
      <trkpt lat="43.68506" lon="5.73689">
        <ele>370</ele>
        <time>2016-03-19T09:14:25.164Z</time>
      </trkpt>
      <trkpt lat="43.68506" lon="5.73684">
        <ele>370</ele>
        <time>2016-03-19T09:14:26.125Z</time>
      </trkpt>
      <trkpt lat="43.68508" lon="5.73675">
        <ele>370</ele>
        <time>2016-03-19T09:14:28.435Z</time>
      </trkpt>
      <trkpt lat="43.68509" lon="5.7367">
        <ele>371</ele>
        <time>2016-03-19T09:14:29.125Z</time>
      </trkpt>
      <trkpt lat="43.68511" lon="5.73661">
        <ele>369</ele>
        <time>2016-03-19T09:14:31.166Z</time>
      </trkpt>
      <trkpt lat="43.68512" lon="5.73657">
        <ele>369</ele>
        <time>2016-03-19T09:14:32.129Z</time>
      </trkpt>
      <trkpt lat="43.68515" lon="5.73648">
        <ele>369</ele>
        <time>2016-03-19T09:14:34.165Z</time>
      </trkpt>
      <trkpt lat="43.68517" lon="5.73643">
        <ele>370</ele>
        <time>2016-03-19T09:14:35.128Z</time>
      </trkpt>
      <trkpt lat="43.68521" lon="5.73635">
        <ele>370</ele>
        <time>2016-03-19T09:14:37.164Z</time>
      </trkpt>
      <trkpt lat="43.68523" lon="5.73631">
        <ele>369</ele>
        <time>2016-03-19T09:14:38.127Z</time>
      </trkpt>
      <trkpt lat="43.68528" lon="5.73623">
        <ele>370</ele>
        <time>2016-03-19T09:14:40.145Z</time>
      </trkpt>
      <trkpt lat="43.68531" lon="5.7362">
        <ele>372</ele>
        <time>2016-03-19T09:14:41.122Z</time>
      </trkpt>
      <trkpt lat="43.68537" lon="5.73614">
        <ele>368</ele>
        <time>2016-03-19T09:14:43.152Z</time>
      </trkpt>
      <trkpt lat="43.6854" lon="5.73611">
        <ele>368</ele>
        <time>2016-03-19T09:14:44.128Z</time>
      </trkpt>
      <trkpt lat="43.68547" lon="5.73605">
        <ele>367</ele>
        <time>2016-03-19T09:14:46.150Z</time>
      </trkpt>
      <trkpt lat="43.6855" lon="5.73601">
        <ele>367</ele>
        <time>2016-03-19T09:14:47.136Z</time>
      </trkpt>
      <trkpt lat="43.68555" lon="5.73594">
        <ele>365</ele>
        <time>2016-03-19T09:14:49.179Z</time>
      </trkpt>
      <trkpt lat="43.68558" lon="5.7359">
        <ele>365</ele>
        <time>2016-03-19T09:14:50.140Z</time>
      </trkpt>
      <trkpt lat="43.68563" lon="5.73582">
        <ele>365</ele>
        <time>2016-03-19T09:14:52.153Z</time>
      </trkpt>
      <trkpt lat="43.68565" lon="5.73578">
        <ele>365</ele>
        <time>2016-03-19T09:14:53.128Z</time>
      </trkpt>
      <trkpt lat="43.68568" lon="5.73568">
        <ele>366</ele>
        <time>2016-03-19T09:14:55.153Z</time>
      </trkpt>
      <trkpt lat="43.68569" lon="5.73563">
        <ele>366</ele>
        <time>2016-03-19T09:14:56.129Z</time>
      </trkpt>
      <trkpt lat="43.68571" lon="5.73552">
        <ele>366</ele>
        <time>2016-03-19T09:14:58.153Z</time>
      </trkpt>
      <trkpt lat="43.68572" lon="5.73547">
        <ele>365</ele>
        <time>2016-03-19T09:14:59.128Z</time>
      </trkpt>
      <trkpt lat="43.68575" lon="5.73537">
        <ele>366</ele>
        <time>2016-03-19T09:15:01.153Z</time>
      </trkpt>
      <trkpt lat="43.68576" lon="5.73533">
        <ele>365</ele>
        <time>2016-03-19T09:15:02.139Z</time>
      </trkpt>
      <trkpt lat="43.68578" lon="5.73524">
        <ele>365</ele>
        <time>2016-03-19T09:15:04.152Z</time>
      </trkpt>
      <trkpt lat="43.68579" lon="5.7352">
        <ele>366</ele>
        <time>2016-03-19T09:15:05.129Z</time>
      </trkpt>
      <trkpt lat="43.68582" lon="5.73512">
        <ele>365</ele>
        <time>2016-03-19T09:15:07.153Z</time>
      </trkpt>
      <trkpt lat="43.68584" lon="5.73509">
        <ele>366</ele>
        <time>2016-03-19T09:15:08.130Z</time>
      </trkpt>
      <trkpt lat="43.68589" lon="5.73503">
        <ele>366</ele>
        <time>2016-03-19T09:15:10.196Z</time>
      </trkpt>
      <trkpt lat="43.68591" lon="5.73501">
        <ele>366</ele>
        <time>2016-03-19T09:15:11.129Z</time>
      </trkpt>
      <trkpt lat="43.68597" lon="5.73491">
        <ele>367</ele>
        <time>2016-03-19T09:15:14.154Z</time>
      </trkpt>
      <trkpt lat="43.68598" lon="5.73488">
        <ele>368</ele>
        <time>2016-03-19T09:15:15.141Z</time>
      </trkpt>
      <trkpt lat="43.68598" lon="5.73477">
        <ele>368</ele>
        <time>2016-03-19T09:15:18.153Z</time>
      </trkpt>
      <trkpt lat="43.68596" lon="5.73474">
        <ele>368</ele>
        <time>2016-03-19T09:15:19.129Z</time>
      </trkpt>
      <trkpt lat="43.68592" lon="5.73465">
        <ele>369</ele>
        <time>2016-03-19T09:15:22.154Z</time>
      </trkpt>
      <trkpt lat="43.68591" lon="5.73462">
        <ele>370</ele>
        <time>2016-03-19T09:15:23.128Z</time>
      </trkpt>
      <trkpt lat="43.68585" lon="5.73452">
        <ele>370</ele>
        <time>2016-03-19T09:15:27.152Z</time>
      </trkpt>
      <trkpt lat="43.68584" lon="5.7345">
        <ele>370</ele>
        <time>2016-03-19T09:15:28.127Z</time>
      </trkpt>
      <trkpt lat="43.68577" lon="5.73442">
        <ele>370</ele>
        <time>2016-03-19T09:15:32.153Z</time>
      </trkpt>
      <trkpt lat="43.68575" lon="5.7344">
        <ele>370</ele>
        <time>2016-03-19T09:15:33.128Z</time>
      </trkpt>
      <trkpt lat="43.68569" lon="5.73434">
        <ele>370</ele>
        <time>2016-03-19T09:15:36.154Z</time>
      </trkpt>
      <trkpt lat="43.68567" lon="5.73432">
        <ele>370</ele>
        <time>2016-03-19T09:15:37.129Z</time>
      </trkpt>
      <trkpt lat="43.68561" lon="5.73426">
        <ele>371</ele>
        <time>2016-03-19T09:15:41.152Z</time>
      </trkpt>
      <trkpt lat="43.68559" lon="5.73425">
        <ele>371</ele>
        <time>2016-03-19T09:15:42.156Z</time>
      </trkpt>
      <trkpt lat="43.68552" lon="5.73418">
        <ele>372</ele>
        <time>2016-03-19T09:15:46.153Z</time>
      </trkpt>
      <trkpt lat="43.6855" lon="5.73417">
        <ele>372</ele>
        <time>2016-03-19T09:15:47.126Z</time>
      </trkpt>
      <trkpt lat="43.68543" lon="5.7341">
        <ele>372</ele>
        <time>2016-03-19T09:15:51.154Z</time>
      </trkpt>
      <trkpt lat="43.68541" lon="5.73408">
        <ele>372</ele>
        <time>2016-03-19T09:15:52.128Z</time>
      </trkpt>
      <trkpt lat="43.68534" lon="5.734">
        <ele>373</ele>
        <time>2016-03-19T09:15:56.152Z</time>
      </trkpt>
      <trkpt lat="43.68532" lon="5.73398">
        <ele>373</ele>
        <time>2016-03-19T09:15:57.128Z</time>
      </trkpt>
      <trkpt lat="43.68525" lon="5.7339">
        <ele>373</ele>
        <time>2016-03-19T09:16:01.153Z</time>
      </trkpt>
      <trkpt lat="43.68523" lon="5.73388">
        <ele>373</ele>
        <time>2016-03-19T09:16:02.129Z</time>
      </trkpt>
      <trkpt lat="43.68517" lon="5.7338">
        <ele>373</ele>
        <time>2016-03-19T09:16:06.230Z</time>
      </trkpt>
      <trkpt lat="43.68515" lon="5.73378">
        <ele>373</ele>
        <time>2016-03-19T09:16:07.130Z</time>
      </trkpt>
      <trkpt lat="43.68509" lon="5.7337">
        <ele>374</ele>
        <time>2016-03-19T09:16:11.153Z</time>
      </trkpt>
      <trkpt lat="43.68507" lon="5.73368">
        <ele>374</ele>
        <time>2016-03-19T09:16:12.129Z</time>
      </trkpt>
      <trkpt lat="43.68503" lon="5.73361">
        <ele>375</ele>
        <time>2016-03-19T09:16:15.146Z</time>
      </trkpt>
      <trkpt lat="43.68501" lon="5.73358">
        <ele>375</ele>
        <time>2016-03-19T09:16:16.124Z</time>
      </trkpt>
      <trkpt lat="43.68498" lon="5.7335">
        <ele>376</ele>
        <time>2016-03-19T09:16:19.175Z</time>
      </trkpt>
      <trkpt lat="43.68496" lon="5.73347">
        <ele>376</ele>
        <time>2016-03-19T09:16:20.129Z</time>
      </trkpt>
      <trkpt lat="43.68492" lon="5.7334">
        <ele>376</ele>
        <time>2016-03-19T09:16:23.153Z</time>
      </trkpt>
      <trkpt lat="43.6849" lon="5.73338">
        <ele>377</ele>
        <time>2016-03-19T09:16:24.128Z</time>
      </trkpt>
      <trkpt lat="43.68484" lon="5.73329">
        <ele>377</ele>
        <time>2016-03-19T09:16:28.155Z</time>
      </trkpt>
      <trkpt lat="43.68482" lon="5.73327">
        <ele>377</ele>
        <time>2016-03-19T09:16:29.123Z</time>
      </trkpt>
      <trkpt lat="43.68477" lon="5.7332">
        <ele>377</ele>
        <time>2016-03-19T09:16:32.153Z</time>
      </trkpt>
      <trkpt lat="43.68476" lon="5.73318">
        <ele>377</ele>
        <time>2016-03-19T09:16:33.128Z</time>
      </trkpt>
      <trkpt lat="43.6847" lon="5.73312">
        <ele>376</ele>
        <time>2016-03-19T09:16:36.165Z</time>
      </trkpt>
      <trkpt lat="43.68468" lon="5.7331">
        <ele>375</ele>
        <time>2016-03-19T09:16:37.140Z</time>
      </trkpt>
      <trkpt lat="43.68461" lon="5.73304">
        <ele>375</ele>
        <time>2016-03-19T09:16:40.154Z</time>
      </trkpt>
      <trkpt lat="43.68459" lon="5.73302">
        <ele>375</ele>
        <time>2016-03-19T09:16:41.124Z</time>
      </trkpt>
      <trkpt lat="43.68453" lon="5.73297">
        <ele>374</ele>
        <time>2016-03-19T09:16:43.163Z</time>
      </trkpt>
      <trkpt lat="43.68451" lon="5.73295">
        <ele>374</ele>
        <time>2016-03-19T09:16:44.127Z</time>
      </trkpt>
      <trkpt lat="43.68445" lon="5.7329">
        <ele>374</ele>
        <time>2016-03-19T09:16:46.195Z</time>
      </trkpt>
      <trkpt lat="43.68441" lon="5.73287">
        <ele>374</ele>
        <time>2016-03-19T09:16:47.134Z</time>
      </trkpt>
      <trkpt lat="43.68435" lon="5.73282">
        <ele>373</ele>
        <time>2016-03-19T09:16:49.154Z</time>
      </trkpt>
      <trkpt lat="43.68433" lon="5.73279">
        <ele>373</ele>
        <time>2016-03-19T09:16:50.128Z</time>
      </trkpt>
      <trkpt lat="43.68426" lon="5.73272">
        <ele>372</ele>
        <time>2016-03-19T09:16:52.154Z</time>
      </trkpt>
      <trkpt lat="43.68422" lon="5.73267">
        <ele>372</ele>
        <time>2016-03-19T09:16:53.128Z</time>
      </trkpt>
      <trkpt lat="43.68417" lon="5.73259">
        <ele>372</ele>
        <time>2016-03-19T09:16:55.139Z</time>
      </trkpt>
      <trkpt lat="43.68414" lon="5.73254">
        <ele>372</ele>
        <time>2016-03-19T09:16:56.122Z</time>
      </trkpt>
      <trkpt lat="43.68408" lon="5.73246">
        <ele>372</ele>
        <time>2016-03-19T09:16:59.143Z</time>
      </trkpt>
      <trkpt lat="43.68406" lon="5.73244">
        <ele>371</ele>
        <time>2016-03-19T09:17:00.156Z</time>
      </trkpt>
      <trkpt lat="43.68398" lon="5.73246">
        <ele>373</ele>
        <time>2016-03-19T09:17:03.161Z</time>
      </trkpt>
      <trkpt lat="43.68395" lon="5.73247">
        <ele>373</ele>
        <time>2016-03-19T09:17:04.124Z</time>
      </trkpt>
      <trkpt lat="43.68387" lon="5.73249">
        <ele>374</ele>
        <time>2016-03-19T09:17:07.162Z</time>
      </trkpt>
      <trkpt lat="43.68385" lon="5.73249">
        <ele>376</ele>
        <time>2016-03-19T09:17:08.144Z</time>
      </trkpt>
      <trkpt lat="43.68377" lon="5.73249">
        <ele>377</ele>
        <time>2016-03-19T09:17:11.169Z</time>
      </trkpt>
      <trkpt lat="43.68374" lon="5.73249">
        <ele>377</ele>
        <time>2016-03-19T09:17:12.135Z</time>
      </trkpt>
      <trkpt lat="43.68367" lon="5.73249">
        <ele>379</ele>
        <time>2016-03-19T09:17:15.152Z</time>
      </trkpt>
      <trkpt lat="43.68364" lon="5.73249">
        <ele>380</ele>
        <time>2016-03-19T09:17:16.128Z</time>
      </trkpt>
      <trkpt lat="43.68358" lon="5.73249">
        <ele>381</ele>
        <time>2016-03-19T09:17:18.162Z</time>
      </trkpt>
      <trkpt lat="43.68354" lon="5.73248">
        <ele>381</ele>
        <time>2016-03-19T09:17:19.134Z</time>
      </trkpt>
      <trkpt lat="43.68346" lon="5.73247">
        <ele>379</ele>
        <time>2016-03-19T09:17:21.151Z</time>
      </trkpt>
      <trkpt lat="43.68341" lon="5.73247">
        <ele>379</ele>
        <time>2016-03-19T09:17:22.132Z</time>
      </trkpt>
      <trkpt lat="43.68333" lon="5.7325">
        <ele>379</ele>
        <time>2016-03-19T09:17:24.175Z</time>
      </trkpt>
      <trkpt lat="43.68329" lon="5.7325">
        <ele>378</ele>
        <time>2016-03-19T09:17:25.127Z</time>
      </trkpt>
      <trkpt lat="43.68321" lon="5.73252">
        <ele>377</ele>
        <time>2016-03-19T09:17:27.151Z</time>
      </trkpt>
      <trkpt lat="43.68317" lon="5.73253">
        <ele>376</ele>
        <time>2016-03-19T09:17:28.136Z</time>
      </trkpt>
      <trkpt lat="43.68309" lon="5.73256">
        <ele>375</ele>
        <time>2016-03-19T09:17:30.148Z</time>
      </trkpt>
      <trkpt lat="43.68305" lon="5.73257">
        <ele>374</ele>
        <time>2016-03-19T09:17:31.124Z</time>
      </trkpt>
      <trkpt lat="43.68297" lon="5.7326">
        <ele>374</ele>
        <time>2016-03-19T09:17:33.150Z</time>
      </trkpt>
      <trkpt lat="43.68292" lon="5.73263">
        <ele>375</ele>
        <time>2016-03-19T09:17:34.124Z</time>
      </trkpt>
      <trkpt lat="43.68287" lon="5.73264">
        <ele>375</ele>
        <time>2016-03-19T09:17:35.176Z</time>
      </trkpt>
      <trkpt lat="43.68282" lon="5.73268">
        <ele>374</ele>
        <time>2016-03-19T09:17:36.127Z</time>
      </trkpt>
      <trkpt lat="43.68278" lon="5.73272">
        <ele>375</ele>
        <time>2016-03-19T09:17:37.158Z</time>
      </trkpt>
      <trkpt lat="43.68272" lon="5.73276">
        <ele>373</ele>
        <time>2016-03-19T09:17:38.127Z</time>
      </trkpt>
      <trkpt lat="43.68264" lon="5.73279">
        <ele>372</ele>
        <time>2016-03-19T09:17:39.150Z</time>
      </trkpt>
      <trkpt lat="43.68257" lon="5.73282">
        <ele>370</ele>
        <time>2016-03-19T09:17:40.128Z</time>
      </trkpt>
      <trkpt lat="43.68249" lon="5.73284">
        <ele>370</ele>
        <time>2016-03-19T09:17:41.149Z</time>
      </trkpt>
      <trkpt lat="43.6824" lon="5.73287">
        <ele>369</ele>
        <time>2016-03-19T09:17:42.134Z</time>
      </trkpt>
      <trkpt lat="43.68235" lon="5.73289">
        <ele>368</ele>
        <time>2016-03-19T09:17:43.336Z</time>
      </trkpt>
      <trkpt lat="43.6823" lon="5.73289">
        <ele>369</ele>
        <time>2016-03-19T09:17:44.125Z</time>
      </trkpt>
      <trkpt lat="43.68223" lon="5.73293">
        <ele>368</ele>
        <time>2016-03-19T09:17:46.148Z</time>
      </trkpt>
      <trkpt lat="43.68219" lon="5.73293">
        <ele>367</ele>
        <time>2016-03-19T09:17:47.129Z</time>
      </trkpt>
      <trkpt lat="43.6821" lon="5.73293">
        <ele>368</ele>
        <time>2016-03-19T09:17:49.149Z</time>
      </trkpt>
      <trkpt lat="43.68207" lon="5.73293">
        <ele>368</ele>
        <time>2016-03-19T09:17:50.128Z</time>
      </trkpt>
      <trkpt lat="43.68199" lon="5.73294">
        <ele>367</ele>
        <time>2016-03-19T09:17:52.157Z</time>
      </trkpt>
      <trkpt lat="43.68196" lon="5.73293">
        <ele>368</ele>
        <time>2016-03-19T09:17:53.127Z</time>
      </trkpt>
      <trkpt lat="43.68188" lon="5.73295">
        <ele>369</ele>
        <time>2016-03-19T09:17:56.148Z</time>
      </trkpt>
      <trkpt lat="43.68186" lon="5.73297">
        <ele>370</ele>
        <time>2016-03-19T09:17:57.119Z</time>
      </trkpt>
      <trkpt lat="43.6818" lon="5.73305">
        <ele>369</ele>
        <time>2016-03-19T09:18:02.154Z</time>
      </trkpt>
      <trkpt lat="43.68178" lon="5.73306">
        <ele>370</ele>
        <time>2016-03-19T09:18:03.129Z</time>
      </trkpt>
      <trkpt lat="43.68179" lon="5.73306">
        <ele>367</ele>
        <time>2016-03-19T09:19:12.495Z</time>
      </trkpt>
      <trkpt lat="43.68192" lon="5.7332">
        <ele>332</ele>
        <time>2016-03-19T09:26:51.198Z</time>
      </trkpt>
      <trkpt lat="43.68187" lon="5.73314">
        <ele>340</ele>
        <time>2016-03-19T09:27:05.155Z</time>
      </trkpt>
      <trkpt lat="43.68185" lon="5.73311">
        <ele>347</ele>
        <time>2016-03-19T09:27:06.131Z</time>
      </trkpt>
      <trkpt lat="43.68176" lon="5.73308">
        <ele>363</ele>
        <time>2016-03-19T09:29:00.159Z</time>
      </trkpt>
      <trkpt lat="43.68176" lon="5.73308">
        <ele>363</ele>
        <time>2016-03-19T09:29:01.134Z</time>
      </trkpt>
      <trkpt lat="43.6817" lon="5.73309">
        <ele>361</ele>
        <time>2016-03-19T09:30:07.157Z</time>
      </trkpt>
      <trkpt lat="43.68167" lon="5.7331">
        <ele>360</ele>
        <time>2016-03-19T09:30:08.133Z</time>
      </trkpt>
      <trkpt lat="43.68158" lon="5.7331">
        <ele>358</ele>
        <time>2016-03-19T09:30:11.265Z</time>
      </trkpt>
      <trkpt lat="43.68154" lon="5.73309">
        <ele>357</ele>
        <time>2016-03-19T09:30:12.133Z</time>
      </trkpt>
      <trkpt lat="43.68147" lon="5.73307">
        <ele>356</ele>
        <time>2016-03-19T09:30:14.158Z</time>
      </trkpt>
      <trkpt lat="43.68143" lon="5.73305">
        <ele>355</ele>
        <time>2016-03-19T09:30:15.133Z</time>
      </trkpt>
      <trkpt lat="43.68136" lon="5.73303">
        <ele>355</ele>
        <time>2016-03-19T09:30:17.233Z</time>
      </trkpt>
      <trkpt lat="43.68131" lon="5.73303">
        <ele>355</ele>
        <time>2016-03-19T09:30:18.130Z</time>
      </trkpt>
      <trkpt lat="43.68125" lon="5.73303">
        <ele>355</ele>
        <time>2016-03-19T09:30:19.158Z</time>
      </trkpt>
      <trkpt lat="43.68122" lon="5.73302">
        <ele>355</ele>
        <time>2016-03-19T09:30:20.139Z</time>
      </trkpt>
      <trkpt lat="43.68115" lon="5.73303">
        <ele>356</ele>
        <time>2016-03-19T09:30:22.157Z</time>
      </trkpt>
      <trkpt lat="43.68112" lon="5.73303">
        <ele>357</ele>
        <time>2016-03-19T09:30:23.132Z</time>
      </trkpt>
      <trkpt lat="43.68106" lon="5.73303">
        <ele>357</ele>
        <time>2016-03-19T09:30:25.157Z</time>
      </trkpt>
      <trkpt lat="43.68102" lon="5.73303">
        <ele>357</ele>
        <time>2016-03-19T09:30:26.133Z</time>
      </trkpt>
      <trkpt lat="43.68096" lon="5.73302">
        <ele>358</ele>
        <time>2016-03-19T09:30:28.154Z</time>
      </trkpt>
      <trkpt lat="43.68092" lon="5.73303">
        <ele>358</ele>
        <time>2016-03-19T09:30:29.132Z</time>
      </trkpt>
      <trkpt lat="43.68085" lon="5.73304">
        <ele>359</ele>
        <time>2016-03-19T09:30:31.159Z</time>
      </trkpt>
      <trkpt lat="43.68083" lon="5.73305">
        <ele>360</ele>
        <time>2016-03-19T09:30:32.133Z</time>
      </trkpt>
      <trkpt lat="43.68076" lon="5.73303">
        <ele>360</ele>
        <time>2016-03-19T09:30:35.158Z</time>
      </trkpt>
      <trkpt lat="43.68073" lon="5.73301">
        <ele>359</ele>
        <time>2016-03-19T09:30:36.133Z</time>
      </trkpt>
      <trkpt lat="43.68069" lon="5.73298">
        <ele>358</ele>
        <time>2016-03-19T09:30:37.158Z</time>
      </trkpt>
      <trkpt lat="43.68064" lon="5.73295">
        <ele>358</ele>
        <time>2016-03-19T09:30:38.133Z</time>
      </trkpt>
      <trkpt lat="43.68056" lon="5.73292">
        <ele>359</ele>
        <time>2016-03-19T09:30:40.154Z</time>
      </trkpt>
      <trkpt lat="43.68051" lon="5.73291">
        <ele>358</ele>
        <time>2016-03-19T09:30:41.132Z</time>
      </trkpt>
      <trkpt lat="43.68047" lon="5.73288">
        <ele>358</ele>
        <time>2016-03-19T09:30:42.160Z</time>
      </trkpt>
      <trkpt lat="43.68043" lon="5.73286">
        <ele>358</ele>
        <time>2016-03-19T09:30:43.129Z</time>
      </trkpt>
      <trkpt lat="43.68039" lon="5.73285">
        <ele>358</ele>
        <time>2016-03-19T09:30:44.147Z</time>
      </trkpt>
      <trkpt lat="43.68033" lon="5.73284">
        <ele>358</ele>
        <time>2016-03-19T09:30:45.158Z</time>
      </trkpt>
      <trkpt lat="43.68025" lon="5.73281">
        <ele>359</ele>
        <time>2016-03-19T09:30:47.158Z</time>
      </trkpt>
      <trkpt lat="43.68021" lon="5.73281">
        <ele>358</ele>
        <time>2016-03-19T09:30:48.133Z</time>
      </trkpt>
      <trkpt lat="43.68013" lon="5.73286">
        <ele>360</ele>
        <time>2016-03-19T09:30:54.159Z</time>
      </trkpt>
      <trkpt lat="43.68013" lon="5.73286">
        <ele>360</ele>
        <time>2016-03-19T09:30:55.134Z</time>
      </trkpt>
      <trkpt lat="43.68005" lon="5.73289">
        <ele>361</ele>
        <time>2016-03-19T09:30:59.462Z</time>
      </trkpt>
      <trkpt lat="43.68002" lon="5.73291">
        <ele>360</ele>
        <time>2016-03-19T09:31:00.135Z</time>
      </trkpt>
      <trkpt lat="43.67994" lon="5.73295">
        <ele>362</ele>
        <time>2016-03-19T09:31:03.158Z</time>
      </trkpt>
      <trkpt lat="43.67991" lon="5.73296">
        <ele>363</ele>
        <time>2016-03-19T09:31:04.132Z</time>
      </trkpt>
      <trkpt lat="43.67983" lon="5.73298">
        <ele>364</ele>
        <time>2016-03-19T09:31:08.159Z</time>
      </trkpt>
      <trkpt lat="43.67981" lon="5.73298">
        <ele>363</ele>
        <time>2016-03-19T09:31:09.132Z</time>
      </trkpt>
      <trkpt lat="43.67975" lon="5.733">
        <ele>362</ele>
        <time>2016-03-19T09:31:11.407Z</time>
      </trkpt>
      <trkpt lat="43.67971" lon="5.73302">
        <ele>362</ele>
        <time>2016-03-19T09:31:12.133Z</time>
      </trkpt>
      <trkpt lat="43.67965" lon="5.73305">
        <ele>362</ele>
        <time>2016-03-19T09:31:14.156Z</time>
      </trkpt>
      <trkpt lat="43.67961" lon="5.73307">
        <ele>362</ele>
        <time>2016-03-19T09:31:15.132Z</time>
      </trkpt>
      <trkpt lat="43.67953" lon="5.7331">
        <ele>362</ele>
        <time>2016-03-19T09:31:17.159Z</time>
      </trkpt>
      <trkpt lat="43.67949" lon="5.73312">
        <ele>362</ele>
        <time>2016-03-19T09:31:18.134Z</time>
      </trkpt>
      <trkpt lat="43.67945" lon="5.73313">
        <ele>362</ele>
        <time>2016-03-19T09:31:19.145Z</time>
      </trkpt>
      <trkpt lat="43.6794" lon="5.73315">
        <ele>362</ele>
        <time>2016-03-19T09:31:20.137Z</time>
      </trkpt>
      <trkpt lat="43.67936" lon="5.73318">
        <ele>361</ele>
        <time>2016-03-19T09:31:21.152Z</time>
      </trkpt>
      <trkpt lat="43.67932" lon="5.73321">
        <ele>361</ele>
        <time>2016-03-19T09:31:22.154Z</time>
      </trkpt>
      <trkpt lat="43.67929" lon="5.73327">
        <ele>361</ele>
        <time>2016-03-19T09:31:23.152Z</time>
      </trkpt>
      <trkpt lat="43.67926" lon="5.73331">
        <ele>360</ele>
        <time>2016-03-19T09:31:24.131Z</time>
      </trkpt>
      <trkpt lat="43.67922" lon="5.73335">
        <ele>359</ele>
        <time>2016-03-19T09:31:25.153Z</time>
      </trkpt>
      <trkpt lat="43.67918" lon="5.73338">
        <ele>360</ele>
        <time>2016-03-19T09:31:26.132Z</time>
      </trkpt>
      <trkpt lat="43.67911" lon="5.73344">
        <ele>360</ele>
        <time>2016-03-19T09:31:30.160Z</time>
      </trkpt>
      <trkpt lat="43.6791" lon="5.73346">
        <ele>360</ele>
        <time>2016-03-19T09:31:31.131Z</time>
      </trkpt>
      <trkpt lat="43.67904" lon="5.73354">
        <ele>360</ele>
        <time>2016-03-19T09:31:34.146Z</time>
      </trkpt>
      <trkpt lat="43.67903" lon="5.73356">
        <ele>361</ele>
        <time>2016-03-19T09:31:35.131Z</time>
      </trkpt>
      <trkpt lat="43.67897" lon="5.73364">
        <ele>359</ele>
        <time>2016-03-19T09:31:39.152Z</time>
      </trkpt>
      <trkpt lat="43.67895" lon="5.73365">
        <ele>358</ele>
        <time>2016-03-19T09:31:40.132Z</time>
      </trkpt>
      <trkpt lat="43.6789" lon="5.73366">
        <ele>356</ele>
        <time>2016-03-19T09:31:42.150Z</time>
      </trkpt>
      <trkpt lat="43.67886" lon="5.73366">
        <ele>355</ele>
        <time>2016-03-19T09:31:43.128Z</time>
      </trkpt>
      <trkpt lat="43.67881" lon="5.73367">
        <ele>352</ele>
        <time>2016-03-19T09:31:44.176Z</time>
      </trkpt>
      <trkpt lat="43.67876" lon="5.73368">
        <ele>352</ele>
        <time>2016-03-19T09:31:45.123Z</time>
      </trkpt>
      <trkpt lat="43.67869" lon="5.73368">
        <ele>351</ele>
        <time>2016-03-19T09:31:47.152Z</time>
      </trkpt>
      <trkpt lat="43.67865" lon="5.7337">
        <ele>351</ele>
        <time>2016-03-19T09:31:48.131Z</time>
      </trkpt>
      <trkpt lat="43.67858" lon="5.73375">
        <ele>350</ele>
        <time>2016-03-19T09:31:50.153Z</time>
      </trkpt>
      <trkpt lat="43.67855" lon="5.73378">
        <ele>349</ele>
        <time>2016-03-19T09:31:51.131Z</time>
      </trkpt>
      <trkpt lat="43.67848" lon="5.73383">
        <ele>347</ele>
        <time>2016-03-19T09:31:53.152Z</time>
      </trkpt>
      <trkpt lat="43.67842" lon="5.73386">
        <ele>346</ele>
        <time>2016-03-19T09:31:54.130Z</time>
      </trkpt>
      <trkpt lat="43.67836" lon="5.73387">
        <ele>346</ele>
        <time>2016-03-19T09:31:55.153Z</time>
      </trkpt>
      <trkpt lat="43.6783" lon="5.73388">
        <ele>346</ele>
        <time>2016-03-19T09:31:56.130Z</time>
      </trkpt>
      <trkpt lat="43.67823" lon="5.73386">
        <ele>346</ele>
        <time>2016-03-19T09:31:57.343Z</time>
      </trkpt>
      <trkpt lat="43.67819" lon="5.73384">
        <ele>346</ele>
        <time>2016-03-19T09:31:58.127Z</time>
      </trkpt>
      <trkpt lat="43.67812" lon="5.73381">
        <ele>346</ele>
        <time>2016-03-19T09:32:00.176Z</time>
      </trkpt>
      <trkpt lat="43.67809" lon="5.73379">
        <ele>346</ele>
        <time>2016-03-19T09:32:01.123Z</time>
      </trkpt>
      <trkpt lat="43.67801" lon="5.7338">
        <ele>349</ele>
        <time>2016-03-19T09:32:06.151Z</time>
      </trkpt>
      <trkpt lat="43.67799" lon="5.73381">
        <ele>350</ele>
        <time>2016-03-19T09:32:07.131Z</time>
      </trkpt>
      <trkpt lat="43.67791" lon="5.73378">
        <ele>351</ele>
        <time>2016-03-19T09:32:11.152Z</time>
      </trkpt>
      <trkpt lat="43.67789" lon="5.73377">
        <ele>351</ele>
        <time>2016-03-19T09:32:12.132Z</time>
      </trkpt>
      <trkpt lat="43.67785" lon="5.73386">
        <ele>357</ele>
        <time>2016-03-19T09:33:12.158Z</time>
      </trkpt>
      <trkpt lat="43.67785" lon="5.73388">
        <ele>357</ele>
        <time>2016-03-19T09:33:13.133Z</time>
      </trkpt>
      <trkpt lat="43.67783" lon="5.734">
        <ele>359</ele>
        <time>2016-03-19T09:33:18.154Z</time>
      </trkpt>
      <trkpt lat="43.67783" lon="5.73403">
        <ele>360</ele>
        <time>2016-03-19T09:33:19.132Z</time>
      </trkpt>
      <trkpt lat="43.67783" lon="5.73414">
        <ele>361</ele>
        <time>2016-03-19T09:33:24.158Z</time>
      </trkpt>
      <trkpt lat="43.67783" lon="5.73417">
        <ele>362</ele>
        <time>2016-03-19T09:33:25.134Z</time>
      </trkpt>
      <trkpt lat="43.67782" lon="5.73428">
        <ele>362</ele>
        <time>2016-03-19T09:33:30.166Z</time>
      </trkpt>
      <trkpt lat="43.67782" lon="5.7343">
        <ele>363</ele>
        <time>2016-03-19T09:33:31.133Z</time>
      </trkpt>
      <trkpt lat="43.67778" lon="5.73441">
        <ele>363</ele>
        <time>2016-03-19T09:33:37.157Z</time>
      </trkpt>
      <trkpt lat="43.67777" lon="5.73442">
        <ele>363</ele>
        <time>2016-03-19T09:33:38.134Z</time>
      </trkpt>
      <trkpt lat="43.67769" lon="5.73442">
        <ele>364</ele>
        <time>2016-03-19T09:33:44.160Z</time>
      </trkpt>
      <trkpt lat="43.67768" lon="5.73442">
        <ele>364</ele>
        <time>2016-03-19T09:33:45.132Z</time>
      </trkpt>
      <trkpt lat="43.6776" lon="5.73439">
        <ele>366</ele>
        <time>2016-03-19T09:33:51.147Z</time>
      </trkpt>
      <trkpt lat="43.67758" lon="5.73438">
        <ele>367</ele>
        <time>2016-03-19T09:33:52.134Z</time>
      </trkpt>
      <trkpt lat="43.67751" lon="5.73436">
        <ele>368</ele>
        <time>2016-03-19T09:33:58.170Z</time>
      </trkpt>
      <trkpt lat="43.6775" lon="5.73436">
        <ele>368</ele>
        <time>2016-03-19T09:33:59.133Z</time>
      </trkpt>
      <trkpt lat="43.67741" lon="5.73437">
        <ele>369</ele>
        <time>2016-03-19T09:34:06.181Z</time>
      </trkpt>
      <trkpt lat="43.6774" lon="5.73437">
        <ele>369</ele>
        <time>2016-03-19T09:34:07.132Z</time>
      </trkpt>
      <trkpt lat="43.67731" lon="5.73436">
        <ele>370</ele>
        <time>2016-03-19T09:34:13.159Z</time>
      </trkpt>
      <trkpt lat="43.67729" lon="5.73437">
        <ele>371</ele>
        <time>2016-03-19T09:34:14.133Z</time>
      </trkpt>
      <trkpt lat="43.67722" lon="5.73443">
        <ele>371</ele>
        <time>2016-03-19T09:34:20.176Z</time>
      </trkpt>
      <trkpt lat="43.67721" lon="5.73444">
        <ele>371</ele>
        <time>2016-03-19T09:34:21.125Z</time>
      </trkpt>
      <trkpt lat="43.67718" lon="5.73453">
        <ele>370</ele>
        <time>2016-03-19T09:34:25.161Z</time>
      </trkpt>
      <trkpt lat="43.67718" lon="5.73459">
        <ele>371</ele>
        <time>2016-03-19T09:34:26.132Z</time>
      </trkpt>
      <trkpt lat="43.67716" lon="5.7347">
        <ele>371</ele>
        <time>2016-03-19T09:34:28.159Z</time>
      </trkpt>
      <trkpt lat="43.67715" lon="5.73475">
        <ele>371</ele>
        <time>2016-03-19T09:34:29.161Z</time>
      </trkpt>
      <trkpt lat="43.67709" lon="5.73484">
        <ele>371</ele>
        <time>2016-03-19T09:34:32.162Z</time>
      </trkpt>
      <trkpt lat="43.67708" lon="5.73486">
        <ele>371</ele>
        <time>2016-03-19T09:34:33.133Z</time>
      </trkpt>
      <trkpt lat="43.677" lon="5.73491">
        <ele>371</ele>
        <time>2016-03-19T09:34:37.162Z</time>
      </trkpt>
      <trkpt lat="43.67698" lon="5.73491">
        <ele>371</ele>
        <time>2016-03-19T09:34:38.133Z</time>
      </trkpt>
      <trkpt lat="43.6769" lon="5.73491">
        <ele>371</ele>
        <time>2016-03-19T09:34:41.160Z</time>
      </trkpt>
      <trkpt lat="43.67687" lon="5.73492">
        <ele>372</ele>
        <time>2016-03-19T09:34:42.133Z</time>
      </trkpt>
      <trkpt lat="43.67681" lon="5.73494">
        <ele>372</ele>
        <time>2016-03-19T09:34:44.159Z</time>
      </trkpt>
      <trkpt lat="43.67678" lon="5.73496">
        <ele>371</ele>
        <time>2016-03-19T09:34:45.132Z</time>
      </trkpt>
      <trkpt lat="43.67672" lon="5.73499">
        <ele>372</ele>
        <time>2016-03-19T09:34:47.161Z</time>
      </trkpt>
      <trkpt lat="43.67668" lon="5.735">
        <ele>372</ele>
        <time>2016-03-19T09:34:48.133Z</time>
      </trkpt>
      <trkpt lat="43.67661" lon="5.735">
        <ele>372</ele>
        <time>2016-03-19T09:34:50.162Z</time>
      </trkpt>
      <trkpt lat="43.67658" lon="5.735">
        <ele>372</ele>
        <time>2016-03-19T09:34:51.160Z</time>
      </trkpt>
      <trkpt lat="43.67651" lon="5.73502">
        <ele>372</ele>
        <time>2016-03-19T09:34:53.162Z</time>
      </trkpt>
      <trkpt lat="43.67647" lon="5.73502">
        <ele>372</ele>
        <time>2016-03-19T09:34:54.132Z</time>
      </trkpt>
      <trkpt lat="43.67639" lon="5.735">
        <ele>372</ele>
        <time>2016-03-19T09:34:56.155Z</time>
      </trkpt>
      <trkpt lat="43.67635" lon="5.73499">
        <ele>372</ele>
        <time>2016-03-19T09:34:57.133Z</time>
      </trkpt>
      <trkpt lat="43.67628" lon="5.73498">
        <ele>372</ele>
        <time>2016-03-19T09:34:59.159Z</time>
      </trkpt>
      <trkpt lat="43.67624" lon="5.73498">
        <ele>372</ele>
        <time>2016-03-19T09:35:00.121Z</time>
      </trkpt>
      <trkpt lat="43.67616" lon="5.73502">
        <ele>372</ele>
        <time>2016-03-19T09:35:03.158Z</time>
      </trkpt>
      <trkpt lat="43.67614" lon="5.73504">
        <ele>372</ele>
        <time>2016-03-19T09:35:04.133Z</time>
      </trkpt>
      <trkpt lat="43.67611" lon="5.73514">
        <ele>372</ele>
        <time>2016-03-19T09:35:07.228Z</time>
      </trkpt>
      <trkpt lat="43.67611" lon="5.73517">
        <ele>372</ele>
        <time>2016-03-19T09:35:08.133Z</time>
      </trkpt>
      <trkpt lat="43.67611" lon="5.73528">
        <ele>371</ele>
        <time>2016-03-19T09:35:11.155Z</time>
      </trkpt>
      <trkpt lat="43.67609" lon="5.73531">
        <ele>371</ele>
        <time>2016-03-19T09:35:12.134Z</time>
      </trkpt>
      <trkpt lat="43.67603" lon="5.73536">
        <ele>369</ele>
        <time>2016-03-19T09:35:15.157Z</time>
      </trkpt>
      <trkpt lat="43.67601" lon="5.73538">
        <ele>369</ele>
        <time>2016-03-19T09:35:16.133Z</time>
      </trkpt>
      <trkpt lat="43.67598" lon="5.73546">
        <ele>368</ele>
        <time>2016-03-19T09:35:18.188Z</time>
      </trkpt>
      <trkpt lat="43.67596" lon="5.73552">
        <ele>367</ele>
        <time>2016-03-19T09:35:19.135Z</time>
      </trkpt>
      <trkpt lat="43.67593" lon="5.73558">
        <ele>367</ele>
        <time>2016-03-19T09:35:20.184Z</time>
      </trkpt>
      <trkpt lat="43.67592" lon="5.73563">
        <ele>366</ele>
        <time>2016-03-19T09:35:21.132Z</time>
      </trkpt>
      <trkpt lat="43.67587" lon="5.73572">
        <ele>364</ele>
        <time>2016-03-19T09:35:24.160Z</time>
      </trkpt>
      <trkpt lat="43.67585" lon="5.73573">
        <ele>363</ele>
        <time>2016-03-19T09:35:25.124Z</time>
      </trkpt>
      <trkpt lat="43.67577" lon="5.73577">
        <ele>359</ele>
        <time>2016-03-19T09:35:28.161Z</time>
      </trkpt>
      <trkpt lat="43.67574" lon="5.73578">
        <ele>358</ele>
        <time>2016-03-19T09:35:29.155Z</time>
      </trkpt>
      <trkpt lat="43.67567" lon="5.73583">
        <ele>356</ele>
        <time>2016-03-19T09:35:31.157Z</time>
      </trkpt>
      <trkpt lat="43.67565" lon="5.73588">
        <ele>355</ele>
        <time>2016-03-19T09:35:32.124Z</time>
      </trkpt>
      <trkpt lat="43.67562" lon="5.73594">
        <ele>354</ele>
        <time>2016-03-19T09:35:33.162Z</time>
      </trkpt>
      <trkpt lat="43.67561" lon="5.736">
        <ele>354</ele>
        <time>2016-03-19T09:35:34.134Z</time>
      </trkpt>
      <trkpt lat="43.67561" lon="5.7361">
        <ele>355</ele>
        <time>2016-03-19T09:35:36.171Z</time>
      </trkpt>
      <trkpt lat="43.67561" lon="5.73613">
        <ele>355</ele>
        <time>2016-03-19T09:35:37.133Z</time>
      </trkpt>
      <trkpt lat="43.6756" lon="5.73622">
        <ele>353</ele>
        <time>2016-03-19T09:35:39.159Z</time>
      </trkpt>
      <trkpt lat="43.67559" lon="5.73626">
        <ele>352</ele>
        <time>2016-03-19T09:35:40.132Z</time>
      </trkpt>
      <trkpt lat="43.67552" lon="5.73634">
        <ele>350</ele>
        <time>2016-03-19T09:35:42.233Z</time>
      </trkpt>
      <trkpt lat="43.67548" lon="5.73638">
        <ele>350</ele>
        <time>2016-03-19T09:35:43.134Z</time>
      </trkpt>
      <trkpt lat="43.67543" lon="5.73641">
        <ele>350</ele>
        <time>2016-03-19T09:35:44.164Z</time>
      </trkpt>
      <trkpt lat="43.67539" lon="5.73643">
        <ele>350</ele>
        <time>2016-03-19T09:35:45.160Z</time>
      </trkpt>
      <trkpt lat="43.67533" lon="5.73647">
        <ele>351</ele>
        <time>2016-03-19T09:35:47.164Z</time>
      </trkpt>
      <trkpt lat="43.6753" lon="5.73649">
        <ele>351</ele>
        <time>2016-03-19T09:35:48.134Z</time>
      </trkpt>
      <trkpt lat="43.67524" lon="5.73644">
        <ele>351</ele>
        <time>2016-03-19T09:35:51.159Z</time>
      </trkpt>
      <trkpt lat="43.67522" lon="5.73642">
        <ele>351</ele>
        <time>2016-03-19T09:35:52.133Z</time>
      </trkpt>
      <trkpt lat="43.67516" lon="5.73634">
        <ele>352</ele>
        <time>2016-03-19T09:36:10.159Z</time>
      </trkpt>
      <trkpt lat="43.67514" lon="5.73631">
        <ele>351</ele>
        <time>2016-03-19T09:36:11.133Z</time>
      </trkpt>
      <trkpt lat="43.67508" lon="5.73627">
        <ele>351</ele>
        <time>2016-03-19T09:36:13.157Z</time>
      </trkpt>
      <trkpt lat="43.67505" lon="5.73624">
        <ele>351</ele>
        <time>2016-03-19T09:36:14.125Z</time>
      </trkpt>
      <trkpt lat="43.67497" lon="5.7362">
        <ele>350</ele>
        <time>2016-03-19T09:36:16.162Z</time>
      </trkpt>
      <trkpt lat="43.67494" lon="5.73617">
        <ele>350</ele>
        <time>2016-03-19T09:36:17.134Z</time>
      </trkpt>
      <trkpt lat="43.67487" lon="5.73611">
        <ele>351</ele>
        <time>2016-03-19T09:36:19.157Z</time>
      </trkpt>
      <trkpt lat="43.67484" lon="5.73607">
        <ele>352</ele>
        <time>2016-03-19T09:36:20.138Z</time>
      </trkpt>
      <trkpt lat="43.67482" lon="5.73595">
        <ele>352</ele>
        <time>2016-03-19T09:36:23.159Z</time>
      </trkpt>
      <trkpt lat="43.67482" lon="5.7359">
        <ele>351</ele>
        <time>2016-03-19T09:36:24.137Z</time>
      </trkpt>
      <trkpt lat="43.67482" lon="5.73584">
        <ele>351</ele>
        <time>2016-03-19T09:36:25.155Z</time>
      </trkpt>
      <trkpt lat="43.67483" lon="5.73575">
        <ele>351</ele>
        <time>2016-03-19T09:36:26.132Z</time>
      </trkpt>
      <trkpt lat="43.67484" lon="5.73568">
        <ele>351</ele>
        <time>2016-03-19T09:36:27.158Z</time>
      </trkpt>
      <trkpt lat="43.67484" lon="5.73561">
        <ele>350</ele>
        <time>2016-03-19T09:36:28.136Z</time>
      </trkpt>
      <trkpt lat="43.67484" lon="5.73554">
        <ele>349</ele>
        <time>2016-03-19T09:36:29.163Z</time>
      </trkpt>
      <trkpt lat="43.67483" lon="5.73547">
        <ele>349</ele>
        <time>2016-03-19T09:36:30.132Z</time>
      </trkpt>
      <trkpt lat="43.67481" lon="5.73539">
        <ele>349</ele>
        <time>2016-03-19T09:36:31.163Z</time>
      </trkpt>
      <trkpt lat="43.67478" lon="5.73532">
        <ele>349</ele>
        <time>2016-03-19T09:36:32.134Z</time>
      </trkpt>
      <trkpt lat="43.67475" lon="5.73527">
        <ele>349</ele>
        <time>2016-03-19T09:36:33.183Z</time>
      </trkpt>
      <trkpt lat="43.67471" lon="5.73521">
        <ele>349</ele>
        <time>2016-03-19T09:36:34.134Z</time>
      </trkpt>
      <trkpt lat="43.67468" lon="5.73516">
        <ele>349</ele>
        <time>2016-03-19T09:36:35.158Z</time>
      </trkpt>
      <trkpt lat="43.67465" lon="5.73511">
        <ele>348</ele>
        <time>2016-03-19T09:36:36.132Z</time>
      </trkpt>
      <trkpt lat="43.6746" lon="5.73507">
        <ele>349</ele>
        <time>2016-03-19T09:36:37.158Z</time>
      </trkpt>
      <trkpt lat="43.67455" lon="5.73508">
        <ele>348</ele>
        <time>2016-03-19T09:36:38.132Z</time>
      </trkpt>
      <trkpt lat="43.67449" lon="5.73509">
        <ele>348</ele>
        <time>2016-03-19T09:36:39.157Z</time>
      </trkpt>
      <trkpt lat="43.67443" lon="5.73509">
        <ele>348</ele>
        <time>2016-03-19T09:36:40.133Z</time>
      </trkpt>
      <trkpt lat="43.67434" lon="5.7351">
        <ele>349</ele>
        <time>2016-03-19T09:36:42.158Z</time>
      </trkpt>
      <trkpt lat="43.6743" lon="5.7351">
        <ele>349</ele>
        <time>2016-03-19T09:36:43.158Z</time>
      </trkpt>
      <trkpt lat="43.67421" lon="5.7351">
        <ele>349</ele>
        <time>2016-03-19T09:36:45.159Z</time>
      </trkpt>
      <trkpt lat="43.67417" lon="5.73511">
        <ele>349</ele>
        <time>2016-03-19T09:36:46.132Z</time>
      </trkpt>
      <trkpt lat="43.67412" lon="5.73512">
        <ele>349</ele>
        <time>2016-03-19T09:36:47.157Z</time>
      </trkpt>
      <trkpt lat="43.67407" lon="5.73513">
        <ele>349</ele>
        <time>2016-03-19T09:36:48.133Z</time>
      </trkpt>
      <trkpt lat="43.67403" lon="5.73514">
        <ele>349</ele>
        <time>2016-03-19T09:36:49.157Z</time>
      </trkpt>
      <trkpt lat="43.67398" lon="5.73515">
        <ele>349</ele>
        <time>2016-03-19T09:36:50.132Z</time>
      </trkpt>
      <trkpt lat="43.67393" lon="5.73516">
        <ele>349</ele>
        <time>2016-03-19T09:36:51.162Z</time>
      </trkpt>
      <trkpt lat="43.67389" lon="5.73518">
        <ele>349</ele>
        <time>2016-03-19T09:36:52.130Z</time>
      </trkpt>
      <trkpt lat="43.67384" lon="5.73522">
        <ele>349</ele>
        <time>2016-03-19T09:36:53.407Z</time>
      </trkpt>
      <trkpt lat="43.6738" lon="5.73527">
        <ele>349</ele>
        <time>2016-03-19T09:36:54.132Z</time>
      </trkpt>
      <trkpt lat="43.67376" lon="5.73532">
        <ele>349</ele>
        <time>2016-03-19T09:36:55.158Z</time>
      </trkpt>
      <trkpt lat="43.67372" lon="5.73537">
        <ele>349</ele>
        <time>2016-03-19T09:36:56.136Z</time>
      </trkpt>
      <trkpt lat="43.67366" lon="5.73546">
        <ele>349</ele>
        <time>2016-03-19T09:36:58.161Z</time>
      </trkpt>
      <trkpt lat="43.67363" lon="5.7355">
        <ele>349</ele>
        <time>2016-03-19T09:36:59.140Z</time>
      </trkpt>
      <trkpt lat="43.67358" lon="5.73559">
        <ele>349</ele>
        <time>2016-03-19T09:37:01.153Z</time>
      </trkpt>
      <trkpt lat="43.67356" lon="5.73563">
        <ele>349</ele>
        <time>2016-03-19T09:37:02.133Z</time>
      </trkpt>
      <trkpt lat="43.67351" lon="5.73572">
        <ele>350</ele>
        <time>2016-03-19T09:37:04.185Z</time>
      </trkpt>
      <trkpt lat="43.67349" lon="5.73576">
        <ele>350</ele>
        <time>2016-03-19T09:37:05.364Z</time>
      </trkpt>
      <trkpt lat="43.67344" lon="5.73585">
        <ele>349</ele>
        <time>2016-03-19T09:37:07.156Z</time>
      </trkpt>
      <trkpt lat="43.67341" lon="5.7359">
        <ele>349</ele>
        <time>2016-03-19T09:37:08.132Z</time>
      </trkpt>
      <trkpt lat="43.67337" lon="5.736">
        <ele>349</ele>
        <time>2016-03-19T09:37:10.158Z</time>
      </trkpt>
      <trkpt lat="43.67335" lon="5.73605">
        <ele>349</ele>
        <time>2016-03-19T09:37:11.134Z</time>
      </trkpt>
      <trkpt lat="43.67329" lon="5.73614">
        <ele>348</ele>
        <time>2016-03-19T09:37:13.163Z</time>
      </trkpt>
      <trkpt lat="43.67323" lon="5.73616">
        <ele>348</ele>
        <time>2016-03-19T09:37:14.135Z</time>
      </trkpt>
      <trkpt lat="43.67319" lon="5.73619">
        <ele>348</ele>
        <time>2016-03-19T09:37:15.148Z</time>
      </trkpt>
      <trkpt lat="43.67315" lon="5.73622">
        <ele>348</ele>
        <time>2016-03-19T09:37:16.133Z</time>
      </trkpt>
      <trkpt lat="43.67307" lon="5.73627">
        <ele>349</ele>
        <time>2016-03-19T09:37:18.159Z</time>
      </trkpt>
      <trkpt lat="43.67303" lon="5.73631">
        <ele>349</ele>
        <time>2016-03-19T09:37:19.133Z</time>
      </trkpt>
      <trkpt lat="43.67297" lon="5.73638">
        <ele>349</ele>
        <time>2016-03-19T09:37:21.158Z</time>
      </trkpt>
      <trkpt lat="43.67294" lon="5.73641">
        <ele>350</ele>
        <time>2016-03-19T09:37:22.134Z</time>
      </trkpt>
      <trkpt lat="43.67288" lon="5.73646">
        <ele>350</ele>
        <time>2016-03-19T09:37:24.159Z</time>
      </trkpt>
      <trkpt lat="43.67285" lon="5.7365">
        <ele>350</ele>
        <time>2016-03-19T09:37:25.158Z</time>
      </trkpt>
      <trkpt lat="43.67279" lon="5.73657">
        <ele>351</ele>
        <time>2016-03-19T09:37:27.159Z</time>
      </trkpt>
      <trkpt lat="43.67277" lon="5.73661">
        <ele>351</ele>
        <time>2016-03-19T09:37:28.133Z</time>
      </trkpt>
      <trkpt lat="43.67272" lon="5.73668">
        <ele>351</ele>
        <time>2016-03-19T09:37:30.185Z</time>
      </trkpt>
      <trkpt lat="43.67269" lon="5.73671">
        <ele>352</ele>
        <time>2016-03-19T09:37:31.133Z</time>
      </trkpt>
      <trkpt lat="43.67264" lon="5.73677">
        <ele>352</ele>
        <time>2016-03-19T09:37:33.163Z</time>
      </trkpt>
      <trkpt lat="43.67261" lon="5.7368">
        <ele>352</ele>
        <time>2016-03-19T09:37:34.132Z</time>
      </trkpt>
      <trkpt lat="43.67254" lon="5.73685">
        <ele>352</ele>
        <time>2016-03-19T09:37:36.164Z</time>
      </trkpt>
      <trkpt lat="43.67252" lon="5.73688">
        <ele>352</ele>
        <time>2016-03-19T09:37:37.133Z</time>
      </trkpt>
      <trkpt lat="43.67246" lon="5.73694">
        <ele>353</ele>
        <time>2016-03-19T09:37:39.159Z</time>
      </trkpt>
      <trkpt lat="43.67244" lon="5.73698">
        <ele>353</ele>
        <time>2016-03-19T09:37:40.134Z</time>
      </trkpt>
      <trkpt lat="43.67239" lon="5.73705">
        <ele>353</ele>
        <time>2016-03-19T09:37:42.158Z</time>
      </trkpt>
      <trkpt lat="43.67238" lon="5.73708">
        <ele>353</ele>
        <time>2016-03-19T09:37:43.133Z</time>
      </trkpt>
      <trkpt lat="43.67233" lon="5.73717">
        <ele>353</ele>
        <time>2016-03-19T09:37:46.158Z</time>
      </trkpt>
      <trkpt lat="43.67232" lon="5.73722">
        <ele>353</ele>
        <time>2016-03-19T09:37:47.134Z</time>
      </trkpt>
      <trkpt lat="43.6723" lon="5.73732">
        <ele>353</ele>
        <time>2016-03-19T09:37:49.159Z</time>
      </trkpt>
      <trkpt lat="43.67229" lon="5.73737">
        <ele>354</ele>
        <time>2016-03-19T09:37:50.136Z</time>
      </trkpt>
      <trkpt lat="43.67228" lon="5.73746">
        <ele>354</ele>
        <time>2016-03-19T09:37:52.157Z</time>
      </trkpt>
      <trkpt lat="43.67228" lon="5.73751">
        <ele>353</ele>
        <time>2016-03-19T09:37:53.132Z</time>
      </trkpt>
      <trkpt lat="43.67228" lon="5.7376">
        <ele>353</ele>
        <time>2016-03-19T09:37:55.158Z</time>
      </trkpt>
      <trkpt lat="43.67228" lon="5.73765">
        <ele>353</ele>
        <time>2016-03-19T09:37:56.134Z</time>
      </trkpt>
      <trkpt lat="43.67228" lon="5.73775">
        <ele>353</ele>
        <time>2016-03-19T09:37:58.158Z</time>
      </trkpt>
      <trkpt lat="43.67228" lon="5.73781">
        <ele>353</ele>
        <time>2016-03-19T09:37:59.133Z</time>
      </trkpt>
      <trkpt lat="43.6723" lon="5.73791">
        <ele>352</ele>
        <time>2016-03-19T09:38:01.163Z</time>
      </trkpt>
      <trkpt lat="43.67231" lon="5.73797">
        <ele>352</ele>
        <time>2016-03-19T09:38:02.154Z</time>
      </trkpt>
      <trkpt lat="43.67231" lon="5.73807">
        <ele>352</ele>
        <time>2016-03-19T09:38:04.377Z</time>
      </trkpt>
      <trkpt lat="43.67231" lon="5.73812">
        <ele>352</ele>
        <time>2016-03-19T09:38:05.131Z</time>
      </trkpt>
      <trkpt lat="43.67234" lon="5.73822">
        <ele>352</ele>
        <time>2016-03-19T09:38:07.160Z</time>
      </trkpt>
      <trkpt lat="43.67235" lon="5.73827">
        <ele>351</ele>
        <time>2016-03-19T09:38:08.135Z</time>
      </trkpt>
      <trkpt lat="43.67237" lon="5.73839">
        <ele>351</ele>
        <time>2016-03-19T09:38:10.160Z</time>
      </trkpt>
      <trkpt lat="43.67237" lon="5.73844">
        <ele>352</ele>
        <time>2016-03-19T09:38:11.134Z</time>
      </trkpt>
      <trkpt lat="43.67239" lon="5.73856">
        <ele>351</ele>
        <time>2016-03-19T09:38:13.165Z</time>
      </trkpt>
      <trkpt lat="43.6724" lon="5.73861">
        <ele>351</ele>
        <time>2016-03-19T09:38:14.134Z</time>
      </trkpt>
      <trkpt lat="43.67243" lon="5.7387">
        <ele>352</ele>
        <time>2016-03-19T09:38:16.154Z</time>
      </trkpt>
      <trkpt lat="43.67245" lon="5.73874">
        <ele>352</ele>
        <time>2016-03-19T09:38:17.133Z</time>
      </trkpt>
      <trkpt lat="43.67249" lon="5.73881">
        <ele>352</ele>
        <time>2016-03-19T09:38:19.158Z</time>
      </trkpt>
      <trkpt lat="43.67251" lon="5.73885">
        <ele>352</ele>
        <time>2016-03-19T09:38:20.141Z</time>
      </trkpt>
      <trkpt lat="43.67253" lon="5.73894">
        <ele>352</ele>
        <time>2016-03-19T09:38:22.165Z</time>
      </trkpt>
      <trkpt lat="43.67255" lon="5.73899">
        <ele>352</ele>
        <time>2016-03-19T09:38:23.132Z</time>
      </trkpt>
      <trkpt lat="43.6726" lon="5.73906">
        <ele>353</ele>
        <time>2016-03-19T09:38:25.148Z</time>
      </trkpt>
      <trkpt lat="43.67262" lon="5.73911">
        <ele>353</ele>
        <time>2016-03-19T09:38:26.133Z</time>
      </trkpt>
      <trkpt lat="43.67264" lon="5.73915">
        <ele>351</ele>
        <time>2016-03-19T09:38:27.158Z</time>
      </trkpt>
      <trkpt lat="43.67269" lon="5.7392">
        <ele>352</ele>
        <time>2016-03-19T09:38:28.134Z</time>
      </trkpt>
      <trkpt lat="43.67276" lon="5.73924">
        <ele>351</ele>
        <time>2016-03-19T09:38:30.164Z</time>
      </trkpt>
      <trkpt lat="43.6728" lon="5.73928">
        <ele>351</ele>
        <time>2016-03-19T09:38:31.133Z</time>
      </trkpt>
      <trkpt lat="43.67286" lon="5.73933">
        <ele>351</ele>
        <time>2016-03-19T09:38:33.159Z</time>
      </trkpt>
      <trkpt lat="43.6729" lon="5.73935">
        <ele>351</ele>
        <time>2016-03-19T09:38:34.129Z</time>
      </trkpt>
      <trkpt lat="43.67297" lon="5.73939">
        <ele>351</ele>
        <time>2016-03-19T09:38:36.169Z</time>
      </trkpt>
      <trkpt lat="43.67301" lon="5.73941">
        <ele>352</ele>
        <time>2016-03-19T09:38:37.120Z</time>
      </trkpt>
      <trkpt lat="43.67308" lon="5.73943">
        <ele>352</ele>
        <time>2016-03-19T09:38:39.143Z</time>
      </trkpt>
      <trkpt lat="43.67311" lon="5.73945">
        <ele>353</ele>
        <time>2016-03-19T09:38:40.121Z</time>
      </trkpt>
      <trkpt lat="43.67315" lon="5.73951">
        <ele>353</ele>
        <time>2016-03-19T09:38:42.152Z</time>
      </trkpt>
      <trkpt lat="43.67315" lon="5.73956">
        <ele>355</ele>
        <time>2016-03-19T09:38:43.132Z</time>
      </trkpt>
      <trkpt lat="43.67311" lon="5.73964">
        <ele>355</ele>
        <time>2016-03-19T09:38:45.157Z</time>
      </trkpt>
      <trkpt lat="43.6731" lon="5.73967">
        <ele>354</ele>
        <time>2016-03-19T09:38:46.134Z</time>
      </trkpt>
      <trkpt lat="43.67306" lon="5.73975">
        <ele>355</ele>
        <time>2016-03-19T09:38:48.158Z</time>
      </trkpt>
      <trkpt lat="43.67304" lon="5.73979">
        <ele>355</ele>
        <time>2016-03-19T09:38:49.133Z</time>
      </trkpt>
      <trkpt lat="43.67303" lon="5.73989">
        <ele>354</ele>
        <time>2016-03-19T09:38:51.157Z</time>
      </trkpt>
      <trkpt lat="43.67302" lon="5.73994">
        <ele>354</ele>
        <time>2016-03-19T09:38:52.134Z</time>
      </trkpt>
      <trkpt lat="43.67303" lon="5.74005">
        <ele>354</ele>
        <time>2016-03-19T09:38:54.158Z</time>
      </trkpt>
      <trkpt lat="43.67303" lon="5.74011">
        <ele>354</ele>
        <time>2016-03-19T09:38:55.133Z</time>
      </trkpt>
      <trkpt lat="43.67304" lon="5.74023">
        <ele>354</ele>
        <time>2016-03-19T09:38:57.159Z</time>
      </trkpt>
      <trkpt lat="43.67305" lon="5.74029">
        <ele>354</ele>
        <time>2016-03-19T09:38:58.133Z</time>
      </trkpt>
      <trkpt lat="43.67306" lon="5.74041">
        <ele>354</ele>
        <time>2016-03-19T09:39:00.190Z</time>
      </trkpt>
      <trkpt lat="43.67306" lon="5.74047">
        <ele>354</ele>
        <time>2016-03-19T09:39:01.132Z</time>
      </trkpt>
      <trkpt lat="43.67306" lon="5.74058">
        <ele>354</ele>
        <time>2016-03-19T09:39:03.159Z</time>
      </trkpt>
      <trkpt lat="43.67306" lon="5.74064">
        <ele>354</ele>
        <time>2016-03-19T09:39:04.133Z</time>
      </trkpt>
      <trkpt lat="43.67305" lon="5.74076">
        <ele>354</ele>
        <time>2016-03-19T09:39:06.156Z</time>
      </trkpt>
      <trkpt lat="43.67304" lon="5.74082">
        <ele>355</ele>
        <time>2016-03-19T09:39:07.120Z</time>
      </trkpt>
      <trkpt lat="43.67303" lon="5.74093">
        <ele>355</ele>
        <time>2016-03-19T09:39:09.165Z</time>
      </trkpt>
      <trkpt lat="43.67303" lon="5.74098">
        <ele>354</ele>
        <time>2016-03-19T09:39:10.133Z</time>
      </trkpt>
      <trkpt lat="43.67303" lon="5.7411">
        <ele>355</ele>
        <time>2016-03-19T09:39:12.153Z</time>
      </trkpt>
      <trkpt lat="43.67304" lon="5.74115">
        <ele>355</ele>
        <time>2016-03-19T09:39:13.132Z</time>
      </trkpt>
      <trkpt lat="43.67307" lon="5.74126">
        <ele>355</ele>
        <time>2016-03-19T09:39:15.338Z</time>
      </trkpt>
      <trkpt lat="43.67309" lon="5.74131">
        <ele>355</ele>
        <time>2016-03-19T09:39:16.154Z</time>
      </trkpt>
      <trkpt lat="43.67314" lon="5.7414">
        <ele>355</ele>
        <time>2016-03-19T09:39:18.154Z</time>
      </trkpt>
      <trkpt lat="43.67315" lon="5.74141">
        <ele>354</ele>
        <time>2016-03-19T09:39:19.128Z</time>
      </trkpt>
      <trkpt lat="43.6731" lon="5.74151">
        <ele>348</ele>
        <time>2016-03-19T09:41:27.157Z</time>
      </trkpt>
      <trkpt lat="43.67309" lon="5.74152">
        <ele>348</ele>
        <time>2016-03-19T09:41:28.135Z</time>
      </trkpt>
      <trkpt lat="43.67305" lon="5.74159">
        <ele>346</ele>
        <time>2016-03-19T09:41:41.159Z</time>
      </trkpt>
      <trkpt lat="43.67301" lon="5.74164">
        <ele>345</ele>
        <time>2016-03-19T09:41:42.132Z</time>
      </trkpt>
      <trkpt lat="43.67295" lon="5.74172">
        <ele>346</ele>
        <time>2016-03-19T09:41:43.159Z</time>
      </trkpt>
      <trkpt lat="43.67292" lon="5.74177">
        <ele>345</ele>
        <time>2016-03-19T09:41:44.223Z</time>
      </trkpt>
      <trkpt lat="43.67285" lon="5.74181">
        <ele>345</ele>
        <time>2016-03-19T09:41:46.158Z</time>
      </trkpt>
      <trkpt lat="43.67282" lon="5.74179">
        <ele>345</ele>
        <time>2016-03-19T09:41:47.135Z</time>
      </trkpt>
      <trkpt lat="43.67277" lon="5.74171">
        <ele>342</ele>
        <time>2016-03-19T09:41:49.160Z</time>
      </trkpt>
      <trkpt lat="43.67274" lon="5.74168">
        <ele>343</ele>
        <time>2016-03-19T09:41:50.135Z</time>
      </trkpt>
      <trkpt lat="43.67266" lon="5.74162">
        <ele>344</ele>
        <time>2016-03-19T09:41:53.161Z</time>
      </trkpt>
      <trkpt lat="43.67265" lon="5.7416">
        <ele>344</ele>
        <time>2016-03-19T09:41:54.134Z</time>
      </trkpt>
      <trkpt lat="43.6726" lon="5.7415">
        <ele>345</ele>
        <time>2016-03-19T09:42:27.160Z</time>
      </trkpt>
      <trkpt lat="43.67258" lon="5.74147">
        <ele>344</ele>
        <time>2016-03-19T09:42:28.133Z</time>
      </trkpt>
      <trkpt lat="43.67253" lon="5.74141">
        <ele>345</ele>
        <time>2016-03-19T09:42:30.160Z</time>
      </trkpt>
      <trkpt lat="43.67251" lon="5.74137">
        <ele>345</ele>
        <time>2016-03-19T09:42:31.134Z</time>
      </trkpt>
      <trkpt lat="43.67246" lon="5.74128">
        <ele>345</ele>
        <time>2016-03-19T09:42:34.156Z</time>
      </trkpt>
      <trkpt lat="43.67244" lon="5.74126">
        <ele>345</ele>
        <time>2016-03-19T09:42:35.132Z</time>
      </trkpt>
      <trkpt lat="43.67239" lon="5.74116">
        <ele>346</ele>
        <time>2016-03-19T09:42:39.159Z</time>
      </trkpt>
      <trkpt lat="43.67238" lon="5.74114">
        <ele>347</ele>
        <time>2016-03-19T09:42:40.132Z</time>
      </trkpt>
      <trkpt lat="43.67233" lon="5.74104">
        <ele>349</ele>
        <time>2016-03-19T09:42:45.160Z</time>
      </trkpt>
      <trkpt lat="43.67232" lon="5.74102">
        <ele>350</ele>
        <time>2016-03-19T09:42:46.134Z</time>
      </trkpt>
      <trkpt lat="43.67229" lon="5.74092">
        <ele>352</ele>
        <time>2016-03-19T09:42:51.160Z</time>
      </trkpt>
      <trkpt lat="43.67228" lon="5.74091">
        <ele>351</ele>
        <time>2016-03-19T09:42:52.135Z</time>
      </trkpt>
      <trkpt lat="43.67222" lon="5.74082">
        <ele>349</ele>
        <time>2016-03-19T09:43:08.159Z</time>
      </trkpt>
      <trkpt lat="43.67221" lon="5.74079">
        <ele>349</ele>
        <time>2016-03-19T09:43:09.133Z</time>
      </trkpt>
      <trkpt lat="43.67217" lon="5.74071">
        <ele>350</ele>
        <time>2016-03-19T09:43:12.376Z</time>
      </trkpt>
      <trkpt lat="43.67216" lon="5.74069">
        <ele>350</ele>
        <time>2016-03-19T09:43:13.135Z</time>
      </trkpt>
      <trkpt lat="43.67211" lon="5.74061">
        <ele>350</ele>
        <time>2016-03-19T09:43:16.150Z</time>
      </trkpt>
      <trkpt lat="43.67209" lon="5.74057">
        <ele>350</ele>
        <time>2016-03-19T09:43:17.132Z</time>
      </trkpt>
      <trkpt lat="43.67204" lon="5.7405">
        <ele>351</ele>
        <time>2016-03-19T09:43:19.159Z</time>
      </trkpt>
      <trkpt lat="43.67202" lon="5.74046">
        <ele>350</ele>
        <time>2016-03-19T09:43:20.129Z</time>
      </trkpt>
      <trkpt lat="43.67196" lon="5.7404">
        <ele>351</ele>
        <time>2016-03-19T09:43:22.159Z</time>
      </trkpt>
      <trkpt lat="43.67193" lon="5.74038">
        <ele>351</ele>
        <time>2016-03-19T09:43:23.135Z</time>
      </trkpt>
      <trkpt lat="43.67187" lon="5.74034">
        <ele>351</ele>
        <time>2016-03-19T09:43:25.155Z</time>
      </trkpt>
      <trkpt lat="43.67184" lon="5.74032">
        <ele>351</ele>
        <time>2016-03-19T09:43:26.135Z</time>
      </trkpt>
      <trkpt lat="43.67177" lon="5.7403">
        <ele>351</ele>
        <time>2016-03-19T09:43:28.144Z</time>
      </trkpt>
      <trkpt lat="43.67174" lon="5.7403">
        <ele>352</ele>
        <time>2016-03-19T09:43:29.133Z</time>
      </trkpt>
      <trkpt lat="43.67167" lon="5.7403">
        <ele>353</ele>
        <time>2016-03-19T09:43:31.187Z</time>
      </trkpt>
      <trkpt lat="43.67165" lon="5.74029">
        <ele>353</ele>
        <time>2016-03-19T09:43:32.135Z</time>
      </trkpt>
      <trkpt lat="43.67159" lon="5.74027">
        <ele>353</ele>
        <time>2016-03-19T09:43:34.162Z</time>
      </trkpt>
      <trkpt lat="43.67156" lon="5.74026">
        <ele>353</ele>
        <time>2016-03-19T09:43:35.134Z</time>
      </trkpt>
      <trkpt lat="43.67149" lon="5.74027">
        <ele>353</ele>
        <time>2016-03-19T09:43:37.159Z</time>
      </trkpt>
      <trkpt lat="43.67145" lon="5.74028">
        <ele>353</ele>
        <time>2016-03-19T09:43:38.131Z</time>
      </trkpt>
      <trkpt lat="43.67138" lon="5.74031">
        <ele>352</ele>
        <time>2016-03-19T09:43:40.158Z</time>
      </trkpt>
      <trkpt lat="43.67135" lon="5.74032">
        <ele>353</ele>
        <time>2016-03-19T09:43:41.136Z</time>
      </trkpt>
      <trkpt lat="43.67128" lon="5.74035">
        <ele>353</ele>
        <time>2016-03-19T09:43:43.151Z</time>
      </trkpt>
      <trkpt lat="43.67124" lon="5.74036">
        <ele>353</ele>
        <time>2016-03-19T09:43:44.135Z</time>
      </trkpt>
      <trkpt lat="43.67117" lon="5.74038">
        <ele>354</ele>
        <time>2016-03-19T09:43:46.159Z</time>
      </trkpt>
      <trkpt lat="43.67114" lon="5.74039">
        <ele>354</ele>
        <time>2016-03-19T09:43:47.168Z</time>
      </trkpt>
      <trkpt lat="43.67106" lon="5.74042">
        <ele>354</ele>
        <time>2016-03-19T09:43:49.158Z</time>
      </trkpt>
      <trkpt lat="43.67103" lon="5.74044">
        <ele>354</ele>
        <time>2016-03-19T09:43:50.134Z</time>
      </trkpt>
      <trkpt lat="43.67096" lon="5.74048">
        <ele>354</ele>
        <time>2016-03-19T09:43:52.163Z</time>
      </trkpt>
      <trkpt lat="43.67093" lon="5.7405">
        <ele>354</ele>
        <time>2016-03-19T09:43:53.135Z</time>
      </trkpt>
      <trkpt lat="43.67086" lon="5.74054">
        <ele>355</ele>
        <time>2016-03-19T09:43:56.160Z</time>
      </trkpt>
      <trkpt lat="43.67083" lon="5.74056">
        <ele>355</ele>
        <time>2016-03-19T09:43:57.132Z</time>
      </trkpt>
      <trkpt lat="43.67077" lon="5.74062">
        <ele>355</ele>
        <time>2016-03-19T09:44:00.157Z</time>
      </trkpt>
      <trkpt lat="43.67076" lon="5.74064">
        <ele>355</ele>
        <time>2016-03-19T09:44:01.137Z</time>
      </trkpt>
      <trkpt lat="43.6707" lon="5.74072">
        <ele>354</ele>
        <time>2016-03-19T09:44:04.157Z</time>
      </trkpt>
      <trkpt lat="43.67068" lon="5.74075">
        <ele>354</ele>
        <time>2016-03-19T09:44:05.135Z</time>
      </trkpt>
      <trkpt lat="43.67062" lon="5.74082">
        <ele>354</ele>
        <time>2016-03-19T09:44:08.159Z</time>
      </trkpt>
      <trkpt lat="43.6706" lon="5.74084">
        <ele>354</ele>
        <time>2016-03-19T09:44:09.134Z</time>
      </trkpt>
      <trkpt lat="43.67054" lon="5.74089">
        <ele>354</ele>
        <time>2016-03-19T09:44:12.159Z</time>
      </trkpt>
      <trkpt lat="43.67052" lon="5.74091">
        <ele>354</ele>
        <time>2016-03-19T09:44:13.135Z</time>
      </trkpt>
      <trkpt lat="43.67048" lon="5.74099">
        <ele>354</ele>
        <time>2016-03-19T09:44:16.159Z</time>
      </trkpt>
      <trkpt lat="43.67047" lon="5.74101">
        <ele>353</ele>
        <time>2016-03-19T09:44:17.123Z</time>
      </trkpt>
      <trkpt lat="43.6704" lon="5.74109">
        <ele>353</ele>
        <time>2016-03-19T09:44:20.395Z</time>
      </trkpt>
      <trkpt lat="43.67037" lon="5.74112">
        <ele>353</ele>
        <time>2016-03-19T09:44:21.134Z</time>
      </trkpt>
      <trkpt lat="43.67033" lon="5.74119">
        <ele>354</ele>
        <time>2016-03-19T09:44:23.161Z</time>
      </trkpt>
      <trkpt lat="43.67031" lon="5.74123">
        <ele>354</ele>
        <time>2016-03-19T09:44:24.134Z</time>
      </trkpt>
      <trkpt lat="43.67026" lon="5.74129">
        <ele>354</ele>
        <time>2016-03-19T09:44:26.154Z</time>
      </trkpt>
      <trkpt lat="43.67023" lon="5.74133">
        <ele>354</ele>
        <time>2016-03-19T09:44:27.129Z</time>
      </trkpt>
      <trkpt lat="43.67017" lon="5.74138">
        <ele>355</ele>
        <time>2016-03-19T09:44:29.162Z</time>
      </trkpt>
      <trkpt lat="43.67014" lon="5.7414">
        <ele>355</ele>
        <time>2016-03-19T09:44:30.162Z</time>
      </trkpt>
      <trkpt lat="43.67008" lon="5.74143">
        <ele>356</ele>
        <time>2016-03-19T09:44:32.381Z</time>
      </trkpt>
      <trkpt lat="43.67006" lon="5.74145">
        <ele>355</ele>
        <time>2016-03-19T09:44:33.132Z</time>
      </trkpt>
      <trkpt lat="43.66997" lon="5.74147">
        <ele>356</ele>
        <time>2016-03-19T09:44:36.161Z</time>
      </trkpt>
      <trkpt lat="43.66994" lon="5.74148">
        <ele>357</ele>
        <time>2016-03-19T09:44:37.134Z</time>
      </trkpt>
      <trkpt lat="43.66987" lon="5.74156">
        <ele>357</ele>
        <time>2016-03-19T09:44:40.161Z</time>
      </trkpt>
      <trkpt lat="43.66985" lon="5.74158">
        <ele>357</ele>
        <time>2016-03-19T09:44:41.135Z</time>
      </trkpt>
      <trkpt lat="43.6698" lon="5.74163">
        <ele>355</ele>
        <time>2016-03-19T09:44:43.164Z</time>
      </trkpt>
      <trkpt lat="43.66977" lon="5.74164">
        <ele>355</ele>
        <time>2016-03-19T09:44:44.134Z</time>
      </trkpt>
      <trkpt lat="43.6697" lon="5.7417">
        <ele>355</ele>
        <time>2016-03-19T09:44:46.188Z</time>
      </trkpt>
      <trkpt lat="43.66966" lon="5.74173">
        <ele>355</ele>
        <time>2016-03-19T09:44:47.135Z</time>
      </trkpt>
      <trkpt lat="43.66959" lon="5.74179">
        <ele>355</ele>
        <time>2016-03-19T09:44:49.160Z</time>
      </trkpt>
      <trkpt lat="43.66957" lon="5.74182">
        <ele>355</ele>
        <time>2016-03-19T09:44:50.135Z</time>
      </trkpt>
      <trkpt lat="43.66953" lon="5.74191">
        <ele>355</ele>
        <time>2016-03-19T09:44:53.188Z</time>
      </trkpt>
      <trkpt lat="43.66952" lon="5.74195">
        <ele>356</ele>
        <time>2016-03-19T09:44:54.134Z</time>
      </trkpt>
      <trkpt lat="43.66949" lon="5.74204">
        <ele>358</ele>
        <time>2016-03-19T09:44:57.195Z</time>
      </trkpt>
      <trkpt lat="43.66948" lon="5.74207">
        <ele>359</ele>
        <time>2016-03-19T09:44:58.135Z</time>
      </trkpt>
      <trkpt lat="43.66946" lon="5.74217">
        <ele>359</ele>
        <time>2016-03-19T09:45:01.156Z</time>
      </trkpt>
      <trkpt lat="43.66946" lon="5.7422">
        <ele>360</ele>
        <time>2016-03-19T09:45:02.134Z</time>
      </trkpt>
      <trkpt lat="43.66944" lon="5.74231">
        <ele>359</ele>
        <time>2016-03-19T09:45:19.158Z</time>
      </trkpt>
      <trkpt lat="43.66941" lon="5.74232">
        <ele>359</ele>
        <time>2016-03-19T09:45:20.134Z</time>
      </trkpt>
      <trkpt lat="43.66934" lon="5.74237">
        <ele>357</ele>
        <time>2016-03-19T09:45:22.158Z</time>
      </trkpt>
      <trkpt lat="43.6693" lon="5.74239">
        <ele>356</ele>
        <time>2016-03-19T09:45:23.133Z</time>
      </trkpt>
      <trkpt lat="43.66925" lon="5.74243">
        <ele>355</ele>
        <time>2016-03-19T09:45:24.190Z</time>
      </trkpt>
      <trkpt lat="43.66921" lon="5.74245">
        <ele>355</ele>
        <time>2016-03-19T09:45:25.135Z</time>
      </trkpt>
      <trkpt lat="43.66914" lon="5.74239">
        <ele>353</ele>
        <time>2016-03-19T09:45:28.162Z</time>
      </trkpt>
      <trkpt lat="43.66911" lon="5.74235">
        <ele>353</ele>
        <time>2016-03-19T09:45:29.133Z</time>
      </trkpt>
      <trkpt lat="43.66907" lon="5.74232">
        <ele>353</ele>
        <time>2016-03-19T09:45:30.162Z</time>
      </trkpt>
      <trkpt lat="43.66903" lon="5.7423">
        <ele>352</ele>
        <time>2016-03-19T09:45:31.134Z</time>
      </trkpt>
      <trkpt lat="43.66898" lon="5.74227">
        <ele>351</ele>
        <time>2016-03-19T09:45:32.241Z</time>
      </trkpt>
      <trkpt lat="43.66893" lon="5.74224">
        <ele>351</ele>
        <time>2016-03-19T09:45:33.135Z</time>
      </trkpt>
      <trkpt lat="43.66888" lon="5.7422">
        <ele>350</ele>
        <time>2016-03-19T09:45:34.161Z</time>
      </trkpt>
      <trkpt lat="43.66885" lon="5.74216">
        <ele>350</ele>
        <time>2016-03-19T09:45:35.134Z</time>
      </trkpt>
      <trkpt lat="43.66881" lon="5.74209">
        <ele>350</ele>
        <time>2016-03-19T09:45:36.162Z</time>
      </trkpt>
      <trkpt lat="43.66878" lon="5.74204">
        <ele>350</ele>
        <time>2016-03-19T09:45:37.132Z</time>
      </trkpt>
      <trkpt lat="43.66874" lon="5.742">
        <ele>350</ele>
        <time>2016-03-19T09:45:38.164Z</time>
      </trkpt>
      <trkpt lat="43.66869" lon="5.74197">
        <ele>349</ele>
        <time>2016-03-19T09:45:39.132Z</time>
      </trkpt>
      <trkpt lat="43.66865" lon="5.74196">
        <ele>349</ele>
        <time>2016-03-19T09:45:40.160Z</time>
      </trkpt>
      <trkpt lat="43.6686" lon="5.74192">
        <ele>348</ele>
        <time>2016-03-19T09:45:41.133Z</time>
      </trkpt>
      <trkpt lat="43.66856" lon="5.74187">
        <ele>348</ele>
        <time>2016-03-19T09:45:42.389Z</time>
      </trkpt>
      <trkpt lat="43.66852" lon="5.74181">
        <ele>347</ele>
        <time>2016-03-19T09:45:43.134Z</time>
      </trkpt>
      <trkpt lat="43.66849" lon="5.74175">
        <ele>347</ele>
        <time>2016-03-19T09:45:44.159Z</time>
      </trkpt>
      <trkpt lat="43.66845" lon="5.7417">
        <ele>346</ele>
        <time>2016-03-19T09:45:45.133Z</time>
      </trkpt>
      <trkpt lat="43.66841" lon="5.74164">
        <ele>346</ele>
        <time>2016-03-19T09:45:46.145Z</time>
      </trkpt>
      <trkpt lat="43.66838" lon="5.74159">
        <ele>346</ele>
        <time>2016-03-19T09:45:47.130Z</time>
      </trkpt>
      <trkpt lat="43.66834" lon="5.74155">
        <ele>346</ele>
        <time>2016-03-19T09:45:48.162Z</time>
      </trkpt>
      <trkpt lat="43.66829" lon="5.74151">
        <ele>345</ele>
        <time>2016-03-19T09:45:49.132Z</time>
      </trkpt>
      <trkpt lat="43.66824" lon="5.74148">
        <ele>344</ele>
        <time>2016-03-19T09:45:50.188Z</time>
      </trkpt>
      <trkpt lat="43.66819" lon="5.74144">
        <ele>344</ele>
        <time>2016-03-19T09:45:51.132Z</time>
      </trkpt>
      <trkpt lat="43.66813" lon="5.7414">
        <ele>344</ele>
        <time>2016-03-19T09:45:52.159Z</time>
      </trkpt>
      <trkpt lat="43.66808" lon="5.74136">
        <ele>344</ele>
        <time>2016-03-19T09:45:53.354Z</time>
      </trkpt>
      <trkpt lat="43.66803" lon="5.74133">
        <ele>343</ele>
        <time>2016-03-19T09:45:54.160Z</time>
      </trkpt>
      <trkpt lat="43.66798" lon="5.74131">
        <ele>343</ele>
        <time>2016-03-19T09:45:55.132Z</time>
      </trkpt>
      <trkpt lat="43.66793" lon="5.74131">
        <ele>343</ele>
        <time>2016-03-19T09:45:56.159Z</time>
      </trkpt>
      <trkpt lat="43.66788" lon="5.7413">
        <ele>342</ele>
        <time>2016-03-19T09:45:57.134Z</time>
      </trkpt>
      <trkpt lat="43.6678" lon="5.74133">
        <ele>342</ele>
        <time>2016-03-19T09:45:59.156Z</time>
      </trkpt>
      <trkpt lat="43.66777" lon="5.74139">
        <ele>341</ele>
        <time>2016-03-19T09:46:00.132Z</time>
      </trkpt>
      <trkpt lat="43.66775" lon="5.74144">
        <ele>340</ele>
        <time>2016-03-19T09:46:01.144Z</time>
      </trkpt>
      <trkpt lat="43.66771" lon="5.74151">
        <ele>338</ele>
        <time>2016-03-19T09:46:02.134Z</time>
      </trkpt>
      <trkpt lat="43.66766" lon="5.74154">
        <ele>338</ele>
        <time>2016-03-19T09:46:03.206Z</time>
      </trkpt>
      <trkpt lat="43.6676" lon="5.74156">
        <ele>337</ele>
        <time>2016-03-19T09:46:04.120Z</time>
      </trkpt>
      <trkpt lat="43.66753" lon="5.74155">
        <ele>336</ele>
        <time>2016-03-19T09:46:05.178Z</time>
      </trkpt>
      <trkpt lat="43.66747" lon="5.74153">
        <ele>336</ele>
        <time>2016-03-19T09:46:06.135Z</time>
      </trkpt>
      <trkpt lat="43.6674" lon="5.7415">
        <ele>335</ele>
        <time>2016-03-19T09:46:07.149Z</time>
      </trkpt>
      <trkpt lat="43.66734" lon="5.74146">
        <ele>335</ele>
        <time>2016-03-19T09:46:08.135Z</time>
      </trkpt>
      <trkpt lat="43.66729" lon="5.74142">
        <ele>334</ele>
        <time>2016-03-19T09:46:09.161Z</time>
      </trkpt>
      <trkpt lat="43.66724" lon="5.7414">
        <ele>333</ele>
        <time>2016-03-19T09:46:10.131Z</time>
      </trkpt>
      <trkpt lat="43.66718" lon="5.74132">
        <ele>333</ele>
        <time>2016-03-19T09:46:15.154Z</time>
      </trkpt>
      <trkpt lat="43.66718" lon="5.7413">
        <ele>333</ele>
        <time>2016-03-19T09:46:16.132Z</time>
      </trkpt>
      <trkpt lat="43.66719" lon="5.74118">
        <ele>333</ele>
        <time>2016-03-19T09:46:19.157Z</time>
      </trkpt>
      <trkpt lat="43.66718" lon="5.74116">
        <ele>333</ele>
        <time>2016-03-19T09:46:20.130Z</time>
      </trkpt>
      <trkpt lat="43.66713" lon="5.7411">
        <ele>334</ele>
        <time>2016-03-19T09:46:30.161Z</time>
      </trkpt>
      <trkpt lat="43.6671" lon="5.7411">
        <ele>333</ele>
        <time>2016-03-19T09:46:31.137Z</time>
      </trkpt>
      <trkpt lat="43.66703" lon="5.74116">
        <ele>333</ele>
        <time>2016-03-19T09:46:33.160Z</time>
      </trkpt>
      <trkpt lat="43.66701" lon="5.74121">
        <ele>333</ele>
        <time>2016-03-19T09:46:34.135Z</time>
      </trkpt>
      <trkpt lat="43.66696" lon="5.7413">
        <ele>333</ele>
        <time>2016-03-19T09:46:36.161Z</time>
      </trkpt>
      <trkpt lat="43.66694" lon="5.74135">
        <ele>334</ele>
        <time>2016-03-19T09:46:37.134Z</time>
      </trkpt>
      <trkpt lat="43.6669" lon="5.74143">
        <ele>334</ele>
        <time>2016-03-19T09:46:39.163Z</time>
      </trkpt>
      <trkpt lat="43.66689" lon="5.74147">
        <ele>334</ele>
        <time>2016-03-19T09:46:40.133Z</time>
      </trkpt>
      <trkpt lat="43.66686" lon="5.74155">
        <ele>334</ele>
        <time>2016-03-19T09:46:42.161Z</time>
      </trkpt>
      <trkpt lat="43.66684" lon="5.74159">
        <ele>334</ele>
        <time>2016-03-19T09:46:43.134Z</time>
      </trkpt>
      <trkpt lat="43.66682" lon="5.74168">
        <ele>334</ele>
        <time>2016-03-19T09:46:45.146Z</time>
      </trkpt>
      <trkpt lat="43.66681" lon="5.74171">
        <ele>334</ele>
        <time>2016-03-19T09:46:46.124Z</time>
      </trkpt>
      <trkpt lat="43.66679" lon="5.7418">
        <ele>334</ele>
        <time>2016-03-19T09:46:48.153Z</time>
      </trkpt>
      <trkpt lat="43.66678" lon="5.74185">
        <ele>333</ele>
        <time>2016-03-19T09:46:49.132Z</time>
      </trkpt>
      <trkpt lat="43.66677" lon="5.74195">
        <ele>333</ele>
        <time>2016-03-19T09:46:51.155Z</time>
      </trkpt>
      <trkpt lat="43.66676" lon="5.74199">
        <ele>333</ele>
        <time>2016-03-19T09:46:52.133Z</time>
      </trkpt>
      <trkpt lat="43.66675" lon="5.74209">
        <ele>333</ele>
        <time>2016-03-19T09:46:54.155Z</time>
      </trkpt>
      <trkpt lat="43.66675" lon="5.74214">
        <ele>333</ele>
        <time>2016-03-19T09:46:55.132Z</time>
      </trkpt>
      <trkpt lat="43.66673" lon="5.74224">
        <ele>332</ele>
        <time>2016-03-19T09:46:57.153Z</time>
      </trkpt>
      <trkpt lat="43.66672" lon="5.74229">
        <ele>333</ele>
        <time>2016-03-19T09:46:58.131Z</time>
      </trkpt>
      <trkpt lat="43.66671" lon="5.74239">
        <ele>333</ele>
        <time>2016-03-19T09:47:00.200Z</time>
      </trkpt>
      <trkpt lat="43.6667" lon="5.74244">
        <ele>333</ele>
        <time>2016-03-19T09:47:01.130Z</time>
      </trkpt>
      <trkpt lat="43.66667" lon="5.74254">
        <ele>333</ele>
        <time>2016-03-19T09:47:03.163Z</time>
      </trkpt>
      <trkpt lat="43.66666" lon="5.74259">
        <ele>333</ele>
        <time>2016-03-19T09:47:04.134Z</time>
      </trkpt>
      <trkpt lat="43.66663" lon="5.7427">
        <ele>334</ele>
        <time>2016-03-19T09:47:06.159Z</time>
      </trkpt>
      <trkpt lat="43.66661" lon="5.74276">
        <ele>334</ele>
        <time>2016-03-19T09:47:07.133Z</time>
      </trkpt>
      <trkpt lat="43.66658" lon="5.74287">
        <ele>334</ele>
        <time>2016-03-19T09:47:09.189Z</time>
      </trkpt>
      <trkpt lat="43.66656" lon="5.74292">
        <ele>335</ele>
        <time>2016-03-19T09:47:10.134Z</time>
      </trkpt>
      <trkpt lat="43.66653" lon="5.74303">
        <ele>335</ele>
        <time>2016-03-19T09:47:12.162Z</time>
      </trkpt>
      <trkpt lat="43.66652" lon="5.74308">
        <ele>336</ele>
        <time>2016-03-19T09:47:13.135Z</time>
      </trkpt>
      <trkpt lat="43.66649" lon="5.74319">
        <ele>336</ele>
        <time>2016-03-19T09:47:15.163Z</time>
      </trkpt>
      <trkpt lat="43.66647" lon="5.74324">
        <ele>336</ele>
        <time>2016-03-19T09:47:16.136Z</time>
      </trkpt>
      <trkpt lat="43.66644" lon="5.74335">
        <ele>335</ele>
        <time>2016-03-19T09:47:18.160Z</time>
      </trkpt>
      <trkpt lat="43.66643" lon="5.7434">
        <ele>335</ele>
        <time>2016-03-19T09:47:19.135Z</time>
      </trkpt>
      <trkpt lat="43.66641" lon="5.74351">
        <ele>334</ele>
        <time>2016-03-19T09:47:21.160Z</time>
      </trkpt>
      <trkpt lat="43.6664" lon="5.74356">
        <ele>335</ele>
        <time>2016-03-19T09:47:22.135Z</time>
      </trkpt>
      <trkpt lat="43.66639" lon="5.74368">
        <ele>334</ele>
        <time>2016-03-19T09:47:24.161Z</time>
      </trkpt>
      <trkpt lat="43.66638" lon="5.74374">
        <ele>334</ele>
        <time>2016-03-19T09:47:25.135Z</time>
      </trkpt>
      <trkpt lat="43.66638" lon="5.74385">
        <ele>334</ele>
        <time>2016-03-19T09:47:27.159Z</time>
      </trkpt>
      <trkpt lat="43.66638" lon="5.74391">
        <ele>334</ele>
        <time>2016-03-19T09:47:28.135Z</time>
      </trkpt>
      <trkpt lat="43.66638" lon="5.74402">
        <ele>333</ele>
        <time>2016-03-19T09:47:30.160Z</time>
      </trkpt>
      <trkpt lat="43.66638" lon="5.74408">
        <ele>333</ele>
        <time>2016-03-19T09:47:31.156Z</time>
      </trkpt>
      <trkpt lat="43.66639" lon="5.74415">
        <ele>334</ele>
        <time>2016-03-19T09:47:32.161Z</time>
      </trkpt>
      <trkpt lat="43.66639" lon="5.74422">
        <ele>333</ele>
        <time>2016-03-19T09:47:33.135Z</time>
      </trkpt>
      <trkpt lat="43.66639" lon="5.74428">
        <ele>333</ele>
        <time>2016-03-19T09:47:34.159Z</time>
      </trkpt>
      <trkpt lat="43.66638" lon="5.74435">
        <ele>333</ele>
        <time>2016-03-19T09:47:35.131Z</time>
      </trkpt>
      <trkpt lat="43.66638" lon="5.74442">
        <ele>334</ele>
        <time>2016-03-19T09:47:36.187Z</time>
      </trkpt>
      <trkpt lat="43.66637" lon="5.74448">
        <ele>334</ele>
        <time>2016-03-19T09:47:37.133Z</time>
      </trkpt>
      <trkpt lat="43.66636" lon="5.74454">
        <ele>334</ele>
        <time>2016-03-19T09:47:38.161Z</time>
      </trkpt>
      <trkpt lat="43.66635" lon="5.7446">
        <ele>334</ele>
        <time>2016-03-19T09:47:39.135Z</time>
      </trkpt>
      <trkpt lat="43.66634" lon="5.74466">
        <ele>334</ele>
        <time>2016-03-19T09:47:40.160Z</time>
      </trkpt>
      <trkpt lat="43.66632" lon="5.74472">
        <ele>334</ele>
        <time>2016-03-19T09:47:41.135Z</time>
      </trkpt>
      <trkpt lat="43.66629" lon="5.74483">
        <ele>335</ele>
        <time>2016-03-19T09:47:43.166Z</time>
      </trkpt>
      <trkpt lat="43.66628" lon="5.74489">
        <ele>336</ele>
        <time>2016-03-19T09:47:44.135Z</time>
      </trkpt>
      <trkpt lat="43.66628" lon="5.74496">
        <ele>335</ele>
        <time>2016-03-19T09:47:45.155Z</time>
      </trkpt>
      <trkpt lat="43.66626" lon="5.74502">
        <ele>335</ele>
        <time>2016-03-19T09:47:46.130Z</time>
      </trkpt>
      <trkpt lat="43.66623" lon="5.74512">
        <ele>336</ele>
        <time>2016-03-19T09:47:48.164Z</time>
      </trkpt>
      <trkpt lat="43.66622" lon="5.74518">
        <ele>337</ele>
        <time>2016-03-19T09:47:49.135Z</time>
      </trkpt>
      <trkpt lat="43.66619" lon="5.74529">
        <ele>336</ele>
        <time>2016-03-19T09:47:51.163Z</time>
      </trkpt>
      <trkpt lat="43.66618" lon="5.74535">
        <ele>336</ele>
        <time>2016-03-19T09:47:52.162Z</time>
      </trkpt>
      <trkpt lat="43.66615" lon="5.74546">
        <ele>336</ele>
        <time>2016-03-19T09:47:54.161Z</time>
      </trkpt>
      <trkpt lat="43.66614" lon="5.74551">
        <ele>336</ele>
        <time>2016-03-19T09:47:55.135Z</time>
      </trkpt>
      <trkpt lat="43.6661" lon="5.74562">
        <ele>336</ele>
        <time>2016-03-19T09:47:57.157Z</time>
      </trkpt>
      <trkpt lat="43.66608" lon="5.74567">
        <ele>336</ele>
        <time>2016-03-19T09:47:58.136Z</time>
      </trkpt>
      <trkpt lat="43.66604" lon="5.74577">
        <ele>336</ele>
        <time>2016-03-19T09:48:00.156Z</time>
      </trkpt>
      <trkpt lat="43.66602" lon="5.74582">
        <ele>337</ele>
        <time>2016-03-19T09:48:01.134Z</time>
      </trkpt>
      <trkpt lat="43.66598" lon="5.74592">
        <ele>336</ele>
        <time>2016-03-19T09:48:03.191Z</time>
      </trkpt>
      <trkpt lat="43.66596" lon="5.74598">
        <ele>336</ele>
        <time>2016-03-19T09:48:04.132Z</time>
      </trkpt>
      <trkpt lat="43.66592" lon="5.74607">
        <ele>336</ele>
        <time>2016-03-19T09:48:06.161Z</time>
      </trkpt>
      <trkpt lat="43.6659" lon="5.74612">
        <ele>335</ele>
        <time>2016-03-19T09:48:07.135Z</time>
      </trkpt>
      <trkpt lat="43.66586" lon="5.74622">
        <ele>335</ele>
        <time>2016-03-19T09:48:09.374Z</time>
      </trkpt>
      <trkpt lat="43.66584" lon="5.74627">
        <ele>335</ele>
        <time>2016-03-19T09:48:10.135Z</time>
      </trkpt>
      <trkpt lat="43.6658" lon="5.74632">
        <ele>335</ele>
        <time>2016-03-19T09:48:11.160Z</time>
      </trkpt>
      <trkpt lat="43.66578" lon="5.74637">
        <ele>334</ele>
        <time>2016-03-19T09:48:12.136Z</time>
      </trkpt>
      <trkpt lat="43.66573" lon="5.74646">
        <ele>334</ele>
        <time>2016-03-19T09:48:14.159Z</time>
      </trkpt>
      <trkpt lat="43.66571" lon="5.7465">
        <ele>334</ele>
        <time>2016-03-19T09:48:15.135Z</time>
      </trkpt>
      <trkpt lat="43.66567" lon="5.74657">
        <ele>334</ele>
        <time>2016-03-19T09:48:17.161Z</time>
      </trkpt>
      <trkpt lat="43.66565" lon="5.74661">
        <ele>333</ele>
        <time>2016-03-19T09:48:18.134Z</time>
      </trkpt>
      <trkpt lat="43.6656" lon="5.74668">
        <ele>334</ele>
        <time>2016-03-19T09:48:20.191Z</time>
      </trkpt>
      <trkpt lat="43.66557" lon="5.74672">
        <ele>334</ele>
        <time>2016-03-19T09:48:21.359Z</time>
      </trkpt>
      <trkpt lat="43.6655" lon="5.74679">
        <ele>333</ele>
        <time>2016-03-19T09:48:23.162Z</time>
      </trkpt>
      <trkpt lat="43.66547" lon="5.74682">
        <ele>333</ele>
        <time>2016-03-19T09:48:24.167Z</time>
      </trkpt>
      <trkpt lat="43.6654" lon="5.74689">
        <ele>333</ele>
        <time>2016-03-19T09:48:26.160Z</time>
      </trkpt>
      <trkpt lat="43.66537" lon="5.74693">
        <ele>334</ele>
        <time>2016-03-19T09:48:27.135Z</time>
      </trkpt>
      <trkpt lat="43.66529" lon="5.74699">
        <ele>334</ele>
        <time>2016-03-19T09:48:29.164Z</time>
      </trkpt>
      <trkpt lat="43.66526" lon="5.74702">
        <ele>334</ele>
        <time>2016-03-19T09:48:30.134Z</time>
      </trkpt>
      <trkpt lat="43.66518" lon="5.74708">
        <ele>334</ele>
        <time>2016-03-19T09:48:32.163Z</time>
      </trkpt>
      <trkpt lat="43.66515" lon="5.74711">
        <ele>334</ele>
        <time>2016-03-19T09:48:33.134Z</time>
      </trkpt>
      <trkpt lat="43.66508" lon="5.74717">
        <ele>334</ele>
        <time>2016-03-19T09:48:35.150Z</time>
      </trkpt>
      <trkpt lat="43.66504" lon="5.7472">
        <ele>334</ele>
        <time>2016-03-19T09:48:36.134Z</time>
      </trkpt>
      <trkpt lat="43.66498" lon="5.74727">
        <ele>334</ele>
        <time>2016-03-19T09:48:38.162Z</time>
      </trkpt>
      <trkpt lat="43.66495" lon="5.74731">
        <ele>334</ele>
        <time>2016-03-19T09:48:39.134Z</time>
      </trkpt>
      <trkpt lat="43.6649" lon="5.74741">
        <ele>335</ele>
        <time>2016-03-19T09:48:41.167Z</time>
      </trkpt>
      <trkpt lat="43.66488" lon="5.74746">
        <ele>335</ele>
        <time>2016-03-19T09:48:42.135Z</time>
      </trkpt>
      <trkpt lat="43.66484" lon="5.74757">
        <ele>335</ele>
        <time>2016-03-19T09:48:44.155Z</time>
      </trkpt>
      <trkpt lat="43.66483" lon="5.74763">
        <ele>335</ele>
        <time>2016-03-19T09:48:45.135Z</time>
      </trkpt>
      <trkpt lat="43.66482" lon="5.74775">
        <ele>335</ele>
        <time>2016-03-19T09:48:47.239Z</time>
      </trkpt>
      <trkpt lat="43.66481" lon="5.74781">
        <ele>335</ele>
        <time>2016-03-19T09:48:48.132Z</time>
      </trkpt>
      <trkpt lat="43.66482" lon="5.74789">
        <ele>335</ele>
        <time>2016-03-19T09:48:49.164Z</time>
      </trkpt>
      <trkpt lat="43.66481" lon="5.74796">
        <ele>335</ele>
        <time>2016-03-19T09:48:50.135Z</time>
      </trkpt>
      <trkpt lat="43.6648" lon="5.74802">
        <ele>335</ele>
        <time>2016-03-19T09:48:51.150Z</time>
      </trkpt>
      <trkpt lat="43.6648" lon="5.74809">
        <ele>335</ele>
        <time>2016-03-19T09:48:52.135Z</time>
      </trkpt>
      <trkpt lat="43.66479" lon="5.74816">
        <ele>335</ele>
        <time>2016-03-19T09:48:53.160Z</time>
      </trkpt>
      <trkpt lat="43.66478" lon="5.74822">
        <ele>335</ele>
        <time>2016-03-19T09:48:54.135Z</time>
      </trkpt>
      <trkpt lat="43.66476" lon="5.74828">
        <ele>335</ele>
        <time>2016-03-19T09:48:55.389Z</time>
      </trkpt>
      <trkpt lat="43.66474" lon="5.74835">
        <ele>335</ele>
        <time>2016-03-19T09:48:56.158Z</time>
      </trkpt>
      <trkpt lat="43.66471" lon="5.74845">
        <ele>336</ele>
        <time>2016-03-19T09:48:58.160Z</time>
      </trkpt>
      <trkpt lat="43.66469" lon="5.74851">
        <ele>336</ele>
        <time>2016-03-19T09:48:59.133Z</time>
      </trkpt>
      <trkpt lat="43.66466" lon="5.74856">
        <ele>336</ele>
        <time>2016-03-19T09:49:00.184Z</time>
      </trkpt>
      <trkpt lat="43.66464" lon="5.74862">
        <ele>336</ele>
        <time>2016-03-19T09:49:01.134Z</time>
      </trkpt>
      <trkpt lat="43.6646" lon="5.74872">
        <ele>336</ele>
        <time>2016-03-19T09:49:03.164Z</time>
      </trkpt>
      <trkpt lat="43.66457" lon="5.74877">
        <ele>336</ele>
        <time>2016-03-19T09:49:04.135Z</time>
      </trkpt>
      <trkpt lat="43.66453" lon="5.74886">
        <ele>336</ele>
        <time>2016-03-19T09:49:06.163Z</time>
      </trkpt>
      <trkpt lat="43.6645" lon="5.74891">
        <ele>337</ele>
        <time>2016-03-19T09:49:07.134Z</time>
      </trkpt>
      <trkpt lat="43.66448" lon="5.74895">
        <ele>337</ele>
        <time>2016-03-19T09:49:08.150Z</time>
      </trkpt>
      <trkpt lat="43.66445" lon="5.74901">
        <ele>337</ele>
        <time>2016-03-19T09:49:09.135Z</time>
      </trkpt>
      <trkpt lat="43.66442" lon="5.74912">
        <ele>337</ele>
        <time>2016-03-19T09:49:11.169Z</time>
      </trkpt>
      <trkpt lat="43.6644" lon="5.74919">
        <ele>337</ele>
        <time>2016-03-19T09:49:12.161Z</time>
      </trkpt>
      <trkpt lat="43.66439" lon="5.74925">
        <ele>337</ele>
        <time>2016-03-19T09:49:13.159Z</time>
      </trkpt>
      <trkpt lat="43.66438" lon="5.74932">
        <ele>337</ele>
        <time>2016-03-19T09:49:14.135Z</time>
      </trkpt>
      <trkpt lat="43.66437" lon="5.74944">
        <ele>338</ele>
        <time>2016-03-19T09:49:16.160Z</time>
      </trkpt>
      <trkpt lat="43.66437" lon="5.74951">
        <ele>338</ele>
        <time>2016-03-19T09:49:17.135Z</time>
      </trkpt>
      <trkpt lat="43.66436" lon="5.74957">
        <ele>338</ele>
        <time>2016-03-19T09:49:18.162Z</time>
      </trkpt>
      <trkpt lat="43.66436" lon="5.74964">
        <ele>338</ele>
        <time>2016-03-19T09:49:19.135Z</time>
      </trkpt>
      <trkpt lat="43.66436" lon="5.74971">
        <ele>338</ele>
        <time>2016-03-19T09:49:20.190Z</time>
      </trkpt>
      <trkpt lat="43.66437" lon="5.74976">
        <ele>338</ele>
        <time>2016-03-19T09:49:21.134Z</time>
      </trkpt>
      <trkpt lat="43.66436" lon="5.74984">
        <ele>337</ele>
        <time>2016-03-19T09:49:22.149Z</time>
      </trkpt>
      <trkpt lat="43.66436" lon="5.7499">
        <ele>338</ele>
        <time>2016-03-19T09:49:23.128Z</time>
      </trkpt>
      <trkpt lat="43.66436" lon="5.74996">
        <ele>338</ele>
        <time>2016-03-19T09:49:24.160Z</time>
      </trkpt>
      <trkpt lat="43.66436" lon="5.75004">
        <ele>338</ele>
        <time>2016-03-19T09:49:25.133Z</time>
      </trkpt>
      <trkpt lat="43.66437" lon="5.75016">
        <ele>338</ele>
        <time>2016-03-19T09:49:27.164Z</time>
      </trkpt>
      <trkpt lat="43.66436" lon="5.75023">
        <ele>338</ele>
        <time>2016-03-19T09:49:28.162Z</time>
      </trkpt>
      <trkpt lat="43.66437" lon="5.75029">
        <ele>338</ele>
        <time>2016-03-19T09:49:29.157Z</time>
      </trkpt>
      <trkpt lat="43.66437" lon="5.75037">
        <ele>338</ele>
        <time>2016-03-19T09:49:30.134Z</time>
      </trkpt>
      <trkpt lat="43.66437" lon="5.75048">
        <ele>339</ele>
        <time>2016-03-19T09:49:32.160Z</time>
      </trkpt>
      <trkpt lat="43.66437" lon="5.75054">
        <ele>338</ele>
        <time>2016-03-19T09:49:33.135Z</time>
      </trkpt>
      <trkpt lat="43.66438" lon="5.75066">
        <ele>338</ele>
        <time>2016-03-19T09:49:35.161Z</time>
      </trkpt>
      <trkpt lat="43.66438" lon="5.75073">
        <ele>338</ele>
        <time>2016-03-19T09:49:36.134Z</time>
      </trkpt>
      <trkpt lat="43.66438" lon="5.75079">
        <ele>337</ele>
        <time>2016-03-19T09:49:37.150Z</time>
      </trkpt>
      <trkpt lat="43.66439" lon="5.75085">
        <ele>338</ele>
        <time>2016-03-19T09:49:38.135Z</time>
      </trkpt>
      <trkpt lat="43.6644" lon="5.75097">
        <ele>338</ele>
        <time>2016-03-19T09:49:40.161Z</time>
      </trkpt>
      <trkpt lat="43.66441" lon="5.75102">
        <ele>339</ele>
        <time>2016-03-19T09:49:41.135Z</time>
      </trkpt>
      <trkpt lat="43.66442" lon="5.75113">
        <ele>339</ele>
        <time>2016-03-19T09:49:43.161Z</time>
      </trkpt>
      <trkpt lat="43.66444" lon="5.75119">
        <ele>338</ele>
        <time>2016-03-19T09:49:44.161Z</time>
      </trkpt>
      <trkpt lat="43.66448" lon="5.75129">
        <ele>338</ele>
        <time>2016-03-19T09:49:46.160Z</time>
      </trkpt>
      <trkpt lat="43.66449" lon="5.75134">
        <ele>338</ele>
        <time>2016-03-19T09:49:47.134Z</time>
      </trkpt>
      <trkpt lat="43.66452" lon="5.75145">
        <ele>337</ele>
        <time>2016-03-19T09:49:49.157Z</time>
      </trkpt>
      <trkpt lat="43.66454" lon="5.75149">
        <ele>337</ele>
        <time>2016-03-19T09:49:50.134Z</time>
      </trkpt>
      <trkpt lat="43.66458" lon="5.7516">
        <ele>337</ele>
        <time>2016-03-19T09:49:52.160Z</time>
      </trkpt>
      <trkpt lat="43.6646" lon="5.75164">
        <ele>337</ele>
        <time>2016-03-19T09:49:53.134Z</time>
      </trkpt>
      <trkpt lat="43.66465" lon="5.75173">
        <ele>338</ele>
        <time>2016-03-19T09:49:55.182Z</time>
      </trkpt>
      <trkpt lat="43.66467" lon="5.75178">
        <ele>338</ele>
        <time>2016-03-19T09:49:56.132Z</time>
      </trkpt>
      <trkpt lat="43.66473" lon="5.75186">
        <ele>337</ele>
        <time>2016-03-19T09:49:58.131Z</time>
      </trkpt>
      <trkpt lat="43.66475" lon="5.75191">
        <ele>337</ele>
        <time>2016-03-19T09:49:59.128Z</time>
      </trkpt>
      <trkpt lat="43.66481" lon="5.752">
        <ele>336</ele>
        <time>2016-03-19T09:50:01.160Z</time>
      </trkpt>
      <trkpt lat="43.66484" lon="5.75205">
        <ele>336</ele>
        <time>2016-03-19T09:50:02.133Z</time>
      </trkpt>
      <trkpt lat="43.6649" lon="5.75213">
        <ele>336</ele>
        <time>2016-03-19T09:50:04.159Z</time>
      </trkpt>
      <trkpt lat="43.66493" lon="5.75218">
        <ele>336</ele>
        <time>2016-03-19T09:50:05.134Z</time>
      </trkpt>
      <trkpt lat="43.66497" lon="5.75226">
        <ele>337</ele>
        <time>2016-03-19T09:50:07.210Z</time>
      </trkpt>
      <trkpt lat="43.66499" lon="5.75231">
        <ele>337</ele>
        <time>2016-03-19T09:50:08.135Z</time>
      </trkpt>
      <trkpt lat="43.66503" lon="5.7524">
        <ele>338</ele>
        <time>2016-03-19T09:50:10.164Z</time>
      </trkpt>
      <trkpt lat="43.66504" lon="5.75245">
        <ele>338</ele>
        <time>2016-03-19T09:50:11.206Z</time>
      </trkpt>
      <trkpt lat="43.66507" lon="5.75255">
        <ele>339</ele>
        <time>2016-03-19T09:50:13.152Z</time>
      </trkpt>
      <trkpt lat="43.66508" lon="5.7526">
        <ele>338</ele>
        <time>2016-03-19T09:50:14.135Z</time>
      </trkpt>
      <trkpt lat="43.66509" lon="5.75271">
        <ele>339</ele>
        <time>2016-03-19T09:50:16.162Z</time>
      </trkpt>
      <trkpt lat="43.66509" lon="5.75276">
        <ele>339</ele>
        <time>2016-03-19T09:50:17.124Z</time>
      </trkpt>
      <trkpt lat="43.66507" lon="5.75287">
        <ele>341</ele>
        <time>2016-03-19T09:50:19.160Z</time>
      </trkpt>
      <trkpt lat="43.66506" lon="5.75292">
        <ele>341</ele>
        <time>2016-03-19T09:50:20.134Z</time>
      </trkpt>
      <trkpt lat="43.66503" lon="5.75302">
        <ele>341</ele>
        <time>2016-03-19T09:50:22.160Z</time>
      </trkpt>
      <trkpt lat="43.66502" lon="5.75307">
        <ele>341</ele>
        <time>2016-03-19T09:50:23.129Z</time>
      </trkpt>
      <trkpt lat="43.66499" lon="5.75317">
        <ele>342</ele>
        <time>2016-03-19T09:50:25.161Z</time>
      </trkpt>
      <trkpt lat="43.66497" lon="5.75322">
        <ele>343</ele>
        <time>2016-03-19T09:50:26.135Z</time>
      </trkpt>
      <trkpt lat="43.66495" lon="5.75331">
        <ele>343</ele>
        <time>2016-03-19T09:50:28.160Z</time>
      </trkpt>
      <trkpt lat="43.66493" lon="5.75335">
        <ele>343</ele>
        <time>2016-03-19T09:50:29.133Z</time>
      </trkpt>
      <trkpt lat="43.66489" lon="5.75346">
        <ele>344</ele>
        <time>2016-03-19T09:50:33.161Z</time>
      </trkpt>
      <trkpt lat="43.66488" lon="5.75349">
        <ele>345</ele>
        <time>2016-03-19T09:50:34.134Z</time>
      </trkpt>
      <trkpt lat="43.66484" lon="5.7536">
        <ele>345</ele>
        <time>2016-03-19T09:50:37.155Z</time>
      </trkpt>
      <trkpt lat="43.66483" lon="5.75363">
        <ele>344</ele>
        <time>2016-03-19T09:50:38.130Z</time>
      </trkpt>
      <trkpt lat="43.66481" lon="5.75372">
        <ele>345</ele>
        <time>2016-03-19T09:50:40.154Z</time>
      </trkpt>
      <trkpt lat="43.66479" lon="5.75376">
        <ele>344</ele>
        <time>2016-03-19T09:50:41.133Z</time>
      </trkpt>
      <trkpt lat="43.66476" lon="5.75385">
        <ele>344</ele>
        <time>2016-03-19T09:50:43.181Z</time>
      </trkpt>
      <trkpt lat="43.66475" lon="5.7539">
        <ele>344</ele>
        <time>2016-03-19T09:50:44.133Z</time>
      </trkpt>
      <trkpt lat="43.66471" lon="5.75399">
        <ele>344</ele>
        <time>2016-03-19T09:50:46.154Z</time>
      </trkpt>
      <trkpt lat="43.66469" lon="5.75404">
        <ele>344</ele>
        <time>2016-03-19T09:50:47.131Z</time>
      </trkpt>
      <trkpt lat="43.66465" lon="5.75413">
        <ele>344</ele>
        <time>2016-03-19T09:50:49.155Z</time>
      </trkpt>
      <trkpt lat="43.66463" lon="5.75417">
        <ele>344</ele>
        <time>2016-03-19T09:50:50.132Z</time>
      </trkpt>
      <trkpt lat="43.66458" lon="5.75425">
        <ele>343</ele>
        <time>2016-03-19T09:50:52.155Z</time>
      </trkpt>
      <trkpt lat="43.66456" lon="5.75429">
        <ele>343</ele>
        <time>2016-03-19T09:50:53.132Z</time>
      </trkpt>
      <trkpt lat="43.66451" lon="5.75436">
        <ele>343</ele>
        <time>2016-03-19T09:50:55.154Z</time>
      </trkpt>
      <trkpt lat="43.66448" lon="5.75439">
        <ele>343</ele>
        <time>2016-03-19T09:50:56.132Z</time>
      </trkpt>
      <trkpt lat="43.66442" lon="5.75444">
        <ele>343</ele>
        <time>2016-03-19T09:50:58.147Z</time>
      </trkpt>
      <trkpt lat="43.66439" lon="5.75446">
        <ele>343</ele>
        <time>2016-03-19T09:50:59.132Z</time>
      </trkpt>
      <trkpt lat="43.66433" lon="5.75451">
        <ele>342</ele>
        <time>2016-03-19T09:51:01.153Z</time>
      </trkpt>
      <trkpt lat="43.66431" lon="5.75452">
        <ele>342</ele>
        <time>2016-03-19T09:51:02.182Z</time>
      </trkpt>
      <trkpt lat="43.66424" lon="5.75456">
        <ele>342</ele>
        <time>2016-03-19T09:51:04.162Z</time>
      </trkpt>
      <trkpt lat="43.6642" lon="5.75458">
        <ele>342</ele>
        <time>2016-03-19T09:51:05.134Z</time>
      </trkpt>
      <trkpt lat="43.66412" lon="5.75463">
        <ele>343</ele>
        <time>2016-03-19T09:51:07.161Z</time>
      </trkpt>
      <trkpt lat="43.66408" lon="5.75465">
        <ele>343</ele>
        <time>2016-03-19T09:51:08.133Z</time>
      </trkpt>
      <trkpt lat="43.664" lon="5.75469">
        <ele>344</ele>
        <time>2016-03-19T09:51:10.159Z</time>
      </trkpt>
      <trkpt lat="43.66396" lon="5.75471">
        <ele>344</ele>
        <time>2016-03-19T09:51:11.135Z</time>
      </trkpt>
      <trkpt lat="43.6639" lon="5.75475">
        <ele>344</ele>
        <time>2016-03-19T09:51:12.155Z</time>
      </trkpt>
      <trkpt lat="43.66387" lon="5.75477">
        <ele>344</ele>
        <time>2016-03-19T09:51:13.135Z</time>
      </trkpt>
      <trkpt lat="43.66379" lon="5.75481">
        <ele>344</ele>
        <time>2016-03-19T09:51:15.157Z</time>
      </trkpt>
      <trkpt lat="43.66376" lon="5.75483">
        <ele>344</ele>
        <time>2016-03-19T09:51:16.134Z</time>
      </trkpt>
      <trkpt lat="43.66369" lon="5.75488">
        <ele>344</ele>
        <time>2016-03-19T09:51:18.159Z</time>
      </trkpt>
      <trkpt lat="43.66365" lon="5.7549">
        <ele>344</ele>
        <time>2016-03-19T09:51:19.135Z</time>
      </trkpt>
      <trkpt lat="43.66357" lon="5.75495">
        <ele>343</ele>
        <time>2016-03-19T09:51:21.162Z</time>
      </trkpt>
      <trkpt lat="43.66352" lon="5.75497">
        <ele>344</ele>
        <time>2016-03-19T09:51:22.134Z</time>
      </trkpt>
      <trkpt lat="43.66345" lon="5.75502">
        <ele>344</ele>
        <time>2016-03-19T09:51:24.162Z</time>
      </trkpt>
      <trkpt lat="43.6634" lon="5.75505">
        <ele>343</ele>
        <time>2016-03-19T09:51:25.162Z</time>
      </trkpt>
      <trkpt lat="43.66336" lon="5.75508">
        <ele>343</ele>
        <time>2016-03-19T09:51:26.160Z</time>
      </trkpt>
      <trkpt lat="43.66332" lon="5.7551">
        <ele>343</ele>
        <time>2016-03-19T09:51:27.135Z</time>
      </trkpt>
      <trkpt lat="43.66327" lon="5.75514">
        <ele>343</ele>
        <time>2016-03-19T09:51:28.160Z</time>
      </trkpt>
      <trkpt lat="43.66323" lon="5.75516">
        <ele>343</ele>
        <time>2016-03-19T09:51:29.136Z</time>
      </trkpt>
      <trkpt lat="43.66315" lon="5.75522">
        <ele>343</ele>
        <time>2016-03-19T09:51:31.162Z</time>
      </trkpt>
      <trkpt lat="43.66311" lon="5.75525">
        <ele>343</ele>
        <time>2016-03-19T09:51:32.135Z</time>
      </trkpt>
      <trkpt lat="43.66307" lon="5.75529">
        <ele>342</ele>
        <time>2016-03-19T09:51:33.161Z</time>
      </trkpt>
      <trkpt lat="43.66303" lon="5.75532">
        <ele>342</ele>
        <time>2016-03-19T09:51:34.133Z</time>
      </trkpt>
      <trkpt lat="43.663" lon="5.75536">
        <ele>342</ele>
        <time>2016-03-19T09:51:35.161Z</time>
      </trkpt>
      <trkpt lat="43.66296" lon="5.7554">
        <ele>343</ele>
        <time>2016-03-19T09:51:36.160Z</time>
      </trkpt>
      <trkpt lat="43.66289" lon="5.75547">
        <ele>343</ele>
        <time>2016-03-19T09:51:38.159Z</time>
      </trkpt>
      <trkpt lat="43.66285" lon="5.75551">
        <ele>343</ele>
        <time>2016-03-19T09:51:39.136Z</time>
      </trkpt>
      <trkpt lat="43.66281" lon="5.75555">
        <ele>343</ele>
        <time>2016-03-19T09:51:40.156Z</time>
      </trkpt>
      <trkpt lat="43.66278" lon="5.75559">
        <ele>343</ele>
        <time>2016-03-19T09:51:41.135Z</time>
      </trkpt>
      <trkpt lat="43.66271" lon="5.75566">
        <ele>343</ele>
        <time>2016-03-19T09:51:43.162Z</time>
      </trkpt>
      <trkpt lat="43.66267" lon="5.7557">
        <ele>343</ele>
        <time>2016-03-19T09:51:44.135Z</time>
      </trkpt>
      <trkpt lat="43.6626" lon="5.75578">
        <ele>343</ele>
        <time>2016-03-19T09:51:46.160Z</time>
      </trkpt>
      <trkpt lat="43.66257" lon="5.75581">
        <ele>343</ele>
        <time>2016-03-19T09:51:47.136Z</time>
      </trkpt>
      <trkpt lat="43.66253" lon="5.75585">
        <ele>343</ele>
        <time>2016-03-19T09:51:48.168Z</time>
      </trkpt>
      <trkpt lat="43.66249" lon="5.75589">
        <ele>343</ele>
        <time>2016-03-19T09:51:49.134Z</time>
      </trkpt>
      <trkpt lat="43.66242" lon="5.75596">
        <ele>343</ele>
        <time>2016-03-19T09:51:51.161Z</time>
      </trkpt>
      <trkpt lat="43.66238" lon="5.756">
        <ele>343</ele>
        <time>2016-03-19T09:51:52.162Z</time>
      </trkpt>
      <trkpt lat="43.66234" lon="5.75603">
        <ele>343</ele>
        <time>2016-03-19T09:51:53.161Z</time>
      </trkpt>
      <trkpt lat="43.6623" lon="5.75607">
        <ele>343</ele>
        <time>2016-03-19T09:51:54.134Z</time>
      </trkpt>
      <trkpt lat="43.66226" lon="5.7561">
        <ele>342</ele>
        <time>2016-03-19T09:51:55.161Z</time>
      </trkpt>
      <trkpt lat="43.66222" lon="5.75613">
        <ele>343</ele>
        <time>2016-03-19T09:51:56.134Z</time>
      </trkpt>
      <trkpt lat="43.66218" lon="5.75616">
        <ele>343</ele>
        <time>2016-03-19T09:51:57.166Z</time>
      </trkpt>
      <trkpt lat="43.66214" lon="5.75619">
        <ele>343</ele>
        <time>2016-03-19T09:51:58.138Z</time>
      </trkpt>
      <trkpt lat="43.6621" lon="5.75622">
        <ele>343</ele>
        <time>2016-03-19T09:51:59.166Z</time>
      </trkpt>
      <trkpt lat="43.66205" lon="5.75624">
        <ele>342</ele>
        <time>2016-03-19T09:52:00.137Z</time>
      </trkpt>
      <trkpt lat="43.66201" lon="5.75627">
        <ele>342</ele>
        <time>2016-03-19T09:52:01.163Z</time>
      </trkpt>
      <trkpt lat="43.66197" lon="5.7563">
        <ele>342</ele>
        <time>2016-03-19T09:52:02.137Z</time>
      </trkpt>
      <trkpt lat="43.6619" lon="5.75635">
        <ele>343</ele>
        <time>2016-03-19T09:52:04.164Z</time>
      </trkpt>
      <trkpt lat="43.66185" lon="5.75638">
        <ele>344</ele>
        <time>2016-03-19T09:52:05.134Z</time>
      </trkpt>
      <trkpt lat="43.66177" lon="5.75643">
        <ele>344</ele>
        <time>2016-03-19T09:52:07.162Z</time>
      </trkpt>
      <trkpt lat="43.66173" lon="5.75646">
        <ele>344</ele>
        <time>2016-03-19T09:52:08.165Z</time>
      </trkpt>
      <trkpt lat="43.66165" lon="5.75651">
        <ele>343</ele>
        <time>2016-03-19T09:52:10.162Z</time>
      </trkpt>
      <trkpt lat="43.66161" lon="5.75654">
        <ele>343</ele>
        <time>2016-03-19T09:52:11.136Z</time>
      </trkpt>
      <trkpt lat="43.66153" lon="5.75659">
        <ele>343</ele>
        <time>2016-03-19T09:52:13.258Z</time>
      </trkpt>
      <trkpt lat="43.6615" lon="5.75661">
        <ele>343</ele>
        <time>2016-03-19T09:52:14.132Z</time>
      </trkpt>
      <trkpt lat="43.66142" lon="5.75667">
        <ele>343</ele>
        <time>2016-03-19T09:52:16.160Z</time>
      </trkpt>
      <trkpt lat="43.66139" lon="5.75669">
        <ele>344</ele>
        <time>2016-03-19T09:52:17.135Z</time>
      </trkpt>
      <trkpt lat="43.66131" lon="5.75674">
        <ele>343</ele>
        <time>2016-03-19T09:52:19.161Z</time>
      </trkpt>
      <trkpt lat="43.66127" lon="5.75677">
        <ele>343</ele>
        <time>2016-03-19T09:52:20.135Z</time>
      </trkpt>
      <trkpt lat="43.66119" lon="5.75682">
        <ele>343</ele>
        <time>2016-03-19T09:52:22.158Z</time>
      </trkpt>
      <trkpt lat="43.66116" lon="5.75684">
        <ele>343</ele>
        <time>2016-03-19T09:52:23.131Z</time>
      </trkpt>
      <trkpt lat="43.66108" lon="5.7569">
        <ele>342</ele>
        <time>2016-03-19T09:52:25.157Z</time>
      </trkpt>
      <trkpt lat="43.66103" lon="5.75692">
        <ele>342</ele>
        <time>2016-03-19T09:52:26.135Z</time>
      </trkpt>
      <trkpt lat="43.66099" lon="5.75696">
        <ele>342</ele>
        <time>2016-03-19T09:52:27.162Z</time>
      </trkpt>
      <trkpt lat="43.66095" lon="5.75698">
        <ele>342</ele>
        <time>2016-03-19T09:52:28.135Z</time>
      </trkpt>
      <trkpt lat="43.6609" lon="5.757">
        <ele>342</ele>
        <time>2016-03-19T09:52:29.148Z</time>
      </trkpt>
      <trkpt lat="43.66086" lon="5.75703">
        <ele>342</ele>
        <time>2016-03-19T09:52:30.130Z</time>
      </trkpt>
      <trkpt lat="43.66082" lon="5.75705">
        <ele>342</ele>
        <time>2016-03-19T09:52:31.158Z</time>
      </trkpt>
      <trkpt lat="43.66078" lon="5.75708">
        <ele>342</ele>
        <time>2016-03-19T09:52:32.135Z</time>
      </trkpt>
      <trkpt lat="43.66074" lon="5.75709">
        <ele>342</ele>
        <time>2016-03-19T09:52:33.156Z</time>
      </trkpt>
      <trkpt lat="43.66069" lon="5.75711">
        <ele>342</ele>
        <time>2016-03-19T09:52:34.134Z</time>
      </trkpt>
      <trkpt lat="43.66062" lon="5.75714">
        <ele>341</ele>
        <time>2016-03-19T09:52:36.162Z</time>
      </trkpt>
      <trkpt lat="43.66058" lon="5.75715">
        <ele>341</ele>
        <time>2016-03-19T09:52:37.135Z</time>
      </trkpt>
      <trkpt lat="43.66051" lon="5.75718">
        <ele>341</ele>
        <time>2016-03-19T09:52:39.161Z</time>
      </trkpt>
      <trkpt lat="43.66047" lon="5.75719">
        <ele>341</ele>
        <time>2016-03-19T09:52:40.135Z</time>
      </trkpt>
      <trkpt lat="43.66039" lon="5.7572">
        <ele>341</ele>
        <time>2016-03-19T09:52:42.162Z</time>
      </trkpt>
      <trkpt lat="43.66035" lon="5.75721">
        <ele>341</ele>
        <time>2016-03-19T09:52:43.135Z</time>
      </trkpt>
      <trkpt lat="43.66026" lon="5.75722">
        <ele>341</ele>
        <time>2016-03-19T09:52:45.162Z</time>
      </trkpt>
      <trkpt lat="43.66023" lon="5.75722">
        <ele>341</ele>
        <time>2016-03-19T09:52:46.132Z</time>
      </trkpt>
      <trkpt lat="43.66015" lon="5.75722">
        <ele>341</ele>
        <time>2016-03-19T09:52:48.160Z</time>
      </trkpt>
      <trkpt lat="43.66011" lon="5.75723">
        <ele>341</ele>
        <time>2016-03-19T09:52:49.135Z</time>
      </trkpt>
      <trkpt lat="43.66004" lon="5.75723">
        <ele>341</ele>
        <time>2016-03-19T09:52:51.185Z</time>
      </trkpt>
      <trkpt lat="43.66" lon="5.75723">
        <ele>341</ele>
        <time>2016-03-19T09:52:52.135Z</time>
      </trkpt>
      <trkpt lat="43.65992" lon="5.75724">
        <ele>341</ele>
        <time>2016-03-19T09:52:54.161Z</time>
      </trkpt>
      <trkpt lat="43.65987" lon="5.75726">
        <ele>340</ele>
        <time>2016-03-19T09:52:55.135Z</time>
      </trkpt>
      <trkpt lat="43.65979" lon="5.7573">
        <ele>340</ele>
        <time>2016-03-19T09:52:57.159Z</time>
      </trkpt>
      <trkpt lat="43.65975" lon="5.75732">
        <ele>340</ele>
        <time>2016-03-19T09:52:58.135Z</time>
      </trkpt>
      <trkpt lat="43.65968" lon="5.75734">
        <ele>339</ele>
        <time>2016-03-19T09:53:00.159Z</time>
      </trkpt>
      <trkpt lat="43.65965" lon="5.75735">
        <ele>340</ele>
        <time>2016-03-19T09:53:01.134Z</time>
      </trkpt>
      <trkpt lat="43.65959" lon="5.75738">
        <ele>340</ele>
        <time>2016-03-19T09:53:03.158Z</time>
      </trkpt>
      <trkpt lat="43.65956" lon="5.7574">
        <ele>340</ele>
        <time>2016-03-19T09:53:04.134Z</time>
      </trkpt>
      <trkpt lat="43.65948" lon="5.75747">
        <ele>341</ele>
        <time>2016-03-19T09:53:07.160Z</time>
      </trkpt>
      <trkpt lat="43.65946" lon="5.75748">
        <ele>341</ele>
        <time>2016-03-19T09:53:08.135Z</time>
      </trkpt>
      <trkpt lat="43.65939" lon="5.75755">
        <ele>342</ele>
        <time>2016-03-19T09:53:11.158Z</time>
      </trkpt>
      <trkpt lat="43.65938" lon="5.75759">
        <ele>342</ele>
        <time>2016-03-19T09:53:12.134Z</time>
      </trkpt>
      <trkpt lat="43.65937" lon="5.7577">
        <ele>342</ele>
        <time>2016-03-19T09:53:15.160Z</time>
      </trkpt>
      <trkpt lat="43.65937" lon="5.75774">
        <ele>342</ele>
        <time>2016-03-19T09:53:16.135Z</time>
      </trkpt>
      <trkpt lat="43.65938" lon="5.75783">
        <ele>342</ele>
        <time>2016-03-19T09:53:18.188Z</time>
      </trkpt>
      <trkpt lat="43.65938" lon="5.75787">
        <ele>342</ele>
        <time>2016-03-19T09:53:19.133Z</time>
      </trkpt>
      <trkpt lat="43.6594" lon="5.75798">
        <ele>342</ele>
        <time>2016-03-19T09:53:22.160Z</time>
      </trkpt>
      <trkpt lat="43.6594" lon="5.75801">
        <ele>342</ele>
        <time>2016-03-19T09:53:23.134Z</time>
      </trkpt>
      <trkpt lat="43.65939" lon="5.75813">
        <ele>343</ele>
        <time>2016-03-19T09:53:26.160Z</time>
      </trkpt>
      <trkpt lat="43.65937" lon="5.75815">
        <ele>342</ele>
        <time>2016-03-19T09:53:27.134Z</time>
      </trkpt>
      <trkpt lat="43.65931" lon="5.75817">
        <ele>342</ele>
        <time>2016-03-19T09:53:29.161Z</time>
      </trkpt>
      <trkpt lat="43.65927" lon="5.75817">
        <ele>341</ele>
        <time>2016-03-19T09:53:30.135Z</time>
      </trkpt>
      <trkpt lat="43.65919" lon="5.75816">
        <ele>341</ele>
        <time>2016-03-19T09:53:32.160Z</time>
      </trkpt>
      <trkpt lat="43.65916" lon="5.75816">
        <ele>341</ele>
        <time>2016-03-19T09:53:33.130Z</time>
      </trkpt>
      <trkpt lat="43.6591" lon="5.75812">
        <ele>342</ele>
        <time>2016-03-19T09:53:35.235Z</time>
      </trkpt>
      <trkpt lat="43.65908" lon="5.75809">
        <ele>342</ele>
        <time>2016-03-19T09:53:36.136Z</time>
      </trkpt>
      <trkpt lat="43.65901" lon="5.75803">
        <ele>343</ele>
        <time>2016-03-19T09:53:40.158Z</time>
      </trkpt>
      <trkpt lat="43.659" lon="5.75802">
        <ele>343</ele>
        <time>2016-03-19T09:53:41.151Z</time>
      </trkpt>
      <trkpt lat="43.65892" lon="5.75807">
        <ele>345</ele>
        <time>2016-03-19T09:53:48.164Z</time>
      </trkpt>
      <trkpt lat="43.65891" lon="5.75808">
        <ele>346</ele>
        <time>2016-03-19T09:53:49.136Z</time>
      </trkpt>
      <trkpt lat="43.65885" lon="5.75814">
        <ele>348</ele>
        <time>2016-03-19T09:53:54.158Z</time>
      </trkpt>
      <trkpt lat="43.65884" lon="5.75816">
        <ele>348</ele>
        <time>2016-03-19T09:53:55.166Z</time>
      </trkpt>
      <trkpt lat="43.65877" lon="5.75821">
        <ele>348</ele>
        <time>2016-03-19T09:54:00.157Z</time>
      </trkpt>
      <trkpt lat="43.65876" lon="5.75822">
        <ele>348</ele>
        <time>2016-03-19T09:54:01.135Z</time>
      </trkpt>
      <trkpt lat="43.65869" lon="5.75828">
        <ele>349</ele>
        <time>2016-03-19T09:54:07.149Z</time>
      </trkpt>
      <trkpt lat="43.65868" lon="5.75828">
        <ele>350</ele>
        <time>2016-03-19T09:54:08.134Z</time>
      </trkpt>
      <trkpt lat="43.6586" lon="5.75834">
        <ele>351</ele>
        <time>2016-03-19T09:54:15.152Z</time>
      </trkpt>
      <trkpt lat="43.65858" lon="5.75835">
        <ele>351</ele>
        <time>2016-03-19T09:54:16.135Z</time>
      </trkpt>
      <trkpt lat="43.65849" lon="5.75836">
        <ele>352</ele>
        <time>2016-03-19T09:54:23.160Z</time>
      </trkpt>
      <trkpt lat="43.65848" lon="5.75835">
        <ele>353</ele>
        <time>2016-03-19T09:54:24.363Z</time>
      </trkpt>
      <trkpt lat="43.65842" lon="5.75827">
        <ele>353</ele>
        <time>2016-03-19T09:54:30.151Z</time>
      </trkpt>
      <trkpt lat="43.65841" lon="5.75826">
        <ele>354</ele>
        <time>2016-03-19T09:54:31.131Z</time>
      </trkpt>
      <trkpt lat="43.65835" lon="5.75818">
        <ele>353</ele>
        <time>2016-03-19T09:54:38.158Z</time>
      </trkpt>
      <trkpt lat="43.65834" lon="5.75818">
        <ele>353</ele>
        <time>2016-03-19T09:54:39.131Z</time>
      </trkpt>
      <trkpt lat="43.65825" lon="5.75817">
        <ele>353</ele>
        <time>2016-03-19T09:54:45.160Z</time>
      </trkpt>
      <trkpt lat="43.65824" lon="5.75819">
        <ele>353</ele>
        <time>2016-03-19T09:54:46.138Z</time>
      </trkpt>
      <trkpt lat="43.6582" lon="5.75829">
        <ele>353</ele>
        <time>2016-03-19T09:54:51.154Z</time>
      </trkpt>
      <trkpt lat="43.65819" lon="5.75831">
        <ele>353</ele>
        <time>2016-03-19T09:54:52.133Z</time>
      </trkpt>
      <trkpt lat="43.65814" lon="5.75841">
        <ele>354</ele>
        <time>2016-03-19T09:54:57.153Z</time>
      </trkpt>
      <trkpt lat="43.65814" lon="5.75843">
        <ele>354</ele>
        <time>2016-03-19T09:54:58.133Z</time>
      </trkpt>
      <trkpt lat="43.65811" lon="5.75854">
        <ele>355</ele>
        <time>2016-03-19T09:55:03.155Z</time>
      </trkpt>
      <trkpt lat="43.65811" lon="5.75856">
        <ele>355</ele>
        <time>2016-03-19T09:55:04.132Z</time>
      </trkpt>
      <trkpt lat="43.65811" lon="5.75868">
        <ele>356</ele>
        <time>2016-03-19T09:55:09.154Z</time>
      </trkpt>
      <trkpt lat="43.65811" lon="5.7587">
        <ele>356</ele>
        <time>2016-03-19T09:55:10.130Z</time>
      </trkpt>
      <trkpt lat="43.65811" lon="5.75881">
        <ele>357</ele>
        <time>2016-03-19T09:55:14.151Z</time>
      </trkpt>
      <trkpt lat="43.65811" lon="5.75883">
        <ele>356</ele>
        <time>2016-03-19T09:55:15.133Z</time>
      </trkpt>
      <trkpt lat="43.65809" lon="5.75894">
        <ele>355</ele>
        <time>2016-03-19T09:55:19.155Z</time>
      </trkpt>
      <trkpt lat="43.65809" lon="5.75897">
        <ele>355</ele>
        <time>2016-03-19T09:55:20.133Z</time>
      </trkpt>
      <trkpt lat="43.6581" lon="5.75906">
        <ele>354</ele>
        <time>2016-03-19T09:55:22.180Z</time>
      </trkpt>
      <trkpt lat="43.65811" lon="5.7591">
        <ele>354</ele>
        <time>2016-03-19T09:55:23.133Z</time>
      </trkpt>
      <trkpt lat="43.65811" lon="5.75923">
        <ele>353</ele>
        <time>2016-03-19T09:55:26.153Z</time>
      </trkpt>
      <trkpt lat="43.65808" lon="5.75925">
        <ele>354</ele>
        <time>2016-03-19T09:55:27.133Z</time>
      </trkpt>
      <trkpt lat="43.65801" lon="5.75929">
        <ele>354</ele>
        <time>2016-03-19T09:55:30.154Z</time>
      </trkpt>
      <trkpt lat="43.65799" lon="5.7593">
        <ele>355</ele>
        <time>2016-03-19T09:55:31.133Z</time>
      </trkpt>
      <trkpt lat="43.65799" lon="5.75939">
        <ele>354</ele>
        <time>2016-03-19T09:55:34.153Z</time>
      </trkpt>
      <trkpt lat="43.65801" lon="5.75943">
        <ele>354</ele>
        <time>2016-03-19T09:55:35.133Z</time>
      </trkpt>
      <trkpt lat="43.65805" lon="5.75949">
        <ele>354</ele>
        <time>2016-03-19T09:55:37.388Z</time>
      </trkpt>
      <trkpt lat="43.65808" lon="5.75952">
        <ele>354</ele>
        <time>2016-03-19T09:55:38.163Z</time>
      </trkpt>
      <trkpt lat="43.65814" lon="5.75954">
        <ele>354</ele>
        <time>2016-03-19T09:55:40.157Z</time>
      </trkpt>
      <trkpt lat="43.65817" lon="5.75955">
        <ele>353</ele>
        <time>2016-03-19T09:55:41.130Z</time>
      </trkpt>
      <trkpt lat="43.65823" lon="5.75958">
        <ele>354</ele>
        <time>2016-03-19T09:55:43.160Z</time>
      </trkpt>
      <trkpt lat="43.65826" lon="5.75962">
        <ele>354</ele>
        <time>2016-03-19T09:55:44.136Z</time>
      </trkpt>
      <trkpt lat="43.65829" lon="5.75973">
        <ele>355</ele>
        <time>2016-03-19T09:55:47.165Z</time>
      </trkpt>
      <trkpt lat="43.6583" lon="5.75977">
        <ele>355</ele>
        <time>2016-03-19T09:55:48.135Z</time>
      </trkpt>
      <trkpt lat="43.6583" lon="5.75988">
        <ele>355</ele>
        <time>2016-03-19T09:55:51.161Z</time>
      </trkpt>
      <trkpt lat="43.6583" lon="5.75991">
        <ele>356</ele>
        <time>2016-03-19T09:55:52.137Z</time>
      </trkpt>
      <trkpt lat="43.6583" lon="5.76003">
        <ele>357</ele>
        <time>2016-03-19T09:55:56.161Z</time>
      </trkpt>
      <trkpt lat="43.6583" lon="5.76006">
        <ele>357</ele>
        <time>2016-03-19T09:55:57.134Z</time>
      </trkpt>
      <trkpt lat="43.65833" lon="5.76017">
        <ele>358</ele>
        <time>2016-03-19T09:56:01.364Z</time>
      </trkpt>
      <trkpt lat="43.65834" lon="5.76019">
        <ele>358</ele>
        <time>2016-03-19T09:56:02.135Z</time>
      </trkpt>
      <trkpt lat="43.65839" lon="5.76029">
        <ele>359</ele>
        <time>2016-03-19T09:56:21.170Z</time>
      </trkpt>
      <trkpt lat="43.6584" lon="5.76031">
        <ele>360</ele>
        <time>2016-03-19T09:56:22.136Z</time>
      </trkpt>
      <trkpt lat="43.65841" lon="5.76043">
        <ele>361</ele>
        <time>2016-03-19T09:56:26.192Z</time>
      </trkpt>
      <trkpt lat="43.6584" lon="5.76046">
        <ele>361</ele>
        <time>2016-03-19T09:56:27.135Z</time>
      </trkpt>
      <trkpt lat="43.65841" lon="5.76059">
        <ele>362</ele>
        <time>2016-03-19T09:56:32.158Z</time>
      </trkpt>
      <trkpt lat="43.65841" lon="5.7606">
        <ele>362</ele>
        <time>2016-03-19T09:56:33.135Z</time>
      </trkpt>
      <trkpt lat="43.65844" lon="5.76071">
        <ele>364</ele>
        <time>2016-03-19T09:56:40.159Z</time>
      </trkpt>
      <trkpt lat="43.65844" lon="5.76073">
        <ele>364</ele>
        <time>2016-03-19T09:56:41.134Z</time>
      </trkpt>
      <trkpt lat="43.65845" lon="5.76084">
        <ele>365</ele>
        <time>2016-03-19T09:56:50.160Z</time>
      </trkpt>
      <trkpt lat="43.65845" lon="5.76085">
        <ele>365</ele>
        <time>2016-03-19T09:56:51.134Z</time>
      </trkpt>
      <trkpt lat="43.65844" lon="5.76096">
        <ele>366</ele>
        <time>2016-03-19T09:56:58.185Z</time>
      </trkpt>
      <trkpt lat="43.65844" lon="5.76098">
        <ele>366</ele>
        <time>2016-03-19T09:56:59.132Z</time>
      </trkpt>
      <trkpt lat="43.65844" lon="5.76109">
        <ele>367</ele>
        <time>2016-03-19T09:57:06.153Z</time>
      </trkpt>
      <trkpt lat="43.65844" lon="5.76111">
        <ele>367</ele>
        <time>2016-03-19T09:57:07.130Z</time>
      </trkpt>
      <trkpt lat="43.65845" lon="5.76122">
        <ele>369</ele>
        <time>2016-03-19T09:57:14.150Z</time>
      </trkpt>
      <trkpt lat="43.65845" lon="5.76124">
        <ele>369</ele>
        <time>2016-03-19T09:57:15.134Z</time>
      </trkpt>
      <trkpt lat="43.65847" lon="5.76135">
        <ele>371</ele>
        <time>2016-03-19T09:57:23.153Z</time>
      </trkpt>
      <trkpt lat="43.65848" lon="5.76136">
        <ele>371</ele>
        <time>2016-03-19T09:57:24.136Z</time>
      </trkpt>
      <trkpt lat="43.65851" lon="5.76146">
        <ele>372</ele>
        <time>2016-03-19T09:57:31.151Z</time>
      </trkpt>
      <trkpt lat="43.65851" lon="5.76148">
        <ele>373</ele>
        <time>2016-03-19T09:57:32.131Z</time>
      </trkpt>
      <trkpt lat="43.65853" lon="5.7616">
        <ele>373</ele>
        <time>2016-03-19T09:57:39.159Z</time>
      </trkpt>
      <trkpt lat="43.65853" lon="5.76161">
        <ele>373</ele>
        <time>2016-03-19T09:57:40.132Z</time>
      </trkpt>
      <trkpt lat="43.65853" lon="5.76173">
        <ele>373</ele>
        <time>2016-03-19T09:57:46.158Z</time>
      </trkpt>
      <trkpt lat="43.65853" lon="5.76174">
        <ele>373</ele>
        <time>2016-03-19T09:57:47.133Z</time>
      </trkpt>
      <trkpt lat="43.65854" lon="5.76186">
        <ele>373</ele>
        <time>2016-03-19T09:57:54.159Z</time>
      </trkpt>
      <trkpt lat="43.65854" lon="5.76187">
        <ele>373</ele>
        <time>2016-03-19T09:57:55.135Z</time>
      </trkpt>
      <trkpt lat="43.65858" lon="5.76194">
        <ele>372</ele>
        <time>2016-03-19T09:58:02.157Z</time>
      </trkpt>
      <trkpt lat="43.6586" lon="5.76198">
        <ele>372</ele>
        <time>2016-03-19T09:58:03.163Z</time>
      </trkpt>
      <trkpt lat="43.65864" lon="5.76209">
        <ele>371</ele>
        <time>2016-03-19T09:58:05.162Z</time>
      </trkpt>
      <trkpt lat="43.65867" lon="5.76215">
        <ele>370</ele>
        <time>2016-03-19T09:58:06.134Z</time>
      </trkpt>
      <trkpt lat="43.65871" lon="5.76222">
        <ele>369</ele>
        <time>2016-03-19T09:58:07.160Z</time>
      </trkpt>
      <trkpt lat="43.65874" lon="5.7623">
        <ele>369</ele>
        <time>2016-03-19T09:58:08.134Z</time>
      </trkpt>
      <trkpt lat="43.65876" lon="5.76237">
        <ele>367</ele>
        <time>2016-03-19T09:58:09.154Z</time>
      </trkpt>
      <trkpt lat="43.65878" lon="5.76247">
        <ele>367</ele>
        <time>2016-03-19T09:58:10.134Z</time>
      </trkpt>
      <trkpt lat="43.65879" lon="5.76254">
        <ele>366</ele>
        <time>2016-03-19T09:58:11.154Z</time>
      </trkpt>
      <trkpt lat="43.6588" lon="5.76263">
        <ele>365</ele>
        <time>2016-03-19T09:58:12.130Z</time>
      </trkpt>
      <trkpt lat="43.65881" lon="5.76271">
        <ele>365</ele>
        <time>2016-03-19T09:58:13.149Z</time>
      </trkpt>
      <trkpt lat="43.65881" lon="5.76279">
        <ele>364</ele>
        <time>2016-03-19T09:58:14.135Z</time>
      </trkpt>
      <trkpt lat="43.65881" lon="5.76287">
        <ele>363</ele>
        <time>2016-03-19T09:58:15.165Z</time>
      </trkpt>
      <trkpt lat="43.65882" lon="5.76296">
        <ele>362</ele>
        <time>2016-03-19T09:58:16.131Z</time>
      </trkpt>
      <trkpt lat="43.65884" lon="5.76304">
        <ele>360</ele>
        <time>2016-03-19T09:58:17.155Z</time>
      </trkpt>
      <trkpt lat="43.65886" lon="5.76312">
        <ele>359</ele>
        <time>2016-03-19T09:58:18.131Z</time>
      </trkpt>
      <trkpt lat="43.65887" lon="5.7632">
        <ele>358</ele>
        <time>2016-03-19T09:58:19.190Z</time>
      </trkpt>
      <trkpt lat="43.65888" lon="5.76328">
        <ele>357</ele>
        <time>2016-03-19T09:58:20.136Z</time>
      </trkpt>
      <trkpt lat="43.65887" lon="5.76339">
        <ele>357</ele>
        <time>2016-03-19T09:58:21.389Z</time>
      </trkpt>
      <trkpt lat="43.65886" lon="5.76348">
        <ele>356</ele>
        <time>2016-03-19T09:58:22.206Z</time>
      </trkpt>
      <trkpt lat="43.65885" lon="5.76358">
        <ele>355</ele>
        <time>2016-03-19T09:58:23.161Z</time>
      </trkpt>
      <trkpt lat="43.65884" lon="5.76368">
        <ele>355</ele>
        <time>2016-03-19T09:58:24.135Z</time>
      </trkpt>
      <trkpt lat="43.65882" lon="5.76377">
        <ele>355</ele>
        <time>2016-03-19T09:58:25.161Z</time>
      </trkpt>
      <trkpt lat="43.65881" lon="5.76387">
        <ele>354</ele>
        <time>2016-03-19T09:58:26.136Z</time>
      </trkpt>
      <trkpt lat="43.65879" lon="5.76396">
        <ele>354</ele>
        <time>2016-03-19T09:58:27.160Z</time>
      </trkpt>
      <trkpt lat="43.65878" lon="5.76405">
        <ele>354</ele>
        <time>2016-03-19T09:58:28.135Z</time>
      </trkpt>
      <trkpt lat="43.65878" lon="5.76415">
        <ele>354</ele>
        <time>2016-03-19T09:58:29.165Z</time>
      </trkpt>
      <trkpt lat="43.65878" lon="5.76423">
        <ele>354</ele>
        <time>2016-03-19T09:58:30.135Z</time>
      </trkpt>
      <trkpt lat="43.65878" lon="5.7643">
        <ele>354</ele>
        <time>2016-03-19T09:58:31.161Z</time>
      </trkpt>
      <trkpt lat="43.65879" lon="5.76439">
        <ele>353</ele>
        <time>2016-03-19T09:58:32.135Z</time>
      </trkpt>
      <trkpt lat="43.6588" lon="5.76446">
        <ele>353</ele>
        <time>2016-03-19T09:58:33.150Z</time>
      </trkpt>
      <trkpt lat="43.6588" lon="5.76452">
        <ele>354</ele>
        <time>2016-03-19T09:58:34.127Z</time>
      </trkpt>
      <trkpt lat="43.65882" lon="5.76463">
        <ele>353</ele>
        <time>2016-03-19T09:58:36.162Z</time>
      </trkpt>
      <trkpt lat="43.65884" lon="5.76468">
        <ele>353</ele>
        <time>2016-03-19T09:58:37.135Z</time>
      </trkpt>
      <trkpt lat="43.65887" lon="5.76478">
        <ele>354</ele>
        <time>2016-03-19T09:58:40.184Z</time>
      </trkpt>
      <trkpt lat="43.65888" lon="5.76481">
        <ele>354</ele>
        <time>2016-03-19T09:58:41.131Z</time>
      </trkpt>
      <trkpt lat="43.65891" lon="5.76491">
        <ele>354</ele>
        <time>2016-03-19T09:58:44.165Z</time>
      </trkpt>
      <trkpt lat="43.65891" lon="5.76495">
        <ele>355</ele>
        <time>2016-03-19T09:58:45.126Z</time>
      </trkpt>
      <trkpt lat="43.65892" lon="5.76505">
        <ele>355</ele>
        <time>2016-03-19T09:58:48.160Z</time>
      </trkpt>
      <trkpt lat="43.65892" lon="5.76508">
        <ele>356</ele>
        <time>2016-03-19T09:58:49.138Z</time>
      </trkpt>
      <trkpt lat="43.65893" lon="5.76519">
        <ele>358</ele>
        <time>2016-03-19T09:58:53.162Z</time>
      </trkpt>
      <trkpt lat="43.65893" lon="5.76522">
        <ele>358</ele>
        <time>2016-03-19T09:58:54.138Z</time>
      </trkpt>
      <trkpt lat="43.65895" lon="5.76532">
        <ele>358</ele>
        <time>2016-03-19T09:58:57.151Z</time>
      </trkpt>
      <trkpt lat="43.65896" lon="5.76535">
        <ele>357</ele>
        <time>2016-03-19T09:58:58.134Z</time>
      </trkpt>
      <trkpt lat="43.659" lon="5.76542">
        <ele>358</ele>
        <time>2016-03-19T09:59:00.164Z</time>
      </trkpt>
      <trkpt lat="43.65903" lon="5.76546">
        <ele>357</ele>
        <time>2016-03-19T09:59:01.133Z</time>
      </trkpt>
      <trkpt lat="43.65908" lon="5.76552">
        <ele>357</ele>
        <time>2016-03-19T09:59:03.165Z</time>
      </trkpt>
      <trkpt lat="43.65911" lon="5.76556">
        <ele>357</ele>
        <time>2016-03-19T09:59:04.135Z</time>
      </trkpt>
      <trkpt lat="43.65916" lon="5.76562">
        <ele>358</ele>
        <time>2016-03-19T09:59:06.163Z</time>
      </trkpt>
      <trkpt lat="43.65919" lon="5.76565">
        <ele>358</ele>
        <time>2016-03-19T09:59:07.138Z</time>
      </trkpt>
      <trkpt lat="43.65924" lon="5.7657">
        <ele>358</ele>
        <time>2016-03-19T09:59:09.155Z</time>
      </trkpt>
      <trkpt lat="43.65927" lon="5.76573">
        <ele>357</ele>
        <time>2016-03-19T09:59:10.134Z</time>
      </trkpt>
      <trkpt lat="43.65934" lon="5.7658">
        <ele>357</ele>
        <time>2016-03-19T09:59:12.196Z</time>
      </trkpt>
      <trkpt lat="43.65936" lon="5.76584">
        <ele>357</ele>
        <time>2016-03-19T09:59:13.132Z</time>
      </trkpt>
      <trkpt lat="43.65939" lon="5.76593">
        <ele>357</ele>
        <time>2016-03-19T09:59:15.155Z</time>
      </trkpt>
      <trkpt lat="43.6594" lon="5.76598">
        <ele>358</ele>
        <time>2016-03-19T09:59:16.134Z</time>
      </trkpt>
      <trkpt lat="43.65942" lon="5.76607">
        <ele>359</ele>
        <time>2016-03-19T09:59:18.166Z</time>
      </trkpt>
      <trkpt lat="43.65944" lon="5.7661">
        <ele>359</ele>
        <time>2016-03-19T09:59:19.129Z</time>
      </trkpt>
      <trkpt lat="43.6595" lon="5.76619">
        <ele>360</ele>
        <time>2016-03-19T09:59:23.152Z</time>
      </trkpt>
      <trkpt lat="43.65951" lon="5.76621">
        <ele>360</ele>
        <time>2016-03-19T09:59:24.133Z</time>
      </trkpt>
      <trkpt lat="43.65955" lon="5.76631">
        <ele>359</ele>
        <time>2016-03-19T09:59:27.154Z</time>
      </trkpt>
      <trkpt lat="43.65957" lon="5.76635">
        <ele>359</ele>
        <time>2016-03-19T09:59:28.157Z</time>
      </trkpt>
      <trkpt lat="43.65959" lon="5.76646">
        <ele>359</ele>
        <time>2016-03-19T09:59:31.200Z</time>
      </trkpt>
      <trkpt lat="43.6596" lon="5.7665">
        <ele>359</ele>
        <time>2016-03-19T09:59:32.132Z</time>
      </trkpt>
      <trkpt lat="43.65961" lon="5.76662">
        <ele>359</ele>
        <time>2016-03-19T09:59:35.155Z</time>
      </trkpt>
      <trkpt lat="43.65961" lon="5.76666">
        <ele>359</ele>
        <time>2016-03-19T09:59:36.133Z</time>
      </trkpt>
      <trkpt lat="43.65962" lon="5.76678">
        <ele>360</ele>
        <time>2016-03-19T09:59:39.155Z</time>
      </trkpt>
      <trkpt lat="43.65961" lon="5.76682">
        <ele>359</ele>
        <time>2016-03-19T09:59:40.134Z</time>
      </trkpt>
      <trkpt lat="43.65961" lon="5.76691">
        <ele>359</ele>
        <time>2016-03-19T09:59:42.226Z</time>
      </trkpt>
      <trkpt lat="43.65961" lon="5.76695">
        <ele>359</ele>
        <time>2016-03-19T09:59:43.133Z</time>
      </trkpt>
      <trkpt lat="43.65961" lon="5.76703">
        <ele>360</ele>
        <time>2016-03-19T09:59:45.148Z</time>
      </trkpt>
      <trkpt lat="43.65961" lon="5.76708">
        <ele>360</ele>
        <time>2016-03-19T09:59:46.131Z</time>
      </trkpt>
      <trkpt lat="43.65961" lon="5.76716">
        <ele>360</ele>
        <time>2016-03-19T09:59:48.156Z</time>
      </trkpt>
      <trkpt lat="43.6596" lon="5.7672">
        <ele>360</ele>
        <time>2016-03-19T09:59:49.131Z</time>
      </trkpt>
      <trkpt lat="43.65959" lon="5.76728">
        <ele>361</ele>
        <time>2016-03-19T09:59:51.153Z</time>
      </trkpt>
      <trkpt lat="43.65959" lon="5.76733">
        <ele>360</ele>
        <time>2016-03-19T09:59:52.134Z</time>
      </trkpt>
      <trkpt lat="43.65958" lon="5.76743">
        <ele>360</ele>
        <time>2016-03-19T09:59:55.187Z</time>
      </trkpt>
      <trkpt lat="43.65958" lon="5.76746">
        <ele>360</ele>
        <time>2016-03-19T09:59:56.137Z</time>
      </trkpt>
      <trkpt lat="43.65959" lon="5.76756">
        <ele>362</ele>
        <time>2016-03-19T09:59:59.165Z</time>
      </trkpt>
      <trkpt lat="43.6596" lon="5.7676">
        <ele>361</ele>
        <time>2016-03-19T10:00:00.130Z</time>
      </trkpt>
      <trkpt lat="43.65961" lon="5.76772">
        <ele>363</ele>
        <time>2016-03-19T10:00:03.165Z</time>
      </trkpt>
      <trkpt lat="43.65961" lon="5.76775">
        <ele>362</ele>
        <time>2016-03-19T10:00:04.135Z</time>
      </trkpt>
      <trkpt lat="43.65963" lon="5.76787">
        <ele>363</ele>
        <time>2016-03-19T10:00:07.383Z</time>
      </trkpt>
      <trkpt lat="43.65963" lon="5.76791">
        <ele>363</ele>
        <time>2016-03-19T10:00:08.131Z</time>
      </trkpt>
      <trkpt lat="43.65965" lon="5.76803">
        <ele>363</ele>
        <time>2016-03-19T10:00:11.159Z</time>
      </trkpt>
      <trkpt lat="43.65966" lon="5.76806">
        <ele>363</ele>
        <time>2016-03-19T10:00:12.135Z</time>
      </trkpt>
      <trkpt lat="43.65971" lon="5.76812">
        <ele>362</ele>
        <time>2016-03-19T10:00:14.161Z</time>
      </trkpt>
      <trkpt lat="43.65974" lon="5.76813">
        <ele>361</ele>
        <time>2016-03-19T10:00:15.126Z</time>
      </trkpt>
      <trkpt lat="43.65981" lon="5.76812">
        <ele>362</ele>
        <time>2016-03-19T10:00:17.156Z</time>
      </trkpt>
      <trkpt lat="43.65984" lon="5.76812">
        <ele>362</ele>
        <time>2016-03-19T10:00:18.133Z</time>
      </trkpt>
      <trkpt lat="43.65992" lon="5.76813">
        <ele>362</ele>
        <time>2016-03-19T10:00:21.154Z</time>
      </trkpt>
      <trkpt lat="43.65994" lon="5.76812">
        <ele>363</ele>
        <time>2016-03-19T10:00:22.162Z</time>
      </trkpt>
      <trkpt lat="43.66002" lon="5.76812">
        <ele>363</ele>
        <time>2016-03-19T10:00:26.164Z</time>
      </trkpt>
      <trkpt lat="43.66004" lon="5.76812">
        <ele>363</ele>
        <time>2016-03-19T10:00:27.136Z</time>
      </trkpt>
      <trkpt lat="43.6601" lon="5.76819">
        <ele>365</ele>
        <time>2016-03-19T10:00:30.162Z</time>
      </trkpt>
      <trkpt lat="43.66011" lon="5.76822">
        <ele>365</ele>
        <time>2016-03-19T10:00:31.132Z</time>
      </trkpt>
      <trkpt lat="43.66017" lon="5.76828">
        <ele>365</ele>
        <time>2016-03-19T10:00:34.160Z</time>
      </trkpt>
      <trkpt lat="43.66019" lon="5.76829">
        <ele>365</ele>
        <time>2016-03-19T10:00:35.138Z</time>
      </trkpt>
      <trkpt lat="43.66027" lon="5.76832">
        <ele>366</ele>
        <time>2016-03-19T10:00:39.159Z</time>
      </trkpt>
      <trkpt lat="43.66028" lon="5.76835">
        <ele>366</ele>
        <time>2016-03-19T10:00:40.135Z</time>
      </trkpt>
      <trkpt lat="43.66029" lon="5.76846">
        <ele>366</ele>
        <time>2016-03-19T10:00:44.157Z</time>
      </trkpt>
      <trkpt lat="43.66028" lon="5.76849">
        <ele>366</ele>
        <time>2016-03-19T10:00:45.135Z</time>
      </trkpt>
      <trkpt lat="43.66026" lon="5.7686">
        <ele>366</ele>
        <time>2016-03-19T10:00:48.171Z</time>
      </trkpt>
      <trkpt lat="43.66025" lon="5.76864">
        <ele>366</ele>
        <time>2016-03-19T10:00:49.135Z</time>
      </trkpt>
      <trkpt lat="43.66024" lon="5.76872">
        <ele>366</ele>
        <time>2016-03-19T10:00:51.162Z</time>
      </trkpt>
      <trkpt lat="43.66024" lon="5.76876">
        <ele>366</ele>
        <time>2016-03-19T10:00:52.134Z</time>
      </trkpt>
      <trkpt lat="43.66024" lon="5.76885">
        <ele>366</ele>
        <time>2016-03-19T10:00:54.160Z</time>
      </trkpt>
      <trkpt lat="43.66023" lon="5.76889">
        <ele>366</ele>
        <time>2016-03-19T10:00:55.136Z</time>
      </trkpt>
      <trkpt lat="43.66023" lon="5.76898">
        <ele>366</ele>
        <time>2016-03-19T10:00:57.156Z</time>
      </trkpt>
      <trkpt lat="43.66023" lon="5.76903">
        <ele>367</ele>
        <time>2016-03-19T10:00:58.132Z</time>
      </trkpt>
      <trkpt lat="43.66022" lon="5.76912">
        <ele>367</ele>
        <time>2016-03-19T10:01:00.185Z</time>
      </trkpt>
      <trkpt lat="43.66021" lon="5.76916">
        <ele>367</ele>
        <time>2016-03-19T10:01:01.131Z</time>
      </trkpt>
      <trkpt lat="43.66019" lon="5.76924">
        <ele>367</ele>
        <time>2016-03-19T10:01:03.160Z</time>
      </trkpt>
      <trkpt lat="43.66017" lon="5.76928">
        <ele>368</ele>
        <time>2016-03-19T10:01:04.136Z</time>
      </trkpt>
      <trkpt lat="43.66014" lon="5.76936">
        <ele>367</ele>
        <time>2016-03-19T10:01:06.163Z</time>
      </trkpt>
      <trkpt lat="43.66012" lon="5.76939">
        <ele>367</ele>
        <time>2016-03-19T10:01:07.135Z</time>
      </trkpt>
      <trkpt lat="43.66009" lon="5.76949">
        <ele>367</ele>
        <time>2016-03-19T10:01:09.161Z</time>
      </trkpt>
      <trkpt lat="43.66007" lon="5.76953">
        <ele>367</ele>
        <time>2016-03-19T10:01:10.130Z</time>
      </trkpt>
      <trkpt lat="43.66003" lon="5.76963">
        <ele>367</ele>
        <time>2016-03-19T10:01:12.164Z</time>
      </trkpt>
      <trkpt lat="43.66001" lon="5.76967">
        <ele>367</ele>
        <time>2016-03-19T10:01:13.136Z</time>
      </trkpt>
      <trkpt lat="43.66" lon="5.76978">
        <ele>367</ele>
        <time>2016-03-19T10:01:15.182Z</time>
      </trkpt>
      <trkpt lat="43.65999" lon="5.76982">
        <ele>367</ele>
        <time>2016-03-19T10:01:16.135Z</time>
      </trkpt>
      <trkpt lat="43.65995" lon="5.76991">
        <ele>368</ele>
        <time>2016-03-19T10:01:19.160Z</time>
      </trkpt>
      <trkpt lat="43.65993" lon="5.76994">
        <ele>368</ele>
        <time>2016-03-19T10:01:20.132Z</time>
      </trkpt>
      <trkpt lat="43.65991" lon="5.77005">
        <ele>369</ele>
        <time>2016-03-19T10:01:23.161Z</time>
      </trkpt>
      <trkpt lat="43.6599" lon="5.77009">
        <ele>369</ele>
        <time>2016-03-19T10:01:24.137Z</time>
      </trkpt>
      <trkpt lat="43.65986" lon="5.7702">
        <ele>370</ele>
        <time>2016-03-19T10:01:27.160Z</time>
      </trkpt>
      <trkpt lat="43.65984" lon="5.77023">
        <ele>370</ele>
        <time>2016-03-19T10:01:28.131Z</time>
      </trkpt>
      <trkpt lat="43.65979" lon="5.7703">
        <ele>370</ele>
        <time>2016-03-19T10:01:30.163Z</time>
      </trkpt>
      <trkpt lat="43.65977" lon="5.77034">
        <ele>369</ele>
        <time>2016-03-19T10:01:31.163Z</time>
      </trkpt>
      <trkpt lat="43.65973" lon="5.77042">
        <ele>370</ele>
        <time>2016-03-19T10:01:33.155Z</time>
      </trkpt>
      <trkpt lat="43.65971" lon="5.77046">
        <ele>369</ele>
        <time>2016-03-19T10:01:34.136Z</time>
      </trkpt>
      <trkpt lat="43.65966" lon="5.77053">
        <ele>369</ele>
        <time>2016-03-19T10:01:36.151Z</time>
      </trkpt>
      <trkpt lat="43.65964" lon="5.77056">
        <ele>368</ele>
        <time>2016-03-19T10:01:37.132Z</time>
      </trkpt>
      <trkpt lat="43.65959" lon="5.77062">
        <ele>369</ele>
        <time>2016-03-19T10:01:39.162Z</time>
      </trkpt>
      <trkpt lat="43.65956" lon="5.77065">
        <ele>369</ele>
        <time>2016-03-19T10:01:40.137Z</time>
      </trkpt>
      <trkpt lat="43.65951" lon="5.77071">
        <ele>369</ele>
        <time>2016-03-19T10:01:42.191Z</time>
      </trkpt>
      <trkpt lat="43.65948" lon="5.77074">
        <ele>369</ele>
        <time>2016-03-19T10:01:43.136Z</time>
      </trkpt>
      <trkpt lat="43.65943" lon="5.77081">
        <ele>369</ele>
        <time>2016-03-19T10:01:45.163Z</time>
      </trkpt>
      <trkpt lat="43.65941" lon="5.77085">
        <ele>369</ele>
        <time>2016-03-19T10:01:46.130Z</time>
      </trkpt>
      <trkpt lat="43.65939" lon="5.77094">
        <ele>369</ele>
        <time>2016-03-19T10:01:48.165Z</time>
      </trkpt>
      <trkpt lat="43.65938" lon="5.77099">
        <ele>369</ele>
        <time>2016-03-19T10:01:49.134Z</time>
      </trkpt>
      <trkpt lat="43.65936" lon="5.77107">
        <ele>369</ele>
        <time>2016-03-19T10:01:51.149Z</time>
      </trkpt>
      <trkpt lat="43.65934" lon="5.77112">
        <ele>369</ele>
        <time>2016-03-19T10:01:52.131Z</time>
      </trkpt>
      <trkpt lat="43.65931" lon="5.7712">
        <ele>369</ele>
        <time>2016-03-19T10:01:54.210Z</time>
      </trkpt>
      <trkpt lat="43.65929" lon="5.77124">
        <ele>369</ele>
        <time>2016-03-19T10:01:55.135Z</time>
      </trkpt>
      <trkpt lat="43.65926" lon="5.77133">
        <ele>369</ele>
        <time>2016-03-19T10:01:57.161Z</time>
      </trkpt>
      <trkpt lat="43.65925" lon="5.77137">
        <ele>370</ele>
        <time>2016-03-19T10:01:58.158Z</time>
      </trkpt>
      <trkpt lat="43.65922" lon="5.77146">
        <ele>369</ele>
        <time>2016-03-19T10:02:00.160Z</time>
      </trkpt>
      <trkpt lat="43.6592" lon="5.7715">
        <ele>369</ele>
        <time>2016-03-19T10:02:01.136Z</time>
      </trkpt>
      <trkpt lat="43.65918" lon="5.77159">
        <ele>369</ele>
        <time>2016-03-19T10:02:03.157Z</time>
      </trkpt>
      <trkpt lat="43.65917" lon="5.77163">
        <ele>369</ele>
        <time>2016-03-19T10:02:04.135Z</time>
      </trkpt>
      <trkpt lat="43.65917" lon="5.77173">
        <ele>369</ele>
        <time>2016-03-19T10:02:06.156Z</time>
      </trkpt>
      <trkpt lat="43.65917" lon="5.77178">
        <ele>369</ele>
        <time>2016-03-19T10:02:07.136Z</time>
      </trkpt>
      <trkpt lat="43.65918" lon="5.77187">
        <ele>369</ele>
        <time>2016-03-19T10:02:09.187Z</time>
      </trkpt>
      <trkpt lat="43.65918" lon="5.77192">
        <ele>370</ele>
        <time>2016-03-19T10:02:10.131Z</time>
      </trkpt>
      <trkpt lat="43.65919" lon="5.77201">
        <ele>370</ele>
        <time>2016-03-19T10:02:12.161Z</time>
      </trkpt>
      <trkpt lat="43.65919" lon="5.77206">
        <ele>370</ele>
        <time>2016-03-19T10:02:13.136Z</time>
      </trkpt>
      <trkpt lat="43.6592" lon="5.77218">
        <ele>371</ele>
        <time>2016-03-19T10:02:16.160Z</time>
      </trkpt>
      <trkpt lat="43.6592" lon="5.77222">
        <ele>371</ele>
        <time>2016-03-19T10:02:17.132Z</time>
      </trkpt>
      <trkpt lat="43.6592" lon="5.77231">
        <ele>371</ele>
        <time>2016-03-19T10:02:19.415Z</time>
      </trkpt>
      <trkpt lat="43.6592" lon="5.77235">
        <ele>371</ele>
        <time>2016-03-19T10:02:20.136Z</time>
      </trkpt>
      <trkpt lat="43.65919" lon="5.77247">
        <ele>371</ele>
        <time>2016-03-19T10:02:23.161Z</time>
      </trkpt>
      <trkpt lat="43.65918" lon="5.77251">
        <ele>372</ele>
        <time>2016-03-19T10:02:24.135Z</time>
      </trkpt>
      <trkpt lat="43.65916" lon="5.77263">
        <ele>371</ele>
        <time>2016-03-19T10:02:27.156Z</time>
      </trkpt>
      <trkpt lat="43.65915" lon="5.77266">
        <ele>371</ele>
        <time>2016-03-19T10:02:28.137Z</time>
      </trkpt>
      <trkpt lat="43.65911" lon="5.77277">
        <ele>371</ele>
        <time>2016-03-19T10:02:31.163Z</time>
      </trkpt>
      <trkpt lat="43.65908" lon="5.7728">
        <ele>371</ele>
        <time>2016-03-19T10:02:32.352Z</time>
      </trkpt>
      <trkpt lat="43.65904" lon="5.77287">
        <ele>370</ele>
        <time>2016-03-19T10:02:34.161Z</time>
      </trkpt>
      <trkpt lat="43.65901" lon="5.77291">
        <ele>370</ele>
        <time>2016-03-19T10:02:35.137Z</time>
      </trkpt>
      <trkpt lat="43.65897" lon="5.77298">
        <ele>370</ele>
        <time>2016-03-19T10:02:37.177Z</time>
      </trkpt>
      <trkpt lat="43.65896" lon="5.77302">
        <ele>371</ele>
        <time>2016-03-19T10:02:38.137Z</time>
      </trkpt>
      <trkpt lat="43.65893" lon="5.7731">
        <ele>371</ele>
        <time>2016-03-19T10:02:40.162Z</time>
      </trkpt>
      <trkpt lat="43.65892" lon="5.77314">
        <ele>371</ele>
        <time>2016-03-19T10:02:41.132Z</time>
      </trkpt>
      <trkpt lat="43.6589" lon="5.77323">
        <ele>371</ele>
        <time>2016-03-19T10:02:43.393Z</time>
      </trkpt>
      <trkpt lat="43.65889" lon="5.77328">
        <ele>372</ele>
        <time>2016-03-19T10:02:44.131Z</time>
      </trkpt>
      <trkpt lat="43.65889" lon="5.77338">
        <ele>372</ele>
        <time>2016-03-19T10:02:46.188Z</time>
      </trkpt>
      <trkpt lat="43.6589" lon="5.77343">
        <ele>373</ele>
        <time>2016-03-19T10:02:47.135Z</time>
      </trkpt>
      <trkpt lat="43.6589" lon="5.77352">
        <ele>374</ele>
        <time>2016-03-19T10:02:49.161Z</time>
      </trkpt>
      <trkpt lat="43.6589" lon="5.77356">
        <ele>374</ele>
        <time>2016-03-19T10:02:50.135Z</time>
      </trkpt>
      <trkpt lat="43.65891" lon="5.77368">
        <ele>374</ele>
        <time>2016-03-19T10:02:53.157Z</time>
      </trkpt>
      <trkpt lat="43.65891" lon="5.77371">
        <ele>374</ele>
        <time>2016-03-19T10:02:54.135Z</time>
      </trkpt>
      <trkpt lat="43.6589" lon="5.77382">
        <ele>374</ele>
        <time>2016-03-19T10:02:57.161Z</time>
      </trkpt>
      <trkpt lat="43.65889" lon="5.77386">
        <ele>374</ele>
        <time>2016-03-19T10:02:58.136Z</time>
      </trkpt>
      <trkpt lat="43.65888" lon="5.77394">
        <ele>373</ele>
        <time>2016-03-19T10:03:00.161Z</time>
      </trkpt>
      <trkpt lat="43.65887" lon="5.77399">
        <ele>373</ele>
        <time>2016-03-19T10:03:01.136Z</time>
      </trkpt>
      <trkpt lat="43.65885" lon="5.77409">
        <ele>373</ele>
        <time>2016-03-19T10:03:03.161Z</time>
      </trkpt>
      <trkpt lat="43.65884" lon="5.77414">
        <ele>373</ele>
        <time>2016-03-19T10:03:04.136Z</time>
      </trkpt>
      <trkpt lat="43.65882" lon="5.77424">
        <ele>373</ele>
        <time>2016-03-19T10:03:06.160Z</time>
      </trkpt>
      <trkpt lat="43.65881" lon="5.77429">
        <ele>374</ele>
        <time>2016-03-19T10:03:07.161Z</time>
      </trkpt>
      <trkpt lat="43.65879" lon="5.77438">
        <ele>374</ele>
        <time>2016-03-19T10:03:09.161Z</time>
      </trkpt>
      <trkpt lat="43.65878" lon="5.77442">
        <ele>374</ele>
        <time>2016-03-19T10:03:10.136Z</time>
      </trkpt>
      <trkpt lat="43.65876" lon="5.77452">
        <ele>374</ele>
        <time>2016-03-19T10:03:12.160Z</time>
      </trkpt>
      <trkpt lat="43.65875" lon="5.77456">
        <ele>374</ele>
        <time>2016-03-19T10:03:13.135Z</time>
      </trkpt>
      <trkpt lat="43.65873" lon="5.77464">
        <ele>375</ele>
        <time>2016-03-19T10:03:15.162Z</time>
      </trkpt>
      <trkpt lat="43.65872" lon="5.77468">
        <ele>374</ele>
        <time>2016-03-19T10:03:16.139Z</time>
      </trkpt>
      <trkpt lat="43.65868" lon="5.77479">
        <ele>374</ele>
        <time>2016-03-19T10:03:19.391Z</time>
      </trkpt>
      <trkpt lat="43.65865" lon="5.77482">
        <ele>374</ele>
        <time>2016-03-19T10:03:20.138Z</time>
      </trkpt>
      <trkpt lat="43.65858" lon="5.77487">
        <ele>374</ele>
        <time>2016-03-19T10:03:22.161Z</time>
      </trkpt>
      <trkpt lat="43.65853" lon="5.77488">
        <ele>374</ele>
        <time>2016-03-19T10:03:23.165Z</time>
      </trkpt>
      <trkpt lat="43.65845" lon="5.77493">
        <ele>374</ele>
        <time>2016-03-19T10:03:25.158Z</time>
      </trkpt>
      <trkpt lat="43.65843" lon="5.77497">
        <ele>374</ele>
        <time>2016-03-19T10:03:26.136Z</time>
      </trkpt>
      <trkpt lat="43.65839" lon="5.77508">
        <ele>374</ele>
        <time>2016-03-19T10:03:28.158Z</time>
      </trkpt>
      <trkpt lat="43.65839" lon="5.77513">
        <ele>375</ele>
        <time>2016-03-19T10:03:29.132Z</time>
      </trkpt>
      <trkpt lat="43.65834" lon="5.77523">
        <ele>375</ele>
        <time>2016-03-19T10:03:32.186Z</time>
      </trkpt>
      <trkpt lat="43.65831" lon="5.77526">
        <ele>375</ele>
        <time>2016-03-19T10:03:33.136Z</time>
      </trkpt>
      <trkpt lat="43.65825" lon="5.7753">
        <ele>374</ele>
        <time>2016-03-19T10:03:35.136Z</time>
      </trkpt>
      <trkpt lat="43.65823" lon="5.77533">
        <ele>374</ele>
        <time>2016-03-19T10:03:36.135Z</time>
      </trkpt>
      <trkpt lat="43.65818" lon="5.7754">
        <ele>374</ele>
        <time>2016-03-19T10:03:38.182Z</time>
      </trkpt>
      <trkpt lat="43.65816" lon="5.77544">
        <ele>375</ele>
        <time>2016-03-19T10:03:39.137Z</time>
      </trkpt>
      <trkpt lat="43.65811" lon="5.77551">
        <ele>375</ele>
        <time>2016-03-19T10:03:41.411Z</time>
      </trkpt>
      <trkpt lat="43.65809" lon="5.77554">
        <ele>375</ele>
        <time>2016-03-19T10:03:42.135Z</time>
      </trkpt>
      <trkpt lat="43.65803" lon="5.77558">
        <ele>376</ele>
        <time>2016-03-19T10:03:44.172Z</time>
      </trkpt>
      <trkpt lat="43.658" lon="5.77558">
        <ele>376</ele>
        <time>2016-03-19T10:03:45.136Z</time>
      </trkpt>
      <trkpt lat="43.65793" lon="5.77559">
        <ele>377</ele>
        <time>2016-03-19T10:03:47.169Z</time>
      </trkpt>
      <trkpt lat="43.6579" lon="5.77559">
        <ele>377</ele>
        <time>2016-03-19T10:03:48.134Z</time>
      </trkpt>
      <trkpt lat="43.65781" lon="5.77561">
        <ele>377</ele>
        <time>2016-03-19T10:03:51.165Z</time>
      </trkpt>
      <trkpt lat="43.65778" lon="5.77561">
        <ele>377</ele>
        <time>2016-03-19T10:03:52.136Z</time>
      </trkpt>
      <trkpt lat="43.6577" lon="5.77559">
        <ele>378</ele>
        <time>2016-03-19T10:03:55.166Z</time>
      </trkpt>
      <trkpt lat="43.65767" lon="5.77558">
        <ele>378</ele>
        <time>2016-03-19T10:03:56.136Z</time>
      </trkpt>
      <trkpt lat="43.6576" lon="5.77553">
        <ele>378</ele>
        <time>2016-03-19T10:03:59.159Z</time>
      </trkpt>
      <trkpt lat="43.65757" lon="5.77552">
        <ele>379</ele>
        <time>2016-03-19T10:04:00.137Z</time>
      </trkpt>
      <trkpt lat="43.6575" lon="5.77548">
        <ele>379</ele>
        <time>2016-03-19T10:04:03.162Z</time>
      </trkpt>
      <trkpt lat="43.65747" lon="5.77547">
        <ele>379</ele>
        <time>2016-03-19T10:04:04.135Z</time>
      </trkpt>
      <trkpt lat="43.65739" lon="5.77544">
        <ele>380</ele>
        <time>2016-03-19T10:04:07.163Z</time>
      </trkpt>
      <trkpt lat="43.65736" lon="5.77544">
        <ele>380</ele>
        <time>2016-03-19T10:04:08.138Z</time>
      </trkpt>
      <trkpt lat="43.6573" lon="5.77544">
        <ele>380</ele>
        <time>2016-03-19T10:04:10.167Z</time>
      </trkpt>
      <trkpt lat="43.65727" lon="5.77544">
        <ele>380</ele>
        <time>2016-03-19T10:04:11.132Z</time>
      </trkpt>
      <trkpt lat="43.65721" lon="5.77545">
        <ele>380</ele>
        <time>2016-03-19T10:04:13.158Z</time>
      </trkpt>
      <trkpt lat="43.65718" lon="5.77546">
        <ele>380</ele>
        <time>2016-03-19T10:04:14.136Z</time>
      </trkpt>
      <trkpt lat="43.65712" lon="5.77548">
        <ele>380</ele>
        <time>2016-03-19T10:04:16.392Z</time>
      </trkpt>
      <trkpt lat="43.65709" lon="5.77549">
        <ele>381</ele>
        <time>2016-03-19T10:04:17.160Z</time>
      </trkpt>
      <trkpt lat="43.65703" lon="5.77551">
        <ele>381</ele>
        <time>2016-03-19T10:04:19.164Z</time>
      </trkpt>
      <trkpt lat="43.657" lon="5.77552">
        <ele>381</ele>
        <time>2016-03-19T10:04:20.136Z</time>
      </trkpt>
      <trkpt lat="43.65694" lon="5.77555">
        <ele>381</ele>
        <time>2016-03-19T10:04:22.158Z</time>
      </trkpt>
      <trkpt lat="43.65691" lon="5.77557">
        <ele>381</ele>
        <time>2016-03-19T10:04:23.136Z</time>
      </trkpt>
      <trkpt lat="43.65686" lon="5.77561">
        <ele>381</ele>
        <time>2016-03-19T10:04:25.162Z</time>
      </trkpt>
      <trkpt lat="43.65683" lon="5.77563">
        <ele>381</ele>
        <time>2016-03-19T10:04:26.135Z</time>
      </trkpt>
      <trkpt lat="43.65678" lon="5.77567">
        <ele>381</ele>
        <time>2016-03-19T10:04:28.152Z</time>
      </trkpt>
      <trkpt lat="43.65675" lon="5.77569">
        <ele>381</ele>
        <time>2016-03-19T10:04:29.137Z</time>
      </trkpt>
      <trkpt lat="43.6567" lon="5.77574">
        <ele>381</ele>
        <time>2016-03-19T10:04:31.168Z</time>
      </trkpt>
      <trkpt lat="43.65667" lon="5.77576">
        <ele>381</ele>
        <time>2016-03-19T10:04:32.137Z</time>
      </trkpt>
      <trkpt lat="43.65662" lon="5.77581">
        <ele>381</ele>
        <time>2016-03-19T10:04:34.147Z</time>
      </trkpt>
      <trkpt lat="43.6566" lon="5.77583">
        <ele>381</ele>
        <time>2016-03-19T10:04:35.133Z</time>
      </trkpt>
      <trkpt lat="43.65654" lon="5.77589">
        <ele>381</ele>
        <time>2016-03-19T10:04:37.163Z</time>
      </trkpt>
      <trkpt lat="43.65651" lon="5.77591">
        <ele>381</ele>
        <time>2016-03-19T10:04:38.136Z</time>
      </trkpt>
      <trkpt lat="43.65645" lon="5.77595">
        <ele>381</ele>
        <time>2016-03-19T10:04:40.159Z</time>
      </trkpt>
      <trkpt lat="43.65642" lon="5.77597">
        <ele>381</ele>
        <time>2016-03-19T10:04:41.137Z</time>
      </trkpt>
      <trkpt lat="43.65635" lon="5.77601">
        <ele>381</ele>
        <time>2016-03-19T10:04:43.242Z</time>
      </trkpt>
      <trkpt lat="43.65632" lon="5.77602">
        <ele>381</ele>
        <time>2016-03-19T10:04:44.162Z</time>
      </trkpt>
      <trkpt lat="43.65626" lon="5.77604">
        <ele>381</ele>
        <time>2016-03-19T10:04:46.169Z</time>
      </trkpt>
      <trkpt lat="43.65623" lon="5.77605">
        <ele>381</ele>
        <time>2016-03-19T10:04:47.136Z</time>
      </trkpt>
      <trkpt lat="43.65617" lon="5.77607">
        <ele>381</ele>
        <time>2016-03-19T10:04:49.157Z</time>
      </trkpt>
      <trkpt lat="43.65614" lon="5.77608">
        <ele>381</ele>
        <time>2016-03-19T10:04:50.134Z</time>
      </trkpt>
      <trkpt lat="43.65609" lon="5.7761">
        <ele>381</ele>
        <time>2016-03-19T10:04:52.161Z</time>
      </trkpt>
      <trkpt lat="43.65605" lon="5.77612">
        <ele>381</ele>
        <time>2016-03-19T10:04:53.132Z</time>
      </trkpt>
      <trkpt lat="43.656" lon="5.77615">
        <ele>381</ele>
        <time>2016-03-19T10:04:55.162Z</time>
      </trkpt>
      <trkpt lat="43.65597" lon="5.77617">
        <ele>381</ele>
        <time>2016-03-19T10:04:56.138Z</time>
      </trkpt>
      <trkpt lat="43.65591" lon="5.77621">
        <ele>381</ele>
        <time>2016-03-19T10:04:58.163Z</time>
      </trkpt>
      <trkpt lat="43.65588" lon="5.77623">
        <ele>381</ele>
        <time>2016-03-19T10:04:59.131Z</time>
      </trkpt>
      <trkpt lat="43.65583" lon="5.77626">
        <ele>381</ele>
        <time>2016-03-19T10:05:01.162Z</time>
      </trkpt>
      <trkpt lat="43.6558" lon="5.77628">
        <ele>381</ele>
        <time>2016-03-19T10:05:02.138Z</time>
      </trkpt>
      <trkpt lat="43.65574" lon="5.77631">
        <ele>381</ele>
        <time>2016-03-19T10:05:04.162Z</time>
      </trkpt>
      <trkpt lat="43.65571" lon="5.77633">
        <ele>381</ele>
        <time>2016-03-19T10:05:05.133Z</time>
      </trkpt>
      <trkpt lat="43.65566" lon="5.77637">
        <ele>382</ele>
        <time>2016-03-19T10:05:07.153Z</time>
      </trkpt>
      <trkpt lat="43.65563" lon="5.77639">
        <ele>382</ele>
        <time>2016-03-19T10:05:08.135Z</time>
      </trkpt>
      <trkpt lat="43.65558" lon="5.77644">
        <ele>382</ele>
        <time>2016-03-19T10:05:10.156Z</time>
      </trkpt>
      <trkpt lat="43.65555" lon="5.77647">
        <ele>383</ele>
        <time>2016-03-19T10:05:11.131Z</time>
      </trkpt>
      <trkpt lat="43.65549" lon="5.77654">
        <ele>383</ele>
        <time>2016-03-19T10:05:14.342Z</time>
      </trkpt>
      <trkpt lat="43.65546" lon="5.77656">
        <ele>383</ele>
        <time>2016-03-19T10:05:15.137Z</time>
      </trkpt>
      <trkpt lat="43.65541" lon="5.77664">
        <ele>383</ele>
        <time>2016-03-19T10:05:18.152Z</time>
      </trkpt>
      <trkpt lat="43.65539" lon="5.77668">
        <ele>383</ele>
        <time>2016-03-19T10:05:19.131Z</time>
      </trkpt>
      <trkpt lat="43.65535" lon="5.77675">
        <ele>383</ele>
        <time>2016-03-19T10:05:21.157Z</time>
      </trkpt>
      <trkpt lat="43.65532" lon="5.77678">
        <ele>384</ele>
        <time>2016-03-19T10:05:22.134Z</time>
      </trkpt>
      <trkpt lat="43.65527" lon="5.77685">
        <ele>383</ele>
        <time>2016-03-19T10:05:25.158Z</time>
      </trkpt>
      <trkpt lat="43.65525" lon="5.77687">
        <ele>384</ele>
        <time>2016-03-19T10:05:26.134Z</time>
      </trkpt>
      <trkpt lat="43.65518" lon="5.7769">
        <ele>383</ele>
        <time>2016-03-19T10:05:29.149Z</time>
      </trkpt>
      <trkpt lat="43.65515" lon="5.7769">
        <ele>384</ele>
        <time>2016-03-19T10:05:30.132Z</time>
      </trkpt>
      <trkpt lat="43.65507" lon="5.77689">
        <ele>385</ele>
        <time>2016-03-19T10:05:33.152Z</time>
      </trkpt>
      <trkpt lat="43.65505" lon="5.77688">
        <ele>385</ele>
        <time>2016-03-19T10:05:34.134Z</time>
      </trkpt>
      <trkpt lat="43.65497" lon="5.77682">
        <ele>386</ele>
        <time>2016-03-19T10:05:37.180Z</time>
      </trkpt>
      <trkpt lat="43.65494" lon="5.77681">
        <ele>386</ele>
        <time>2016-03-19T10:05:38.134Z</time>
      </trkpt>
      <trkpt lat="43.65486" lon="5.77677">
        <ele>386</ele>
        <time>2016-03-19T10:05:41.155Z</time>
      </trkpt>
      <trkpt lat="43.65483" lon="5.77677">
        <ele>387</ele>
        <time>2016-03-19T10:05:42.134Z</time>
      </trkpt>
      <trkpt lat="43.65475" lon="5.77673">
        <ele>388</ele>
        <time>2016-03-19T10:05:45.157Z</time>
      </trkpt>
      <trkpt lat="43.65472" lon="5.77672">
        <ele>388</ele>
        <time>2016-03-19T10:05:46.130Z</time>
      </trkpt>
      <trkpt lat="43.65463" lon="5.77668">
        <ele>389</ele>
        <time>2016-03-19T10:05:49.155Z</time>
      </trkpt>
      <trkpt lat="43.65461" lon="5.77667">
        <ele>389</ele>
        <time>2016-03-19T10:05:50.133Z</time>
      </trkpt>
      <trkpt lat="43.65452" lon="5.77663">
        <ele>389</ele>
        <time>2016-03-19T10:05:53.163Z</time>
      </trkpt>
      <trkpt lat="43.65449" lon="5.77661">
        <ele>389</ele>
        <time>2016-03-19T10:05:54.137Z</time>
      </trkpt>
      <trkpt lat="43.65441" lon="5.77656">
        <ele>389</ele>
        <time>2016-03-19T10:05:57.164Z</time>
      </trkpt>
      <trkpt lat="43.65439" lon="5.77654">
        <ele>390</ele>
        <time>2016-03-19T10:05:58.135Z</time>
      </trkpt>
      <trkpt lat="43.65431" lon="5.77649">
        <ele>390</ele>
        <time>2016-03-19T10:06:01.162Z</time>
      </trkpt>
      <trkpt lat="43.65428" lon="5.77648">
        <ele>389</ele>
        <time>2016-03-19T10:06:02.133Z</time>
      </trkpt>
      <trkpt lat="43.6542" lon="5.77643">
        <ele>388</ele>
        <time>2016-03-19T10:06:05.161Z</time>
      </trkpt>
      <trkpt lat="43.65417" lon="5.77642">
        <ele>388</ele>
        <time>2016-03-19T10:06:06.131Z</time>
      </trkpt>
      <trkpt lat="43.65409" lon="5.77637">
        <ele>391</ele>
        <time>2016-03-19T10:06:09.163Z</time>
      </trkpt>
      <trkpt lat="43.65406" lon="5.77636">
        <ele>390</ele>
        <time>2016-03-19T10:06:10.138Z</time>
      </trkpt>
      <trkpt lat="43.65398" lon="5.77633">
        <ele>390</ele>
        <time>2016-03-19T10:06:13.161Z</time>
      </trkpt>
      <trkpt lat="43.65395" lon="5.77632">
        <ele>391</ele>
        <time>2016-03-19T10:06:14.136Z</time>
      </trkpt>
      <trkpt lat="43.65387" lon="5.7763">
        <ele>391</ele>
        <time>2016-03-19T10:06:17.161Z</time>
      </trkpt>
      <trkpt lat="43.65384" lon="5.7763">
        <ele>391</ele>
        <time>2016-03-19T10:06:18.134Z</time>
      </trkpt>
      <trkpt lat="43.65376" lon="5.77631">
        <ele>390</ele>
        <time>2016-03-19T10:06:21.157Z</time>
      </trkpt>
      <trkpt lat="43.65374" lon="5.77631">
        <ele>390</ele>
        <time>2016-03-19T10:06:22.138Z</time>
      </trkpt>
      <trkpt lat="43.65365" lon="5.77634">
        <ele>389</ele>
        <time>2016-03-19T10:06:25.159Z</time>
      </trkpt>
      <trkpt lat="43.65362" lon="5.77636">
        <ele>389</ele>
        <time>2016-03-19T10:06:26.136Z</time>
      </trkpt>
      <trkpt lat="43.65354" lon="5.77641">
        <ele>389</ele>
        <time>2016-03-19T10:06:29.157Z</time>
      </trkpt>
      <trkpt lat="43.65352" lon="5.77643">
        <ele>390</ele>
        <time>2016-03-19T10:06:30.136Z</time>
      </trkpt>
      <trkpt lat="43.65344" lon="5.77648">
        <ele>389</ele>
        <time>2016-03-19T10:06:33.161Z</time>
      </trkpt>
      <trkpt lat="43.65342" lon="5.77651">
        <ele>388</ele>
        <time>2016-03-19T10:06:34.135Z</time>
      </trkpt>
      <trkpt lat="43.65334" lon="5.77657">
        <ele>390</ele>
        <time>2016-03-19T10:06:37.394Z</time>
      </trkpt>
      <trkpt lat="43.65332" lon="5.77659">
        <ele>390</ele>
        <time>2016-03-19T10:06:38.133Z</time>
      </trkpt>
      <trkpt lat="43.65327" lon="5.77664">
        <ele>390</ele>
        <time>2016-03-19T10:06:40.161Z</time>
      </trkpt>
      <trkpt lat="43.65325" lon="5.77667">
        <ele>391</ele>
        <time>2016-03-19T10:06:41.136Z</time>
      </trkpt>
      <trkpt lat="43.65319" lon="5.77676">
        <ele>391</ele>
        <time>2016-03-19T10:06:44.151Z</time>
      </trkpt>
      <trkpt lat="43.65318" lon="5.77677">
        <ele>390</ele>
        <time>2016-03-19T10:06:45.133Z</time>
      </trkpt>
      <trkpt lat="43.65312" lon="5.77684">
        <ele>392</ele>
        <time>2016-03-19T10:06:50.162Z</time>
      </trkpt>
      <trkpt lat="43.65309" lon="5.77687">
        <ele>393</ele>
        <time>2016-03-19T10:06:51.127Z</time>
      </trkpt>
      <trkpt lat="43.65303" lon="5.77692">
        <ele>395</ele>
        <time>2016-03-19T10:06:54.153Z</time>
      </trkpt>
      <trkpt lat="43.65301" lon="5.77694">
        <ele>395</ele>
        <time>2016-03-19T10:06:55.134Z</time>
      </trkpt>
      <trkpt lat="43.65295" lon="5.77701">
        <ele>394</ele>
        <time>2016-03-19T10:06:58.182Z</time>
      </trkpt>
      <trkpt lat="43.65293" lon="5.77703">
        <ele>394</ele>
        <time>2016-03-19T10:06:59.135Z</time>
      </trkpt>
      <trkpt lat="43.65287" lon="5.77711">
        <ele>394</ele>
        <time>2016-03-19T10:07:02.159Z</time>
      </trkpt>
      <trkpt lat="43.65284" lon="5.77713">
        <ele>394</ele>
        <time>2016-03-19T10:07:03.137Z</time>
      </trkpt>
      <trkpt lat="43.65279" lon="5.77717">
        <ele>393</ele>
        <time>2016-03-19T10:07:05.162Z</time>
      </trkpt>
      <trkpt lat="43.65276" lon="5.77718">
        <ele>393</ele>
        <time>2016-03-19T10:07:06.137Z</time>
      </trkpt>
      <trkpt lat="43.65268" lon="5.7772">
        <ele>393</ele>
        <time>2016-03-19T10:07:09.251Z</time>
      </trkpt>
      <trkpt lat="43.65265" lon="5.7772">
        <ele>393</ele>
        <time>2016-03-19T10:07:10.137Z</time>
      </trkpt>
      <trkpt lat="43.65257" lon="5.77721">
        <ele>393</ele>
        <time>2016-03-19T10:07:13.165Z</time>
      </trkpt>
      <trkpt lat="43.65254" lon="5.77721">
        <ele>393</ele>
        <time>2016-03-19T10:07:14.139Z</time>
      </trkpt>
      <trkpt lat="43.65248" lon="5.77724">
        <ele>394</ele>
        <time>2016-03-19T10:07:16.173Z</time>
      </trkpt>
      <trkpt lat="43.65245" lon="5.77725">
        <ele>394</ele>
        <time>2016-03-19T10:07:17.132Z</time>
      </trkpt>
      <trkpt lat="43.65238" lon="5.77731">
        <ele>393</ele>
        <time>2016-03-19T10:07:20.156Z</time>
      </trkpt>
      <trkpt lat="43.65236" lon="5.77732">
        <ele>393</ele>
        <time>2016-03-19T10:07:21.144Z</time>
      </trkpt>
      <trkpt lat="43.65228" lon="5.77735">
        <ele>393</ele>
        <time>2016-03-19T10:07:24.151Z</time>
      </trkpt>
      <trkpt lat="43.65225" lon="5.77737">
        <ele>392</ele>
        <time>2016-03-19T10:07:25.141Z</time>
      </trkpt>
      <trkpt lat="43.65217" lon="5.7774">
        <ele>393</ele>
        <time>2016-03-19T10:07:28.153Z</time>
      </trkpt>
      <trkpt lat="43.65214" lon="5.77741">
        <ele>394</ele>
        <time>2016-03-19T10:07:29.135Z</time>
      </trkpt>
      <trkpt lat="43.65206" lon="5.77744">
        <ele>394</ele>
        <time>2016-03-19T10:07:32.164Z</time>
      </trkpt>
      <trkpt lat="43.65203" lon="5.77745">
        <ele>395</ele>
        <time>2016-03-19T10:07:33.135Z</time>
      </trkpt>
      <trkpt lat="43.65195" lon="5.77746">
        <ele>395</ele>
        <time>2016-03-19T10:07:36.157Z</time>
      </trkpt>
      <trkpt lat="43.65193" lon="5.77747">
        <ele>395</ele>
        <time>2016-03-19T10:07:37.133Z</time>
      </trkpt>
      <trkpt lat="43.65185" lon="5.77751">
        <ele>397</ele>
        <time>2016-03-19T10:07:41.167Z</time>
      </trkpt>
      <trkpt lat="43.65183" lon="5.77751">
        <ele>397</ele>
        <time>2016-03-19T10:07:42.136Z</time>
      </trkpt>
      <trkpt lat="43.65176" lon="5.77755">
        <ele>397</ele>
        <time>2016-03-19T10:07:46.164Z</time>
      </trkpt>
      <trkpt lat="43.65174" lon="5.77756">
        <ele>398</ele>
        <time>2016-03-19T10:07:47.133Z</time>
      </trkpt>
      <trkpt lat="43.65166" lon="5.77762">
        <ele>399</ele>
        <time>2016-03-19T10:07:51.186Z</time>
      </trkpt>
      <trkpt lat="43.65164" lon="5.77764">
        <ele>399</ele>
        <time>2016-03-19T10:07:52.133Z</time>
      </trkpt>
      <trkpt lat="43.65158" lon="5.77768">
        <ele>399</ele>
        <time>2016-03-19T10:07:55.157Z</time>
      </trkpt>
      <trkpt lat="43.65156" lon="5.7777">
        <ele>399</ele>
        <time>2016-03-19T10:07:56.136Z</time>
      </trkpt>
      <trkpt lat="43.65151" lon="5.77775">
        <ele>399</ele>
        <time>2016-03-19T10:07:59.162Z</time>
      </trkpt>
      <trkpt lat="43.65149" lon="5.77777">
        <ele>399</ele>
        <time>2016-03-19T10:08:00.135Z</time>
      </trkpt>
      <trkpt lat="43.65142" lon="5.77783">
        <ele>399</ele>
        <time>2016-03-19T10:08:04.159Z</time>
      </trkpt>
      <trkpt lat="43.6514" lon="5.77785">
        <ele>399</ele>
        <time>2016-03-19T10:08:05.136Z</time>
      </trkpt>
      <trkpt lat="43.65137" lon="5.77796">
        <ele>399</ele>
        <time>2016-03-19T10:08:10.158Z</time>
      </trkpt>
      <trkpt lat="43.65138" lon="5.77798">
        <ele>399</ele>
        <time>2016-03-19T10:08:11.136Z</time>
      </trkpt>
      <trkpt lat="43.65145" lon="5.7779">
        <ele>399</ele>
        <time>2016-03-19T10:08:17.164Z</time>
      </trkpt>
      <trkpt lat="43.65144" lon="5.77788">
        <ele>399</ele>
        <time>2016-03-19T10:08:18.137Z</time>
      </trkpt>
      <trkpt lat="43.65137" lon="5.77791">
        <ele>399</ele>
        <time>2016-03-19T10:08:22.186Z</time>
      </trkpt>
      <trkpt lat="43.65135" lon="5.77794">
        <ele>399</ele>
        <time>2016-03-19T10:08:23.137Z</time>
      </trkpt>
      <trkpt lat="43.6513" lon="5.778">
        <ele>399</ele>
        <time>2016-03-19T10:08:25.153Z</time>
      </trkpt>
      <trkpt lat="43.65126" lon="5.77804">
        <ele>398</ele>
        <time>2016-03-19T10:08:26.137Z</time>
      </trkpt>
      <trkpt lat="43.65123" lon="5.77808">
        <ele>398</ele>
        <time>2016-03-19T10:08:27.161Z</time>
      </trkpt>
      <trkpt lat="43.65118" lon="5.77813">
        <ele>398</ele>
        <time>2016-03-19T10:08:28.131Z</time>
      </trkpt>
      <trkpt lat="43.65114" lon="5.77818">
        <ele>398</ele>
        <time>2016-03-19T10:08:29.162Z</time>
      </trkpt>
      <trkpt lat="43.6511" lon="5.77822">
        <ele>397</ele>
        <time>2016-03-19T10:08:30.133Z</time>
      </trkpt>
      <trkpt lat="43.65107" lon="5.77827">
        <ele>397</ele>
        <time>2016-03-19T10:08:31.165Z</time>
      </trkpt>
      <trkpt lat="43.65104" lon="5.77833">
        <ele>397</ele>
        <time>2016-03-19T10:08:32.137Z</time>
      </trkpt>
      <trkpt lat="43.651" lon="5.77843">
        <ele>397</ele>
        <time>2016-03-19T10:08:34.159Z</time>
      </trkpt>
      <trkpt lat="43.65098" lon="5.77847">
        <ele>397</ele>
        <time>2016-03-19T10:08:35.139Z</time>
      </trkpt>
      <trkpt lat="43.65094" lon="5.77854">
        <ele>397</ele>
        <time>2016-03-19T10:08:37.162Z</time>
      </trkpt>
      <trkpt lat="43.65091" lon="5.77857">
        <ele>397</ele>
        <time>2016-03-19T10:08:38.159Z</time>
      </trkpt>
      <trkpt lat="43.65086" lon="5.77865">
        <ele>397</ele>
        <time>2016-03-19T10:08:40.146Z</time>
      </trkpt>
      <trkpt lat="43.65084" lon="5.77868">
        <ele>397</ele>
        <time>2016-03-19T10:08:41.137Z</time>
      </trkpt>
      <trkpt lat="43.6508" lon="5.77876">
        <ele>397</ele>
        <time>2016-03-19T10:08:43.159Z</time>
      </trkpt>
      <trkpt lat="43.65078" lon="5.77879">
        <ele>397</ele>
        <time>2016-03-19T10:08:44.137Z</time>
      </trkpt>
      <trkpt lat="43.65075" lon="5.77886">
        <ele>397</ele>
        <time>2016-03-19T10:08:46.162Z</time>
      </trkpt>
      <trkpt lat="43.65073" lon="5.77889">
        <ele>397</ele>
        <time>2016-03-19T10:08:47.137Z</time>
      </trkpt>
      <trkpt lat="43.65071" lon="5.77898">
        <ele>397</ele>
        <time>2016-03-19T10:08:49.157Z</time>
      </trkpt>
      <trkpt lat="43.65071" lon="5.77902">
        <ele>398</ele>
        <time>2016-03-19T10:08:50.134Z</time>
      </trkpt>
      <trkpt lat="43.6507" lon="5.77911">
        <ele>398</ele>
        <time>2016-03-19T10:08:52.166Z</time>
      </trkpt>
      <trkpt lat="43.65069" lon="5.77916">
        <ele>398</ele>
        <time>2016-03-19T10:08:53.138Z</time>
      </trkpt>
      <trkpt lat="43.65068" lon="5.77924">
        <ele>398</ele>
        <time>2016-03-19T10:08:55.162Z</time>
      </trkpt>
      <trkpt lat="43.65068" lon="5.77929">
        <ele>398</ele>
        <time>2016-03-19T10:08:56.138Z</time>
      </trkpt>
      <trkpt lat="43.65066" lon="5.77938">
        <ele>398</ele>
        <time>2016-03-19T10:08:58.165Z</time>
      </trkpt>
      <trkpt lat="43.65065" lon="5.77942">
        <ele>398</ele>
        <time>2016-03-19T10:08:59.134Z</time>
      </trkpt>
      <trkpt lat="43.65063" lon="5.77951">
        <ele>398</ele>
        <time>2016-03-19T10:09:01.164Z</time>
      </trkpt>
      <trkpt lat="43.65062" lon="5.77955">
        <ele>398</ele>
        <time>2016-03-19T10:09:02.137Z</time>
      </trkpt>
      <trkpt lat="43.65058" lon="5.77962">
        <ele>399</ele>
        <time>2016-03-19T10:09:04.164Z</time>
      </trkpt>
      <trkpt lat="43.65056" lon="5.77966">
        <ele>399</ele>
        <time>2016-03-19T10:09:05.137Z</time>
      </trkpt>
      <trkpt lat="43.65052" lon="5.77973">
        <ele>400</ele>
        <time>2016-03-19T10:09:07.164Z</time>
      </trkpt>
      <trkpt lat="43.6505" lon="5.77976">
        <ele>400</ele>
        <time>2016-03-19T10:09:08.134Z</time>
      </trkpt>
      <trkpt lat="43.65045" lon="5.77982">
        <ele>400</ele>
        <time>2016-03-19T10:09:10.186Z</time>
      </trkpt>
      <trkpt lat="43.65042" lon="5.77985">
        <ele>400</ele>
        <time>2016-03-19T10:09:11.137Z</time>
      </trkpt>
      <trkpt lat="43.65037" lon="5.77991">
        <ele>399</ele>
        <time>2016-03-19T10:09:13.157Z</time>
      </trkpt>
      <trkpt lat="43.65034" lon="5.77993">
        <ele>399</ele>
        <time>2016-03-19T10:09:14.137Z</time>
      </trkpt>
      <trkpt lat="43.65028" lon="5.77997">
        <ele>400</ele>
        <time>2016-03-19T10:09:16.164Z</time>
      </trkpt>
      <trkpt lat="43.65024" lon="5.77999">
        <ele>400</ele>
        <time>2016-03-19T10:09:17.136Z</time>
      </trkpt>
      <trkpt lat="43.65019" lon="5.78002">
        <ele>399</ele>
        <time>2016-03-19T10:09:19.163Z</time>
      </trkpt>
      <trkpt lat="43.65016" lon="5.78004">
        <ele>400</ele>
        <time>2016-03-19T10:09:20.139Z</time>
      </trkpt>
      <trkpt lat="43.6501" lon="5.78008">
        <ele>400</ele>
        <time>2016-03-19T10:09:24.160Z</time>
      </trkpt>
      <trkpt lat="43.65007" lon="5.78009">
        <ele>400</ele>
        <time>2016-03-19T10:09:25.137Z</time>
      </trkpt>
      <trkpt lat="43.64999" lon="5.78014">
        <ele>400</ele>
        <time>2016-03-19T10:09:29.162Z</time>
      </trkpt>
      <trkpt lat="43.64997" lon="5.78016">
        <ele>400</ele>
        <time>2016-03-19T10:09:30.129Z</time>
      </trkpt>
      <trkpt lat="43.6499" lon="5.78021">
        <ele>401</ele>
        <time>2016-03-19T10:09:35.164Z</time>
      </trkpt>
      <trkpt lat="43.64989" lon="5.78022">
        <ele>400</ele>
        <time>2016-03-19T10:09:36.135Z</time>
      </trkpt>
      <trkpt lat="43.64983" lon="5.7803">
        <ele>402</ele>
        <time>2016-03-19T10:09:41.142Z</time>
      </trkpt>
      <trkpt lat="43.64982" lon="5.78033">
        <ele>402</ele>
        <time>2016-03-19T10:09:42.134Z</time>
      </trkpt>
      <trkpt lat="43.64978" lon="5.78043">
        <ele>402</ele>
        <time>2016-03-19T10:09:45.163Z</time>
      </trkpt>
      <trkpt lat="43.64977" lon="5.78046">
        <ele>402</ele>
        <time>2016-03-19T10:09:46.137Z</time>
      </trkpt>
      <trkpt lat="43.64975" lon="5.78057">
        <ele>402</ele>
        <time>2016-03-19T10:09:49.162Z</time>
      </trkpt>
      <trkpt lat="43.64974" lon="5.78059">
        <ele>402</ele>
        <time>2016-03-19T10:09:50.137Z</time>
      </trkpt>
      <trkpt lat="43.6497" lon="5.7807">
        <ele>402</ele>
        <time>2016-03-19T10:09:54.166Z</time>
      </trkpt>
      <trkpt lat="43.6497" lon="5.78072">
        <ele>402</ele>
        <time>2016-03-19T10:09:55.136Z</time>
      </trkpt>
      <trkpt lat="43.64966" lon="5.78081">
        <ele>402</ele>
        <time>2016-03-19T10:09:58.167Z</time>
      </trkpt>
      <trkpt lat="43.64964" lon="5.78083">
        <ele>402</ele>
        <time>2016-03-19T10:09:59.133Z</time>
      </trkpt>
      <trkpt lat="43.64958" lon="5.78091">
        <ele>403</ele>
        <time>2016-03-19T10:10:04.145Z</time>
      </trkpt>
      <trkpt lat="43.64959" lon="5.78093">
        <ele>403</ele>
        <time>2016-03-19T10:10:05.133Z</time>
      </trkpt>
      <trkpt lat="43.64963" lon="5.78104">
        <ele>403</ele>
        <time>2016-03-19T10:10:11.158Z</time>
      </trkpt>
      <trkpt lat="43.64964" lon="5.78106">
        <ele>403</ele>
        <time>2016-03-19T10:10:12.132Z</time>
      </trkpt>
      <trkpt lat="43.64966" lon="5.78117">
        <ele>404</ele>
        <time>2016-03-19T10:10:40.150Z</time>
      </trkpt>
      <trkpt lat="43.64966" lon="5.7812">
        <ele>403</ele>
        <time>2016-03-19T10:10:41.132Z</time>
      </trkpt>
      <trkpt lat="43.64963" lon="5.7813">
        <ele>404</ele>
        <time>2016-03-19T10:10:44.152Z</time>
      </trkpt>
      <trkpt lat="43.64962" lon="5.78134">
        <ele>403</ele>
        <time>2016-03-19T10:10:45.136Z</time>
      </trkpt>
      <trkpt lat="43.64962" lon="5.78143">
        <ele>402</ele>
        <time>2016-03-19T10:10:47.156Z</time>
      </trkpt>
      <trkpt lat="43.64962" lon="5.78148">
        <ele>402</ele>
        <time>2016-03-19T10:10:48.140Z</time>
      </trkpt>
      <trkpt lat="43.64963" lon="5.78157">
        <ele>402</ele>
        <time>2016-03-19T10:10:50.179Z</time>
      </trkpt>
      <trkpt lat="43.64963" lon="5.7816">
        <ele>403</ele>
        <time>2016-03-19T10:10:51.132Z</time>
      </trkpt>
      <trkpt lat="43.64964" lon="5.78172">
        <ele>402</ele>
        <time>2016-03-19T10:10:58.162Z</time>
      </trkpt>
      <trkpt lat="43.64965" lon="5.78175">
        <ele>402</ele>
        <time>2016-03-19T10:10:59.136Z</time>
      </trkpt>
      <trkpt lat="43.64969" lon="5.78186">
        <ele>403</ele>
        <time>2016-03-19T10:11:02.163Z</time>
      </trkpt>
      <trkpt lat="43.6497" lon="5.7819">
        <ele>403</ele>
        <time>2016-03-19T10:11:03.137Z</time>
      </trkpt>
      <trkpt lat="43.64972" lon="5.78198">
        <ele>402</ele>
        <time>2016-03-19T10:11:05.163Z</time>
      </trkpt>
      <trkpt lat="43.64974" lon="5.78202">
        <ele>402</ele>
        <time>2016-03-19T10:11:06.128Z</time>
      </trkpt>
      <trkpt lat="43.64976" lon="5.7821">
        <ele>401</ele>
        <time>2016-03-19T10:11:08.161Z</time>
      </trkpt>
      <trkpt lat="43.64977" lon="5.78214">
        <ele>402</ele>
        <time>2016-03-19T10:11:09.137Z</time>
      </trkpt>
      <trkpt lat="43.6498" lon="5.78223">
        <ele>402</ele>
        <time>2016-03-19T10:11:12.162Z</time>
      </trkpt>
      <trkpt lat="43.64982" lon="5.78226">
        <ele>402</ele>
        <time>2016-03-19T10:11:13.164Z</time>
      </trkpt>
      <trkpt lat="43.64986" lon="5.78234">
        <ele>401</ele>
        <time>2016-03-19T10:11:16.162Z</time>
      </trkpt>
      <trkpt lat="43.64987" lon="5.78237">
        <ele>401</ele>
        <time>2016-03-19T10:11:17.137Z</time>
      </trkpt>
      <trkpt lat="43.6499" lon="5.78246">
        <ele>401</ele>
        <time>2016-03-19T10:11:21.165Z</time>
      </trkpt>
      <trkpt lat="43.64992" lon="5.78249">
        <ele>401</ele>
        <time>2016-03-19T10:11:22.137Z</time>
      </trkpt>
      <trkpt lat="43.64995" lon="5.78258">
        <ele>401</ele>
        <time>2016-03-19T10:11:25.162Z</time>
      </trkpt>
      <trkpt lat="43.64996" lon="5.78261">
        <ele>401</ele>
        <time>2016-03-19T10:11:26.138Z</time>
      </trkpt>
      <trkpt lat="43.64999" lon="5.7827">
        <ele>401</ele>
        <time>2016-03-19T10:11:29.192Z</time>
      </trkpt>
      <trkpt lat="43.65" lon="5.78273">
        <ele>402</ele>
        <time>2016-03-19T10:11:30.138Z</time>
      </trkpt>
      <trkpt lat="43.65005" lon="5.7828">
        <ele>402</ele>
        <time>2016-03-19T10:11:33.165Z</time>
      </trkpt>
      <trkpt lat="43.65006" lon="5.78282">
        <ele>402</ele>
        <time>2016-03-19T10:11:34.138Z</time>
      </trkpt>
      <trkpt lat="43.65012" lon="5.7829">
        <ele>403</ele>
        <time>2016-03-19T10:11:40.186Z</time>
      </trkpt>
      <trkpt lat="43.65015" lon="5.7829">
        <ele>403</ele>
        <time>2016-03-19T10:11:41.136Z</time>
      </trkpt>
      <trkpt lat="43.65023" lon="5.78288">
        <ele>403</ele>
        <time>2016-03-19T10:11:44.163Z</time>
      </trkpt>
      <trkpt lat="43.65025" lon="5.78287">
        <ele>403</ele>
        <time>2016-03-19T10:11:45.136Z</time>
      </trkpt>
      <trkpt lat="43.65032" lon="5.78287">
        <ele>402</ele>
        <time>2016-03-19T10:11:48.159Z</time>
      </trkpt>
      <trkpt lat="43.65035" lon="5.78288">
        <ele>402</ele>
        <time>2016-03-19T10:11:49.137Z</time>
      </trkpt>
      <trkpt lat="43.65043" lon="5.78293">
        <ele>403</ele>
        <time>2016-03-19T10:11:53.162Z</time>
      </trkpt>
      <trkpt lat="43.65045" lon="5.78294">
        <ele>404</ele>
        <time>2016-03-19T10:11:54.133Z</time>
      </trkpt>
      <trkpt lat="43.65052" lon="5.78299">
        <ele>404</ele>
        <time>2016-03-19T10:11:58.157Z</time>
      </trkpt>
      <trkpt lat="43.65055" lon="5.783">
        <ele>404</ele>
        <time>2016-03-19T10:11:59.137Z</time>
      </trkpt>
      <trkpt lat="43.65063" lon="5.78302">
        <ele>404</ele>
        <time>2016-03-19T10:12:03.220Z</time>
      </trkpt>
      <trkpt lat="43.65066" lon="5.78302">
        <ele>404</ele>
        <time>2016-03-19T10:12:04.138Z</time>
      </trkpt>
      <trkpt lat="43.65073" lon="5.78301">
        <ele>404</ele>
        <time>2016-03-19T10:12:07.165Z</time>
      </trkpt>
      <trkpt lat="43.65076" lon="5.783">
        <ele>404</ele>
        <time>2016-03-19T10:12:08.135Z</time>
      </trkpt>
      <trkpt lat="43.65084" lon="5.78296">
        <ele>404</ele>
        <time>2016-03-19T10:12:11.162Z</time>
      </trkpt>
      <trkpt lat="43.65086" lon="5.78295">
        <ele>404</ele>
        <time>2016-03-19T10:12:12.143Z</time>
      </trkpt>
      <trkpt lat="43.65094" lon="5.78291">
        <ele>405</ele>
        <time>2016-03-19T10:12:15.162Z</time>
      </trkpt>
      <trkpt lat="43.65097" lon="5.7829">
        <ele>405</ele>
        <time>2016-03-19T10:12:16.137Z</time>
      </trkpt>
      <trkpt lat="43.65104" lon="5.78287">
        <ele>405</ele>
        <time>2016-03-19T10:12:19.162Z</time>
      </trkpt>
      <trkpt lat="43.65106" lon="5.78286">
        <ele>405</ele>
        <time>2016-03-19T10:12:20.137Z</time>
      </trkpt>
      <trkpt lat="43.65114" lon="5.78282">
        <ele>405</ele>
        <time>2016-03-19T10:12:23.191Z</time>
      </trkpt>
      <trkpt lat="43.65117" lon="5.78281">
        <ele>405</ele>
        <time>2016-03-19T10:12:24.137Z</time>
      </trkpt>
      <trkpt lat="43.65124" lon="5.78278">
        <ele>404</ele>
        <time>2016-03-19T10:12:27.155Z</time>
      </trkpt>
      <trkpt lat="43.65127" lon="5.78277">
        <ele>404</ele>
        <time>2016-03-19T10:12:28.132Z</time>
      </trkpt>
      <trkpt lat="43.65134" lon="5.78276">
        <ele>405</ele>
        <time>2016-03-19T10:12:31.163Z</time>
      </trkpt>
      <trkpt lat="43.65137" lon="5.78275">
        <ele>405</ele>
        <time>2016-03-19T10:12:32.137Z</time>
      </trkpt>
      <trkpt lat="43.65144" lon="5.78274">
        <ele>406</ele>
        <time>2016-03-19T10:12:35.157Z</time>
      </trkpt>
      <trkpt lat="43.65147" lon="5.78273">
        <ele>405</ele>
        <time>2016-03-19T10:12:36.136Z</time>
      </trkpt>
      <trkpt lat="43.65154" lon="5.78273">
        <ele>406</ele>
        <time>2016-03-19T10:12:39.164Z</time>
      </trkpt>
      <trkpt lat="43.65156" lon="5.78273">
        <ele>406</ele>
        <time>2016-03-19T10:12:40.127Z</time>
      </trkpt>
      <trkpt lat="43.65163" lon="5.78273">
        <ele>406</ele>
        <time>2016-03-19T10:12:43.158Z</time>
      </trkpt>
      <trkpt lat="43.65166" lon="5.78273">
        <ele>406</ele>
        <time>2016-03-19T10:12:44.135Z</time>
      </trkpt>
      <trkpt lat="43.65173" lon="5.78271">
        <ele>405</ele>
        <time>2016-03-19T10:12:47.147Z</time>
      </trkpt>
      <trkpt lat="43.65176" lon="5.78272">
        <ele>406</ele>
        <time>2016-03-19T10:12:48.132Z</time>
      </trkpt>
      <trkpt lat="43.65179" lon="5.78281">
        <ele>408</ele>
        <time>2016-03-19T10:12:52.154Z</time>
      </trkpt>
      <trkpt lat="43.65179" lon="5.78284">
        <ele>408</ele>
        <time>2016-03-19T10:12:53.138Z</time>
      </trkpt>
      <trkpt lat="43.65183" lon="5.78294">
        <ele>409</ele>
        <time>2016-03-19T10:12:57.163Z</time>
      </trkpt>
      <trkpt lat="43.65184" lon="5.78296">
        <ele>410</ele>
        <time>2016-03-19T10:12:58.138Z</time>
      </trkpt>
      <trkpt lat="43.65191" lon="5.783">
        <ele>410</ele>
        <time>2016-03-19T10:13:01.163Z</time>
      </trkpt>
      <trkpt lat="43.65193" lon="5.78302">
        <ele>410</ele>
        <time>2016-03-19T10:13:02.166Z</time>
      </trkpt>
      <trkpt lat="43.652" lon="5.78309">
        <ele>410</ele>
        <time>2016-03-19T10:13:05.165Z</time>
      </trkpt>
      <trkpt lat="43.65202" lon="5.78312">
        <ele>410</ele>
        <time>2016-03-19T10:13:06.133Z</time>
      </trkpt>
      <trkpt lat="43.65207" lon="5.78319">
        <ele>410</ele>
        <time>2016-03-19T10:13:09.164Z</time>
      </trkpt>
      <trkpt lat="43.65209" lon="5.78321">
        <ele>410</ele>
        <time>2016-03-19T10:13:10.139Z</time>
      </trkpt>
      <trkpt lat="43.65215" lon="5.78329">
        <ele>411</ele>
        <time>2016-03-19T10:13:14.164Z</time>
      </trkpt>
      <trkpt lat="43.65216" lon="5.78331">
        <ele>411</ele>
        <time>2016-03-19T10:13:15.136Z</time>
      </trkpt>
      <trkpt lat="43.65222" lon="5.78339">
        <ele>412</ele>
        <time>2016-03-19T10:13:20.193Z</time>
      </trkpt>
      <trkpt lat="43.65223" lon="5.7834">
        <ele>412</ele>
        <time>2016-03-19T10:13:21.139Z</time>
      </trkpt>
      <trkpt lat="43.65229" lon="5.78346">
        <ele>413</ele>
        <time>2016-03-19T10:13:26.165Z</time>
      </trkpt>
      <trkpt lat="43.65231" lon="5.78346">
        <ele>413</ele>
        <time>2016-03-19T10:13:27.138Z</time>
      </trkpt>
      <trkpt lat="43.65238" lon="5.7835">
        <ele>415</ele>
        <time>2016-03-19T10:13:33.163Z</time>
      </trkpt>
      <trkpt lat="43.65239" lon="5.78352">
        <ele>415</ele>
        <time>2016-03-19T10:13:34.136Z</time>
      </trkpt>
      <trkpt lat="43.65243" lon="5.78362">
        <ele>417</ele>
        <time>2016-03-19T10:13:40.191Z</time>
      </trkpt>
      <trkpt lat="43.65243" lon="5.78363">
        <ele>417</ele>
        <time>2016-03-19T10:13:41.138Z</time>
      </trkpt>
      <trkpt lat="43.65247" lon="5.78374">
        <ele>420</ele>
        <time>2016-03-19T10:13:48.164Z</time>
      </trkpt>
      <trkpt lat="43.65247" lon="5.78376">
        <ele>420</ele>
        <time>2016-03-19T10:13:49.138Z</time>
      </trkpt>
      <trkpt lat="43.65248" lon="5.78387">
        <ele>423</ele>
        <time>2016-03-19T10:13:55.220Z</time>
      </trkpt>
      <trkpt lat="43.65248" lon="5.78389">
        <ele>423</ele>
        <time>2016-03-19T10:13:56.165Z</time>
      </trkpt>
      <trkpt lat="43.65247" lon="5.784">
        <ele>423</ele>
        <time>2016-03-19T10:14:02.169Z</time>
      </trkpt>
      <trkpt lat="43.65247" lon="5.78402">
        <ele>423</ele>
        <time>2016-03-19T10:14:03.138Z</time>
      </trkpt>
      <trkpt lat="43.65246" lon="5.78413">
        <ele>425</ele>
        <time>2016-03-19T10:14:09.163Z</time>
      </trkpt>
      <trkpt lat="43.65246" lon="5.78415">
        <ele>425</ele>
        <time>2016-03-19T10:14:10.128Z</time>
      </trkpt>
      <trkpt lat="43.65248" lon="5.78425">
        <ele>426</ele>
        <time>2016-03-19T10:14:16.175Z</time>
      </trkpt>
      <trkpt lat="43.65248" lon="5.78427">
        <ele>427</ele>
        <time>2016-03-19T10:14:17.140Z</time>
      </trkpt>
      <trkpt lat="43.65249" lon="5.78438">
        <ele>428</ele>
        <time>2016-03-19T10:14:23.186Z</time>
      </trkpt>
      <trkpt lat="43.65248" lon="5.7844">
        <ele>427</ele>
        <time>2016-03-19T10:14:24.140Z</time>
      </trkpt>
      <trkpt lat="43.6525" lon="5.78451">
        <ele>429</ele>
        <time>2016-03-19T10:14:30.163Z</time>
      </trkpt>
      <trkpt lat="43.6525" lon="5.78452">
        <ele>429</ele>
        <time>2016-03-19T10:14:31.137Z</time>
      </trkpt>
      <trkpt lat="43.65257" lon="5.7846">
        <ele>430</ele>
        <time>2016-03-19T10:14:37.167Z</time>
      </trkpt>
      <trkpt lat="43.65258" lon="5.78461">
        <ele>431</ele>
        <time>2016-03-19T10:14:38.139Z</time>
      </trkpt>
      <trkpt lat="43.65266" lon="5.78466">
        <ele>432</ele>
        <time>2016-03-19T10:14:44.163Z</time>
      </trkpt>
      <trkpt lat="43.65267" lon="5.78468">
        <ele>432</ele>
        <time>2016-03-19T10:14:45.134Z</time>
      </trkpt>
      <trkpt lat="43.65274" lon="5.78474">
        <ele>433</ele>
        <time>2016-03-19T10:14:51.166Z</time>
      </trkpt>
      <trkpt lat="43.65275" lon="5.78475">
        <ele>433</ele>
        <time>2016-03-19T10:14:52.136Z</time>
      </trkpt>
      <trkpt lat="43.65281" lon="5.78481">
        <ele>434</ele>
        <time>2016-03-19T10:14:58.162Z</time>
      </trkpt>
      <trkpt lat="43.65282" lon="5.78482">
        <ele>434</ele>
        <time>2016-03-19T10:14:59.137Z</time>
      </trkpt>
      <trkpt lat="43.65284" lon="5.78492">
        <ele>434</ele>
        <time>2016-03-19T10:15:33.164Z</time>
      </trkpt>
      <trkpt lat="43.65284" lon="5.78494">
        <ele>434</ele>
        <time>2016-03-19T10:15:34.138Z</time>
      </trkpt>
      <trkpt lat="43.65285" lon="5.78505">
        <ele>434</ele>
        <time>2016-03-19T10:15:38.181Z</time>
      </trkpt>
      <trkpt lat="43.65285" lon="5.78508">
        <ele>434</ele>
        <time>2016-03-19T10:15:39.138Z</time>
      </trkpt>
      <trkpt lat="43.65282" lon="5.78517">
        <ele>434</ele>
        <time>2016-03-19T10:15:43.195Z</time>
      </trkpt>
      <trkpt lat="43.65281" lon="5.7852">
        <ele>434</ele>
        <time>2016-03-19T10:15:44.134Z</time>
      </trkpt>
      <trkpt lat="43.6528" lon="5.78532">
        <ele>434</ele>
        <time>2016-03-19T10:15:48.162Z</time>
      </trkpt>
      <trkpt lat="43.6528" lon="5.78535">
        <ele>434</ele>
        <time>2016-03-19T10:15:49.138Z</time>
      </trkpt>
      <trkpt lat="43.6528" lon="5.78547">
        <ele>434</ele>
        <time>2016-03-19T10:15:53.153Z</time>
      </trkpt>
      <trkpt lat="43.6528" lon="5.7855">
        <ele>434</ele>
        <time>2016-03-19T10:15:54.164Z</time>
      </trkpt>
      <trkpt lat="43.65281" lon="5.78561">
        <ele>434</ele>
        <time>2016-03-19T10:15:57.159Z</time>
      </trkpt>
      <trkpt lat="43.65281" lon="5.78565">
        <ele>434</ele>
        <time>2016-03-19T10:15:58.137Z</time>
      </trkpt>
      <trkpt lat="43.65281" lon="5.78576">
        <ele>435</ele>
        <time>2016-03-19T10:16:01.164Z</time>
      </trkpt>
      <trkpt lat="43.6528" lon="5.7858">
        <ele>435</ele>
        <time>2016-03-19T10:16:02.134Z</time>
      </trkpt>
      <trkpt lat="43.6528" lon="5.78591">
        <ele>433</ele>
        <time>2016-03-19T10:16:05.159Z</time>
      </trkpt>
      <trkpt lat="43.6528" lon="5.78595">
        <ele>433</ele>
        <time>2016-03-19T10:16:06.137Z</time>
      </trkpt>
      <trkpt lat="43.65281" lon="5.78607">
        <ele>433</ele>
        <time>2016-03-19T10:16:09.162Z</time>
      </trkpt>
      <trkpt lat="43.65281" lon="5.78611">
        <ele>434</ele>
        <time>2016-03-19T10:16:10.133Z</time>
      </trkpt>
      <trkpt lat="43.65281" lon="5.78622">
        <ele>434</ele>
        <time>2016-03-19T10:16:13.163Z</time>
      </trkpt>
      <trkpt lat="43.65281" lon="5.78625">
        <ele>435</ele>
        <time>2016-03-19T10:16:14.133Z</time>
      </trkpt>
      <trkpt lat="43.65282" lon="5.78636">
        <ele>435</ele>
        <time>2016-03-19T10:16:17.161Z</time>
      </trkpt>
      <trkpt lat="43.65282" lon="5.78639">
        <ele>434</ele>
        <time>2016-03-19T10:16:18.134Z</time>
      </trkpt>
      <trkpt lat="43.65285" lon="5.7865">
        <ele>435</ele>
        <time>2016-03-19T10:16:22.163Z</time>
      </trkpt>
      <trkpt lat="43.65286" lon="5.78653">
        <ele>435</ele>
        <time>2016-03-19T10:16:23.137Z</time>
      </trkpt>
      <trkpt lat="43.65288" lon="5.78661">
        <ele>437</ele>
        <time>2016-03-19T10:16:26.159Z</time>
      </trkpt>
      <trkpt lat="43.65289" lon="5.78664">
        <ele>437</ele>
        <time>2016-03-19T10:16:27.132Z</time>
      </trkpt>
      <trkpt lat="43.65292" lon="5.78676">
        <ele>438</ele>
        <time>2016-03-19T10:16:31.194Z</time>
      </trkpt>
      <trkpt lat="43.65293" lon="5.78679">
        <ele>437</ele>
        <time>2016-03-19T10:16:32.134Z</time>
      </trkpt>
      <trkpt lat="43.65297" lon="5.78686">
        <ele>436</ele>
        <time>2016-03-19T10:16:35.160Z</time>
      </trkpt>
      <trkpt lat="43.65299" lon="5.78688">
        <ele>437</ele>
        <time>2016-03-19T10:16:36.138Z</time>
      </trkpt>
      <trkpt lat="43.65303" lon="5.78696">
        <ele>437</ele>
        <time>2016-03-19T10:16:39.168Z</time>
      </trkpt>
      <trkpt lat="43.65303" lon="5.787">
        <ele>437</ele>
        <time>2016-03-19T10:16:40.139Z</time>
      </trkpt>
      <trkpt lat="43.65302" lon="5.78711">
        <ele>438</ele>
        <time>2016-03-19T10:16:45.163Z</time>
      </trkpt>
      <trkpt lat="43.65302" lon="5.78713">
        <ele>438</ele>
        <time>2016-03-19T10:16:46.138Z</time>
      </trkpt>
      <trkpt lat="43.65301" lon="5.78725">
        <ele>439</ele>
        <time>2016-03-19T10:16:51.159Z</time>
      </trkpt>
      <trkpt lat="43.65301" lon="5.78728">
        <ele>439</ele>
        <time>2016-03-19T10:16:52.134Z</time>
      </trkpt>
      <trkpt lat="43.65301" lon="5.78738">
        <ele>440</ele>
        <time>2016-03-19T10:16:55.164Z</time>
      </trkpt>
      <trkpt lat="43.65301" lon="5.78741">
        <ele>439</ele>
        <time>2016-03-19T10:16:56.133Z</time>
      </trkpt>
      <trkpt lat="43.65299" lon="5.78751">
        <ele>439</ele>
        <time>2016-03-19T10:16:59.165Z</time>
      </trkpt>
      <trkpt lat="43.65299" lon="5.78754">
        <ele>440</ele>
        <time>2016-03-19T10:17:00.137Z</time>
      </trkpt>
      <trkpt lat="43.65298" lon="5.78764">
        <ele>439</ele>
        <time>2016-03-19T10:17:03.163Z</time>
      </trkpt>
      <trkpt lat="43.65298" lon="5.78768">
        <ele>439</ele>
        <time>2016-03-19T10:17:04.139Z</time>
      </trkpt>
      <trkpt lat="43.65297" lon="5.7878">
        <ele>438</ele>
        <time>2016-03-19T10:17:07.164Z</time>
      </trkpt>
      <trkpt lat="43.65297" lon="5.78784">
        <ele>439</ele>
        <time>2016-03-19T10:17:08.138Z</time>
      </trkpt>
      <trkpt lat="43.65297" lon="5.78795">
        <ele>439</ele>
        <time>2016-03-19T10:17:11.166Z</time>
      </trkpt>
      <trkpt lat="43.65297" lon="5.78799">
        <ele>439</ele>
        <time>2016-03-19T10:17:12.139Z</time>
      </trkpt>
      <trkpt lat="43.65298" lon="5.78811">
        <ele>439</ele>
        <time>2016-03-19T10:17:15.164Z</time>
      </trkpt>
      <trkpt lat="43.65299" lon="5.78814">
        <ele>439</ele>
        <time>2016-03-19T10:17:16.139Z</time>
      </trkpt>
      <trkpt lat="43.65303" lon="5.78824">
        <ele>440</ele>
        <time>2016-03-19T10:17:19.458Z</time>
      </trkpt>
      <trkpt lat="43.65306" lon="5.78826">
        <ele>441</ele>
        <time>2016-03-19T10:17:20.137Z</time>
      </trkpt>
      <trkpt lat="43.65311" lon="5.78833">
        <ele>441</ele>
        <time>2016-03-19T10:17:23.162Z</time>
      </trkpt>
      <trkpt lat="43.65313" lon="5.78836">
        <ele>441</ele>
        <time>2016-03-19T10:17:24.138Z</time>
      </trkpt>
      <trkpt lat="43.65317" lon="5.78845">
        <ele>441</ele>
        <time>2016-03-19T10:17:27.164Z</time>
      </trkpt>
      <trkpt lat="43.65318" lon="5.78848">
        <ele>442</ele>
        <time>2016-03-19T10:17:28.138Z</time>
      </trkpt>
      <trkpt lat="43.65323" lon="5.78856">
        <ele>441</ele>
        <time>2016-03-19T10:17:31.162Z</time>
      </trkpt>
      <trkpt lat="43.65324" lon="5.78858">
        <ele>442</ele>
        <time>2016-03-19T10:17:32.137Z</time>
      </trkpt>
      <trkpt lat="43.65329" lon="5.78866">
        <ele>441</ele>
        <time>2016-03-19T10:17:35.152Z</time>
      </trkpt>
      <trkpt lat="43.65331" lon="5.78868">
        <ele>441</ele>
        <time>2016-03-19T10:17:36.138Z</time>
      </trkpt>
      <trkpt lat="43.65336" lon="5.78875">
        <ele>441</ele>
        <time>2016-03-19T10:17:39.160Z</time>
      </trkpt>
      <trkpt lat="43.65337" lon="5.78878">
        <ele>441</ele>
        <time>2016-03-19T10:17:40.138Z</time>
      </trkpt>
      <trkpt lat="43.65342" lon="5.78888">
        <ele>441</ele>
        <time>2016-03-19T10:17:44.165Z</time>
      </trkpt>
      <trkpt lat="43.65342" lon="5.78891">
        <ele>441</ele>
        <time>2016-03-19T10:17:45.161Z</time>
      </trkpt>
      <trkpt lat="43.65344" lon="5.78903">
        <ele>441</ele>
        <time>2016-03-19T10:17:49.161Z</time>
      </trkpt>
      <trkpt lat="43.65344" lon="5.78905">
        <ele>442</ele>
        <time>2016-03-19T10:17:50.139Z</time>
      </trkpt>
      <trkpt lat="43.65349" lon="5.78913">
        <ele>443</ele>
        <time>2016-03-19T10:17:55.163Z</time>
      </trkpt>
      <trkpt lat="43.65351" lon="5.78913">
        <ele>443</ele>
        <time>2016-03-19T10:17:56.359Z</time>
      </trkpt>
      <trkpt lat="43.65358" lon="5.78918">
        <ele>443</ele>
        <time>2016-03-19T10:18:00.164Z</time>
      </trkpt>
      <trkpt lat="43.65359" lon="5.7892">
        <ele>444</ele>
        <time>2016-03-19T10:18:01.134Z</time>
      </trkpt>
      <trkpt lat="43.65362" lon="5.7893">
        <ele>444</ele>
        <time>2016-03-19T10:18:05.158Z</time>
      </trkpt>
      <trkpt lat="43.65363" lon="5.78933">
        <ele>444</ele>
        <time>2016-03-19T10:18:06.137Z</time>
      </trkpt>
      <trkpt lat="43.65364" lon="5.78945">
        <ele>444</ele>
        <time>2016-03-19T10:18:10.163Z</time>
      </trkpt>
      <trkpt lat="43.65364" lon="5.78948">
        <ele>443</ele>
        <time>2016-03-19T10:18:11.138Z</time>
      </trkpt>
      <trkpt lat="43.65365" lon="5.7896">
        <ele>444</ele>
        <time>2016-03-19T10:18:15.164Z</time>
      </trkpt>
      <trkpt lat="43.65365" lon="5.78963">
        <ele>444</ele>
        <time>2016-03-19T10:18:16.140Z</time>
      </trkpt>
      <trkpt lat="43.65365" lon="5.78975">
        <ele>445</ele>
        <time>2016-03-19T10:18:20.162Z</time>
      </trkpt>
      <trkpt lat="43.65365" lon="5.78978">
        <ele>444</ele>
        <time>2016-03-19T10:18:21.137Z</time>
      </trkpt>
      <trkpt lat="43.65366" lon="5.7899">
        <ele>444</ele>
        <time>2016-03-19T10:18:25.160Z</time>
      </trkpt>
      <trkpt lat="43.65367" lon="5.78992">
        <ele>444</ele>
        <time>2016-03-19T10:18:26.162Z</time>
      </trkpt>
      <trkpt lat="43.65371" lon="5.79002">
        <ele>445</ele>
        <time>2016-03-19T10:18:30.164Z</time>
      </trkpt>
      <trkpt lat="43.65372" lon="5.79005">
        <ele>445</ele>
        <time>2016-03-19T10:18:31.140Z</time>
      </trkpt>
      <trkpt lat="43.65374" lon="5.79016">
        <ele>445</ele>
        <time>2016-03-19T10:18:35.167Z</time>
      </trkpt>
      <trkpt lat="43.65374" lon="5.79018">
        <ele>446</ele>
        <time>2016-03-19T10:18:36.135Z</time>
      </trkpt>
      <trkpt lat="43.65377" lon="5.79029">
        <ele>446</ele>
        <time>2016-03-19T10:18:40.152Z</time>
      </trkpt>
      <trkpt lat="43.65377" lon="5.79032">
        <ele>446</ele>
        <time>2016-03-19T10:18:41.138Z</time>
      </trkpt>
      <trkpt lat="43.6538" lon="5.7904">
        <ele>446</ele>
        <time>2016-03-19T10:18:44.168Z</time>
      </trkpt>
      <trkpt lat="43.65381" lon="5.79043">
        <ele>447</ele>
        <time>2016-03-19T10:18:45.134Z</time>
      </trkpt>
      <trkpt lat="43.65385" lon="5.79054">
        <ele>447</ele>
        <time>2016-03-19T10:18:49.165Z</time>
      </trkpt>
      <trkpt lat="43.65386" lon="5.79056">
        <ele>447</ele>
        <time>2016-03-19T10:18:50.137Z</time>
      </trkpt>
      <trkpt lat="43.65391" lon="5.79065">
        <ele>448</ele>
        <time>2016-03-19T10:18:54.165Z</time>
      </trkpt>
      <trkpt lat="43.65392" lon="5.79067">
        <ele>448</ele>
        <time>2016-03-19T10:18:55.167Z</time>
      </trkpt>
      <trkpt lat="43.65396" lon="5.79075">
        <ele>449</ele>
        <time>2016-03-19T10:18:58.167Z</time>
      </trkpt>
      <trkpt lat="43.65397" lon="5.79078">
        <ele>449</ele>
        <time>2016-03-19T10:18:59.137Z</time>
      </trkpt>
      <trkpt lat="43.654" lon="5.79089">
        <ele>449</ele>
        <time>2016-03-19T10:19:03.165Z</time>
      </trkpt>
      <trkpt lat="43.654" lon="5.79092">
        <ele>449</ele>
        <time>2016-03-19T10:19:04.136Z</time>
      </trkpt>
      <trkpt lat="43.65401" lon="5.79104">
        <ele>450</ele>
        <time>2016-03-19T10:19:09.164Z</time>
      </trkpt>
      <trkpt lat="43.65401" lon="5.79106">
        <ele>450</ele>
        <time>2016-03-19T10:19:10.133Z</time>
      </trkpt>
      <trkpt lat="43.65402" lon="5.79118">
        <ele>450</ele>
        <time>2016-03-19T10:19:14.167Z</time>
      </trkpt>
      <trkpt lat="43.65403" lon="5.79121">
        <ele>451</ele>
        <time>2016-03-19T10:19:15.137Z</time>
      </trkpt>
      <trkpt lat="43.65404" lon="5.79133">
        <ele>451</ele>
        <time>2016-03-19T10:19:19.163Z</time>
      </trkpt>
      <trkpt lat="43.65404" lon="5.79136">
        <ele>451</ele>
        <time>2016-03-19T10:19:20.141Z</time>
      </trkpt>
      <trkpt lat="43.65405" lon="5.79148">
        <ele>452</ele>
        <time>2016-03-19T10:19:24.164Z</time>
      </trkpt>
      <trkpt lat="43.65406" lon="5.79151">
        <ele>452</ele>
        <time>2016-03-19T10:19:25.139Z</time>
      </trkpt>
      <trkpt lat="43.65406" lon="5.79163">
        <ele>452</ele>
        <time>2016-03-19T10:19:29.169Z</time>
      </trkpt>
      <trkpt lat="43.65407" lon="5.79166">
        <ele>452</ele>
        <time>2016-03-19T10:19:30.134Z</time>
      </trkpt>
      <trkpt lat="43.65408" lon="5.79178">
        <ele>453</ele>
        <time>2016-03-19T10:19:34.157Z</time>
      </trkpt>
      <trkpt lat="43.65409" lon="5.79181">
        <ele>452</ele>
        <time>2016-03-19T10:19:35.138Z</time>
      </trkpt>
      <trkpt lat="43.65411" lon="5.7919">
        <ele>453</ele>
        <time>2016-03-19T10:19:38.170Z</time>
      </trkpt>
      <trkpt lat="43.65412" lon="5.79193">
        <ele>453</ele>
        <time>2016-03-19T10:19:39.139Z</time>
      </trkpt>
      <trkpt lat="43.65414" lon="5.79203">
        <ele>454</ele>
        <time>2016-03-19T10:19:42.165Z</time>
      </trkpt>
      <trkpt lat="43.65414" lon="5.79206">
        <ele>453</ele>
        <time>2016-03-19T10:19:43.138Z</time>
      </trkpt>
      <trkpt lat="43.65416" lon="5.79215">
        <ele>453</ele>
        <time>2016-03-19T10:19:46.165Z</time>
      </trkpt>
      <trkpt lat="43.65417" lon="5.79218">
        <ele>453</ele>
        <time>2016-03-19T10:19:47.141Z</time>
      </trkpt>
      <trkpt lat="43.65418" lon="5.79228">
        <ele>454</ele>
        <time>2016-03-19T10:19:50.162Z</time>
      </trkpt>
      <trkpt lat="43.65418" lon="5.79231">
        <ele>454</ele>
        <time>2016-03-19T10:19:51.139Z</time>
      </trkpt>
      <trkpt lat="43.65418" lon="5.79241">
        <ele>454</ele>
        <time>2016-03-19T10:19:54.164Z</time>
      </trkpt>
      <trkpt lat="43.65418" lon="5.79244">
        <ele>454</ele>
        <time>2016-03-19T10:19:55.138Z</time>
      </trkpt>
      <trkpt lat="43.65418" lon="5.79256">
        <ele>454</ele>
        <time>2016-03-19T10:19:59.193Z</time>
      </trkpt>
      <trkpt lat="43.65418" lon="5.79259">
        <ele>455</ele>
        <time>2016-03-19T10:20:00.138Z</time>
      </trkpt>
      <trkpt lat="43.65417" lon="5.7927">
        <ele>455</ele>
        <time>2016-03-19T10:20:04.162Z</time>
      </trkpt>
      <trkpt lat="43.65417" lon="5.79273">
        <ele>455</ele>
        <time>2016-03-19T10:20:05.138Z</time>
      </trkpt>
      <trkpt lat="43.65417" lon="5.79284">
        <ele>455</ele>
        <time>2016-03-19T10:20:09.160Z</time>
      </trkpt>
      <trkpt lat="43.65417" lon="5.79287">
        <ele>455</ele>
        <time>2016-03-19T10:20:10.139Z</time>
      </trkpt>
      <trkpt lat="43.65416" lon="5.79299">
        <ele>456</ele>
        <time>2016-03-19T10:20:14.163Z</time>
      </trkpt>
      <trkpt lat="43.65416" lon="5.79302">
        <ele>456</ele>
        <time>2016-03-19T10:20:15.157Z</time>
      </trkpt>
      <trkpt lat="43.65414" lon="5.79313">
        <ele>456</ele>
        <time>2016-03-19T10:20:19.164Z</time>
      </trkpt>
      <trkpt lat="43.65413" lon="5.79316">
        <ele>456</ele>
        <time>2016-03-19T10:20:20.138Z</time>
      </trkpt>
      <trkpt lat="43.65413" lon="5.79329">
        <ele>457</ele>
        <time>2016-03-19T10:20:25.161Z</time>
      </trkpt>
      <trkpt lat="43.65413" lon="5.79331">
        <ele>457</ele>
        <time>2016-03-19T10:20:26.133Z</time>
      </trkpt>
      <trkpt lat="43.65412" lon="5.79342">
        <ele>457</ele>
        <time>2016-03-19T10:20:30.160Z</time>
      </trkpt>
      <trkpt lat="43.65411" lon="5.79345">
        <ele>458</ele>
        <time>2016-03-19T10:20:31.138Z</time>
      </trkpt>
      <trkpt lat="43.6541" lon="5.79356">
        <ele>457</ele>
        <time>2016-03-19T10:20:35.165Z</time>
      </trkpt>
      <trkpt lat="43.6541" lon="5.79358">
        <ele>458</ele>
        <time>2016-03-19T10:20:36.137Z</time>
      </trkpt>
      <trkpt lat="43.65409" lon="5.7937">
        <ele>458</ele>
        <time>2016-03-19T10:20:41.422Z</time>
      </trkpt>
      <trkpt lat="43.65409" lon="5.79372">
        <ele>458</ele>
        <time>2016-03-19T10:20:42.140Z</time>
      </trkpt>
      <trkpt lat="43.65407" lon="5.79383">
        <ele>457</ele>
        <time>2016-03-19T10:20:47.168Z</time>
      </trkpt>
      <trkpt lat="43.65407" lon="5.79387">
        <ele>458</ele>
        <time>2016-03-19T10:20:48.127Z</time>
      </trkpt>
      <trkpt lat="43.65404" lon="5.79398">
        <ele>458</ele>
        <time>2016-03-19T10:20:52.201Z</time>
      </trkpt>
      <trkpt lat="43.65403" lon="5.79401">
        <ele>458</ele>
        <time>2016-03-19T10:20:53.133Z</time>
      </trkpt>
      <trkpt lat="43.65399" lon="5.79411">
        <ele>458</ele>
        <time>2016-03-19T10:20:57.166Z</time>
      </trkpt>
      <trkpt lat="43.65398" lon="5.79415">
        <ele>458</ele>
        <time>2016-03-19T10:20:58.134Z</time>
      </trkpt>
      <trkpt lat="43.65397" lon="5.79427">
        <ele>457</ele>
        <time>2016-03-19T10:21:01.158Z</time>
      </trkpt>
      <trkpt lat="43.65397" lon="5.79431">
        <ele>456</ele>
        <time>2016-03-19T10:21:02.133Z</time>
      </trkpt>
      <trkpt lat="43.65398" lon="5.79439">
        <ele>455</ele>
        <time>2016-03-19T10:21:04.165Z</time>
      </trkpt>
      <trkpt lat="43.65398" lon="5.79443">
        <ele>455</ele>
        <time>2016-03-19T10:21:05.138Z</time>
      </trkpt>
      <trkpt lat="43.65397" lon="5.79454">
        <ele>454</ele>
        <time>2016-03-19T10:21:07.164Z</time>
      </trkpt>
      <trkpt lat="43.65397" lon="5.7946">
        <ele>454</ele>
        <time>2016-03-19T10:21:08.139Z</time>
      </trkpt>
      <trkpt lat="43.65397" lon="5.79467">
        <ele>454</ele>
        <time>2016-03-19T10:21:09.167Z</time>
      </trkpt>
      <trkpt lat="43.654" lon="5.79476">
        <ele>453</ele>
        <time>2016-03-19T10:21:10.132Z</time>
      </trkpt>
      <trkpt lat="43.65403" lon="5.79483">
        <ele>453</ele>
        <time>2016-03-19T10:21:11.166Z</time>
      </trkpt>
      <trkpt lat="43.65408" lon="5.7949">
        <ele>451</ele>
        <time>2016-03-19T10:21:12.138Z</time>
      </trkpt>
      <trkpt lat="43.65411" lon="5.79501">
        <ele>451</ele>
        <time>2016-03-19T10:21:14.167Z</time>
      </trkpt>
      <trkpt lat="43.65411" lon="5.79507">
        <ele>450</ele>
        <time>2016-03-19T10:21:15.139Z</time>
      </trkpt>
      <trkpt lat="43.65409" lon="5.79513">
        <ele>451</ele>
        <time>2016-03-19T10:21:16.377Z</time>
      </trkpt>
      <trkpt lat="43.65407" lon="5.7952">
        <ele>451</ele>
        <time>2016-03-19T10:21:17.133Z</time>
      </trkpt>
      <trkpt lat="43.65405" lon="5.79526">
        <ele>450</ele>
        <time>2016-03-19T10:21:18.165Z</time>
      </trkpt>
      <trkpt lat="43.65403" lon="5.79532">
        <ele>450</ele>
        <time>2016-03-19T10:21:19.141Z</time>
      </trkpt>
      <trkpt lat="43.65409" lon="5.79541">
        <ele>450</ele>
        <time>2016-03-19T10:21:44.183Z</time>
      </trkpt>
      <trkpt lat="43.65411" lon="5.79539">
        <ele>450</ele>
        <time>2016-03-19T10:21:45.139Z</time>
      </trkpt>
      <trkpt lat="43.65418" lon="5.79536">
        <ele>450</ele>
        <time>2016-03-19T10:21:48.165Z</time>
      </trkpt>
      <trkpt lat="43.6542" lon="5.79535">
        <ele>450</ele>
        <time>2016-03-19T10:21:49.127Z</time>
      </trkpt>
      <trkpt lat="43.65426" lon="5.79534">
        <ele>449</ele>
        <time>2016-03-19T10:21:51.158Z</time>
      </trkpt>
      <trkpt lat="43.6543" lon="5.79533">
        <ele>449</ele>
        <time>2016-03-19T10:21:52.138Z</time>
      </trkpt>
      <trkpt lat="43.65437" lon="5.79531">
        <ele>448</ele>
        <time>2016-03-19T10:21:54.146Z</time>
      </trkpt>
      <trkpt lat="43.65441" lon="5.7953">
        <ele>448</ele>
        <time>2016-03-19T10:21:55.139Z</time>
      </trkpt>
      <trkpt lat="43.6545" lon="5.79529">
        <ele>447</ele>
        <time>2016-03-19T10:21:57.162Z</time>
      </trkpt>
      <trkpt lat="43.65454" lon="5.79528">
        <ele>446</ele>
        <time>2016-03-19T10:21:58.137Z</time>
      </trkpt>
      <trkpt lat="43.65461" lon="5.79525">
        <ele>447</ele>
        <time>2016-03-19T10:22:00.164Z</time>
      </trkpt>
      <trkpt lat="43.65465" lon="5.79522">
        <ele>447</ele>
        <time>2016-03-19T10:22:01.138Z</time>
      </trkpt>
      <trkpt lat="43.65472" lon="5.79517">
        <ele>447</ele>
        <time>2016-03-19T10:22:03.163Z</time>
      </trkpt>
      <trkpt lat="43.65476" lon="5.79515">
        <ele>448</ele>
        <time>2016-03-19T10:22:04.140Z</time>
      </trkpt>
      <trkpt lat="43.65483" lon="5.7951">
        <ele>446</ele>
        <time>2016-03-19T10:22:06.163Z</time>
      </trkpt>
      <trkpt lat="43.65487" lon="5.79508">
        <ele>446</ele>
        <time>2016-03-19T10:22:07.139Z</time>
      </trkpt>
      <trkpt lat="43.65493" lon="5.79506">
        <ele>446</ele>
        <time>2016-03-19T10:22:09.210Z</time>
      </trkpt>
      <trkpt lat="43.65497" lon="5.79505">
        <ele>446</ele>
        <time>2016-03-19T10:22:10.139Z</time>
      </trkpt>
      <trkpt lat="43.65504" lon="5.79504">
        <ele>445</ele>
        <time>2016-03-19T10:22:13.211Z</time>
      </trkpt>
      <trkpt lat="43.65507" lon="5.79504">
        <ele>445</ele>
        <time>2016-03-19T10:22:14.135Z</time>
      </trkpt>
      <trkpt lat="43.65513" lon="5.79504">
        <ele>445</ele>
        <time>2016-03-19T10:22:16.151Z</time>
      </trkpt>
      <trkpt lat="43.65516" lon="5.79505">
        <ele>445</ele>
        <time>2016-03-19T10:22:17.132Z</time>
      </trkpt>
      <trkpt lat="43.65523" lon="5.79507">
        <ele>445</ele>
        <time>2016-03-19T10:22:19.158Z</time>
      </trkpt>
      <trkpt lat="43.65526" lon="5.79507">
        <ele>445</ele>
        <time>2016-03-19T10:22:20.138Z</time>
      </trkpt>
      <trkpt lat="43.65532" lon="5.79506">
        <ele>446</ele>
        <time>2016-03-19T10:22:22.162Z</time>
      </trkpt>
      <trkpt lat="43.65535" lon="5.79505">
        <ele>445</ele>
        <time>2016-03-19T10:22:23.139Z</time>
      </trkpt>
      <trkpt lat="43.6554" lon="5.79502">
        <ele>444</ele>
        <time>2016-03-19T10:22:25.150Z</time>
      </trkpt>
      <trkpt lat="43.65543" lon="5.79501">
        <ele>444</ele>
        <time>2016-03-19T10:22:26.139Z</time>
      </trkpt>
      <trkpt lat="43.65549" lon="5.79505">
        <ele>444</ele>
        <time>2016-03-19T10:22:28.170Z</time>
      </trkpt>
      <trkpt lat="43.65551" lon="5.79508">
        <ele>444</ele>
        <time>2016-03-19T10:22:29.139Z</time>
      </trkpt>
      <trkpt lat="43.65555" lon="5.79515">
        <ele>444</ele>
        <time>2016-03-19T10:22:31.164Z</time>
      </trkpt>
      <trkpt lat="43.65557" lon="5.79518">
        <ele>444</ele>
        <time>2016-03-19T10:22:32.137Z</time>
      </trkpt>
      <trkpt lat="43.65564" lon="5.7952">
        <ele>446</ele>
        <time>2016-03-19T10:22:35.164Z</time>
      </trkpt>
      <trkpt lat="43.65566" lon="5.79519">
        <ele>446</ele>
        <time>2016-03-19T10:22:36.139Z</time>
      </trkpt>
      <trkpt lat="43.65574" lon="5.79518">
        <ele>448</ele>
        <time>2016-03-19T10:22:40.163Z</time>
      </trkpt>
      <trkpt lat="43.65576" lon="5.79518">
        <ele>448</ele>
        <time>2016-03-19T10:22:41.138Z</time>
      </trkpt>
      <trkpt lat="43.65583" lon="5.79517">
        <ele>449</ele>
        <time>2016-03-19T10:22:45.159Z</time>
      </trkpt>
      <trkpt lat="43.65585" lon="5.79516">
        <ele>449</ele>
        <time>2016-03-19T10:22:46.359Z</time>
      </trkpt>
      <trkpt lat="43.65592" lon="5.79517">
        <ele>449</ele>
        <time>2016-03-19T10:22:50.177Z</time>
      </trkpt>
      <trkpt lat="43.65594" lon="5.79517">
        <ele>449</ele>
        <time>2016-03-19T10:22:51.138Z</time>
      </trkpt>
      <trkpt lat="43.65601" lon="5.79518">
        <ele>451</ele>
        <time>2016-03-19T10:22:55.153Z</time>
      </trkpt>
      <trkpt lat="43.65603" lon="5.79518">
        <ele>451</ele>
        <time>2016-03-19T10:22:56.139Z</time>
      </trkpt>
      <trkpt lat="43.6561" lon="5.79519">
        <ele>452</ele>
        <time>2016-03-19T10:23:00.145Z</time>
      </trkpt>
      <trkpt lat="43.65612" lon="5.79519">
        <ele>452</ele>
        <time>2016-03-19T10:23:01.134Z</time>
      </trkpt>
      <trkpt lat="43.65619" lon="5.79521">
        <ele>453</ele>
        <time>2016-03-19T10:23:05.153Z</time>
      </trkpt>
      <trkpt lat="43.65621" lon="5.79522">
        <ele>453</ele>
        <time>2016-03-19T10:23:06.161Z</time>
      </trkpt>
      <trkpt lat="43.65629" lon="5.79526">
        <ele>453</ele>
        <time>2016-03-19T10:23:11.164Z</time>
      </trkpt>
      <trkpt lat="43.65631" lon="5.79526">
        <ele>453</ele>
        <time>2016-03-19T10:23:12.129Z</time>
      </trkpt>
      <trkpt lat="43.65639" lon="5.7953">
        <ele>455</ele>
        <time>2016-03-19T10:23:17.190Z</time>
      </trkpt>
      <trkpt lat="43.65641" lon="5.7953">
        <ele>455</ele>
        <time>2016-03-19T10:23:18.139Z</time>
      </trkpt>
      <trkpt lat="43.65648" lon="5.79536">
        <ele>454</ele>
        <time>2016-03-19T10:25:31.187Z</time>
      </trkpt>
      <trkpt lat="43.6565" lon="5.79536">
        <ele>453</ele>
        <time>2016-03-19T10:25:32.137Z</time>
      </trkpt>
      <trkpt lat="43.65658" lon="5.79539">
        <ele>453</ele>
        <time>2016-03-19T10:25:36.164Z</time>
      </trkpt>
      <trkpt lat="43.65661" lon="5.7954">
        <ele>453</ele>
        <time>2016-03-19T10:25:37.133Z</time>
      </trkpt>
      <trkpt lat="43.65669" lon="5.79542">
        <ele>453</ele>
        <time>2016-03-19T10:25:40.166Z</time>
      </trkpt>
      <trkpt lat="43.65672" lon="5.79543">
        <ele>452</ele>
        <time>2016-03-19T10:25:41.140Z</time>
      </trkpt>
      <trkpt lat="43.6568" lon="5.79545">
        <ele>452</ele>
        <time>2016-03-19T10:25:44.166Z</time>
      </trkpt>
      <trkpt lat="43.65682" lon="5.79546">
        <ele>453</ele>
        <time>2016-03-19T10:25:45.140Z</time>
      </trkpt>
      <trkpt lat="43.6569" lon="5.7955">
        <ele>452</ele>
        <time>2016-03-19T10:25:48.163Z</time>
      </trkpt>
      <trkpt lat="43.65692" lon="5.79552">
        <ele>453</ele>
        <time>2016-03-19T10:25:49.140Z</time>
      </trkpt>
      <trkpt lat="43.657" lon="5.79557">
        <ele>452</ele>
        <time>2016-03-19T10:25:52.164Z</time>
      </trkpt>
      <trkpt lat="43.65703" lon="5.79558">
        <ele>452</ele>
        <time>2016-03-19T10:25:53.140Z</time>
      </trkpt>
      <trkpt lat="43.6571" lon="5.79565">
        <ele>452</ele>
        <time>2016-03-19T10:25:56.164Z</time>
      </trkpt>
      <trkpt lat="43.65713" lon="5.79567">
        <ele>452</ele>
        <time>2016-03-19T10:25:57.137Z</time>
      </trkpt>
      <trkpt lat="43.6572" lon="5.79571">
        <ele>453</ele>
        <time>2016-03-19T10:26:00.167Z</time>
      </trkpt>
      <trkpt lat="43.65722" lon="5.79573">
        <ele>453</ele>
        <time>2016-03-19T10:26:01.140Z</time>
      </trkpt>
      <trkpt lat="43.65727" lon="5.79579">
        <ele>453</ele>
        <time>2016-03-19T10:26:03.192Z</time>
      </trkpt>
      <trkpt lat="43.65729" lon="5.79582">
        <ele>453</ele>
        <time>2016-03-19T10:26:04.134Z</time>
      </trkpt>
      <trkpt lat="43.65734" lon="5.79589">
        <ele>453</ele>
        <time>2016-03-19T10:26:06.163Z</time>
      </trkpt>
      <trkpt lat="43.65737" lon="5.79592">
        <ele>453</ele>
        <time>2016-03-19T10:26:07.135Z</time>
      </trkpt>
      <trkpt lat="43.65744" lon="5.79596">
        <ele>453</ele>
        <time>2016-03-19T10:26:09.166Z</time>
      </trkpt>
      <trkpt lat="43.65748" lon="5.79597">
        <ele>453</ele>
        <time>2016-03-19T10:26:10.138Z</time>
      </trkpt>
      <trkpt lat="43.65755" lon="5.79601">
        <ele>452</ele>
        <time>2016-03-19T10:26:12.162Z</time>
      </trkpt>
      <trkpt lat="43.65759" lon="5.79604">
        <ele>453</ele>
        <time>2016-03-19T10:26:13.139Z</time>
      </trkpt>
      <trkpt lat="43.65765" lon="5.79612">
        <ele>454</ele>
        <time>2016-03-19T10:26:15.160Z</time>
      </trkpt>
      <trkpt lat="43.65766" lon="5.79618">
        <ele>453</ele>
        <time>2016-03-19T10:26:16.135Z</time>
      </trkpt>
      <trkpt lat="43.65765" lon="5.79627">
        <ele>454</ele>
        <time>2016-03-19T10:26:18.176Z</time>
      </trkpt>
      <trkpt lat="43.65764" lon="5.7963">
        <ele>454</ele>
        <time>2016-03-19T10:26:19.167Z</time>
      </trkpt>
      <trkpt lat="43.65765" lon="5.79639">
        <ele>454</ele>
        <time>2016-03-19T10:26:21.166Z</time>
      </trkpt>
      <trkpt lat="43.65766" lon="5.79643">
        <ele>453</ele>
        <time>2016-03-19T10:26:22.138Z</time>
      </trkpt>
      <trkpt lat="43.65768" lon="5.79651">
        <ele>453</ele>
        <time>2016-03-19T10:26:24.164Z</time>
      </trkpt>
      <trkpt lat="43.65769" lon="5.79655">
        <ele>453</ele>
        <time>2016-03-19T10:26:25.133Z</time>
      </trkpt>
      <trkpt lat="43.65772" lon="5.79664">
        <ele>454</ele>
        <time>2016-03-19T10:26:27.152Z</time>
      </trkpt>
      <trkpt lat="43.65774" lon="5.79668">
        <ele>454</ele>
        <time>2016-03-19T10:26:28.132Z</time>
      </trkpt>
      <trkpt lat="43.65777" lon="5.79676">
        <ele>454</ele>
        <time>2016-03-19T10:26:30.158Z</time>
      </trkpt>
      <trkpt lat="43.65778" lon="5.7968">
        <ele>454</ele>
        <time>2016-03-19T10:26:31.139Z</time>
      </trkpt>
      <trkpt lat="43.65781" lon="5.79689">
        <ele>455</ele>
        <time>2016-03-19T10:26:33.147Z</time>
      </trkpt>
      <trkpt lat="43.65782" lon="5.79693">
        <ele>454</ele>
        <time>2016-03-19T10:26:34.136Z</time>
      </trkpt>
      <trkpt lat="43.65784" lon="5.79703">
        <ele>454</ele>
        <time>2016-03-19T10:26:36.159Z</time>
      </trkpt>
      <trkpt lat="43.65785" lon="5.79709">
        <ele>455</ele>
        <time>2016-03-19T10:26:37.132Z</time>
      </trkpt>
      <trkpt lat="43.65787" lon="5.79719">
        <ele>454</ele>
        <time>2016-03-19T10:26:39.159Z</time>
      </trkpt>
      <trkpt lat="43.65788" lon="5.79724">
        <ele>454</ele>
        <time>2016-03-19T10:26:40.138Z</time>
      </trkpt>
      <trkpt lat="43.6579" lon="5.79734">
        <ele>454</ele>
        <time>2016-03-19T10:26:42.158Z</time>
      </trkpt>
      <trkpt lat="43.65792" lon="5.79738">
        <ele>453</ele>
        <time>2016-03-19T10:26:43.138Z</time>
      </trkpt>
      <trkpt lat="43.65797" lon="5.79746">
        <ele>452</ele>
        <time>2016-03-19T10:26:45.160Z</time>
      </trkpt>
      <trkpt lat="43.658" lon="5.79749">
        <ele>451</ele>
        <time>2016-03-19T10:26:46.132Z</time>
      </trkpt>
      <trkpt lat="43.65807" lon="5.79754">
        <ele>451</ele>
        <time>2016-03-19T10:26:48.144Z</time>
      </trkpt>
      <trkpt lat="43.6581" lon="5.79755">
        <ele>451</ele>
        <time>2016-03-19T10:26:49.134Z</time>
      </trkpt>
      <trkpt lat="43.65817" lon="5.79757">
        <ele>450</ele>
        <time>2016-03-19T10:26:51.183Z</time>
      </trkpt>
      <trkpt lat="43.6582" lon="5.79758">
        <ele>450</ele>
        <time>2016-03-19T10:26:52.137Z</time>
      </trkpt>
      <trkpt lat="43.65827" lon="5.79759">
        <ele>450</ele>
        <time>2016-03-19T10:26:54.157Z</time>
      </trkpt>
      <trkpt lat="43.6583" lon="5.79759">
        <ele>450</ele>
        <time>2016-03-19T10:26:55.138Z</time>
      </trkpt>
      <trkpt lat="43.65838" lon="5.79762">
        <ele>450</ele>
        <time>2016-03-19T10:26:58.159Z</time>
      </trkpt>
      <trkpt lat="43.65841" lon="5.79763">
        <ele>451</ele>
        <time>2016-03-19T10:26:59.138Z</time>
      </trkpt>
      <trkpt lat="43.65849" lon="5.79765">
        <ele>452</ele>
        <time>2016-03-19T10:27:02.347Z</time>
      </trkpt>
      <trkpt lat="43.65852" lon="5.79766">
        <ele>451</ele>
        <time>2016-03-19T10:27:03.138Z</time>
      </trkpt>
      <trkpt lat="43.6586" lon="5.79769">
        <ele>450</ele>
        <time>2016-03-19T10:27:06.158Z</time>
      </trkpt>
      <trkpt lat="43.65863" lon="5.79769">
        <ele>451</ele>
        <time>2016-03-19T10:27:07.155Z</time>
      </trkpt>
      <trkpt lat="43.6587" lon="5.79771">
        <ele>451</ele>
        <time>2016-03-19T10:27:10.150Z</time>
      </trkpt>
      <trkpt lat="43.65873" lon="5.79771">
        <ele>451</ele>
        <time>2016-03-19T10:27:11.134Z</time>
      </trkpt>
      <trkpt lat="43.65882" lon="5.79771">
        <ele>454</ele>
        <time>2016-03-19T10:27:15.159Z</time>
      </trkpt>
      <trkpt lat="43.65883" lon="5.7977">
        <ele>454</ele>
        <time>2016-03-19T10:27:16.138Z</time>
      </trkpt>
      <trkpt lat="43.6589" lon="5.79766">
        <ele>455</ele>
        <time>2016-03-19T10:27:20.159Z</time>
      </trkpt>
      <trkpt lat="43.65892" lon="5.79764">
        <ele>455</ele>
        <time>2016-03-19T10:27:21.135Z</time>
      </trkpt>
      <trkpt lat="43.65896" lon="5.79756">
        <ele>455</ele>
        <time>2016-03-19T10:27:24.158Z</time>
      </trkpt>
      <trkpt lat="43.65897" lon="5.79754">
        <ele>456</ele>
        <time>2016-03-19T10:27:25.135Z</time>
      </trkpt>
      <trkpt lat="43.65903" lon="5.79745">
        <ele>457</ele>
        <time>2016-03-19T10:27:29.161Z</time>
      </trkpt>
      <trkpt lat="43.65904" lon="5.79743">
        <ele>457</ele>
        <time>2016-03-19T10:27:30.137Z</time>
      </trkpt>
      <trkpt lat="43.65908" lon="5.79735">
        <ele>457</ele>
        <time>2016-03-19T10:27:33.150Z</time>
      </trkpt>
      <trkpt lat="43.65909" lon="5.79733">
        <ele>457</ele>
        <time>2016-03-19T10:27:34.134Z</time>
      </trkpt>
      <trkpt lat="43.65914" lon="5.79726">
        <ele>458</ele>
        <time>2016-03-19T10:27:37.161Z</time>
      </trkpt>
      <trkpt lat="43.65916" lon="5.79723">
        <ele>459</ele>
        <time>2016-03-19T10:27:38.137Z</time>
      </trkpt>
      <trkpt lat="43.65921" lon="5.79716">
        <ele>458</ele>
        <time>2016-03-19T10:27:41.158Z</time>
      </trkpt>
      <trkpt lat="43.65922" lon="5.79715">
        <ele>458</ele>
        <time>2016-03-19T10:27:42.137Z</time>
      </trkpt>
      <trkpt lat="43.6593" lon="5.79709">
        <ele>458</ele>
        <time>2016-03-19T10:27:46.159Z</time>
      </trkpt>
      <trkpt lat="43.65931" lon="5.79707">
        <ele>458</ele>
        <time>2016-03-19T10:27:47.132Z</time>
      </trkpt>
      <trkpt lat="43.65938" lon="5.79702">
        <ele>458</ele>
        <time>2016-03-19T10:27:51.193Z</time>
      </trkpt>
      <trkpt lat="43.6594" lon="5.79701">
        <ele>459</ele>
        <time>2016-03-19T10:27:52.137Z</time>
      </trkpt>
      <trkpt lat="43.65946" lon="5.79695">
        <ele>458</ele>
        <time>2016-03-19T10:27:56.159Z</time>
      </trkpt>
      <trkpt lat="43.65948" lon="5.79693">
        <ele>459</ele>
        <time>2016-03-19T10:27:57.134Z</time>
      </trkpt>
      <trkpt lat="43.65954" lon="5.79685">
        <ele>459</ele>
        <time>2016-03-19T10:28:01.165Z</time>
      </trkpt>
      <trkpt lat="43.65956" lon="5.79684">
        <ele>460</ele>
        <time>2016-03-19T10:28:02.139Z</time>
      </trkpt>
      <trkpt lat="43.65963" lon="5.79677">
        <ele>460</ele>
        <time>2016-03-19T10:28:06.195Z</time>
      </trkpt>
      <trkpt lat="43.65965" lon="5.79676">
        <ele>461</ele>
        <time>2016-03-19T10:28:07.139Z</time>
      </trkpt>
      <trkpt lat="43.65972" lon="5.79673">
        <ele>461</ele>
        <time>2016-03-19T10:28:10.165Z</time>
      </trkpt>
      <trkpt lat="43.65974" lon="5.79672">
        <ele>460</ele>
        <time>2016-03-19T10:28:11.136Z</time>
      </trkpt>
      <trkpt lat="43.65981" lon="5.79665">
        <ele>462</ele>
        <time>2016-03-19T10:28:30.164Z</time>
      </trkpt>
      <trkpt lat="43.65983" lon="5.79664">
        <ele>462</ele>
        <time>2016-03-19T10:28:31.139Z</time>
      </trkpt>
      <trkpt lat="43.6599" lon="5.7966">
        <ele>462</ele>
        <time>2016-03-19T10:28:35.166Z</time>
      </trkpt>
      <trkpt lat="43.65992" lon="5.79659">
        <ele>462</ele>
        <time>2016-03-19T10:28:36.140Z</time>
      </trkpt>
      <trkpt lat="43.65998" lon="5.79652">
        <ele>462</ele>
        <time>2016-03-19T10:28:40.170Z</time>
      </trkpt>
      <trkpt lat="43.65999" lon="5.79651">
        <ele>463</ele>
        <time>2016-03-19T10:28:41.141Z</time>
      </trkpt>
      <trkpt lat="43.66005" lon="5.79642">
        <ele>464</ele>
        <time>2016-03-19T10:28:49.194Z</time>
      </trkpt>
      <trkpt lat="43.66006" lon="5.79639">
        <ele>464</ele>
        <time>2016-03-19T10:28:50.140Z</time>
      </trkpt>
      <trkpt lat="43.6601" lon="5.7963">
        <ele>464</ele>
        <time>2016-03-19T10:28:53.165Z</time>
      </trkpt>
      <trkpt lat="43.66011" lon="5.79628">
        <ele>464</ele>
        <time>2016-03-19T10:28:54.140Z</time>
      </trkpt>
      <trkpt lat="43.66016" lon="5.7962">
        <ele>464</ele>
        <time>2016-03-19T10:28:57.164Z</time>
      </trkpt>
      <trkpt lat="43.66018" lon="5.79618">
        <ele>464</ele>
        <time>2016-03-19T10:28:58.140Z</time>
      </trkpt>
      <trkpt lat="43.66023" lon="5.79612">
        <ele>464</ele>
        <time>2016-03-19T10:29:00.164Z</time>
      </trkpt>
      <trkpt lat="43.66026" lon="5.79609">
        <ele>464</ele>
        <time>2016-03-19T10:29:01.140Z</time>
      </trkpt>
      <trkpt lat="43.6603" lon="5.79602">
        <ele>463</ele>
        <time>2016-03-19T10:29:03.164Z</time>
      </trkpt>
      <trkpt lat="43.66032" lon="5.79598">
        <ele>463</ele>
        <time>2016-03-19T10:29:04.137Z</time>
      </trkpt>
      <trkpt lat="43.66037" lon="5.7959">
        <ele>462</ele>
        <time>2016-03-19T10:29:06.152Z</time>
      </trkpt>
      <trkpt lat="43.66039" lon="5.79587">
        <ele>462</ele>
        <time>2016-03-19T10:29:07.134Z</time>
      </trkpt>
      <trkpt lat="43.66045" lon="5.79581">
        <ele>462</ele>
        <time>2016-03-19T10:29:09.164Z</time>
      </trkpt>
      <trkpt lat="43.66047" lon="5.79578">
        <ele>461</ele>
        <time>2016-03-19T10:29:10.167Z</time>
      </trkpt>
      <trkpt lat="43.66052" lon="5.79571">
        <ele>461</ele>
        <time>2016-03-19T10:29:12.166Z</time>
      </trkpt>
      <trkpt lat="43.66055" lon="5.79569">
        <ele>461</ele>
        <time>2016-03-19T10:29:13.140Z</time>
      </trkpt>
      <trkpt lat="43.66062" lon="5.79564">
        <ele>461</ele>
        <time>2016-03-19T10:29:15.167Z</time>
      </trkpt>
      <trkpt lat="43.66065" lon="5.79562">
        <ele>462</ele>
        <time>2016-03-19T10:29:16.139Z</time>
      </trkpt>
      <trkpt lat="43.6607" lon="5.79556">
        <ele>462</ele>
        <time>2016-03-19T10:29:18.165Z</time>
      </trkpt>
      <trkpt lat="43.66072" lon="5.79553">
        <ele>462</ele>
        <time>2016-03-19T10:29:19.138Z</time>
      </trkpt>
      <trkpt lat="43.66076" lon="5.79544">
        <ele>461</ele>
        <time>2016-03-19T10:29:21.148Z</time>
      </trkpt>
      <trkpt lat="43.66078" lon="5.79539">
        <ele>461</ele>
        <time>2016-03-19T10:29:22.130Z</time>
      </trkpt>
      <trkpt lat="43.66083" lon="5.79532">
        <ele>461</ele>
        <time>2016-03-19T10:29:24.190Z</time>
      </trkpt>
      <trkpt lat="43.66086" lon="5.79529">
        <ele>460</ele>
        <time>2016-03-19T10:29:25.141Z</time>
      </trkpt>
      <trkpt lat="43.66088" lon="5.7954">
        <ele>460</ele>
        <time>2016-03-19T10:29:30.165Z</time>
      </trkpt>
      <trkpt lat="43.66087" lon="5.79543">
        <ele>459</ele>
        <time>2016-03-19T10:29:31.138Z</time>
      </trkpt>
      <trkpt lat="43.66085" lon="5.79552">
        <ele>459</ele>
        <time>2016-03-19T10:29:33.158Z</time>
      </trkpt>
      <trkpt lat="43.66085" lon="5.79556">
        <ele>459</ele>
        <time>2016-03-19T10:29:34.137Z</time>
      </trkpt>
      <trkpt lat="43.66084" lon="5.79564">
        <ele>459</ele>
        <time>2016-03-19T10:29:36.161Z</time>
      </trkpt>
      <trkpt lat="43.66083" lon="5.79568">
        <ele>459</ele>
        <time>2016-03-19T10:29:37.133Z</time>
      </trkpt>
      <trkpt lat="43.66078" lon="5.79578">
        <ele>459</ele>
        <time>2016-03-19T10:29:40.159Z</time>
      </trkpt>
      <trkpt lat="43.66078" lon="5.79582">
        <ele>459</ele>
        <time>2016-03-19T10:29:41.134Z</time>
      </trkpt>
      <trkpt lat="43.6608" lon="5.79594">
        <ele>458</ele>
        <time>2016-03-19T10:29:44.159Z</time>
      </trkpt>
      <trkpt lat="43.66082" lon="5.79598">
        <ele>458</ele>
        <time>2016-03-19T10:29:45.134Z</time>
      </trkpt>
      <trkpt lat="43.66084" lon="5.79608">
        <ele>457</ele>
        <time>2016-03-19T10:29:47.159Z</time>
      </trkpt>
      <trkpt lat="43.66084" lon="5.79613">
        <ele>457</ele>
        <time>2016-03-19T10:29:48.138Z</time>
      </trkpt>
      <trkpt lat="43.66082" lon="5.79623">
        <ele>457</ele>
        <time>2016-03-19T10:29:50.159Z</time>
      </trkpt>
      <trkpt lat="43.66082" lon="5.79627">
        <ele>456</ele>
        <time>2016-03-19T10:29:51.138Z</time>
      </trkpt>
      <trkpt lat="43.6608" lon="5.79636">
        <ele>457</ele>
        <time>2016-03-19T10:29:53.158Z</time>
      </trkpt>
      <trkpt lat="43.6608" lon="5.7964">
        <ele>457</ele>
        <time>2016-03-19T10:29:54.133Z</time>
      </trkpt>
      <trkpt lat="43.66076" lon="5.79649">
        <ele>457</ele>
        <time>2016-03-19T10:29:57.155Z</time>
      </trkpt>
      <trkpt lat="43.66074" lon="5.79651">
        <ele>457</ele>
        <time>2016-03-19T10:29:58.143Z</time>
      </trkpt>
      <trkpt lat="43.66067" lon="5.79658">
        <ele>458</ele>
        <time>2016-03-19T10:30:01.159Z</time>
      </trkpt>
      <trkpt lat="43.66065" lon="5.7966">
        <ele>458</ele>
        <time>2016-03-19T10:30:02.136Z</time>
      </trkpt>
      <trkpt lat="43.6606" lon="5.79671">
        <ele>459</ele>
        <time>2016-03-19T10:30:05.180Z</time>
      </trkpt>
      <trkpt lat="43.66061" lon="5.79675">
        <ele>459</ele>
        <time>2016-03-19T10:30:06.136Z</time>
      </trkpt>
      <trkpt lat="43.66065" lon="5.79686">
        <ele>458</ele>
        <time>2016-03-19T10:30:09.165Z</time>
      </trkpt>
      <trkpt lat="43.66066" lon="5.79689">
        <ele>458</ele>
        <time>2016-03-19T10:30:10.140Z</time>
      </trkpt>
      <trkpt lat="43.6607" lon="5.79699">
        <ele>459</ele>
        <time>2016-03-19T10:30:13.163Z</time>
      </trkpt>
      <trkpt lat="43.66071" lon="5.79703">
        <ele>459</ele>
        <time>2016-03-19T10:30:14.166Z</time>
      </trkpt>
      <trkpt lat="43.66074" lon="5.79714">
        <ele>459</ele>
        <time>2016-03-19T10:30:17.165Z</time>
      </trkpt>
      <trkpt lat="43.66074" lon="5.79718">
        <ele>459</ele>
        <time>2016-03-19T10:30:18.135Z</time>
      </trkpt>
      <trkpt lat="43.66077" lon="5.79729">
        <ele>461</ele>
        <time>2016-03-19T10:30:21.164Z</time>
      </trkpt>
      <trkpt lat="43.66078" lon="5.79731">
        <ele>461</ele>
        <time>2016-03-19T10:30:22.137Z</time>
      </trkpt>
      <trkpt lat="43.66084" lon="5.7974">
        <ele>461</ele>
        <time>2016-03-19T10:30:25.164Z</time>
      </trkpt>
      <trkpt lat="43.66086" lon="5.79744">
        <ele>461</ele>
        <time>2016-03-19T10:30:26.140Z</time>
      </trkpt>
      <trkpt lat="43.66088" lon="5.79755">
        <ele>461</ele>
        <time>2016-03-19T10:30:29.159Z</time>
      </trkpt>
      <trkpt lat="43.66088" lon="5.79759">
        <ele>462</ele>
        <time>2016-03-19T10:30:30.167Z</time>
      </trkpt>
      <trkpt lat="43.66087" lon="5.7977">
        <ele>462</ele>
        <time>2016-03-19T10:30:33.164Z</time>
      </trkpt>
      <trkpt lat="43.66087" lon="5.79774">
        <ele>462</ele>
        <time>2016-03-19T10:30:34.139Z</time>
      </trkpt>
      <trkpt lat="43.6609" lon="5.79784">
        <ele>462</ele>
        <time>2016-03-19T10:30:37.165Z</time>
      </trkpt>
      <trkpt lat="43.66091" lon="5.79787">
        <ele>462</ele>
        <time>2016-03-19T10:30:38.136Z</time>
      </trkpt>
      <trkpt lat="43.66094" lon="5.79796">
        <ele>462</ele>
        <time>2016-03-19T10:30:41.165Z</time>
      </trkpt>
      <trkpt lat="43.66095" lon="5.798">
        <ele>461</ele>
        <time>2016-03-19T10:30:42.140Z</time>
      </trkpt>
      <trkpt lat="43.661" lon="5.79809">
        <ele>462</ele>
        <time>2016-03-19T10:30:45.166Z</time>
      </trkpt>
      <trkpt lat="43.66102" lon="5.79813">
        <ele>462</ele>
        <time>2016-03-19T10:30:46.163Z</time>
      </trkpt>
      <trkpt lat="43.66107" lon="5.79823">
        <ele>462</ele>
        <time>2016-03-19T10:30:49.166Z</time>
      </trkpt>
      <trkpt lat="43.66108" lon="5.79826">
        <ele>462</ele>
        <time>2016-03-19T10:30:50.141Z</time>
      </trkpt>
      <trkpt lat="43.66114" lon="5.79835">
        <ele>462</ele>
        <time>2016-03-19T10:30:53.165Z</time>
      </trkpt>
      <trkpt lat="43.66117" lon="5.79836">
        <ele>463</ele>
        <time>2016-03-19T10:30:54.140Z</time>
      </trkpt>
      <trkpt lat="43.66123" lon="5.79839">
        <ele>463</ele>
        <time>2016-03-19T10:30:56.160Z</time>
      </trkpt>
      <trkpt lat="43.66126" lon="5.7984">
        <ele>463</ele>
        <time>2016-03-19T10:30:57.136Z</time>
      </trkpt>
      <trkpt lat="43.66131" lon="5.79842">
        <ele>463</ele>
        <time>2016-03-19T10:30:59.160Z</time>
      </trkpt>
      <trkpt lat="43.66134" lon="5.79844">
        <ele>463</ele>
        <time>2016-03-19T10:31:00.140Z</time>
      </trkpt>
      <trkpt lat="43.6614" lon="5.79847">
        <ele>463</ele>
        <time>2016-03-19T10:31:02.191Z</time>
      </trkpt>
      <trkpt lat="43.66143" lon="5.79849">
        <ele>463</ele>
        <time>2016-03-19T10:31:03.140Z</time>
      </trkpt>
      <trkpt lat="43.66151" lon="5.79855">
        <ele>463</ele>
        <time>2016-03-19T10:31:06.156Z</time>
      </trkpt>
      <trkpt lat="43.66152" lon="5.79858">
        <ele>463</ele>
        <time>2016-03-19T10:31:07.137Z</time>
      </trkpt>
      <trkpt lat="43.66149" lon="5.79867">
        <ele>462</ele>
        <time>2016-03-19T10:31:24.160Z</time>
      </trkpt>
      <trkpt lat="43.66148" lon="5.79869">
        <ele>462</ele>
        <time>2016-03-19T10:31:25.140Z</time>
      </trkpt>
      <trkpt lat="43.66144" lon="5.79878">
        <ele>462</ele>
        <time>2016-03-19T10:31:28.158Z</time>
      </trkpt>
      <trkpt lat="43.66143" lon="5.7988">
        <ele>462</ele>
        <time>2016-03-19T10:31:29.135Z</time>
      </trkpt>
      <trkpt lat="43.66139" lon="5.7989">
        <ele>462</ele>
        <time>2016-03-19T10:31:41.394Z</time>
      </trkpt>
      <trkpt lat="43.66139" lon="5.79891">
        <ele>462</ele>
        <time>2016-03-19T10:31:42.135Z</time>
      </trkpt>
      <trkpt lat="43.66135" lon="5.799">
        <ele>463</ele>
        <time>2016-03-19T10:31:49.172Z</time>
      </trkpt>
      <trkpt lat="43.66134" lon="5.79902">
        <ele>463</ele>
        <time>2016-03-19T10:31:50.131Z</time>
      </trkpt>
      <trkpt lat="43.66127" lon="5.79908">
        <ele>463</ele>
        <time>2016-03-19T10:31:59.165Z</time>
      </trkpt>
      <trkpt lat="43.66126" lon="5.79909">
        <ele>463</ele>
        <time>2016-03-19T10:32:00.141Z</time>
      </trkpt>
      <trkpt lat="43.6612" lon="5.79914">
        <ele>464</ele>
        <time>2016-03-19T10:32:04.193Z</time>
      </trkpt>
      <trkpt lat="43.66118" lon="5.79915">
        <ele>464</ele>
        <time>2016-03-19T10:32:05.134Z</time>
      </trkpt>
      <trkpt lat="43.66112" lon="5.79921">
        <ele>465</ele>
        <time>2016-03-19T10:32:25.164Z</time>
      </trkpt>
      <trkpt lat="43.66111" lon="5.79924">
        <ele>465</ele>
        <time>2016-03-19T10:32:26.135Z</time>
      </trkpt>
      <trkpt lat="43.66107" lon="5.79932">
        <ele>465</ele>
        <time>2016-03-19T10:32:29.165Z</time>
      </trkpt>
      <trkpt lat="43.66106" lon="5.79935">
        <ele>465</ele>
        <time>2016-03-19T10:32:30.140Z</time>
      </trkpt>
      <trkpt lat="43.66105" lon="5.79946">
        <ele>466</ele>
        <time>2016-03-19T10:32:33.421Z</time>
      </trkpt>
      <trkpt lat="43.66105" lon="5.7995">
        <ele>466</ele>
        <time>2016-03-19T10:32:34.135Z</time>
      </trkpt>
      <trkpt lat="43.66107" lon="5.79962">
        <ele>466</ele>
        <time>2016-03-19T10:32:37.164Z</time>
      </trkpt>
      <trkpt lat="43.66108" lon="5.79965">
        <ele>466</ele>
        <time>2016-03-19T10:32:38.142Z</time>
      </trkpt>
      <trkpt lat="43.6611" lon="5.79975">
        <ele>466</ele>
        <time>2016-03-19T10:32:41.168Z</time>
      </trkpt>
      <trkpt lat="43.66111" lon="5.79979">
        <ele>466</ele>
        <time>2016-03-19T10:32:42.140Z</time>
      </trkpt>
      <trkpt lat="43.66113" lon="5.79991">
        <ele>466</ele>
        <time>2016-03-19T10:32:45.159Z</time>
      </trkpt>
      <trkpt lat="43.66114" lon="5.79995">
        <ele>466</ele>
        <time>2016-03-19T10:32:46.140Z</time>
      </trkpt>
      <trkpt lat="43.66115" lon="5.80003">
        <ele>466</ele>
        <time>2016-03-19T10:32:48.161Z</time>
      </trkpt>
      <trkpt lat="43.66115" lon="5.80007">
        <ele>466</ele>
        <time>2016-03-19T10:32:49.140Z</time>
      </trkpt>
      <trkpt lat="43.66116" lon="5.80016">
        <ele>466</ele>
        <time>2016-03-19T10:32:51.165Z</time>
      </trkpt>
      <trkpt lat="43.66118" lon="5.80021">
        <ele>466</ele>
        <time>2016-03-19T10:32:52.139Z</time>
      </trkpt>
      <trkpt lat="43.6612" lon="5.80031">
        <ele>465</ele>
        <time>2016-03-19T10:32:54.164Z</time>
      </trkpt>
      <trkpt lat="43.66121" lon="5.80036">
        <ele>465</ele>
        <time>2016-03-19T10:32:55.140Z</time>
      </trkpt>
      <trkpt lat="43.66124" lon="5.80045">
        <ele>466</ele>
        <time>2016-03-19T10:32:57.210Z</time>
      </trkpt>
      <trkpt lat="43.66125" lon="5.8005">
        <ele>465</ele>
        <time>2016-03-19T10:32:58.136Z</time>
      </trkpt>
      <trkpt lat="43.66127" lon="5.80059">
        <ele>465</ele>
        <time>2016-03-19T10:33:00.193Z</time>
      </trkpt>
      <trkpt lat="43.66129" lon="5.80064">
        <ele>465</ele>
        <time>2016-03-19T10:33:01.141Z</time>
      </trkpt>
      <trkpt lat="43.66131" lon="5.80072">
        <ele>465</ele>
        <time>2016-03-19T10:33:03.165Z</time>
      </trkpt>
      <trkpt lat="43.66132" lon="5.80077">
        <ele>465</ele>
        <time>2016-03-19T10:33:04.135Z</time>
      </trkpt>
      <trkpt lat="43.66132" lon="5.80086">
        <ele>464</ele>
        <time>2016-03-19T10:33:06.164Z</time>
      </trkpt>
      <trkpt lat="43.66133" lon="5.8009">
        <ele>465</ele>
        <time>2016-03-19T10:33:07.138Z</time>
      </trkpt>
      <trkpt lat="43.66135" lon="5.801">
        <ele>465</ele>
        <time>2016-03-19T10:33:09.168Z</time>
      </trkpt>
      <trkpt lat="43.66136" lon="5.80105">
        <ele>465</ele>
        <time>2016-03-19T10:33:10.142Z</time>
      </trkpt>
      <trkpt lat="43.66137" lon="5.80114">
        <ele>465</ele>
        <time>2016-03-19T10:33:12.164Z</time>
      </trkpt>
      <trkpt lat="43.66138" lon="5.80117">
        <ele>465</ele>
        <time>2016-03-19T10:33:13.140Z</time>
      </trkpt>
      <trkpt lat="43.6614" lon="5.80125">
        <ele>465</ele>
        <time>2016-03-19T10:33:15.164Z</time>
      </trkpt>
      <trkpt lat="43.66142" lon="5.80128">
        <ele>465</ele>
        <time>2016-03-19T10:33:16.134Z</time>
      </trkpt>
      <trkpt lat="43.66147" lon="5.80134">
        <ele>465</ele>
        <time>2016-03-19T10:33:18.165Z</time>
      </trkpt>
      <trkpt lat="43.6615" lon="5.80136">
        <ele>464</ele>
        <time>2016-03-19T10:33:19.139Z</time>
      </trkpt>
      <trkpt lat="43.66155" lon="5.80143">
        <ele>464</ele>
        <time>2016-03-19T10:33:22.164Z</time>
      </trkpt>
      <trkpt lat="43.66157" lon="5.80145">
        <ele>464</ele>
        <time>2016-03-19T10:33:23.139Z</time>
      </trkpt>
      <trkpt lat="43.66163" lon="5.80152">
        <ele>464</ele>
        <time>2016-03-19T10:33:26.166Z</time>
      </trkpt>
      <trkpt lat="43.66165" lon="5.80154">
        <ele>464</ele>
        <time>2016-03-19T10:33:27.141Z</time>
      </trkpt>
      <trkpt lat="43.66169" lon="5.8016">
        <ele>464</ele>
        <time>2016-03-19T10:33:29.170Z</time>
      </trkpt>
      <trkpt lat="43.66171" lon="5.80164">
        <ele>464</ele>
        <time>2016-03-19T10:33:30.141Z</time>
      </trkpt>
      <trkpt lat="43.66174" lon="5.80171">
        <ele>464</ele>
        <time>2016-03-19T10:33:32.168Z</time>
      </trkpt>
      <trkpt lat="43.66175" lon="5.80175">
        <ele>464</ele>
        <time>2016-03-19T10:33:33.141Z</time>
      </trkpt>
      <trkpt lat="43.66179" lon="5.80182">
        <ele>464</ele>
        <time>2016-03-19T10:33:35.162Z</time>
      </trkpt>
      <trkpt lat="43.6618" lon="5.80186">
        <ele>464</ele>
        <time>2016-03-19T10:33:36.140Z</time>
      </trkpt>
      <trkpt lat="43.66181" lon="5.80194">
        <ele>463</ele>
        <time>2016-03-19T10:33:38.165Z</time>
      </trkpt>
      <trkpt lat="43.66181" lon="5.80199">
        <ele>464</ele>
        <time>2016-03-19T10:33:39.141Z</time>
      </trkpt>
      <trkpt lat="43.66181" lon="5.80208">
        <ele>463</ele>
        <time>2016-03-19T10:33:41.167Z</time>
      </trkpt>
      <trkpt lat="43.66181" lon="5.80213">
        <ele>463</ele>
        <time>2016-03-19T10:33:42.142Z</time>
      </trkpt>
      <trkpt lat="43.66181" lon="5.80223">
        <ele>463</ele>
        <time>2016-03-19T10:33:44.166Z</time>
      </trkpt>
      <trkpt lat="43.66182" lon="5.80228">
        <ele>462</ele>
        <time>2016-03-19T10:33:45.140Z</time>
      </trkpt>
      <trkpt lat="43.66183" lon="5.80238">
        <ele>462</ele>
        <time>2016-03-19T10:33:47.158Z</time>
      </trkpt>
      <trkpt lat="43.66184" lon="5.80242">
        <ele>462</ele>
        <time>2016-03-19T10:33:48.140Z</time>
      </trkpt>
      <trkpt lat="43.66186" lon="5.80251">
        <ele>462</ele>
        <time>2016-03-19T10:33:50.160Z</time>
      </trkpt>
      <trkpt lat="43.66187" lon="5.80255">
        <ele>462</ele>
        <time>2016-03-19T10:33:51.138Z</time>
      </trkpt>
      <trkpt lat="43.6619" lon="5.80263">
        <ele>462</ele>
        <time>2016-03-19T10:33:53.183Z</time>
      </trkpt>
      <trkpt lat="43.6619" lon="5.80268">
        <ele>462</ele>
        <time>2016-03-19T10:33:54.133Z</time>
      </trkpt>
      <trkpt lat="43.66188" lon="5.80275">
        <ele>462</ele>
        <time>2016-03-19T10:33:56.160Z</time>
      </trkpt>
      <trkpt lat="43.66186" lon="5.80279">
        <ele>462</ele>
        <time>2016-03-19T10:33:57.324Z</time>
      </trkpt>
      <trkpt lat="43.66183" lon="5.80287">
        <ele>462</ele>
        <time>2016-03-19T10:33:59.164Z</time>
      </trkpt>
      <trkpt lat="43.66182" lon="5.8029">
        <ele>462</ele>
        <time>2016-03-19T10:34:00.134Z</time>
      </trkpt>
      <trkpt lat="43.66179" lon="5.80301">
        <ele>462</ele>
        <time>2016-03-19T10:34:04.151Z</time>
      </trkpt>
      <trkpt lat="43.66179" lon="5.80304">
        <ele>462</ele>
        <time>2016-03-19T10:34:05.128Z</time>
      </trkpt>
      <trkpt lat="43.66179" lon="5.80316">
        <ele>462</ele>
        <time>2016-03-19T10:34:08.164Z</time>
      </trkpt>
      <trkpt lat="43.6618" lon="5.8032">
        <ele>462</ele>
        <time>2016-03-19T10:34:09.163Z</time>
      </trkpt>
      <trkpt lat="43.6618" lon="5.80328">
        <ele>462</ele>
        <time>2016-03-19T10:34:11.244Z</time>
      </trkpt>
      <trkpt lat="43.66179" lon="5.80333">
        <ele>462</ele>
        <time>2016-03-19T10:34:12.130Z</time>
      </trkpt>
      <trkpt lat="43.66177" lon="5.8034">
        <ele>462</ele>
        <time>2016-03-19T10:34:14.163Z</time>
      </trkpt>
      <trkpt lat="43.66175" lon="5.80344">
        <ele>461</ele>
        <time>2016-03-19T10:34:15.142Z</time>
      </trkpt>
      <trkpt lat="43.66171" lon="5.80351">
        <ele>461</ele>
        <time>2016-03-19T10:34:17.166Z</time>
      </trkpt>
      <trkpt lat="43.6617" lon="5.80355">
        <ele>461</ele>
        <time>2016-03-19T10:34:18.140Z</time>
      </trkpt>
      <trkpt lat="43.66168" lon="5.80367">
        <ele>461</ele>
        <time>2016-03-19T10:34:21.174Z</time>
      </trkpt>
      <trkpt lat="43.66168" lon="5.80371">
        <ele>460</ele>
        <time>2016-03-19T10:34:22.140Z</time>
      </trkpt>
      <trkpt lat="43.66165" lon="5.80382">
        <ele>461</ele>
        <time>2016-03-19T10:34:25.161Z</time>
      </trkpt>
      <trkpt lat="43.66164" lon="5.80385">
        <ele>460</ele>
        <time>2016-03-19T10:34:26.140Z</time>
      </trkpt>
      <trkpt lat="43.6616" lon="5.80395">
        <ele>460</ele>
        <time>2016-03-19T10:34:29.167Z</time>
      </trkpt>
      <trkpt lat="43.66158" lon="5.80398">
        <ele>460</ele>
        <time>2016-03-19T10:34:30.140Z</time>
      </trkpt>
      <trkpt lat="43.66154" lon="5.80407">
        <ele>461</ele>
        <time>2016-03-19T10:34:33.168Z</time>
      </trkpt>
      <trkpt lat="43.66154" lon="5.80411">
        <ele>461</ele>
        <time>2016-03-19T10:34:34.136Z</time>
      </trkpt>
      <trkpt lat="43.66154" lon="5.80419">
        <ele>461</ele>
        <time>2016-03-19T10:34:36.193Z</time>
      </trkpt>
      <trkpt lat="43.66155" lon="5.80424">
        <ele>461</ele>
        <time>2016-03-19T10:34:37.138Z</time>
      </trkpt>
      <trkpt lat="43.66156" lon="5.80432">
        <ele>461</ele>
        <time>2016-03-19T10:34:39.160Z</time>
      </trkpt>
      <trkpt lat="43.66156" lon="5.80437">
        <ele>461</ele>
        <time>2016-03-19T10:34:40.139Z</time>
      </trkpt>
      <trkpt lat="43.66157" lon="5.80445">
        <ele>462</ele>
        <time>2016-03-19T10:34:42.166Z</time>
      </trkpt>
      <trkpt lat="43.66158" lon="5.80449">
        <ele>462</ele>
        <time>2016-03-19T10:34:43.140Z</time>
      </trkpt>
      <trkpt lat="43.66159" lon="5.80458">
        <ele>463</ele>
        <time>2016-03-19T10:34:45.168Z</time>
      </trkpt>
      <trkpt lat="43.66159" lon="5.80462">
        <ele>463</ele>
        <time>2016-03-19T10:34:46.142Z</time>
      </trkpt>
      <trkpt lat="43.66158" lon="5.80473">
        <ele>463</ele>
        <time>2016-03-19T10:34:49.166Z</time>
      </trkpt>
      <trkpt lat="43.66157" lon="5.80476">
        <ele>464</ele>
        <time>2016-03-19T10:34:50.136Z</time>
      </trkpt>
      <trkpt lat="43.66151" lon="5.80485">
        <ele>464</ele>
        <time>2016-03-19T10:34:55.162Z</time>
      </trkpt>
      <trkpt lat="43.66149" lon="5.80486">
        <ele>464</ele>
        <time>2016-03-19T10:34:56.137Z</time>
      </trkpt>
      <trkpt lat="43.66142" lon="5.8049">
        <ele>464</ele>
        <time>2016-03-19T10:34:59.159Z</time>
      </trkpt>
      <trkpt lat="43.66139" lon="5.80492">
        <ele>464</ele>
        <time>2016-03-19T10:35:00.138Z</time>
      </trkpt>
      <trkpt lat="43.66132" lon="5.80497">
        <ele>464</ele>
        <time>2016-03-19T10:35:03.160Z</time>
      </trkpt>
      <trkpt lat="43.66129" lon="5.80499">
        <ele>464</ele>
        <time>2016-03-19T10:35:04.160Z</time>
      </trkpt>
      <trkpt lat="43.66122" lon="5.80503">
        <ele>465</ele>
        <time>2016-03-19T10:35:07.164Z</time>
      </trkpt>
      <trkpt lat="43.66119" lon="5.80505">
        <ele>465</ele>
        <time>2016-03-19T10:35:08.162Z</time>
      </trkpt>
      <trkpt lat="43.66111" lon="5.80509">
        <ele>466</ele>
        <time>2016-03-19T10:35:11.164Z</time>
      </trkpt>
      <trkpt lat="43.66108" lon="5.80511">
        <ele>466</ele>
        <time>2016-03-19T10:35:12.136Z</time>
      </trkpt>
      <trkpt lat="43.66102" lon="5.80518">
        <ele>467</ele>
        <time>2016-03-19T10:35:15.164Z</time>
      </trkpt>
      <trkpt lat="43.661" lon="5.8052">
        <ele>467</ele>
        <time>2016-03-19T10:35:16.142Z</time>
      </trkpt>
      <trkpt lat="43.66093" lon="5.80525">
        <ele>468</ele>
        <time>2016-03-19T10:35:19.167Z</time>
      </trkpt>
      <trkpt lat="43.6609" lon="5.80526">
        <ele>468</ele>
        <time>2016-03-19T10:35:20.142Z</time>
      </trkpt>
      <trkpt lat="43.66083" lon="5.80528">
        <ele>468</ele>
        <time>2016-03-19T10:35:23.169Z</time>
      </trkpt>
      <trkpt lat="43.66081" lon="5.80528">
        <ele>468</ele>
        <time>2016-03-19T10:35:24.171Z</time>
      </trkpt>
      <trkpt lat="43.66072" lon="5.80528">
        <ele>468</ele>
        <time>2016-03-19T10:35:28.161Z</time>
      </trkpt>
      <trkpt lat="43.6607" lon="5.80527">
        <ele>468</ele>
        <time>2016-03-19T10:35:29.137Z</time>
      </trkpt>
      <trkpt lat="43.66062" lon="5.80526">
        <ele>468</ele>
        <time>2016-03-19T10:35:33.161Z</time>
      </trkpt>
      <trkpt lat="43.6606" lon="5.80526">
        <ele>468</ele>
        <time>2016-03-19T10:35:34.138Z</time>
      </trkpt>
      <trkpt lat="43.66058" lon="5.80537">
        <ele>470</ele>
        <time>2016-03-19T10:35:49.394Z</time>
      </trkpt>
      <trkpt lat="43.66059" lon="5.80538">
        <ele>470</ele>
        <time>2016-03-19T10:35:50.137Z</time>
      </trkpt>
      <trkpt lat="43.6606" lon="5.8055">
        <ele>470</ele>
        <time>2016-03-19T10:35:57.165Z</time>
      </trkpt>
      <trkpt lat="43.66061" lon="5.80554">
        <ele>470</ele>
        <time>2016-03-19T10:35:58.141Z</time>
      </trkpt>
      <trkpt lat="43.66062" lon="5.80563">
        <ele>470</ele>
        <time>2016-03-19T10:36:00.397Z</time>
      </trkpt>
      <trkpt lat="43.66062" lon="5.80566">
        <ele>470</ele>
        <time>2016-03-19T10:36:01.136Z</time>
      </trkpt>
      <trkpt lat="43.66064" lon="5.80575">
        <ele>470</ele>
        <time>2016-03-19T10:36:03.164Z</time>
      </trkpt>
      <trkpt lat="43.66065" lon="5.80579">
        <ele>470</ele>
        <time>2016-03-19T10:36:04.136Z</time>
      </trkpt>
      <trkpt lat="43.66066" lon="5.80588">
        <ele>471</ele>
        <time>2016-03-19T10:36:06.165Z</time>
      </trkpt>
      <trkpt lat="43.66066" lon="5.80592">
        <ele>471</ele>
        <time>2016-03-19T10:36:07.140Z</time>
      </trkpt>
      <trkpt lat="43.66069" lon="5.80603">
        <ele>472</ele>
        <time>2016-03-19T10:36:10.166Z</time>
      </trkpt>
      <trkpt lat="43.66069" lon="5.80607">
        <ele>472</ele>
        <time>2016-03-19T10:36:11.135Z</time>
      </trkpt>
      <trkpt lat="43.6607" lon="5.80618">
        <ele>472</ele>
        <time>2016-03-19T10:36:14.161Z</time>
      </trkpt>
      <trkpt lat="43.6607" lon="5.80621">
        <ele>472</ele>
        <time>2016-03-19T10:36:15.136Z</time>
      </trkpt>
      <trkpt lat="43.66071" lon="5.80633">
        <ele>472</ele>
        <time>2016-03-19T10:36:18.161Z</time>
      </trkpt>
      <trkpt lat="43.66072" lon="5.80636">
        <ele>472</ele>
        <time>2016-03-19T10:36:19.141Z</time>
      </trkpt>
      <trkpt lat="43.66073" lon="5.80647">
        <ele>473</ele>
        <time>2016-03-19T10:36:22.165Z</time>
      </trkpt>
      <trkpt lat="43.66073" lon="5.80651">
        <ele>473</ele>
        <time>2016-03-19T10:36:23.135Z</time>
      </trkpt>
      <trkpt lat="43.66074" lon="5.80661">
        <ele>474</ele>
        <time>2016-03-19T10:36:26.155Z</time>
      </trkpt>
      <trkpt lat="43.66075" lon="5.80665">
        <ele>474</ele>
        <time>2016-03-19T10:36:27.136Z</time>
      </trkpt>
      <trkpt lat="43.66076" lon="5.80676">
        <ele>475</ele>
        <time>2016-03-19T10:36:30.160Z</time>
      </trkpt>
      <trkpt lat="43.66077" lon="5.8068">
        <ele>475</ele>
        <time>2016-03-19T10:36:31.140Z</time>
      </trkpt>
      <trkpt lat="43.66078" lon="5.80688">
        <ele>475</ele>
        <time>2016-03-19T10:36:33.165Z</time>
      </trkpt>
      <trkpt lat="43.66079" lon="5.80692">
        <ele>475</ele>
        <time>2016-03-19T10:36:34.142Z</time>
      </trkpt>
      <trkpt lat="43.66079" lon="5.80704">
        <ele>476</ele>
        <time>2016-03-19T10:36:38.418Z</time>
      </trkpt>
      <trkpt lat="43.66079" lon="5.80707">
        <ele>476</ele>
        <time>2016-03-19T10:36:39.141Z</time>
      </trkpt>
      <trkpt lat="43.66079" lon="5.80718">
        <ele>476</ele>
        <time>2016-03-19T10:36:42.169Z</time>
      </trkpt>
      <trkpt lat="43.6608" lon="5.80721">
        <ele>475</ele>
        <time>2016-03-19T10:36:43.141Z</time>
      </trkpt>
      <trkpt lat="43.66084" lon="5.80733">
        <ele>475</ele>
        <time>2016-03-19T10:36:46.169Z</time>
      </trkpt>
      <trkpt lat="43.66085" lon="5.80737">
        <ele>476</ele>
        <time>2016-03-19T10:36:47.142Z</time>
      </trkpt>
      <trkpt lat="43.66086" lon="5.80745">
        <ele>475</ele>
        <time>2016-03-19T10:36:49.196Z</time>
      </trkpt>
      <trkpt lat="43.66087" lon="5.8075">
        <ele>475</ele>
        <time>2016-03-19T10:36:50.139Z</time>
      </trkpt>
      <trkpt lat="43.66088" lon="5.80759">
        <ele>476</ele>
        <time>2016-03-19T10:36:52.173Z</time>
      </trkpt>
      <trkpt lat="43.66089" lon="5.80763">
        <ele>476</ele>
        <time>2016-03-19T10:36:53.140Z</time>
      </trkpt>
      <trkpt lat="43.66089" lon="5.80772">
        <ele>475</ele>
        <time>2016-03-19T10:36:55.165Z</time>
      </trkpt>
      <trkpt lat="43.6609" lon="5.80776">
        <ele>475</ele>
        <time>2016-03-19T10:36:56.161Z</time>
      </trkpt>
      <trkpt lat="43.66091" lon="5.80785">
        <ele>474</ele>
        <time>2016-03-19T10:36:58.161Z</time>
      </trkpt>
      <trkpt lat="43.66092" lon="5.8079">
        <ele>474</ele>
        <time>2016-03-19T10:36:59.140Z</time>
      </trkpt>
      <trkpt lat="43.66095" lon="5.80801">
        <ele>473</ele>
        <time>2016-03-19T10:37:01.386Z</time>
      </trkpt>
      <trkpt lat="43.66097" lon="5.80806">
        <ele>473</ele>
        <time>2016-03-19T10:37:02.136Z</time>
      </trkpt>
      <trkpt lat="43.661" lon="5.80812">
        <ele>473</ele>
        <time>2016-03-19T10:37:03.154Z</time>
      </trkpt>
      <trkpt lat="43.66104" lon="5.80819">
        <ele>472</ele>
        <time>2016-03-19T10:37:04.141Z</time>
      </trkpt>
      <trkpt lat="43.66106" lon="5.80824">
        <ele>472</ele>
        <time>2016-03-19T10:37:05.166Z</time>
      </trkpt>
      <trkpt lat="43.66109" lon="5.80831">
        <ele>471</ele>
        <time>2016-03-19T10:37:06.141Z</time>
      </trkpt>
      <trkpt lat="43.66112" lon="5.80837">
        <ele>471</ele>
        <time>2016-03-19T10:37:07.166Z</time>
      </trkpt>
      <trkpt lat="43.66115" lon="5.80842">
        <ele>471</ele>
        <time>2016-03-19T10:37:08.139Z</time>
      </trkpt>
      <trkpt lat="43.66118" lon="5.80848">
        <ele>471</ele>
        <time>2016-03-19T10:37:09.166Z</time>
      </trkpt>
      <trkpt lat="43.66121" lon="5.80854">
        <ele>471</ele>
        <time>2016-03-19T10:37:10.167Z</time>
      </trkpt>
      <trkpt lat="43.66123" lon="5.80859">
        <ele>471</ele>
        <time>2016-03-19T10:37:11.166Z</time>
      </trkpt>
      <trkpt lat="43.66126" lon="5.80865">
        <ele>471</ele>
        <time>2016-03-19T10:37:12.142Z</time>
      </trkpt>
      <trkpt lat="43.66129" lon="5.8087">
        <ele>471</ele>
        <time>2016-03-19T10:37:13.153Z</time>
      </trkpt>
      <trkpt lat="43.66132" lon="5.80875">
        <ele>471</ele>
        <time>2016-03-19T10:37:14.142Z</time>
      </trkpt>
      <trkpt lat="43.66137" lon="5.80884">
        <ele>472</ele>
        <time>2016-03-19T10:37:16.170Z</time>
      </trkpt>
      <trkpt lat="43.6614" lon="5.80889">
        <ele>472</ele>
        <time>2016-03-19T10:37:17.142Z</time>
      </trkpt>
      <trkpt lat="43.66144" lon="5.80897">
        <ele>472</ele>
        <time>2016-03-19T10:37:19.170Z</time>
      </trkpt>
      <trkpt lat="43.66146" lon="5.80901">
        <ele>472</ele>
        <time>2016-03-19T10:37:20.141Z</time>
      </trkpt>
      <trkpt lat="43.66151" lon="5.8091">
        <ele>472</ele>
        <time>2016-03-19T10:37:22.170Z</time>
      </trkpt>
      <trkpt lat="43.66152" lon="5.80914">
        <ele>472</ele>
        <time>2016-03-19T10:37:23.142Z</time>
      </trkpt>
      <trkpt lat="43.66155" lon="5.80923">
        <ele>473</ele>
        <time>2016-03-19T10:37:25.165Z</time>
      </trkpt>
      <trkpt lat="43.66156" lon="5.80928">
        <ele>473</ele>
        <time>2016-03-19T10:37:26.142Z</time>
      </trkpt>
      <trkpt lat="43.66158" lon="5.80937">
        <ele>473</ele>
        <time>2016-03-19T10:37:28.165Z</time>
      </trkpt>
      <trkpt lat="43.66159" lon="5.80942">
        <ele>472</ele>
        <time>2016-03-19T10:37:29.140Z</time>
      </trkpt>
      <trkpt lat="43.66161" lon="5.80952">
        <ele>473</ele>
        <time>2016-03-19T10:37:31.192Z</time>
      </trkpt>
      <trkpt lat="43.66162" lon="5.80956">
        <ele>473</ele>
        <time>2016-03-19T10:37:32.140Z</time>
      </trkpt>
      <trkpt lat="43.66164" lon="5.80967">
        <ele>473</ele>
        <time>2016-03-19T10:37:34.165Z</time>
      </trkpt>
      <trkpt lat="43.66164" lon="5.80974">
        <ele>472</ele>
        <time>2016-03-19T10:37:35.141Z</time>
      </trkpt>
      <trkpt lat="43.6616" lon="5.80984">
        <ele>472</ele>
        <time>2016-03-19T10:37:37.161Z</time>
      </trkpt>
      <trkpt lat="43.6616" lon="5.80987">
        <ele>471</ele>
        <time>2016-03-19T10:37:38.134Z</time>
      </trkpt>
      <trkpt lat="43.66161" lon="5.80993">
        <ele>470</ele>
        <time>2016-03-19T10:37:39.160Z</time>
      </trkpt>
      <trkpt lat="43.66162" lon="5.80999">
        <ele>469</ele>
        <time>2016-03-19T10:37:40.140Z</time>
      </trkpt>
      <trkpt lat="43.66163" lon="5.81011">
        <ele>469</ele>
        <time>2016-03-19T10:37:42.166Z</time>
      </trkpt>
      <trkpt lat="43.66163" lon="5.81017">
        <ele>469</ele>
        <time>2016-03-19T10:37:43.135Z</time>
      </trkpt>
      <trkpt lat="43.66165" lon="5.81029">
        <ele>470</ele>
        <time>2016-03-19T10:37:46.170Z</time>
      </trkpt>
      <trkpt lat="43.66166" lon="5.81032">
        <ele>470</ele>
        <time>2016-03-19T10:37:47.167Z</time>
      </trkpt>
      <trkpt lat="43.66168" lon="5.81043">
        <ele>469</ele>
        <time>2016-03-19T10:37:50.160Z</time>
      </trkpt>
      <trkpt lat="43.66169" lon="5.81048">
        <ele>469</ele>
        <time>2016-03-19T10:37:51.136Z</time>
      </trkpt>
      <trkpt lat="43.6617" lon="5.81058">
        <ele>470</ele>
        <time>2016-03-19T10:37:53.166Z</time>
      </trkpt>
      <trkpt lat="43.66171" lon="5.81063">
        <ele>469</ele>
        <time>2016-03-19T10:37:54.141Z</time>
      </trkpt>
      <trkpt lat="43.66174" lon="5.81073">
        <ele>470</ele>
        <time>2016-03-19T10:37:56.167Z</time>
      </trkpt>
      <trkpt lat="43.66175" lon="5.81078">
        <ele>471</ele>
        <time>2016-03-19T10:37:57.136Z</time>
      </trkpt>
      <trkpt lat="43.66177" lon="5.81087">
        <ele>470</ele>
        <time>2016-03-19T10:37:59.165Z</time>
      </trkpt>
      <trkpt lat="43.66178" lon="5.81092">
        <ele>470</ele>
        <time>2016-03-19T10:38:00.362Z</time>
      </trkpt>
      <trkpt lat="43.66181" lon="5.81101">
        <ele>470</ele>
        <time>2016-03-19T10:38:02.166Z</time>
      </trkpt>
      <trkpt lat="43.66182" lon="5.81105">
        <ele>470</ele>
        <time>2016-03-19T10:38:03.170Z</time>
      </trkpt>
      <trkpt lat="43.66184" lon="5.81113">
        <ele>470</ele>
        <time>2016-03-19T10:38:05.169Z</time>
      </trkpt>
      <trkpt lat="43.66185" lon="5.81117">
        <ele>470</ele>
        <time>2016-03-19T10:38:06.141Z</time>
      </trkpt>
      <trkpt lat="43.66187" lon="5.81126">
        <ele>470</ele>
        <time>2016-03-19T10:38:08.166Z</time>
      </trkpt>
      <trkpt lat="43.66189" lon="5.8113">
        <ele>469</ele>
        <time>2016-03-19T10:38:09.141Z</time>
      </trkpt>
      <trkpt lat="43.66193" lon="5.81139">
        <ele>469</ele>
        <time>2016-03-19T10:38:11.168Z</time>
      </trkpt>
      <trkpt lat="43.66196" lon="5.81145">
        <ele>469</ele>
        <time>2016-03-19T10:38:12.135Z</time>
      </trkpt>
      <trkpt lat="43.662" lon="5.81155">
        <ele>468</ele>
        <time>2016-03-19T10:38:14.165Z</time>
      </trkpt>
      <trkpt lat="43.66202" lon="5.8116">
        <ele>468</ele>
        <time>2016-03-19T10:38:15.141Z</time>
      </trkpt>
      <trkpt lat="43.66207" lon="5.81171">
        <ele>468</ele>
        <time>2016-03-19T10:38:17.166Z</time>
      </trkpt>
      <trkpt lat="43.6621" lon="5.81178">
        <ele>467</ele>
        <time>2016-03-19T10:38:18.150Z</time>
      </trkpt>
      <trkpt lat="43.66217" lon="5.81186">
        <ele>467</ele>
        <time>2016-03-19T10:38:20.162Z</time>
      </trkpt>
      <trkpt lat="43.66221" lon="5.81192">
        <ele>466</ele>
        <time>2016-03-19T10:38:21.135Z</time>
      </trkpt>
      <trkpt lat="43.66224" lon="5.81196">
        <ele>466</ele>
        <time>2016-03-19T10:38:22.166Z</time>
      </trkpt>
      <trkpt lat="43.66227" lon="5.81202">
        <ele>466</ele>
        <time>2016-03-19T10:38:23.140Z</time>
      </trkpt>
      <trkpt lat="43.66231" lon="5.81207">
        <ele>465</ele>
        <time>2016-03-19T10:38:24.277Z</time>
      </trkpt>
      <trkpt lat="43.66235" lon="5.81212">
        <ele>465</ele>
        <time>2016-03-19T10:38:25.140Z</time>
      </trkpt>
      <trkpt lat="43.66239" lon="5.81216">
        <ele>465</ele>
        <time>2016-03-19T10:38:26.150Z</time>
      </trkpt>
      <trkpt lat="43.66242" lon="5.81219">
        <ele>465</ele>
        <time>2016-03-19T10:38:27.141Z</time>
      </trkpt>
      <trkpt lat="43.66246" lon="5.81223">
        <ele>464</ele>
        <time>2016-03-19T10:38:28.172Z</time>
      </trkpt>
      <trkpt lat="43.66249" lon="5.81228">
        <ele>464</ele>
        <time>2016-03-19T10:38:29.132Z</time>
      </trkpt>
      <trkpt lat="43.66252" lon="5.81239">
        <ele>464</ele>
        <time>2016-03-19T10:38:31.165Z</time>
      </trkpt>
      <trkpt lat="43.66254" lon="5.81244">
        <ele>464</ele>
        <time>2016-03-19T10:38:32.141Z</time>
      </trkpt>
      <trkpt lat="43.66257" lon="5.81248">
        <ele>464</ele>
        <time>2016-03-19T10:38:33.169Z</time>
      </trkpt>
      <trkpt lat="43.66262" lon="5.81252">
        <ele>464</ele>
        <time>2016-03-19T10:38:34.140Z</time>
      </trkpt>
      <trkpt lat="43.66269" lon="5.81259">
        <ele>465</ele>
        <time>2016-03-19T10:38:36.165Z</time>
      </trkpt>
      <trkpt lat="43.66272" lon="5.81263">
        <ele>466</ele>
        <time>2016-03-19T10:38:37.141Z</time>
      </trkpt>
      <trkpt lat="43.66278" lon="5.81269">
        <ele>465</ele>
        <time>2016-03-19T10:38:39.165Z</time>
      </trkpt>
      <trkpt lat="43.66281" lon="5.81273">
        <ele>466</ele>
        <time>2016-03-19T10:38:40.141Z</time>
      </trkpt>
      <trkpt lat="43.66286" lon="5.8128">
        <ele>465</ele>
        <time>2016-03-19T10:38:42.165Z</time>
      </trkpt>
      <trkpt lat="43.6629" lon="5.81283">
        <ele>465</ele>
        <time>2016-03-19T10:38:43.141Z</time>
      </trkpt>
      <trkpt lat="43.66293" lon="5.81287">
        <ele>465</ele>
        <time>2016-03-19T10:38:44.165Z</time>
      </trkpt>
      <trkpt lat="43.66297" lon="5.8129">
        <ele>465</ele>
        <time>2016-03-19T10:38:45.141Z</time>
      </trkpt>
      <trkpt lat="43.66304" lon="5.81298">
        <ele>464</ele>
        <time>2016-03-19T10:38:47.220Z</time>
      </trkpt>
      <trkpt lat="43.66308" lon="5.81303">
        <ele>464</ele>
        <time>2016-03-19T10:38:48.140Z</time>
      </trkpt>
      <trkpt lat="43.66311" lon="5.81307">
        <ele>464</ele>
        <time>2016-03-19T10:38:49.141Z</time>
      </trkpt>
      <trkpt lat="43.66315" lon="5.8131">
        <ele>464</ele>
        <time>2016-03-19T10:38:50.136Z</time>
      </trkpt>
      <trkpt lat="43.66322" lon="5.81318">
        <ele>463</ele>
        <time>2016-03-19T10:38:52.166Z</time>
      </trkpt>
      <trkpt lat="43.66326" lon="5.81321">
        <ele>463</ele>
        <time>2016-03-19T10:38:53.140Z</time>
      </trkpt>
      <trkpt lat="43.66331" lon="5.81329">
        <ele>463</ele>
        <time>2016-03-19T10:38:55.214Z</time>
      </trkpt>
      <trkpt lat="43.66334" lon="5.81333">
        <ele>463</ele>
        <time>2016-03-19T10:38:56.132Z</time>
      </trkpt>
      <trkpt lat="43.6634" lon="5.81338">
        <ele>463</ele>
        <time>2016-03-19T10:38:58.167Z</time>
      </trkpt>
      <trkpt lat="43.66343" lon="5.81341">
        <ele>463</ele>
        <time>2016-03-19T10:38:59.142Z</time>
      </trkpt>
      <trkpt lat="43.6635" lon="5.81348">
        <ele>463</ele>
        <time>2016-03-19T10:39:01.170Z</time>
      </trkpt>
      <trkpt lat="43.66352" lon="5.81351">
        <ele>463</ele>
        <time>2016-03-19T10:39:02.144Z</time>
      </trkpt>
      <trkpt lat="43.66358" lon="5.81359">
        <ele>463</ele>
        <time>2016-03-19T10:39:04.161Z</time>
      </trkpt>
      <trkpt lat="43.6636" lon="5.81362">
        <ele>462</ele>
        <time>2016-03-19T10:39:05.138Z</time>
      </trkpt>
      <trkpt lat="43.66365" lon="5.81371">
        <ele>463</ele>
        <time>2016-03-19T10:39:07.185Z</time>
      </trkpt>
      <trkpt lat="43.66367" lon="5.81375">
        <ele>463</ele>
        <time>2016-03-19T10:39:08.134Z</time>
      </trkpt>
      <trkpt lat="43.66372" lon="5.81382">
        <ele>462</ele>
        <time>2016-03-19T10:39:10.164Z</time>
      </trkpt>
      <trkpt lat="43.66375" lon="5.81386">
        <ele>462</ele>
        <time>2016-03-19T10:39:11.141Z</time>
      </trkpt>
      <trkpt lat="43.66381" lon="5.81393">
        <ele>461</ele>
        <time>2016-03-19T10:39:13.166Z</time>
      </trkpt>
      <trkpt lat="43.66385" lon="5.81397">
        <ele>461</ele>
        <time>2016-03-19T10:39:14.141Z</time>
      </trkpt>
      <trkpt lat="43.6639" lon="5.81405">
        <ele>460</ele>
        <time>2016-03-19T10:39:16.165Z</time>
      </trkpt>
      <trkpt lat="43.66393" lon="5.8141">
        <ele>460</ele>
        <time>2016-03-19T10:39:17.140Z</time>
      </trkpt>
      <trkpt lat="43.66394" lon="5.81421">
        <ele>460</ele>
        <time>2016-03-19T10:39:19.166Z</time>
      </trkpt>
      <trkpt lat="43.66395" lon="5.81426">
        <ele>460</ele>
        <time>2016-03-19T10:39:20.141Z</time>
      </trkpt>
      <trkpt lat="43.66399" lon="5.81437">
        <ele>460</ele>
        <time>2016-03-19T10:39:22.159Z</time>
      </trkpt>
      <trkpt lat="43.66401" lon="5.81442">
        <ele>459</ele>
        <time>2016-03-19T10:39:23.167Z</time>
      </trkpt>
      <trkpt lat="43.66403" lon="5.81453">
        <ele>460</ele>
        <time>2016-03-19T10:39:25.165Z</time>
      </trkpt>
      <trkpt lat="43.66405" lon="5.81459">
        <ele>460</ele>
        <time>2016-03-19T10:39:26.136Z</time>
      </trkpt>
      <trkpt lat="43.66409" lon="5.81469">
        <ele>459</ele>
        <time>2016-03-19T10:39:28.192Z</time>
      </trkpt>
      <trkpt lat="43.66412" lon="5.81473">
        <ele>460</ele>
        <time>2016-03-19T10:39:29.129Z</time>
      </trkpt>
      <trkpt lat="43.66418" lon="5.81481">
        <ele>460</ele>
        <time>2016-03-19T10:39:31.165Z</time>
      </trkpt>
      <trkpt lat="43.66421" lon="5.81485">
        <ele>459</ele>
        <time>2016-03-19T10:39:32.140Z</time>
      </trkpt>
      <trkpt lat="43.66426" lon="5.81494">
        <ele>459</ele>
        <time>2016-03-19T10:39:34.168Z</time>
      </trkpt>
      <trkpt lat="43.66428" lon="5.81499">
        <ele>458</ele>
        <time>2016-03-19T10:39:35.140Z</time>
      </trkpt>
      <trkpt lat="43.66431" lon="5.81509">
        <ele>457</ele>
        <time>2016-03-19T10:39:37.171Z</time>
      </trkpt>
      <trkpt lat="43.66433" lon="5.81514">
        <ele>458</ele>
        <time>2016-03-19T10:39:38.141Z</time>
      </trkpt>
      <trkpt lat="43.66438" lon="5.81523">
        <ele>457</ele>
        <time>2016-03-19T10:39:40.166Z</time>
      </trkpt>
      <trkpt lat="43.6644" lon="5.81528">
        <ele>457</ele>
        <time>2016-03-19T10:39:41.141Z</time>
      </trkpt>
      <trkpt lat="43.66443" lon="5.81537">
        <ele>458</ele>
        <time>2016-03-19T10:39:43.166Z</time>
      </trkpt>
      <trkpt lat="43.66444" lon="5.81542">
        <ele>458</ele>
        <time>2016-03-19T10:39:44.141Z</time>
      </trkpt>
      <trkpt lat="43.66448" lon="5.81549">
        <ele>459</ele>
        <time>2016-03-19T10:39:46.385Z</time>
      </trkpt>
      <trkpt lat="43.66451" lon="5.81552">
        <ele>459</ele>
        <time>2016-03-19T10:39:47.137Z</time>
      </trkpt>
      <trkpt lat="43.66457" lon="5.81554">
        <ele>459</ele>
        <time>2016-03-19T10:39:49.170Z</time>
      </trkpt>
      <trkpt lat="43.6646" lon="5.81554">
        <ele>459</ele>
        <time>2016-03-19T10:39:50.141Z</time>
      </trkpt>
      <trkpt lat="43.66465" lon="5.81562">
        <ele>459</ele>
        <time>2016-03-19T10:39:53.166Z</time>
      </trkpt>
      <trkpt lat="43.66468" lon="5.81565">
        <ele>460</ele>
        <time>2016-03-19T10:39:54.136Z</time>
      </trkpt>
      <trkpt lat="43.66472" lon="5.81571">
        <ele>460</ele>
        <time>2016-03-19T10:39:56.167Z</time>
      </trkpt>
      <trkpt lat="43.66474" lon="5.81575">
        <ele>460</ele>
        <time>2016-03-19T10:39:57.141Z</time>
      </trkpt>
      <trkpt lat="43.66478" lon="5.81583">
        <ele>459</ele>
        <time>2016-03-19T10:39:59.164Z</time>
      </trkpt>
      <trkpt lat="43.6648" lon="5.81587">
        <ele>459</ele>
        <time>2016-03-19T10:40:00.131Z</time>
      </trkpt>
      <trkpt lat="43.66484" lon="5.81595">
        <ele>460</ele>
        <time>2016-03-19T10:40:02.165Z</time>
      </trkpt>
      <trkpt lat="43.66486" lon="5.81598">
        <ele>460</ele>
        <time>2016-03-19T10:40:03.141Z</time>
      </trkpt>
      <trkpt lat="43.6649" lon="5.81605">
        <ele>461</ele>
        <time>2016-03-19T10:40:05.167Z</time>
      </trkpt>
      <trkpt lat="43.66491" lon="5.81609">
        <ele>462</ele>
        <time>2016-03-19T10:40:06.171Z</time>
      </trkpt>
      <trkpt lat="43.66495" lon="5.81616">
        <ele>461</ele>
        <time>2016-03-19T10:40:08.165Z</time>
      </trkpt>
      <trkpt lat="43.66497" lon="5.81619">
        <ele>461</ele>
        <time>2016-03-19T10:40:09.136Z</time>
      </trkpt>
      <trkpt lat="43.665" lon="5.81628">
        <ele>460</ele>
        <time>2016-03-19T10:40:11.165Z</time>
      </trkpt>
      <trkpt lat="43.66501" lon="5.81633">
        <ele>459</ele>
        <time>2016-03-19T10:40:12.142Z</time>
      </trkpt>
      <trkpt lat="43.66505" lon="5.81642">
        <ele>459</ele>
        <time>2016-03-19T10:40:14.169Z</time>
      </trkpt>
      <trkpt lat="43.66507" lon="5.81647">
        <ele>459</ele>
        <time>2016-03-19T10:40:15.136Z</time>
      </trkpt>
      <trkpt lat="43.66511" lon="5.81658">
        <ele>458</ele>
        <time>2016-03-19T10:40:17.161Z</time>
      </trkpt>
      <trkpt lat="43.66512" lon="5.81664">
        <ele>457</ele>
        <time>2016-03-19T10:40:18.141Z</time>
      </trkpt>
      <trkpt lat="43.66512" lon="5.81674">
        <ele>456</ele>
        <time>2016-03-19T10:40:20.165Z</time>
      </trkpt>
      <trkpt lat="43.66511" lon="5.8168">
        <ele>456</ele>
        <time>2016-03-19T10:40:21.141Z</time>
      </trkpt>
      <trkpt lat="43.66507" lon="5.81688">
        <ele>454</ele>
        <time>2016-03-19T10:40:22.165Z</time>
      </trkpt>
      <trkpt lat="43.66505" lon="5.81695">
        <ele>454</ele>
        <time>2016-03-19T10:40:23.141Z</time>
      </trkpt>
      <trkpt lat="43.66503" lon="5.81703">
        <ele>453</ele>
        <time>2016-03-19T10:40:24.166Z</time>
      </trkpt>
      <trkpt lat="43.66502" lon="5.81708">
        <ele>453</ele>
        <time>2016-03-19T10:40:25.141Z</time>
      </trkpt>
      <trkpt lat="43.66498" lon="5.81718">
        <ele>452</ele>
        <time>2016-03-19T10:40:27.170Z</time>
      </trkpt>
      <trkpt lat="43.66496" lon="5.81722">
        <ele>453</ele>
        <time>2016-03-19T10:40:28.141Z</time>
      </trkpt>
      <trkpt lat="43.66496" lon="5.81732">
        <ele>452</ele>
        <time>2016-03-19T10:40:30.164Z</time>
      </trkpt>
      <trkpt lat="43.66498" lon="5.81737">
        <ele>452</ele>
        <time>2016-03-19T10:40:31.143Z</time>
      </trkpt>
      <trkpt lat="43.66498" lon="5.81746">
        <ele>453</ele>
        <time>2016-03-19T10:40:33.161Z</time>
      </trkpt>
      <trkpt lat="43.66498" lon="5.81751">
        <ele>454</ele>
        <time>2016-03-19T10:40:34.132Z</time>
      </trkpt>
      <trkpt lat="43.66498" lon="5.81761">
        <ele>453</ele>
        <time>2016-03-19T10:40:36.163Z</time>
      </trkpt>
      <trkpt lat="43.66498" lon="5.81766">
        <ele>453</ele>
        <time>2016-03-19T10:40:37.133Z</time>
      </trkpt>
      <trkpt lat="43.66499" lon="5.81774">
        <ele>454</ele>
        <time>2016-03-19T10:40:39.159Z</time>
      </trkpt>
      <trkpt lat="43.66501" lon="5.81778">
        <ele>454</ele>
        <time>2016-03-19T10:40:40.130Z</time>
      </trkpt>
      <trkpt lat="43.66504" lon="5.81785">
        <ele>454</ele>
        <time>2016-03-19T10:40:42.156Z</time>
      </trkpt>
      <trkpt lat="43.66506" lon="5.81789">
        <ele>454</ele>
        <time>2016-03-19T10:40:43.126Z</time>
      </trkpt>
      <trkpt lat="43.66511" lon="5.81795">
        <ele>452</ele>
        <time>2016-03-19T10:40:45.174Z</time>
      </trkpt>
      <trkpt lat="43.66514" lon="5.81797">
        <ele>453</ele>
        <time>2016-03-19T10:40:46.134Z</time>
      </trkpt>
      <trkpt lat="43.66519" lon="5.81804">
        <ele>453</ele>
        <time>2016-03-19T10:40:48.182Z</time>
      </trkpt>
      <trkpt lat="43.66522" lon="5.81807">
        <ele>453</ele>
        <time>2016-03-19T10:40:49.133Z</time>
      </trkpt>
      <trkpt lat="43.66526" lon="5.81814">
        <ele>452</ele>
        <time>2016-03-19T10:40:51.181Z</time>
      </trkpt>
      <trkpt lat="43.66527" lon="5.81817">
        <ele>451</ele>
        <time>2016-03-19T10:40:52.128Z</time>
      </trkpt>
      <trkpt lat="43.66531" lon="5.81825">
        <ele>450</ele>
        <time>2016-03-19T10:40:54.162Z</time>
      </trkpt>
      <trkpt lat="43.66533" lon="5.81829">
        <ele>451</ele>
        <time>2016-03-19T10:40:55.141Z</time>
      </trkpt>
      <trkpt lat="43.6654" lon="5.81837">
        <ele>451</ele>
        <time>2016-03-19T10:40:57.167Z</time>
      </trkpt>
      <trkpt lat="43.66543" lon="5.81841">
        <ele>452</ele>
        <time>2016-03-19T10:40:58.142Z</time>
      </trkpt>
      <trkpt lat="43.66549" lon="5.81847">
        <ele>452</ele>
        <time>2016-03-19T10:41:00.156Z</time>
      </trkpt>
      <trkpt lat="43.66552" lon="5.8185">
        <ele>452</ele>
        <time>2016-03-19T10:41:01.136Z</time>
      </trkpt>
      <trkpt lat="43.66558" lon="5.81855">
        <ele>451</ele>
        <time>2016-03-19T10:41:03.167Z</time>
      </trkpt>
      <trkpt lat="43.66562" lon="5.81858">
        <ele>451</ele>
        <time>2016-03-19T10:41:04.141Z</time>
      </trkpt>
      <trkpt lat="43.66567" lon="5.81866">
        <ele>451</ele>
        <time>2016-03-19T10:41:06.166Z</time>
      </trkpt>
      <trkpt lat="43.6657" lon="5.8187">
        <ele>451</ele>
        <time>2016-03-19T10:41:07.140Z</time>
      </trkpt>
      <trkpt lat="43.66574" lon="5.81878">
        <ele>451</ele>
        <time>2016-03-19T10:41:09.192Z</time>
      </trkpt>
      <trkpt lat="43.66577" lon="5.81882">
        <ele>451</ele>
        <time>2016-03-19T10:41:10.141Z</time>
      </trkpt>
      <trkpt lat="43.66582" lon="5.8189">
        <ele>452</ele>
        <time>2016-03-19T10:41:12.168Z</time>
      </trkpt>
      <trkpt lat="43.66584" lon="5.81894">
        <ele>452</ele>
        <time>2016-03-19T10:41:13.141Z</time>
      </trkpt>
      <trkpt lat="43.66589" lon="5.81902">
        <ele>452</ele>
        <time>2016-03-19T10:41:15.185Z</time>
      </trkpt>
      <trkpt lat="43.66591" lon="5.81906">
        <ele>452</ele>
        <time>2016-03-19T10:41:16.140Z</time>
      </trkpt>
      <trkpt lat="43.66596" lon="5.81915">
        <ele>452</ele>
        <time>2016-03-19T10:41:18.166Z</time>
      </trkpt>
      <trkpt lat="43.66598" lon="5.81919">
        <ele>452</ele>
        <time>2016-03-19T10:41:19.141Z</time>
      </trkpt>
      <trkpt lat="43.66601" lon="5.81927">
        <ele>452</ele>
        <time>2016-03-19T10:41:21.166Z</time>
      </trkpt>
      <trkpt lat="43.66603" lon="5.81932">
        <ele>453</ele>
        <time>2016-03-19T10:41:22.141Z</time>
      </trkpt>
      <trkpt lat="43.66604" lon="5.81941">
        <ele>454</ele>
        <time>2016-03-19T10:41:24.166Z</time>
      </trkpt>
      <trkpt lat="43.66603" lon="5.81946">
        <ele>454</ele>
        <time>2016-03-19T10:41:25.166Z</time>
      </trkpt>
      <trkpt lat="43.66601" lon="5.81955">
        <ele>455</ele>
        <time>2016-03-19T10:41:27.244Z</time>
      </trkpt>
      <trkpt lat="43.666" lon="5.8196">
        <ele>455</ele>
        <time>2016-03-19T10:41:28.141Z</time>
      </trkpt>
      <trkpt lat="43.66597" lon="5.81967">
        <ele>455</ele>
        <time>2016-03-19T10:41:30.191Z</time>
      </trkpt>
      <trkpt lat="43.66596" lon="5.81971">
        <ele>455</ele>
        <time>2016-03-19T10:41:31.141Z</time>
      </trkpt>
      <trkpt lat="43.66593" lon="5.81978">
        <ele>454</ele>
        <time>2016-03-19T10:41:33.166Z</time>
      </trkpt>
      <trkpt lat="43.66592" lon="5.81983">
        <ele>454</ele>
        <time>2016-03-19T10:41:34.140Z</time>
      </trkpt>
      <trkpt lat="43.66591" lon="5.81992">
        <ele>454</ele>
        <time>2016-03-19T10:41:36.159Z</time>
      </trkpt>
      <trkpt lat="43.66591" lon="5.81997">
        <ele>454</ele>
        <time>2016-03-19T10:41:37.141Z</time>
      </trkpt>
      <trkpt lat="43.66591" lon="5.82007">
        <ele>454</ele>
        <time>2016-03-19T10:41:39.166Z</time>
      </trkpt>
      <trkpt lat="43.66591" lon="5.82011">
        <ele>454</ele>
        <time>2016-03-19T10:41:40.141Z</time>
      </trkpt>
      <trkpt lat="43.66589" lon="5.8202">
        <ele>454</ele>
        <time>2016-03-19T10:41:43.166Z</time>
      </trkpt>
      <trkpt lat="43.66587" lon="5.82024">
        <ele>454</ele>
        <time>2016-03-19T10:41:44.141Z</time>
      </trkpt>
      <trkpt lat="43.66585" lon="5.82036">
        <ele>453</ele>
        <time>2016-03-19T10:41:47.158Z</time>
      </trkpt>
      <trkpt lat="43.66584" lon="5.8204">
        <ele>453</ele>
        <time>2016-03-19T10:41:48.136Z</time>
      </trkpt>
      <trkpt lat="43.6658" lon="5.82047">
        <ele>452</ele>
        <time>2016-03-19T10:41:50.166Z</time>
      </trkpt>
      <trkpt lat="43.66578" lon="5.82049">
        <ele>452</ele>
        <time>2016-03-19T10:41:51.142Z</time>
      </trkpt>
      <trkpt lat="43.66573" lon="5.82054">
        <ele>452</ele>
        <time>2016-03-19T10:41:53.166Z</time>
      </trkpt>
      <trkpt lat="43.6657" lon="5.82057">
        <ele>452</ele>
        <time>2016-03-19T10:41:54.140Z</time>
      </trkpt>
      <trkpt lat="43.66563" lon="5.82064">
        <ele>453</ele>
        <time>2016-03-19T10:41:57.193Z</time>
      </trkpt>
      <trkpt lat="43.66561" lon="5.82067">
        <ele>454</ele>
        <time>2016-03-19T10:41:58.140Z</time>
      </trkpt>
      <trkpt lat="43.66555" lon="5.82076">
        <ele>454</ele>
        <time>2016-03-19T10:42:01.161Z</time>
      </trkpt>
      <trkpt lat="43.66553" lon="5.82079">
        <ele>454</ele>
        <time>2016-03-19T10:42:02.139Z</time>
      </trkpt>
      <trkpt lat="43.66549" lon="5.82086">
        <ele>455</ele>
        <time>2016-03-19T10:42:04.161Z</time>
      </trkpt>
      <trkpt lat="43.66547" lon="5.8209">
        <ele>455</ele>
        <time>2016-03-19T10:42:05.140Z</time>
      </trkpt>
      <trkpt lat="43.66544" lon="5.82097">
        <ele>455</ele>
        <time>2016-03-19T10:42:07.161Z</time>
      </trkpt>
      <trkpt lat="43.66542" lon="5.82101">
        <ele>455</ele>
        <time>2016-03-19T10:42:08.139Z</time>
      </trkpt>
      <trkpt lat="43.66537" lon="5.82107">
        <ele>456</ele>
        <time>2016-03-19T10:42:10.161Z</time>
      </trkpt>
      <trkpt lat="43.66535" lon="5.82111">
        <ele>456</ele>
        <time>2016-03-19T10:42:11.141Z</time>
      </trkpt>
      <trkpt lat="43.66531" lon="5.82118">
        <ele>456</ele>
        <time>2016-03-19T10:42:13.183Z</time>
      </trkpt>
      <trkpt lat="43.66529" lon="5.82121">
        <ele>456</ele>
        <time>2016-03-19T10:42:14.133Z</time>
      </trkpt>
      <trkpt lat="43.66524" lon="5.82129">
        <ele>456</ele>
        <time>2016-03-19T10:42:16.161Z</time>
      </trkpt>
      <trkpt lat="43.66522" lon="5.82132">
        <ele>456</ele>
        <time>2016-03-19T10:42:17.141Z</time>
      </trkpt>
      <trkpt lat="43.66517" lon="5.82139">
        <ele>456</ele>
        <time>2016-03-19T10:42:19.161Z</time>
      </trkpt>
      <trkpt lat="43.66515" lon="5.82141">
        <ele>456</ele>
        <time>2016-03-19T10:42:20.140Z</time>
      </trkpt>
      <trkpt lat="43.6651" lon="5.82148">
        <ele>457</ele>
        <time>2016-03-19T10:42:22.200Z</time>
      </trkpt>
      <trkpt lat="43.66508" lon="5.82151">
        <ele>457</ele>
        <time>2016-03-19T10:42:23.139Z</time>
      </trkpt>
      <trkpt lat="43.66503" lon="5.82157">
        <ele>458</ele>
        <time>2016-03-19T10:42:25.160Z</time>
      </trkpt>
      <trkpt lat="43.66501" lon="5.8216">
        <ele>458</ele>
        <time>2016-03-19T10:42:26.141Z</time>
      </trkpt>
      <trkpt lat="43.66498" lon="5.82168">
        <ele>458</ele>
        <time>2016-03-19T10:42:28.161Z</time>
      </trkpt>
      <trkpt lat="43.66497" lon="5.82172">
        <ele>458</ele>
        <time>2016-03-19T10:42:29.164Z</time>
      </trkpt>
      <trkpt lat="43.66495" lon="5.8218">
        <ele>458</ele>
        <time>2016-03-19T10:42:31.161Z</time>
      </trkpt>
      <trkpt lat="43.66495" lon="5.82185">
        <ele>458</ele>
        <time>2016-03-19T10:42:32.140Z</time>
      </trkpt>
      <trkpt lat="43.66496" lon="5.82194">
        <ele>458</ele>
        <time>2016-03-19T10:42:34.161Z</time>
      </trkpt>
      <trkpt lat="43.66497" lon="5.82198">
        <ele>457</ele>
        <time>2016-03-19T10:42:35.139Z</time>
      </trkpt>
      <trkpt lat="43.66499" lon="5.82206">
        <ele>457</ele>
        <time>2016-03-19T10:42:37.155Z</time>
      </trkpt>
      <trkpt lat="43.66501" lon="5.8221">
        <ele>457</ele>
        <time>2016-03-19T10:42:38.135Z</time>
      </trkpt>
      <trkpt lat="43.66503" lon="5.82218">
        <ele>457</ele>
        <time>2016-03-19T10:42:40.155Z</time>
      </trkpt>
      <trkpt lat="43.66504" lon="5.82222">
        <ele>457</ele>
        <time>2016-03-19T10:42:41.140Z</time>
      </trkpt>
      <trkpt lat="43.66503" lon="5.82233">
        <ele>457</ele>
        <time>2016-03-19T10:42:44.161Z</time>
      </trkpt>
      <trkpt lat="43.66503" lon="5.82237">
        <ele>457</ele>
        <time>2016-03-19T10:42:45.161Z</time>
      </trkpt>
      <trkpt lat="43.66502" lon="5.82249">
        <ele>458</ele>
        <time>2016-03-19T10:42:48.156Z</time>
      </trkpt>
      <trkpt lat="43.66502" lon="5.82252">
        <ele>459</ele>
        <time>2016-03-19T10:42:49.135Z</time>
      </trkpt>
      <trkpt lat="43.66507" lon="5.8226">
        <ele>460</ele>
        <time>2016-03-19T10:42:52.160Z</time>
      </trkpt>
      <trkpt lat="43.6651" lon="5.82262">
        <ele>459</ele>
        <time>2016-03-19T10:42:53.133Z</time>
      </trkpt>
      <trkpt lat="43.66517" lon="5.82268">
        <ele>459</ele>
        <time>2016-03-19T10:42:56.163Z</time>
      </trkpt>
      <trkpt lat="43.66519" lon="5.82271">
        <ele>459</ele>
        <time>2016-03-19T10:42:57.142Z</time>
      </trkpt>
      <trkpt lat="43.66522" lon="5.82281">
        <ele>459</ele>
        <time>2016-03-19T10:43:00.160Z</time>
      </trkpt>
      <trkpt lat="43.66522" lon="5.82283">
        <ele>459</ele>
        <time>2016-03-19T10:43:01.135Z</time>
      </trkpt>
      <trkpt lat="43.66523" lon="5.82294">
        <ele>460</ele>
        <time>2016-03-19T10:43:06.187Z</time>
      </trkpt>
      <trkpt lat="43.66522" lon="5.82297">
        <ele>460</ele>
        <time>2016-03-19T10:43:07.141Z</time>
      </trkpt>
      <trkpt lat="43.6652" lon="5.82307">
        <ele>460</ele>
        <time>2016-03-19T10:43:10.156Z</time>
      </trkpt>
      <trkpt lat="43.6652" lon="5.82311">
        <ele>460</ele>
        <time>2016-03-19T10:43:11.136Z</time>
      </trkpt>
      <trkpt lat="43.66519" lon="5.82323">
        <ele>460</ele>
        <time>2016-03-19T10:43:14.159Z</time>
      </trkpt>
      <trkpt lat="43.66519" lon="5.82326">
        <ele>460</ele>
        <time>2016-03-19T10:43:15.135Z</time>
      </trkpt>
      <trkpt lat="43.66519" lon="5.82339">
        <ele>460</ele>
        <time>2016-03-19T10:43:18.161Z</time>
      </trkpt>
      <trkpt lat="43.6652" lon="5.82343">
        <ele>460</ele>
        <time>2016-03-19T10:43:19.134Z</time>
      </trkpt>
      <trkpt lat="43.6652" lon="5.82354">
        <ele>461</ele>
        <time>2016-03-19T10:43:22.179Z</time>
      </trkpt>
      <trkpt lat="43.66519" lon="5.82358">
        <ele>461</ele>
        <time>2016-03-19T10:43:23.140Z</time>
      </trkpt>
      <trkpt lat="43.66519" lon="5.82369">
        <ele>462</ele>
        <time>2016-03-19T10:43:26.160Z</time>
      </trkpt>
      <trkpt lat="43.66518" lon="5.82373">
        <ele>464</ele>
        <time>2016-03-19T10:43:27.138Z</time>
      </trkpt>
      <trkpt lat="43.66518" lon="5.82385">
        <ele>462</ele>
        <time>2016-03-19T10:43:30.144Z</time>
      </trkpt>
      <trkpt lat="43.66518" lon="5.82389">
        <ele>462</ele>
        <time>2016-03-19T10:43:31.134Z</time>
      </trkpt>
      <trkpt lat="43.6652" lon="5.82397">
        <ele>463</ele>
        <time>2016-03-19T10:43:33.161Z</time>
      </trkpt>
      <trkpt lat="43.6652" lon="5.82401">
        <ele>464</ele>
        <time>2016-03-19T10:43:34.139Z</time>
      </trkpt>
      <trkpt lat="43.66523" lon="5.8241">
        <ele>463</ele>
        <time>2016-03-19T10:43:36.161Z</time>
      </trkpt>
      <trkpt lat="43.66524" lon="5.82414">
        <ele>463</ele>
        <time>2016-03-19T10:43:37.139Z</time>
      </trkpt>
      <trkpt lat="43.66524" lon="5.82423">
        <ele>462</ele>
        <time>2016-03-19T10:43:39.161Z</time>
      </trkpt>
      <trkpt lat="43.66523" lon="5.82426">
        <ele>463</ele>
        <time>2016-03-19T10:43:40.135Z</time>
      </trkpt>
      <trkpt lat="43.6652" lon="5.82434">
        <ele>462</ele>
        <time>2016-03-19T10:43:42.160Z</time>
      </trkpt>
      <trkpt lat="43.66519" lon="5.82438">
        <ele>461</ele>
        <time>2016-03-19T10:43:43.140Z</time>
      </trkpt>
      <trkpt lat="43.66516" lon="5.82445">
        <ele>461</ele>
        <time>2016-03-19T10:43:45.155Z</time>
      </trkpt>
      <trkpt lat="43.66515" lon="5.8245">
        <ele>461</ele>
        <time>2016-03-19T10:43:46.140Z</time>
      </trkpt>
      <trkpt lat="43.66513" lon="5.82457">
        <ele>461</ele>
        <time>2016-03-19T10:43:48.160Z</time>
      </trkpt>
      <trkpt lat="43.66511" lon="5.82462">
        <ele>461</ele>
        <time>2016-03-19T10:43:49.139Z</time>
      </trkpt>
      <trkpt lat="43.66509" lon="5.8247">
        <ele>462</ele>
        <time>2016-03-19T10:43:51.162Z</time>
      </trkpt>
      <trkpt lat="43.66509" lon="5.82474">
        <ele>462</ele>
        <time>2016-03-19T10:43:52.139Z</time>
      </trkpt>
      <trkpt lat="43.66509" lon="5.82486">
        <ele>462</ele>
        <time>2016-03-19T10:43:55.161Z</time>
      </trkpt>
      <trkpt lat="43.6651" lon="5.8249">
        <ele>462</ele>
        <time>2016-03-19T10:43:56.139Z</time>
      </trkpt>
      <trkpt lat="43.66511" lon="5.82498">
        <ele>462</ele>
        <time>2016-03-19T10:43:58.161Z</time>
      </trkpt>
      <trkpt lat="43.66511" lon="5.82503">
        <ele>463</ele>
        <time>2016-03-19T10:43:59.140Z</time>
      </trkpt>
      <trkpt lat="43.66511" lon="5.82515">
        <ele>463</ele>
        <time>2016-03-19T10:44:02.167Z</time>
      </trkpt>
      <trkpt lat="43.66511" lon="5.82519">
        <ele>462</ele>
        <time>2016-03-19T10:44:03.142Z</time>
      </trkpt>
      <trkpt lat="43.6651" lon="5.8253">
        <ele>462</ele>
        <time>2016-03-19T10:44:06.165Z</time>
      </trkpt>
      <trkpt lat="43.6651" lon="5.82532">
        <ele>463</ele>
        <time>2016-03-19T10:44:07.142Z</time>
      </trkpt>
      <trkpt lat="43.66508" lon="5.82543">
        <ele>463</ele>
        <time>2016-03-19T10:44:13.162Z</time>
      </trkpt>
      <trkpt lat="43.66508" lon="5.82546">
        <ele>463</ele>
        <time>2016-03-19T10:44:14.140Z</time>
      </trkpt>
      <trkpt lat="43.66508" lon="5.82555">
        <ele>463</ele>
        <time>2016-03-19T10:44:16.169Z</time>
      </trkpt>
      <trkpt lat="43.66507" lon="5.82559">
        <ele>462</ele>
        <time>2016-03-19T10:44:17.141Z</time>
      </trkpt>
      <trkpt lat="43.66505" lon="5.82567">
        <ele>463</ele>
        <time>2016-03-19T10:44:19.168Z</time>
      </trkpt>
      <trkpt lat="43.66504" lon="5.82571">
        <ele>463</ele>
        <time>2016-03-19T10:44:20.141Z</time>
      </trkpt>
      <trkpt lat="43.66502" lon="5.8258">
        <ele>463</ele>
        <time>2016-03-19T10:44:22.167Z</time>
      </trkpt>
      <trkpt lat="43.66501" lon="5.82584">
        <ele>463</ele>
        <time>2016-03-19T10:44:23.142Z</time>
      </trkpt>
      <trkpt lat="43.66498" lon="5.82592">
        <ele>463</ele>
        <time>2016-03-19T10:44:25.161Z</time>
      </trkpt>
      <trkpt lat="43.66497" lon="5.82596">
        <ele>464</ele>
        <time>2016-03-19T10:44:26.142Z</time>
      </trkpt>
      <trkpt lat="43.66494" lon="5.82604">
        <ele>465</ele>
        <time>2016-03-19T10:44:28.171Z</time>
      </trkpt>
      <trkpt lat="43.66493" lon="5.82608">
        <ele>465</ele>
        <time>2016-03-19T10:44:29.140Z</time>
      </trkpt>
      <trkpt lat="43.6649" lon="5.82617">
        <ele>465</ele>
        <time>2016-03-19T10:44:31.192Z</time>
      </trkpt>
      <trkpt lat="43.66489" lon="5.82622">
        <ele>465</ele>
        <time>2016-03-19T10:44:32.142Z</time>
      </trkpt>
      <trkpt lat="43.66486" lon="5.82631">
        <ele>466</ele>
        <time>2016-03-19T10:44:34.165Z</time>
      </trkpt>
      <trkpt lat="43.66486" lon="5.82635">
        <ele>466</ele>
        <time>2016-03-19T10:44:35.136Z</time>
      </trkpt>
      <trkpt lat="43.66485" lon="5.82645">
        <ele>466</ele>
        <time>2016-03-19T10:44:37.155Z</time>
      </trkpt>
      <trkpt lat="43.66484" lon="5.82648">
        <ele>467</ele>
        <time>2016-03-19T10:44:38.137Z</time>
      </trkpt>
      <trkpt lat="43.66483" lon="5.82657">
        <ele>467</ele>
        <time>2016-03-19T10:44:40.168Z</time>
      </trkpt>
      <trkpt lat="43.66482" lon="5.82661">
        <ele>467</ele>
        <time>2016-03-19T10:44:41.141Z</time>
      </trkpt>
      <trkpt lat="43.6648" lon="5.82669">
        <ele>467</ele>
        <time>2016-03-19T10:44:43.165Z</time>
      </trkpt>
      <trkpt lat="43.66479" lon="5.82673">
        <ele>467</ele>
        <time>2016-03-19T10:44:44.141Z</time>
      </trkpt>
      <trkpt lat="43.66476" lon="5.82681">
        <ele>468</ele>
        <time>2016-03-19T10:44:46.172Z</time>
      </trkpt>
      <trkpt lat="43.66475" lon="5.82685">
        <ele>468</ele>
        <time>2016-03-19T10:44:47.164Z</time>
      </trkpt>
      <trkpt lat="43.66471" lon="5.82693">
        <ele>468</ele>
        <time>2016-03-19T10:44:49.160Z</time>
      </trkpt>
      <trkpt lat="43.66469" lon="5.82696">
        <ele>468</ele>
        <time>2016-03-19T10:44:50.142Z</time>
      </trkpt>
      <trkpt lat="43.66465" lon="5.82704">
        <ele>468</ele>
        <time>2016-03-19T10:44:52.171Z</time>
      </trkpt>
      <trkpt lat="43.66463" lon="5.82708">
        <ele>468</ele>
        <time>2016-03-19T10:44:53.137Z</time>
      </trkpt>
      <trkpt lat="43.6646" lon="5.82715">
        <ele>468</ele>
        <time>2016-03-19T10:44:55.152Z</time>
      </trkpt>
      <trkpt lat="43.66458" lon="5.82719">
        <ele>468</ele>
        <time>2016-03-19T10:44:56.137Z</time>
      </trkpt>
      <trkpt lat="43.66454" lon="5.82727">
        <ele>468</ele>
        <time>2016-03-19T10:44:58.194Z</time>
      </trkpt>
      <trkpt lat="43.66453" lon="5.82731">
        <ele>468</ele>
        <time>2016-03-19T10:44:59.141Z</time>
      </trkpt>
      <trkpt lat="43.6645" lon="5.8274">
        <ele>468</ele>
        <time>2016-03-19T10:45:01.170Z</time>
      </trkpt>
      <trkpt lat="43.66449" lon="5.82744">
        <ele>468</ele>
        <time>2016-03-19T10:45:02.142Z</time>
      </trkpt>
      <trkpt lat="43.66446" lon="5.82753">
        <ele>468</ele>
        <time>2016-03-19T10:45:04.145Z</time>
      </trkpt>
      <trkpt lat="43.66445" lon="5.82757">
        <ele>468</ele>
        <time>2016-03-19T10:45:05.142Z</time>
      </trkpt>
      <trkpt lat="43.66443" lon="5.82765">
        <ele>469</ele>
        <time>2016-03-19T10:45:07.161Z</time>
      </trkpt>
      <trkpt lat="43.66442" lon="5.8277">
        <ele>469</ele>
        <time>2016-03-19T10:45:08.143Z</time>
      </trkpt>
      <trkpt lat="43.66441" lon="5.82779">
        <ele>469</ele>
        <time>2016-03-19T10:45:10.162Z</time>
      </trkpt>
      <trkpt lat="43.6644" lon="5.82783">
        <ele>469</ele>
        <time>2016-03-19T10:45:11.142Z</time>
      </trkpt>
      <trkpt lat="43.66438" lon="5.82792">
        <ele>469</ele>
        <time>2016-03-19T10:45:13.166Z</time>
      </trkpt>
      <trkpt lat="43.66437" lon="5.82797">
        <ele>469</ele>
        <time>2016-03-19T10:45:14.143Z</time>
      </trkpt>
      <trkpt lat="43.66436" lon="5.82806">
        <ele>469</ele>
        <time>2016-03-19T10:45:16.167Z</time>
      </trkpt>
      <trkpt lat="43.66435" lon="5.8281">
        <ele>469</ele>
        <time>2016-03-19T10:45:17.142Z</time>
      </trkpt>
      <trkpt lat="43.66433" lon="5.82819">
        <ele>469</ele>
        <time>2016-03-19T10:45:19.165Z</time>
      </trkpt>
      <trkpt lat="43.66432" lon="5.82823">
        <ele>470</ele>
        <time>2016-03-19T10:45:20.142Z</time>
      </trkpt>
      <trkpt lat="43.6643" lon="5.82832">
        <ele>470</ele>
        <time>2016-03-19T10:45:22.170Z</time>
      </trkpt>
      <trkpt lat="43.66429" lon="5.82836">
        <ele>470</ele>
        <time>2016-03-19T10:45:23.140Z</time>
      </trkpt>
      <trkpt lat="43.66426" lon="5.82845">
        <ele>470</ele>
        <time>2016-03-19T10:45:25.169Z</time>
      </trkpt>
      <trkpt lat="43.66425" lon="5.82849">
        <ele>470</ele>
        <time>2016-03-19T10:45:26.136Z</time>
      </trkpt>
      <trkpt lat="43.66423" lon="5.82857">
        <ele>470</ele>
        <time>2016-03-19T10:45:28.171Z</time>
      </trkpt>
      <trkpt lat="43.66421" lon="5.82861">
        <ele>470</ele>
        <time>2016-03-19T10:45:29.142Z</time>
      </trkpt>
      <trkpt lat="43.66417" lon="5.82869">
        <ele>470</ele>
        <time>2016-03-19T10:45:31.167Z</time>
      </trkpt>
      <trkpt lat="43.66416" lon="5.82872">
        <ele>470</ele>
        <time>2016-03-19T10:45:32.140Z</time>
      </trkpt>
      <trkpt lat="43.66412" lon="5.8288">
        <ele>471</ele>
        <time>2016-03-19T10:45:34.171Z</time>
      </trkpt>
      <trkpt lat="43.66411" lon="5.82884">
        <ele>471</ele>
        <time>2016-03-19T10:45:35.137Z</time>
      </trkpt>
      <trkpt lat="43.66408" lon="5.82892">
        <ele>470</ele>
        <time>2016-03-19T10:45:37.170Z</time>
      </trkpt>
      <trkpt lat="43.66407" lon="5.82897">
        <ele>470</ele>
        <time>2016-03-19T10:45:38.141Z</time>
      </trkpt>
      <trkpt lat="43.66405" lon="5.82905">
        <ele>470</ele>
        <time>2016-03-19T10:45:40.194Z</time>
      </trkpt>
      <trkpt lat="43.66404" lon="5.8291">
        <ele>470</ele>
        <time>2016-03-19T10:45:41.135Z</time>
      </trkpt>
      <trkpt lat="43.66402" lon="5.82918">
        <ele>470</ele>
        <time>2016-03-19T10:45:43.161Z</time>
      </trkpt>
      <trkpt lat="43.664" lon="5.82923">
        <ele>470</ele>
        <time>2016-03-19T10:45:44.142Z</time>
      </trkpt>
      <trkpt lat="43.66397" lon="5.82932">
        <ele>470</ele>
        <time>2016-03-19T10:45:46.168Z</time>
      </trkpt>
      <trkpt lat="43.66396" lon="5.82936">
        <ele>470</ele>
        <time>2016-03-19T10:45:47.142Z</time>
      </trkpt>
      <trkpt lat="43.66391" lon="5.82944">
        <ele>470</ele>
        <time>2016-03-19T10:45:49.166Z</time>
      </trkpt>
      <trkpt lat="43.66389" lon="5.82947">
        <ele>469</ele>
        <time>2016-03-19T10:45:50.142Z</time>
      </trkpt>
      <trkpt lat="43.66385" lon="5.82952">
        <ele>469</ele>
        <time>2016-03-19T10:45:51.167Z</time>
      </trkpt>
      <trkpt lat="43.66381" lon="5.82956">
        <ele>469</ele>
        <time>2016-03-19T10:45:52.142Z</time>
      </trkpt>
      <trkpt lat="43.66378" lon="5.8296">
        <ele>469</ele>
        <time>2016-03-19T10:45:53.166Z</time>
      </trkpt>
      <trkpt lat="43.66374" lon="5.82966">
        <ele>469</ele>
        <time>2016-03-19T10:45:54.142Z</time>
      </trkpt>
      <trkpt lat="43.66368" lon="5.82975">
        <ele>469</ele>
        <time>2016-03-19T10:45:56.162Z</time>
      </trkpt>
      <trkpt lat="43.66365" lon="5.8298">
        <ele>469</ele>
        <time>2016-03-19T10:45:57.136Z</time>
      </trkpt>
      <trkpt lat="43.6636" lon="5.82989">
        <ele>469</ele>
        <time>2016-03-19T10:45:59.161Z</time>
      </trkpt>
      <trkpt lat="43.66357" lon="5.82993">
        <ele>468</ele>
        <time>2016-03-19T10:46:00.136Z</time>
      </trkpt>
      <trkpt lat="43.6635" lon="5.83">
        <ele>467</ele>
        <time>2016-03-19T10:46:02.171Z</time>
      </trkpt>
      <trkpt lat="43.66346" lon="5.83002">
        <ele>467</ele>
        <time>2016-03-19T10:46:03.141Z</time>
      </trkpt>
      <trkpt lat="43.66338" lon="5.83006">
        <ele>467</ele>
        <time>2016-03-19T10:46:05.169Z</time>
      </trkpt>
      <trkpt lat="43.66335" lon="5.83008">
        <ele>467</ele>
        <time>2016-03-19T10:46:06.141Z</time>
      </trkpt>
      <trkpt lat="43.6633" lon="5.83011">
        <ele>467</ele>
        <time>2016-03-19T10:46:07.162Z</time>
      </trkpt>
      <trkpt lat="43.66326" lon="5.83012">
        <ele>467</ele>
        <time>2016-03-19T10:46:08.136Z</time>
      </trkpt>
      <trkpt lat="43.66321" lon="5.83014">
        <ele>467</ele>
        <time>2016-03-19T10:46:09.167Z</time>
      </trkpt>
      <trkpt lat="43.66316" lon="5.83016">
        <ele>467</ele>
        <time>2016-03-19T10:46:10.141Z</time>
      </trkpt>
      <trkpt lat="43.66308" lon="5.83018">
        <ele>467</ele>
        <time>2016-03-19T10:46:12.171Z</time>
      </trkpt>
      <trkpt lat="43.66303" lon="5.83019">
        <ele>467</ele>
        <time>2016-03-19T10:46:13.141Z</time>
      </trkpt>
      <trkpt lat="43.66295" lon="5.83025">
        <ele>467</ele>
        <time>2016-03-19T10:46:15.209Z</time>
      </trkpt>
      <trkpt lat="43.66292" lon="5.83031">
        <ele>467</ele>
        <time>2016-03-19T10:46:16.142Z</time>
      </trkpt>
      <trkpt lat="43.66288" lon="5.83041">
        <ele>467</ele>
        <time>2016-03-19T10:46:18.153Z</time>
      </trkpt>
      <trkpt lat="43.66285" lon="5.83045">
        <ele>467</ele>
        <time>2016-03-19T10:46:19.135Z</time>
      </trkpt>
      <trkpt lat="43.66278" lon="5.83049">
        <ele>466</ele>
        <time>2016-03-19T10:46:21.169Z</time>
      </trkpt>
      <trkpt lat="43.66275" lon="5.83051">
        <ele>466</ele>
        <time>2016-03-19T10:46:22.137Z</time>
      </trkpt>
      <trkpt lat="43.66269" lon="5.83056">
        <ele>466</ele>
        <time>2016-03-19T10:46:24.171Z</time>
      </trkpt>
      <trkpt lat="43.66265" lon="5.83058">
        <ele>467</ele>
        <time>2016-03-19T10:46:25.142Z</time>
      </trkpt>
      <trkpt lat="43.66257" lon="5.83064">
        <ele>466</ele>
        <time>2016-03-19T10:46:27.166Z</time>
      </trkpt>
      <trkpt lat="43.66253" lon="5.83067">
        <ele>466</ele>
        <time>2016-03-19T10:46:28.140Z</time>
      </trkpt>
      <trkpt lat="43.66245" lon="5.83073">
        <ele>466</ele>
        <time>2016-03-19T10:46:30.171Z</time>
      </trkpt>
      <trkpt lat="43.66242" lon="5.83076">
        <ele>466</ele>
        <time>2016-03-19T10:46:31.142Z</time>
      </trkpt>
      <trkpt lat="43.66235" lon="5.83082">
        <ele>466</ele>
        <time>2016-03-19T10:46:33.199Z</time>
      </trkpt>
      <trkpt lat="43.66231" lon="5.83086">
        <ele>466</ele>
        <time>2016-03-19T10:46:34.142Z</time>
      </trkpt>
      <trkpt lat="43.66224" lon="5.83092">
        <ele>466</ele>
        <time>2016-03-19T10:46:36.165Z</time>
      </trkpt>
      <trkpt lat="43.6622" lon="5.83095">
        <ele>465</ele>
        <time>2016-03-19T10:46:37.136Z</time>
      </trkpt>
      <trkpt lat="43.66213" lon="5.83101">
        <ele>465</ele>
        <time>2016-03-19T10:46:39.161Z</time>
      </trkpt>
      <trkpt lat="43.66209" lon="5.83104">
        <ele>465</ele>
        <time>2016-03-19T10:46:40.137Z</time>
      </trkpt>
      <trkpt lat="43.66202" lon="5.83109">
        <ele>465</ele>
        <time>2016-03-19T10:46:42.166Z</time>
      </trkpt>
      <trkpt lat="43.66199" lon="5.83112">
        <ele>464</ele>
        <time>2016-03-19T10:46:43.141Z</time>
      </trkpt>
      <trkpt lat="43.66194" lon="5.8312">
        <ele>464</ele>
        <time>2016-03-19T10:46:45.170Z</time>
      </trkpt>
      <trkpt lat="43.66192" lon="5.83124">
        <ele>464</ele>
        <time>2016-03-19T10:46:46.141Z</time>
      </trkpt>
      <trkpt lat="43.6619" lon="5.83133">
        <ele>464</ele>
        <time>2016-03-19T10:46:48.174Z</time>
      </trkpt>
      <trkpt lat="43.6619" lon="5.83138">
        <ele>464</ele>
        <time>2016-03-19T10:46:49.142Z</time>
      </trkpt>
      <trkpt lat="43.66188" lon="5.83148">
        <ele>463</ele>
        <time>2016-03-19T10:46:51.168Z</time>
      </trkpt>
      <trkpt lat="43.66186" lon="5.83152">
        <ele>463</ele>
        <time>2016-03-19T10:46:52.141Z</time>
      </trkpt>
      <trkpt lat="43.66184" lon="5.83163">
        <ele>463</ele>
        <time>2016-03-19T10:46:54.193Z</time>
      </trkpt>
      <trkpt lat="43.66183" lon="5.83168">
        <ele>463</ele>
        <time>2016-03-19T10:46:55.143Z</time>
      </trkpt>
      <trkpt lat="43.66183" lon="5.83179">
        <ele>462</ele>
        <time>2016-03-19T10:46:57.173Z</time>
      </trkpt>
      <trkpt lat="43.66181" lon="5.83184">
        <ele>462</ele>
        <time>2016-03-19T10:46:58.142Z</time>
      </trkpt>
      <trkpt lat="43.66176" lon="5.8319">
        <ele>462</ele>
        <time>2016-03-19T10:47:00.168Z</time>
      </trkpt>
      <trkpt lat="43.66173" lon="5.83194">
        <ele>462</ele>
        <time>2016-03-19T10:47:01.141Z</time>
      </trkpt>
      <trkpt lat="43.66167" lon="5.83201">
        <ele>462</ele>
        <time>2016-03-19T10:47:03.171Z</time>
      </trkpt>
      <trkpt lat="43.66163" lon="5.83204">
        <ele>462</ele>
        <time>2016-03-19T10:47:04.141Z</time>
      </trkpt>
      <trkpt lat="43.66155" lon="5.83209">
        <ele>461</ele>
        <time>2016-03-19T10:47:06.164Z</time>
      </trkpt>
      <trkpt lat="43.66152" lon="5.83213">
        <ele>461</ele>
        <time>2016-03-19T10:47:07.141Z</time>
      </trkpt>
      <trkpt lat="43.66147" lon="5.83222">
        <ele>461</ele>
        <time>2016-03-19T10:47:09.194Z</time>
      </trkpt>
      <trkpt lat="43.66145" lon="5.83227">
        <ele>461</ele>
        <time>2016-03-19T10:47:10.142Z</time>
      </trkpt>
      <trkpt lat="43.66142" lon="5.83238">
        <ele>460</ele>
        <time>2016-03-19T10:47:12.190Z</time>
      </trkpt>
      <trkpt lat="43.66139" lon="5.83242">
        <ele>460</ele>
        <time>2016-03-19T10:47:13.138Z</time>
      </trkpt>
      <trkpt lat="43.66134" lon="5.83246">
        <ele>460</ele>
        <time>2016-03-19T10:47:15.217Z</time>
      </trkpt>
      <trkpt lat="43.6613" lon="5.83246">
        <ele>460</ele>
        <time>2016-03-19T10:47:16.137Z</time>
      </trkpt>
      <trkpt lat="43.66123" lon="5.83247">
        <ele>460</ele>
        <time>2016-03-19T10:47:18.165Z</time>
      </trkpt>
      <trkpt lat="43.6612" lon="5.83249">
        <ele>460</ele>
        <time>2016-03-19T10:47:19.141Z</time>
      </trkpt>
      <trkpt lat="43.66114" lon="5.83257">
        <ele>460</ele>
        <time>2016-03-19T10:47:21.172Z</time>
      </trkpt>
      <trkpt lat="43.66112" lon="5.83261">
        <ele>460</ele>
        <time>2016-03-19T10:47:22.141Z</time>
      </trkpt>
      <trkpt lat="43.66107" lon="5.83268">
        <ele>460</ele>
        <time>2016-03-19T10:47:24.209Z</time>
      </trkpt>
      <trkpt lat="43.66104" lon="5.83272">
        <ele>460</ele>
        <time>2016-03-19T10:47:25.140Z</time>
      </trkpt>
      <trkpt lat="43.66099" lon="5.83278">
        <ele>460</ele>
        <time>2016-03-19T10:47:27.167Z</time>
      </trkpt>
      <trkpt lat="43.66097" lon="5.83283">
        <ele>459</ele>
        <time>2016-03-19T10:47:28.137Z</time>
      </trkpt>
      <trkpt lat="43.66094" lon="5.83291">
        <ele>459</ele>
        <time>2016-03-19T10:47:30.170Z</time>
      </trkpt>
      <trkpt lat="43.66092" lon="5.83294">
        <ele>459</ele>
        <time>2016-03-19T10:47:31.233Z</time>
      </trkpt>
      <trkpt lat="43.66086" lon="5.83299">
        <ele>458</ele>
        <time>2016-03-19T10:47:33.148Z</time>
      </trkpt>
      <trkpt lat="43.66084" lon="5.83301">
        <ele>458</ele>
        <time>2016-03-19T10:47:34.141Z</time>
      </trkpt>
      <trkpt lat="43.66078" lon="5.83309">
        <ele>457</ele>
        <time>2016-03-19T10:47:36.170Z</time>
      </trkpt>
      <trkpt lat="43.66076" lon="5.83313">
        <ele>457</ele>
        <time>2016-03-19T10:47:37.141Z</time>
      </trkpt>
      <trkpt lat="43.66071" lon="5.83321">
        <ele>456</ele>
        <time>2016-03-19T10:47:39.421Z</time>
      </trkpt>
      <trkpt lat="43.66068" lon="5.83325">
        <ele>456</ele>
        <time>2016-03-19T10:47:40.142Z</time>
      </trkpt>
      <trkpt lat="43.66062" lon="5.8333">
        <ele>456</ele>
        <time>2016-03-19T10:47:42.193Z</time>
      </trkpt>
      <trkpt lat="43.6606" lon="5.83334">
        <ele>456</ele>
        <time>2016-03-19T10:47:43.141Z</time>
      </trkpt>
      <trkpt lat="43.66058" lon="5.83345">
        <ele>455</ele>
        <time>2016-03-19T10:47:45.166Z</time>
      </trkpt>
      <trkpt lat="43.66059" lon="5.83351">
        <ele>455</ele>
        <time>2016-03-19T10:47:46.139Z</time>
      </trkpt>
      <trkpt lat="43.66061" lon="5.83361">
        <ele>455</ele>
        <time>2016-03-19T10:47:48.166Z</time>
      </trkpt>
      <trkpt lat="43.66063" lon="5.83367">
        <ele>454</ele>
        <time>2016-03-19T10:47:49.142Z</time>
      </trkpt>
      <trkpt lat="43.66066" lon="5.83376">
        <ele>455</ele>
        <time>2016-03-19T10:47:51.167Z</time>
      </trkpt>
      <trkpt lat="43.66068" lon="5.83381">
        <ele>455</ele>
        <time>2016-03-19T10:47:52.137Z</time>
      </trkpt>
      <trkpt lat="43.66072" lon="5.8339">
        <ele>455</ele>
        <time>2016-03-19T10:47:54.171Z</time>
      </trkpt>
      <trkpt lat="43.66075" lon="5.83395">
        <ele>455</ele>
        <time>2016-03-19T10:47:55.142Z</time>
      </trkpt>
      <trkpt lat="43.6608" lon="5.83403">
        <ele>455</ele>
        <time>2016-03-19T10:47:57.171Z</time>
      </trkpt>
      <trkpt lat="43.66083" lon="5.83406">
        <ele>455</ele>
        <time>2016-03-19T10:47:58.168Z</time>
      </trkpt>
      <trkpt lat="43.66088" lon="5.83415">
        <ele>456</ele>
        <time>2016-03-19T10:48:00.170Z</time>
      </trkpt>
      <trkpt lat="43.66089" lon="5.8342">
        <ele>456</ele>
        <time>2016-03-19T10:48:01.138Z</time>
      </trkpt>
      <trkpt lat="43.66092" lon="5.83429">
        <ele>455</ele>
        <time>2016-03-19T10:48:03.154Z</time>
      </trkpt>
      <trkpt lat="43.66092" lon="5.83434">
        <ele>455</ele>
        <time>2016-03-19T10:48:04.137Z</time>
      </trkpt>
      <trkpt lat="43.66093" lon="5.83442">
        <ele>455</ele>
        <time>2016-03-19T10:48:06.243Z</time>
      </trkpt>
      <trkpt lat="43.66092" lon="5.83447">
        <ele>455</ele>
        <time>2016-03-19T10:48:07.136Z</time>
      </trkpt>
      <trkpt lat="43.66091" lon="5.83457">
        <ele>455</ele>
        <time>2016-03-19T10:48:09.195Z</time>
      </trkpt>
      <trkpt lat="43.6609" lon="5.83464">
        <ele>454</ele>
        <time>2016-03-19T10:48:10.143Z</time>
      </trkpt>
      <trkpt lat="43.66091" lon="5.83475">
        <ele>455</ele>
        <time>2016-03-19T10:48:12.167Z</time>
      </trkpt>
      <trkpt lat="43.66092" lon="5.83481">
        <ele>454</ele>
        <time>2016-03-19T10:48:13.141Z</time>
      </trkpt>
      <trkpt lat="43.66093" lon="5.83487">
        <ele>454</ele>
        <time>2016-03-19T10:48:14.403Z</time>
      </trkpt>
      <trkpt lat="43.66096" lon="5.83493">
        <ele>454</ele>
        <time>2016-03-19T10:48:15.142Z</time>
      </trkpt>
      <trkpt lat="43.66098" lon="5.83499">
        <ele>453</ele>
        <time>2016-03-19T10:48:16.162Z</time>
      </trkpt>
      <trkpt lat="43.661" lon="5.83504">
        <ele>453</ele>
        <time>2016-03-19T10:48:17.142Z</time>
      </trkpt>
      <trkpt lat="43.66102" lon="5.8351">
        <ele>452</ele>
        <time>2016-03-19T10:48:18.160Z</time>
      </trkpt>
      <trkpt lat="43.66103" lon="5.83516">
        <ele>452</ele>
        <time>2016-03-19T10:48:19.142Z</time>
      </trkpt>
      <trkpt lat="43.66105" lon="5.83522">
        <ele>452</ele>
        <time>2016-03-19T10:48:20.162Z</time>
      </trkpt>
      <trkpt lat="43.66106" lon="5.83528">
        <ele>452</ele>
        <time>2016-03-19T10:48:21.142Z</time>
      </trkpt>
      <trkpt lat="43.66108" lon="5.8354">
        <ele>451</ele>
        <time>2016-03-19T10:48:23.171Z</time>
      </trkpt>
      <trkpt lat="43.66109" lon="5.83546">
        <ele>451</ele>
        <time>2016-03-19T10:48:24.137Z</time>
      </trkpt>
      <trkpt lat="43.66108" lon="5.83552">
        <ele>451</ele>
        <time>2016-03-19T10:48:25.167Z</time>
      </trkpt>
      <trkpt lat="43.66108" lon="5.83558">
        <ele>451</ele>
        <time>2016-03-19T10:48:26.351Z</time>
      </trkpt>
      <trkpt lat="43.66106" lon="5.83565">
        <ele>451</ele>
        <time>2016-03-19T10:48:27.167Z</time>
      </trkpt>
      <trkpt lat="43.66105" lon="5.83571">
        <ele>450</ele>
        <time>2016-03-19T10:48:28.142Z</time>
      </trkpt>
      <trkpt lat="43.661" lon="5.83581">
        <ele>451</ele>
        <time>2016-03-19T10:48:30.195Z</time>
      </trkpt>
      <trkpt lat="43.66099" lon="5.83586">
        <ele>451</ele>
        <time>2016-03-19T10:48:31.137Z</time>
      </trkpt>
      <trkpt lat="43.66097" lon="5.83593">
        <ele>450</ele>
        <time>2016-03-19T10:48:32.168Z</time>
      </trkpt>
      <trkpt lat="43.66098" lon="5.836">
        <ele>451</ele>
        <time>2016-03-19T10:48:33.142Z</time>
      </trkpt>
      <trkpt lat="43.66101" lon="5.83607">
        <ele>451</ele>
        <time>2016-03-19T10:48:34.166Z</time>
      </trkpt>
      <trkpt lat="43.66104" lon="5.83612">
        <ele>451</ele>
        <time>2016-03-19T10:48:35.141Z</time>
      </trkpt>
      <trkpt lat="43.66107" lon="5.83616">
        <ele>451</ele>
        <time>2016-03-19T10:48:36.167Z</time>
      </trkpt>
      <trkpt lat="43.66111" lon="5.83622">
        <ele>452</ele>
        <time>2016-03-19T10:48:37.142Z</time>
      </trkpt>
      <trkpt lat="43.66117" lon="5.83628">
        <ele>452</ele>
        <time>2016-03-19T10:48:39.170Z</time>
      </trkpt>
      <trkpt lat="43.66121" lon="5.83632">
        <ele>452</ele>
        <time>2016-03-19T10:48:40.141Z</time>
      </trkpt>
      <trkpt lat="43.66127" lon="5.83641">
        <ele>452</ele>
        <time>2016-03-19T10:48:42.177Z</time>
      </trkpt>
      <trkpt lat="43.6613" lon="5.83646">
        <ele>451</ele>
        <time>2016-03-19T10:48:43.137Z</time>
      </trkpt>
      <trkpt lat="43.66133" lon="5.83651">
        <ele>451</ele>
        <time>2016-03-19T10:48:44.169Z</time>
      </trkpt>
      <trkpt lat="43.66136" lon="5.83656">
        <ele>451</ele>
        <time>2016-03-19T10:48:45.141Z</time>
      </trkpt>
      <trkpt lat="43.66141" lon="5.83665">
        <ele>451</ele>
        <time>2016-03-19T10:48:47.162Z</time>
      </trkpt>
      <trkpt lat="43.66143" lon="5.8367">
        <ele>451</ele>
        <time>2016-03-19T10:48:48.142Z</time>
      </trkpt>
      <trkpt lat="43.66148" lon="5.8368">
        <ele>450</ele>
        <time>2016-03-19T10:48:50.165Z</time>
      </trkpt>
      <trkpt lat="43.66151" lon="5.83684">
        <ele>451</ele>
        <time>2016-03-19T10:48:51.136Z</time>
      </trkpt>
      <trkpt lat="43.66154" lon="5.83689">
        <ele>450</ele>
        <time>2016-03-19T10:48:52.165Z</time>
      </trkpt>
      <trkpt lat="43.66157" lon="5.83694">
        <ele>449</ele>
        <time>2016-03-19T10:48:53.142Z</time>
      </trkpt>
      <trkpt lat="43.6616" lon="5.83705">
        <ele>449</ele>
        <time>2016-03-19T10:48:55.167Z</time>
      </trkpt>
      <trkpt lat="43.66162" lon="5.83711">
        <ele>449</ele>
        <time>2016-03-19T10:48:56.143Z</time>
      </trkpt>
      <trkpt lat="43.66164" lon="5.83723">
        <ele>449</ele>
        <time>2016-03-19T10:48:58.170Z</time>
      </trkpt>
      <trkpt lat="43.66166" lon="5.83728">
        <ele>449</ele>
        <time>2016-03-19T10:48:59.141Z</time>
      </trkpt>
      <trkpt lat="43.66168" lon="5.83738">
        <ele>449</ele>
        <time>2016-03-19T10:49:01.156Z</time>
      </trkpt>
      <trkpt lat="43.66169" lon="5.83744">
        <ele>449</ele>
        <time>2016-03-19T10:49:02.143Z</time>
      </trkpt>
      <trkpt lat="43.6617" lon="5.8375">
        <ele>448</ele>
        <time>2016-03-19T10:49:03.167Z</time>
      </trkpt>
      <trkpt lat="43.66171" lon="5.83757">
        <ele>448</ele>
        <time>2016-03-19T10:49:04.144Z</time>
      </trkpt>
      <trkpt lat="43.66173" lon="5.83763">
        <ele>448</ele>
        <time>2016-03-19T10:49:05.162Z</time>
      </trkpt>
      <trkpt lat="43.66175" lon="5.8377">
        <ele>447</ele>
        <time>2016-03-19T10:49:06.142Z</time>
      </trkpt>
      <trkpt lat="43.66177" lon="5.83777">
        <ele>447</ele>
        <time>2016-03-19T10:49:07.193Z</time>
      </trkpt>
      <trkpt lat="43.66179" lon="5.83785">
        <ele>446</ele>
        <time>2016-03-19T10:49:08.142Z</time>
      </trkpt>
      <trkpt lat="43.66184" lon="5.83793">
        <ele>446</ele>
        <time>2016-03-19T10:49:10.163Z</time>
      </trkpt>
      <trkpt lat="43.66189" lon="5.83795">
        <ele>447</ele>
        <time>2016-03-19T10:49:11.143Z</time>
      </trkpt>
      <trkpt lat="43.66195" lon="5.83801">
        <ele>447</ele>
        <time>2016-03-19T10:49:13.150Z</time>
      </trkpt>
      <trkpt lat="43.66199" lon="5.83806">
        <ele>446</ele>
        <time>2016-03-19T10:49:14.139Z</time>
      </trkpt>
      <trkpt lat="43.66203" lon="5.83809">
        <ele>448</ele>
        <time>2016-03-19T10:49:15.189Z</time>
      </trkpt>
      <trkpt lat="43.66207" lon="5.83811">
        <ele>447</ele>
        <time>2016-03-19T10:49:16.143Z</time>
      </trkpt>
      <trkpt lat="43.66215" lon="5.83817">
        <ele>447</ele>
        <time>2016-03-19T10:49:18.171Z</time>
      </trkpt>
      <trkpt lat="43.66219" lon="5.83819">
        <ele>448</ele>
        <time>2016-03-19T10:49:19.143Z</time>
      </trkpt>
      <trkpt lat="43.66225" lon="5.83821">
        <ele>449</ele>
        <time>2016-03-19T10:49:21.157Z</time>
      </trkpt>
      <trkpt lat="43.66228" lon="5.83823">
        <ele>449</ele>
        <time>2016-03-19T10:49:22.137Z</time>
      </trkpt>
      <trkpt lat="43.66236" lon="5.83827">
        <ele>450</ele>
        <time>2016-03-19T10:49:25.173Z</time>
      </trkpt>
      <trkpt lat="43.66239" lon="5.83829">
        <ele>450</ele>
        <time>2016-03-19T10:49:26.143Z</time>
      </trkpt>
      <trkpt lat="43.66246" lon="5.83835">
        <ele>450</ele>
        <time>2016-03-19T10:49:29.171Z</time>
      </trkpt>
      <trkpt lat="43.66249" lon="5.83837">
        <ele>451</ele>
        <time>2016-03-19T10:49:30.144Z</time>
      </trkpt>
      <trkpt lat="43.66254" lon="5.83841">
        <ele>452</ele>
        <time>2016-03-19T10:49:32.171Z</time>
      </trkpt>
      <trkpt lat="43.66257" lon="5.83844">
        <ele>452</ele>
        <time>2016-03-19T10:49:33.146Z</time>
      </trkpt>
      <trkpt lat="43.66262" lon="5.83847">
        <ele>452</ele>
        <time>2016-03-19T10:49:35.173Z</time>
      </trkpt>
      <trkpt lat="43.66265" lon="5.83849">
        <ele>452</ele>
        <time>2016-03-19T10:49:36.144Z</time>
      </trkpt>
      <trkpt lat="43.66273" lon="5.83853">
        <ele>453</ele>
        <time>2016-03-19T10:49:39.171Z</time>
      </trkpt>
      <trkpt lat="43.66276" lon="5.83855">
        <ele>454</ele>
        <time>2016-03-19T10:49:40.139Z</time>
      </trkpt>
      <trkpt lat="43.66284" lon="5.83858">
        <ele>454</ele>
        <time>2016-03-19T10:49:43.173Z</time>
      </trkpt>
      <trkpt lat="43.66287" lon="5.8386">
        <ele>454</ele>
        <time>2016-03-19T10:49:44.143Z</time>
      </trkpt>
      <trkpt lat="43.66292" lon="5.83863">
        <ele>454</ele>
        <time>2016-03-19T10:49:46.168Z</time>
      </trkpt>
      <trkpt lat="43.66295" lon="5.83865">
        <ele>453</ele>
        <time>2016-03-19T10:49:47.144Z</time>
      </trkpt>
      <trkpt lat="43.663" lon="5.8387">
        <ele>453</ele>
        <time>2016-03-19T10:49:49.168Z</time>
      </trkpt>
      <trkpt lat="43.66302" lon="5.83873">
        <ele>453</ele>
        <time>2016-03-19T10:49:50.143Z</time>
      </trkpt>
      <trkpt lat="43.66307" lon="5.8388">
        <ele>453</ele>
        <time>2016-03-19T10:49:52.172Z</time>
      </trkpt>
      <trkpt lat="43.66309" lon="5.83883">
        <ele>453</ele>
        <time>2016-03-19T10:49:53.144Z</time>
      </trkpt>
      <trkpt lat="43.66314" lon="5.83891">
        <ele>453</ele>
        <time>2016-03-19T10:49:55.162Z</time>
      </trkpt>
      <trkpt lat="43.66317" lon="5.83894">
        <ele>453</ele>
        <time>2016-03-19T10:49:56.140Z</time>
      </trkpt>
      <trkpt lat="43.66322" lon="5.83901">
        <ele>452</ele>
        <time>2016-03-19T10:49:58.179Z</time>
      </trkpt>
      <trkpt lat="43.66325" lon="5.83905">
        <ele>452</ele>
        <time>2016-03-19T10:49:59.137Z</time>
      </trkpt>
      <trkpt lat="43.66332" lon="5.83912">
        <ele>451</ele>
        <time>2016-03-19T10:50:01.195Z</time>
      </trkpt>
      <trkpt lat="43.66338" lon="5.83917">
        <ele>452</ele>
        <time>2016-03-19T10:50:02.139Z</time>
      </trkpt>
      <trkpt lat="43.66343" lon="5.83925">
        <ele>452</ele>
        <time>2016-03-19T10:50:04.173Z</time>
      </trkpt>
      <trkpt lat="43.66345" lon="5.8393">
        <ele>452</ele>
        <time>2016-03-19T10:50:05.138Z</time>
      </trkpt>
      <trkpt lat="43.6635" lon="5.83939">
        <ele>452</ele>
        <time>2016-03-19T10:50:07.245Z</time>
      </trkpt>
      <trkpt lat="43.66352" lon="5.83944">
        <ele>451</ele>
        <time>2016-03-19T10:50:08.144Z</time>
      </trkpt>
      <trkpt lat="43.66354" lon="5.83948">
        <ele>452</ele>
        <time>2016-03-19T10:50:09.169Z</time>
      </trkpt>
      <trkpt lat="43.66357" lon="5.83953">
        <ele>451</ele>
        <time>2016-03-19T10:50:10.144Z</time>
      </trkpt>
      <trkpt lat="43.66364" lon="5.83961">
        <ele>451</ele>
        <time>2016-03-19T10:50:12.168Z</time>
      </trkpt>
      <trkpt lat="43.66367" lon="5.83966">
        <ele>451</ele>
        <time>2016-03-19T10:50:13.143Z</time>
      </trkpt>
      <trkpt lat="43.6637" lon="5.83971">
        <ele>451</ele>
        <time>2016-03-19T10:50:14.168Z</time>
      </trkpt>
      <trkpt lat="43.66373" lon="5.83976">
        <ele>451</ele>
        <time>2016-03-19T10:50:15.142Z</time>
      </trkpt>
      <trkpt lat="43.66376" lon="5.83981">
        <ele>451</ele>
        <time>2016-03-19T10:50:16.171Z</time>
      </trkpt>
      <trkpt lat="43.66379" lon="5.83986">
        <ele>451</ele>
        <time>2016-03-19T10:50:17.143Z</time>
      </trkpt>
      <trkpt lat="43.66382" lon="5.83992">
        <ele>451</ele>
        <time>2016-03-19T10:50:18.168Z</time>
      </trkpt>
      <trkpt lat="43.66385" lon="5.83996">
        <ele>451</ele>
        <time>2016-03-19T10:50:19.143Z</time>
      </trkpt>
      <trkpt lat="43.66387" lon="5.84001">
        <ele>451</ele>
        <time>2016-03-19T10:50:20.158Z</time>
      </trkpt>
      <trkpt lat="43.66391" lon="5.84006">
        <ele>451</ele>
        <time>2016-03-19T10:50:21.133Z</time>
      </trkpt>
      <trkpt lat="43.66398" lon="5.84012">
        <ele>451</ele>
        <time>2016-03-19T10:50:23.163Z</time>
      </trkpt>
      <trkpt lat="43.66402" lon="5.84015">
        <ele>451</ele>
        <time>2016-03-19T10:50:24.143Z</time>
      </trkpt>
      <trkpt lat="43.6641" lon="5.84022">
        <ele>451</ele>
        <time>2016-03-19T10:50:26.171Z</time>
      </trkpt>
      <trkpt lat="43.66412" lon="5.84026">
        <ele>451</ele>
        <time>2016-03-19T10:50:27.143Z</time>
      </trkpt>
      <trkpt lat="43.66415" lon="5.8403">
        <ele>451</ele>
        <time>2016-03-19T10:50:28.173Z</time>
      </trkpt>
      <trkpt lat="43.66418" lon="5.84035">
        <ele>451</ele>
        <time>2016-03-19T10:50:29.146Z</time>
      </trkpt>
      <trkpt lat="43.66424" lon="5.84043">
        <ele>451</ele>
        <time>2016-03-19T10:50:31.174Z</time>
      </trkpt>
      <trkpt lat="43.66427" lon="5.84048">
        <ele>451</ele>
        <time>2016-03-19T10:50:32.144Z</time>
      </trkpt>
      <trkpt lat="43.66433" lon="5.84056">
        <ele>452</ele>
        <time>2016-03-19T10:50:34.156Z</time>
      </trkpt>
      <trkpt lat="43.66436" lon="5.8406">
        <ele>452</ele>
        <time>2016-03-19T10:50:35.141Z</time>
      </trkpt>
      <trkpt lat="43.66441" lon="5.84061">
        <ele>452</ele>
        <time>2016-03-19T10:50:36.168Z</time>
      </trkpt>
      <trkpt lat="43.66445" lon="5.84063">
        <ele>452</ele>
        <time>2016-03-19T10:50:37.141Z</time>
      </trkpt>
      <trkpt lat="43.66453" lon="5.84066">
        <ele>452</ele>
        <time>2016-03-19T10:50:39.170Z</time>
      </trkpt>
      <trkpt lat="43.66456" lon="5.84068">
        <ele>452</ele>
        <time>2016-03-19T10:50:40.130Z</time>
      </trkpt>
      <trkpt lat="43.66464" lon="5.84072">
        <ele>452</ele>
        <time>2016-03-19T10:50:42.163Z</time>
      </trkpt>
      <trkpt lat="43.66467" lon="5.84073">
        <ele>452</ele>
        <time>2016-03-19T10:50:43.141Z</time>
      </trkpt>
      <trkpt lat="43.66475" lon="5.84071">
        <ele>452</ele>
        <time>2016-03-19T10:50:45.163Z</time>
      </trkpt>
      <trkpt lat="43.66478" lon="5.84071">
        <ele>453</ele>
        <time>2016-03-19T10:50:46.142Z</time>
      </trkpt>
      <trkpt lat="43.66484" lon="5.84076">
        <ele>452</ele>
        <time>2016-03-19T10:50:48.360Z</time>
      </trkpt>
      <trkpt lat="43.66486" lon="5.84079">
        <ele>452</ele>
        <time>2016-03-19T10:50:49.144Z</time>
      </trkpt>
      <trkpt lat="43.66491" lon="5.84086">
        <ele>453</ele>
        <time>2016-03-19T10:50:51.166Z</time>
      </trkpt>
      <trkpt lat="43.66494" lon="5.84088">
        <ele>453</ele>
        <time>2016-03-19T10:50:52.142Z</time>
      </trkpt>
      <trkpt lat="43.66499" lon="5.84094">
        <ele>455</ele>
        <time>2016-03-19T10:50:54.164Z</time>
      </trkpt>
      <trkpt lat="43.66502" lon="5.84097">
        <ele>455</ele>
        <time>2016-03-19T10:50:55.141Z</time>
      </trkpt>
      <trkpt lat="43.66508" lon="5.84102">
        <ele>455</ele>
        <time>2016-03-19T10:50:57.164Z</time>
      </trkpt>
      <trkpt lat="43.66511" lon="5.84105">
        <ele>455</ele>
        <time>2016-03-19T10:50:58.137Z</time>
      </trkpt>
      <trkpt lat="43.66517" lon="5.84107">
        <ele>455</ele>
        <time>2016-03-19T10:51:00.163Z</time>
      </trkpt>
      <trkpt lat="43.66521" lon="5.84107">
        <ele>456</ele>
        <time>2016-03-19T10:51:01.144Z</time>
      </trkpt>
      <trkpt lat="43.66527" lon="5.84103">
        <ele>456</ele>
        <time>2016-03-19T10:51:03.160Z</time>
      </trkpt>
      <trkpt lat="43.6653" lon="5.84102">
        <ele>457</ele>
        <time>2016-03-19T10:51:04.138Z</time>
      </trkpt>
      <trkpt lat="43.66536" lon="5.84101">
        <ele>457</ele>
        <time>2016-03-19T10:51:06.164Z</time>
      </trkpt>
      <trkpt lat="43.66539" lon="5.84103">
        <ele>457</ele>
        <time>2016-03-19T10:51:07.141Z</time>
      </trkpt>
      <trkpt lat="43.66545" lon="5.84109">
        <ele>457</ele>
        <time>2016-03-19T10:51:09.163Z</time>
      </trkpt>
      <trkpt lat="43.66548" lon="5.84111">
        <ele>457</ele>
        <time>2016-03-19T10:51:10.136Z</time>
      </trkpt>
      <trkpt lat="43.66554" lon="5.84115">
        <ele>457</ele>
        <time>2016-03-19T10:51:12.162Z</time>
      </trkpt>
      <trkpt lat="43.66557" lon="5.84117">
        <ele>456</ele>
        <time>2016-03-19T10:51:13.142Z</time>
      </trkpt>
      <trkpt lat="43.66563" lon="5.84125">
        <ele>456</ele>
        <time>2016-03-19T10:51:16.180Z</time>
      </trkpt>
      <trkpt lat="43.66566" lon="5.84128">
        <ele>456</ele>
        <time>2016-03-19T10:51:17.142Z</time>
      </trkpt>
      <trkpt lat="43.66572" lon="5.84132">
        <ele>456</ele>
        <time>2016-03-19T10:51:19.163Z</time>
      </trkpt>
      <trkpt lat="43.66575" lon="5.84135">
        <ele>456</ele>
        <time>2016-03-19T10:51:20.136Z</time>
      </trkpt>
      <trkpt lat="43.6658" lon="5.8414">
        <ele>456</ele>
        <time>2016-03-19T10:51:22.162Z</time>
      </trkpt>
      <trkpt lat="43.66582" lon="5.84142">
        <ele>456</ele>
        <time>2016-03-19T10:51:23.142Z</time>
      </trkpt>
      <trkpt lat="43.66585" lon="5.84149">
        <ele>457</ele>
        <time>2016-03-19T10:51:25.163Z</time>
      </trkpt>
      <trkpt lat="43.66587" lon="5.84153">
        <ele>456</ele>
        <time>2016-03-19T10:51:26.142Z</time>
      </trkpt>
      <trkpt lat="43.66592" lon="5.84161">
        <ele>456</ele>
        <time>2016-03-19T10:51:28.148Z</time>
      </trkpt>
      <trkpt lat="43.66594" lon="5.84165">
        <ele>456</ele>
        <time>2016-03-19T10:51:29.131Z</time>
      </trkpt>
      <trkpt lat="43.666" lon="5.84171">
        <ele>456</ele>
        <time>2016-03-19T10:51:31.190Z</time>
      </trkpt>
      <trkpt lat="43.66603" lon="5.84173">
        <ele>456</ele>
        <time>2016-03-19T10:51:32.142Z</time>
      </trkpt>
      <trkpt lat="43.6661" lon="5.84174">
        <ele>458</ele>
        <time>2016-03-19T10:51:34.163Z</time>
      </trkpt>
      <trkpt lat="43.66614" lon="5.84174">
        <ele>458</ele>
        <time>2016-03-19T10:51:35.308Z</time>
      </trkpt>
      <trkpt lat="43.66621" lon="5.84173">
        <ele>459</ele>
        <time>2016-03-19T10:51:37.163Z</time>
      </trkpt>
      <trkpt lat="43.66623" lon="5.84173">
        <ele>459</ele>
        <time>2016-03-19T10:51:38.144Z</time>
      </trkpt>
      <trkpt lat="43.66632" lon="5.84172">
        <ele>460</ele>
        <time>2016-03-19T10:51:41.173Z</time>
      </trkpt>
      <trkpt lat="43.66634" lon="5.84173">
        <ele>460</ele>
        <time>2016-03-19T10:51:42.133Z</time>
      </trkpt>
      <trkpt lat="43.66642" lon="5.84178">
        <ele>460</ele>
        <time>2016-03-19T10:51:45.158Z</time>
      </trkpt>
      <trkpt lat="43.66644" lon="5.84182">
        <ele>459</ele>
        <time>2016-03-19T10:51:46.138Z</time>
      </trkpt>
      <trkpt lat="43.66649" lon="5.84188">
        <ele>460</ele>
        <time>2016-03-19T10:51:48.165Z</time>
      </trkpt>
      <trkpt lat="43.66652" lon="5.84191">
        <ele>461</ele>
        <time>2016-03-19T10:51:49.144Z</time>
      </trkpt>
      <trkpt lat="43.66658" lon="5.84196">
        <ele>460</ele>
        <time>2016-03-19T10:51:51.175Z</time>
      </trkpt>
      <trkpt lat="43.66661" lon="5.84199">
        <ele>460</ele>
        <time>2016-03-19T10:51:52.143Z</time>
      </trkpt>
      <trkpt lat="43.66666" lon="5.84205">
        <ele>460</ele>
        <time>2016-03-19T10:51:54.172Z</time>
      </trkpt>
      <trkpt lat="43.66669" lon="5.84208">
        <ele>460</ele>
        <time>2016-03-19T10:51:55.142Z</time>
      </trkpt>
      <trkpt lat="43.66674" lon="5.84214">
        <ele>459</ele>
        <time>2016-03-19T10:51:57.171Z</time>
      </trkpt>
      <trkpt lat="43.66677" lon="5.84218">
        <ele>459</ele>
        <time>2016-03-19T10:51:58.144Z</time>
      </trkpt>
      <trkpt lat="43.66683" lon="5.84226">
        <ele>459</ele>
        <time>2016-03-19T10:52:00.171Z</time>
      </trkpt>
      <trkpt lat="43.66686" lon="5.8423">
        <ele>460</ele>
        <time>2016-03-19T10:52:01.144Z</time>
      </trkpt>
      <trkpt lat="43.6669" lon="5.84237">
        <ele>459</ele>
        <time>2016-03-19T10:52:03.194Z</time>
      </trkpt>
      <trkpt lat="43.66692" lon="5.84241">
        <ele>460</ele>
        <time>2016-03-19T10:52:04.153Z</time>
      </trkpt>
      <trkpt lat="43.66695" lon="5.84249">
        <ele>460</ele>
        <time>2016-03-19T10:52:06.163Z</time>
      </trkpt>
      <trkpt lat="43.66697" lon="5.84254">
        <ele>460</ele>
        <time>2016-03-19T10:52:07.142Z</time>
      </trkpt>
      <trkpt lat="43.66699" lon="5.84261">
        <ele>461</ele>
        <time>2016-03-19T10:52:08.250Z</time>
      </trkpt>
      <trkpt lat="43.66702" lon="5.84267">
        <ele>461</ele>
        <time>2016-03-19T10:52:09.137Z</time>
      </trkpt>
      <trkpt lat="43.66705" lon="5.84272">
        <ele>461</ele>
        <time>2016-03-19T10:52:10.163Z</time>
      </trkpt>
      <trkpt lat="43.66708" lon="5.84277">
        <ele>460</ele>
        <time>2016-03-19T10:52:11.141Z</time>
      </trkpt>
      <trkpt lat="43.6671" lon="5.84282">
        <ele>459</ele>
        <time>2016-03-19T10:52:12.173Z</time>
      </trkpt>
      <trkpt lat="43.66713" lon="5.84287">
        <ele>460</ele>
        <time>2016-03-19T10:52:13.137Z</time>
      </trkpt>
      <trkpt lat="43.66719" lon="5.84296">
        <ele>459</ele>
        <time>2016-03-19T10:52:15.164Z</time>
      </trkpt>
      <trkpt lat="43.66721" lon="5.843">
        <ele>460</ele>
        <time>2016-03-19T10:52:16.142Z</time>
      </trkpt>
      <trkpt lat="43.66727" lon="5.84308">
        <ele>459</ele>
        <time>2016-03-19T10:52:18.156Z</time>
      </trkpt>
      <trkpt lat="43.66729" lon="5.84311">
        <ele>459</ele>
        <time>2016-03-19T10:52:19.146Z</time>
      </trkpt>
      <trkpt lat="43.66733" lon="5.84317">
        <ele>459</ele>
        <time>2016-03-19T10:52:21.164Z</time>
      </trkpt>
      <trkpt lat="43.66735" lon="5.8432">
        <ele>458</ele>
        <time>2016-03-19T10:52:22.142Z</time>
      </trkpt>
      <trkpt lat="43.66741" lon="5.84328">
        <ele>461</ele>
        <time>2016-03-19T10:52:25.163Z</time>
      </trkpt>
      <trkpt lat="43.66743" lon="5.84331">
        <ele>461</ele>
        <time>2016-03-19T10:52:26.142Z</time>
      </trkpt>
      <trkpt lat="43.66749" lon="5.84339">
        <ele>460</ele>
        <time>2016-03-19T10:52:29.149Z</time>
      </trkpt>
      <trkpt lat="43.66751" lon="5.84341">
        <ele>461</ele>
        <time>2016-03-19T10:52:30.142Z</time>
      </trkpt>
      <trkpt lat="43.66756" lon="5.84348">
        <ele>461</ele>
        <time>2016-03-19T10:52:33.164Z</time>
      </trkpt>
      <trkpt lat="43.66758" lon="5.8435">
        <ele>461</ele>
        <time>2016-03-19T10:52:34.141Z</time>
      </trkpt>
      <trkpt lat="43.66763" lon="5.84357">
        <ele>464</ele>
        <time>2016-03-19T10:52:38.160Z</time>
      </trkpt>
      <trkpt lat="43.66765" lon="5.84359">
        <ele>464</ele>
        <time>2016-03-19T10:52:39.143Z</time>
      </trkpt>
      <trkpt lat="43.66772" lon="5.84367">
        <ele>463</ele>
        <time>2016-03-19T10:52:43.171Z</time>
      </trkpt>
      <trkpt lat="43.66773" lon="5.84368">
        <ele>463</ele>
        <time>2016-03-19T10:52:44.135Z</time>
      </trkpt>
      <trkpt lat="43.66778" lon="5.84375">
        <ele>464</ele>
        <time>2016-03-19T10:52:47.383Z</time>
      </trkpt>
      <trkpt lat="43.6678" lon="5.84377">
        <ele>464</ele>
        <time>2016-03-19T10:52:48.138Z</time>
      </trkpt>
      <trkpt lat="43.66786" lon="5.84383">
        <ele>464</ele>
        <time>2016-03-19T10:52:51.279Z</time>
      </trkpt>
      <trkpt lat="43.66788" lon="5.84385">
        <ele>465</ele>
        <time>2016-03-19T10:52:52.144Z</time>
      </trkpt>
      <trkpt lat="43.66793" lon="5.84391">
        <ele>465</ele>
        <time>2016-03-19T10:52:55.169Z</time>
      </trkpt>
      <trkpt lat="43.66795" lon="5.84394">
        <ele>465</ele>
        <time>2016-03-19T10:52:56.143Z</time>
      </trkpt>
      <trkpt lat="43.668" lon="5.844">
        <ele>465</ele>
        <time>2016-03-19T10:52:59.387Z</time>
      </trkpt>
      <trkpt lat="43.66802" lon="5.84402">
        <ele>465</ele>
        <time>2016-03-19T10:53:00.145Z</time>
      </trkpt>
      <trkpt lat="43.66808" lon="5.84411">
        <ele>465</ele>
        <time>2016-03-19T10:53:04.174Z</time>
      </trkpt>
      <trkpt lat="43.66809" lon="5.84413">
        <ele>466</ele>
        <time>2016-03-19T10:53:05.143Z</time>
      </trkpt>
      <trkpt lat="43.66814" lon="5.8442">
        <ele>467</ele>
        <time>2016-03-19T10:53:09.163Z</time>
      </trkpt>
      <trkpt lat="43.66816" lon="5.84422">
        <ele>467</ele>
        <time>2016-03-19T10:53:10.143Z</time>
      </trkpt>
      <trkpt lat="43.66821" lon="5.84429">
        <ele>468</ele>
        <time>2016-03-19T10:53:14.171Z</time>
      </trkpt>
      <trkpt lat="43.66822" lon="5.84431">
        <ele>468</ele>
        <time>2016-03-19T10:53:15.144Z</time>
      </trkpt>
      <trkpt lat="43.66829" lon="5.84437">
        <ele>469</ele>
        <time>2016-03-19T10:53:20.169Z</time>
      </trkpt>
      <trkpt lat="43.66831" lon="5.84438">
        <ele>470</ele>
        <time>2016-03-19T10:53:21.146Z</time>
      </trkpt>
      <trkpt lat="43.66838" lon="5.84445">
        <ele>471</ele>
        <time>2016-03-19T10:53:26.172Z</time>
      </trkpt>
      <trkpt lat="43.66839" lon="5.84447">
        <ele>471</ele>
        <time>2016-03-19T10:53:27.143Z</time>
      </trkpt>
      <trkpt lat="43.66844" lon="5.84456">
        <ele>472</ele>
        <time>2016-03-19T10:53:32.173Z</time>
      </trkpt>
      <trkpt lat="43.66844" lon="5.84459">
        <ele>472</ele>
        <time>2016-03-19T10:53:33.144Z</time>
      </trkpt>
      <trkpt lat="43.6684" lon="5.84468">
        <ele>472</ele>
        <time>2016-03-19T10:53:37.162Z</time>
      </trkpt>
      <trkpt lat="43.66839" lon="5.84471">
        <ele>471</ele>
        <time>2016-03-19T10:53:38.144Z</time>
      </trkpt>
      <trkpt lat="43.66836" lon="5.84481">
        <ele>470</ele>
        <time>2016-03-19T10:53:41.171Z</time>
      </trkpt>
      <trkpt lat="43.66834" lon="5.84485">
        <ele>470</ele>
        <time>2016-03-19T10:53:42.145Z</time>
      </trkpt>
      <trkpt lat="43.66832" lon="5.84495">
        <ele>471</ele>
        <time>2016-03-19T10:53:45.199Z</time>
      </trkpt>
      <trkpt lat="43.66831" lon="5.84499">
        <ele>471</ele>
        <time>2016-03-19T10:53:46.144Z</time>
      </trkpt>
      <trkpt lat="43.66829" lon="5.84509">
        <ele>472</ele>
        <time>2016-03-19T10:53:49.394Z</time>
      </trkpt>
      <trkpt lat="43.66828" lon="5.84512">
        <ele>472</ele>
        <time>2016-03-19T10:53:50.144Z</time>
      </trkpt>
      <trkpt lat="43.66826" lon="5.84523">
        <ele>472</ele>
        <time>2016-03-19T10:53:53.173Z</time>
      </trkpt>
      <trkpt lat="43.66825" lon="5.84526">
        <ele>472</ele>
        <time>2016-03-19T10:53:54.143Z</time>
      </trkpt>
      <trkpt lat="43.66822" lon="5.84538">
        <ele>472</ele>
        <time>2016-03-19T10:53:57.165Z</time>
      </trkpt>
      <trkpt lat="43.66821" lon="5.84542">
        <ele>472</ele>
        <time>2016-03-19T10:53:58.143Z</time>
      </trkpt>
      <trkpt lat="43.66819" lon="5.8455">
        <ele>472</ele>
        <time>2016-03-19T10:54:00.362Z</time>
      </trkpt>
      <trkpt lat="43.66818" lon="5.84554">
        <ele>473</ele>
        <time>2016-03-19T10:54:01.170Z</time>
      </trkpt>
      <trkpt lat="43.66817" lon="5.84565">
        <ele>473</ele>
        <time>2016-03-19T10:54:04.162Z</time>
      </trkpt>
      <trkpt lat="43.66817" lon="5.84569">
        <ele>473</ele>
        <time>2016-03-19T10:54:05.144Z</time>
      </trkpt>
      <trkpt lat="43.66815" lon="5.84577">
        <ele>472</ele>
        <time>2016-03-19T10:54:07.159Z</time>
      </trkpt>
      <trkpt lat="43.66814" lon="5.84582">
        <ele>473</ele>
        <time>2016-03-19T10:54:08.145Z</time>
      </trkpt>
      <trkpt lat="43.66811" lon="5.84592">
        <ele>473</ele>
        <time>2016-03-19T10:54:10.168Z</time>
      </trkpt>
      <trkpt lat="43.6681" lon="5.84596">
        <ele>473</ele>
        <time>2016-03-19T10:54:11.140Z</time>
      </trkpt>
      <trkpt lat="43.66808" lon="5.84606">
        <ele>473</ele>
        <time>2016-03-19T10:54:13.158Z</time>
      </trkpt>
      <trkpt lat="43.66807" lon="5.8461">
        <ele>473</ele>
        <time>2016-03-19T10:54:14.144Z</time>
      </trkpt>
      <trkpt lat="43.66805" lon="5.84619">
        <ele>473</ele>
        <time>2016-03-19T10:54:16.175Z</time>
      </trkpt>
      <trkpt lat="43.66804" lon="5.84624">
        <ele>473</ele>
        <time>2016-03-19T10:54:17.171Z</time>
      </trkpt>
      <trkpt lat="43.66802" lon="5.84633">
        <ele>473</ele>
        <time>2016-03-19T10:54:19.170Z</time>
      </trkpt>
      <trkpt lat="43.66801" lon="5.84638">
        <ele>473</ele>
        <time>2016-03-19T10:54:20.144Z</time>
      </trkpt>
      <trkpt lat="43.66799" lon="5.84648">
        <ele>473</ele>
        <time>2016-03-19T10:54:22.196Z</time>
      </trkpt>
      <trkpt lat="43.66797" lon="5.84653">
        <ele>473</ele>
        <time>2016-03-19T10:54:23.144Z</time>
      </trkpt>
      <trkpt lat="43.66795" lon="5.84663">
        <ele>473</ele>
        <time>2016-03-19T10:54:25.172Z</time>
      </trkpt>
      <trkpt lat="43.66794" lon="5.84669">
        <ele>473</ele>
        <time>2016-03-19T10:54:26.143Z</time>
      </trkpt>
      <trkpt lat="43.66792" lon="5.84678">
        <ele>473</ele>
        <time>2016-03-19T10:54:28.172Z</time>
      </trkpt>
      <trkpt lat="43.66791" lon="5.84683">
        <ele>472</ele>
        <time>2016-03-19T10:54:29.143Z</time>
      </trkpt>
      <trkpt lat="43.66789" lon="5.84693">
        <ele>473</ele>
        <time>2016-03-19T10:54:31.167Z</time>
      </trkpt>
      <trkpt lat="43.66788" lon="5.84698">
        <ele>473</ele>
        <time>2016-03-19T10:54:32.143Z</time>
      </trkpt>
      <trkpt lat="43.66786" lon="5.84709">
        <ele>472</ele>
        <time>2016-03-19T10:54:34.172Z</time>
      </trkpt>
      <trkpt lat="43.66785" lon="5.84714">
        <ele>472</ele>
        <time>2016-03-19T10:54:35.143Z</time>
      </trkpt>
      <trkpt lat="43.66782" lon="5.84725">
        <ele>471</ele>
        <time>2016-03-19T10:54:37.173Z</time>
      </trkpt>
      <trkpt lat="43.6678" lon="5.8473">
        <ele>472</ele>
        <time>2016-03-19T10:54:38.163Z</time>
      </trkpt>
      <trkpt lat="43.66778" lon="5.84735">
        <ele>472</ele>
        <time>2016-03-19T10:54:39.169Z</time>
      </trkpt>
      <trkpt lat="43.66776" lon="5.84741">
        <ele>471</ele>
        <time>2016-03-19T10:54:40.143Z</time>
      </trkpt>
      <trkpt lat="43.66774" lon="5.8475">
        <ele>470</ele>
        <time>2016-03-19T10:54:41.169Z</time>
      </trkpt>
      <trkpt lat="43.66771" lon="5.84758">
        <ele>470</ele>
        <time>2016-03-19T10:54:42.142Z</time>
      </trkpt>
      <trkpt lat="43.66769" lon="5.84764">
        <ele>470</ele>
        <time>2016-03-19T10:54:43.199Z</time>
      </trkpt>
      <trkpt lat="43.66767" lon="5.84772">
        <ele>470</ele>
        <time>2016-03-19T10:54:44.143Z</time>
      </trkpt>
      <trkpt lat="43.66764" lon="5.84781">
        <ele>470</ele>
        <time>2016-03-19T10:54:45.174Z</time>
      </trkpt>
      <trkpt lat="43.66762" lon="5.84789">
        <ele>469</ele>
        <time>2016-03-19T10:54:46.144Z</time>
      </trkpt>
      <trkpt lat="43.66759" lon="5.84798">
        <ele>469</ele>
        <time>2016-03-19T10:54:47.171Z</time>
      </trkpt>
      <trkpt lat="43.66756" lon="5.84807">
        <ele>468</ele>
        <time>2016-03-19T10:54:48.143Z</time>
      </trkpt>
      <trkpt lat="43.66753" lon="5.84815">
        <ele>468</ele>
        <time>2016-03-19T10:54:49.168Z</time>
      </trkpt>
      <trkpt lat="43.6675" lon="5.84824">
        <ele>468</ele>
        <time>2016-03-19T10:54:50.143Z</time>
      </trkpt>
      <trkpt lat="43.66747" lon="5.84832">
        <ele>468</ele>
        <time>2016-03-19T10:54:51.245Z</time>
      </trkpt>
      <trkpt lat="43.66745" lon="5.8484">
        <ele>468</ele>
        <time>2016-03-19T10:54:52.144Z</time>
      </trkpt>
      <trkpt lat="43.66742" lon="5.84849">
        <ele>467</ele>
        <time>2016-03-19T10:54:53.168Z</time>
      </trkpt>
      <trkpt lat="43.66739" lon="5.84857">
        <ele>467</ele>
        <time>2016-03-19T10:54:54.132Z</time>
      </trkpt>
      <trkpt lat="43.66736" lon="5.84865">
        <ele>467</ele>
        <time>2016-03-19T10:54:55.171Z</time>
      </trkpt>
      <trkpt lat="43.66734" lon="5.84873">
        <ele>467</ele>
        <time>2016-03-19T10:54:56.143Z</time>
      </trkpt>
      <trkpt lat="43.66732" lon="5.84881">
        <ele>467</ele>
        <time>2016-03-19T10:54:57.163Z</time>
      </trkpt>
      <trkpt lat="43.66729" lon="5.8489">
        <ele>466</ele>
        <time>2016-03-19T10:54:58.144Z</time>
      </trkpt>
      <trkpt lat="43.66726" lon="5.84897">
        <ele>466</ele>
        <time>2016-03-19T10:54:59.196Z</time>
      </trkpt>
      <trkpt lat="43.66723" lon="5.84904">
        <ele>466</ele>
        <time>2016-03-19T10:55:00.143Z</time>
      </trkpt>
      <trkpt lat="43.66719" lon="5.84912">
        <ele>466</ele>
        <time>2016-03-19T10:55:01.168Z</time>
      </trkpt>
      <trkpt lat="43.66717" lon="5.84919">
        <ele>467</ele>
        <time>2016-03-19T10:55:02.143Z</time>
      </trkpt>
      <trkpt lat="43.66715" lon="5.84926">
        <ele>466</ele>
        <time>2016-03-19T10:55:03.169Z</time>
      </trkpt>
      <trkpt lat="43.66712" lon="5.84934">
        <ele>466</ele>
        <time>2016-03-19T10:55:04.144Z</time>
      </trkpt>
      <trkpt lat="43.66711" lon="5.84941">
        <ele>466</ele>
        <time>2016-03-19T10:55:05.169Z</time>
      </trkpt>
      <trkpt lat="43.6671" lon="5.8495">
        <ele>466</ele>
        <time>2016-03-19T10:55:06.144Z</time>
      </trkpt>
      <trkpt lat="43.6671" lon="5.84958">
        <ele>466</ele>
        <time>2016-03-19T10:55:07.169Z</time>
      </trkpt>
      <trkpt lat="43.66712" lon="5.84965">
        <ele>465</ele>
        <time>2016-03-19T10:55:08.143Z</time>
      </trkpt>
      <trkpt lat="43.66715" lon="5.84972">
        <ele>465</ele>
        <time>2016-03-19T10:55:09.168Z</time>
      </trkpt>
      <trkpt lat="43.66719" lon="5.84976">
        <ele>465</ele>
        <time>2016-03-19T10:55:10.143Z</time>
      </trkpt>
      <trkpt lat="43.66725" lon="5.8498">
        <ele>465</ele>
        <time>2016-03-19T10:55:11.168Z</time>
      </trkpt>
      <trkpt lat="43.66731" lon="5.84981">
        <ele>465</ele>
        <time>2016-03-19T10:55:12.142Z</time>
      </trkpt>
      <trkpt lat="43.66736" lon="5.8498">
        <ele>466</ele>
        <time>2016-03-19T10:55:13.173Z</time>
      </trkpt>
      <trkpt lat="43.66742" lon="5.84978">
        <ele>465</ele>
        <time>2016-03-19T10:55:14.142Z</time>
      </trkpt>
      <trkpt lat="43.66748" lon="5.84975">
        <ele>465</ele>
        <time>2016-03-19T10:55:15.196Z</time>
      </trkpt>
      <trkpt lat="43.66753" lon="5.84971">
        <ele>465</ele>
        <time>2016-03-19T10:55:16.144Z</time>
      </trkpt>
      <trkpt lat="43.66759" lon="5.84968">
        <ele>464</ele>
        <time>2016-03-19T10:55:17.157Z</time>
      </trkpt>
      <trkpt lat="43.66764" lon="5.84966">
        <ele>465</ele>
        <time>2016-03-19T10:55:18.137Z</time>
      </trkpt>
      <trkpt lat="43.66769" lon="5.84963">
        <ele>465</ele>
        <time>2016-03-19T10:55:19.393Z</time>
      </trkpt>
      <trkpt lat="43.66774" lon="5.8496">
        <ele>465</ele>
        <time>2016-03-19T10:55:20.142Z</time>
      </trkpt>
      <trkpt lat="43.66779" lon="5.84959">
        <ele>465</ele>
        <time>2016-03-19T10:55:21.169Z</time>
      </trkpt>
      <trkpt lat="43.66784" lon="5.84956">
        <ele>466</ele>
        <time>2016-03-19T10:55:22.143Z</time>
      </trkpt>
      <trkpt lat="43.66789" lon="5.84955">
        <ele>465</ele>
        <time>2016-03-19T10:55:23.169Z</time>
      </trkpt>
      <trkpt lat="43.66793" lon="5.84953">
        <ele>466</ele>
        <time>2016-03-19T10:55:24.143Z</time>
      </trkpt>
      <trkpt lat="43.66799" lon="5.84952">
        <ele>465</ele>
        <time>2016-03-19T10:55:25.170Z</time>
      </trkpt>
      <trkpt lat="43.66804" lon="5.8495">
        <ele>465</ele>
        <time>2016-03-19T10:55:26.143Z</time>
      </trkpt>
      <trkpt lat="43.6681" lon="5.84948">
        <ele>465</ele>
        <time>2016-03-19T10:55:27.168Z</time>
      </trkpt>
      <trkpt lat="43.66816" lon="5.84946">
        <ele>465</ele>
        <time>2016-03-19T10:55:28.143Z</time>
      </trkpt>
      <trkpt lat="43.6682" lon="5.84944">
        <ele>465</ele>
        <time>2016-03-19T10:55:29.170Z</time>
      </trkpt>
      <trkpt lat="43.66826" lon="5.84942">
        <ele>465</ele>
        <time>2016-03-19T10:55:30.146Z</time>
      </trkpt>
      <trkpt lat="43.66831" lon="5.8494">
        <ele>465</ele>
        <time>2016-03-19T10:55:31.178Z</time>
      </trkpt>
      <trkpt lat="43.66836" lon="5.84938">
        <ele>466</ele>
        <time>2016-03-19T10:55:32.147Z</time>
      </trkpt>
      <trkpt lat="43.66843" lon="5.84937">
        <ele>467</ele>
        <time>2016-03-19T10:55:33.169Z</time>
      </trkpt>
      <trkpt lat="43.66848" lon="5.84935">
        <ele>467</ele>
        <time>2016-03-19T10:55:34.143Z</time>
      </trkpt>
      <trkpt lat="43.66853" lon="5.84934">
        <ele>467</ele>
        <time>2016-03-19T10:55:35.164Z</time>
      </trkpt>
      <trkpt lat="43.66859" lon="5.84932">
        <ele>467</ele>
        <time>2016-03-19T10:55:36.144Z</time>
      </trkpt>
      <trkpt lat="43.66865" lon="5.84931">
        <ele>467</ele>
        <time>2016-03-19T10:55:37.173Z</time>
      </trkpt>
      <trkpt lat="43.6687" lon="5.8493">
        <ele>467</ele>
        <time>2016-03-19T10:55:38.139Z</time>
      </trkpt>
      <trkpt lat="43.66876" lon="5.84928">
        <ele>467</ele>
        <time>2016-03-19T10:55:39.170Z</time>
      </trkpt>
      <trkpt lat="43.66881" lon="5.84927">
        <ele>467</ele>
        <time>2016-03-19T10:55:40.144Z</time>
      </trkpt>
      <trkpt lat="43.66887" lon="5.84926">
        <ele>467</ele>
        <time>2016-03-19T10:55:41.168Z</time>
      </trkpt>
      <trkpt lat="43.66892" lon="5.84925">
        <ele>468</ele>
        <time>2016-03-19T10:55:42.151Z</time>
      </trkpt>
      <trkpt lat="43.66897" lon="5.84924">
        <ele>467</ele>
        <time>2016-03-19T10:55:43.171Z</time>
      </trkpt>
      <trkpt lat="43.66902" lon="5.84923">
        <ele>468</ele>
        <time>2016-03-19T10:55:44.143Z</time>
      </trkpt>
      <trkpt lat="43.66906" lon="5.84922">
        <ele>467</ele>
        <time>2016-03-19T10:55:45.164Z</time>
      </trkpt>
      <trkpt lat="43.66911" lon="5.84921">
        <ele>467</ele>
        <time>2016-03-19T10:55:46.143Z</time>
      </trkpt>
      <trkpt lat="43.66919" lon="5.84919">
        <ele>467</ele>
        <time>2016-03-19T10:55:48.173Z</time>
      </trkpt>
      <trkpt lat="43.66923" lon="5.84919">
        <ele>467</ele>
        <time>2016-03-19T10:55:49.143Z</time>
      </trkpt>
      <trkpt lat="43.66931" lon="5.84917">
        <ele>468</ele>
        <time>2016-03-19T10:55:51.169Z</time>
      </trkpt>
      <trkpt lat="43.66934" lon="5.84916">
        <ele>468</ele>
        <time>2016-03-19T10:55:52.171Z</time>
      </trkpt>
      <trkpt lat="43.66942" lon="5.84913">
        <ele>469</ele>
        <time>2016-03-19T10:55:54.163Z</time>
      </trkpt>
      <trkpt lat="43.66945" lon="5.8491">
        <ele>469</ele>
        <time>2016-03-19T10:55:55.138Z</time>
      </trkpt>
      <trkpt lat="43.66953" lon="5.84905">
        <ele>468</ele>
        <time>2016-03-19T10:55:57.163Z</time>
      </trkpt>
      <trkpt lat="43.66956" lon="5.84902">
        <ele>468</ele>
        <time>2016-03-19T10:55:58.143Z</time>
      </trkpt>
      <trkpt lat="43.66964" lon="5.84896">
        <ele>468</ele>
        <time>2016-03-19T10:56:00.147Z</time>
      </trkpt>
      <trkpt lat="43.66967" lon="5.84893">
        <ele>466</ele>
        <time>2016-03-19T10:56:01.138Z</time>
      </trkpt>
      <trkpt lat="43.66971" lon="5.84887">
        <ele>466</ele>
        <time>2016-03-19T10:56:02.173Z</time>
      </trkpt>
      <trkpt lat="43.66975" lon="5.84884">
        <ele>465</ele>
        <time>2016-03-19T10:56:03.143Z</time>
      </trkpt>
      <trkpt lat="43.66979" lon="5.84881">
        <ele>465</ele>
        <time>2016-03-19T10:56:04.168Z</time>
      </trkpt>
      <trkpt lat="43.66984" lon="5.84878">
        <ele>465</ele>
        <time>2016-03-19T10:56:05.143Z</time>
      </trkpt>
      <trkpt lat="43.6699" lon="5.84873">
        <ele>464</ele>
        <time>2016-03-19T10:56:07.173Z</time>
      </trkpt>
      <trkpt lat="43.66994" lon="5.8487">
        <ele>464</ele>
        <time>2016-03-19T10:56:08.171Z</time>
      </trkpt>
      <trkpt lat="43.67001" lon="5.84866">
        <ele>463</ele>
        <time>2016-03-19T10:56:11.169Z</time>
      </trkpt>
      <trkpt lat="43.67004" lon="5.84868">
        <ele>464</ele>
        <time>2016-03-19T10:56:12.144Z</time>
      </trkpt>
      <trkpt lat="43.67009" lon="5.84875">
        <ele>464</ele>
        <time>2016-03-19T10:56:14.153Z</time>
      </trkpt>
      <trkpt lat="43.67011" lon="5.84879">
        <ele>464</ele>
        <time>2016-03-19T10:56:15.137Z</time>
      </trkpt>
      <trkpt lat="43.67018" lon="5.84881">
        <ele>462</ele>
        <time>2016-03-19T10:56:20.173Z</time>
      </trkpt>
      <trkpt lat="43.6702" lon="5.84879">
        <ele>463</ele>
        <time>2016-03-19T10:56:21.144Z</time>
      </trkpt>
      <trkpt lat="43.67027" lon="5.84874">
        <ele>463</ele>
        <time>2016-03-19T10:56:24.187Z</time>
      </trkpt>
      <trkpt lat="43.67029" lon="5.84872">
        <ele>463</ele>
        <time>2016-03-19T10:56:25.144Z</time>
      </trkpt>
      <trkpt lat="43.67035" lon="5.84868">
        <ele>464</ele>
        <time>2016-03-19T10:56:27.155Z</time>
      </trkpt>
      <trkpt lat="43.67038" lon="5.84867">
        <ele>465</ele>
        <time>2016-03-19T10:56:28.138Z</time>
      </trkpt>
      <trkpt lat="43.67044" lon="5.84864">
        <ele>467</ele>
        <time>2016-03-19T10:56:30.174Z</time>
      </trkpt>
      <trkpt lat="43.67047" lon="5.84863">
        <ele>469</ele>
        <time>2016-03-19T10:56:31.144Z</time>
      </trkpt>
      <trkpt lat="43.67053" lon="5.84861">
        <ele>470</ele>
        <time>2016-03-19T10:56:33.168Z</time>
      </trkpt>
      <trkpt lat="43.67056" lon="5.84859">
        <ele>471</ele>
        <time>2016-03-19T10:56:34.137Z</time>
      </trkpt>
      <trkpt lat="43.67064" lon="5.84854">
        <ele>471</ele>
        <time>2016-03-19T10:56:37.173Z</time>
      </trkpt>
      <trkpt lat="43.67066" lon="5.84853">
        <ele>471</ele>
        <time>2016-03-19T10:56:38.145Z</time>
      </trkpt>
      <trkpt lat="43.67073" lon="5.84853">
        <ele>470</ele>
        <time>2016-03-19T10:56:41.154Z</time>
      </trkpt>
      <trkpt lat="43.67076" lon="5.84853">
        <ele>470</ele>
        <time>2016-03-19T10:56:42.145Z</time>
      </trkpt>
      <trkpt lat="43.67084" lon="5.8485">
        <ele>469</ele>
        <time>2016-03-19T10:56:45.198Z</time>
      </trkpt>
      <trkpt lat="43.67086" lon="5.84848">
        <ele>469</ele>
        <time>2016-03-19T10:56:46.145Z</time>
      </trkpt>
      <trkpt lat="43.67093" lon="5.84843">
        <ele>469</ele>
        <time>2016-03-19T10:56:49.173Z</time>
      </trkpt>
      <trkpt lat="43.67096" lon="5.84842">
        <ele>469</ele>
        <time>2016-03-19T10:56:50.143Z</time>
      </trkpt>
      <trkpt lat="43.67102" lon="5.84836">
        <ele>467</ele>
        <time>2016-03-19T10:56:54.277Z</time>
      </trkpt>
      <trkpt lat="43.67104" lon="5.84836">
        <ele>468</ele>
        <time>2016-03-19T10:56:55.140Z</time>
      </trkpt>
      <trkpt lat="43.67109" lon="5.84843">
        <ele>466</ele>
        <time>2016-03-19T10:56:59.180Z</time>
      </trkpt>
      <trkpt lat="43.6711" lon="5.84845">
        <ele>466</ele>
        <time>2016-03-19T10:57:00.144Z</time>
      </trkpt>
      <trkpt lat="43.67113" lon="5.84853">
        <ele>465</ele>
        <time>2016-03-19T10:57:03.170Z</time>
      </trkpt>
      <trkpt lat="43.67114" lon="5.84857">
        <ele>466</ele>
        <time>2016-03-19T10:57:04.144Z</time>
      </trkpt>
      <trkpt lat="43.67121" lon="5.84865">
        <ele>467</ele>
        <time>2016-03-19T10:57:08.157Z</time>
      </trkpt>
      <trkpt lat="43.67122" lon="5.84866">
        <ele>470</ele>
        <time>2016-03-19T10:57:09.144Z</time>
      </trkpt>
      <trkpt lat="43.67127" lon="5.84877">
        <ele>474</ele>
        <time>2016-03-19T10:57:14.171Z</time>
      </trkpt>
      <trkpt lat="43.67128" lon="5.84879">
        <ele>473</ele>
        <time>2016-03-19T10:57:15.146Z</time>
      </trkpt>
      <trkpt lat="43.67134" lon="5.84884">
        <ele>476</ele>
        <time>2016-03-19T10:57:19.175Z</time>
      </trkpt>
      <trkpt lat="43.67136" lon="5.84886">
        <ele>475</ele>
        <time>2016-03-19T10:57:20.144Z</time>
      </trkpt>
      <trkpt lat="43.67142" lon="5.84891">
        <ele>477</ele>
        <time>2016-03-19T10:57:23.173Z</time>
      </trkpt>
      <trkpt lat="43.67145" lon="5.84894">
        <ele>475</ele>
        <time>2016-03-19T10:57:24.142Z</time>
      </trkpt>
      <trkpt lat="43.6715" lon="5.84902">
        <ele>476</ele>
        <time>2016-03-19T10:57:26.170Z</time>
      </trkpt>
      <trkpt lat="43.67153" lon="5.84906">
        <ele>476</ele>
        <time>2016-03-19T10:57:27.143Z</time>
      </trkpt>
      <trkpt lat="43.67157" lon="5.84914">
        <ele>476</ele>
        <time>2016-03-19T10:57:29.159Z</time>
      </trkpt>
      <trkpt lat="43.67158" lon="5.84919">
        <ele>475</ele>
        <time>2016-03-19T10:57:30.143Z</time>
      </trkpt>
      <trkpt lat="43.67158" lon="5.84928">
        <ele>474</ele>
        <time>2016-03-19T10:57:32.163Z</time>
      </trkpt>
      <trkpt lat="43.67158" lon="5.84933">
        <ele>473</ele>
        <time>2016-03-19T10:57:33.144Z</time>
      </trkpt>
      <trkpt lat="43.67157" lon="5.84944">
        <ele>471</ele>
        <time>2016-03-19T10:57:45.169Z</time>
      </trkpt>
      <trkpt lat="43.67157" lon="5.84947">
        <ele>470</ele>
        <time>2016-03-19T10:57:46.145Z</time>
      </trkpt>
      <trkpt lat="43.67155" lon="5.84958">
        <ele>470</ele>
        <time>2016-03-19T10:57:51.168Z</time>
      </trkpt>
      <trkpt lat="43.67154" lon="5.84962">
        <ele>471</ele>
        <time>2016-03-19T10:57:52.145Z</time>
      </trkpt>
      <trkpt lat="43.67151" lon="5.84972">
        <ele>470</ele>
        <time>2016-03-19T10:57:55.174Z</time>
      </trkpt>
      <trkpt lat="43.6715" lon="5.84976">
        <ele>470</ele>
        <time>2016-03-19T10:57:56.143Z</time>
      </trkpt>
      <trkpt lat="43.67147" lon="5.84986">
        <ele>470</ele>
        <time>2016-03-19T10:57:59.197Z</time>
      </trkpt>
      <trkpt lat="43.67145" lon="5.8499">
        <ele>470</ele>
        <time>2016-03-19T10:58:00.131Z</time>
      </trkpt>
      <trkpt lat="43.6714" lon="5.84999">
        <ele>470</ele>
        <time>2016-03-19T10:58:03.240Z</time>
      </trkpt>
      <trkpt lat="43.67139" lon="5.85002">
        <ele>469</ele>
        <time>2016-03-19T10:58:04.136Z</time>
      </trkpt>
      <trkpt lat="43.67133" lon="5.85011">
        <ele>467</ele>
        <time>2016-03-19T10:58:07.171Z</time>
      </trkpt>
      <trkpt lat="43.67132" lon="5.85015">
        <ele>467</ele>
        <time>2016-03-19T10:58:08.150Z</time>
      </trkpt>
      <trkpt lat="43.67126" lon="5.85022">
        <ele>469</ele>
        <time>2016-03-19T10:58:11.164Z</time>
      </trkpt>
      <trkpt lat="43.67125" lon="5.85025">
        <ele>468</ele>
        <time>2016-03-19T10:58:12.143Z</time>
      </trkpt>
      <trkpt lat="43.67119" lon="5.85033">
        <ele>467</ele>
        <time>2016-03-19T10:58:15.164Z</time>
      </trkpt>
      <trkpt lat="43.67117" lon="5.85035">
        <ele>468</ele>
        <time>2016-03-19T10:58:16.144Z</time>
      </trkpt>
      <trkpt lat="43.6711" lon="5.85042">
        <ele>468</ele>
        <time>2016-03-19T10:58:20.210Z</time>
      </trkpt>
      <trkpt lat="43.67108" lon="5.85044">
        <ele>468</ele>
        <time>2016-03-19T10:58:21.140Z</time>
      </trkpt>
      <trkpt lat="43.67104" lon="5.85049">
        <ele>467</ele>
        <time>2016-03-19T10:58:23.172Z</time>
      </trkpt>
      <trkpt lat="43.67102" lon="5.85053">
        <ele>467</ele>
        <time>2016-03-19T10:58:24.152Z</time>
      </trkpt>
      <trkpt lat="43.67098" lon="5.8506">
        <ele>466</ele>
        <time>2016-03-19T10:58:26.156Z</time>
      </trkpt>
      <trkpt lat="43.67096" lon="5.85063">
        <ele>467</ele>
        <time>2016-03-19T10:58:27.143Z</time>
      </trkpt>
      <trkpt lat="43.67096" lon="5.85075">
        <ele>465</ele>
        <time>2016-03-19T10:58:30.174Z</time>
      </trkpt>
      <trkpt lat="43.67099" lon="5.85078">
        <ele>465</ele>
        <time>2016-03-19T10:58:31.169Z</time>
      </trkpt>
      <trkpt lat="43.67106" lon="5.85084">
        <ele>466</ele>
        <time>2016-03-19T10:58:33.171Z</time>
      </trkpt>
      <trkpt lat="43.6711" lon="5.85086">
        <ele>465</ele>
        <time>2016-03-19T10:58:34.145Z</time>
      </trkpt>
      <trkpt lat="43.67118" lon="5.85087">
        <ele>464</ele>
        <time>2016-03-19T10:58:36.218Z</time>
      </trkpt>
      <trkpt lat="43.67122" lon="5.85088">
        <ele>464</ele>
        <time>2016-03-19T10:58:37.139Z</time>
      </trkpt>
      <trkpt lat="43.67129" lon="5.85093">
        <ele>464</ele>
        <time>2016-03-19T10:58:39.168Z</time>
      </trkpt>
      <trkpt lat="43.67133" lon="5.85096">
        <ele>465</ele>
        <time>2016-03-19T10:58:40.132Z</time>
      </trkpt>
      <trkpt lat="43.6714" lon="5.85101">
        <ele>465</ele>
        <time>2016-03-19T10:58:42.164Z</time>
      </trkpt>
      <trkpt lat="43.67143" lon="5.85103">
        <ele>467</ele>
        <time>2016-03-19T10:58:43.138Z</time>
      </trkpt>
      <trkpt lat="43.67149" lon="5.85109">
        <ele>467</ele>
        <time>2016-03-19T10:58:45.164Z</time>
      </trkpt>
      <trkpt lat="43.67152" lon="5.85111">
        <ele>467</ele>
        <time>2016-03-19T10:58:46.143Z</time>
      </trkpt>
      <trkpt lat="43.67158" lon="5.85116">
        <ele>467</ele>
        <time>2016-03-19T10:58:48.173Z</time>
      </trkpt>
      <trkpt lat="43.6716" lon="5.85118">
        <ele>466</ele>
        <time>2016-03-19T10:58:49.145Z</time>
      </trkpt>
      <trkpt lat="43.67165" lon="5.85123">
        <ele>467</ele>
        <time>2016-03-19T10:58:51.174Z</time>
      </trkpt>
      <trkpt lat="43.67168" lon="5.85125">
        <ele>468</ele>
        <time>2016-03-19T10:58:52.144Z</time>
      </trkpt>
      <trkpt lat="43.67173" lon="5.85129">
        <ele>469</ele>
        <time>2016-03-19T10:58:54.173Z</time>
      </trkpt>
      <trkpt lat="43.67176" lon="5.85132">
        <ele>469</ele>
        <time>2016-03-19T10:58:55.145Z</time>
      </trkpt>
      <trkpt lat="43.67181" lon="5.85136">
        <ele>470</ele>
        <time>2016-03-19T10:58:57.413Z</time>
      </trkpt>
      <trkpt lat="43.67185" lon="5.85139">
        <ele>470</ele>
        <time>2016-03-19T10:58:58.147Z</time>
      </trkpt>
      <trkpt lat="43.67191" lon="5.85144">
        <ele>469</ele>
        <time>2016-03-19T10:59:00.174Z</time>
      </trkpt>
      <trkpt lat="43.67195" lon="5.85147">
        <ele>470</ele>
        <time>2016-03-19T10:59:01.142Z</time>
      </trkpt>
      <trkpt lat="43.67201" lon="5.85153">
        <ele>469</ele>
        <time>2016-03-19T10:59:03.171Z</time>
      </trkpt>
      <trkpt lat="43.67204" lon="5.85156">
        <ele>468</ele>
        <time>2016-03-19T10:59:04.140Z</time>
      </trkpt>
      <trkpt lat="43.67209" lon="5.85161">
        <ele>468</ele>
        <time>2016-03-19T10:59:06.167Z</time>
      </trkpt>
      <trkpt lat="43.67211" lon="5.85163">
        <ele>468</ele>
        <time>2016-03-19T10:59:07.144Z</time>
      </trkpt>
      <trkpt lat="43.67217" lon="5.85171">
        <ele>468</ele>
        <time>2016-03-19T10:59:11.172Z</time>
      </trkpt>
      <trkpt lat="43.67219" lon="5.85174">
        <ele>468</ele>
        <time>2016-03-19T10:59:12.145Z</time>
      </trkpt>
      <trkpt lat="43.67226" lon="5.85182">
        <ele>468</ele>
        <time>2016-03-19T10:59:15.175Z</time>
      </trkpt>
      <trkpt lat="43.67228" lon="5.85184">
        <ele>467</ele>
        <time>2016-03-19T10:59:16.147Z</time>
      </trkpt>
      <trkpt lat="43.67234" lon="5.85192">
        <ele>467</ele>
        <time>2016-03-19T10:59:19.196Z</time>
      </trkpt>
      <trkpt lat="43.67236" lon="5.85195">
        <ele>467</ele>
        <time>2016-03-19T10:59:20.144Z</time>
      </trkpt>
      <trkpt lat="43.67242" lon="5.85202">
        <ele>467</ele>
        <time>2016-03-19T10:59:24.198Z</time>
      </trkpt>
      <trkpt lat="43.67243" lon="5.85203">
        <ele>466</ele>
        <time>2016-03-19T10:59:25.145Z</time>
      </trkpt>
      <trkpt lat="43.67247" lon="5.85213">
        <ele>465</ele>
        <time>2016-03-19T10:59:58.210Z</time>
      </trkpt>
      <trkpt lat="43.67247" lon="5.85218">
        <ele>465</ele>
        <time>2016-03-19T10:59:59.146Z</time>
      </trkpt>
      <trkpt lat="43.67244" lon="5.85227">
        <ele>465</ele>
        <time>2016-03-19T11:00:01.157Z</time>
      </trkpt>
      <trkpt lat="43.67243" lon="5.85233">
        <ele>465</ele>
        <time>2016-03-19T11:00:02.145Z</time>
      </trkpt>
      <trkpt lat="43.67244" lon="5.85242">
        <ele>466</ele>
        <time>2016-03-19T11:00:04.164Z</time>
      </trkpt>
      <trkpt lat="43.67244" lon="5.85247">
        <ele>466</ele>
        <time>2016-03-19T11:00:05.143Z</time>
      </trkpt>
      <trkpt lat="43.67244" lon="5.85257">
        <ele>466</ele>
        <time>2016-03-19T11:00:07.194Z</time>
      </trkpt>
      <trkpt lat="43.67244" lon="5.85262">
        <ele>466</ele>
        <time>2016-03-19T11:00:08.144Z</time>
      </trkpt>
      <trkpt lat="43.67244" lon="5.85271">
        <ele>467</ele>
        <time>2016-03-19T11:00:10.165Z</time>
      </trkpt>
      <trkpt lat="43.67244" lon="5.85276">
        <ele>467</ele>
        <time>2016-03-19T11:00:11.144Z</time>
      </trkpt>
      <trkpt lat="43.67244" lon="5.85285">
        <ele>468</ele>
        <time>2016-03-19T11:00:13.171Z</time>
      </trkpt>
      <trkpt lat="43.67244" lon="5.8529">
        <ele>468</ele>
        <time>2016-03-19T11:00:14.234Z</time>
      </trkpt>
      <trkpt lat="43.67243" lon="5.853">
        <ele>468</ele>
        <time>2016-03-19T11:00:16.192Z</time>
      </trkpt>
      <trkpt lat="43.67243" lon="5.85305">
        <ele>468</ele>
        <time>2016-03-19T11:00:17.143Z</time>
      </trkpt>
      <trkpt lat="43.67242" lon="5.85315">
        <ele>468</ele>
        <time>2016-03-19T11:00:19.157Z</time>
      </trkpt>
      <trkpt lat="43.67241" lon="5.8532">
        <ele>468</ele>
        <time>2016-03-19T11:00:20.145Z</time>
      </trkpt>
      <trkpt lat="43.6724" lon="5.8533">
        <ele>468</ele>
        <time>2016-03-19T11:00:22.170Z</time>
      </trkpt>
      <trkpt lat="43.67239" lon="5.85335">
        <ele>469</ele>
        <time>2016-03-19T11:00:23.145Z</time>
      </trkpt>
      <trkpt lat="43.67237" lon="5.85345">
        <ele>469</ele>
        <time>2016-03-19T11:00:25.172Z</time>
      </trkpt>
      <trkpt lat="43.67237" lon="5.8535">
        <ele>469</ele>
        <time>2016-03-19T11:00:26.146Z</time>
      </trkpt>
      <trkpt lat="43.67235" lon="5.85359">
        <ele>468</ele>
        <time>2016-03-19T11:00:28.199Z</time>
      </trkpt>
      <trkpt lat="43.67234" lon="5.85365">
        <ele>468</ele>
        <time>2016-03-19T11:00:29.144Z</time>
      </trkpt>
      <trkpt lat="43.67233" lon="5.85374">
        <ele>469</ele>
        <time>2016-03-19T11:00:31.169Z</time>
      </trkpt>
      <trkpt lat="43.67232" lon="5.85379">
        <ele>469</ele>
        <time>2016-03-19T11:00:32.144Z</time>
      </trkpt>
      <trkpt lat="43.67231" lon="5.85389">
        <ele>469</ele>
        <time>2016-03-19T11:00:34.180Z</time>
      </trkpt>
      <trkpt lat="43.6723" lon="5.85393">
        <ele>470</ele>
        <time>2016-03-19T11:00:35.144Z</time>
      </trkpt>
      <trkpt lat="43.67229" lon="5.85403">
        <ele>470</ele>
        <time>2016-03-19T11:00:37.170Z</time>
      </trkpt>
      <trkpt lat="43.67229" lon="5.85408">
        <ele>471</ele>
        <time>2016-03-19T11:00:38.145Z</time>
      </trkpt>
      <trkpt lat="43.67228" lon="5.85417">
        <ele>471</ele>
        <time>2016-03-19T11:00:40.157Z</time>
      </trkpt>
      <trkpt lat="43.67228" lon="5.85422">
        <ele>471</ele>
        <time>2016-03-19T11:00:41.145Z</time>
      </trkpt>
      <trkpt lat="43.67227" lon="5.85431">
        <ele>472</ele>
        <time>2016-03-19T11:00:43.163Z</time>
      </trkpt>
      <trkpt lat="43.67226" lon="5.85435">
        <ele>472</ele>
        <time>2016-03-19T11:00:44.172Z</time>
      </trkpt>
      <trkpt lat="43.67226" lon="5.85444">
        <ele>472</ele>
        <time>2016-03-19T11:00:46.173Z</time>
      </trkpt>
      <trkpt lat="43.67226" lon="5.85448">
        <ele>472</ele>
        <time>2016-03-19T11:00:47.145Z</time>
      </trkpt>
      <trkpt lat="43.67225" lon="5.85457">
        <ele>471</ele>
        <time>2016-03-19T11:00:49.170Z</time>
      </trkpt>
      <trkpt lat="43.67225" lon="5.85462">
        <ele>471</ele>
        <time>2016-03-19T11:00:50.144Z</time>
      </trkpt>
      <trkpt lat="43.67225" lon="5.8547">
        <ele>471</ele>
        <time>2016-03-19T11:00:52.171Z</time>
      </trkpt>
      <trkpt lat="43.67225" lon="5.85475">
        <ele>472</ele>
        <time>2016-03-19T11:00:53.146Z</time>
      </trkpt>
      <trkpt lat="43.67225" lon="5.85485">
        <ele>472</ele>
        <time>2016-03-19T11:00:57.171Z</time>
      </trkpt>
      <trkpt lat="43.67225" lon="5.85488">
        <ele>472</ele>
        <time>2016-03-19T11:00:58.145Z</time>
      </trkpt>
      <trkpt lat="43.67224" lon="5.85497">
        <ele>472</ele>
        <time>2016-03-19T11:01:00.194Z</time>
      </trkpt>
      <trkpt lat="43.67224" lon="5.85502">
        <ele>472</ele>
        <time>2016-03-19T11:01:01.143Z</time>
      </trkpt>
      <trkpt lat="43.67224" lon="5.85511">
        <ele>472</ele>
        <time>2016-03-19T11:01:03.152Z</time>
      </trkpt>
      <trkpt lat="43.67224" lon="5.85516">
        <ele>473</ele>
        <time>2016-03-19T11:01:04.364Z</time>
      </trkpt>
      <trkpt lat="43.67223" lon="5.85524">
        <ele>473</ele>
        <time>2016-03-19T11:01:06.164Z</time>
      </trkpt>
      <trkpt lat="43.67223" lon="5.85528">
        <ele>474</ele>
        <time>2016-03-19T11:01:07.145Z</time>
      </trkpt>
      <trkpt lat="43.67223" lon="5.85538">
        <ele>474</ele>
        <time>2016-03-19T11:01:09.170Z</time>
      </trkpt>
      <trkpt lat="43.67223" lon="5.85542">
        <ele>474</ele>
        <time>2016-03-19T11:01:10.142Z</time>
      </trkpt>
      <trkpt lat="43.67223" lon="5.85551">
        <ele>474</ele>
        <time>2016-03-19T11:01:12.169Z</time>
      </trkpt>
      <trkpt lat="43.67222" lon="5.85555">
        <ele>475</ele>
        <time>2016-03-19T11:01:13.144Z</time>
      </trkpt>
      <trkpt lat="43.67223" lon="5.85564">
        <ele>474</ele>
        <time>2016-03-19T11:01:15.173Z</time>
      </trkpt>
      <trkpt lat="43.67223" lon="5.85569">
        <ele>474</ele>
        <time>2016-03-19T11:01:16.292Z</time>
      </trkpt>
      <trkpt lat="43.67224" lon="5.85577">
        <ele>474</ele>
        <time>2016-03-19T11:01:18.178Z</time>
      </trkpt>
      <trkpt lat="43.67225" lon="5.85582">
        <ele>474</ele>
        <time>2016-03-19T11:01:19.139Z</time>
      </trkpt>
      <trkpt lat="43.67227" lon="5.85591">
        <ele>475</ele>
        <time>2016-03-19T11:01:21.169Z</time>
      </trkpt>
      <trkpt lat="43.67228" lon="5.85595">
        <ele>475</ele>
        <time>2016-03-19T11:01:22.138Z</time>
      </trkpt>
      <trkpt lat="43.67231" lon="5.85603">
        <ele>475</ele>
        <time>2016-03-19T11:01:24.173Z</time>
      </trkpt>
      <trkpt lat="43.67232" lon="5.85608">
        <ele>476</ele>
        <time>2016-03-19T11:01:25.144Z</time>
      </trkpt>
      <trkpt lat="43.67234" lon="5.85617">
        <ele>476</ele>
        <time>2016-03-19T11:01:27.195Z</time>
      </trkpt>
      <trkpt lat="43.67235" lon="5.85622">
        <ele>476</ele>
        <time>2016-03-19T11:01:28.144Z</time>
      </trkpt>
      <trkpt lat="43.67237" lon="5.85631">
        <ele>476</ele>
        <time>2016-03-19T11:01:30.172Z</time>
      </trkpt>
      <trkpt lat="43.67239" lon="5.85635">
        <ele>476</ele>
        <time>2016-03-19T11:01:31.144Z</time>
      </trkpt>
      <trkpt lat="43.67241" lon="5.85644">
        <ele>476</ele>
        <time>2016-03-19T11:01:33.172Z</time>
      </trkpt>
      <trkpt lat="43.67242" lon="5.85648">
        <ele>476</ele>
        <time>2016-03-19T11:01:34.144Z</time>
      </trkpt>
      <trkpt lat="43.67244" lon="5.85654">
        <ele>476</ele>
        <time>2016-03-19T11:01:35.172Z</time>
      </trkpt>
      <trkpt lat="43.67245" lon="5.8566">
        <ele>476</ele>
        <time>2016-03-19T11:01:36.144Z</time>
      </trkpt>
      <trkpt lat="43.67247" lon="5.85666">
        <ele>476</ele>
        <time>2016-03-19T11:01:37.158Z</time>
      </trkpt>
      <trkpt lat="43.67249" lon="5.85674">
        <ele>475</ele>
        <time>2016-03-19T11:01:38.144Z</time>
      </trkpt>
      <trkpt lat="43.67251" lon="5.8568">
        <ele>475</ele>
        <time>2016-03-19T11:01:39.169Z</time>
      </trkpt>
      <trkpt lat="43.67253" lon="5.85687">
        <ele>475</ele>
        <time>2016-03-19T11:01:40.144Z</time>
      </trkpt>
      <trkpt lat="43.67255" lon="5.85695">
        <ele>474</ele>
        <time>2016-03-19T11:01:41.161Z</time>
      </trkpt>
      <trkpt lat="43.67257" lon="5.85702">
        <ele>474</ele>
        <time>2016-03-19T11:01:42.144Z</time>
      </trkpt>
      <trkpt lat="43.67259" lon="5.8571">
        <ele>474</ele>
        <time>2016-03-19T11:01:43.190Z</time>
      </trkpt>
      <trkpt lat="43.67262" lon="5.85718">
        <ele>475</ele>
        <time>2016-03-19T11:01:44.144Z</time>
      </trkpt>
      <trkpt lat="43.67264" lon="5.85726">
        <ele>475</ele>
        <time>2016-03-19T11:01:45.164Z</time>
      </trkpt>
      <trkpt lat="43.67268" lon="5.85734">
        <ele>476</ele>
        <time>2016-03-19T11:01:46.138Z</time>
      </trkpt>
      <trkpt lat="43.67271" lon="5.85742">
        <ele>475</ele>
        <time>2016-03-19T11:01:47.170Z</time>
      </trkpt>
      <trkpt lat="43.67274" lon="5.8575">
        <ele>474</ele>
        <time>2016-03-19T11:01:48.143Z</time>
      </trkpt>
      <trkpt lat="43.67279" lon="5.85757">
        <ele>475</ele>
        <time>2016-03-19T11:01:49.169Z</time>
      </trkpt>
      <trkpt lat="43.67282" lon="5.85765">
        <ele>475</ele>
        <time>2016-03-19T11:01:50.145Z</time>
      </trkpt>
      <trkpt lat="43.67285" lon="5.85773">
        <ele>475</ele>
        <time>2016-03-19T11:01:51.169Z</time>
      </trkpt>
      <trkpt lat="43.67288" lon="5.85782">
        <ele>474</ele>
        <time>2016-03-19T11:01:52.158Z</time>
      </trkpt>
      <trkpt lat="43.6729" lon="5.8579">
        <ele>475</ele>
        <time>2016-03-19T11:01:53.143Z</time>
      </trkpt>
      <trkpt lat="43.67294" lon="5.85799">
        <ele>476</ele>
        <time>2016-03-19T11:01:54.135Z</time>
      </trkpt>
      <trkpt lat="43.67298" lon="5.85807">
        <ele>476</ele>
        <time>2016-03-19T11:01:55.152Z</time>
      </trkpt>
      <trkpt lat="43.67301" lon="5.85817">
        <ele>477</ele>
        <time>2016-03-19T11:01:56.127Z</time>
      </trkpt>
      <trkpt lat="43.67304" lon="5.85828">
        <ele>476</ele>
        <time>2016-03-19T11:01:57.157Z</time>
      </trkpt>
      <trkpt lat="43.67306" lon="5.85838">
        <ele>475</ele>
        <time>2016-03-19T11:01:58.142Z</time>
      </trkpt>
      <trkpt lat="43.67308" lon="5.85847">
        <ele>475</ele>
        <time>2016-03-19T11:01:59.164Z</time>
      </trkpt>
      <trkpt lat="43.67309" lon="5.85858">
        <ele>475</ele>
        <time>2016-03-19T11:02:00.142Z</time>
      </trkpt>
      <trkpt lat="43.67311" lon="5.85867">
        <ele>475</ele>
        <time>2016-03-19T11:02:01.163Z</time>
      </trkpt>
      <trkpt lat="43.67313" lon="5.85877">
        <ele>474</ele>
        <time>2016-03-19T11:02:02.142Z</time>
      </trkpt>
      <trkpt lat="43.67315" lon="5.85885">
        <ele>474</ele>
        <time>2016-03-19T11:02:03.163Z</time>
      </trkpt>
      <trkpt lat="43.67317" lon="5.85894">
        <ele>474</ele>
        <time>2016-03-19T11:02:04.167Z</time>
      </trkpt>
      <trkpt lat="43.6732" lon="5.85905">
        <ele>473</ele>
        <time>2016-03-19T11:02:05.163Z</time>
      </trkpt>
      <trkpt lat="43.67321" lon="5.85915">
        <ele>471</ele>
        <time>2016-03-19T11:02:06.141Z</time>
      </trkpt>
      <trkpt lat="43.67324" lon="5.85924">
        <ele>471</ele>
        <time>2016-03-19T11:02:07.163Z</time>
      </trkpt>
      <trkpt lat="43.67325" lon="5.85935">
        <ele>471</ele>
        <time>2016-03-19T11:02:08.160Z</time>
      </trkpt>
      <trkpt lat="43.67328" lon="5.85945">
        <ele>470</ele>
        <time>2016-03-19T11:02:09.158Z</time>
      </trkpt>
      <trkpt lat="43.6733" lon="5.85956">
        <ele>469</ele>
        <time>2016-03-19T11:02:10.147Z</time>
      </trkpt>
      <trkpt lat="43.67331" lon="5.85966">
        <ele>469</ele>
        <time>2016-03-19T11:02:11.170Z</time>
      </trkpt>
      <trkpt lat="43.67333" lon="5.85976">
        <ele>469</ele>
        <time>2016-03-19T11:02:12.139Z</time>
      </trkpt>
      <trkpt lat="43.67334" lon="5.85986">
        <ele>469</ele>
        <time>2016-03-19T11:02:13.172Z</time>
      </trkpt>
      <trkpt lat="43.67335" lon="5.85995">
        <ele>468</ele>
        <time>2016-03-19T11:02:14.142Z</time>
      </trkpt>
      <trkpt lat="43.67335" lon="5.86005">
        <ele>468</ele>
        <time>2016-03-19T11:02:15.170Z</time>
      </trkpt>
      <trkpt lat="43.67335" lon="5.86015">
        <ele>468</ele>
        <time>2016-03-19T11:02:16.141Z</time>
      </trkpt>
      <trkpt lat="43.67335" lon="5.86025">
        <ele>468</ele>
        <time>2016-03-19T11:02:17.171Z</time>
      </trkpt>
      <trkpt lat="43.67334" lon="5.86037">
        <ele>467</ele>
        <time>2016-03-19T11:02:18.143Z</time>
      </trkpt>
      <trkpt lat="43.67333" lon="5.86047">
        <ele>466</ele>
        <time>2016-03-19T11:02:19.173Z</time>
      </trkpt>
      <trkpt lat="43.67331" lon="5.86057">
        <ele>466</ele>
        <time>2016-03-19T11:02:20.145Z</time>
      </trkpt>
      <trkpt lat="43.67328" lon="5.86068">
        <ele>466</ele>
        <time>2016-03-19T11:02:21.165Z</time>
      </trkpt>
      <trkpt lat="43.67324" lon="5.86077">
        <ele>466</ele>
        <time>2016-03-19T11:02:22.144Z</time>
      </trkpt>
      <trkpt lat="43.6732" lon="5.86086">
        <ele>465</ele>
        <time>2016-03-19T11:02:23.174Z</time>
      </trkpt>
      <trkpt lat="43.67315" lon="5.86096">
        <ele>465</ele>
        <time>2016-03-19T11:02:24.144Z</time>
      </trkpt>
      <trkpt lat="43.67311" lon="5.86105">
        <ele>466</ele>
        <time>2016-03-19T11:02:25.198Z</time>
      </trkpt>
      <trkpt lat="43.67306" lon="5.86115">
        <ele>465</ele>
        <time>2016-03-19T11:02:26.144Z</time>
      </trkpt>
      <trkpt lat="43.67302" lon="5.86124">
        <ele>465</ele>
        <time>2016-03-19T11:02:27.169Z</time>
      </trkpt>
      <trkpt lat="43.67298" lon="5.86132">
        <ele>464</ele>
        <time>2016-03-19T11:02:28.142Z</time>
      </trkpt>
      <trkpt lat="43.67294" lon="5.86142">
        <ele>464</ele>
        <time>2016-03-19T11:02:29.169Z</time>
      </trkpt>
      <trkpt lat="43.6729" lon="5.86151">
        <ele>464</ele>
        <time>2016-03-19T11:02:30.139Z</time>
      </trkpt>
      <trkpt lat="43.67287" lon="5.8616">
        <ele>464</ele>
        <time>2016-03-19T11:02:31.184Z</time>
      </trkpt>
      <trkpt lat="43.67283" lon="5.8617">
        <ele>464</ele>
        <time>2016-03-19T11:02:32.145Z</time>
      </trkpt>
      <trkpt lat="43.67281" lon="5.86178">
        <ele>464</ele>
        <time>2016-03-19T11:02:33.171Z</time>
      </trkpt>
      <trkpt lat="43.67278" lon="5.86187">
        <ele>464</ele>
        <time>2016-03-19T11:02:34.145Z</time>
      </trkpt>
      <trkpt lat="43.67277" lon="5.86196">
        <ele>465</ele>
        <time>2016-03-19T11:02:35.172Z</time>
      </trkpt>
      <trkpt lat="43.67275" lon="5.86205">
        <ele>465</ele>
        <time>2016-03-19T11:02:36.144Z</time>
      </trkpt>
      <trkpt lat="43.67273" lon="5.86214">
        <ele>464</ele>
        <time>2016-03-19T11:02:37.173Z</time>
      </trkpt>
      <trkpt lat="43.67272" lon="5.86222">
        <ele>464</ele>
        <time>2016-03-19T11:02:38.145Z</time>
      </trkpt>
      <trkpt lat="43.6727" lon="5.86231">
        <ele>464</ele>
        <time>2016-03-19T11:02:39.171Z</time>
      </trkpt>
      <trkpt lat="43.67268" lon="5.8624">
        <ele>464</ele>
        <time>2016-03-19T11:02:40.144Z</time>
      </trkpt>
      <trkpt lat="43.67266" lon="5.86248">
        <ele>464</ele>
        <time>2016-03-19T11:02:41.195Z</time>
      </trkpt>
      <trkpt lat="43.67264" lon="5.86256">
        <ele>464</ele>
        <time>2016-03-19T11:02:42.140Z</time>
      </trkpt>
      <trkpt lat="43.67262" lon="5.86263">
        <ele>464</ele>
        <time>2016-03-19T11:02:43.173Z</time>
      </trkpt>
      <trkpt lat="43.67261" lon="5.86271">
        <ele>464</ele>
        <time>2016-03-19T11:02:44.145Z</time>
      </trkpt>
      <trkpt lat="43.67259" lon="5.86277">
        <ele>464</ele>
        <time>2016-03-19T11:02:45.170Z</time>
      </trkpt>
      <trkpt lat="43.67257" lon="5.86283">
        <ele>463</ele>
        <time>2016-03-19T11:02:46.146Z</time>
      </trkpt>
      <trkpt lat="43.67255" lon="5.86289">
        <ele>463</ele>
        <time>2016-03-19T11:02:47.159Z</time>
      </trkpt>
      <trkpt lat="43.67252" lon="5.86294">
        <ele>464</ele>
        <time>2016-03-19T11:02:48.145Z</time>
      </trkpt>
      <trkpt lat="43.67248" lon="5.86302">
        <ele>465</ele>
        <time>2016-03-19T11:02:50.172Z</time>
      </trkpt>
      <trkpt lat="43.67245" lon="5.86305">
        <ele>465</ele>
        <time>2016-03-19T11:02:51.146Z</time>
      </trkpt>
      <trkpt lat="43.67238" lon="5.86305">
        <ele>466</ele>
        <time>2016-03-19T11:02:53.173Z</time>
      </trkpt>
      <trkpt lat="43.67235" lon="5.86304">
        <ele>465</ele>
        <time>2016-03-19T11:02:54.144Z</time>
      </trkpt>
      <trkpt lat="43.67232" lon="5.86299">
        <ele>465</ele>
        <time>2016-03-19T11:02:55.172Z</time>
      </trkpt>
      <trkpt lat="43.67231" lon="5.86292">
        <ele>464</ele>
        <time>2016-03-19T11:02:56.144Z</time>
      </trkpt>
      <trkpt lat="43.67233" lon="5.86286">
        <ele>465</ele>
        <time>2016-03-19T11:02:57.171Z</time>
      </trkpt>
      <trkpt lat="43.67234" lon="5.86278">
        <ele>464</ele>
        <time>2016-03-19T11:02:58.144Z</time>
      </trkpt>
      <trkpt lat="43.67233" lon="5.86271">
        <ele>464</ele>
        <time>2016-03-19T11:02:59.158Z</time>
      </trkpt>
      <trkpt lat="43.67231" lon="5.86264">
        <ele>464</ele>
        <time>2016-03-19T11:03:00.145Z</time>
      </trkpt>
      <trkpt lat="43.67227" lon="5.86257">
        <ele>464</ele>
        <time>2016-03-19T11:03:01.163Z</time>
      </trkpt>
      <trkpt lat="43.67224" lon="5.86251">
        <ele>465</ele>
        <time>2016-03-19T11:03:02.138Z</time>
      </trkpt>
      <trkpt lat="43.6722" lon="5.86246">
        <ele>465</ele>
        <time>2016-03-19T11:03:03.170Z</time>
      </trkpt>
      <trkpt lat="43.67216" lon="5.86241">
        <ele>465</ele>
        <time>2016-03-19T11:03:04.166Z</time>
      </trkpt>
      <trkpt lat="43.67209" lon="5.86233">
        <ele>465</ele>
        <time>2016-03-19T11:03:06.169Z</time>
      </trkpt>
      <trkpt lat="43.67206" lon="5.8623">
        <ele>466</ele>
        <time>2016-03-19T11:03:07.145Z</time>
      </trkpt>
      <trkpt lat="43.67201" lon="5.86223">
        <ele>467</ele>
        <time>2016-03-19T11:03:10.172Z</time>
      </trkpt>
      <trkpt lat="43.672" lon="5.86219">
        <ele>467</ele>
        <time>2016-03-19T11:03:11.138Z</time>
      </trkpt>
      <trkpt lat="43.67205" lon="5.86209">
        <ele>468</ele>
        <time>2016-03-19T11:03:14.171Z</time>
      </trkpt>
      <trkpt lat="43.67208" lon="5.86206">
        <ele>469</ele>
        <time>2016-03-19T11:03:15.145Z</time>
      </trkpt>
      <trkpt lat="43.67215" lon="5.86202">
        <ele>469</ele>
        <time>2016-03-19T11:03:17.171Z</time>
      </trkpt>
      <trkpt lat="43.67217" lon="5.862">
        <ele>468</ele>
        <time>2016-03-19T11:03:18.145Z</time>
      </trkpt>
      <trkpt lat="43.67224" lon="5.86196">
        <ele>469</ele>
        <time>2016-03-19T11:03:20.168Z</time>
      </trkpt>
      <trkpt lat="43.67227" lon="5.86194">
        <ele>469</ele>
        <time>2016-03-19T11:03:21.138Z</time>
      </trkpt>
      <trkpt lat="43.67233" lon="5.8619">
        <ele>470</ele>
        <time>2016-03-19T11:03:23.173Z</time>
      </trkpt>
      <trkpt lat="43.67235" lon="5.86188">
        <ele>470</ele>
        <time>2016-03-19T11:03:24.146Z</time>
      </trkpt>
      <trkpt lat="43.67236" lon="5.86176">
        <ele>470</ele>
        <time>2016-03-19T11:03:27.165Z</time>
      </trkpt>
      <trkpt lat="43.67234" lon="5.86172">
        <ele>470</ele>
        <time>2016-03-19T11:03:28.144Z</time>
      </trkpt>
      <trkpt lat="43.67229" lon="5.86168">
        <ele>470</ele>
        <time>2016-03-19T11:03:30.172Z</time>
      </trkpt>
      <trkpt lat="43.67226" lon="5.86168">
        <ele>469</ele>
        <time>2016-03-19T11:03:31.144Z</time>
      </trkpt>
      <trkpt lat="43.67219" lon="5.86168">
        <ele>470</ele>
        <time>2016-03-19T11:03:33.174Z</time>
      </trkpt>
      <trkpt lat="43.67216" lon="5.86169">
        <ele>470</ele>
        <time>2016-03-19T11:03:34.145Z</time>
      </trkpt>
      <trkpt lat="43.67207" lon="5.86168">
        <ele>469</ele>
        <time>2016-03-19T11:03:37.173Z</time>
      </trkpt>
      <trkpt lat="43.67204" lon="5.86168">
        <ele>470</ele>
        <time>2016-03-19T11:03:38.139Z</time>
      </trkpt>
      <trkpt lat="43.67195" lon="5.86166">
        <ele>470</ele>
        <time>2016-03-19T11:03:41.170Z</time>
      </trkpt>
      <trkpt lat="43.67192" lon="5.86166">
        <ele>470</ele>
        <time>2016-03-19T11:03:42.145Z</time>
      </trkpt>
      <trkpt lat="43.67186" lon="5.86164">
        <ele>469</ele>
        <time>2016-03-19T11:03:44.173Z</time>
      </trkpt>
      <trkpt lat="43.67184" lon="5.86161">
        <ele>469</ele>
        <time>2016-03-19T11:03:45.172Z</time>
      </trkpt>
      <trkpt lat="43.67182" lon="5.86152">
        <ele>469</ele>
        <time>2016-03-19T11:03:48.161Z</time>
      </trkpt>
      <trkpt lat="43.67183" lon="5.86149">
        <ele>469</ele>
        <time>2016-03-19T11:03:49.145Z</time>
      </trkpt>
      <trkpt lat="43.6719" lon="5.86144">
        <ele>470</ele>
        <time>2016-03-19T11:03:52.167Z</time>
      </trkpt>
      <trkpt lat="43.67191" lon="5.86143">
        <ele>470</ele>
        <time>2016-03-19T11:03:53.144Z</time>
      </trkpt>
      <trkpt lat="43.67189" lon="5.86131">
        <ele>472</ele>
        <time>2016-03-19T11:04:15.171Z</time>
      </trkpt>
      <trkpt lat="43.67189" lon="5.8613">
        <ele>472</ele>
        <time>2016-03-19T11:04:16.145Z</time>
      </trkpt>
      <trkpt lat="43.67181" lon="5.86124">
        <ele>470</ele>
        <time>2016-03-19T11:04:37.166Z</time>
      </trkpt>
      <trkpt lat="43.6718" lon="5.86123">
        <ele>469</ele>
        <time>2016-03-19T11:04:38.143Z</time>
      </trkpt>
      <trkpt lat="43.67178" lon="5.86117">
        <ele>472</ele>
        <time>2016-03-19T11:06:12.379Z</time>
      </trkpt>
    </trkseg>
  </trk>
</gpx>